<?xml version='1.0' encoding='UTF-8'?><gpx version="1.1" creator="JPX - https://github.com/jenetics/jpx" xmlns="http://www.topografix.com/GPX/1/1"><trk><trkseg><trkpt lat="43.3006985" lon="11.8999431"><ele>246.0</ele><time>2026-03-29T06:40:50.067Z</time></trkpt><trkpt lat="43.3007954" lon="11.9000864"><ele>246.0</ele><time>2026-03-29T06:40:51.067Z</time></trkpt><trkpt lat="43.3009134" lon="11.9002518"><ele>246.0</ele><time>2026-03-29T06:40:52.067Z</time></trkpt><trkpt lat="43.301048" lon="11.9004367"><ele>246.0</ele><time>2026-03-29T06:40:53.067Z</time></trkpt><trkpt lat="43.3011755" lon="11.9006175"><ele>246.0</ele><time>2026-03-29T06:40:54.067Z</time></trkpt><trkpt lat="43.301289" lon="11.9007831"><ele>246.0</ele><time>2026-03-29T06:40:55.066Z</time></trkpt><trkpt lat="43.3013943" lon="11.9009295"><ele>246.5</ele><time>2026-03-29T06:40:56.067Z</time></trkpt><trkpt lat="43.30149" lon="11.9010603"><ele>247.0</ele><time>2026-03-29T06:40:57.067Z</time></trkpt><trkpt lat="43.3015832" lon="11.901187"><ele>247.5</ele><time>2026-03-29T06:40:58.067Z</time></trkpt><trkpt lat="43.3016733" lon="11.901318"><ele>248.0</ele><time>2026-03-29T06:40:59.066Z</time></trkpt><trkpt lat="43.3017602" lon="11.9014451"><ele>248.0</ele><time>2026-03-29T06:41:00.066Z</time></trkpt><trkpt lat="43.3018491" lon="11.9015611"><ele>248.0</ele><time>2026-03-29T06:41:01.067Z</time></trkpt><trkpt lat="43.301936" lon="11.9016848"><ele>248.0</ele><time>2026-03-29T06:41:02.066Z</time></trkpt><trkpt lat="43.3020236" lon="11.9018149"><ele>248.0</ele><time>2026-03-29T06:41:03.067Z</time></trkpt><trkpt lat="43.3021117" lon="11.9019487"><ele>247.75</ele><time>2026-03-29T06:41:04.067Z</time></trkpt><trkpt lat="43.3022078" lon="11.9020867"><ele>247.5</ele><time>2026-03-29T06:41:05.067Z</time></trkpt><trkpt lat="43.3023053" lon="11.9022249"><ele>247.25</ele><time>2026-03-29T06:41:06.067Z</time></trkpt><trkpt lat="43.3024" lon="11.9023575"><ele>247.0</ele><time>2026-03-29T06:41:07.067Z</time></trkpt><trkpt lat="43.302495" lon="11.9024924"><ele>247.0</ele><time>2026-03-29T06:41:08.067Z</time></trkpt><trkpt lat="43.3025886" lon="11.9026308"><ele>247.0</ele><time>2026-03-29T06:41:09.067Z</time></trkpt><trkpt lat="43.3026848" lon="11.9027731"><ele>247.0</ele><time>2026-03-29T06:41:10.066Z</time></trkpt><trkpt lat="43.3027873" lon="11.9029186"><ele>247.0</ele><time>2026-03-29T06:41:11.066Z</time></trkpt><trkpt lat="43.3028892" lon="11.9030625"><ele>247.0</ele><time>2026-03-29T06:41:12.067Z</time></trkpt><trkpt lat="43.3029889" lon="11.9032048"><ele>247.0</ele><time>2026-03-29T06:41:13.067Z</time></trkpt><trkpt lat="43.3030869" lon="11.9033486"><ele>247.0</ele><time>2026-03-29T06:41:14.066Z</time></trkpt><trkpt lat="43.3031859" lon="11.9034927"><ele>247.0</ele><time>2026-03-29T06:41:15.067Z</time></trkpt><trkpt lat="43.3032848" lon="11.9036365"><ele>247.25</ele><time>2026-03-29T06:41:16.067Z</time></trkpt><trkpt lat="43.3033833" lon="11.9037808"><ele>247.5</ele><time>2026-03-29T06:41:17.066Z</time></trkpt><trkpt lat="43.3034857" lon="11.9039241"><ele>247.75</ele><time>2026-03-29T06:41:18.067Z</time></trkpt><trkpt lat="43.3035863" lon="11.9040649"><ele>248.0</ele><time>2026-03-29T06:41:19.067Z</time></trkpt><trkpt lat="43.3036828" lon="11.9041985"><ele>247.75</ele><time>2026-03-29T06:41:20.067Z</time></trkpt><trkpt lat="43.3037766" lon="11.9043291"><ele>247.5</ele><time>2026-03-29T06:41:21.066Z</time></trkpt><trkpt lat="43.3038672" lon="11.9044572"><ele>247.25</ele><time>2026-03-29T06:41:22.067Z</time></trkpt><trkpt lat="43.3039556" lon="11.9045841"><ele>247.0</ele><time>2026-03-29T06:41:23.067Z</time></trkpt><trkpt lat="43.3040391" lon="11.9047098"><ele>247.0</ele><time>2026-03-29T06:41:24.066Z</time></trkpt><trkpt lat="43.3041188" lon="11.9048278"><ele>247.0</ele><time>2026-03-29T06:41:25.067Z</time></trkpt><trkpt lat="43.3041969" lon="11.9049419"><ele>247.0</ele><time>2026-03-29T06:41:26.067Z</time></trkpt><trkpt lat="43.3042761" lon="11.9050564"><ele>247.0</ele><time>2026-03-29T06:41:27.067Z</time></trkpt><trkpt lat="43.3043579" lon="11.9051675"><ele>247.0</ele><time>2026-03-29T06:41:28.067Z</time></trkpt><trkpt lat="43.3044436" lon="11.9052806"><ele>247.0</ele><time>2026-03-29T06:41:29.067Z</time></trkpt><trkpt lat="43.30453" lon="11.90541"><ele>247.0</ele><time>2026-03-29T06:41:30.066Z</time></trkpt><trkpt lat="43.30462" lon="11.905535"><ele>247.0</ele><time>2026-03-29T06:41:31.067Z</time></trkpt><trkpt lat="43.3047167" lon="11.9056633"><ele>247.0</ele><time>2026-03-29T06:41:32.067Z</time></trkpt><trkpt lat="43.3048033" lon="11.9058017"><ele>247.0</ele><time>2026-03-29T06:41:33.067Z</time></trkpt><trkpt lat="43.304895" lon="11.90593"><ele>247.0</ele><time>2026-03-29T06:41:34.067Z</time></trkpt><trkpt lat="43.304985" lon="11.90606"><ele>247.0</ele><time>2026-03-29T06:41:35.068Z</time></trkpt><trkpt lat="43.30507" lon="11.9061917"><ele>247.0</ele><time>2026-03-29T06:41:36.067Z</time></trkpt><trkpt lat="43.3051583" lon="11.9063183"><ele>247.0</ele><time>2026-03-29T06:41:37.068Z</time></trkpt><trkpt lat="43.3052533" lon="11.90644"><ele>247.0</ele><time>2026-03-29T06:41:38.068Z</time></trkpt><trkpt lat="43.3053483" lon="11.90657"><ele>247.0</ele><time>2026-03-29T06:41:39.067Z</time></trkpt><trkpt lat="43.30544" lon="11.9067033"><ele>246.66666666666666</ele><time>2026-03-29T06:41:40.067Z</time></trkpt><trkpt lat="43.3055317" lon="11.9068467"><ele>246.33333333333331</ele><time>2026-03-29T06:41:41.067Z</time></trkpt><trkpt lat="43.3056433" lon="11.9070067"><ele>246.0</ele><time>2026-03-29T06:41:42.068Z</time></trkpt><trkpt lat="43.30576" lon="11.9071783"><ele>246.66666666666669</ele><time>2026-03-29T06:41:43.068Z</time></trkpt><trkpt lat="43.3058817" lon="11.907355"><ele>247.33333333333334</ele><time>2026-03-29T06:41:44.068Z</time></trkpt><trkpt lat="43.3059917" lon="11.9075117"><ele>248.0</ele><time>2026-03-29T06:41:45.067Z</time></trkpt><trkpt lat="43.3060967" lon="11.907665"><ele>248.0</ele><time>2026-03-29T06:41:46.068Z</time></trkpt><trkpt lat="43.3061983" lon="11.9078167"><ele>248.0</ele><time>2026-03-29T06:41:47.068Z</time></trkpt><trkpt lat="43.3063167" lon="11.9079517"><ele>248.0</ele><time>2026-03-29T06:41:48.067Z</time></trkpt><trkpt lat="43.3064217" lon="11.9081167"><ele>247.66666666666669</ele><time>2026-03-29T06:41:49.068Z</time></trkpt><trkpt lat="43.30653" lon="11.908285"><ele>247.33333333333331</ele><time>2026-03-29T06:41:50.068Z</time></trkpt><trkpt lat="43.3066383" lon="11.9084433"><ele>247.0</ele><time>2026-03-29T06:41:51.067Z</time></trkpt><trkpt lat="43.3067483" lon="11.9086033"><ele>247.0</ele><time>2026-03-29T06:41:52.068Z</time></trkpt><trkpt lat="43.306855" lon="11.9087633"><ele>247.0</ele><time>2026-03-29T06:41:53.068Z</time></trkpt><trkpt lat="43.306965" lon="11.9089217"><ele>247.0</ele><time>2026-03-29T06:41:54.068Z</time></trkpt><trkpt lat="43.3070733" lon="11.9090733"><ele>247.0</ele><time>2026-03-29T06:41:55.067Z</time></trkpt><trkpt lat="43.30718" lon="11.9092283"><ele>247.0</ele><time>2026-03-29T06:41:56.068Z</time></trkpt><trkpt lat="43.3072883" lon="11.9093867"><ele>247.0</ele><time>2026-03-29T06:41:57.068Z</time></trkpt><trkpt lat="43.30739" lon="11.9095317"><ele>247.0</ele><time>2026-03-29T06:41:58.068Z</time></trkpt><trkpt lat="43.30749" lon="11.9096717"><ele>247.0</ele><time>2026-03-29T06:41:59.067Z</time></trkpt><trkpt lat="43.307585" lon="11.9098133"><ele>247.0</ele><time>2026-03-29T06:42:00.067Z</time></trkpt><trkpt lat="43.30768" lon="11.9099517"><ele>247.0</ele><time>2026-03-29T06:42:01.068Z</time></trkpt><trkpt lat="43.30778" lon="11.91009"><ele>247.0</ele><time>2026-03-29T06:42:02.068Z</time></trkpt><trkpt lat="43.307875" lon="11.9102233"><ele>247.0</ele><time>2026-03-29T06:42:03.067Z</time></trkpt><trkpt lat="43.3079667" lon="11.9103517"><ele>247.0</ele><time>2026-03-29T06:42:04.067Z</time></trkpt><trkpt lat="43.30806" lon="11.9104817"><ele>247.0</ele><time>2026-03-29T06:42:05.068Z</time></trkpt><trkpt lat="43.3081433" lon="11.910605"><ele>247.0</ele><time>2026-03-29T06:42:06.068Z</time></trkpt><trkpt lat="43.3082317" lon="11.91073"><ele>247.0</ele><time>2026-03-29T06:42:07.068Z</time></trkpt><trkpt lat="43.3083183" lon="11.910855"><ele>247.0</ele><time>2026-03-29T06:42:08.067Z</time></trkpt><trkpt lat="43.3084" lon="11.9109783"><ele>247.0</ele><time>2026-03-29T06:42:09.068Z</time></trkpt><trkpt lat="43.3084783" lon="11.9111033"><ele>247.0</ele><time>2026-03-29T06:42:10.068Z</time></trkpt><trkpt lat="43.3085733" lon="11.9112283"><ele>247.0</ele><time>2026-03-29T06:42:11.068Z</time></trkpt><trkpt lat="43.3086667" lon="11.9113583"><ele>247.0</ele><time>2026-03-29T06:42:12.068Z</time></trkpt><trkpt lat="43.308765" lon="11.9114883"><ele>247.0</ele><time>2026-03-29T06:42:13.068Z</time></trkpt><trkpt lat="43.308855" lon="11.9116133"><ele>246.75</ele><time>2026-03-29T06:42:14.068Z</time></trkpt><trkpt lat="43.3089417" lon="11.9117383"><ele>246.5</ele><time>2026-03-29T06:42:15.067Z</time></trkpt><trkpt lat="43.309025" lon="11.9118667"><ele>246.25</ele><time>2026-03-29T06:42:16.067Z</time></trkpt><trkpt lat="43.30911" lon="11.911985"><ele>246.0</ele><time>2026-03-29T06:42:17.067Z</time></trkpt><trkpt lat="43.309195" lon="11.91211"><ele>245.75</ele><time>2026-03-29T06:42:18.067Z</time></trkpt><trkpt lat="43.3092817" lon="11.912235"><ele>245.5</ele><time>2026-03-29T06:42:19.068Z</time></trkpt><trkpt lat="43.3093767" lon="11.9123633"><ele>245.25</ele><time>2026-03-29T06:42:20.068Z</time></trkpt><trkpt lat="43.30947" lon="11.912495"><ele>245.0</ele><time>2026-03-29T06:42:21.068Z</time></trkpt><trkpt lat="43.309565" lon="11.9126317"><ele>245.5</ele><time>2026-03-29T06:42:22.067Z</time></trkpt><trkpt lat="43.3096567" lon="11.9127683"><ele>246.0</ele><time>2026-03-29T06:42:23.068Z</time></trkpt><trkpt lat="43.3097517" lon="11.9129067"><ele>246.5</ele><time>2026-03-29T06:42:24.067Z</time></trkpt><trkpt lat="43.3098483" lon="11.9130467"><ele>247.0</ele><time>2026-03-29T06:42:25.068Z</time></trkpt><trkpt lat="43.3099433" lon="11.913185"><ele>247.25</ele><time>2026-03-29T06:42:26.068Z</time></trkpt><trkpt lat="43.3100483" lon="11.913325"><ele>247.5</ele><time>2026-03-29T06:42:27.068Z</time></trkpt><trkpt lat="43.3101517" lon="11.9134733"><ele>247.75</ele><time>2026-03-29T06:42:28.067Z</time></trkpt><trkpt lat="43.310255" lon="11.9136183"><ele>248.0</ele><time>2026-03-29T06:42:29.068Z</time></trkpt><trkpt lat="43.3103567" lon="11.9137667"><ele>248.0</ele><time>2026-03-29T06:42:30.067Z</time></trkpt><trkpt lat="43.3104583" lon="11.9139167"><ele>248.0</ele><time>2026-03-29T06:42:31.068Z</time></trkpt><trkpt lat="43.3105617" lon="11.9140583"><ele>248.0</ele><time>2026-03-29T06:42:32.068Z</time></trkpt><trkpt lat="43.310655" lon="11.9142"><ele>248.0</ele><time>2026-03-29T06:42:33.067Z</time></trkpt><trkpt lat="43.310755" lon="11.914345"><ele>247.25</ele><time>2026-03-29T06:42:34.067Z</time></trkpt><trkpt lat="43.310855" lon="11.914485"><ele>246.5</ele><time>2026-03-29T06:42:35.068Z</time></trkpt><trkpt lat="43.3109567" lon="11.9146283"><ele>245.75</ele><time>2026-03-29T06:42:36.068Z</time></trkpt><trkpt lat="43.3110617" lon="11.9147833"><ele>245.0</ele><time>2026-03-29T06:42:37.068Z</time></trkpt><trkpt lat="43.3111817" lon="11.914965"><ele>245.0</ele><time>2026-03-29T06:42:38.068Z</time></trkpt><trkpt lat="43.3113106" lon="11.9151418"><ele>245.0</ele><time>2026-03-29T06:42:39.067Z</time></trkpt><trkpt lat="43.311441" lon="11.9153246"><ele>245.0</ele><time>2026-03-29T06:42:40.068Z</time></trkpt><trkpt lat="43.31157" lon="11.9155109"><ele>245.0</ele><time>2026-03-29T06:42:41.067Z</time></trkpt><trkpt lat="43.3117062" lon="11.9157071"><ele>245.0</ele><time>2026-03-29T06:42:42.068Z</time></trkpt><trkpt lat="43.3118531" lon="11.915917"><ele>245.0</ele><time>2026-03-29T06:42:43.067Z</time></trkpt><trkpt lat="43.3120077" lon="11.9161355"><ele>245.5</ele><time>2026-03-29T06:42:44.068Z</time></trkpt><trkpt lat="43.3121674" lon="11.9163656"><ele>246.0</ele><time>2026-03-29T06:42:45.068Z</time></trkpt><trkpt lat="43.3123311" lon="11.9166005"><ele>246.0</ele><time>2026-03-29T06:42:46.067Z</time></trkpt><trkpt lat="43.3124968" lon="11.9168365"><ele>246.0</ele><time>2026-03-29T06:42:47.068Z</time></trkpt><trkpt lat="43.31265" lon="11.9170592"><ele>246.0</ele><time>2026-03-29T06:42:48.068Z</time></trkpt><trkpt lat="43.3127914" lon="11.9172625"><ele>246.0</ele><time>2026-03-29T06:42:49.067Z</time></trkpt><trkpt lat="43.3129211" lon="11.9174465"><ele>246.0</ele><time>2026-03-29T06:42:50.067Z</time></trkpt><trkpt lat="43.3130423" lon="11.9176178"><ele>246.33333333333331</ele><time>2026-03-29T06:42:51.068Z</time></trkpt><trkpt lat="43.3131594" lon="11.9177858"><ele>246.66666666666666</ele><time>2026-03-29T06:42:52.068Z</time></trkpt><trkpt lat="43.3132743" lon="11.9179541"><ele>247.0</ele><time>2026-03-29T06:42:53.068Z</time></trkpt><trkpt lat="43.3133871" lon="11.918117"><ele>247.0</ele><time>2026-03-29T06:42:54.067Z</time></trkpt><trkpt lat="43.3134899" lon="11.9182693"><ele>247.0</ele><time>2026-03-29T06:42:55.068Z</time></trkpt><trkpt lat="43.3135849" lon="11.9184067"><ele>247.0</ele><time>2026-03-29T06:42:56.068Z</time></trkpt><trkpt lat="43.3136725" lon="11.9185363"><ele>247.0</ele><time>2026-03-29T06:42:57.067Z</time></trkpt><trkpt lat="43.3137606" lon="11.9186665"><ele>247.0</ele><time>2026-03-29T06:42:58.068Z</time></trkpt><trkpt lat="43.3138488" lon="11.9188016"><ele>247.0</ele><time>2026-03-29T06:42:59.068Z</time></trkpt><trkpt lat="43.31394" lon="11.9189347"><ele>247.0</ele><time>2026-03-29T06:43:00.068Z</time></trkpt><trkpt lat="43.3140361" lon="11.9190656"><ele>247.0</ele><time>2026-03-29T06:43:01.067Z</time></trkpt><trkpt lat="43.3141371" lon="11.9192027"><ele>247.5</ele><time>2026-03-29T06:43:02.068Z</time></trkpt><trkpt lat="43.3142342" lon="11.9193386"><ele>248.0</ele><time>2026-03-29T06:43:03.067Z</time></trkpt><trkpt lat="43.3143241" lon="11.9194693"><ele>248.5</ele><time>2026-03-29T06:43:04.068Z</time></trkpt><trkpt lat="43.3144043" lon="11.9195893"><ele>249.0</ele><time>2026-03-29T06:43:05.068Z</time></trkpt><trkpt lat="43.3144804" lon="11.9196987"><ele>249.0</ele><time>2026-03-29T06:43:06.068Z</time></trkpt><trkpt lat="43.3145512" lon="11.9197967"><ele>249.0</ele><time>2026-03-29T06:43:07.067Z</time></trkpt><trkpt lat="43.3146178" lon="11.9198809"><ele>249.0</ele><time>2026-03-29T06:43:08.068Z</time></trkpt><trkpt lat="43.3146819" lon="11.9199495"><ele>249.0</ele><time>2026-03-29T06:43:09.068Z</time></trkpt><trkpt lat="43.3147459" lon="11.9200056"><ele>249.0</ele><time>2026-03-29T06:43:10.068Z</time></trkpt><trkpt lat="43.3148129" lon="11.9200568"><ele>249.0</ele><time>2026-03-29T06:43:11.068Z</time></trkpt><trkpt lat="43.314878" lon="11.9201039"><ele>249.2</ele><time>2026-03-29T06:43:12.068Z</time></trkpt><trkpt lat="43.3149601" lon="11.9202068"><ele>249.39999999999998</ele><time>2026-03-29T06:43:14.068Z</time></trkpt><trkpt lat="43.3149859" lon="11.9203591"><ele>249.6</ele><time>2026-03-29T06:43:16.068Z</time></trkpt><trkpt lat="43.315006" lon="11.9204553"><ele>249.8</ele><time>2026-03-29T06:43:17.068Z</time></trkpt><trkpt lat="43.3150474" lon="11.9205439"><ele>250.0</ele><time>2026-03-29T06:43:18.068Z</time></trkpt><trkpt lat="43.3151141" lon="11.9206429"><ele>250.0</ele><time>2026-03-29T06:43:19.068Z</time></trkpt><trkpt lat="43.3151965" lon="11.9207529"><ele>250.0</ele><time>2026-03-29T06:43:20.068Z</time></trkpt><trkpt lat="43.3152862" lon="11.9208686"><ele>250.0</ele><time>2026-03-29T06:43:21.068Z</time></trkpt><trkpt lat="43.3153769" lon="11.9209959"><ele>250.0</ele><time>2026-03-29T06:43:22.068Z</time></trkpt><trkpt lat="43.3154639" lon="11.9211222"><ele>250.4</ele><time>2026-03-29T06:43:23.068Z</time></trkpt><trkpt lat="43.3155442" lon="11.9212371"><ele>250.8</ele><time>2026-03-29T06:43:24.068Z</time></trkpt><trkpt lat="43.3156192" lon="11.921324"><ele>251.2</ele><time>2026-03-29T06:43:25.068Z</time></trkpt><trkpt lat="43.3156963" lon="11.9213821"><ele>251.6</ele><time>2026-03-29T06:43:26.067Z</time></trkpt><trkpt lat="43.3157867" lon="11.9214074"><ele>252.0</ele><time>2026-03-29T06:43:27.067Z</time></trkpt><trkpt lat="43.3159018" lon="11.9214163"><ele>252.66666666666669</ele><time>2026-03-29T06:43:28.068Z</time></trkpt><trkpt lat="43.3160495" lon="11.9214167"><ele>253.33333333333334</ele><time>2026-03-29T06:43:29.067Z</time></trkpt><trkpt lat="43.3162161" lon="11.9214154"><ele>254.0</ele><time>2026-03-29T06:43:30.068Z</time></trkpt><trkpt lat="43.3163827" lon="11.9214186"><ele>254.33333333333334</ele><time>2026-03-29T06:43:31.068Z</time></trkpt><trkpt lat="43.31655" lon="11.9214226"><ele>254.66666666666669</ele><time>2026-03-29T06:43:32.068Z</time></trkpt><trkpt lat="43.3167212" lon="11.9214261"><ele>255.0</ele><time>2026-03-29T06:43:33.068Z</time></trkpt><trkpt lat="43.3168986" lon="11.92143"><ele>255.0</ele><time>2026-03-29T06:43:34.068Z</time></trkpt><trkpt lat="43.3170805" lon="11.9214355"><ele>255.0</ele><time>2026-03-29T06:43:35.068Z</time></trkpt><trkpt lat="43.3172656" lon="11.9214468"><ele>255.0</ele><time>2026-03-29T06:43:36.068Z</time></trkpt><trkpt lat="43.3174492" lon="11.9214548"><ele>254.33333333333331</ele><time>2026-03-29T06:43:37.067Z</time></trkpt><trkpt lat="43.3176202" lon="11.9214623"><ele>253.66666666666666</ele><time>2026-03-29T06:43:38.068Z</time></trkpt><trkpt lat="43.317775" lon="11.921467"><ele>253.0</ele><time>2026-03-29T06:43:39.068Z</time></trkpt><trkpt lat="43.3179241" lon="11.9214698"><ele>253.33333333333331</ele><time>2026-03-29T06:43:40.067Z</time></trkpt><trkpt lat="43.3180755" lon="11.9214788"><ele>253.66666666666669</ele><time>2026-03-29T06:43:41.068Z</time></trkpt><trkpt lat="43.318251" lon="11.9214847"><ele>254.0</ele><time>2026-03-29T06:43:42.067Z</time></trkpt><trkpt lat="43.3184351" lon="11.9214939"><ele>254.0</ele><time>2026-03-29T06:43:43.068Z</time></trkpt><trkpt lat="43.3186124" lon="11.9215008"><ele>254.0</ele><time>2026-03-29T06:43:44.068Z</time></trkpt><trkpt lat="43.3187733" lon="11.9215"><ele>254.0</ele><time>2026-03-29T06:43:45.068Z</time></trkpt><trkpt lat="43.3189267" lon="11.921495"><ele>254.0</ele><time>2026-03-29T06:43:46.068Z</time></trkpt><trkpt lat="43.31907" lon="11.921505"><ele>254.0</ele><time>2026-03-29T06:43:47.067Z</time></trkpt><trkpt lat="43.3191967" lon="11.9215217"><ele>254.0</ele><time>2026-03-29T06:43:48.067Z</time></trkpt><trkpt lat="43.3193283" lon="11.921535"><ele>254.0</ele><time>2026-03-29T06:43:49.068Z</time></trkpt><trkpt lat="43.3194467" lon="11.9215417"><ele>254.0</ele><time>2026-03-29T06:43:50.068Z</time></trkpt><trkpt lat="43.319565" lon="11.9215417"><ele>254.0</ele><time>2026-03-29T06:43:51.067Z</time></trkpt><trkpt lat="43.31968" lon="11.92154"><ele>254.0</ele><time>2026-03-29T06:43:52.068Z</time></trkpt><trkpt lat="43.3198033" lon="11.9215417"><ele>254.0</ele><time>2026-03-29T06:43:53.067Z</time></trkpt><trkpt lat="43.31993" lon="11.9215483"><ele>254.0</ele><time>2026-03-29T06:43:54.068Z</time></trkpt><trkpt lat="43.32006" lon="11.9215483"><ele>254.0</ele><time>2026-03-29T06:43:55.068Z</time></trkpt><trkpt lat="43.320195" lon="11.921555"><ele>254.0</ele><time>2026-03-29T06:43:56.068Z</time></trkpt><trkpt lat="43.3203367" lon="11.9215633"><ele>254.0</ele><time>2026-03-29T06:43:57.067Z</time></trkpt><trkpt lat="43.3204783" lon="11.92157"><ele>253.75</ele><time>2026-03-29T06:43:58.068Z</time></trkpt><trkpt lat="43.320615" lon="11.9215767"><ele>253.5</ele><time>2026-03-29T06:43:59.067Z</time></trkpt><trkpt lat="43.320755" lon="11.92158"><ele>253.25</ele><time>2026-03-29T06:44:00.068Z</time></trkpt><trkpt lat="43.320895" lon="11.9215833"><ele>253.0</ele><time>2026-03-29T06:44:01.068Z</time></trkpt><trkpt lat="43.3210317" lon="11.9215867"><ele>253.0</ele><time>2026-03-29T06:44:02.067Z</time></trkpt><trkpt lat="43.3211717" lon="11.9215833"><ele>253.0</ele><time>2026-03-29T06:44:03.068Z</time></trkpt><trkpt lat="43.321325" lon="11.9215833"><ele>253.0</ele><time>2026-03-29T06:44:04.068Z</time></trkpt><trkpt lat="43.3214733" lon="11.9215833"><ele>253.0</ele><time>2026-03-29T06:44:05.068Z</time></trkpt><trkpt lat="43.3216167" lon="11.9215917"><ele>253.25</ele><time>2026-03-29T06:44:06.067Z</time></trkpt><trkpt lat="43.3217667" lon="11.9215967"><ele>253.5</ele><time>2026-03-29T06:44:07.068Z</time></trkpt><trkpt lat="43.321915" lon="11.9216017"><ele>253.75</ele><time>2026-03-29T06:44:08.067Z</time></trkpt><trkpt lat="43.322055" lon="11.9216083"><ele>254.0</ele><time>2026-03-29T06:44:09.067Z</time></trkpt><trkpt lat="43.322195" lon="11.92161"><ele>254.0</ele><time>2026-03-29T06:44:10.068Z</time></trkpt><trkpt lat="43.3223417" lon="11.9216117"><ele>254.0</ele><time>2026-03-29T06:44:11.068Z</time></trkpt><trkpt lat="43.3224817" lon="11.9216067"><ele>254.0</ele><time>2026-03-29T06:44:12.068Z</time></trkpt><trkpt lat="43.3226217" lon="11.921605"><ele>254.0</ele><time>2026-03-29T06:44:13.068Z</time></trkpt><trkpt lat="43.3227567" lon="11.9216083"><ele>254.0</ele><time>2026-03-29T06:44:14.068Z</time></trkpt><trkpt lat="43.3228767" lon="11.9216083"><ele>254.0</ele><time>2026-03-29T06:44:15.067Z</time></trkpt><trkpt lat="43.323" lon="11.9216117"><ele>254.0</ele><time>2026-03-29T06:44:16.067Z</time></trkpt><trkpt lat="43.3231183" lon="11.9216117"><ele>254.0</ele><time>2026-03-29T06:44:17.068Z</time></trkpt><trkpt lat="43.3232367" lon="11.9216083"><ele>254.0</ele><time>2026-03-29T06:44:18.068Z</time></trkpt><trkpt lat="43.32336" lon="11.921615"><ele>254.0</ele><time>2026-03-29T06:44:19.068Z</time></trkpt><trkpt lat="43.3234833" lon="11.92162"><ele>254.0</ele><time>2026-03-29T06:44:20.068Z</time></trkpt><trkpt lat="43.3236117" lon="11.9216283"><ele>254.0</ele><time>2026-03-29T06:44:21.067Z</time></trkpt><trkpt lat="43.3237233" lon="11.92163"><ele>254.0</ele><time>2026-03-29T06:44:22.068Z</time></trkpt><trkpt lat="43.3238267" lon="11.9216333"><ele>253.99999999999997</ele><time>2026-03-29T06:44:23.068Z</time></trkpt><trkpt lat="43.3239167" lon="11.921635"><ele>253.99999999999997</ele><time>2026-03-29T06:44:24.067Z</time></trkpt><trkpt lat="43.3239883" lon="11.9216433"><ele>254.0</ele><time>2026-03-29T06:44:25.068Z</time></trkpt><trkpt lat="43.324085" lon="11.92163"><ele>254.0</ele><time>2026-03-29T06:44:27.068Z</time></trkpt><trkpt lat="43.32418" lon="11.9216533"><ele>254.0</ele><time>2026-03-29T06:44:29.068Z</time></trkpt><trkpt lat="43.3242367" lon="11.921695"><ele>254.0</ele><time>2026-03-29T06:44:30.068Z</time></trkpt><trkpt lat="43.3242933" lon="11.9217533"><ele>254.0</ele><time>2026-03-29T06:44:31.068Z</time></trkpt><trkpt lat="43.3243383" lon="11.921825"><ele>254.0</ele><time>2026-03-29T06:44:32.068Z</time></trkpt><trkpt lat="43.324365" lon="11.921905"><ele>254.0</ele><time>2026-03-29T06:44:33.068Z</time></trkpt><trkpt lat="43.3243933" lon="11.9220117"><ele>254.0</ele><time>2026-03-29T06:44:35.068Z</time></trkpt><trkpt lat="43.3244067" lon="11.922115"><ele>254.0</ele><time>2026-03-29T06:44:37.068Z</time></trkpt><trkpt lat="43.3244383" lon="11.9221967"><ele>254.0</ele><time>2026-03-29T06:44:38.068Z</time></trkpt><trkpt lat="43.324485" lon="11.9222917"><ele>253.99999999999997</ele><time>2026-03-29T06:44:39.068Z</time></trkpt><trkpt lat="43.324545" lon="11.9223933"><ele>253.99999999999997</ele><time>2026-03-29T06:44:40.068Z</time></trkpt><trkpt lat="43.3246117" lon="11.9225167"><ele>254.0</ele><time>2026-03-29T06:44:41.068Z</time></trkpt><trkpt lat="43.3246733" lon="11.9226567"><ele>254.0</ele><time>2026-03-29T06:44:42.068Z</time></trkpt><trkpt lat="43.3247317" lon="11.9228167"><ele>254.5</ele><time>2026-03-29T06:44:43.067Z</time></trkpt><trkpt lat="43.3247933" lon="11.92297"><ele>255.0</ele><time>2026-03-29T06:44:44.068Z</time></trkpt><trkpt lat="43.3248467" lon="11.9231167"><ele>255.5</ele><time>2026-03-29T06:44:45.068Z</time></trkpt><trkpt lat="43.3248917" lon="11.9232517"><ele>256.0</ele><time>2026-03-29T06:44:46.068Z</time></trkpt><trkpt lat="43.32493" lon="11.9233717"><ele>255.99999999999997</ele><time>2026-03-29T06:44:47.068Z</time></trkpt><trkpt lat="43.32496" lon="11.9234883"><ele>256.0</ele><time>2026-03-29T06:44:48.067Z</time></trkpt><trkpt lat="43.32498" lon="11.92359"><ele>256.0</ele><time>2026-03-29T06:44:49.068Z</time></trkpt><trkpt lat="43.324985" lon="11.9236983"><ele>256.0</ele><time>2026-03-29T06:44:50.067Z</time></trkpt><trkpt lat="43.324975" lon="11.92382"><ele>255.99999999999997</ele><time>2026-03-29T06:44:51.067Z</time></trkpt><trkpt lat="43.3249583" lon="11.9239467"><ele>256.0</ele><time>2026-03-29T06:44:52.067Z</time></trkpt><trkpt lat="43.324935" lon="11.92409"><ele>255.75</ele><time>2026-03-29T06:44:53.068Z</time></trkpt><trkpt lat="43.3249083" lon="11.9242467"><ele>255.5</ele><time>2026-03-29T06:44:54.067Z</time></trkpt><trkpt lat="43.324875" lon="11.9244033"><ele>255.25</ele><time>2026-03-29T06:44:55.068Z</time></trkpt><trkpt lat="43.324845" lon="11.9245467"><ele>255.0</ele><time>2026-03-29T06:44:56.067Z</time></trkpt><trkpt lat="43.32482" lon="11.924695"><ele>255.0</ele><time>2026-03-29T06:44:57.068Z</time></trkpt><trkpt lat="43.32479" lon="11.9248583"><ele>255.0</ele><time>2026-03-29T06:44:58.068Z</time></trkpt><trkpt lat="43.3247683" lon="11.9250183"><ele>255.0</ele><time>2026-03-29T06:44:59.068Z</time></trkpt><trkpt lat="43.3247483" lon="11.9252117"><ele>255.0</ele><time>2026-03-29T06:45:00.068Z</time></trkpt><trkpt lat="43.3247267" lon="11.9253933"><ele>255.25</ele><time>2026-03-29T06:45:01.068Z</time></trkpt><trkpt lat="43.32471" lon="11.9255967"><ele>255.5</ele><time>2026-03-29T06:45:02.068Z</time></trkpt><trkpt lat="43.324685" lon="11.9257917"><ele>255.75</ele><time>2026-03-29T06:45:03.067Z</time></trkpt><trkpt lat="43.3246633" lon="11.9259817"><ele>256.0</ele><time>2026-03-29T06:45:04.068Z</time></trkpt><trkpt lat="43.3246483" lon="11.9261483"><ele>256.0</ele><time>2026-03-29T06:45:05.068Z</time></trkpt><trkpt lat="43.32464" lon="11.9262867"><ele>256.0</ele><time>2026-03-29T06:45:06.067Z</time></trkpt><trkpt lat="43.324625" lon="11.9264233"><ele>256.0</ele><time>2026-03-29T06:45:07.068Z</time></trkpt><trkpt lat="43.3246017" lon="11.9265633"><ele>256.0</ele><time>2026-03-29T06:45:08.068Z</time></trkpt><trkpt lat="43.32456" lon="11.9267367"><ele>256.0</ele><time>2026-03-29T06:45:09.067Z</time></trkpt><trkpt lat="43.324515" lon="11.9269183"><ele>256.0</ele><time>2026-03-29T06:45:10.067Z</time></trkpt><trkpt lat="43.324475" lon="11.9270933"><ele>256.0</ele><time>2026-03-29T06:45:11.068Z</time></trkpt><trkpt lat="43.3244433" lon="11.9272633"><ele>256.0</ele><time>2026-03-29T06:45:12.068Z</time></trkpt><trkpt lat="43.324415" lon="11.9274433"><ele>256.0</ele><time>2026-03-29T06:45:13.068Z</time></trkpt><trkpt lat="43.3243967" lon="11.9276333"><ele>256.25</ele><time>2026-03-29T06:45:14.067Z</time></trkpt><trkpt lat="43.324375" lon="11.9278267"><ele>256.5</ele><time>2026-03-29T06:45:15.067Z</time></trkpt><trkpt lat="43.3243667" lon="11.9280117"><ele>256.75</ele><time>2026-03-29T06:45:16.068Z</time></trkpt><trkpt lat="43.3243667" lon="11.9281783"><ele>257.0</ele><time>2026-03-29T06:45:17.067Z</time></trkpt><trkpt lat="43.3243533" lon="11.92835"><ele>256.8</ele><time>2026-03-29T06:45:18.067Z</time></trkpt><trkpt lat="43.324345" lon="11.92852"><ele>256.6</ele><time>2026-03-29T06:45:19.068Z</time></trkpt><trkpt lat="43.32434" lon="11.92867"><ele>256.40000000000003</ele><time>2026-03-29T06:45:20.068Z</time></trkpt><trkpt lat="43.3243333" lon="11.9288083"><ele>256.2</ele><time>2026-03-29T06:45:21.068Z</time></trkpt><trkpt lat="43.3243417" lon="11.92894"><ele>256.0</ele><time>2026-03-29T06:45:22.068Z</time></trkpt><trkpt lat="43.3243767" lon="11.92908"><ele>256.0</ele><time>2026-03-29T06:45:23.068Z</time></trkpt><trkpt lat="43.324425" lon="11.92922"><ele>256.0</ele><time>2026-03-29T06:45:24.068Z</time></trkpt><trkpt lat="43.3244933" lon="11.9293733"><ele>256.0</ele><time>2026-03-29T06:45:25.068Z</time></trkpt><trkpt lat="43.3245633" lon="11.929545"><ele>256.0</ele><time>2026-03-29T06:45:26.068Z</time></trkpt><trkpt lat="43.324625" lon="11.9297067"><ele>256.0</ele><time>2026-03-29T06:45:27.068Z</time></trkpt><trkpt lat="43.3246783" lon="11.929875"><ele>256.0</ele><time>2026-03-29T06:45:28.068Z</time></trkpt><trkpt lat="43.3247233" lon="11.930055"><ele>256.0</ele><time>2026-03-29T06:45:29.068Z</time></trkpt><trkpt lat="43.32476" lon="11.9302433"><ele>256.0</ele><time>2026-03-29T06:45:30.068Z</time></trkpt><trkpt lat="43.3247983" lon="11.930425"><ele>256.2</ele><time>2026-03-29T06:45:31.068Z</time></trkpt><trkpt lat="43.3248217" lon="11.9306083"><ele>256.40000000000003</ele><time>2026-03-29T06:45:32.068Z</time></trkpt><trkpt lat="43.3248383" lon="11.9307717"><ele>256.6</ele><time>2026-03-29T06:45:33.068Z</time></trkpt><trkpt lat="43.3248533" lon="11.9309067"><ele>256.8</ele><time>2026-03-29T06:45:34.067Z</time></trkpt><trkpt lat="43.324865" lon="11.9310283"><ele>257.0</ele><time>2026-03-29T06:45:35.068Z</time></trkpt><trkpt lat="43.32487" lon="11.93114"><ele>257.1666666666667</ele><time>2026-03-29T06:45:36.068Z</time></trkpt><trkpt lat="43.32487" lon="11.9312517"><ele>257.33333333333337</ele><time>2026-03-29T06:45:37.068Z</time></trkpt><trkpt lat="43.324875" lon="11.931355"><ele>257.5</ele><time>2026-03-29T06:45:38.068Z</time></trkpt><trkpt lat="43.3248817" lon="11.9314583"><ele>257.6666666666667</ele><time>2026-03-29T06:45:39.068Z</time></trkpt><trkpt lat="43.324895" lon="11.9315583"><ele>257.8333333333333</ele><time>2026-03-29T06:45:40.068Z</time></trkpt><trkpt lat="43.3249317" lon="11.9317083"><ele>258.0</ele><time>2026-03-29T06:45:42.068Z</time></trkpt><trkpt lat="43.3249983" lon="11.93181"><ele>258.0</ele><time>2026-03-29T06:45:44.068Z</time></trkpt><trkpt lat="43.3251133" lon="11.9319117"><ele>258.0</ele><time>2026-03-29T06:45:46.068Z</time></trkpt><trkpt lat="43.3251933" lon="11.931965"><ele>258.0</ele><time>2026-03-29T06:45:47.068Z</time></trkpt><trkpt lat="43.32528" lon="11.9320217"><ele>258.0</ele><time>2026-03-29T06:45:48.068Z</time></trkpt><trkpt lat="43.32537" lon="11.932075"><ele>258.0</ele><time>2026-03-29T06:45:49.068Z</time></trkpt><trkpt lat="43.32546" lon="11.9321367"><ele>258.0</ele><time>2026-03-29T06:45:50.068Z</time></trkpt><trkpt lat="43.3255467" lon="11.9321933"><ele>258.0</ele><time>2026-03-29T06:45:51.068Z</time></trkpt><trkpt lat="43.3256267" lon="11.9322517"><ele>258.0</ele><time>2026-03-29T06:45:52.068Z</time></trkpt><trkpt lat="43.3257017" lon="11.9323167"><ele>258.0</ele><time>2026-03-29T06:45:53.067Z</time></trkpt><trkpt lat="43.3257683" lon="11.93239"><ele>258.0</ele><time>2026-03-29T06:45:54.068Z</time></trkpt><trkpt lat="43.3258383" lon="11.93247"><ele>257.8</ele><time>2026-03-29T06:45:55.068Z</time></trkpt><trkpt lat="43.32591" lon="11.932565"><ele>257.6</ele><time>2026-03-29T06:45:56.067Z</time></trkpt><trkpt lat="43.325975" lon="11.93266"><ele>257.4</ele><time>2026-03-29T06:45:57.068Z</time></trkpt><trkpt lat="43.3260317" lon="11.9327617"><ele>257.2</ele><time>2026-03-29T06:45:58.069Z</time></trkpt><trkpt lat="43.326095" lon="11.932875"><ele>257.0</ele><time>2026-03-29T06:45:59.068Z</time></trkpt><trkpt lat="43.32616" lon="11.9330017"><ele>257.0</ele><time>2026-03-29T06:46:00.069Z</time></trkpt><trkpt lat="43.3262283" lon="11.9331383"><ele>257.0</ele><time>2026-03-29T06:46:01.068Z</time></trkpt><trkpt lat="43.3263017" lon="11.9332683"><ele>257.0</ele><time>2026-03-29T06:46:02.069Z</time></trkpt><trkpt lat="43.326375" lon="11.9333983"><ele>257.0</ele><time>2026-03-29T06:46:03.069Z</time></trkpt><trkpt lat="43.3264467" lon="11.93353"><ele>256.75</ele><time>2026-03-29T06:46:04.069Z</time></trkpt><trkpt lat="43.3265117" lon="11.933665"><ele>256.5</ele><time>2026-03-29T06:46:05.069Z</time></trkpt><trkpt lat="43.3265767" lon="11.933795"><ele>256.25</ele><time>2026-03-29T06:46:06.069Z</time></trkpt><trkpt lat="43.3266433" lon="11.933935"><ele>256.0</ele><time>2026-03-29T06:46:07.068Z</time></trkpt><trkpt lat="43.3266967" lon="11.934075"><ele>256.25</ele><time>2026-03-29T06:46:08.069Z</time></trkpt><trkpt lat="43.3267383" lon="11.9342267"><ele>256.5</ele><time>2026-03-29T06:46:09.068Z</time></trkpt><trkpt lat="43.3267833" lon="11.9343783"><ele>256.75</ele><time>2026-03-29T06:46:10.069Z</time></trkpt><trkpt lat="43.3268167" lon="11.9345233"><ele>257.0</ele><time>2026-03-29T06:46:11.069Z</time></trkpt><trkpt lat="43.3268567" lon="11.9346567"><ele>257.0</ele><time>2026-03-29T06:46:12.068Z</time></trkpt><trkpt lat="43.3269" lon="11.9347633"><ele>257.0</ele><time>2026-03-29T06:46:13.069Z</time></trkpt><trkpt lat="43.32694" lon="11.9348667"><ele>257.0</ele><time>2026-03-29T06:46:14.069Z</time></trkpt><trkpt lat="43.3269783" lon="11.934965"><ele>257.0</ele><time>2026-03-29T06:46:15.069Z</time></trkpt><trkpt lat="43.3270167" lon="11.9350533"><ele>257.0</ele><time>2026-03-29T06:46:16.069Z</time></trkpt><trkpt lat="43.3270633" lon="11.9351667"><ele>257.0</ele><time>2026-03-29T06:46:18.068Z</time></trkpt><trkpt lat="43.32712" lon="11.9352433"><ele>257.2</ele><time>2026-03-29T06:46:24.069Z</time></trkpt><trkpt lat="43.3272167" lon="11.9352083"><ele>257.4</ele><time>2026-03-29T06:46:27.069Z</time></trkpt><trkpt lat="43.3273117" lon="11.9351083"><ele>257.6</ele><time>2026-03-29T06:46:29.069Z</time></trkpt><trkpt lat="43.327385" lon="11.9350467"><ele>257.8</ele><time>2026-03-29T06:46:30.068Z</time></trkpt><trkpt lat="43.3274883" lon="11.9349783"><ele>258.0</ele><time>2026-03-29T06:46:31.069Z</time></trkpt><trkpt lat="43.3275983" lon="11.9349117"><ele>258.0</ele><time>2026-03-29T06:46:32.069Z</time></trkpt><trkpt lat="43.3277133" lon="11.9348433"><ele>258.0</ele><time>2026-03-29T06:46:33.069Z</time></trkpt><trkpt lat="43.32783" lon="11.9347617"><ele>258.0</ele><time>2026-03-29T06:46:34.069Z</time></trkpt><trkpt lat="43.327955" lon="11.9346783"><ele>258.0</ele><time>2026-03-29T06:46:35.068Z</time></trkpt><trkpt lat="43.3280733" lon="11.9345917"><ele>258.0</ele><time>2026-03-29T06:46:36.069Z</time></trkpt><trkpt lat="43.3281967" lon="11.9345133"><ele>258.0</ele><time>2026-03-29T06:46:37.068Z</time></trkpt><trkpt lat="43.32832" lon="11.93443"><ele>258.0</ele><time>2026-03-29T06:46:38.069Z</time></trkpt><trkpt lat="43.3284467" lon="11.9343567"><ele>258.0</ele><time>2026-03-29T06:46:39.069Z</time></trkpt><trkpt lat="43.3285783" lon="11.9342933"><ele>258.0</ele><time>2026-03-29T06:46:40.069Z</time></trkpt><trkpt lat="43.3287167" lon="11.93424"><ele>258.0</ele><time>2026-03-29T06:46:41.069Z</time></trkpt><trkpt lat="43.3288567" lon="11.9341867"><ele>258.0</ele><time>2026-03-29T06:46:42.069Z</time></trkpt><trkpt lat="43.328995" lon="11.9341333"><ele>258.0</ele><time>2026-03-29T06:46:43.068Z</time></trkpt><trkpt lat="43.32913" lon="11.9340817"><ele>258.0</ele><time>2026-03-29T06:46:44.068Z</time></trkpt><trkpt lat="43.329255" lon="11.9340167"><ele>258.0</ele><time>2026-03-29T06:46:45.069Z</time></trkpt><trkpt lat="43.3293817" lon="11.9339367"><ele>258.0</ele><time>2026-03-29T06:46:46.068Z</time></trkpt><trkpt lat="43.3295067" lon="11.933835"><ele>258.0</ele><time>2026-03-29T06:46:47.069Z</time></trkpt><trkpt lat="43.3296317" lon="11.933725"><ele>258.0</ele><time>2026-03-29T06:46:48.069Z</time></trkpt><trkpt lat="43.32976" lon="11.933615"><ele>258.0</ele><time>2026-03-29T06:46:49.069Z</time></trkpt><trkpt lat="43.3298867" lon="11.9335083"><ele>258.0</ele><time>2026-03-29T06:46:50.069Z</time></trkpt><trkpt lat="43.3300233" lon="11.9334083"><ele>257.3333333333333</ele><time>2026-03-29T06:46:51.069Z</time></trkpt><trkpt lat="43.3301567" lon="11.9333017"><ele>256.66666666666663</ele><time>2026-03-29T06:46:52.068Z</time></trkpt><trkpt lat="43.3302867" lon="11.9332017"><ele>256.0</ele><time>2026-03-29T06:46:53.069Z</time></trkpt><trkpt lat="43.3304217" lon="11.9331183"><ele>256.0</ele><time>2026-03-29T06:46:54.069Z</time></trkpt><trkpt lat="43.330555" lon="11.9330433"><ele>256.0</ele><time>2026-03-29T06:46:55.068Z</time></trkpt><trkpt lat="43.3306917" lon="11.9329667"><ele>256.0</ele><time>2026-03-29T06:46:56.069Z</time></trkpt><trkpt lat="43.3308233" lon="11.9328933"><ele>256.0</ele><time>2026-03-29T06:46:57.069Z</time></trkpt><trkpt lat="43.3309467" lon="11.93282"><ele>255.75</ele><time>2026-03-29T06:46:58.068Z</time></trkpt><trkpt lat="43.33107" lon="11.932745"><ele>255.5</ele><time>2026-03-29T06:46:59.069Z</time></trkpt><trkpt lat="43.3311933" lon="11.932675"><ele>255.25</ele><time>2026-03-29T06:47:00.069Z</time></trkpt><trkpt lat="43.331315" lon="11.93261"><ele>255.0</ele><time>2026-03-29T06:47:01.069Z</time></trkpt><trkpt lat="43.33144" lon="11.9325383"><ele>255.0</ele><time>2026-03-29T06:47:02.069Z</time></trkpt><trkpt lat="43.331565" lon="11.93246"><ele>255.0</ele><time>2026-03-29T06:47:03.069Z</time></trkpt><trkpt lat="43.3316983" lon="11.9323883"><ele>255.0</ele><time>2026-03-29T06:47:04.069Z</time></trkpt><trkpt lat="43.3318233" lon="11.9323183"><ele>255.0</ele><time>2026-03-29T06:47:05.068Z</time></trkpt><trkpt lat="43.331945" lon="11.9322533"><ele>255.0</ele><time>2026-03-29T06:47:06.069Z</time></trkpt><trkpt lat="43.3320533" lon="11.9321983"><ele>255.0</ele><time>2026-03-29T06:47:07.069Z</time></trkpt><trkpt lat="43.3321433" lon="11.93215"><ele>255.0</ele><time>2026-03-29T06:47:08.069Z</time></trkpt><trkpt lat="43.3322083" lon="11.9321217"><ele>255.0</ele><time>2026-03-29T06:47:09.068Z</time></trkpt><trkpt lat="43.3322733" lon="11.9320967"><ele>255.0</ele><time>2026-03-29T06:47:11.069Z</time></trkpt><trkpt lat="43.3323567" lon="11.9320333"><ele>255.0</ele><time>2026-03-29T06:47:13.068Z</time></trkpt><trkpt lat="43.33242" lon="11.93198"><ele>255.33333333333334</ele><time>2026-03-29T06:47:14.068Z</time></trkpt><trkpt lat="43.33248" lon="11.9319167"><ele>255.66666666666669</ele><time>2026-03-29T06:47:15.069Z</time></trkpt><trkpt lat="43.3325317" lon="11.9318667"><ele>256.0</ele><time>2026-03-29T06:47:16.069Z</time></trkpt><trkpt lat="43.33261" lon="11.9318167"><ele>256.33333333333337</ele><time>2026-03-29T06:47:18.069Z</time></trkpt><trkpt lat="43.3327033" lon="11.9317133"><ele>256.6666666666667</ele><time>2026-03-29T06:47:20.069Z</time></trkpt><trkpt lat="43.3327767" lon="11.9316317"><ele>257.0</ele><time>2026-03-29T06:47:22.069Z</time></trkpt><trkpt lat="43.3328567" lon="11.9315683"><ele>257.0</ele><time>2026-03-29T06:47:25.069Z</time></trkpt><trkpt lat="43.3329283" lon="11.9314983"><ele>257.0</ele><time>2026-03-29T06:47:27.069Z</time></trkpt><trkpt lat="43.333" lon="11.9315517"><ele>257.0</ele><time>2026-03-29T06:47:31.069Z</time></trkpt><trkpt lat="43.33303" lon="11.93168"><ele>257.0</ele><time>2026-03-29T06:47:33.069Z</time></trkpt><trkpt lat="43.33306" lon="11.9317867"><ele>257.0</ele><time>2026-03-29T06:47:34.069Z</time></trkpt><trkpt lat="43.3330983" lon="11.9319033"><ele>257.0</ele><time>2026-03-29T06:47:35.069Z</time></trkpt><trkpt lat="43.3331317" lon="11.9320283"><ele>257.0</ele><time>2026-03-29T06:47:36.069Z</time></trkpt><trkpt lat="43.3331667" lon="11.9321617"><ele>257.0</ele><time>2026-03-29T06:47:37.069Z</time></trkpt><trkpt lat="43.33321" lon="11.9323033"><ele>257.0</ele><time>2026-03-29T06:47:38.069Z</time></trkpt><trkpt lat="43.33325" lon="11.93245"><ele>257.0</ele><time>2026-03-29T06:47:39.069Z</time></trkpt><trkpt lat="43.3332867" lon="11.932595"><ele>257.0</ele><time>2026-03-29T06:47:40.069Z</time></trkpt><trkpt lat="43.3333267" lon="11.9327467"><ele>257.0</ele><time>2026-03-29T06:47:41.068Z</time></trkpt><trkpt lat="43.3333633" lon="11.9329"><ele>257.0</ele><time>2026-03-29T06:47:42.068Z</time></trkpt><trkpt lat="43.333395" lon="11.9330633"><ele>257.0</ele><time>2026-03-29T06:47:43.069Z</time></trkpt><trkpt lat="43.3334267" lon="11.933235"><ele>257.0</ele><time>2026-03-29T06:47:44.069Z</time></trkpt><trkpt lat="43.3334683" lon="11.93342"><ele>257.0</ele><time>2026-03-29T06:47:45.069Z</time></trkpt><trkpt lat="43.3335017" lon="11.933615"><ele>257.0</ele><time>2026-03-29T06:47:46.068Z</time></trkpt><trkpt lat="43.3335383" lon="11.9338167"><ele>257.0</ele><time>2026-03-29T06:47:47.068Z</time></trkpt><trkpt lat="43.3335767" lon="11.93402"><ele>256.75</ele><time>2026-03-29T06:47:48.068Z</time></trkpt><trkpt lat="43.3336083" lon="11.934225"><ele>256.5</ele><time>2026-03-29T06:47:49.069Z</time></trkpt><trkpt lat="43.333645" lon="11.9344217"><ele>256.25</ele><time>2026-03-29T06:47:50.068Z</time></trkpt><trkpt lat="43.3336883" lon="11.934615"><ele>256.0</ele><time>2026-03-29T06:47:51.069Z</time></trkpt><trkpt lat="43.3337367" lon="11.9348033"><ele>256.0</ele><time>2026-03-29T06:47:52.068Z</time></trkpt><trkpt lat="43.3337833" lon="11.9349933"><ele>256.0</ele><time>2026-03-29T06:47:53.069Z</time></trkpt><trkpt lat="43.333845" lon="11.9351917"><ele>256.0</ele><time>2026-03-29T06:47:54.069Z</time></trkpt><trkpt lat="43.333905" lon="11.9353917"><ele>256.5</ele><time>2026-03-29T06:47:55.069Z</time></trkpt><trkpt lat="43.3339617" lon="11.93559"><ele>257.0</ele><time>2026-03-29T06:47:56.069Z</time></trkpt><trkpt lat="43.3340183" lon="11.9357767"><ele>257.5</ele><time>2026-03-29T06:47:57.068Z</time></trkpt><trkpt lat="43.3340733" lon="11.9359633"><ele>258.0</ele><time>2026-03-29T06:47:58.069Z</time></trkpt><trkpt lat="43.334125" lon="11.9361517"><ele>258.0</ele><time>2026-03-29T06:47:59.069Z</time></trkpt><trkpt lat="43.3341733" lon="11.9363433"><ele>258.0</ele><time>2026-03-29T06:48:00.068Z</time></trkpt><trkpt lat="43.33422" lon="11.9365317"><ele>258.0</ele><time>2026-03-29T06:48:01.069Z</time></trkpt><trkpt lat="43.3342783" lon="11.9367217"><ele>258.0</ele><time>2026-03-29T06:48:02.069Z</time></trkpt><trkpt lat="43.3343333" lon="11.9369083"><ele>258.4</ele><time>2026-03-29T06:48:03.068Z</time></trkpt><trkpt lat="43.33439" lon="11.937075"><ele>258.8</ele><time>2026-03-29T06:48:04.069Z</time></trkpt><trkpt lat="43.3344383" lon="11.93722"><ele>259.2</ele><time>2026-03-29T06:48:05.068Z</time></trkpt><trkpt lat="43.3344683" lon="11.93734"><ele>259.6</ele><time>2026-03-29T06:48:06.069Z</time></trkpt><trkpt lat="43.334495" lon="11.9374383"><ele>260.0</ele><time>2026-03-29T06:48:07.068Z</time></trkpt><trkpt lat="43.33453" lon="11.9375133"><ele>260.2</ele><time>2026-03-29T06:48:08.069Z</time></trkpt><trkpt lat="43.3345417" lon="11.937615"><ele>260.4</ele><time>2026-03-29T06:48:11.068Z</time></trkpt><trkpt lat="43.3344417" lon="11.9376817"><ele>260.6</ele><time>2026-03-29T06:48:14.069Z</time></trkpt><trkpt lat="43.334355" lon="11.9377367"><ele>260.8</ele><time>2026-03-29T06:48:16.069Z</time></trkpt><trkpt lat="43.3343083" lon="11.9378133"><ele>261.0</ele><time>2026-03-29T06:48:18.068Z</time></trkpt><trkpt lat="43.3342383" lon="11.9379683"><ele>261.0</ele><time>2026-03-29T06:48:20.069Z</time></trkpt><trkpt lat="43.3341867" lon="11.93807"><ele>261.0</ele><time>2026-03-29T06:48:21.069Z</time></trkpt><trkpt lat="43.3341433" lon="11.9381733"><ele>261.0</ele><time>2026-03-29T06:48:22.069Z</time></trkpt><trkpt lat="43.3341067" lon="11.93826"><ele>261.0</ele><time>2026-03-29T06:48:23.069Z</time></trkpt><trkpt lat="43.3340817" lon="11.9383467"><ele>261.0</ele><time>2026-03-29T06:48:24.069Z</time></trkpt><trkpt lat="43.33409" lon="11.938485"><ele>261.0</ele><time>2026-03-29T06:48:26.069Z</time></trkpt><trkpt lat="43.3341967" lon="11.9385817"><ele>261.6</ele><time>2026-03-29T06:48:28.069Z</time></trkpt><trkpt lat="43.3342767" lon="11.9386367"><ele>262.20000000000005</ele><time>2026-03-29T06:48:29.069Z</time></trkpt><trkpt lat="43.3343617" lon="11.93871"><ele>262.79999999999995</ele><time>2026-03-29T06:48:30.069Z</time></trkpt><trkpt lat="43.3344383" lon="11.938795"><ele>263.4</ele><time>2026-03-29T06:48:31.069Z</time></trkpt><trkpt lat="43.3345017" lon="11.9389017"><ele>264.0</ele><time>2026-03-29T06:48:32.069Z</time></trkpt><trkpt lat="43.3345483" lon="11.93904"><ele>264.0</ele><time>2026-03-29T06:48:33.069Z</time></trkpt><trkpt lat="43.3345733" lon="11.939205"><ele>264.0</ele><time>2026-03-29T06:48:34.069Z</time></trkpt><trkpt lat="43.3345933" lon="11.9393783"><ele>264.0</ele><time>2026-03-29T06:48:35.069Z</time></trkpt><trkpt lat="43.3346017" lon="11.9395517"><ele>264.0</ele><time>2026-03-29T06:48:36.069Z</time></trkpt><trkpt lat="43.3346" lon="11.9397383"><ele>265.25</ele><time>2026-03-29T06:48:37.069Z</time></trkpt><trkpt lat="43.3345867" lon="11.9399333"><ele>266.5</ele><time>2026-03-29T06:48:38.069Z</time></trkpt><trkpt lat="43.3345633" lon="11.9401233"><ele>267.75</ele><time>2026-03-29T06:48:39.069Z</time></trkpt><trkpt lat="43.334545" lon="11.9403183"><ele>269.0</ele><time>2026-03-29T06:48:40.068Z</time></trkpt><trkpt lat="43.33454" lon="11.940515"><ele>270.6666666666667</ele><time>2026-03-29T06:48:41.069Z</time></trkpt><trkpt lat="43.3345467" lon="11.9407217"><ele>272.3333333333333</ele><time>2026-03-29T06:48:42.069Z</time></trkpt><trkpt lat="43.33457" lon="11.9409267"><ele>274.0</ele><time>2026-03-29T06:48:43.069Z</time></trkpt><trkpt lat="43.334605" lon="11.9411267"><ele>275.0</ele><time>2026-03-29T06:48:44.068Z</time></trkpt><trkpt lat="43.3346617" lon="11.9413183"><ele>276.0</ele><time>2026-03-29T06:48:45.069Z</time></trkpt><trkpt lat="43.334745" lon="11.941515"><ele>277.0</ele><time>2026-03-29T06:48:46.068Z</time></trkpt><trkpt lat="43.334855" lon="11.941705"><ele>273.3333333333333</ele><time>2026-03-29T06:48:47.069Z</time></trkpt><trkpt lat="43.334965" lon="11.9419033"><ele>269.6666666666667</ele><time>2026-03-29T06:48:48.069Z</time></trkpt><trkpt lat="43.335075" lon="11.942095"><ele>266.0</ele><time>2026-03-29T06:48:49.068Z</time></trkpt><trkpt lat="43.335185" lon="11.9422933"><ele>266.0</ele><time>2026-03-29T06:48:50.068Z</time></trkpt><trkpt lat="43.3353" lon="11.9425017"><ele>266.0</ele><time>2026-03-29T06:48:51.069Z</time></trkpt><trkpt lat="43.3354133" lon="11.9427083"><ele>266.0</ele><time>2026-03-29T06:48:52.069Z</time></trkpt><trkpt lat="43.3355183" lon="11.942895"><ele>265.33333333333337</ele><time>2026-03-29T06:48:53.069Z</time></trkpt><trkpt lat="43.3356133" lon="11.9430733"><ele>264.6666666666667</ele><time>2026-03-29T06:48:54.069Z</time></trkpt><trkpt lat="43.3357133" lon="11.94323"><ele>264.0</ele><time>2026-03-29T06:48:55.069Z</time></trkpt><trkpt lat="43.3358333" lon="11.9433867"><ele>267.0</ele><time>2026-03-29T06:48:56.069Z</time></trkpt><trkpt lat="43.3359683" lon="11.9435233"><ele>270.0</ele><time>2026-03-29T06:48:57.069Z</time></trkpt><trkpt lat="43.336115" lon="11.9436617"><ele>273.0</ele><time>2026-03-29T06:48:58.069Z</time></trkpt><trkpt lat="43.3362567" lon="11.9437967"><ele>271.6666666666667</ele><time>2026-03-29T06:48:59.068Z</time></trkpt><trkpt lat="43.3363967" lon="11.9439233"><ele>270.33333333333337</ele><time>2026-03-29T06:49:00.068Z</time></trkpt><trkpt lat="43.3365267" lon="11.9440433"><ele>269.0</ele><time>2026-03-29T06:49:01.069Z</time></trkpt><trkpt lat="43.336655" lon="11.9441683"><ele>275.33333333333337</ele><time>2026-03-29T06:49:02.068Z</time></trkpt><trkpt lat="43.336785" lon="11.944295"><ele>281.6666666666667</ele><time>2026-03-29T06:49:03.069Z</time></trkpt><trkpt lat="43.3369083" lon="11.94443"><ele>288.0</ele><time>2026-03-29T06:49:04.069Z</time></trkpt><trkpt lat="43.3370217" lon="11.9445833"><ele>288.0</ele><time>2026-03-29T06:49:05.069Z</time></trkpt><trkpt lat="43.3371217" lon="11.94476"><ele>288.0</ele><time>2026-03-29T06:49:06.069Z</time></trkpt><trkpt lat="43.3372217" lon="11.9449517"><ele>288.0</ele><time>2026-03-29T06:49:07.069Z</time></trkpt><trkpt lat="43.337315" lon="11.945155"><ele>281.0</ele><time>2026-03-29T06:49:08.069Z</time></trkpt><trkpt lat="43.3374117" lon="11.945355"><ele>274.0</ele><time>2026-03-29T06:49:09.068Z</time></trkpt><trkpt lat="43.3375183" lon="11.94554"><ele>267.0</ele><time>2026-03-29T06:49:10.069Z</time></trkpt><trkpt lat="43.3376233" lon="11.9457233"><ele>266.6666666666667</ele><time>2026-03-29T06:49:11.069Z</time></trkpt><trkpt lat="43.3377367" lon="11.945885"><ele>266.33333333333337</ele><time>2026-03-29T06:49:12.069Z</time></trkpt><trkpt lat="43.3378517" lon="11.94602"><ele>266.0</ele><time>2026-03-29T06:49:13.069Z</time></trkpt><trkpt lat="43.3379533" lon="11.9461583"><ele>266.0</ele><time>2026-03-29T06:49:14.069Z</time></trkpt><trkpt lat="43.338045" lon="11.9462783"><ele>266.0</ele><time>2026-03-29T06:49:15.069Z</time></trkpt><trkpt lat="43.338105" lon="11.9464117"><ele>266.0</ele><time>2026-03-29T06:49:16.068Z</time></trkpt><trkpt lat="43.3381367" lon="11.9465817"><ele>266.0</ele><time>2026-03-29T06:49:17.069Z</time></trkpt><trkpt lat="43.3381533" lon="11.9467717"><ele>265.75</ele><time>2026-03-29T06:49:18.069Z</time></trkpt><trkpt lat="43.33816" lon="11.946975"><ele>265.5</ele><time>2026-03-29T06:49:19.069Z</time></trkpt><trkpt lat="43.338175" lon="11.9471717"><ele>265.25</ele><time>2026-03-29T06:49:20.069Z</time></trkpt><trkpt lat="43.3381867" lon="11.9473533"><ele>265.0</ele><time>2026-03-29T06:49:21.069Z</time></trkpt><trkpt lat="43.3381967" lon="11.9475283"><ele>265.0</ele><time>2026-03-29T06:49:22.069Z</time></trkpt><trkpt lat="43.338225" lon="11.9477017"><ele>265.0</ele><time>2026-03-29T06:49:23.069Z</time></trkpt><trkpt lat="43.3382667" lon="11.9478717"><ele>265.0</ele><time>2026-03-29T06:49:24.069Z</time></trkpt><trkpt lat="43.33833" lon="11.948045"><ele>265.0</ele><time>2026-03-29T06:49:25.069Z</time></trkpt><trkpt lat="43.33839" lon="11.9482183"><ele>265.5</ele><time>2026-03-29T06:49:26.069Z</time></trkpt><trkpt lat="43.338445" lon="11.9483933"><ele>266.0</ele><time>2026-03-29T06:49:27.069Z</time></trkpt><trkpt lat="43.3384933" lon="11.9485683"><ele>266.5</ele><time>2026-03-29T06:49:28.069Z</time></trkpt><trkpt lat="43.3385417" lon="11.9487333"><ele>267.0</ele><time>2026-03-29T06:49:29.068Z</time></trkpt><trkpt lat="43.3385783" lon="11.9488667"><ele>267.0</ele><time>2026-03-29T06:49:30.069Z</time></trkpt><trkpt lat="43.338605" lon="11.9489667"><ele>267.0</ele><time>2026-03-29T06:49:31.069Z</time></trkpt><trkpt lat="43.3386533" lon="11.9490717"><ele>267.0</ele><time>2026-03-29T06:49:33.069Z</time></trkpt><trkpt lat="43.3386867" lon="11.9492033"><ele>267.0</ele><time>2026-03-29T06:49:36.069Z</time></trkpt><trkpt lat="43.3387083" lon="11.9492917"><ele>267.0</ele><time>2026-03-29T06:49:37.069Z</time></trkpt><trkpt lat="43.338755" lon="11.9494117"><ele>267.0</ele><time>2026-03-29T06:49:38.068Z</time></trkpt><trkpt lat="43.3388167" lon="11.9495433"><ele>266.25</ele><time>2026-03-29T06:49:39.069Z</time></trkpt><trkpt lat="43.3388883" lon="11.94969"><ele>265.5</ele><time>2026-03-29T06:49:40.069Z</time></trkpt><trkpt lat="43.3389583" lon="11.9498483"><ele>264.75</ele><time>2026-03-29T06:49:41.069Z</time></trkpt><trkpt lat="43.339035" lon="11.9500233"><ele>264.0</ele><time>2026-03-29T06:49:42.069Z</time></trkpt><trkpt lat="43.339115" lon="11.9502067"><ele>263.6666666666667</ele><time>2026-03-29T06:49:43.068Z</time></trkpt><trkpt lat="43.33919" lon="11.9503867"><ele>263.33333333333337</ele><time>2026-03-29T06:49:44.069Z</time></trkpt><trkpt lat="43.3392617" lon="11.9505817"><ele>263.0</ele><time>2026-03-29T06:49:45.069Z</time></trkpt><trkpt lat="43.339335" lon="11.9507917"><ele>263.6666666666667</ele><time>2026-03-29T06:49:46.069Z</time></trkpt><trkpt lat="43.33941" lon="11.950995"><ele>264.3333333333333</ele><time>2026-03-29T06:49:47.069Z</time></trkpt><trkpt lat="43.3394883" lon="11.9511933"><ele>265.0</ele><time>2026-03-29T06:49:48.069Z</time></trkpt><trkpt lat="43.33957" lon="11.95139"><ele>265.0</ele><time>2026-03-29T06:49:49.069Z</time></trkpt><trkpt lat="43.3396517" lon="11.9515917"><ele>265.0</ele><time>2026-03-29T06:49:50.068Z</time></trkpt><trkpt lat="43.33973" lon="11.9517883"><ele>265.0</ele><time>2026-03-29T06:49:51.069Z</time></trkpt><trkpt lat="43.3398" lon="11.9519967"><ele>265.66666666666663</ele><time>2026-03-29T06:49:52.069Z</time></trkpt><trkpt lat="43.3398733" lon="11.952205"><ele>266.3333333333333</ele><time>2026-03-29T06:49:53.069Z</time></trkpt><trkpt lat="43.33995" lon="11.9523983"><ele>267.0</ele><time>2026-03-29T06:49:54.069Z</time></trkpt><trkpt lat="43.3400367" lon="11.9525883"><ele>268.0</ele><time>2026-03-29T06:49:55.069Z</time></trkpt><trkpt lat="43.3401283" lon="11.9527583"><ele>269.0</ele><time>2026-03-29T06:49:56.069Z</time></trkpt><trkpt lat="43.340215" lon="11.9529167"><ele>270.0</ele><time>2026-03-29T06:49:57.069Z</time></trkpt><trkpt lat="43.3402983" lon="11.9530667"><ele>271.0</ele><time>2026-03-29T06:49:58.068Z</time></trkpt><trkpt lat="43.3403783" lon="11.9531967"><ele>271.0</ele><time>2026-03-29T06:49:59.068Z</time></trkpt><trkpt lat="43.3404417" lon="11.9533067"><ele>271.0</ele><time>2026-03-29T06:50:00.069Z</time></trkpt><trkpt lat="43.340495" lon="11.9533933"><ele>271.0</ele><time>2026-03-29T06:50:01.069Z</time></trkpt><trkpt lat="43.3405433" lon="11.9534633"><ele>271.0</ele><time>2026-03-29T06:50:02.069Z</time></trkpt><trkpt lat="43.3405967" lon="11.9535367"><ele>271.0</ele><time>2026-03-29T06:50:03.068Z</time></trkpt><trkpt lat="43.3406667" lon="11.953625"><ele>271.0</ele><time>2026-03-29T06:50:04.07Z</time></trkpt><trkpt lat="43.3407583" lon="11.953725"><ele>270.5</ele><time>2026-03-29T06:50:05.069Z</time></trkpt><trkpt lat="43.3408567" lon="11.9538433"><ele>270.0</ele><time>2026-03-29T06:50:06.07Z</time></trkpt><trkpt lat="43.3409617" lon="11.953955"><ele>269.5</ele><time>2026-03-29T06:50:07.07Z</time></trkpt><trkpt lat="43.3410683" lon="11.95407"><ele>269.0</ele><time>2026-03-29T06:50:08.07Z</time></trkpt><trkpt lat="43.341175" lon="11.9541917"><ele>268.6666666666667</ele><time>2026-03-29T06:50:09.07Z</time></trkpt><trkpt lat="43.3412683" lon="11.95434"><ele>268.3333333333333</ele><time>2026-03-29T06:50:10.07Z</time></trkpt><trkpt lat="43.3413667" lon="11.9545017"><ele>268.0</ele><time>2026-03-29T06:50:11.069Z</time></trkpt><trkpt lat="43.3414667" lon="11.9546667"><ele>267.75</ele><time>2026-03-29T06:50:12.07Z</time></trkpt><trkpt lat="43.3415633" lon="11.954835"><ele>267.5</ele><time>2026-03-29T06:50:13.07Z</time></trkpt><trkpt lat="43.341655" lon="11.954995"><ele>267.25</ele><time>2026-03-29T06:50:14.07Z</time></trkpt><trkpt lat="43.3417333" lon="11.9551583"><ele>267.0</ele><time>2026-03-29T06:50:15.07Z</time></trkpt><trkpt lat="43.3418083" lon="11.9553333"><ele>267.0</ele><time>2026-03-29T06:50:16.07Z</time></trkpt><trkpt lat="43.3418583" lon="11.9555017"><ele>267.0</ele><time>2026-03-29T06:50:17.07Z</time></trkpt><trkpt lat="43.34187" lon="11.95568"><ele>267.0</ele><time>2026-03-29T06:50:18.069Z</time></trkpt><trkpt lat="43.341855" lon="11.9558567"><ele>267.0</ele><time>2026-03-29T06:50:19.07Z</time></trkpt><trkpt lat="43.3418117" lon="11.9560367"><ele>267.0</ele><time>2026-03-29T06:50:20.07Z</time></trkpt><trkpt lat="43.34178" lon="11.9562183"><ele>267.0</ele><time>2026-03-29T06:50:21.07Z</time></trkpt><trkpt lat="43.3417617" lon="11.9564283"><ele>267.0</ele><time>2026-03-29T06:50:22.069Z</time></trkpt><trkpt lat="43.3417517" lon="11.9566583"><ele>267.0</ele><time>2026-03-29T06:50:23.07Z</time></trkpt><trkpt lat="43.3417367" lon="11.95689"><ele>267.0</ele><time>2026-03-29T06:50:24.069Z</time></trkpt><trkpt lat="43.3417267" lon="11.9571267"><ele>267.0</ele><time>2026-03-29T06:50:25.07Z</time></trkpt><trkpt lat="43.3417133" lon="11.957365"><ele>267.0</ele><time>2026-03-29T06:50:26.07Z</time></trkpt><trkpt lat="43.3417" lon="11.9576083"><ele>267.0</ele><time>2026-03-29T06:50:27.069Z</time></trkpt><trkpt lat="43.3416933" lon="11.95784"><ele>267.0</ele><time>2026-03-29T06:50:28.07Z</time></trkpt><trkpt lat="43.3416883" lon="11.958065"><ele>267.0</ele><time>2026-03-29T06:50:29.07Z</time></trkpt><trkpt lat="43.34168" lon="11.958275"><ele>267.0</ele><time>2026-03-29T06:50:30.07Z</time></trkpt><trkpt lat="43.3416717" lon="11.9584617"><ele>267.0</ele><time>2026-03-29T06:50:31.069Z</time></trkpt><trkpt lat="43.3416417" lon="11.9586383"><ele>267.0</ele><time>2026-03-29T06:50:32.07Z</time></trkpt><trkpt lat="43.3416" lon="11.9588"><ele>267.5</ele><time>2026-03-29T06:50:33.07Z</time></trkpt><trkpt lat="43.3415467" lon="11.958955"><ele>268.0</ele><time>2026-03-29T06:50:34.069Z</time></trkpt><trkpt lat="43.3414783" lon="11.9591"><ele>268.5</ele><time>2026-03-29T06:50:35.07Z</time></trkpt><trkpt lat="43.341425" lon="11.9592383"><ele>269.0</ele><time>2026-03-29T06:50:36.07Z</time></trkpt><trkpt lat="43.3413883" lon="11.9593883"><ele>269.5</ele><time>2026-03-29T06:50:37.069Z</time></trkpt><trkpt lat="43.3413683" lon="11.959565"><ele>270.0</ele><time>2026-03-29T06:50:38.069Z</time></trkpt><trkpt lat="43.341365" lon="11.959765"><ele>270.5</ele><time>2026-03-29T06:50:39.07Z</time></trkpt><trkpt lat="43.3413733" lon="11.9599783"><ele>271.0</ele><time>2026-03-29T06:50:40.07Z</time></trkpt><trkpt lat="43.341385" lon="11.9601967"><ele>271.0</ele><time>2026-03-29T06:50:41.07Z</time></trkpt><trkpt lat="43.3414" lon="11.960415"><ele>271.0</ele><time>2026-03-29T06:50:42.069Z</time></trkpt><trkpt lat="43.341425" lon="11.9606333"><ele>271.0</ele><time>2026-03-29T06:50:43.07Z</time></trkpt><trkpt lat="43.3414567" lon="11.9608317"><ele>271.5</ele><time>2026-03-29T06:50:44.069Z</time></trkpt><trkpt lat="43.341515" lon="11.9610133"><ele>272.0</ele><time>2026-03-29T06:50:45.07Z</time></trkpt><trkpt lat="43.34159" lon="11.961185"><ele>272.5</ele><time>2026-03-29T06:50:46.07Z</time></trkpt><trkpt lat="43.3416783" lon="11.9613517"><ele>273.0</ele><time>2026-03-29T06:50:47.07Z</time></trkpt><trkpt lat="43.3417783" lon="11.961515"><ele>273.0</ele><time>2026-03-29T06:50:48.07Z</time></trkpt><trkpt lat="43.3418817" lon="11.9616817"><ele>273.0</ele><time>2026-03-29T06:50:49.069Z</time></trkpt><trkpt lat="43.3419767" lon="11.96184"><ele>273.0</ele><time>2026-03-29T06:50:50.07Z</time></trkpt><trkpt lat="43.3420617" lon="11.9619917"><ele>273.0</ele><time>2026-03-29T06:50:51.07Z</time></trkpt><trkpt lat="43.3421283" lon="11.9621417"><ele>273.0</ele><time>2026-03-29T06:50:52.07Z</time></trkpt><trkpt lat="43.34218" lon="11.9622983"><ele>273.0</ele><time>2026-03-29T06:50:53.07Z</time></trkpt><trkpt lat="43.3422233" lon="11.9624533"><ele>273.0</ele><time>2026-03-29T06:50:54.07Z</time></trkpt><trkpt lat="43.342265" lon="11.96262"><ele>273.0</ele><time>2026-03-29T06:50:55.07Z</time></trkpt><trkpt lat="43.34231" lon="11.9627983"><ele>273.0</ele><time>2026-03-29T06:50:56.07Z</time></trkpt><trkpt lat="43.342345" lon="11.9629967"><ele>273.0</ele><time>2026-03-29T06:50:57.07Z</time></trkpt><trkpt lat="43.342375" lon="11.9632117"><ele>273.0</ele><time>2026-03-29T06:50:58.07Z</time></trkpt><trkpt lat="43.3424017" lon="11.963425"><ele>273.0</ele><time>2026-03-29T06:50:59.07Z</time></trkpt><trkpt lat="43.342425" lon="11.963625"><ele>273.0</ele><time>2026-03-29T06:51:00.07Z</time></trkpt><trkpt lat="43.3424583" lon="11.96381"><ele>273.0</ele><time>2026-03-29T06:51:01.07Z</time></trkpt><trkpt lat="43.34249" lon="11.9639933"><ele>273.0</ele><time>2026-03-29T06:51:02.069Z</time></trkpt><trkpt lat="43.3425233" lon="11.96418"><ele>273.6666666666667</ele><time>2026-03-29T06:51:03.07Z</time></trkpt><trkpt lat="43.3425617" lon="11.964365"><ele>274.33333333333337</ele><time>2026-03-29T06:51:04.07Z</time></trkpt><trkpt lat="43.342615" lon="11.9645683"><ele>275.0</ele><time>2026-03-29T06:51:05.07Z</time></trkpt><trkpt lat="43.342675" lon="11.964775"><ele>275.0</ele><time>2026-03-29T06:51:06.07Z</time></trkpt><trkpt lat="43.3427433" lon="11.9649767"><ele>275.0</ele><time>2026-03-29T06:51:07.07Z</time></trkpt><trkpt lat="43.3428267" lon="11.9651817"><ele>275.0</ele><time>2026-03-29T06:51:08.07Z</time></trkpt><trkpt lat="43.3429017" lon="11.9653917"><ele>275.33333333333337</ele><time>2026-03-29T06:51:09.07Z</time></trkpt><trkpt lat="43.3429783" lon="11.9656033"><ele>275.6666666666667</ele><time>2026-03-29T06:51:10.07Z</time></trkpt><trkpt lat="43.3430517" lon="11.9658217"><ele>276.0</ele><time>2026-03-29T06:51:11.069Z</time></trkpt><trkpt lat="43.343115" lon="11.966045"><ele>276.0</ele><time>2026-03-29T06:51:12.07Z</time></trkpt><trkpt lat="43.3431633" lon="11.96627"><ele>276.0</ele><time>2026-03-29T06:51:13.07Z</time></trkpt><trkpt lat="43.3432217" lon="11.96648"><ele>276.0</ele><time>2026-03-29T06:51:14.07Z</time></trkpt><trkpt lat="43.3432817" lon="11.96668"><ele>276.25</ele><time>2026-03-29T06:51:15.07Z</time></trkpt><trkpt lat="43.3433333" lon="11.9668817"><ele>276.5</ele><time>2026-03-29T06:51:16.07Z</time></trkpt><trkpt lat="43.343385" lon="11.967065"><ele>276.75</ele><time>2026-03-29T06:51:17.07Z</time></trkpt><trkpt lat="43.343425" lon="11.9672433"><ele>277.0</ele><time>2026-03-29T06:51:18.07Z</time></trkpt><trkpt lat="43.3434617" lon="11.96741"><ele>277.25</ele><time>2026-03-29T06:51:19.07Z</time></trkpt><trkpt lat="43.3435017" lon="11.9675783"><ele>277.5</ele><time>2026-03-29T06:51:20.07Z</time></trkpt><trkpt lat="43.34353" lon="11.9677517"><ele>277.75</ele><time>2026-03-29T06:51:21.07Z</time></trkpt><trkpt lat="43.34356" lon="11.9679383"><ele>278.0</ele><time>2026-03-29T06:51:22.07Z</time></trkpt><trkpt lat="43.3435867" lon="11.9681383"><ele>278.0</ele><time>2026-03-29T06:51:23.07Z</time></trkpt><trkpt lat="43.3436217" lon="11.9683483"><ele>278.0</ele><time>2026-03-29T06:51:24.07Z</time></trkpt><trkpt lat="43.3436533" lon="11.9685767"><ele>278.0</ele><time>2026-03-29T06:51:25.07Z</time></trkpt><trkpt lat="43.3436933" lon="11.9688067"><ele>278.33333333333337</ele><time>2026-03-29T06:51:26.07Z</time></trkpt><trkpt lat="43.34374" lon="11.9690317"><ele>278.6666666666667</ele><time>2026-03-29T06:51:27.07Z</time></trkpt><trkpt lat="43.3437883" lon="11.9692517"><ele>279.0</ele><time>2026-03-29T06:51:28.069Z</time></trkpt><trkpt lat="43.343835" lon="11.9694683"><ele>279.3333333333333</ele><time>2026-03-29T06:51:29.069Z</time></trkpt><trkpt lat="43.34388" lon="11.9696867"><ele>279.66666666666663</ele><time>2026-03-29T06:51:30.07Z</time></trkpt><trkpt lat="43.3439167" lon="11.9699133"><ele>280.0</ele><time>2026-03-29T06:51:31.07Z</time></trkpt><trkpt lat="43.3439333" lon="11.97014"><ele>280.0</ele><time>2026-03-29T06:51:32.07Z</time></trkpt><trkpt lat="43.3439433" lon="11.9703717"><ele>280.0</ele><time>2026-03-29T06:51:33.07Z</time></trkpt><trkpt lat="43.3439483" lon="11.9706133"><ele>280.0</ele><time>2026-03-29T06:51:34.07Z</time></trkpt><trkpt lat="43.3439833" lon="11.9708567"><ele>282.66666666666663</ele><time>2026-03-29T06:51:35.07Z</time></trkpt><trkpt lat="43.3440433" lon="11.9710933"><ele>285.3333333333333</ele><time>2026-03-29T06:51:36.069Z</time></trkpt><trkpt lat="43.3441033" lon="11.9713417"><ele>288.0</ele><time>2026-03-29T06:51:37.07Z</time></trkpt><trkpt lat="43.3441833" lon="11.971575"><ele>288.0</ele><time>2026-03-29T06:51:38.07Z</time></trkpt><trkpt lat="43.3442433" lon="11.97179"><ele>288.0</ele><time>2026-03-29T06:51:39.07Z</time></trkpt><trkpt lat="43.3443083" lon="11.971985"><ele>288.0</ele><time>2026-03-29T06:51:40.069Z</time></trkpt><trkpt lat="43.3443417" lon="11.9721683"><ele>288.0</ele><time>2026-03-29T06:51:41.069Z</time></trkpt><trkpt lat="43.34441" lon="11.97233"><ele>288.0</ele><time>2026-03-29T06:51:42.07Z</time></trkpt><trkpt lat="43.3444617" lon="11.972505"><ele>288.0</ele><time>2026-03-29T06:51:43.069Z</time></trkpt><trkpt lat="43.3445067" lon="11.9726917"><ele>288.0</ele><time>2026-03-29T06:51:44.069Z</time></trkpt><trkpt lat="43.3445533" lon="11.9728783"><ele>288.0</ele><time>2026-03-29T06:51:45.07Z</time></trkpt><trkpt lat="43.3446" lon="11.9730683"><ele>288.0</ele><time>2026-03-29T06:51:46.07Z</time></trkpt><trkpt lat="43.344645" lon="11.9732483"><ele>288.0</ele><time>2026-03-29T06:51:47.07Z</time></trkpt><trkpt lat="43.3446967" lon="11.9734167"><ele>288.0</ele><time>2026-03-29T06:51:48.07Z</time></trkpt><trkpt lat="43.344765" lon="11.9735817"><ele>288.0</ele><time>2026-03-29T06:51:49.07Z</time></trkpt><trkpt lat="43.3448233" lon="11.9737383"><ele>288.0</ele><time>2026-03-29T06:51:50.069Z</time></trkpt><trkpt lat="43.3448783" lon="11.973895"><ele>288.0</ele><time>2026-03-29T06:51:51.069Z</time></trkpt><trkpt lat="43.3449217" lon="11.9740617"><ele>288.0</ele><time>2026-03-29T06:51:52.07Z</time></trkpt><trkpt lat="43.3449517" lon="11.9742133"><ele>287.8</ele><time>2026-03-29T06:51:53.07Z</time></trkpt><trkpt lat="43.3449817" lon="11.97435"><ele>287.6</ele><time>2026-03-29T06:51:54.07Z</time></trkpt><trkpt lat="43.34502" lon="11.97449"><ele>287.4</ele><time>2026-03-29T06:51:55.07Z</time></trkpt><trkpt lat="43.3450917" lon="11.9746117"><ele>287.2</ele><time>2026-03-29T06:51:56.069Z</time></trkpt><trkpt lat="43.3451783" lon="11.9747267"><ele>287.0</ele><time>2026-03-29T06:51:57.069Z</time></trkpt><trkpt lat="43.345295" lon="11.9748383"><ele>287.0</ele><time>2026-03-29T06:51:58.07Z</time></trkpt><trkpt lat="43.3454133" lon="11.974945"><ele>287.0</ele><time>2026-03-29T06:51:59.07Z</time></trkpt><trkpt lat="43.3455283" lon="11.9750617"><ele>287.0</ele><time>2026-03-29T06:52:00.069Z</time></trkpt><trkpt lat="43.3456283" lon="11.9751917"><ele>287.0</ele><time>2026-03-29T06:52:01.07Z</time></trkpt><trkpt lat="43.3457233" lon="11.9753283"><ele>286.6666666666667</ele><time>2026-03-29T06:52:02.07Z</time></trkpt><trkpt lat="43.3458233" lon="11.97548"><ele>286.3333333333333</ele><time>2026-03-29T06:52:03.07Z</time></trkpt><trkpt lat="43.3459083" lon="11.975645"><ele>286.0</ele><time>2026-03-29T06:52:04.069Z</time></trkpt><trkpt lat="43.3459983" lon="11.9758233"><ele>285.66666666666663</ele><time>2026-03-29T06:52:05.07Z</time></trkpt><trkpt lat="43.346085" lon="11.9760033"><ele>285.3333333333333</ele><time>2026-03-29T06:52:06.069Z</time></trkpt><trkpt lat="43.34615" lon="11.9762"><ele>285.0</ele><time>2026-03-29T06:52:07.07Z</time></trkpt><trkpt lat="43.3462133" lon="11.9764133"><ele>285.0</ele><time>2026-03-29T06:52:08.07Z</time></trkpt><trkpt lat="43.3462633" lon="11.976645"><ele>285.0</ele><time>2026-03-29T06:52:09.069Z</time></trkpt><trkpt lat="43.34632" lon="11.9768883"><ele>285.0</ele><time>2026-03-29T06:52:10.07Z</time></trkpt><trkpt lat="43.3463867" lon="11.9771317"><ele>284.6666666666667</ele><time>2026-03-29T06:52:11.07Z</time></trkpt><trkpt lat="43.3464583" lon="11.9773733"><ele>284.33333333333337</ele><time>2026-03-29T06:52:12.07Z</time></trkpt><trkpt lat="43.34654" lon="11.9775917"><ele>284.0</ele><time>2026-03-29T06:52:13.069Z</time></trkpt><trkpt lat="43.346625" lon="11.9778067"><ele>285.0</ele><time>2026-03-29T06:52:14.07Z</time></trkpt><trkpt lat="43.3467183" lon="11.9780067"><ele>286.0</ele><time>2026-03-29T06:52:15.07Z</time></trkpt><trkpt lat="43.34681" lon="11.9781867"><ele>287.0</ele><time>2026-03-29T06:52:16.07Z</time></trkpt><trkpt lat="43.346885" lon="11.9783517"><ele>287.0</ele><time>2026-03-29T06:52:17.07Z</time></trkpt><trkpt lat="43.34695" lon="11.9785033"><ele>287.0</ele><time>2026-03-29T06:52:18.069Z</time></trkpt><trkpt lat="43.3470217" lon="11.97865"><ele>287.0</ele><time>2026-03-29T06:52:19.069Z</time></trkpt><trkpt lat="43.3470983" lon="11.9788167"><ele>287.0</ele><time>2026-03-29T06:52:20.07Z</time></trkpt><trkpt lat="43.34718" lon="11.9790017"><ele>286.33333333333337</ele><time>2026-03-29T06:52:21.07Z</time></trkpt><trkpt lat="43.3472617" lon="11.9791983"><ele>285.6666666666667</ele><time>2026-03-29T06:52:22.07Z</time></trkpt><trkpt lat="43.3473517" lon="11.9793983"><ele>285.0</ele><time>2026-03-29T06:52:23.07Z</time></trkpt><trkpt lat="43.3474483" lon="11.9795967"><ele>285.0</ele><time>2026-03-29T06:52:24.07Z</time></trkpt><trkpt lat="43.3475517" lon="11.979795"><ele>285.0</ele><time>2026-03-29T06:52:25.07Z</time></trkpt><trkpt lat="43.3476583" lon="11.9799867"><ele>285.0</ele><time>2026-03-29T06:52:26.069Z</time></trkpt><trkpt lat="43.3477567" lon="11.98018"><ele>285.0</ele><time>2026-03-29T06:52:27.07Z</time></trkpt><trkpt lat="43.3478733" lon="11.9803517"><ele>285.0</ele><time>2026-03-29T06:52:28.07Z</time></trkpt><trkpt lat="43.3479817" lon="11.98052"><ele>285.0</ele><time>2026-03-29T06:52:29.069Z</time></trkpt><trkpt lat="43.3480883" lon="11.9806967"><ele>285.0</ele><time>2026-03-29T06:52:30.069Z</time></trkpt><trkpt lat="43.3481883" lon="11.98088"><ele>285.0</ele><time>2026-03-29T06:52:31.069Z</time></trkpt><trkpt lat="43.348285" lon="11.9810683"><ele>285.0</ele><time>2026-03-29T06:52:32.069Z</time></trkpt><trkpt lat="43.3483867" lon="11.981255"><ele>285.0</ele><time>2026-03-29T06:52:33.07Z</time></trkpt><trkpt lat="43.348485" lon="11.9814317"><ele>285.0</ele><time>2026-03-29T06:52:34.07Z</time></trkpt><trkpt lat="43.348575" lon="11.98161"><ele>285.0</ele><time>2026-03-29T06:52:35.069Z</time></trkpt><trkpt lat="43.348655" lon="11.98178"><ele>285.6666666666667</ele><time>2026-03-29T06:52:36.07Z</time></trkpt><trkpt lat="43.3487133" lon="11.98196"><ele>286.33333333333337</ele><time>2026-03-29T06:52:37.07Z</time></trkpt><trkpt lat="43.348765" lon="11.98216"><ele>287.0</ele><time>2026-03-29T06:52:38.07Z</time></trkpt><trkpt lat="43.3488317" lon="11.9823717"><ele>287.33333333333337</ele><time>2026-03-29T06:52:39.07Z</time></trkpt><trkpt lat="43.34891" lon="11.982585"><ele>287.6666666666667</ele><time>2026-03-29T06:52:40.069Z</time></trkpt><trkpt lat="43.348995" lon="11.9828017"><ele>288.0</ele><time>2026-03-29T06:52:41.07Z</time></trkpt><trkpt lat="43.3490683" lon="11.98301"><ele>288.0</ele><time>2026-03-29T06:52:42.07Z</time></trkpt><trkpt lat="43.3491283" lon="11.9832133"><ele>288.0</ele><time>2026-03-29T06:52:43.07Z</time></trkpt><trkpt lat="43.3491733" lon="11.9834083"><ele>288.0</ele><time>2026-03-29T06:52:44.07Z</time></trkpt><trkpt lat="43.3492083" lon="11.9835983"><ele>288.5</ele><time>2026-03-29T06:52:45.07Z</time></trkpt><trkpt lat="43.349235" lon="11.9837717"><ele>289.0</ele><time>2026-03-29T06:52:46.069Z</time></trkpt><trkpt lat="43.3492517" lon="11.98392"><ele>289.5</ele><time>2026-03-29T06:52:47.07Z</time></trkpt><trkpt lat="43.3492667" lon="11.9840633"><ele>290.0</ele><time>2026-03-29T06:52:48.07Z</time></trkpt><trkpt lat="43.3492667" lon="11.98422"><ele>290.0</ele><time>2026-03-29T06:52:49.07Z</time></trkpt><trkpt lat="43.3492667" lon="11.9843917"><ele>290.0</ele><time>2026-03-29T06:52:50.07Z</time></trkpt><trkpt lat="43.3492817" lon="11.9845733"><ele>290.0</ele><time>2026-03-29T06:52:51.07Z</time></trkpt><trkpt lat="43.3493117" lon="11.984765"><ele>290.0</ele><time>2026-03-29T06:52:52.07Z</time></trkpt><trkpt lat="43.3493483" lon="11.98498"><ele>292.0</ele><time>2026-03-29T06:52:53.069Z</time></trkpt><trkpt lat="43.3494083" lon="11.9852117"><ele>294.0</ele><time>2026-03-29T06:52:54.069Z</time></trkpt><trkpt lat="43.34946" lon="11.9854367"><ele>296.0</ele><time>2026-03-29T06:52:55.07Z</time></trkpt><trkpt lat="43.3495033" lon="11.9856617"><ele>299.0</ele><time>2026-03-29T06:52:56.07Z</time></trkpt><trkpt lat="43.34955" lon="11.9858733"><ele>302.0</ele><time>2026-03-29T06:52:57.069Z</time></trkpt><trkpt lat="43.3496017" lon="11.98607"><ele>305.0</ele><time>2026-03-29T06:52:58.07Z</time></trkpt><trkpt lat="43.3496533" lon="11.9862683"><ele>305.0</ele><time>2026-03-29T06:52:59.07Z</time></trkpt><trkpt lat="43.3497017" lon="11.9864517"><ele>305.0</ele><time>2026-03-29T06:53:00.07Z</time></trkpt><trkpt lat="43.3497417" lon="11.98661"><ele>305.0</ele><time>2026-03-29T06:53:01.07Z</time></trkpt><trkpt lat="43.34978" lon="11.9867583"><ele>305.0</ele><time>2026-03-29T06:53:02.069Z</time></trkpt><trkpt lat="43.349805" lon="11.986885"><ele>303.4</ele><time>2026-03-29T06:53:03.07Z</time></trkpt><trkpt lat="43.3498283" lon="11.9869967"><ele>301.8</ele><time>2026-03-29T06:53:04.07Z</time></trkpt><trkpt lat="43.34984" lon="11.98712"><ele>300.2</ele><time>2026-03-29T06:53:05.07Z</time></trkpt><trkpt lat="43.3498517" lon="11.9872617"><ele>298.6</ele><time>2026-03-29T06:53:06.07Z</time></trkpt><trkpt lat="43.3498667" lon="11.9874217"><ele>297.0</ele><time>2026-03-29T06:53:07.069Z</time></trkpt><trkpt lat="43.3499017" lon="11.9876017"><ele>297.0</ele><time>2026-03-29T06:53:08.07Z</time></trkpt><trkpt lat="43.349935" lon="11.9877733"><ele>297.0</ele><time>2026-03-29T06:53:09.07Z</time></trkpt><trkpt lat="43.3499733" lon="11.9879133"><ele>297.0</ele><time>2026-03-29T06:53:10.07Z</time></trkpt><trkpt lat="43.3500117" lon="11.9880267"><ele>297.0</ele><time>2026-03-29T06:53:11.07Z</time></trkpt><trkpt lat="43.3500467" lon="11.98812"><ele>297.0</ele><time>2026-03-29T06:53:12.07Z</time></trkpt><trkpt lat="43.3500783" lon="11.9882083"><ele>297.0</ele><time>2026-03-29T06:53:13.069Z</time></trkpt><trkpt lat="43.3501183" lon="11.9883117"><ele>297.0</ele><time>2026-03-29T06:53:14.069Z</time></trkpt><trkpt lat="43.3501717" lon="11.9884217"><ele>297.0</ele><time>2026-03-29T06:53:15.07Z</time></trkpt><trkpt lat="43.3502333" lon="11.9885217"><ele>297.0</ele><time>2026-03-29T06:53:16.07Z</time></trkpt><trkpt lat="43.3503167" lon="11.9886067"><ele>297.0</ele><time>2026-03-29T06:53:17.07Z</time></trkpt><trkpt lat="43.3504217" lon="11.988685"><ele>297.5</ele><time>2026-03-29T06:53:18.07Z</time></trkpt><trkpt lat="43.35054" lon="11.9887533"><ele>298.0</ele><time>2026-03-29T06:53:19.07Z</time></trkpt><trkpt lat="43.3506567" lon="11.9887967"><ele>298.5</ele><time>2026-03-29T06:53:20.07Z</time></trkpt><trkpt lat="43.350785" lon="11.98885"><ele>299.0</ele><time>2026-03-29T06:53:21.07Z</time></trkpt><trkpt lat="43.3509017" lon="11.9889167"><ele>299.4</ele><time>2026-03-29T06:53:22.069Z</time></trkpt><trkpt lat="43.3510033" lon="11.9889983"><ele>299.79999999999995</ele><time>2026-03-29T06:53:23.07Z</time></trkpt><trkpt lat="43.3510833" lon="11.989095"><ele>300.20000000000005</ele><time>2026-03-29T06:53:24.07Z</time></trkpt><trkpt lat="43.35114" lon="11.9892117"><ele>300.6</ele><time>2026-03-29T06:53:25.069Z</time></trkpt><trkpt lat="43.3511967" lon="11.989325"><ele>301.0</ele><time>2026-03-29T06:53:26.07Z</time></trkpt><trkpt lat="43.351275" lon="11.989445"><ele>300.0</ele><time>2026-03-29T06:53:27.07Z</time></trkpt><trkpt lat="43.351375" lon="11.9895533"><ele>299.0</ele><time>2026-03-29T06:53:28.07Z</time></trkpt><trkpt lat="43.3515033" lon="11.9896767"><ele>298.0</ele><time>2026-03-29T06:53:29.069Z</time></trkpt><trkpt lat="43.35165" lon="11.9898033"><ele>298.0</ele><time>2026-03-29T06:53:30.07Z</time></trkpt><trkpt lat="43.3517883" lon="11.9899267"><ele>298.0</ele><time>2026-03-29T06:53:31.069Z</time></trkpt><trkpt lat="43.351925" lon="11.9900333"><ele>298.0</ele><time>2026-03-29T06:53:32.069Z</time></trkpt><trkpt lat="43.3520483" lon="11.9901367"><ele>297.66666666666663</ele><time>2026-03-29T06:53:33.069Z</time></trkpt><trkpt lat="43.35217" lon="11.99027"><ele>297.3333333333333</ele><time>2026-03-29T06:53:34.07Z</time></trkpt><trkpt lat="43.35229" lon="11.99041"><ele>297.0</ele><time>2026-03-29T06:53:35.069Z</time></trkpt><trkpt lat="43.35243" lon="11.9905467"><ele>297.0</ele><time>2026-03-29T06:53:36.07Z</time></trkpt><trkpt lat="43.3525583" lon="11.9907"><ele>297.0</ele><time>2026-03-29T06:53:37.07Z</time></trkpt><trkpt lat="43.3526833" lon="11.9908617"><ele>297.0</ele><time>2026-03-29T06:53:38.07Z</time></trkpt><trkpt lat="43.352805" lon="11.9910217"><ele>298.0</ele><time>2026-03-29T06:53:39.069Z</time></trkpt><trkpt lat="43.3529367" lon="11.9911817"><ele>299.0</ele><time>2026-03-29T06:53:40.069Z</time></trkpt><trkpt lat="43.3530517" lon="11.9913367"><ele>300.0</ele><time>2026-03-29T06:53:41.07Z</time></trkpt><trkpt lat="43.3531733" lon="11.99148"><ele>300.0</ele><time>2026-03-29T06:53:42.07Z</time></trkpt><trkpt lat="43.3532767" lon="11.99162"><ele>300.0</ele><time>2026-03-29T06:53:43.069Z</time></trkpt><trkpt lat="43.3533667" lon="11.9917567"><ele>300.0</ele><time>2026-03-29T06:53:44.07Z</time></trkpt><trkpt lat="43.3534383" lon="11.991905"><ele>300.0</ele><time>2026-03-29T06:53:45.07Z</time></trkpt><trkpt lat="43.353495" lon="11.992055"><ele>300.6</ele><time>2026-03-29T06:53:46.07Z</time></trkpt><trkpt lat="43.3535267" lon="11.9922117"><ele>301.2</ele><time>2026-03-29T06:53:47.07Z</time></trkpt><trkpt lat="43.3535433" lon="11.992355"><ele>301.8</ele><time>2026-03-29T06:53:48.07Z</time></trkpt><trkpt lat="43.35356" lon="11.9924683"><ele>302.4</ele><time>2026-03-29T06:53:49.07Z</time></trkpt><trkpt lat="43.3536167" lon="11.9926183"><ele>303.0</ele><time>2026-03-29T06:53:51.07Z</time></trkpt><trkpt lat="43.3536667" lon="11.9926967"><ele>303.25</ele><time>2026-03-29T06:53:52.07Z</time></trkpt><trkpt lat="43.3537417" lon="11.9927867"><ele>303.5</ele><time>2026-03-29T06:53:53.07Z</time></trkpt><trkpt lat="43.35384" lon="11.9928817"><ele>303.75</ele><time>2026-03-29T06:53:54.069Z</time></trkpt><trkpt lat="43.3539517" lon="11.9929883"><ele>304.0</ele><time>2026-03-29T06:53:55.07Z</time></trkpt><trkpt lat="43.35406" lon="11.9930917"><ele>304.0</ele><time>2026-03-29T06:53:56.07Z</time></trkpt><trkpt lat="43.3541717" lon="11.9931883"><ele>304.0</ele><time>2026-03-29T06:53:57.07Z</time></trkpt><trkpt lat="43.3542933" lon="11.9932617"><ele>304.0</ele><time>2026-03-29T06:53:58.07Z</time></trkpt><trkpt lat="43.3544017" lon="11.993325"><ele>304.0</ele><time>2026-03-29T06:53:59.07Z</time></trkpt><trkpt lat="43.3545017" lon="11.9933783"><ele>304.0</ele><time>2026-03-29T06:54:00.07Z</time></trkpt><trkpt lat="43.3546117" lon="11.9934017"><ele>304.0</ele><time>2026-03-29T06:54:01.07Z</time></trkpt><trkpt lat="43.3547267" lon="11.9934"><ele>304.0</ele><time>2026-03-29T06:54:02.07Z</time></trkpt><trkpt lat="43.3548317" lon="11.9934133"><ele>304.0</ele><time>2026-03-29T06:54:03.07Z</time></trkpt><trkpt lat="43.3549133" lon="11.9934533"><ele>304.0</ele><time>2026-03-29T06:54:04.07Z</time></trkpt><trkpt lat="43.3549833" lon="11.9934983"><ele>304.5</ele><time>2026-03-29T06:54:05.07Z</time></trkpt><trkpt lat="43.3550333" lon="11.9936033"><ele>305.0</ele><time>2026-03-29T06:54:07.071Z</time></trkpt><trkpt lat="43.355015" lon="11.9937417"><ele>305.5</ele><time>2026-03-29T06:54:09.071Z</time></trkpt><trkpt lat="43.3550033" lon="11.9938367"><ele>306.0</ele><time>2026-03-29T06:54:10.071Z</time></trkpt><trkpt lat="43.3549933" lon="11.9939433"><ele>306.5</ele><time>2026-03-29T06:54:11.07Z</time></trkpt><trkpt lat="43.354975" lon="11.9940567"><ele>307.0</ele><time>2026-03-29T06:54:12.071Z</time></trkpt><trkpt lat="43.3549617" lon="11.9941817"><ele>308.0</ele><time>2026-03-29T06:54:13.07Z</time></trkpt><trkpt lat="43.35495" lon="11.9943083"><ele>309.0</ele><time>2026-03-29T06:54:14.07Z</time></trkpt><trkpt lat="43.3549483" lon="11.9944433"><ele>310.0</ele><time>2026-03-29T06:54:15.071Z</time></trkpt><trkpt lat="43.3549617" lon="11.9945883"><ele>311.0</ele><time>2026-03-29T06:54:16.07Z</time></trkpt><trkpt lat="43.3549817" lon="11.99473"><ele>312.0</ele><time>2026-03-29T06:54:17.071Z</time></trkpt><trkpt lat="43.355" lon="11.994865"><ele>312.0</ele><time>2026-03-29T06:54:18.071Z</time></trkpt><trkpt lat="43.3550167" lon="11.9949833"><ele>312.0</ele><time>2026-03-29T06:54:19.071Z</time></trkpt><trkpt lat="43.3550267" lon="11.9951"><ele>312.0</ele><time>2026-03-29T06:54:20.071Z</time></trkpt><trkpt lat="43.3550283" lon="11.9952"><ele>312.0</ele><time>2026-03-29T06:54:21.071Z</time></trkpt><trkpt lat="43.3550583" lon="11.9953617"><ele>312.0</ele><time>2026-03-29T06:54:23.071Z</time></trkpt><trkpt lat="43.3550983" lon="11.995435"><ele>312.0</ele><time>2026-03-29T06:54:24.071Z</time></trkpt><trkpt lat="43.3551567" lon="11.9955067"><ele>313.5</ele><time>2026-03-29T06:54:25.071Z</time></trkpt><trkpt lat="43.3552217" lon="11.9955767"><ele>315.0</ele><time>2026-03-29T06:54:26.07Z</time></trkpt><trkpt lat="43.3552833" lon="11.9956517"><ele>316.5</ele><time>2026-03-29T06:54:27.07Z</time></trkpt><trkpt lat="43.3553383" lon="11.9957333"><ele>318.0</ele><time>2026-03-29T06:54:28.071Z</time></trkpt><trkpt lat="43.3553883" lon="11.995825"><ele>319.5</ele><time>2026-03-29T06:54:29.071Z</time></trkpt><trkpt lat="43.355435" lon="11.9959267"><ele>321.0</ele><time>2026-03-29T06:54:30.071Z</time></trkpt><trkpt lat="43.355475" lon="11.9960367"><ele>322.4</ele><time>2026-03-29T06:54:31.07Z</time></trkpt><trkpt lat="43.35551" lon="11.9961583"><ele>323.8</ele><time>2026-03-29T06:54:32.07Z</time></trkpt><trkpt lat="43.3555283" lon="11.996285"><ele>325.2</ele><time>2026-03-29T06:54:33.07Z</time></trkpt><trkpt lat="43.355535" lon="11.99642"><ele>326.59999999999997</ele><time>2026-03-29T06:54:34.071Z</time></trkpt><trkpt lat="43.35553" lon="11.9965483"><ele>328.0</ele><time>2026-03-29T06:54:35.071Z</time></trkpt><trkpt lat="43.35551" lon="11.996675"><ele>328.16666666666663</ele><time>2026-03-29T06:54:36.071Z</time></trkpt><trkpt lat="43.3554883" lon="11.99679"><ele>328.3333333333333</ele><time>2026-03-29T06:54:37.071Z</time></trkpt><trkpt lat="43.3554567" lon="11.996905"><ele>328.5</ele><time>2026-03-29T06:54:38.071Z</time></trkpt><trkpt lat="43.3554233" lon="11.9970167"><ele>328.6666666666667</ele><time>2026-03-29T06:54:39.071Z</time></trkpt><trkpt lat="43.3553733" lon="11.99712"><ele>328.83333333333337</ele><time>2026-03-29T06:54:40.071Z</time></trkpt><trkpt lat="43.3553217" lon="11.9972183"><ele>329.0</ele><time>2026-03-29T06:54:41.071Z</time></trkpt><trkpt lat="43.3552683" lon="11.997315"><ele>329.0</ele><time>2026-03-29T06:54:42.071Z</time></trkpt><trkpt lat="43.3552117" lon="11.9974167"><ele>329.0</ele><time>2026-03-29T06:54:43.07Z</time></trkpt><trkpt lat="43.3551583" lon="11.9975167"><ele>329.0</ele><time>2026-03-29T06:54:44.07Z</time></trkpt><trkpt lat="43.3551117" lon="11.9976083"><ele>329.0</ele><time>2026-03-29T06:54:45.07Z</time></trkpt><trkpt lat="43.3550833" lon="11.9977067"><ele>329.0</ele><time>2026-03-29T06:54:46.07Z</time></trkpt><trkpt lat="43.355075" lon="11.9978133"><ele>329.0</ele><time>2026-03-29T06:54:47.071Z</time></trkpt><trkpt lat="43.3550883" lon="11.9979233"><ele>330.0</ele><time>2026-03-29T06:54:48.071Z</time></trkpt><trkpt lat="43.3551283" lon="11.9980317"><ele>331.0</ele><time>2026-03-29T06:54:49.071Z</time></trkpt><trkpt lat="43.3551883" lon="11.9981283"><ele>332.0</ele><time>2026-03-29T06:54:50.071Z</time></trkpt><trkpt lat="43.3552517" lon="11.9982217"><ele>333.0</ele><time>2026-03-29T06:54:51.071Z</time></trkpt><trkpt lat="43.3553167" lon="11.9983117"><ele>334.0</ele><time>2026-03-29T06:54:52.071Z</time></trkpt><trkpt lat="43.355365" lon="11.99841"><ele>336.16666666666663</ele><time>2026-03-29T06:54:53.071Z</time></trkpt><trkpt lat="43.3553917" lon="11.9985017"><ele>338.3333333333333</ele><time>2026-03-29T06:54:54.071Z</time></trkpt><trkpt lat="43.3554083" lon="11.9985883"><ele>340.5</ele><time>2026-03-29T06:54:55.071Z</time></trkpt><trkpt lat="43.3554033" lon="11.998675"><ele>342.6666666666667</ele><time>2026-03-29T06:54:56.071Z</time></trkpt><trkpt lat="43.355355" lon="11.9988333"><ele>344.83333333333337</ele><time>2026-03-29T06:54:58.07Z</time></trkpt><trkpt lat="43.3553283" lon="11.9989233"><ele>347.0</ele><time>2026-03-29T06:54:59.071Z</time></trkpt><trkpt lat="43.3553033" lon="11.9990067"><ele>347.0</ele><time>2026-03-29T06:55:00.071Z</time></trkpt><trkpt lat="43.3552483" lon="11.9991017"><ele>347.0</ele><time>2026-03-29T06:55:02.071Z</time></trkpt><trkpt lat="43.35517" lon="11.99915"><ele>347.0</ele><time>2026-03-29T06:55:04.071Z</time></trkpt><trkpt lat="43.3551083" lon="11.9991733"><ele>347.0</ele><time>2026-03-29T06:55:05.071Z</time></trkpt><trkpt lat="43.3550367" lon="11.9992"><ele>347.0</ele><time>2026-03-29T06:55:06.07Z</time></trkpt><trkpt lat="43.35495" lon="11.9992333"><ele>347.0</ele><time>2026-03-29T06:55:07.07Z</time></trkpt><trkpt lat="43.3548533" lon="11.999275"><ele>348.40000000000003</ele><time>2026-03-29T06:55:08.071Z</time></trkpt><trkpt lat="43.3547517" lon="11.9993117"><ele>349.8</ele><time>2026-03-29T06:55:09.07Z</time></trkpt><trkpt lat="43.3546517" lon="11.9993733"><ele>351.2</ele><time>2026-03-29T06:55:10.071Z</time></trkpt><trkpt lat="43.3545633" lon="11.99946"><ele>352.6</ele><time>2026-03-29T06:55:11.07Z</time></trkpt><trkpt lat="43.3544733" lon="11.9995583"><ele>354.0</ele><time>2026-03-29T06:55:12.071Z</time></trkpt><trkpt lat="43.3543817" lon="11.999665"><ele>354.0</ele><time>2026-03-29T06:55:13.071Z</time></trkpt><trkpt lat="43.354295" lon="11.99977"><ele>354.0</ele><time>2026-03-29T06:55:14.071Z</time></trkpt><trkpt lat="43.3542067" lon="11.9998633"><ele>354.0</ele><time>2026-03-29T06:55:15.071Z</time></trkpt><trkpt lat="43.3541217" lon="11.9999717"><ele>354.0</ele><time>2026-03-29T06:55:16.071Z</time></trkpt><trkpt lat="43.3540333" lon="12.000075"><ele>354.0</ele><time>2026-03-29T06:55:17.071Z</time></trkpt><trkpt lat="43.353955" lon="12.0001867"><ele>354.0</ele><time>2026-03-29T06:55:18.07Z</time></trkpt><trkpt lat="43.3538833" lon="12.000315"><ele>354.0</ele><time>2026-03-29T06:55:19.07Z</time></trkpt><trkpt lat="43.3538233" lon="12.00046"><ele>354.0</ele><time>2026-03-29T06:55:20.07Z</time></trkpt><trkpt lat="43.3537683" lon="12.0006083"><ele>353.5</ele><time>2026-03-29T06:55:21.071Z</time></trkpt><trkpt lat="43.3537133" lon="12.0007683"><ele>353.0</ele><time>2026-03-29T06:55:22.071Z</time></trkpt><trkpt lat="43.35366" lon="12.00093"><ele>352.5</ele><time>2026-03-29T06:55:23.071Z</time></trkpt><trkpt lat="43.3535983" lon="12.0010883"><ele>352.0</ele><time>2026-03-29T06:55:24.071Z</time></trkpt><trkpt lat="43.3535217" lon="12.00124"><ele>352.0</ele><time>2026-03-29T06:55:25.07Z</time></trkpt><trkpt lat="43.3534417" lon="12.0013867"><ele>352.0</ele><time>2026-03-29T06:55:26.07Z</time></trkpt><trkpt lat="43.3533567" lon="12.0015167"><ele>352.0</ele><time>2026-03-29T06:55:27.07Z</time></trkpt><trkpt lat="43.353255" lon="12.0016317"><ele>352.0</ele><time>2026-03-29T06:55:28.07Z</time></trkpt><trkpt lat="43.35315" lon="12.0017417"><ele>352.5</ele><time>2026-03-29T06:55:29.07Z</time></trkpt><trkpt lat="43.35304" lon="12.0018417"><ele>353.0</ele><time>2026-03-29T06:55:30.07Z</time></trkpt><trkpt lat="43.3529567" lon="12.0019567"><ele>353.5</ele><time>2026-03-29T06:55:31.071Z</time></trkpt><trkpt lat="43.352875" lon="12.002095"><ele>354.0</ele><time>2026-03-29T06:55:32.071Z</time></trkpt><trkpt lat="43.352795" lon="12.0022367"><ele>354.0</ele><time>2026-03-29T06:55:33.071Z</time></trkpt><trkpt lat="43.3527033" lon="12.002365"><ele>354.0</ele><time>2026-03-29T06:55:34.071Z</time></trkpt><trkpt lat="43.352595" lon="12.0024667"><ele>354.0</ele><time>2026-03-29T06:55:35.071Z</time></trkpt><trkpt lat="43.3524767" lon="12.002565"><ele>354.0</ele><time>2026-03-29T06:55:36.071Z</time></trkpt><trkpt lat="43.35235" lon="12.00266"><ele>356.0</ele><time>2026-03-29T06:55:37.071Z</time></trkpt><trkpt lat="43.352245" lon="12.00278"><ele>358.0</ele><time>2026-03-29T06:55:38.071Z</time></trkpt><trkpt lat="43.3521667" lon="12.002915"><ele>360.0</ele><time>2026-03-29T06:55:39.071Z</time></trkpt><trkpt lat="43.3520817" lon="12.0030633"><ele>362.0</ele><time>2026-03-29T06:55:40.071Z</time></trkpt><trkpt lat="43.3519833" lon="12.003205"><ele>366.33333333333337</ele><time>2026-03-29T06:55:41.07Z</time></trkpt><trkpt lat="43.3518617" lon="12.0033317"><ele>370.6666666666667</ele><time>2026-03-29T06:55:42.071Z</time></trkpt><trkpt lat="43.3517317" lon="12.0034583"><ele>375.0</ele><time>2026-03-29T06:55:43.071Z</time></trkpt><trkpt lat="43.35161" lon="12.0035883"><ele>375.0</ele><time>2026-03-29T06:55:44.07Z</time></trkpt><trkpt lat="43.3515117" lon="12.0037167"><ele>375.0</ele><time>2026-03-29T06:55:45.071Z</time></trkpt><trkpt lat="43.3514233" lon="12.00382"><ele>375.0</ele><time>2026-03-29T06:55:46.071Z</time></trkpt><trkpt lat="43.3513383" lon="12.0038783"><ele>375.0</ele><time>2026-03-29T06:55:47.07Z</time></trkpt><trkpt lat="43.35126" lon="12.0038817"><ele>375.0</ele><time>2026-03-29T06:55:48.071Z</time></trkpt><trkpt lat="43.3511933" lon="12.00383"><ele>375.6</ele><time>2026-03-29T06:55:49.071Z</time></trkpt><trkpt lat="43.3511333" lon="12.0037317"><ele>376.2</ele><time>2026-03-29T06:55:50.071Z</time></trkpt><trkpt lat="43.3511" lon="12.0036117"><ele>376.79999999999995</ele><time>2026-03-29T06:55:51.071Z</time></trkpt><trkpt lat="43.3511067" lon="12.0034467"><ele>377.4</ele><time>2026-03-29T06:55:52.071Z</time></trkpt><trkpt lat="43.3511117" lon="12.0032833"><ele>378.0</ele><time>2026-03-29T06:55:53.071Z</time></trkpt><trkpt lat="43.3511017" lon="12.00316"><ele>378.0</ele><time>2026-03-29T06:55:54.071Z</time></trkpt><trkpt lat="43.3510617" lon="12.0030683"><ele>378.0</ele><time>2026-03-29T06:55:55.071Z</time></trkpt><trkpt lat="43.350995" lon="12.00301"><ele>378.0</ele><time>2026-03-29T06:55:56.071Z</time></trkpt><trkpt lat="43.35091" lon="12.0029567"><ele>378.0</ele><time>2026-03-29T06:55:57.071Z</time></trkpt><trkpt lat="43.35082" lon="12.0028833"><ele>378.0</ele><time>2026-03-29T06:55:58.071Z</time></trkpt><trkpt lat="43.3507317" lon="12.0028"><ele>378.0</ele><time>2026-03-29T06:55:59.071Z</time></trkpt><trkpt lat="43.350655" lon="12.0027333"><ele>378.0</ele><time>2026-03-29T06:56:00.071Z</time></trkpt><trkpt lat="43.35057" lon="12.0026983"><ele>378.0</ele><time>2026-03-29T06:56:01.07Z</time></trkpt><trkpt lat="43.3504933" lon="12.0027117"><ele>378.0</ele><time>2026-03-29T06:56:02.071Z</time></trkpt><trkpt lat="43.35041" lon="12.0027583"><ele>378.0</ele><time>2026-03-29T06:56:03.071Z</time></trkpt><trkpt lat="43.3503383" lon="12.0028117"><ele>378.0</ele><time>2026-03-29T06:56:04.07Z</time></trkpt><trkpt lat="43.3502567" lon="12.00288"><ele>381.0</ele><time>2026-03-29T06:56:05.071Z</time></trkpt><trkpt lat="43.3501817" lon="12.00293"><ele>384.0</ele><time>2026-03-29T06:56:06.071Z</time></trkpt><trkpt lat="43.3500967" lon="12.0029217"><ele>387.0</ele><time>2026-03-29T06:56:07.07Z</time></trkpt><trkpt lat="43.35002" lon="12.002865"><ele>390.0</ele><time>2026-03-29T06:56:08.071Z</time></trkpt><trkpt lat="43.3499667" lon="12.0027717"><ele>393.0</ele><time>2026-03-29T06:56:09.071Z</time></trkpt><trkpt lat="43.3499333" lon="12.0026517"><ele>396.0</ele><time>2026-03-29T06:56:10.071Z</time></trkpt><trkpt lat="43.3499233" lon="12.0025"><ele>396.25</ele><time>2026-03-29T06:56:11.071Z</time></trkpt><trkpt lat="43.34994" lon="12.0023317"><ele>396.5</ele><time>2026-03-29T06:56:12.071Z</time></trkpt><trkpt lat="43.34997" lon="12.0021567"><ele>396.75</ele><time>2026-03-29T06:56:13.071Z</time></trkpt><trkpt lat="43.3500133" lon="12.0019817"><ele>397.0</ele><time>2026-03-29T06:56:14.07Z</time></trkpt><trkpt lat="43.3500517" lon="12.001805"><ele>396.0</ele><time>2026-03-29T06:56:15.07Z</time></trkpt><trkpt lat="43.3500983" lon="12.0016317"><ele>395.0</ele><time>2026-03-29T06:56:16.07Z</time></trkpt><trkpt lat="43.3501183" lon="12.0014667"><ele>394.0</ele><time>2026-03-29T06:56:17.071Z</time></trkpt><trkpt lat="43.350115" lon="12.0013217"><ele>393.0</ele><time>2026-03-29T06:56:18.071Z</time></trkpt><trkpt lat="43.3500883" lon="12.0012167"><ele>392.0</ele><time>2026-03-29T06:56:19.071Z</time></trkpt><trkpt lat="43.3500333" lon="12.0011433"><ele>392.0</ele><time>2026-03-29T06:56:20.07Z</time></trkpt><trkpt lat="43.3499533" lon="12.0010983"><ele>392.0</ele><time>2026-03-29T06:56:21.071Z</time></trkpt><trkpt lat="43.3498533" lon="12.00105"><ele>392.0</ele><time>2026-03-29T06:56:22.071Z</time></trkpt><trkpt lat="43.3497283" lon="12.0010083"><ele>392.0</ele><time>2026-03-29T06:56:23.071Z</time></trkpt><trkpt lat="43.34961" lon="12.000955"><ele>392.0</ele><time>2026-03-29T06:56:24.071Z</time></trkpt><trkpt lat="43.34951" lon="12.0008817"><ele>398.0</ele><time>2026-03-29T06:56:25.071Z</time></trkpt><trkpt lat="43.34943" lon="12.0007717"><ele>404.0</ele><time>2026-03-29T06:56:26.07Z</time></trkpt><trkpt lat="43.3493883" lon="12.0006217"><ele>410.0</ele><time>2026-03-29T06:56:27.07Z</time></trkpt><trkpt lat="43.349385" lon="12.0004567"><ele>416.0</ele><time>2026-03-29T06:56:28.071Z</time></trkpt><trkpt lat="43.3494233" lon="12.000275"><ele>416.0</ele><time>2026-03-29T06:56:29.07Z</time></trkpt><trkpt lat="43.349465" lon="12.0001"><ele>416.0</ele><time>2026-03-29T06:56:30.071Z</time></trkpt><trkpt lat="43.3494767" lon="11.9999267"><ele>416.0</ele><time>2026-03-29T06:56:31.071Z</time></trkpt><trkpt lat="43.3494717" lon="11.9997617"><ele>416.0</ele><time>2026-03-29T06:56:32.071Z</time></trkpt><trkpt lat="43.3494467" lon="11.9996083"><ele>416.0</ele><time>2026-03-29T06:56:33.071Z</time></trkpt><trkpt lat="43.3494183" lon="11.9994683"><ele>416.0</ele><time>2026-03-29T06:56:34.071Z</time></trkpt><trkpt lat="43.3493933" lon="11.9993533"><ele>416.0</ele><time>2026-03-29T06:56:35.071Z</time></trkpt><trkpt lat="43.3493333" lon="11.9992583"><ele>416.0</ele><time>2026-03-29T06:56:36.071Z</time></trkpt><trkpt lat="43.349245" lon="11.99919"><ele>416.0</ele><time>2026-03-29T06:56:37.07Z</time></trkpt><trkpt lat="43.3491333" lon="11.9991417"><ele>414.5</ele><time>2026-03-29T06:56:38.07Z</time></trkpt><trkpt lat="43.349015" lon="11.999095"><ele>413.0</ele><time>2026-03-29T06:56:39.071Z</time></trkpt><trkpt lat="43.3489033" lon="11.999"><ele>411.5</ele><time>2026-03-29T06:56:40.071Z</time></trkpt><trkpt lat="43.3487867" lon="11.9988567"><ele>410.0</ele><time>2026-03-29T06:56:41.07Z</time></trkpt><trkpt lat="43.3486833" lon="11.998685"><ele>410.25</ele><time>2026-03-29T06:56:42.071Z</time></trkpt><trkpt lat="43.34858" lon="11.9985383"><ele>410.5</ele><time>2026-03-29T06:56:43.071Z</time></trkpt><trkpt lat="43.348495" lon="11.9984083"><ele>410.75</ele><time>2026-03-29T06:56:44.07Z</time></trkpt><trkpt lat="43.3484167" lon="11.9983133"><ele>411.0</ele><time>2026-03-29T06:56:45.071Z</time></trkpt><trkpt lat="43.3483283" lon="11.998285"><ele>411.0</ele><time>2026-03-29T06:56:46.071Z</time></trkpt><trkpt lat="43.34824" lon="11.9983117"><ele>411.0</ele><time>2026-03-29T06:56:47.07Z</time></trkpt><trkpt lat="43.3481633" lon="11.9983933"><ele>411.0</ele><time>2026-03-29T06:56:48.07Z</time></trkpt><trkpt lat="43.3480967" lon="11.9985133"><ele>411.0</ele><time>2026-03-29T06:56:49.071Z</time></trkpt><trkpt lat="43.3480383" lon="11.9986533"><ele>411.0</ele><time>2026-03-29T06:56:50.071Z</time></trkpt><trkpt lat="43.3479833" lon="11.9988083"><ele>410.75</ele><time>2026-03-29T06:56:51.071Z</time></trkpt><trkpt lat="43.3479317" lon="11.998975"><ele>410.5</ele><time>2026-03-29T06:56:52.071Z</time></trkpt><trkpt lat="43.3478767" lon="11.9991533"><ele>410.25</ele><time>2026-03-29T06:56:53.07Z</time></trkpt><trkpt lat="43.347815" lon="11.999335"><ele>410.0</ele><time>2026-03-29T06:56:54.071Z</time></trkpt><trkpt lat="43.3477517" lon="11.9995167"><ele>414.25</ele><time>2026-03-29T06:56:55.07Z</time></trkpt><trkpt lat="43.3477033" lon="11.9996967"><ele>418.5</ele><time>2026-03-29T06:56:56.07Z</time></trkpt><trkpt lat="43.3476767" lon="11.9998817"><ele>422.75</ele><time>2026-03-29T06:56:57.071Z</time></trkpt><trkpt lat="43.34767" lon="12.0000617"><ele>427.0</ele><time>2026-03-29T06:56:58.071Z</time></trkpt><trkpt lat="43.3476533" lon="12.00022"><ele>427.0</ele><time>2026-03-29T06:56:59.071Z</time></trkpt><trkpt lat="43.34762" lon="12.0003617"><ele>427.0</ele><time>2026-03-29T06:57:00.071Z</time></trkpt><trkpt lat="43.347555" lon="12.0004917"><ele>427.0</ele><time>2026-03-29T06:57:01.07Z</time></trkpt><trkpt lat="43.3474617" lon="12.000615"><ele>427.0</ele><time>2026-03-29T06:57:02.07Z</time></trkpt><trkpt lat="43.3473783" lon="12.00074"><ele>429.6</ele><time>2026-03-29T06:57:03.071Z</time></trkpt><trkpt lat="43.347315" lon="12.00087"><ele>432.20000000000005</ele><time>2026-03-29T06:57:04.07Z</time></trkpt><trkpt lat="43.3472717" lon="12.0010033"><ele>434.8</ele><time>2026-03-29T06:57:05.071Z</time></trkpt><trkpt lat="43.3472283" lon="12.0011183"><ele>437.4</ele><time>2026-03-29T06:57:06.071Z</time></trkpt><trkpt lat="43.34717" lon="12.00121"><ele>440.0</ele><time>2026-03-29T06:57:07.071Z</time></trkpt><trkpt lat="43.3470833" lon="12.0012767"><ele>440.0</ele><time>2026-03-29T06:57:08.071Z</time></trkpt><trkpt lat="43.34698" lon="12.0012883"><ele>440.0</ele><time>2026-03-29T06:57:09.071Z</time></trkpt><trkpt lat="43.3468683" lon="12.0012617"><ele>440.0</ele><time>2026-03-29T06:57:10.07Z</time></trkpt><trkpt lat="43.3467467" lon="12.00121"><ele>440.0</ele><time>2026-03-29T06:57:11.071Z</time></trkpt><trkpt lat="43.3466217" lon="12.00116"><ele>440.0</ele><time>2026-03-29T06:57:12.071Z</time></trkpt><trkpt lat="43.346505" lon="12.0011367"><ele>440.0</ele><time>2026-03-29T06:57:13.07Z</time></trkpt><trkpt lat="43.3464033" lon="12.001125"><ele>440.0</ele><time>2026-03-29T06:57:14.071Z</time></trkpt><trkpt lat="43.3463017" lon="12.0011433"><ele>440.0</ele><time>2026-03-29T06:57:15.07Z</time></trkpt><trkpt lat="43.346215" lon="12.001175"><ele>440.0</ele><time>2026-03-29T06:57:16.071Z</time></trkpt><trkpt lat="43.3461333" lon="12.001205"><ele>440.8333333333333</ele><time>2026-03-29T06:57:17.07Z</time></trkpt><trkpt lat="43.3460483" lon="12.0011983"><ele>441.66666666666663</ele><time>2026-03-29T06:57:18.071Z</time></trkpt><trkpt lat="43.3459667" lon="12.00116"><ele>442.5</ele><time>2026-03-29T06:57:19.071Z</time></trkpt><trkpt lat="43.3459233" lon="12.0010783"><ele>443.33333333333337</ele><time>2026-03-29T06:57:20.07Z</time></trkpt><trkpt lat="43.345895" lon="12.0009567"><ele>444.1666666666667</ele><time>2026-03-29T06:57:21.071Z</time></trkpt><trkpt lat="43.34589" lon="12.0008317"><ele>445.0</ele><time>2026-03-29T06:57:22.07Z</time></trkpt><trkpt lat="43.345875" lon="12.0007133"><ele>445.00000000000006</ele><time>2026-03-29T06:57:23.071Z</time></trkpt><trkpt lat="43.3458433" lon="12.000595"><ele>445.0</ele><time>2026-03-29T06:57:24.071Z</time></trkpt><trkpt lat="43.3458017" lon="12.0004983"><ele>445.0</ele><time>2026-03-29T06:57:25.071Z</time></trkpt><trkpt lat="43.3457567" lon="12.0004317"><ele>445.0</ele><time>2026-03-29T06:57:26.07Z</time></trkpt><trkpt lat="43.3456967" lon="12.0004733"><ele>445.00000000000006</ele><time>2026-03-29T06:57:29.071Z</time></trkpt><trkpt lat="43.3456817" lon="12.00059"><ele>445.0</ele><time>2026-03-29T06:57:31.07Z</time></trkpt><trkpt lat="43.3456717" lon="12.0007217"><ele>445.00000000000006</ele><time>2026-03-29T06:57:33.071Z</time></trkpt><trkpt lat="43.34562" lon="12.0007867"><ele>445.0</ele><time>2026-03-29T06:57:34.07Z</time></trkpt><trkpt lat="43.3455433" lon="12.000855"><ele>445.0</ele><time>2026-03-29T06:57:35.071Z</time></trkpt><trkpt lat="43.3454683" lon="12.0009267"><ele>445.0</ele><time>2026-03-29T06:57:36.071Z</time></trkpt><trkpt lat="43.3454033" lon="12.0009967"><ele>445.00000000000006</ele><time>2026-03-29T06:57:37.071Z</time></trkpt><trkpt lat="43.3453417" lon="12.0010433"><ele>445.0</ele><time>2026-03-29T06:57:38.07Z</time></trkpt><trkpt lat="43.3452767" lon="12.0010583"><ele>448.00000000000006</ele><time>2026-03-29T06:57:39.071Z</time></trkpt><trkpt lat="43.3452033" lon="12.0010583"><ele>451.0</ele><time>2026-03-29T06:57:40.071Z</time></trkpt><trkpt lat="43.3451383" lon="12.0010483"><ele>454.0</ele><time>2026-03-29T06:57:41.071Z</time></trkpt><trkpt lat="43.34503" lon="12.0010433"><ele>457.0</ele><time>2026-03-29T06:57:43.071Z</time></trkpt><trkpt lat="43.3449733" lon="12.0011333"><ele>460.00000000000006</ele><time>2026-03-29T06:57:45.071Z</time></trkpt><trkpt lat="43.3449733" lon="12.00127"><ele>463.0</ele><time>2026-03-29T06:57:47.071Z</time></trkpt><trkpt lat="43.3449967" lon="12.0013783"><ele>463.0</ele><time>2026-03-29T06:57:48.071Z</time></trkpt><trkpt lat="43.3450383" lon="12.0015083"><ele>462.99999999999994</ele><time>2026-03-29T06:57:49.071Z</time></trkpt><trkpt lat="43.3450933" lon="12.0016383"><ele>462.99999999999994</ele><time>2026-03-29T06:57:50.071Z</time></trkpt><trkpt lat="43.34516" lon="12.0017533"><ele>463.0</ele><time>2026-03-29T06:57:51.071Z</time></trkpt><trkpt lat="43.34523" lon="12.00184"><ele>463.0</ele><time>2026-03-29T06:57:52.071Z</time></trkpt><trkpt lat="43.3452967" lon="12.0019083"><ele>465.33333333333337</ele><time>2026-03-29T06:57:53.071Z</time></trkpt><trkpt lat="43.3453517" lon="12.0019817"><ele>467.6666666666667</ele><time>2026-03-29T06:57:54.071Z</time></trkpt><trkpt lat="43.3453767" lon="12.002075"><ele>470.0</ele><time>2026-03-29T06:57:55.07Z</time></trkpt><trkpt lat="43.3453867" lon="12.0021933"><ele>472.33333333333337</ele><time>2026-03-29T06:57:56.071Z</time></trkpt><trkpt lat="43.3453833" lon="12.0023333"><ele>474.6666666666667</ele><time>2026-03-29T06:57:57.071Z</time></trkpt><trkpt lat="43.345365" lon="12.0024767"><ele>477.0</ele><time>2026-03-29T06:57:58.071Z</time></trkpt><trkpt lat="43.3453533" lon="12.0026183"><ele>479.6</ele><time>2026-03-29T06:57:59.071Z</time></trkpt><trkpt lat="43.3453283" lon="12.0027517"><ele>482.20000000000005</ele><time>2026-03-29T06:58:00.07Z</time></trkpt><trkpt lat="43.3453" lon="12.0028667"><ele>484.8</ele><time>2026-03-29T06:58:01.07Z</time></trkpt><trkpt lat="43.3452783" lon="12.0029833"><ele>487.4</ele><time>2026-03-29T06:58:02.071Z</time></trkpt><trkpt lat="43.3452633" lon="12.0032183"><ele>490.0</ele><time>2026-03-29T06:58:04.07Z</time></trkpt><trkpt lat="43.3452533" lon="12.0033383"><ele>493.0</ele><time>2026-03-29T06:58:05.071Z</time></trkpt><trkpt lat="43.3452767" lon="12.003555"><ele>496.0</ele><time>2026-03-29T06:58:07.071Z</time></trkpt><trkpt lat="43.345285" lon="12.0036767"><ele>499.0</ele><time>2026-03-29T06:58:08.07Z</time></trkpt><trkpt lat="43.3452833" lon="12.0037817"><ele>502.0</ele><time>2026-03-29T06:58:09.07Z</time></trkpt><trkpt lat="43.34528" lon="12.003875"><ele>505.0</ele><time>2026-03-29T06:58:10.071Z</time></trkpt><trkpt lat="43.3453317" lon="12.0039483"><ele>505.00000000000006</ele><time>2026-03-29T06:58:12.071Z</time></trkpt><trkpt lat="43.3454367" lon="12.0039067"><ele>505.0</ele><time>2026-03-29T06:58:14.071Z</time></trkpt><trkpt lat="43.3454967" lon="12.00383"><ele>505.0</ele><time>2026-03-29T06:58:15.071Z</time></trkpt><trkpt lat="43.3455467" lon="12.0037367"><ele>505.0</ele><time>2026-03-29T06:58:16.07Z</time></trkpt><trkpt lat="43.34559" lon="12.003655"><ele>505.00000000000006</ele><time>2026-03-29T06:58:17.07Z</time></trkpt><trkpt lat="43.3456317" lon="12.0035717"><ele>505.0</ele><time>2026-03-29T06:58:18.071Z</time></trkpt><trkpt lat="43.3456733" lon="12.0034933"><ele>505.00000000000006</ele><time>2026-03-29T06:58:19.07Z</time></trkpt><trkpt lat="43.345725" lon="12.0034317"><ele>505.0</ele><time>2026-03-29T06:58:20.071Z</time></trkpt><trkpt lat="43.3457883" lon="12.0033767"><ele>505.0</ele><time>2026-03-29T06:58:21.071Z</time></trkpt><trkpt lat="43.3458983" lon="12.00334"><ele>505.0</ele><time>2026-03-29T06:58:23.071Z</time></trkpt><trkpt lat="43.3459983" lon="12.0034083"><ele>505.00000000000006</ele><time>2026-03-29T06:58:25.071Z</time></trkpt><trkpt lat="43.3460367" lon="12.003485"><ele>505.0</ele><time>2026-03-29T06:58:26.07Z</time></trkpt><trkpt lat="43.3460633" lon="12.0035967"><ele>505.00000000000006</ele><time>2026-03-29T06:58:27.071Z</time></trkpt><trkpt lat="43.34609" lon="12.003705"><ele>505.0</ele><time>2026-03-29T06:58:28.071Z</time></trkpt><trkpt lat="43.34611" lon="12.0038167"><ele>505.0</ele><time>2026-03-29T06:58:29.071Z</time></trkpt><trkpt lat="43.3461183" lon="12.0039033"><ele>505.0</ele><time>2026-03-29T06:58:30.071Z</time></trkpt><trkpt lat="43.3461217" lon="12.0039967"><ele>505.00000000000006</ele><time>2026-03-29T06:58:32.07Z</time></trkpt><trkpt lat="43.3460667" lon="12.0040583"><ele>505.0</ele><time>2026-03-29T06:58:34.071Z</time></trkpt><trkpt lat="43.3459683" lon="12.0040917"><ele>505.00000000000006</ele><time>2026-03-29T06:58:36.071Z</time></trkpt><trkpt lat="43.345885" lon="12.0041333"><ele>505.0</ele><time>2026-03-29T06:58:38.07Z</time></trkpt><trkpt lat="43.34586" lon="12.0042533"><ele>505.0</ele><time>2026-03-29T06:58:40.071Z</time></trkpt><trkpt lat="43.345845" lon="12.004425"><ele>505.0</ele><time>2026-03-29T06:58:42.07Z</time></trkpt><trkpt lat="43.3458433" lon="12.0045117"><ele>505.00000000000006</ele><time>2026-03-29T06:58:43.071Z</time></trkpt><trkpt lat="43.345835" lon="12.0046133"><ele>505.0</ele><time>2026-03-29T06:58:44.071Z</time></trkpt><trkpt lat="43.34583" lon="12.0047183"><ele>507.6666666666667</ele><time>2026-03-29T06:58:45.07Z</time></trkpt><trkpt lat="43.3458183" lon="12.0048283"><ele>510.33333333333337</ele><time>2026-03-29T06:58:46.071Z</time></trkpt><trkpt lat="43.3458067" lon="12.0049267"><ele>513.0</ele><time>2026-03-29T06:58:47.07Z</time></trkpt><trkpt lat="43.3458017" lon="12.0050183"><ele>515.6666666666666</ele><time>2026-03-29T06:58:48.071Z</time></trkpt><trkpt lat="43.345815" lon="12.0051467"><ele>518.3333333333333</ele><time>2026-03-29T06:58:50.071Z</time></trkpt><trkpt lat="43.3458817" lon="12.0052267"><ele>521.0</ele><time>2026-03-29T06:58:52.07Z</time></trkpt><trkpt lat="43.3459817" lon="12.0053133"><ele>523.5</ele><time>2026-03-29T06:58:54.071Z</time></trkpt><trkpt lat="43.3460517" lon="12.0054233"><ele>526.0</ele><time>2026-03-29T06:58:56.071Z</time></trkpt><trkpt lat="43.346095" lon="12.0055617"><ele>528.5</ele><time>2026-03-29T06:58:58.071Z</time></trkpt><trkpt lat="43.3461017" lon="12.005725"><ele>531.0</ele><time>2026-03-29T06:59:00.071Z</time></trkpt><trkpt lat="43.346075" lon="12.0058883"><ele>532.6666666666666</ele><time>2026-03-29T06:59:02.071Z</time></trkpt><trkpt lat="43.34606" lon="12.0059733"><ele>534.3333333333334</ele><time>2026-03-29T06:59:03.07Z</time></trkpt><trkpt lat="43.3460567" lon="12.0060633"><ele>536.0</ele><time>2026-03-29T06:59:04.07Z</time></trkpt><trkpt lat="43.3460483" lon="12.00615"><ele>537.6666666666667</ele><time>2026-03-29T06:59:05.072Z</time></trkpt><trkpt lat="43.34602" lon="12.00631"><ele>539.3333333333334</ele><time>2026-03-29T06:59:07.071Z</time></trkpt><trkpt lat="43.346" lon="12.0064217"><ele>541.0</ele><time>2026-03-29T06:59:09.072Z</time></trkpt><trkpt lat="43.3459833" lon="12.0065083"><ele>541.0000000000001</ele><time>2026-03-29T06:59:11.072Z</time></trkpt><trkpt lat="43.3459317" lon="12.0065867"><ele>541.0</ele><time>2026-03-29T06:59:13.072Z</time></trkpt><trkpt lat="43.3458583" lon="12.006615"><ele>541.0</ele><time>2026-03-29T06:59:15.072Z</time></trkpt><trkpt lat="43.3457933" lon="12.0065717"><ele>541.0</ele><time>2026-03-29T06:59:17.072Z</time></trkpt><trkpt lat="43.3457283" lon="12.0065233"><ele>541.0</ele><time>2026-03-29T06:59:29.072Z</time></trkpt><trkpt lat="43.345655" lon="12.0065"><ele>541.0000000000001</ele><time>2026-03-29T06:59:32.071Z</time></trkpt><trkpt lat="43.3455917" lon="12.0065383"><ele>541.0</ele><time>2026-03-29T06:59:35.072Z</time></trkpt><trkpt lat="43.3455533" lon="12.0066117"><ele>544.8</ele><time>2026-03-29T06:59:37.072Z</time></trkpt><trkpt lat="43.3455217" lon="12.006725"><ele>548.6</ele><time>2026-03-29T06:59:39.072Z</time></trkpt><trkpt lat="43.34549" lon="12.006835"><ele>552.4</ele><time>2026-03-29T06:59:41.072Z</time></trkpt><trkpt lat="43.3454517" lon="12.006935"><ele>556.2</ele><time>2026-03-29T06:59:43.071Z</time></trkpt><trkpt lat="43.3453733" lon="12.0070467"><ele>560.0</ele><time>2026-03-29T06:59:45.071Z</time></trkpt><trkpt lat="43.3452967" lon="12.00714"><ele>560.0</ele><time>2026-03-29T06:59:47.072Z</time></trkpt><trkpt lat="43.345205" lon="12.007215"><ele>560.0</ele><time>2026-03-29T06:59:49.072Z</time></trkpt><trkpt lat="43.3450917" lon="12.0072817"><ele>560.0</ele><time>2026-03-29T06:59:51.072Z</time></trkpt><trkpt lat="43.3449983" lon="12.007355"><ele>560.0</ele><time>2026-03-29T06:59:53.072Z</time></trkpt><trkpt lat="43.3449183" lon="12.007375"><ele>560.0</ele><time>2026-03-29T06:59:55.072Z</time></trkpt><trkpt lat="43.34483" lon="12.00724"><ele>560.0</ele><time>2026-03-29T06:59:57.071Z</time></trkpt><trkpt lat="43.3447817" lon="12.0071283"><ele>560.0</ele><time>2026-03-29T06:59:58.072Z</time></trkpt><trkpt lat="43.3447183" lon="12.0070317"><ele>560.0</ele><time>2026-03-29T06:59:59.072Z</time></trkpt><trkpt lat="43.3446517" lon="12.0069717"><ele>560.0</ele><time>2026-03-29T07:00:00.072Z</time></trkpt><trkpt lat="43.344585" lon="12.0069517"><ele>560.0</ele><time>2026-03-29T07:00:01.071Z</time></trkpt><trkpt lat="43.3445167" lon="12.0069633"><ele>560.0</ele><time>2026-03-29T07:00:02.072Z</time></trkpt><trkpt lat="43.3444017" lon="12.006945"><ele>561.6</ele><time>2026-03-29T07:00:04.071Z</time></trkpt><trkpt lat="43.3443517" lon="12.0068767"><ele>563.2</ele><time>2026-03-29T07:00:05.072Z</time></trkpt><trkpt lat="43.3442883" lon="12.0067933"><ele>564.8</ele><time>2026-03-29T07:00:06.072Z</time></trkpt><trkpt lat="43.34421" lon="12.00671"><ele>566.4</ele><time>2026-03-29T07:00:07.072Z</time></trkpt><trkpt lat="43.344125" lon="12.0066233"><ele>568.0</ele><time>2026-03-29T07:00:08.072Z</time></trkpt><trkpt lat="43.3440417" lon="12.006545"><ele>568.0</ele><time>2026-03-29T07:00:09.072Z</time></trkpt><trkpt lat="43.3439633" lon="12.00646"><ele>568.0</ele><time>2026-03-29T07:00:10.072Z</time></trkpt><trkpt lat="43.3438733" lon="12.0063683"><ele>568.0</ele><time>2026-03-29T07:00:11.072Z</time></trkpt><trkpt lat="43.3437717" lon="12.0062983"><ele>568.0</ele><time>2026-03-29T07:00:12.071Z</time></trkpt><trkpt lat="43.3436617" lon="12.00624"><ele>568.0</ele><time>2026-03-29T07:00:13.072Z</time></trkpt><trkpt lat="43.3435517" lon="12.0061967"><ele>570.6666666666667</ele><time>2026-03-29T07:00:14.072Z</time></trkpt><trkpt lat="43.34346" lon="12.0061667"><ele>573.3333333333334</ele><time>2026-03-29T07:00:15.071Z</time></trkpt><trkpt lat="43.34338" lon="12.0061217"><ele>576.0</ele><time>2026-03-29T07:00:16.071Z</time></trkpt><trkpt lat="43.3433033" lon="12.006065"><ele>578.6666666666666</ele><time>2026-03-29T07:00:17.072Z</time></trkpt><trkpt lat="43.34323" lon="12.0060117"><ele>581.3333333333333</ele><time>2026-03-29T07:00:18.072Z</time></trkpt><trkpt lat="43.3431517" lon="12.005965"><ele>584.0</ele><time>2026-03-29T07:00:19.072Z</time></trkpt><trkpt lat="43.3430633" lon="12.005915"><ele>586.6</ele><time>2026-03-29T07:00:20.072Z</time></trkpt><trkpt lat="43.34297" lon="12.0058367"><ele>589.2</ele><time>2026-03-29T07:00:21.071Z</time></trkpt><trkpt lat="43.3428783" lon="12.0057483"><ele>591.8000000000001</ele><time>2026-03-29T07:00:22.072Z</time></trkpt><trkpt lat="43.34279" lon="12.0056583"><ele>594.4</ele><time>2026-03-29T07:00:23.071Z</time></trkpt><trkpt lat="43.3427017" lon="12.00558"><ele>597.0</ele><time>2026-03-29T07:00:24.071Z</time></trkpt><trkpt lat="43.3426117" lon="12.0055133"><ele>597.0</ele><time>2026-03-29T07:00:25.072Z</time></trkpt><trkpt lat="43.3425233" lon="12.0054417"><ele>597.0</ele><time>2026-03-29T07:00:26.072Z</time></trkpt><trkpt lat="43.342445" lon="12.005365"><ele>597.0</ele><time>2026-03-29T07:00:27.072Z</time></trkpt><trkpt lat="43.34238" lon="12.00529"><ele>597.0</ele><time>2026-03-29T07:00:28.071Z</time></trkpt><trkpt lat="43.3423267" lon="12.0052033"><ele>597.0</ele><time>2026-03-29T07:00:29.072Z</time></trkpt><trkpt lat="43.3422817" lon="12.0051133"><ele>597.0</ele><time>2026-03-29T07:00:30.071Z</time></trkpt><trkpt lat="43.34224" lon="12.005035"><ele>596.25</ele><time>2026-03-29T07:00:31.072Z</time></trkpt><trkpt lat="43.34216" lon="12.00492"><ele>595.5</ele><time>2026-03-29T07:00:33.071Z</time></trkpt><trkpt lat="43.342025" lon="12.0048483"><ele>594.75</ele><time>2026-03-29T07:00:35.072Z</time></trkpt><trkpt lat="43.3419333" lon="12.00481"><ele>594.0</ele><time>2026-03-29T07:00:36.072Z</time></trkpt><trkpt lat="43.3418317" lon="12.0047917"><ele>594.0</ele><time>2026-03-29T07:00:37.072Z</time></trkpt><trkpt lat="43.3417233" lon="12.004785"><ele>594.0</ele><time>2026-03-29T07:00:38.072Z</time></trkpt><trkpt lat="43.34163" lon="12.00476"><ele>594.0</ele><time>2026-03-29T07:00:39.072Z</time></trkpt><trkpt lat="43.3415417" lon="12.00473"><ele>594.0</ele><time>2026-03-29T07:00:40.072Z</time></trkpt><trkpt lat="43.34147" lon="12.0046733"><ele>594.0</ele><time>2026-03-29T07:00:41.071Z</time></trkpt><trkpt lat="43.34141" lon="12.004615"><ele>593.8</ele><time>2026-03-29T07:00:42.072Z</time></trkpt><trkpt lat="43.3413583" lon="12.0045333"><ele>593.5999999999999</ele><time>2026-03-29T07:00:43.071Z</time></trkpt><trkpt lat="43.3413083" lon="12.0044183"><ele>593.4</ele><time>2026-03-29T07:00:44.071Z</time></trkpt><trkpt lat="43.3412633" lon="12.0042633"><ele>593.1999999999999</ele><time>2026-03-29T07:00:45.072Z</time></trkpt><trkpt lat="43.341215" lon="12.004085"><ele>593.0</ele><time>2026-03-29T07:00:46.072Z</time></trkpt><trkpt lat="43.3411717" lon="12.0039233"><ele>593.0</ele><time>2026-03-29T07:00:47.072Z</time></trkpt><trkpt lat="43.34113" lon="12.0037867"><ele>593.0</ele><time>2026-03-29T07:00:48.072Z</time></trkpt><trkpt lat="43.3410933" lon="12.0036783"><ele>593.0</ele><time>2026-03-29T07:00:49.072Z</time></trkpt><trkpt lat="43.3410583" lon="12.0035733"><ele>593.0</ele><time>2026-03-29T07:00:50.072Z</time></trkpt><trkpt lat="43.3410333" lon="12.00347"><ele>593.0</ele><time>2026-03-29T07:00:51.072Z</time></trkpt><trkpt lat="43.341005" lon="12.003355"><ele>593.0</ele><time>2026-03-29T07:00:52.072Z</time></trkpt><trkpt lat="43.3409833" lon="12.0032417"><ele>591.6666666666666</ele><time>2026-03-29T07:00:53.072Z</time></trkpt><trkpt lat="43.3409583" lon="12.0031217"><ele>590.3333333333333</ele><time>2026-03-29T07:00:54.071Z</time></trkpt><trkpt lat="43.340935" lon="12.0030067"><ele>589.0</ele><time>2026-03-29T07:00:55.071Z</time></trkpt><trkpt lat="43.3408983" lon="12.0028967"><ele>587.6666666666666</ele><time>2026-03-29T07:00:56.072Z</time></trkpt><trkpt lat="43.3408567" lon="12.0027983"><ele>586.3333333333334</ele><time>2026-03-29T07:00:57.071Z</time></trkpt><trkpt lat="43.3408183" lon="12.0027"><ele>585.0</ele><time>2026-03-29T07:00:58.072Z</time></trkpt><trkpt lat="43.34079" lon="12.0026033"><ele>585.0</ele><time>2026-03-29T07:00:59.071Z</time></trkpt><trkpt lat="43.3407583" lon="12.0025267"><ele>585.0</ele><time>2026-03-29T07:01:00.072Z</time></trkpt><trkpt lat="43.3407" lon="12.0024033"><ele>585.0</ele><time>2026-03-29T07:01:02.072Z</time></trkpt><trkpt lat="43.3406583" lon="12.002315"><ele>585.0</ele><time>2026-03-29T07:01:05.072Z</time></trkpt><trkpt lat="43.34062" lon="12.002175"><ele>585.0</ele><time>2026-03-29T07:01:08.072Z</time></trkpt><trkpt lat="43.3406167" lon="12.002085"><ele>585.0</ele><time>2026-03-29T07:01:09.072Z</time></trkpt><trkpt lat="43.3406083" lon="12.0019833"><ele>583.4</ele><time>2026-03-29T07:01:10.072Z</time></trkpt><trkpt lat="43.3405983" lon="12.0018733"><ele>581.8</ele><time>2026-03-29T07:01:11.072Z</time></trkpt><trkpt lat="43.340585" lon="12.001745"><ele>580.2</ele><time>2026-03-29T07:01:12.072Z</time></trkpt><trkpt lat="43.34056" lon="12.0016117"><ele>578.6</ele><time>2026-03-29T07:01:13.072Z</time></trkpt><trkpt lat="43.3405317" lon="12.0014817"><ele>577.0</ele><time>2026-03-29T07:01:14.071Z</time></trkpt><trkpt lat="43.3404933" lon="12.00135"><ele>580.5</ele><time>2026-03-29T07:01:15.072Z</time></trkpt><trkpt lat="43.340445" lon="12.0012183"><ele>584.0</ele><time>2026-03-29T07:01:16.072Z</time></trkpt><trkpt lat="43.3403883" lon="12.00108"><ele>587.5</ele><time>2026-03-29T07:01:17.071Z</time></trkpt><trkpt lat="43.3403317" lon="12.0009417"><ele>591.0</ele><time>2026-03-29T07:01:18.072Z</time></trkpt><trkpt lat="43.34029" lon="12.000795"><ele>591.0</ele><time>2026-03-29T07:01:19.072Z</time></trkpt><trkpt lat="43.3402633" lon="12.000635"><ele>591.0</ele><time>2026-03-29T07:01:20.072Z</time></trkpt><trkpt lat="43.3402433" lon="12.0004717"><ele>591.0</ele><time>2026-03-29T07:01:21.072Z</time></trkpt><trkpt lat="43.3402517" lon="12.000305"><ele>591.0</ele><time>2026-03-29T07:01:22.072Z</time></trkpt><trkpt lat="43.3402783" lon="12.0001433"><ele>591.0</ele><time>2026-03-29T07:01:23.072Z</time></trkpt><trkpt lat="43.34032" lon="11.9999817"><ele>591.0</ele><time>2026-03-29T07:01:24.072Z</time></trkpt><trkpt lat="43.340365" lon="11.9998317"><ele>591.0</ele><time>2026-03-29T07:01:25.071Z</time></trkpt><trkpt lat="43.3404333" lon="11.9996917"><ele>591.0</ele><time>2026-03-29T07:01:26.072Z</time></trkpt><trkpt lat="43.3405083" lon="11.99955"><ele>584.75</ele><time>2026-03-29T07:01:27.072Z</time></trkpt><trkpt lat="43.34058" lon="11.99941"><ele>578.5</ele><time>2026-03-29T07:01:28.071Z</time></trkpt><trkpt lat="43.34064" lon="11.9992667"><ele>572.25</ele><time>2026-03-29T07:01:29.072Z</time></trkpt><trkpt lat="43.3406867" lon="11.9991067"><ele>566.0</ele><time>2026-03-29T07:01:30.072Z</time></trkpt><trkpt lat="43.3407267" lon="11.9989517"><ele>566.0</ele><time>2026-03-29T07:01:31.072Z</time></trkpt><trkpt lat="43.3407683" lon="11.9987967"><ele>566.0</ele><time>2026-03-29T07:01:32.072Z</time></trkpt><trkpt lat="43.340795" lon="11.9986533"><ele>566.0</ele><time>2026-03-29T07:01:33.072Z</time></trkpt><trkpt lat="43.3408167" lon="11.99853"><ele>566.0</ele><time>2026-03-29T07:01:34.072Z</time></trkpt><trkpt lat="43.3408267" lon="11.9984217"><ele>566.0</ele><time>2026-03-29T07:01:35.071Z</time></trkpt><trkpt lat="43.340805" lon="11.9982817"><ele>566.0</ele><time>2026-03-29T07:01:37.072Z</time></trkpt><trkpt lat="43.34073" lon="11.9981767"><ele>566.0</ele><time>2026-03-29T07:01:39.071Z</time></trkpt><trkpt lat="43.3406667" lon="11.9981117"><ele>566.0</ele><time>2026-03-29T07:01:40.072Z</time></trkpt><trkpt lat="43.3405933" lon="11.9980283"><ele>566.0</ele><time>2026-03-29T07:01:41.071Z</time></trkpt><trkpt lat="43.3405083" lon="11.9979233"><ele>566.0</ele><time>2026-03-29T07:01:42.072Z</time></trkpt><trkpt lat="43.34042" lon="11.9978217"><ele>568.75</ele><time>2026-03-29T07:01:43.071Z</time></trkpt><trkpt lat="43.34034" lon="11.9977333"><ele>571.5</ele><time>2026-03-29T07:01:44.071Z</time></trkpt><trkpt lat="43.3402667" lon="11.9976333"><ele>574.25</ele><time>2026-03-29T07:01:45.072Z</time></trkpt><trkpt lat="43.34018" lon="11.9975167"><ele>577.0</ele><time>2026-03-29T07:01:46.071Z</time></trkpt><trkpt lat="43.3400833" lon="11.9973733"><ele>577.0</ele><time>2026-03-29T07:01:47.072Z</time></trkpt><trkpt lat="43.3399817" lon="11.9972083"><ele>577.0</ele><time>2026-03-29T07:01:48.072Z</time></trkpt><trkpt lat="43.339875" lon="11.9970517"><ele>577.0</ele><time>2026-03-29T07:01:49.072Z</time></trkpt><trkpt lat="43.3397583" lon="11.9969"><ele>580.0</ele><time>2026-03-29T07:01:50.071Z</time></trkpt><trkpt lat="43.3396317" lon="11.99673"><ele>583.0</ele><time>2026-03-29T07:01:51.072Z</time></trkpt><trkpt lat="43.3395017" lon="11.99658"><ele>586.0</ele><time>2026-03-29T07:01:52.072Z</time></trkpt><trkpt lat="43.3393917" lon="11.99643"><ele>586.0</ele><time>2026-03-29T07:01:53.072Z</time></trkpt><trkpt lat="43.3393067" lon="11.9962833"><ele>586.0</ele><time>2026-03-29T07:01:54.072Z</time></trkpt><trkpt lat="43.339215" lon="11.9961583"><ele>586.0</ele><time>2026-03-29T07:01:55.071Z</time></trkpt><trkpt lat="43.33913" lon="11.9960717"><ele>586.0</ele><time>2026-03-29T07:01:56.072Z</time></trkpt><trkpt lat="43.3390417" lon="11.9960133"><ele>586.0</ele><time>2026-03-29T07:01:57.072Z</time></trkpt><trkpt lat="43.3389267" lon="11.9959583"><ele>586.0</ele><time>2026-03-29T07:01:58.072Z</time></trkpt><trkpt lat="43.3387833" lon="11.9959183"><ele>586.0</ele><time>2026-03-29T07:01:59.072Z</time></trkpt><trkpt lat="43.338635" lon="11.9958783"><ele>586.0</ele><time>2026-03-29T07:02:00.072Z</time></trkpt><trkpt lat="43.33851" lon="11.9958467"><ele>585.2</ele><time>2026-03-29T07:02:01.072Z</time></trkpt><trkpt lat="43.3384017" lon="11.9958283"><ele>584.4000000000001</ele><time>2026-03-29T07:02:02.071Z</time></trkpt><trkpt lat="43.33831" lon="11.995825"><ele>583.6</ele><time>2026-03-29T07:02:03.072Z</time></trkpt><trkpt lat="43.338175" lon="11.9958817"><ele>582.8000000000001</ele><time>2026-03-29T07:02:05.071Z</time></trkpt><trkpt lat="43.3380917" lon="11.9959483"><ele>582.0</ele><time>2026-03-29T07:02:06.072Z</time></trkpt><trkpt lat="43.3379967" lon="11.9960417"><ele>581.2</ele><time>2026-03-29T07:02:07.072Z</time></trkpt><trkpt lat="43.3379067" lon="11.9961317"><ele>580.4000000000001</ele><time>2026-03-29T07:02:08.072Z</time></trkpt><trkpt lat="43.3378233" lon="11.9962167"><ele>579.5999999999999</ele><time>2026-03-29T07:02:09.072Z</time></trkpt><trkpt lat="43.3377533" lon="11.9962933"><ele>578.8</ele><time>2026-03-29T07:02:10.072Z</time></trkpt><trkpt lat="43.337675" lon="11.9963583"><ele>578.0</ele><time>2026-03-29T07:02:11.072Z</time></trkpt><trkpt lat="43.337585" lon="11.9963983"><ele>578.0</ele><time>2026-03-29T07:02:12.072Z</time></trkpt><trkpt lat="43.33748" lon="11.9964283"><ele>578.0</ele><time>2026-03-29T07:02:13.071Z</time></trkpt><trkpt lat="43.3373817" lon="11.9964633"><ele>578.0</ele><time>2026-03-29T07:02:14.071Z</time></trkpt><trkpt lat="43.3372867" lon="11.9964817"><ele>578.0</ele><time>2026-03-29T07:02:15.072Z</time></trkpt><trkpt lat="43.337195" lon="11.9964983"><ele>578.0</ele><time>2026-03-29T07:02:16.072Z</time></trkpt><trkpt lat="43.337105" lon="11.9965033"><ele>575.6</ele><time>2026-03-29T07:02:17.072Z</time></trkpt><trkpt lat="43.3370083" lon="11.9964883"><ele>573.1999999999999</ele><time>2026-03-29T07:02:18.072Z</time></trkpt><trkpt lat="43.3369067" lon="11.9964717"><ele>570.8</ele><time>2026-03-29T07:02:19.072Z</time></trkpt><trkpt lat="43.3368083" lon="11.9964317"><ele>568.4</ele><time>2026-03-29T07:02:20.072Z</time></trkpt><trkpt lat="43.3367067" lon="11.9964033"><ele>566.0</ele><time>2026-03-29T07:02:21.071Z</time></trkpt><trkpt lat="43.3365983" lon="11.9963817"><ele>566.0</ele><time>2026-03-29T07:02:22.072Z</time></trkpt><trkpt lat="43.3364883" lon="11.99637"><ele>566.0</ele><time>2026-03-29T07:02:23.072Z</time></trkpt><trkpt lat="43.336385" lon="11.9963533"><ele>566.0</ele><time>2026-03-29T07:02:24.072Z</time></trkpt><trkpt lat="43.3362783" lon="11.9963583"><ele>566.0</ele><time>2026-03-29T07:02:25.072Z</time></trkpt><trkpt lat="43.3361717" lon="11.9963717"><ele>566.0</ele><time>2026-03-29T07:02:26.072Z</time></trkpt><trkpt lat="43.3360767" lon="11.9963617"><ele>563.1666666666666</ele><time>2026-03-29T07:02:27.072Z</time></trkpt><trkpt lat="43.3359867" lon="11.9963317"><ele>560.3333333333333</ele><time>2026-03-29T07:02:28.072Z</time></trkpt><trkpt lat="43.3359167" lon="11.9962717"><ele>557.5</ele><time>2026-03-29T07:02:29.072Z</time></trkpt><trkpt lat="43.3358717" lon="11.996175"><ele>554.6666666666666</ele><time>2026-03-29T07:02:30.072Z</time></trkpt><trkpt lat="43.3358517" lon="11.996065"><ele>551.8333333333334</ele><time>2026-03-29T07:02:31.071Z</time></trkpt><trkpt lat="43.3358217" lon="11.9959583"><ele>549.0</ele><time>2026-03-29T07:02:32.071Z</time></trkpt><trkpt lat="43.3357917" lon="11.995865"><ele>549.1666666666666</ele><time>2026-03-29T07:02:33.072Z</time></trkpt><trkpt lat="43.3357367" lon="11.995805"><ele>549.3333333333334</ele><time>2026-03-29T07:02:34.071Z</time></trkpt><trkpt lat="43.3356667" lon="11.99578"><ele>549.5</ele><time>2026-03-29T07:02:35.071Z</time></trkpt><trkpt lat="43.3355883" lon="11.9957883"><ele>549.6666666666667</ele><time>2026-03-29T07:02:36.072Z</time></trkpt><trkpt lat="43.3354917" lon="11.9958183"><ele>549.8333333333334</ele><time>2026-03-29T07:02:37.072Z</time></trkpt><trkpt lat="43.33539" lon="11.9958467"><ele>550.0</ele><time>2026-03-29T07:02:38.072Z</time></trkpt><trkpt lat="43.33529" lon="11.9958517"><ele>550.0</ele><time>2026-03-29T07:02:39.071Z</time></trkpt><trkpt lat="43.335205" lon="11.9958117"><ele>550.0</ele><time>2026-03-29T07:02:40.071Z</time></trkpt><trkpt lat="43.3351467" lon="11.99574"><ele>550.0</ele><time>2026-03-29T07:02:41.072Z</time></trkpt><trkpt lat="43.3351" lon="11.9956433"><ele>550.0</ele><time>2026-03-29T07:02:42.072Z</time></trkpt><trkpt lat="43.3350533" lon="11.9955483"><ele>550.0</ele><time>2026-03-29T07:02:43.071Z</time></trkpt><trkpt lat="43.335005" lon="11.99546"><ele>550.0</ele><time>2026-03-29T07:02:44.071Z</time></trkpt><trkpt lat="43.3349533" lon="11.9954033"><ele>550.0</ele><time>2026-03-29T07:02:45.072Z</time></trkpt><trkpt lat="43.3348417" lon="11.9954383"><ele>550.0</ele><time>2026-03-29T07:02:47.072Z</time></trkpt><trkpt lat="43.33477" lon="11.9955267"><ele>550.0</ele><time>2026-03-29T07:02:48.072Z</time></trkpt><trkpt lat="43.3346917" lon="11.99561"><ele>550.0</ele><time>2026-03-29T07:02:49.071Z</time></trkpt><trkpt lat="43.3346133" lon="11.9956617"><ele>550.0</ele><time>2026-03-29T07:02:50.072Z</time></trkpt><trkpt lat="43.3345117" lon="11.99569"><ele>547.0</ele><time>2026-03-29T07:02:51.071Z</time></trkpt><trkpt lat="43.33439" lon="11.995685"><ele>544.0</ele><time>2026-03-29T07:02:52.072Z</time></trkpt><trkpt lat="43.334265" lon="11.9956633"><ele>541.0</ele><time>2026-03-29T07:02:53.072Z</time></trkpt><trkpt lat="43.3341517" lon="11.9956333"><ele>538.0</ele><time>2026-03-29T07:02:54.071Z</time></trkpt><trkpt lat="43.3340483" lon="11.9955833"><ele>538.0</ele><time>2026-03-29T07:02:55.072Z</time></trkpt><trkpt lat="43.3339383" lon="11.9955133"><ele>538.0</ele><time>2026-03-29T07:02:56.072Z</time></trkpt><trkpt lat="43.3338233" lon="11.99545"><ele>538.0</ele><time>2026-03-29T07:02:57.071Z</time></trkpt><trkpt lat="43.33369" lon="11.9953967"><ele>538.0</ele><time>2026-03-29T07:02:58.072Z</time></trkpt><trkpt lat="43.3335383" lon="11.9953567"><ele>537.0</ele><time>2026-03-29T07:02:59.071Z</time></trkpt><trkpt lat="43.3333983" lon="11.995325"><ele>536.0</ele><time>2026-03-29T07:03:00.072Z</time></trkpt><trkpt lat="43.33326" lon="11.9952917"><ele>535.0</ele><time>2026-03-29T07:03:01.072Z</time></trkpt><trkpt lat="43.33314" lon="11.9952583"><ele>534.0</ele><time>2026-03-29T07:03:02.072Z</time></trkpt><trkpt lat="43.3330217" lon="11.9952133"><ele>538.0</ele><time>2026-03-29T07:03:03.071Z</time></trkpt><trkpt lat="43.3329267" lon="11.99515"><ele>542.0</ele><time>2026-03-29T07:03:04.072Z</time></trkpt><trkpt lat="43.3328433" lon="11.9950817"><ele>546.0</ele><time>2026-03-29T07:03:05.072Z</time></trkpt><trkpt lat="43.3327733" lon="11.99503"><ele>550.0</ele><time>2026-03-29T07:03:06.072Z</time></trkpt><trkpt lat="43.3326717" lon="11.995025"><ele>554.0</ele><time>2026-03-29T07:03:08.071Z</time></trkpt><trkpt lat="43.3325817" lon="11.9951517"><ele>554.0</ele><time>2026-03-29T07:03:10.072Z</time></trkpt><trkpt lat="43.3325617" lon="11.9952433"><ele>554.0</ele><time>2026-03-29T07:03:11.072Z</time></trkpt><trkpt lat="43.3325733" lon="11.9953533"><ele>554.0</ele><time>2026-03-29T07:03:12.072Z</time></trkpt><trkpt lat="43.3326133" lon="11.995485"><ele>554.0</ele><time>2026-03-29T07:03:13.072Z</time></trkpt><trkpt lat="43.332695" lon="11.99563"><ele>554.0</ele><time>2026-03-29T07:03:14.071Z</time></trkpt><trkpt lat="43.3327883" lon="11.995775"><ele>553.6666666666666</ele><time>2026-03-29T07:03:15.071Z</time></trkpt><trkpt lat="43.3329033" lon="11.99594"><ele>553.3333333333334</ele><time>2026-03-29T07:03:16.071Z</time></trkpt><trkpt lat="43.3330217" lon="11.996085"><ele>553.0</ele><time>2026-03-29T07:03:17.072Z</time></trkpt><trkpt lat="43.3331233" lon="11.996235"><ele>553.0</ele><time>2026-03-29T07:03:18.072Z</time></trkpt><trkpt lat="43.333245" lon="11.9963767"><ele>553.0</ele><time>2026-03-29T07:03:19.072Z</time></trkpt><trkpt lat="43.3333583" lon="11.9965267"><ele>553.0</ele><time>2026-03-29T07:03:20.072Z</time></trkpt><trkpt lat="43.333475" lon="11.9966633"><ele>559.5</ele><time>2026-03-29T07:03:21.072Z</time></trkpt><trkpt lat="43.3335783" lon="11.9968067"><ele>566.0</ele><time>2026-03-29T07:03:22.072Z</time></trkpt><trkpt lat="43.3336967" lon="11.9969633"><ele>572.5</ele><time>2026-03-29T07:03:23.072Z</time></trkpt><trkpt lat="43.3337833" lon="11.99711"><ele>579.0</ele><time>2026-03-29T07:03:24.072Z</time></trkpt><trkpt lat="43.3338767" lon="11.9972083"><ele>579.0</ele><time>2026-03-29T07:03:25.072Z</time></trkpt><trkpt lat="43.33393" lon="11.997265"><ele>579.0</ele><time>2026-03-29T07:03:26.072Z</time></trkpt><trkpt lat="43.3339683" lon="11.9973717"><ele>579.0</ele><time>2026-03-29T07:03:28.072Z</time></trkpt><trkpt lat="43.3339" lon="11.9974533"><ele>579.0</ele><time>2026-03-29T07:03:30.072Z</time></trkpt><trkpt lat="43.333835" lon="11.99746"><ele>579.0</ele><time>2026-03-29T07:03:31.071Z</time></trkpt><trkpt lat="43.33377" lon="11.997435"><ele>579.0</ele><time>2026-03-29T07:03:32.072Z</time></trkpt><trkpt lat="43.3336983" lon="11.9973867"><ele>579.0</ele><time>2026-03-29T07:03:33.072Z</time></trkpt><trkpt lat="43.3336233" lon="11.99731"><ele>579.0</ele><time>2026-03-29T07:03:34.071Z</time></trkpt><trkpt lat="43.3335383" lon="11.9972167"><ele>579.0</ele><time>2026-03-29T07:03:35.071Z</time></trkpt><trkpt lat="43.3334417" lon="11.997125"><ele>579.0</ele><time>2026-03-29T07:03:36.071Z</time></trkpt><trkpt lat="43.333335" lon="11.99704"><ele>579.0</ele><time>2026-03-29T07:03:37.072Z</time></trkpt><trkpt lat="43.33323" lon="11.99697"><ele>579.0</ele><time>2026-03-29T07:03:38.072Z</time></trkpt><trkpt lat="43.3331283" lon="11.9968983"><ele>579.0</ele><time>2026-03-29T07:03:39.071Z</time></trkpt><trkpt lat="43.3330283" lon="11.99683"><ele>579.0</ele><time>2026-03-29T07:03:40.072Z</time></trkpt><trkpt lat="43.3329417" lon="11.9967633"><ele>579.0</ele><time>2026-03-29T07:03:41.072Z</time></trkpt><trkpt lat="43.3328667" lon="11.99672"><ele>579.0</ele><time>2026-03-29T07:03:42.072Z</time></trkpt><trkpt lat="43.332805" lon="11.9966867"><ele>581.6666666666666</ele><time>2026-03-29T07:03:43.072Z</time></trkpt><trkpt lat="43.3327117" lon="11.9967217"><ele>584.3333333333334</ele><time>2026-03-29T07:03:45.072Z</time></trkpt><trkpt lat="43.3327083" lon="11.99684"><ele>587.0</ele><time>2026-03-29T07:03:47.072Z</time></trkpt><trkpt lat="43.3327533" lon="11.9969033"><ele>589.6666666666667</ele><time>2026-03-29T07:03:48.071Z</time></trkpt><trkpt lat="43.3328133" lon="11.9969633"><ele>592.3333333333334</ele><time>2026-03-29T07:03:49.071Z</time></trkpt><trkpt lat="43.33288" lon="11.9970433"><ele>595.0</ele><time>2026-03-29T07:03:50.072Z</time></trkpt><trkpt lat="43.3329433" lon="11.9971267"><ele>595.0</ele><time>2026-03-29T07:03:51.072Z</time></trkpt><trkpt lat="43.33301" lon="11.9972217"><ele>595.0</ele><time>2026-03-29T07:03:52.071Z</time></trkpt><trkpt lat="43.33308" lon="11.9973233"><ele>595.0</ele><time>2026-03-29T07:03:53.071Z</time></trkpt><trkpt lat="43.3331417" lon="11.9974133"><ele>595.0</ele><time>2026-03-29T07:03:54.071Z</time></trkpt><trkpt lat="43.333195" lon="11.997485"><ele>595.0</ele><time>2026-03-29T07:03:55.072Z</time></trkpt><trkpt lat="43.33319" lon="11.9975833"><ele>595.0</ele><time>2026-03-29T07:03:57.072Z</time></trkpt><trkpt lat="43.3331217" lon="11.99759"><ele>595.0</ele><time>2026-03-29T07:03:59.071Z</time></trkpt><trkpt lat="43.3330083" lon="11.99749"><ele>595.0</ele><time>2026-03-29T07:04:01.071Z</time></trkpt><trkpt lat="43.332945" lon="11.99744"><ele>595.0</ele><time>2026-03-29T07:04:02.071Z</time></trkpt><trkpt lat="43.3328717" lon="11.9974133"><ele>595.0</ele><time>2026-03-29T07:04:03.072Z</time></trkpt><trkpt lat="43.3327733" lon="11.9973983"><ele>595.0</ele><time>2026-03-29T07:04:05.072Z</time></trkpt><trkpt lat="43.3327183" lon="11.9974717"><ele>596.3333333333334</ele><time>2026-03-29T07:04:07.071Z</time></trkpt><trkpt lat="43.3327383" lon="11.9975817"><ele>597.6666666666667</ele><time>2026-03-29T07:04:09.071Z</time></trkpt><trkpt lat="43.33284" lon="11.9976667"><ele>599.0</ele><time>2026-03-29T07:04:11.072Z</time></trkpt><trkpt lat="43.3329017" lon="11.9977267"><ele>600.3333333333334</ele><time>2026-03-29T07:04:12.073Z</time></trkpt><trkpt lat="43.3329583" lon="11.9978067"><ele>601.6666666666666</ele><time>2026-03-29T07:04:13.073Z</time></trkpt><trkpt lat="43.33301" lon="11.9978967"><ele>603.0</ele><time>2026-03-29T07:04:14.073Z</time></trkpt><trkpt lat="43.333065" lon="11.9980083"><ele>603.0</ele><time>2026-03-29T07:04:15.073Z</time></trkpt><trkpt lat="43.3331233" lon="11.9981317"><ele>603.0</ele><time>2026-03-29T07:04:16.073Z</time></trkpt><trkpt lat="43.3332017" lon="11.998245"><ele>603.0</ele><time>2026-03-29T07:04:17.073Z</time></trkpt><trkpt lat="43.3332733" lon="11.9983317"><ele>603.0</ele><time>2026-03-29T07:04:18.073Z</time></trkpt><trkpt lat="43.3333383" lon="11.9984117"><ele>603.0</ele><time>2026-03-29T07:04:19.072Z</time></trkpt><trkpt lat="43.3334017" lon="11.9984733"><ele>606.3333333333334</ele><time>2026-03-29T07:04:20.073Z</time></trkpt><trkpt lat="43.3334617" lon="11.9985883"><ele>609.6666666666666</ele><time>2026-03-29T07:04:22.073Z</time></trkpt><trkpt lat="43.3333833" lon="11.9986167"><ele>613.0</ele><time>2026-03-29T07:04:25.073Z</time></trkpt><trkpt lat="43.3333167" lon="11.9985733"><ele>616.3333333333333</ele><time>2026-03-29T07:04:26.073Z</time></trkpt><trkpt lat="43.3332417" lon="11.9985167"><ele>619.6666666666666</ele><time>2026-03-29T07:04:27.072Z</time></trkpt><trkpt lat="43.3331583" lon="11.99848"><ele>623.0</ele><time>2026-03-29T07:04:28.073Z</time></trkpt><trkpt lat="43.3330683" lon="11.9984733"><ele>623.5</ele><time>2026-03-29T07:04:29.073Z</time></trkpt><trkpt lat="43.3329917" lon="11.9985017"><ele>624.0</ele><time>2026-03-29T07:04:30.073Z</time></trkpt><trkpt lat="43.3329217" lon="11.99855"><ele>624.5</ele><time>2026-03-29T07:04:31.072Z</time></trkpt><trkpt lat="43.3328567" lon="11.99864"><ele>625.0</ele><time>2026-03-29T07:04:32.072Z</time></trkpt><trkpt lat="43.3328017" lon="11.9987283"><ele>625.5</ele><time>2026-03-29T07:04:33.073Z</time></trkpt><trkpt lat="43.33275" lon="11.9988167"><ele>626.0</ele><time>2026-03-29T07:04:34.072Z</time></trkpt><trkpt lat="43.3327067" lon="11.998905"><ele>626.0</ele><time>2026-03-29T07:04:35.073Z</time></trkpt><trkpt lat="43.3326567" lon="11.9989783"><ele>626.0</ele><time>2026-03-29T07:04:36.073Z</time></trkpt><trkpt lat="43.3325933" lon="11.9990283"><ele>626.0</ele><time>2026-03-29T07:04:37.073Z</time></trkpt><trkpt lat="43.3325167" lon="11.9990583"><ele>626.0</ele><time>2026-03-29T07:04:38.072Z</time></trkpt><trkpt lat="43.3324317" lon="11.9990667"><ele>626.0</ele><time>2026-03-29T07:04:39.073Z</time></trkpt><trkpt lat="43.3323483" lon="11.9990767"><ele>626.0</ele><time>2026-03-29T07:04:40.072Z</time></trkpt><trkpt lat="43.3322767" lon="11.9991017"><ele>625.3333333333333</ele><time>2026-03-29T07:04:41.073Z</time></trkpt><trkpt lat="43.33221" lon="11.9991267"><ele>624.6666666666666</ele><time>2026-03-29T07:04:42.073Z</time></trkpt><trkpt lat="43.3321467" lon="11.9991667"><ele>624.0</ele><time>2026-03-29T07:04:43.072Z</time></trkpt><trkpt lat="43.3320383" lon="11.9992467"><ele>623.3333333333334</ele><time>2026-03-29T07:04:45.073Z</time></trkpt><trkpt lat="43.33198" lon="11.9992833"><ele>622.6666666666667</ele><time>2026-03-29T07:04:46.072Z</time></trkpt><trkpt lat="43.3318967" lon="11.9993683"><ele>622.0</ele><time>2026-03-29T07:04:48.073Z</time></trkpt><trkpt lat="43.3318633" lon="11.9994733"><ele>623.3333333333334</ele><time>2026-03-29T07:04:50.072Z</time></trkpt><trkpt lat="43.33184" lon="11.999635"><ele>624.6666666666667</ele><time>2026-03-29T07:04:52.073Z</time></trkpt><trkpt lat="43.3318233" lon="11.9997267"><ele>626.0</ele><time>2026-03-29T07:04:53.073Z</time></trkpt><trkpt lat="43.3318017" lon="11.9998167"><ele>627.3333333333334</ele><time>2026-03-29T07:04:54.073Z</time></trkpt><trkpt lat="43.331745" lon="11.9998967"><ele>628.6666666666666</ele><time>2026-03-29T07:04:55.072Z</time></trkpt><trkpt lat="43.3316817" lon="11.9999617"><ele>630.0</ele><time>2026-03-29T07:04:56.072Z</time></trkpt><trkpt lat="43.3316083" lon="12.0000267"><ele>630.0</ele><time>2026-03-29T07:04:57.073Z</time></trkpt><trkpt lat="43.3315483" lon="12.0000983"><ele>630.0</ele><time>2026-03-29T07:04:58.073Z</time></trkpt><trkpt lat="43.3315" lon="12.0001917"><ele>630.0</ele><time>2026-03-29T07:04:59.073Z</time></trkpt><trkpt lat="43.331445" lon="12.0002883"><ele>630.0</ele><time>2026-03-29T07:05:00.073Z</time></trkpt><trkpt lat="43.3314" lon="12.0003867"><ele>630.0</ele><time>2026-03-29T07:05:01.073Z</time></trkpt><trkpt lat="43.331345" lon="12.0004817"><ele>630.0</ele><time>2026-03-29T07:05:02.072Z</time></trkpt><trkpt lat="43.3312883" lon="12.0005683"><ele>628.8333333333334</ele><time>2026-03-29T07:05:03.073Z</time></trkpt><trkpt lat="43.3312233" lon="12.0006383"><ele>627.6666666666666</ele><time>2026-03-29T07:05:04.072Z</time></trkpt><trkpt lat="43.3311567" lon="12.0006967"><ele>626.5</ele><time>2026-03-29T07:05:05.073Z</time></trkpt><trkpt lat="43.3310867" lon="12.0007467"><ele>625.3333333333333</ele><time>2026-03-29T07:05:06.073Z</time></trkpt><trkpt lat="43.3310017" lon="12.0008033"><ele>624.1666666666666</ele><time>2026-03-29T07:05:07.072Z</time></trkpt><trkpt lat="43.3309217" lon="12.0008467"><ele>623.0</ele><time>2026-03-29T07:05:08.073Z</time></trkpt><trkpt lat="43.33084" lon="12.0008817"><ele>627.25</ele><time>2026-03-29T07:05:09.073Z</time></trkpt><trkpt lat="43.3307483" lon="12.0009117"><ele>631.5</ele><time>2026-03-29T07:05:10.073Z</time></trkpt><trkpt lat="43.3305483" lon="12.0009517"><ele>635.75</ele><time>2026-03-29T07:05:12.073Z</time></trkpt><trkpt lat="43.3304533" lon="12.000985"><ele>640.0</ele><time>2026-03-29T07:05:13.073Z</time></trkpt><trkpt lat="43.3303617" lon="12.0010117"><ele>640.1666666666667</ele><time>2026-03-29T07:05:14.073Z</time></trkpt><trkpt lat="43.3302767" lon="12.0010467"><ele>640.3333333333334</ele><time>2026-03-29T07:05:15.072Z</time></trkpt><trkpt lat="43.3301933" lon="12.0010917"><ele>640.5</ele><time>2026-03-29T07:05:16.073Z</time></trkpt><trkpt lat="43.3301233" lon="12.0011317"><ele>640.6666666666666</ele><time>2026-03-29T07:05:17.073Z</time></trkpt><trkpt lat="43.3300567" lon="12.0011467"><ele>640.8333333333333</ele><time>2026-03-29T07:05:18.073Z</time></trkpt><trkpt lat="43.3299933" lon="12.00113"><ele>641.0</ele><time>2026-03-29T07:05:19.073Z</time></trkpt><trkpt lat="43.3299367" lon="12.0010767"><ele>641.0</ele><time>2026-03-29T07:05:20.073Z</time></trkpt><trkpt lat="43.329885" lon="12.00099"><ele>641.0</ele><time>2026-03-29T07:05:21.073Z</time></trkpt><trkpt lat="43.329835" lon="12.0009017"><ele>641.0</ele><time>2026-03-29T07:05:22.073Z</time></trkpt><trkpt lat="43.3297583" lon="12.000835"><ele>641.0</ele><time>2026-03-29T07:05:23.072Z</time></trkpt><trkpt lat="43.3296483" lon="12.0007767"><ele>641.0</ele><time>2026-03-29T07:05:24.073Z</time></trkpt><trkpt lat="43.3295233" lon="12.0007333"><ele>639.6666666666666</ele><time>2026-03-29T07:05:25.073Z</time></trkpt><trkpt lat="43.3294083" lon="12.000705"><ele>638.3333333333333</ele><time>2026-03-29T07:05:26.072Z</time></trkpt><trkpt lat="43.3293183" lon="12.00069"><ele>637.0</ele><time>2026-03-29T07:05:27.073Z</time></trkpt><trkpt lat="43.3292433" lon="12.0006767"><ele>635.6666666666666</ele><time>2026-03-29T07:05:28.073Z</time></trkpt><trkpt lat="43.3291617" lon="12.00068"><ele>634.3333333333334</ele><time>2026-03-29T07:05:29.073Z</time></trkpt><trkpt lat="43.3290783" lon="12.0007"><ele>633.0</ele><time>2026-03-29T07:05:30.073Z</time></trkpt><trkpt lat="43.328985" lon="12.0007367"><ele>633.0</ele><time>2026-03-29T07:05:31.072Z</time></trkpt><trkpt lat="43.3288983" lon="12.00079"><ele>633.0</ele><time>2026-03-29T07:05:32.072Z</time></trkpt><trkpt lat="43.3288083" lon="12.0008717"><ele>633.0</ele><time>2026-03-29T07:05:33.072Z</time></trkpt><trkpt lat="43.32873" lon="12.0009617"><ele>633.0</ele><time>2026-03-29T07:05:34.073Z</time></trkpt><trkpt lat="43.328655" lon="12.0010617"><ele>633.0</ele><time>2026-03-29T07:05:35.073Z</time></trkpt><trkpt lat="43.32857" lon="12.001185"><ele>637.5</ele><time>2026-03-29T07:05:36.073Z</time></trkpt><trkpt lat="43.3284717" lon="12.0013283"><ele>642.0</ele><time>2026-03-29T07:05:37.073Z</time></trkpt><trkpt lat="43.3283817" lon="12.0014767"><ele>646.5</ele><time>2026-03-29T07:05:38.072Z</time></trkpt><trkpt lat="43.3282967" lon="12.0016117"><ele>651.0</ele><time>2026-03-29T07:05:39.072Z</time></trkpt><trkpt lat="43.3282383" lon="12.00174"><ele>652.0</ele><time>2026-03-29T07:05:40.073Z</time></trkpt><trkpt lat="43.3281817" lon="12.0018683"><ele>653.0</ele><time>2026-03-29T07:05:41.073Z</time></trkpt><trkpt lat="43.3281333" lon="12.0019967"><ele>654.0</ele><time>2026-03-29T07:05:42.073Z</time></trkpt><trkpt lat="43.3280733" lon="12.0020917"><ele>655.0</ele><time>2026-03-29T07:05:43.072Z</time></trkpt><trkpt lat="43.3280017" lon="12.00216"><ele>656.0</ele><time>2026-03-29T07:05:44.073Z</time></trkpt><trkpt lat="43.327915" lon="12.00221"><ele>656.0</ele><time>2026-03-29T07:05:45.073Z</time></trkpt><trkpt lat="43.3278367" lon="12.0022317"><ele>656.0</ele><time>2026-03-29T07:05:46.072Z</time></trkpt><trkpt lat="43.32776" lon="12.0021883"><ele>656.0</ele><time>2026-03-29T07:05:47.072Z</time></trkpt><trkpt lat="43.3276833" lon="12.002095"><ele>656.0</ele><time>2026-03-29T07:05:48.073Z</time></trkpt><trkpt lat="43.3276283" lon="12.0020067"><ele>656.0</ele><time>2026-03-29T07:05:49.073Z</time></trkpt><trkpt lat="43.3275217" lon="12.001955"><ele>656.0</ele><time>2026-03-29T07:05:51.072Z</time></trkpt><trkpt lat="43.3274583" lon="12.0019867"><ele>656.0</ele><time>2026-03-29T07:05:52.073Z</time></trkpt><trkpt lat="43.32739" lon="12.0020683"><ele>656.0</ele><time>2026-03-29T07:05:53.073Z</time></trkpt><trkpt lat="43.3273133" lon="12.0021667"><ele>656.0</ele><time>2026-03-29T07:05:54.073Z</time></trkpt><trkpt lat="43.327235" lon="12.002265"><ele>656.0</ele><time>2026-03-29T07:05:55.073Z</time></trkpt><trkpt lat="43.32716" lon="12.0023067"><ele>657.3333333333333</ele><time>2026-03-29T07:05:56.072Z</time></trkpt><trkpt lat="43.32708" lon="12.0023233"><ele>658.6666666666666</ele><time>2026-03-29T07:05:57.073Z</time></trkpt><trkpt lat="43.3270133" lon="12.0023367"><ele>660.0</ele><time>2026-03-29T07:05:58.073Z</time></trkpt><trkpt lat="43.326915" lon="12.00236"><ele>661.3333333333334</ele><time>2026-03-29T07:06:00.073Z</time></trkpt><trkpt lat="43.326845" lon="12.0023967"><ele>662.6666666666667</ele><time>2026-03-29T07:06:02.073Z</time></trkpt><trkpt lat="43.3268467" lon="12.002485"><ele>664.0</ele><time>2026-03-29T07:06:04.073Z</time></trkpt><trkpt lat="43.3269433" lon="12.0025233"><ele>664.0</ele><time>2026-03-29T07:06:06.072Z</time></trkpt><trkpt lat="43.3270217" lon="12.00253"><ele>664.0</ele><time>2026-03-29T07:06:07.073Z</time></trkpt><trkpt lat="43.3270967" lon="12.0025817"><ele>664.0</ele><time>2026-03-29T07:06:08.073Z</time></trkpt><trkpt lat="43.3271633" lon="12.002655"><ele>664.0</ele><time>2026-03-29T07:06:09.073Z</time></trkpt><trkpt lat="43.3272133" lon="12.00272"><ele>664.0</ele><time>2026-03-29T07:06:10.073Z</time></trkpt><trkpt lat="43.3272117" lon="12.00283"><ele>664.0</ele><time>2026-03-29T07:06:12.073Z</time></trkpt><trkpt lat="43.3271417" lon="12.00283"><ele>664.0</ele><time>2026-03-29T07:06:14.073Z</time></trkpt><trkpt lat="43.3270267" lon="12.002755"><ele>664.0</ele><time>2026-03-29T07:06:16.073Z</time></trkpt><trkpt lat="43.326915" lon="12.002745"><ele>664.0</ele><time>2026-03-29T07:06:18.073Z</time></trkpt><trkpt lat="43.3268183" lon="12.00286"><ele>664.0</ele><time>2026-03-29T07:06:20.072Z</time></trkpt><trkpt lat="43.32677" lon="12.00296"><ele>664.0</ele><time>2026-03-29T07:06:21.073Z</time></trkpt><trkpt lat="43.326735" lon="12.00305"><ele>664.0</ele><time>2026-03-29T07:06:22.073Z</time></trkpt><trkpt lat="43.32671" lon="12.0031433"><ele>664.0</ele><time>2026-03-29T07:06:23.073Z</time></trkpt><trkpt lat="43.3267" lon="12.0032367"><ele>664.0</ele><time>2026-03-29T07:06:24.073Z</time></trkpt><trkpt lat="43.3266983" lon="12.0033433"><ele>664.0</ele><time>2026-03-29T07:06:25.072Z</time></trkpt><trkpt lat="43.3266983" lon="12.0034583"><ele>664.0</ele><time>2026-03-29T07:06:26.072Z</time></trkpt><trkpt lat="43.3267017" lon="12.003555"><ele>664.0</ele><time>2026-03-29T07:06:27.073Z</time></trkpt><trkpt lat="43.3266933" lon="12.0036517"><ele>668.0</ele><time>2026-03-29T07:06:28.073Z</time></trkpt><trkpt lat="43.326675" lon="12.003755"><ele>672.0</ele><time>2026-03-29T07:06:29.073Z</time></trkpt><trkpt lat="43.3266317" lon="12.0038617"><ele>676.0</ele><time>2026-03-29T07:06:30.072Z</time></trkpt><trkpt lat="43.326585" lon="12.00397"><ele>680.0</ele><time>2026-03-29T07:06:31.073Z</time></trkpt><trkpt lat="43.32654" lon="12.0040767"><ele>684.0</ele><time>2026-03-29T07:06:32.072Z</time></trkpt><trkpt lat="43.3264917" lon="12.0041683"><ele>688.0</ele><time>2026-03-29T07:06:33.073Z</time></trkpt><trkpt lat="43.326455" lon="12.004255"><ele>688.6666666666667</ele><time>2026-03-29T07:06:34.072Z</time></trkpt><trkpt lat="43.326435" lon="12.0043517"><ele>689.3333333333334</ele><time>2026-03-29T07:06:35.072Z</time></trkpt><trkpt lat="43.3264117" lon="12.0044617"><ele>690.0</ele><time>2026-03-29T07:06:36.073Z</time></trkpt><trkpt lat="43.3263933" lon="12.00458"><ele>690.6666666666666</ele><time>2026-03-29T07:06:37.073Z</time></trkpt><trkpt lat="43.3263883" lon="12.0047167"><ele>691.3333333333333</ele><time>2026-03-29T07:06:38.073Z</time></trkpt><trkpt lat="43.3263867" lon="12.004845"><ele>692.0</ele><time>2026-03-29T07:06:39.073Z</time></trkpt><trkpt lat="43.3263867" lon="12.004945"><ele>695.8333333333333</ele><time>2026-03-29T07:06:40.073Z</time></trkpt><trkpt lat="43.3263767" lon="12.0050333"><ele>699.6666666666666</ele><time>2026-03-29T07:06:41.072Z</time></trkpt><trkpt lat="43.3263017" lon="12.0051417"><ele>703.5</ele><time>2026-03-29T07:06:43.073Z</time></trkpt><trkpt lat="43.3262383" lon="12.0051617"><ele>707.3333333333334</ele><time>2026-03-29T07:06:44.073Z</time></trkpt><trkpt lat="43.32613" lon="12.0051967"><ele>711.1666666666667</ele><time>2026-03-29T07:06:46.072Z</time></trkpt><trkpt lat="43.3260467" lon="12.0051883"><ele>715.0</ele><time>2026-03-29T07:06:48.073Z</time></trkpt><trkpt lat="43.3259267" lon="12.0051333"><ele>715.0</ele><time>2026-03-29T07:06:50.073Z</time></trkpt><trkpt lat="43.3258367" lon="12.005105"><ele>715.0</ele><time>2026-03-29T07:06:51.073Z</time></trkpt><trkpt lat="43.3257433" lon="12.0050883"><ele>715.0</ele><time>2026-03-29T07:06:52.072Z</time></trkpt><trkpt lat="43.3256483" lon="12.0050883"><ele>715.0</ele><time>2026-03-29T07:06:53.073Z</time></trkpt><trkpt lat="43.3255583" lon="12.0051067"><ele>715.0</ele><time>2026-03-29T07:06:54.073Z</time></trkpt><trkpt lat="43.3253967" lon="12.0052283"><ele>716.2</ele><time>2026-03-29T07:06:56.073Z</time></trkpt><trkpt lat="43.32531" lon="12.005305"><ele>717.4</ele><time>2026-03-29T07:06:57.073Z</time></trkpt><trkpt lat="43.325215" lon="12.0053717"><ele>718.5999999999999</ele><time>2026-03-29T07:06:58.073Z</time></trkpt><trkpt lat="43.3251167" lon="12.00541"><ele>719.8</ele><time>2026-03-29T07:06:59.072Z</time></trkpt><trkpt lat="43.325025" lon="12.00544"><ele>721.0</ele><time>2026-03-29T07:07:00.073Z</time></trkpt><trkpt lat="43.3249317" lon="12.0054883"><ele>721.0</ele><time>2026-03-29T07:07:01.073Z</time></trkpt><trkpt lat="43.32485" lon="12.005545"><ele>721.0</ele><time>2026-03-29T07:07:02.073Z</time></trkpt><trkpt lat="43.3247633" lon="12.0056067"><ele>721.0</ele><time>2026-03-29T07:07:03.073Z</time></trkpt><trkpt lat="43.3246933" lon="12.0056783"><ele>721.0</ele><time>2026-03-29T07:07:04.073Z</time></trkpt><trkpt lat="43.3246133" lon="12.00573"><ele>721.0</ele><time>2026-03-29T07:07:05.072Z</time></trkpt><trkpt lat="43.3245333" lon="12.005745"><ele>721.0</ele><time>2026-03-29T07:07:06.073Z</time></trkpt><trkpt lat="43.32447" lon="12.00573"><ele>724.8</ele><time>2026-03-29T07:07:07.073Z</time></trkpt><trkpt lat="43.3243933" lon="12.00567"><ele>728.5999999999999</ele><time>2026-03-29T07:07:08.073Z</time></trkpt><trkpt lat="43.3242983" lon="12.0056117"><ele>732.4</ele><time>2026-03-29T07:07:09.073Z</time></trkpt><trkpt lat="43.324195" lon="12.0055517"><ele>736.2</ele><time>2026-03-29T07:07:10.073Z</time></trkpt><trkpt lat="43.3241083" lon="12.0054917"><ele>740.0</ele><time>2026-03-29T07:07:11.073Z</time></trkpt><trkpt lat="43.3240467" lon="12.0054167"><ele>740.0</ele><time>2026-03-29T07:07:12.073Z</time></trkpt><trkpt lat="43.3239883" lon="12.0053417"><ele>740.0</ele><time>2026-03-29T07:07:13.073Z</time></trkpt><trkpt lat="43.3239133" lon="12.0052583"><ele>740.0</ele><time>2026-03-29T07:07:14.073Z</time></trkpt><trkpt lat="43.3238333" lon="12.0052"><ele>740.0</ele><time>2026-03-29T07:07:15.073Z</time></trkpt><trkpt lat="43.3237533" lon="12.0051817"><ele>740.0</ele><time>2026-03-29T07:07:16.073Z</time></trkpt><trkpt lat="43.3236817" lon="12.0051833"><ele>740.0</ele><time>2026-03-29T07:07:17.073Z</time></trkpt><trkpt lat="43.3236083" lon="12.00522"><ele>741.75</ele><time>2026-03-29T07:07:18.072Z</time></trkpt><trkpt lat="43.3235333" lon="12.0052867"><ele>743.5</ele><time>2026-03-29T07:07:19.073Z</time></trkpt><trkpt lat="43.3234433" lon="12.005365"><ele>745.25</ele><time>2026-03-29T07:07:20.073Z</time></trkpt><trkpt lat="43.3233333" lon="12.0054583"><ele>747.0</ele><time>2026-03-29T07:07:21.073Z</time></trkpt><trkpt lat="43.3232217" lon="12.0055417"><ele>747.0</ele><time>2026-03-29T07:07:22.072Z</time></trkpt><trkpt lat="43.32312" lon="12.0056217"><ele>747.0</ele><time>2026-03-29T07:07:23.073Z</time></trkpt><trkpt lat="43.32303" lon="12.0056817"><ele>747.0</ele><time>2026-03-29T07:07:24.073Z</time></trkpt><trkpt lat="43.32294" lon="12.0057183"><ele>747.0</ele><time>2026-03-29T07:07:25.073Z</time></trkpt><trkpt lat="43.3228367" lon="12.0057467"><ele>747.0</ele><time>2026-03-29T07:07:26.073Z</time></trkpt><trkpt lat="43.3227267" lon="12.0057817"><ele>747.75</ele><time>2026-03-29T07:07:27.072Z</time></trkpt><trkpt lat="43.3226167" lon="12.0058117"><ele>748.5</ele><time>2026-03-29T07:07:28.073Z</time></trkpt><trkpt lat="43.32251" lon="12.0058483"><ele>749.25</ele><time>2026-03-29T07:07:29.073Z</time></trkpt><trkpt lat="43.322405" lon="12.00592"><ele>750.0</ele><time>2026-03-29T07:07:30.072Z</time></trkpt><trkpt lat="43.3223017" lon="12.006"><ele>756.2</ele><time>2026-03-29T07:07:31.073Z</time></trkpt><trkpt lat="43.322215" lon="12.0060767"><ele>762.4</ele><time>2026-03-29T07:07:32.073Z</time></trkpt><trkpt lat="43.32212" lon="12.0061567"><ele>768.5999999999999</ele><time>2026-03-29T07:07:33.073Z</time></trkpt><trkpt lat="43.32202" lon="12.0062317"><ele>774.8</ele><time>2026-03-29T07:07:34.073Z</time></trkpt><trkpt lat="43.32193" lon="12.0062983"><ele>781.0</ele><time>2026-03-29T07:07:35.073Z</time></trkpt><trkpt lat="43.321845" lon="12.006355"><ele>781.0</ele><time>2026-03-29T07:07:36.073Z</time></trkpt><trkpt lat="43.3217767" lon="12.0063933"><ele>781.0</ele><time>2026-03-29T07:07:37.072Z</time></trkpt><trkpt lat="43.3217083" lon="12.006455"><ele>781.0</ele><time>2026-03-29T07:07:39.072Z</time></trkpt><trkpt lat="43.3216633" lon="12.0065317"><ele>781.0</ele><time>2026-03-29T07:07:43.072Z</time></trkpt><trkpt lat="43.321595" lon="12.0065633"><ele>781.0</ele><time>2026-03-29T07:07:45.072Z</time></trkpt><trkpt lat="43.3215317" lon="12.006565"><ele>781.0</ele><time>2026-03-29T07:07:46.072Z</time></trkpt><trkpt lat="43.3214533" lon="12.006575"><ele>781.0</ele><time>2026-03-29T07:07:47.072Z</time></trkpt><trkpt lat="43.3213683" lon="12.0066"><ele>785.0</ele><time>2026-03-29T07:07:48.072Z</time></trkpt><trkpt lat="43.32129" lon="12.0066367"><ele>789.0</ele><time>2026-03-29T07:07:49.072Z</time></trkpt><trkpt lat="43.3212067" lon="12.00669"><ele>793.0</ele><time>2026-03-29T07:07:50.073Z</time></trkpt><trkpt lat="43.3211183" lon="12.0067383"><ele>797.0</ele><time>2026-03-29T07:07:51.073Z</time></trkpt><trkpt lat="43.32103" lon="12.006785"><ele>801.0</ele><time>2026-03-29T07:07:52.073Z</time></trkpt><trkpt lat="43.3209417" lon="12.006825"><ele>801.0</ele><time>2026-03-29T07:07:53.073Z</time></trkpt><trkpt lat="43.3208467" lon="12.00687"><ele>801.0</ele><time>2026-03-29T07:07:54.073Z</time></trkpt><trkpt lat="43.32076" lon="12.0069083"><ele>801.0</ele><time>2026-03-29T07:07:55.073Z</time></trkpt><trkpt lat="43.3206833" lon="12.0069317"><ele>801.0</ele><time>2026-03-29T07:07:56.073Z</time></trkpt><trkpt lat="43.3206033" lon="12.00694"><ele>801.0</ele><time>2026-03-29T07:07:57.073Z</time></trkpt><trkpt lat="43.3205167" lon="12.0069383"><ele>801.0</ele><time>2026-03-29T07:07:58.072Z</time></trkpt><trkpt lat="43.320435" lon="12.0069017"><ele>802.8</ele><time>2026-03-29T07:07:59.073Z</time></trkpt><trkpt lat="43.3203433" lon="12.00688"><ele>804.5999999999999</ele><time>2026-03-29T07:08:00.073Z</time></trkpt><trkpt lat="43.3202467" lon="12.0068767"><ele>806.4</ele><time>2026-03-29T07:08:01.072Z</time></trkpt><trkpt lat="43.3201567" lon="12.0068733"><ele>808.2</ele><time>2026-03-29T07:08:02.073Z</time></trkpt><trkpt lat="43.32007" lon="12.0068783"><ele>810.0</ele><time>2026-03-29T07:08:03.072Z</time></trkpt><trkpt lat="43.31998" lon="12.00689"><ele>810.0</ele><time>2026-03-29T07:08:04.073Z</time></trkpt><trkpt lat="43.3198883" lon="12.0068733"><ele>810.0</ele><time>2026-03-29T07:08:05.073Z</time></trkpt><trkpt lat="43.3198067" lon="12.0068433"><ele>810.0</ele><time>2026-03-29T07:08:06.073Z</time></trkpt><trkpt lat="43.3197283" lon="12.00682"><ele>810.0</ele><time>2026-03-29T07:08:07.073Z</time></trkpt><trkpt lat="43.3196483" lon="12.006805"><ele>810.0</ele><time>2026-03-29T07:08:08.073Z</time></trkpt><trkpt lat="43.3195583" lon="12.006805"><ele>810.0</ele><time>2026-03-29T07:08:09.072Z</time></trkpt><trkpt lat="43.31946" lon="12.0068033"><ele>810.0</ele><time>2026-03-29T07:08:10.072Z</time></trkpt><trkpt lat="43.3193667" lon="12.00679"><ele>810.0</ele><time>2026-03-29T07:08:11.072Z</time></trkpt><trkpt lat="43.319285" lon="12.0068117"><ele>810.0</ele><time>2026-03-29T07:08:12.072Z</time></trkpt><trkpt lat="43.3192117" lon="12.0068467"><ele>810.0</ele><time>2026-03-29T07:08:13.073Z</time></trkpt><trkpt lat="43.3191317" lon="12.0068817"><ele>810.0</ele><time>2026-03-29T07:08:14.072Z</time></trkpt><trkpt lat="43.319055" lon="12.006955"><ele>810.0</ele><time>2026-03-29T07:08:15.073Z</time></trkpt><trkpt lat="43.3189767" lon="12.007"><ele>811.5</ele><time>2026-03-29T07:08:16.072Z</time></trkpt><trkpt lat="43.31889" lon="12.0070483"><ele>813.0</ele><time>2026-03-29T07:08:17.073Z</time></trkpt><trkpt lat="43.3187783" lon="12.00709"><ele>814.5</ele><time>2026-03-29T07:08:18.072Z</time></trkpt><trkpt lat="43.31865" lon="12.0071583"><ele>816.0</ele><time>2026-03-29T07:08:19.073Z</time></trkpt><trkpt lat="43.3185067" lon="12.007225"><ele>816.0</ele><time>2026-03-29T07:08:20.073Z</time></trkpt><trkpt lat="43.3183667" lon="12.00728"><ele>816.0</ele><time>2026-03-29T07:08:21.073Z</time></trkpt><trkpt lat="43.3182383" lon="12.0073383"><ele>816.0</ele><time>2026-03-29T07:08:22.073Z</time></trkpt><trkpt lat="43.318095" lon="12.0074183"><ele>816.0</ele><time>2026-03-29T07:08:23.073Z</time></trkpt><trkpt lat="43.3179683" lon="12.0075033"><ele>813.1999999999999</ele><time>2026-03-29T07:08:24.072Z</time></trkpt><trkpt lat="43.31785" lon="12.007585"><ele>810.4</ele><time>2026-03-29T07:08:25.073Z</time></trkpt><trkpt lat="43.317745" lon="12.00765"><ele>807.6</ele><time>2026-03-29T07:08:26.073Z</time></trkpt><trkpt lat="43.31765" lon="12.00769"><ele>804.8</ele><time>2026-03-29T07:08:27.073Z</time></trkpt><trkpt lat="43.3175633" lon="12.007705"><ele>802.0</ele><time>2026-03-29T07:08:28.072Z</time></trkpt><trkpt lat="43.3174767" lon="12.0077067"><ele>801.9999999999999</ele><time>2026-03-29T07:08:29.073Z</time></trkpt><trkpt lat="43.3173883" lon="12.007705"><ele>802.0</ele><time>2026-03-29T07:08:30.073Z</time></trkpt><trkpt lat="43.3173083" lon="12.007685"><ele>802.0</ele><time>2026-03-29T07:08:31.073Z</time></trkpt><trkpt lat="43.3172367" lon="12.00763"><ele>802.0</ele><time>2026-03-29T07:08:32.073Z</time></trkpt><trkpt lat="43.31718" lon="12.0075717"><ele>801.9999999999999</ele><time>2026-03-29T07:08:33.073Z</time></trkpt><trkpt lat="43.31713" lon="12.00751"><ele>802.0</ele><time>2026-03-29T07:08:34.073Z</time></trkpt><trkpt lat="43.3170183" lon="12.007445"><ele>805.2</ele><time>2026-03-29T07:08:36.073Z</time></trkpt><trkpt lat="43.3169517" lon="12.007515"><ele>808.4000000000001</ele><time>2026-03-29T07:08:37.072Z</time></trkpt><trkpt lat="43.3168967" lon="12.0075933"><ele>811.5999999999999</ele><time>2026-03-29T07:08:38.073Z</time></trkpt><trkpt lat="43.31686" lon="12.0077483"><ele>814.8</ele><time>2026-03-29T07:08:39.073Z</time></trkpt><trkpt lat="43.3168339" lon="12.0078861"><ele>818.0</ele><time>2026-03-29T07:08:40.072Z</time></trkpt><trkpt lat="43.3168063" lon="12.008018"><ele>818.0000000000001</ele><time>2026-03-29T07:08:41.072Z</time></trkpt><trkpt lat="43.3167651" lon="12.0081377"><ele>818.0</ele><time>2026-03-29T07:08:42.073Z</time></trkpt><trkpt lat="43.3167044" lon="12.0082241"><ele>818.0</ele><time>2026-03-29T07:08:43.073Z</time></trkpt><trkpt lat="43.3166267" lon="12.0082746"><ele>818.0</ele><time>2026-03-29T07:08:44.073Z</time></trkpt><trkpt lat="43.3165472" lon="12.0082885"><ele>818.0000000000001</ele><time>2026-03-29T07:08:45.073Z</time></trkpt><trkpt lat="43.3164758" lon="12.0082895"><ele>818.0</ele><time>2026-03-29T07:08:46.072Z</time></trkpt><trkpt lat="43.3164091" lon="12.0082991"><ele>817.2</ele><time>2026-03-29T07:08:47.073Z</time></trkpt><trkpt lat="43.3163692" lon="12.00839"><ele>816.4</ele><time>2026-03-29T07:08:49.073Z</time></trkpt><trkpt lat="43.316429" lon="12.0085662"><ele>815.6</ele><time>2026-03-29T07:08:51.072Z</time></trkpt><trkpt lat="43.3164614" lon="12.0086878"><ele>814.8000000000001</ele><time>2026-03-29T07:08:52.073Z</time></trkpt><trkpt lat="43.3164814" lon="12.0088269"><ele>814.0</ele><time>2026-03-29T07:08:53.073Z</time></trkpt><trkpt lat="43.3165231" lon="12.0089967"><ele>815.25</ele><time>2026-03-29T07:08:54.072Z</time></trkpt><trkpt lat="43.3165641" lon="12.0091724"><ele>816.5</ele><time>2026-03-29T07:08:55.072Z</time></trkpt><trkpt lat="43.3165972" lon="12.0093252"><ele>817.75</ele><time>2026-03-29T07:08:56.073Z</time></trkpt><trkpt lat="43.3166326" lon="12.0094637"><ele>819.0</ele><time>2026-03-29T07:08:57.073Z</time></trkpt><trkpt lat="43.3166598" lon="12.0095931"><ele>819.0</ele><time>2026-03-29T07:08:58.073Z</time></trkpt><trkpt lat="43.3166812" lon="12.0097114"><ele>819.0</ele><time>2026-03-29T07:08:59.072Z</time></trkpt><trkpt lat="43.316697" lon="12.0098174"><ele>819.0</ele><time>2026-03-29T07:09:00.072Z</time></trkpt><trkpt lat="43.3166896" lon="12.0099146"><ele>819.0</ele><time>2026-03-29T07:09:01.073Z</time></trkpt><trkpt lat="43.3166555" lon="12.0100024"><ele>819.0</ele><time>2026-03-29T07:09:02.073Z</time></trkpt><trkpt lat="43.316606" lon="12.01008"><ele>819.0</ele><time>2026-03-29T07:09:03.073Z</time></trkpt><trkpt lat="43.3165395" lon="12.01015"><ele>819.8000000000001</ele><time>2026-03-29T07:09:04.073Z</time></trkpt><trkpt lat="43.3164715" lon="12.010205"><ele>820.6</ele><time>2026-03-29T07:09:05.072Z</time></trkpt><trkpt lat="43.3163995" lon="12.0103271"><ele>821.4</ele><time>2026-03-29T07:09:07.073Z</time></trkpt><trkpt lat="43.3163519" lon="12.01046"><ele>822.2</ele><time>2026-03-29T07:09:09.073Z</time></trkpt><trkpt lat="43.3163608" lon="12.0106318"><ele>823.0</ele><time>2026-03-29T07:09:11.073Z</time></trkpt><trkpt lat="43.3164067" lon="12.0107263"><ele>824.8</ele><time>2026-03-29T07:09:12.072Z</time></trkpt><trkpt lat="43.3164652" lon="12.0108267"><ele>826.5999999999999</ele><time>2026-03-29T07:09:13.072Z</time></trkpt><trkpt lat="43.3165225" lon="12.0109349"><ele>828.4000000000001</ele><time>2026-03-29T07:09:14.073Z</time></trkpt><trkpt lat="43.3165831" lon="12.011059"><ele>830.2</ele><time>2026-03-29T07:09:15.073Z</time></trkpt><trkpt lat="43.3166416" lon="12.0111855"><ele>832.0</ele><time>2026-03-29T07:09:16.072Z</time></trkpt><trkpt lat="43.3166946" lon="12.0112982"><ele>831.9999999999999</ele><time>2026-03-29T07:09:17.073Z</time></trkpt><trkpt lat="43.3167521" lon="12.0113954"><ele>832.0</ele><time>2026-03-29T07:09:18.073Z</time></trkpt><trkpt lat="43.3168134" lon="12.0114807"><ele>832.0</ele><time>2026-03-29T07:09:19.073Z</time></trkpt><trkpt lat="43.3168831" lon="12.0115516"><ele>832.0</ele><time>2026-03-29T07:09:20.072Z</time></trkpt><trkpt lat="43.3169491" lon="12.0116277"><ele>831.9999999999999</ele><time>2026-03-29T07:09:21.072Z</time></trkpt><trkpt lat="43.3169976" lon="12.011722"><ele>832.0</ele><time>2026-03-29T07:09:22.072Z</time></trkpt><trkpt lat="43.3170378" lon="12.0118289"><ele>833.8</ele><time>2026-03-29T07:09:23.073Z</time></trkpt><trkpt lat="43.3170411" lon="12.0119608"><ele>835.6</ele><time>2026-03-29T07:09:24.074Z</time></trkpt><trkpt lat="43.317025" lon="12.0120931"><ele>837.4</ele><time>2026-03-29T07:09:25.074Z</time></trkpt><trkpt lat="43.3169982" lon="12.0122159"><ele>839.1999999999999</ele><time>2026-03-29T07:09:26.074Z</time></trkpt><trkpt lat="43.3169598" lon="12.0123265"><ele>841.0</ele><time>2026-03-29T07:09:27.073Z</time></trkpt><trkpt lat="43.3169118" lon="12.0124211"><ele>838.5999999999999</ele><time>2026-03-29T07:09:28.073Z</time></trkpt><trkpt lat="43.3168489" lon="12.0125007"><ele>836.2</ele><time>2026-03-29T07:09:29.074Z</time></trkpt><trkpt lat="43.3167724" lon="12.0125625"><ele>833.8</ele><time>2026-03-29T07:09:30.074Z</time></trkpt><trkpt lat="43.3166846" lon="12.012613"><ele>831.4000000000001</ele><time>2026-03-29T07:09:31.074Z</time></trkpt><trkpt lat="43.3165816" lon="12.0126526"><ele>829.0</ele><time>2026-03-29T07:09:32.074Z</time></trkpt><trkpt lat="43.3164825" lon="12.0126948"><ele>833.1666666666666</ele><time>2026-03-29T07:09:33.073Z</time></trkpt><trkpt lat="43.316397" lon="12.0127492"><ele>837.3333333333333</ele><time>2026-03-29T07:09:34.074Z</time></trkpt><trkpt lat="43.316322" lon="12.0128167"><ele>841.5</ele><time>2026-03-29T07:09:35.074Z</time></trkpt><trkpt lat="43.3162552" lon="12.0129074"><ele>845.6666666666667</ele><time>2026-03-29T07:09:36.074Z</time></trkpt><trkpt lat="43.3162104" lon="12.0130037"><ele>849.8333333333334</ele><time>2026-03-29T07:09:37.073Z</time></trkpt><trkpt lat="43.3161725" lon="12.0130913"><ele>854.0</ele><time>2026-03-29T07:09:38.073Z</time></trkpt><trkpt lat="43.3160912" lon="12.0131751"><ele>854.0</ele><time>2026-03-29T07:09:40.074Z</time></trkpt><trkpt lat="43.3159725" lon="12.0131911"><ele>854.0000000000001</ele><time>2026-03-29T07:09:42.074Z</time></trkpt><trkpt lat="43.3158921" lon="12.0131873"><ele>854.0000000000001</ele><time>2026-03-29T07:09:43.074Z</time></trkpt><trkpt lat="43.3157999" lon="12.0131929"><ele>854.0</ele><time>2026-03-29T07:09:44.073Z</time></trkpt><trkpt lat="43.3157037" lon="12.013211"><ele>854.0</ele><time>2026-03-29T07:09:45.074Z</time></trkpt><trkpt lat="43.3156102" lon="12.0132498"><ele>855.8333333333334</ele><time>2026-03-29T07:09:46.073Z</time></trkpt><trkpt lat="43.3155317" lon="12.01332"><ele>857.6666666666667</ele><time>2026-03-29T07:09:47.074Z</time></trkpt><trkpt lat="43.3154617" lon="12.0133733"><ele>859.5</ele><time>2026-03-29T07:09:48.073Z</time></trkpt><trkpt lat="43.3153933" lon="12.01341"><ele>861.3333333333333</ele><time>2026-03-29T07:09:49.074Z</time></trkpt><trkpt lat="43.3153183" lon="12.0134333"><ele>863.1666666666666</ele><time>2026-03-29T07:09:50.074Z</time></trkpt><trkpt lat="43.3152333" lon="12.0134417"><ele>865.0</ele><time>2026-03-29T07:09:51.074Z</time></trkpt><trkpt lat="43.3151483" lon="12.0134417"><ele>864.9999999999999</ele><time>2026-03-29T07:09:52.074Z</time></trkpt><trkpt lat="43.3150633" lon="12.0134217"><ele>865.0</ele><time>2026-03-29T07:09:53.074Z</time></trkpt><trkpt lat="43.3149717" lon="12.013395"><ele>865.0</ele><time>2026-03-29T07:09:54.074Z</time></trkpt><trkpt lat="43.31489" lon="12.013355"><ele>865.0</ele><time>2026-03-29T07:09:55.074Z</time></trkpt><trkpt lat="43.31482" lon="12.013305"><ele>864.9999999999999</ele><time>2026-03-29T07:09:56.074Z</time></trkpt><trkpt lat="43.3147517" lon="12.01325"><ele>865.0</ele><time>2026-03-29T07:09:57.073Z</time></trkpt><trkpt lat="43.314695" lon="12.0131833"><ele>867.4</ele><time>2026-03-29T07:09:58.074Z</time></trkpt><trkpt lat="43.314635" lon="12.01306"><ele>869.8</ele><time>2026-03-29T07:10:00.074Z</time></trkpt><trkpt lat="43.3145733" lon="12.0130383"><ele>872.2</ele><time>2026-03-29T07:10:02.074Z</time></trkpt><trkpt lat="43.31447" lon="12.0131067"><ele>874.6</ele><time>2026-03-29T07:10:05.074Z</time></trkpt><trkpt lat="43.3144067" lon="12.0131683"><ele>877.0</ele><time>2026-03-29T07:10:06.074Z</time></trkpt><trkpt lat="43.314345" lon="12.01326"><ele>878.4999999999999</ele><time>2026-03-29T07:10:07.074Z</time></trkpt><trkpt lat="43.31427" lon="12.0133383"><ele>880.0</ele><time>2026-03-29T07:10:08.074Z</time></trkpt><trkpt lat="43.314205" lon="12.013405"><ele>881.5</ele><time>2026-03-29T07:10:09.073Z</time></trkpt><trkpt lat="43.31412" lon="12.0134917"><ele>883.0</ele><time>2026-03-29T07:10:10.074Z</time></trkpt><trkpt lat="43.3140467" lon="12.0135467"><ele>884.4999999999999</ele><time>2026-03-29T07:10:11.074Z</time></trkpt><trkpt lat="43.313975" lon="12.0135883"><ele>886.0</ele><time>2026-03-29T07:10:12.074Z</time></trkpt><trkpt lat="43.3139017" lon="12.0136517"><ele>885.9999999999999</ele><time>2026-03-29T07:10:13.073Z</time></trkpt><trkpt lat="43.3138333" lon="12.0136983"><ele>886.0</ele><time>2026-03-29T07:10:14.074Z</time></trkpt><trkpt lat="43.3137883" lon="12.0137683"><ele>886.0</ele><time>2026-03-29T07:10:15.074Z</time></trkpt><trkpt lat="43.3137567" lon="12.0138517"><ele>886.0</ele><time>2026-03-29T07:10:16.074Z</time></trkpt><trkpt lat="43.3138067" lon="12.0140367"><ele>885.9999999999999</ele><time>2026-03-29T07:10:18.074Z</time></trkpt><trkpt lat="43.313845" lon="12.01412"><ele>886.0</ele><time>2026-03-29T07:10:19.074Z</time></trkpt><trkpt lat="43.3138883" lon="12.01419"><ele>882.1666666666666</ele><time>2026-03-29T07:10:20.074Z</time></trkpt><trkpt lat="43.3139317" lon="12.0143017"><ele>878.3333333333333</ele><time>2026-03-29T07:10:22.074Z</time></trkpt><trkpt lat="43.31391" lon="12.0144583"><ele>874.5</ele><time>2026-03-29T07:10:24.074Z</time></trkpt><trkpt lat="43.3138883" lon="12.0145517"><ele>870.6666666666667</ele><time>2026-03-29T07:10:25.073Z</time></trkpt><trkpt lat="43.31387" lon="12.0146433"><ele>866.8333333333334</ele><time>2026-03-29T07:10:26.074Z</time></trkpt><trkpt lat="43.31386" lon="12.014765"><ele>863.0</ele><time>2026-03-29T07:10:27.073Z</time></trkpt><trkpt lat="43.3138467" lon="12.01486"><ele>863.0000000000001</ele><time>2026-03-29T07:10:28.074Z</time></trkpt><trkpt lat="43.3138333" lon="12.0149617"><ele>863.0</ele><time>2026-03-29T07:10:29.073Z</time></trkpt><trkpt lat="43.3138233" lon="12.0150533"><ele>863.0</ele><time>2026-03-29T07:10:30.074Z</time></trkpt><trkpt lat="43.3138383" lon="12.0151633"><ele>863.0</ele><time>2026-03-29T07:10:31.073Z</time></trkpt><trkpt lat="43.3138133" lon="12.0153417"><ele>863.0000000000001</ele><time>2026-03-29T07:10:33.074Z</time></trkpt><trkpt lat="43.313805" lon="12.01543"><ele>863.0</ele><time>2026-03-29T07:10:34.074Z</time></trkpt><trkpt lat="43.3137967" lon="12.015525"><ele>861.5000000000001</ele><time>2026-03-29T07:10:35.073Z</time></trkpt><trkpt lat="43.31381" lon="12.0156217"><ele>860.0</ele><time>2026-03-29T07:10:36.073Z</time></trkpt><trkpt lat="43.3137717" lon="12.0157683"><ele>858.5</ele><time>2026-03-29T07:10:38.074Z</time></trkpt><trkpt lat="43.3137567" lon="12.0158733"><ele>857.0</ele><time>2026-03-29T07:10:39.073Z</time></trkpt><trkpt lat="43.3137533" lon="12.0159933"><ele>855.5000000000001</ele><time>2026-03-29T07:10:41.073Z</time></trkpt><trkpt lat="43.3137183" lon="12.0160767"><ele>854.0</ele><time>2026-03-29T07:10:43.073Z</time></trkpt><trkpt lat="43.313625" lon="12.0161067"><ele>852.2</ele><time>2026-03-29T07:10:45.074Z</time></trkpt><trkpt lat="43.3134883" lon="12.0160817"><ele>850.4000000000001</ele><time>2026-03-29T07:10:47.073Z</time></trkpt><trkpt lat="43.3134067" lon="12.0160683"><ele>848.6</ele><time>2026-03-29T07:10:48.074Z</time></trkpt><trkpt lat="43.313315" lon="12.0160533"><ele>846.8</ele><time>2026-03-29T07:10:49.074Z</time></trkpt><trkpt lat="43.313235" lon="12.0160317"><ele>845.0</ele><time>2026-03-29T07:10:50.073Z</time></trkpt><trkpt lat="43.3131567" lon="12.0160233"><ele>845.0000000000001</ele><time>2026-03-29T07:10:51.074Z</time></trkpt><trkpt lat="43.31309" lon="12.016"><ele>845.0</ele><time>2026-03-29T07:10:52.073Z</time></trkpt><trkpt lat="43.3130233" lon="12.015995"><ele>845.0</ele><time>2026-03-29T07:10:53.074Z</time></trkpt><trkpt lat="43.3129583" lon="12.0160233"><ele>845.0</ele><time>2026-03-29T07:10:54.074Z</time></trkpt><trkpt lat="43.3129" lon="12.016065"><ele>845.0000000000001</ele><time>2026-03-29T07:10:55.074Z</time></trkpt><trkpt lat="43.31284" lon="12.01611"><ele>845.0</ele><time>2026-03-29T07:10:56.074Z</time></trkpt><trkpt lat="43.312725" lon="12.0161467"><ele>846.1666666666667</ele><time>2026-03-29T07:10:58.074Z</time></trkpt><trkpt lat="43.312655" lon="12.0161383"><ele>847.3333333333334</ele><time>2026-03-29T07:10:59.074Z</time></trkpt><trkpt lat="43.312575" lon="12.0161183"><ele>848.5</ele><time>2026-03-29T07:11:00.074Z</time></trkpt><trkpt lat="43.3124933" lon="12.0160917"><ele>849.6666666666667</ele><time>2026-03-29T07:11:01.073Z</time></trkpt><trkpt lat="43.312415" lon="12.0160583"><ele>850.8333333333334</ele><time>2026-03-29T07:11:02.074Z</time></trkpt><trkpt lat="43.3123267" lon="12.0160267"><ele>852.0</ele><time>2026-03-29T07:11:03.074Z</time></trkpt><trkpt lat="43.312235" lon="12.0159933"><ele>852.0</ele><time>2026-03-29T07:11:04.074Z</time></trkpt><trkpt lat="43.3121483" lon="12.0159733"><ele>852.0</ele><time>2026-03-29T07:11:05.074Z</time></trkpt><trkpt lat="43.312065" lon="12.0159367"><ele>852.0</ele><time>2026-03-29T07:11:06.074Z</time></trkpt><trkpt lat="43.3119833" lon="12.0158983"><ele>852.0</ele><time>2026-03-29T07:11:07.074Z</time></trkpt><trkpt lat="43.3119033" lon="12.0158533"><ele>852.0</ele><time>2026-03-29T07:11:08.074Z</time></trkpt><trkpt lat="43.31181" lon="12.0158267"><ele>852.0</ele><time>2026-03-29T07:11:09.074Z</time></trkpt><trkpt lat="43.3117233" lon="12.0157883"><ele>858.1666666666666</ele><time>2026-03-29T07:11:10.073Z</time></trkpt><trkpt lat="43.3116467" lon="12.0157683"><ele>864.3333333333333</ele><time>2026-03-29T07:11:11.074Z</time></trkpt><trkpt lat="43.3115833" lon="12.0157533"><ele>870.5</ele><time>2026-03-29T07:11:12.074Z</time></trkpt><trkpt lat="43.3114683" lon="12.015745"><ele>876.6666666666666</ele><time>2026-03-29T07:11:14.073Z</time></trkpt><trkpt lat="43.3113817" lon="12.0156767"><ele>882.8333333333333</ele><time>2026-03-29T07:11:16.073Z</time></trkpt><trkpt lat="43.3113367" lon="12.015605"><ele>889.0</ele><time>2026-03-29T07:11:17.074Z</time></trkpt><trkpt lat="43.3112733" lon="12.015535"><ele>889.0</ele><time>2026-03-29T07:11:18.074Z</time></trkpt><trkpt lat="43.3111967" lon="12.0154933"><ele>889.0000000000001</ele><time>2026-03-29T07:11:19.074Z</time></trkpt><trkpt lat="43.3111083" lon="12.0154533"><ele>889.0000000000001</ele><time>2026-03-29T07:11:20.073Z</time></trkpt><trkpt lat="43.3110067" lon="12.0154417"><ele>889.0</ele><time>2026-03-29T07:11:21.073Z</time></trkpt><trkpt lat="43.310915" lon="12.01546"><ele>889.0</ele><time>2026-03-29T07:11:22.074Z</time></trkpt><trkpt lat="43.310835" lon="12.0154933"><ele>889.0</ele><time>2026-03-29T07:11:23.074Z</time></trkpt><trkpt lat="43.3107533" lon="12.0155867"><ele>889.0</ele><time>2026-03-29T07:11:24.073Z</time></trkpt><trkpt lat="43.3106617" lon="12.015715"><ele>889.0</ele><time>2026-03-29T07:11:25.074Z</time></trkpt><trkpt lat="43.3105733" lon="12.015855"><ele>889.0</ele><time>2026-03-29T07:11:26.074Z</time></trkpt><trkpt lat="43.31049" lon="12.0159783"><ele>886.5</ele><time>2026-03-29T07:11:27.074Z</time></trkpt><trkpt lat="43.3103967" lon="12.016075"><ele>884.0</ele><time>2026-03-29T07:11:28.074Z</time></trkpt><trkpt lat="43.3102933" lon="12.0161633"><ele>881.5</ele><time>2026-03-29T07:11:29.074Z</time></trkpt><trkpt lat="43.31018" lon="12.0162433"><ele>879.0</ele><time>2026-03-29T07:11:30.074Z</time></trkpt><trkpt lat="43.310055" lon="12.0163167"><ele>879.0</ele><time>2026-03-29T07:11:31.074Z</time></trkpt><trkpt lat="43.3099133" lon="12.01642"><ele>879.0</ele><time>2026-03-29T07:11:32.074Z</time></trkpt><trkpt lat="43.3097783" lon="12.0165167"><ele>879.0</ele><time>2026-03-29T07:11:33.074Z</time></trkpt><trkpt lat="43.3096583" lon="12.01661"><ele>879.4000000000001</ele><time>2026-03-29T07:11:34.073Z</time></trkpt><trkpt lat="43.3095533" lon="12.0167067"><ele>879.8000000000001</ele><time>2026-03-29T07:11:35.074Z</time></trkpt><trkpt lat="43.3094583" lon="12.016785"><ele>880.1999999999999</ele><time>2026-03-29T07:11:36.073Z</time></trkpt><trkpt lat="43.30938" lon="12.0168483"><ele>880.5999999999999</ele><time>2026-03-29T07:11:37.074Z</time></trkpt><trkpt lat="43.309295" lon="12.0169"><ele>881.0</ele><time>2026-03-29T07:11:38.074Z</time></trkpt><trkpt lat="43.3092167" lon="12.0169"><ele>881.0</ele><time>2026-03-29T07:11:39.074Z</time></trkpt><trkpt lat="43.3091233" lon="12.016875"><ele>881.0</ele><time>2026-03-29T07:11:40.074Z</time></trkpt><trkpt lat="43.3089967" lon="12.0168483"><ele>881.0</ele><time>2026-03-29T07:11:41.074Z</time></trkpt><trkpt lat="43.3088683" lon="12.0168317"><ele>881.0</ele><time>2026-03-29T07:11:42.074Z</time></trkpt><trkpt lat="43.3087517" lon="12.0168067"><ele>883.0</ele><time>2026-03-29T07:11:43.074Z</time></trkpt><trkpt lat="43.3086417" lon="12.016755"><ele>885.0</ele><time>2026-03-29T07:11:44.074Z</time></trkpt><trkpt lat="43.3085217" lon="12.01669"><ele>887.0</ele><time>2026-03-29T07:11:45.074Z</time></trkpt><trkpt lat="43.3083883" lon="12.016625"><ele>889.0</ele><time>2026-03-29T07:11:46.074Z</time></trkpt><trkpt lat="43.3082633" lon="12.0165633"><ele>895.0</ele><time>2026-03-29T07:11:47.074Z</time></trkpt><trkpt lat="43.308145" lon="12.0165"><ele>901.0</ele><time>2026-03-29T07:11:48.074Z</time></trkpt><trkpt lat="43.3080533" lon="12.0164183"><ele>907.0</ele><time>2026-03-29T07:11:49.074Z</time></trkpt><trkpt lat="43.3079633" lon="12.0163333"><ele>913.0</ele><time>2026-03-29T07:11:50.074Z</time></trkpt><trkpt lat="43.307865" lon="12.0162283"><ele>913.0</ele><time>2026-03-29T07:11:51.074Z</time></trkpt><trkpt lat="43.3077567" lon="12.01613"><ele>913.0</ele><time>2026-03-29T07:11:52.074Z</time></trkpt><trkpt lat="43.3076483" lon="12.016015"><ele>913.0</ele><time>2026-03-29T07:11:53.074Z</time></trkpt><trkpt lat="43.3075317" lon="12.0159"><ele>913.0</ele><time>2026-03-29T07:11:54.074Z</time></trkpt><trkpt lat="43.3074317" lon="12.01579"><ele>914.4</ele><time>2026-03-29T07:11:55.074Z</time></trkpt><trkpt lat="43.3073283" lon="12.0156917"><ele>915.8</ele><time>2026-03-29T07:11:56.073Z</time></trkpt><trkpt lat="43.3072248" lon="12.0156038"><ele>917.2</ele><time>2026-03-29T07:11:57.074Z</time></trkpt><trkpt lat="43.3071303" lon="12.0155405"><ele>918.6</ele><time>2026-03-29T07:11:58.074Z</time></trkpt><trkpt lat="43.3070521" lon="12.0154942"><ele>920.0</ele><time>2026-03-29T07:11:59.074Z</time></trkpt><trkpt lat="43.3069883" lon="12.0154392"><ele>920.0000000000001</ele><time>2026-03-29T07:12:00.073Z</time></trkpt><trkpt lat="43.3069305" lon="12.0153697"><ele>920.0</ele><time>2026-03-29T07:12:01.074Z</time></trkpt><trkpt lat="43.3068795" lon="12.015305"><ele>920.0</ele><time>2026-03-29T07:12:02.073Z</time></trkpt><trkpt lat="43.3067833" lon="12.0152299"><ele>920.0</ele><time>2026-03-29T07:12:04.074Z</time></trkpt><trkpt lat="43.3067019" lon="12.0151723"><ele>920.0000000000001</ele><time>2026-03-29T07:12:06.073Z</time></trkpt><trkpt lat="43.3066218" lon="12.0151196"><ele>920.0</ele><time>2026-03-29T07:12:08.074Z</time></trkpt><trkpt lat="43.3065185" lon="12.0150441"><ele>917.8333333333334</ele><time>2026-03-29T07:12:10.074Z</time></trkpt><trkpt lat="43.3064634" lon="12.0149875"><ele>915.6666666666667</ele><time>2026-03-29T07:12:11.073Z</time></trkpt><trkpt lat="43.3064063" lon="12.014931"><ele>913.5</ele><time>2026-03-29T07:12:12.074Z</time></trkpt><trkpt lat="43.3063491" lon="12.0148778"><ele>911.3333333333333</ele><time>2026-03-29T07:12:13.073Z</time></trkpt><trkpt lat="43.3062921" lon="12.0148314"><ele>909.1666666666666</ele><time>2026-03-29T07:12:14.074Z</time></trkpt><trkpt lat="43.3061872" lon="12.0147755"><ele>907.0</ele><time>2026-03-29T07:12:16.073Z</time></trkpt><trkpt lat="43.3060584" lon="12.0148028"><ele>907.1666666666666</ele><time>2026-03-29T07:12:18.074Z</time></trkpt><trkpt lat="43.3059856" lon="12.0148381"><ele>907.3333333333333</ele><time>2026-03-29T07:12:19.074Z</time></trkpt><trkpt lat="43.3059079" lon="12.0148825"><ele>907.5</ele><time>2026-03-29T07:12:20.074Z</time></trkpt><trkpt lat="43.3058265" lon="12.0149348"><ele>907.6666666666667</ele><time>2026-03-29T07:12:21.074Z</time></trkpt><trkpt lat="43.3057466" lon="12.0149903"><ele>907.8333333333334</ele><time>2026-03-29T07:12:22.073Z</time></trkpt><trkpt lat="43.305665" lon="12.0150452"><ele>908.0</ele><time>2026-03-29T07:12:23.074Z</time></trkpt><trkpt lat="43.305583" lon="12.0150997"><ele>906.0</ele><time>2026-03-29T07:12:24.074Z</time></trkpt><trkpt lat="43.3054982" lon="12.015153"><ele>904.0</ele><time>2026-03-29T07:12:25.074Z</time></trkpt><trkpt lat="43.3054111" lon="12.0152075"><ele>902.0</ele><time>2026-03-29T07:12:26.074Z</time></trkpt><trkpt lat="43.3053176" lon="12.0152573"><ele>900.0</ele><time>2026-03-29T07:12:27.074Z</time></trkpt><trkpt lat="43.3052194" lon="12.0153006"><ele>898.0</ele><time>2026-03-29T07:12:28.074Z</time></trkpt><trkpt lat="43.3051226" lon="12.015332"><ele>898.0</ele><time>2026-03-29T07:12:29.074Z</time></trkpt><trkpt lat="43.3050251" lon="12.0153576"><ele>898.0</ele><time>2026-03-29T07:12:30.074Z</time></trkpt><trkpt lat="43.3049261" lon="12.0153842"><ele>898.0</ele><time>2026-03-29T07:12:31.074Z</time></trkpt><trkpt lat="43.3048261" lon="12.0154191"><ele>898.0</ele><time>2026-03-29T07:12:32.074Z</time></trkpt><trkpt lat="43.3047256" lon="12.0154634"><ele>898.0</ele><time>2026-03-29T07:12:33.074Z</time></trkpt><trkpt lat="43.3046256" lon="12.0155133"><ele>895.4</ele><time>2026-03-29T07:12:34.074Z</time></trkpt><trkpt lat="43.3045237" lon="12.0155664"><ele>892.8</ele><time>2026-03-29T07:12:35.073Z</time></trkpt><trkpt lat="43.304421" lon="12.0156153"><ele>890.2</ele><time>2026-03-29T07:12:36.074Z</time></trkpt><trkpt lat="43.3043149" lon="12.0156552"><ele>887.6</ele><time>2026-03-29T07:12:37.074Z</time></trkpt><trkpt lat="43.3042024" lon="12.01568"><ele>885.0</ele><time>2026-03-29T07:12:38.074Z</time></trkpt><trkpt lat="43.3040869" lon="12.01569"><ele>885.0</ele><time>2026-03-29T07:12:39.074Z</time></trkpt><trkpt lat="43.3039667" lon="12.015675"><ele>885.0</ele><time>2026-03-29T07:12:40.074Z</time></trkpt><trkpt lat="43.3038533" lon="12.0156717"><ele>885.0</ele><time>2026-03-29T07:12:41.074Z</time></trkpt><trkpt lat="43.3037417" lon="12.0156617"><ele>885.0</ele><time>2026-03-29T07:12:42.073Z</time></trkpt><trkpt lat="43.3036267" lon="12.015645"><ele>886.5</ele><time>2026-03-29T07:12:43.074Z</time></trkpt><trkpt lat="43.303515" lon="12.0156033"><ele>888.0</ele><time>2026-03-29T07:12:44.074Z</time></trkpt><trkpt lat="43.3034017" lon="12.0155283"><ele>889.5</ele><time>2026-03-29T07:12:45.074Z</time></trkpt><trkpt lat="43.3032833" lon="12.01543"><ele>891.0</ele><time>2026-03-29T07:12:46.074Z</time></trkpt><trkpt lat="43.30317" lon="12.0153417"><ele>892.75</ele><time>2026-03-29T07:12:47.074Z</time></trkpt><trkpt lat="43.3030633" lon="12.0152567"><ele>894.5</ele><time>2026-03-29T07:12:48.073Z</time></trkpt><trkpt lat="43.3029567" lon="12.0152"><ele>896.25</ele><time>2026-03-29T07:12:49.074Z</time></trkpt><trkpt lat="43.3028467" lon="12.01515"><ele>898.0</ele><time>2026-03-29T07:12:50.074Z</time></trkpt><trkpt lat="43.3027383" lon="12.0151083"><ele>898.0</ele><time>2026-03-29T07:12:51.074Z</time></trkpt><trkpt lat="43.3026267" lon="12.0150767"><ele>898.0</ele><time>2026-03-29T07:12:52.074Z</time></trkpt><trkpt lat="43.30251" lon="12.0150417"><ele>898.0</ele><time>2026-03-29T07:12:53.074Z</time></trkpt><trkpt lat="43.3024033" lon="12.0149933"><ele>898.0</ele><time>2026-03-29T07:12:54.073Z</time></trkpt><trkpt lat="43.302305" lon="12.014955"><ele>898.0</ele><time>2026-03-29T07:12:55.074Z</time></trkpt><trkpt lat="43.3022017" lon="12.0149333"><ele>897.0</ele><time>2026-03-29T07:12:56.073Z</time></trkpt><trkpt lat="43.302115" lon="12.01491"><ele>896.0</ele><time>2026-03-29T07:12:57.074Z</time></trkpt><trkpt lat="43.3020267" lon="12.014905"><ele>895.0</ele><time>2026-03-29T07:12:58.074Z</time></trkpt><trkpt lat="43.3019367" lon="12.0149417"><ele>894.0</ele><time>2026-03-29T07:12:59.073Z</time></trkpt><trkpt lat="43.30185" lon="12.015005"><ele>893.0</ele><time>2026-03-29T07:13:00.074Z</time></trkpt><trkpt lat="43.3017617" lon="12.0150933"><ele>893.0</ele><time>2026-03-29T07:13:01.074Z</time></trkpt><trkpt lat="43.30167" lon="12.0151867"><ele>893.0</ele><time>2026-03-29T07:13:02.073Z</time></trkpt><trkpt lat="43.301585" lon="12.01529"><ele>893.0</ele><time>2026-03-29T07:13:03.073Z</time></trkpt><trkpt lat="43.30152" lon="12.0153983"><ele>893.0</ele><time>2026-03-29T07:13:04.074Z</time></trkpt><trkpt lat="43.3014733" lon="12.0155217"><ele>893.0</ele><time>2026-03-29T07:13:05.074Z</time></trkpt><trkpt lat="43.3014333" lon="12.0156567"><ele>890.2</ele><time>2026-03-29T07:13:06.074Z</time></trkpt><trkpt lat="43.301395" lon="12.0157967"><ele>887.4</ele><time>2026-03-29T07:13:07.074Z</time></trkpt><trkpt lat="43.301355" lon="12.01593"><ele>884.6000000000001</ele><time>2026-03-29T07:13:08.074Z</time></trkpt><trkpt lat="43.301315" lon="12.0160667"><ele>881.8000000000001</ele><time>2026-03-29T07:13:09.074Z</time></trkpt><trkpt lat="43.301275" lon="12.0162167"><ele>879.0</ele><time>2026-03-29T07:13:10.074Z</time></trkpt><trkpt lat="43.301235" lon="12.0163617"><ele>879.0</ele><time>2026-03-29T07:13:11.074Z</time></trkpt><trkpt lat="43.3011967" lon="12.0165133"><ele>879.0</ele><time>2026-03-29T07:13:12.074Z</time></trkpt><trkpt lat="43.3011683" lon="12.0166617"><ele>879.0</ele><time>2026-03-29T07:13:13.073Z</time></trkpt><trkpt lat="43.3011317" lon="12.0168117"><ele>879.0</ele><time>2026-03-29T07:13:14.073Z</time></trkpt><trkpt lat="43.3010983" lon="12.0169667"><ele>879.8000000000001</ele><time>2026-03-29T07:13:15.073Z</time></trkpt><trkpt lat="43.3010733" lon="12.0171167"><ele>880.6000000000001</ele><time>2026-03-29T07:13:16.073Z</time></trkpt><trkpt lat="43.3010383" lon="12.01725"><ele>881.4</ele><time>2026-03-29T07:13:17.074Z</time></trkpt><trkpt lat="43.3009933" lon="12.0173767"><ele>882.2</ele><time>2026-03-29T07:13:18.074Z</time></trkpt><trkpt lat="43.300945" lon="12.0174917"><ele>883.0</ele><time>2026-03-29T07:13:19.073Z</time></trkpt><trkpt lat="43.3008733" lon="12.017595"><ele>882.5999999999999</ele><time>2026-03-29T07:13:20.074Z</time></trkpt><trkpt lat="43.3008033" lon="12.0176917"><ele>882.1999999999999</ele><time>2026-03-29T07:13:21.073Z</time></trkpt><trkpt lat="43.30071" lon="12.017765"><ele>881.8</ele><time>2026-03-29T07:13:22.074Z</time></trkpt><trkpt lat="43.3006083" lon="12.0178333"><ele>881.4</ele><time>2026-03-29T07:13:23.074Z</time></trkpt><trkpt lat="43.3005033" lon="12.0178967"><ele>881.0</ele><time>2026-03-29T07:13:24.074Z</time></trkpt><trkpt lat="43.3003867" lon="12.01795"><ele>881.0</ele><time>2026-03-29T07:13:25.073Z</time></trkpt><trkpt lat="43.300275" lon="12.0180067"><ele>881.0</ele><time>2026-03-29T07:13:26.074Z</time></trkpt><trkpt lat="43.3001633" lon="12.01806"><ele>881.0</ele><time>2026-03-29T07:13:27.073Z</time></trkpt><trkpt lat="43.3000533" lon="12.0181083"><ele>881.0</ele><time>2026-03-29T07:13:28.074Z</time></trkpt><trkpt lat="43.2999283" lon="12.018125"><ele>881.0</ele><time>2026-03-29T07:13:29.074Z</time></trkpt><trkpt lat="43.29981" lon="12.018135"><ele>881.0</ele><time>2026-03-29T07:13:30.074Z</time></trkpt><trkpt lat="43.2996933" lon="12.0181233"><ele>881.0</ele><time>2026-03-29T07:13:31.073Z</time></trkpt><trkpt lat="43.2995767" lon="12.0180967"><ele>881.0</ele><time>2026-03-29T07:13:32.074Z</time></trkpt><trkpt lat="43.299465" lon="12.0180817"><ele>879.0</ele><time>2026-03-29T07:13:33.074Z</time></trkpt><trkpt lat="43.2993467" lon="12.0180717"><ele>877.0</ele><time>2026-03-29T07:13:34.073Z</time></trkpt><trkpt lat="43.29923" lon="12.018075"><ele>875.0</ele><time>2026-03-29T07:13:35.074Z</time></trkpt><trkpt lat="43.2991133" lon="12.0180817"><ele>873.0</ele><time>2026-03-29T07:13:36.074Z</time></trkpt><trkpt lat="43.298995" lon="12.0180867"><ele>867.5</ele><time>2026-03-29T07:13:37.073Z</time></trkpt><trkpt lat="43.2988717" lon="12.0180983"><ele>862.0</ele><time>2026-03-29T07:13:38.073Z</time></trkpt><trkpt lat="43.29875" lon="12.0181267"><ele>856.5</ele><time>2026-03-29T07:13:39.074Z</time></trkpt><trkpt lat="43.2986317" lon="12.01815"><ele>851.0</ele><time>2026-03-29T07:13:40.074Z</time></trkpt><trkpt lat="43.2985117" lon="12.0181683"><ele>851.0</ele><time>2026-03-29T07:13:41.073Z</time></trkpt><trkpt lat="43.2984017" lon="12.0182"><ele>851.0</ele><time>2026-03-29T07:13:42.074Z</time></trkpt><trkpt lat="43.2983083" lon="12.018235"><ele>851.0</ele><time>2026-03-29T07:13:43.074Z</time></trkpt><trkpt lat="43.2982167" lon="12.0182917"><ele>851.0</ele><time>2026-03-29T07:13:44.074Z</time></trkpt><trkpt lat="43.2981233" lon="12.0183717"><ele>851.0</ele><time>2026-03-29T07:13:45.074Z</time></trkpt><trkpt lat="43.298025" lon="12.01845"><ele>856.5</ele><time>2026-03-29T07:13:46.074Z</time></trkpt><trkpt lat="43.2979183" lon="12.0185133"><ele>862.0</ele><time>2026-03-29T07:13:47.074Z</time></trkpt><trkpt lat="43.2978083" lon="12.0185617"><ele>867.5</ele><time>2026-03-29T07:13:48.073Z</time></trkpt><trkpt lat="43.29769" lon="12.0185967"><ele>873.0</ele><time>2026-03-29T07:13:49.074Z</time></trkpt><trkpt lat="43.297575" lon="12.0186233"><ele>873.0</ele><time>2026-03-29T07:13:50.074Z</time></trkpt><trkpt lat="43.2974533" lon="12.0186383"><ele>873.0</ele><time>2026-03-29T07:13:51.074Z</time></trkpt><trkpt lat="43.29734" lon="12.018665"><ele>873.0</ele><time>2026-03-29T07:13:52.074Z</time></trkpt><trkpt lat="43.2972217" lon="12.0186867"><ele>873.0</ele><time>2026-03-29T07:13:53.073Z</time></trkpt><trkpt lat="43.297105" lon="12.0187033"><ele>873.5</ele><time>2026-03-29T07:13:54.074Z</time></trkpt><trkpt lat="43.2969733" lon="12.0187317"><ele>874.0</ele><time>2026-03-29T07:13:55.074Z</time></trkpt><trkpt lat="43.2968417" lon="12.0187517"><ele>874.5</ele><time>2026-03-29T07:13:56.073Z</time></trkpt><trkpt lat="43.2967117" lon="12.018765"><ele>875.0</ele><time>2026-03-29T07:13:57.074Z</time></trkpt><trkpt lat="43.2965917" lon="12.018765"><ele>875.0</ele><time>2026-03-29T07:13:58.074Z</time></trkpt><trkpt lat="43.29647" lon="12.0187583"><ele>875.0</ele><time>2026-03-29T07:13:59.073Z</time></trkpt><trkpt lat="43.2963517" lon="12.0187083"><ele>875.0</ele><time>2026-03-29T07:14:00.074Z</time></trkpt><trkpt lat="43.29625" lon="12.018655"><ele>875.0</ele><time>2026-03-29T07:14:01.074Z</time></trkpt><trkpt lat="43.29616" lon="12.0185683"><ele>874.5</ele><time>2026-03-29T07:14:02.074Z</time></trkpt><trkpt lat="43.2960883" lon="12.0184417"><ele>874.0</ele><time>2026-03-29T07:14:03.074Z</time></trkpt><trkpt lat="43.2960167" lon="12.0183083"><ele>873.5</ele><time>2026-03-29T07:14:04.073Z</time></trkpt><trkpt lat="43.2959483" lon="12.0181683"><ele>873.0</ele><time>2026-03-29T07:14:05.074Z</time></trkpt><trkpt lat="43.295895" lon="12.018025"><ele>873.0</ele><time>2026-03-29T07:14:06.074Z</time></trkpt><trkpt lat="43.2958367" lon="12.017895"><ele>873.0</ele><time>2026-03-29T07:14:07.074Z</time></trkpt><trkpt lat="43.295785" lon="12.0177683"><ele>873.0</ele><time>2026-03-29T07:14:08.074Z</time></trkpt><trkpt lat="43.2957283" lon="12.0176583"><ele>873.0</ele><time>2026-03-29T07:14:09.074Z</time></trkpt><trkpt lat="43.2956733" lon="12.0175583"><ele>873.0</ele><time>2026-03-29T07:14:10.074Z</time></trkpt><trkpt lat="43.29562" lon="12.017475"><ele>874.2</ele><time>2026-03-29T07:14:11.074Z</time></trkpt><trkpt lat="43.295565" lon="12.017415"><ele>875.4</ele><time>2026-03-29T07:14:12.074Z</time></trkpt><trkpt lat="43.2954667" lon="12.0173467"><ele>876.6000000000001</ele><time>2026-03-29T07:14:14.074Z</time></trkpt><trkpt lat="43.2954017" lon="12.017325"><ele>877.8000000000001</ele><time>2026-03-29T07:14:17.073Z</time></trkpt><trkpt lat="43.2952967" lon="12.0173117"><ele>879.0</ele><time>2026-03-29T07:14:20.074Z</time></trkpt><trkpt lat="43.2951717" lon="12.0173233"><ele>879.0</ele><time>2026-03-29T07:14:22.073Z</time></trkpt><trkpt lat="43.2950933" lon="12.0173433"><ele>879.0000000000001</ele><time>2026-03-29T07:14:23.074Z</time></trkpt><trkpt lat="43.295" lon="12.0173767"><ele>879.0000000000001</ele><time>2026-03-29T07:14:24.074Z</time></trkpt><trkpt lat="43.2949067" lon="12.0174217"><ele>879.0</ele><time>2026-03-29T07:14:25.074Z</time></trkpt><trkpt lat="43.2948133" lon="12.0174683"><ele>879.0</ele><time>2026-03-29T07:14:26.074Z</time></trkpt><trkpt lat="43.294725" lon="12.0175167"><ele>874.6</ele><time>2026-03-29T07:14:27.074Z</time></trkpt><trkpt lat="43.2946367" lon="12.0175783"><ele>870.2</ele><time>2026-03-29T07:14:28.074Z</time></trkpt><trkpt lat="43.2945617" lon="12.0176533"><ele>865.8000000000001</ele><time>2026-03-29T07:14:29.074Z</time></trkpt><trkpt lat="43.2944933" lon="12.0177383"><ele>861.4000000000001</ele><time>2026-03-29T07:14:30.074Z</time></trkpt><trkpt lat="43.2944433" lon="12.0178567"><ele>857.0</ele><time>2026-03-29T07:14:31.074Z</time></trkpt><trkpt lat="43.2944067" lon="12.0179883"><ele>857.0</ele><time>2026-03-29T07:14:32.074Z</time></trkpt><trkpt lat="43.2943717" lon="12.0181483"><ele>857.0</ele><time>2026-03-29T07:14:33.074Z</time></trkpt><trkpt lat="43.2943433" lon="12.0183067"><ele>857.0</ele><time>2026-03-29T07:14:34.073Z</time></trkpt><trkpt lat="43.294305" lon="12.0184483"><ele>857.0</ele><time>2026-03-29T07:14:35.074Z</time></trkpt><trkpt lat="43.294255" lon="12.0185967"><ele>856.4000000000001</ele><time>2026-03-29T07:14:36.074Z</time></trkpt><trkpt lat="43.2942017" lon="12.01873"><ele>855.8000000000001</ele><time>2026-03-29T07:14:37.074Z</time></trkpt><trkpt lat="43.294155" lon="12.0188617"><ele>855.2</ele><time>2026-03-29T07:14:38.075Z</time></trkpt><trkpt lat="43.2940933" lon="12.0189817"><ele>854.6</ele><time>2026-03-29T07:14:39.075Z</time></trkpt><trkpt lat="43.29404" lon="12.0191033"><ele>854.0</ele><time>2026-03-29T07:14:40.074Z</time></trkpt><trkpt lat="43.2939833" lon="12.0192083"><ele>855.4000000000001</ele><time>2026-03-29T07:14:41.075Z</time></trkpt><trkpt lat="43.29396" lon="12.0193333"><ele>856.8000000000001</ele><time>2026-03-29T07:14:42.075Z</time></trkpt><trkpt lat="43.2939533" lon="12.01946"><ele>858.1999999999999</ele><time>2026-03-29T07:14:43.075Z</time></trkpt><trkpt lat="43.29396" lon="12.0196017"><ele>859.5999999999999</ele><time>2026-03-29T07:14:44.075Z</time></trkpt><trkpt lat="43.293985" lon="12.01974"><ele>861.0</ele><time>2026-03-29T07:14:45.074Z</time></trkpt><trkpt lat="43.2940083" lon="12.0198667"><ele>861.0</ele><time>2026-03-29T07:14:46.075Z</time></trkpt><trkpt lat="43.2940167" lon="12.0199817"><ele>861.0</ele><time>2026-03-29T07:14:47.074Z</time></trkpt><trkpt lat="43.2940117" lon="12.0200867"><ele>861.0</ele><time>2026-03-29T07:14:48.074Z</time></trkpt><trkpt lat="43.2939833" lon="12.02017"><ele>861.0</ele><time>2026-03-29T07:14:49.074Z</time></trkpt><trkpt lat="43.2939217" lon="12.0202467"><ele>861.0</ele><time>2026-03-29T07:14:50.075Z</time></trkpt><trkpt lat="43.2938333" lon="12.020305"><ele>861.0</ele><time>2026-03-29T07:14:51.075Z</time></trkpt><trkpt lat="43.2937317" lon="12.020365"><ele>855.8</ele><time>2026-03-29T07:14:52.075Z</time></trkpt><trkpt lat="43.293635" lon="12.0204267"><ele>850.5999999999999</ele><time>2026-03-29T07:14:53.075Z</time></trkpt><trkpt lat="43.2935517" lon="12.0204917"><ele>845.4</ele><time>2026-03-29T07:14:54.075Z</time></trkpt><trkpt lat="43.293465" lon="12.020555"><ele>840.2</ele><time>2026-03-29T07:14:55.075Z</time></trkpt><trkpt lat="43.2933883" lon="12.0206467"><ele>835.0</ele><time>2026-03-29T07:14:56.075Z</time></trkpt><trkpt lat="43.2933167" lon="12.0207567"><ele>832.0</ele><time>2026-03-29T07:14:57.075Z</time></trkpt><trkpt lat="43.2932417" lon="12.0208867"><ele>829.0</ele><time>2026-03-29T07:14:58.074Z</time></trkpt><trkpt lat="43.2931717" lon="12.0210183"><ele>826.0</ele><time>2026-03-29T07:14:59.074Z</time></trkpt><trkpt lat="43.2931033" lon="12.0211517"><ele>823.0</ele><time>2026-03-29T07:15:00.075Z</time></trkpt><trkpt lat="43.2930383" lon="12.0212867"><ele>823.0</ele><time>2026-03-29T07:15:01.074Z</time></trkpt><trkpt lat="43.2929717" lon="12.0214083"><ele>823.0</ele><time>2026-03-29T07:15:02.075Z</time></trkpt><trkpt lat="43.29291" lon="12.0215417"><ele>823.0</ele><time>2026-03-29T07:15:03.075Z</time></trkpt><trkpt lat="43.2928583" lon="12.0216783"><ele>823.0</ele><time>2026-03-29T07:15:04.075Z</time></trkpt><trkpt lat="43.292815" lon="12.021835"><ele>824.75</ele><time>2026-03-29T07:15:05.075Z</time></trkpt><trkpt lat="43.2927833" lon="12.021995"><ele>826.5</ele><time>2026-03-29T07:15:06.075Z</time></trkpt><trkpt lat="43.2927683" lon="12.0221617"><ele>828.25</ele><time>2026-03-29T07:15:07.075Z</time></trkpt><trkpt lat="43.29276" lon="12.0223283"><ele>830.0</ele><time>2026-03-29T07:15:08.074Z</time></trkpt><trkpt lat="43.2927367" lon="12.0224833"><ele>831.5</ele><time>2026-03-29T07:15:09.075Z</time></trkpt><trkpt lat="43.2926783" lon="12.0226183"><ele>833.0</ele><time>2026-03-29T07:15:10.075Z</time></trkpt><trkpt lat="43.2925983" lon="12.0227483"><ele>834.5</ele><time>2026-03-29T07:15:11.075Z</time></trkpt><trkpt lat="43.2925167" lon="12.0228667"><ele>836.0</ele><time>2026-03-29T07:15:12.075Z</time></trkpt><trkpt lat="43.29242" lon="12.0229817"><ele>836.0</ele><time>2026-03-29T07:15:13.074Z</time></trkpt><trkpt lat="43.29233" lon="12.0230933"><ele>836.0</ele><time>2026-03-29T07:15:14.075Z</time></trkpt><trkpt lat="43.2922483" lon="12.0231933"><ele>836.0</ele><time>2026-03-29T07:15:15.075Z</time></trkpt><trkpt lat="43.2921583" lon="12.0232933"><ele>836.0</ele><time>2026-03-29T07:15:16.075Z</time></trkpt><trkpt lat="43.2920683" lon="12.0233783"><ele>833.8333333333334</ele><time>2026-03-29T07:15:17.074Z</time></trkpt><trkpt lat="43.291985" lon="12.0234583"><ele>831.6666666666667</ele><time>2026-03-29T07:15:18.074Z</time></trkpt><trkpt lat="43.2919" lon="12.0235333"><ele>829.5</ele><time>2026-03-29T07:15:19.075Z</time></trkpt><trkpt lat="43.29182" lon="12.0235967"><ele>827.3333333333333</ele><time>2026-03-29T07:15:20.074Z</time></trkpt><trkpt lat="43.291755" lon="12.0236533"><ele>825.1666666666666</ele><time>2026-03-29T07:15:21.074Z</time></trkpt><trkpt lat="43.29169" lon="12.0236833"><ele>823.0</ele><time>2026-03-29T07:15:22.075Z</time></trkpt><trkpt lat="43.2916067" lon="12.0236483"><ele>823.0</ele><time>2026-03-29T07:15:24.074Z</time></trkpt><trkpt lat="43.2916167" lon="12.023535"><ele>823.0</ele><time>2026-03-29T07:15:26.074Z</time></trkpt><trkpt lat="43.291725" lon="12.0234317"><ele>823.0</ele><time>2026-03-29T07:15:28.075Z</time></trkpt><trkpt lat="43.2918017" lon="12.0233783"><ele>823.0</ele><time>2026-03-29T07:15:29.075Z</time></trkpt><trkpt lat="43.291885" lon="12.0233083"><ele>823.0</ele><time>2026-03-29T07:15:30.075Z</time></trkpt><trkpt lat="43.2919517" lon="12.0232383"><ele>820.4</ele><time>2026-03-29T07:15:31.075Z</time></trkpt><trkpt lat="43.2920083" lon="12.0231417"><ele>817.8</ele><time>2026-03-29T07:15:32.075Z</time></trkpt><trkpt lat="43.29206" lon="12.023005"><ele>815.2</ele><time>2026-03-29T07:15:33.074Z</time></trkpt><trkpt lat="43.2921233" lon="12.0228883"><ele>812.6</ele><time>2026-03-29T07:15:34.075Z</time></trkpt><trkpt lat="43.2921717" lon="12.0227417"><ele>810.0</ele><time>2026-03-29T07:15:35.075Z</time></trkpt><trkpt lat="43.2922117" lon="12.0226083"><ele>810.0</ele><time>2026-03-29T07:15:36.075Z</time></trkpt><trkpt lat="43.2922483" lon="12.0224833"><ele>810.0</ele><time>2026-03-29T07:15:37.075Z</time></trkpt><trkpt lat="43.2922817" lon="12.0223633"><ele>810.0</ele><time>2026-03-29T07:15:38.075Z</time></trkpt><trkpt lat="43.292295" lon="12.0222367"><ele>810.0</ele><time>2026-03-29T07:15:39.075Z</time></trkpt><trkpt lat="43.2922917" lon="12.0221117"><ele>810.0</ele><time>2026-03-29T07:15:40.075Z</time></trkpt><trkpt lat="43.29228" lon="12.0219867"><ele>812.1666666666666</ele><time>2026-03-29T07:15:41.075Z</time></trkpt><trkpt lat="43.2922683" lon="12.0218717"><ele>814.3333333333333</ele><time>2026-03-29T07:15:42.075Z</time></trkpt><trkpt lat="43.2922683" lon="12.0217633"><ele>816.5</ele><time>2026-03-29T07:15:43.075Z</time></trkpt><trkpt lat="43.2922883" lon="12.02166"><ele>818.6666666666666</ele><time>2026-03-29T07:15:44.075Z</time></trkpt><trkpt lat="43.2923133" lon="12.0215667"><ele>820.8333333333333</ele><time>2026-03-29T07:15:45.075Z</time></trkpt><trkpt lat="43.2923333" lon="12.021405"><ele>823.0</ele><time>2026-03-29T07:15:47.075Z</time></trkpt><trkpt lat="43.2922867" lon="12.0213067"><ele>819.8333333333333</ele><time>2026-03-29T07:15:49.075Z</time></trkpt><trkpt lat="43.2921883" lon="12.0213367"><ele>816.6666666666666</ele><time>2026-03-29T07:15:51.075Z</time></trkpt><trkpt lat="43.2921433" lon="12.021405"><ele>813.5</ele><time>2026-03-29T07:15:52.075Z</time></trkpt><trkpt lat="43.2921167" lon="12.0215067"><ele>810.3333333333333</ele><time>2026-03-29T07:15:53.075Z</time></trkpt><trkpt lat="43.29211" lon="12.0216317"><ele>807.1666666666666</ele><time>2026-03-29T07:15:54.074Z</time></trkpt><trkpt lat="43.2921167" lon="12.0217617"><ele>804.0</ele><time>2026-03-29T07:15:55.074Z</time></trkpt><trkpt lat="43.292125" lon="12.02189"><ele>804.0</ele><time>2026-03-29T07:15:56.075Z</time></trkpt><trkpt lat="43.29213" lon="12.0220233"><ele>804.0</ele><time>2026-03-29T07:15:57.075Z</time></trkpt><trkpt lat="43.292125" lon="12.0221533"><ele>804.0</ele><time>2026-03-29T07:15:58.074Z</time></trkpt><trkpt lat="43.2920883" lon="12.022255"><ele>804.0</ele><time>2026-03-29T07:15:59.075Z</time></trkpt><trkpt lat="43.2920317" lon="12.0223483"><ele>804.0</ele><time>2026-03-29T07:16:00.074Z</time></trkpt><trkpt lat="43.2919517" lon="12.0224417"><ele>805.2</ele><time>2026-03-29T07:16:01.075Z</time></trkpt><trkpt lat="43.2918767" lon="12.0225367"><ele>806.4000000000001</ele><time>2026-03-29T07:16:02.074Z</time></trkpt><trkpt lat="43.2918117" lon="12.0226483"><ele>807.6</ele><time>2026-03-29T07:16:03.075Z</time></trkpt><trkpt lat="43.291755" lon="12.0227633"><ele>808.8</ele><time>2026-03-29T07:16:04.075Z</time></trkpt><trkpt lat="43.2916983" lon="12.0228733"><ele>810.0</ele><time>2026-03-29T07:16:05.074Z</time></trkpt><trkpt lat="43.29163" lon="12.0229633"><ele>810.0</ele><time>2026-03-29T07:16:06.074Z</time></trkpt><trkpt lat="43.291555" lon="12.0230217"><ele>810.0</ele><time>2026-03-29T07:16:07.075Z</time></trkpt><trkpt lat="43.2914717" lon="12.0230383"><ele>810.0</ele><time>2026-03-29T07:16:08.075Z</time></trkpt><trkpt lat="43.291395" lon="12.023045"><ele>810.0</ele><time>2026-03-29T07:16:09.075Z</time></trkpt><trkpt lat="43.2913333" lon="12.0230633"><ele>810.0</ele><time>2026-03-29T07:16:10.074Z</time></trkpt><trkpt lat="43.2912733" lon="12.0231317"><ele>810.0</ele><time>2026-03-29T07:16:11.075Z</time></trkpt><trkpt lat="43.291215" lon="12.0232467"><ele>807.0</ele><time>2026-03-29T07:16:12.075Z</time></trkpt><trkpt lat="43.291155" lon="12.023395"><ele>804.0</ele><time>2026-03-29T07:16:13.075Z</time></trkpt><trkpt lat="43.291095" lon="12.0235533"><ele>801.0</ele><time>2026-03-29T07:16:14.074Z</time></trkpt><trkpt lat="43.291045" lon="12.02371"><ele>798.0</ele><time>2026-03-29T07:16:15.074Z</time></trkpt><trkpt lat="43.291005" lon="12.0238383"><ele>798.0</ele><time>2026-03-29T07:16:16.075Z</time></trkpt><trkpt lat="43.29094" lon="12.02396"><ele>798.0</ele><time>2026-03-29T07:16:17.075Z</time></trkpt><trkpt lat="43.2908683" lon="12.0240683"><ele>798.0</ele><time>2026-03-29T07:16:18.075Z</time></trkpt><trkpt lat="43.2907833" lon="12.0241583"><ele>798.0</ele><time>2026-03-29T07:16:19.075Z</time></trkpt><trkpt lat="43.290585" lon="12.0242817"><ele>797.0</ele><time>2026-03-29T07:16:21.074Z</time></trkpt><trkpt lat="43.2904683" lon="12.0243133"><ele>796.0</ele><time>2026-03-29T07:16:22.075Z</time></trkpt><trkpt lat="43.2903483" lon="12.024335"><ele>795.0</ele><time>2026-03-29T07:16:23.074Z</time></trkpt><trkpt lat="43.2902333" lon="12.0243617"><ele>794.0</ele><time>2026-03-29T07:16:24.075Z</time></trkpt><trkpt lat="43.29012" lon="12.02439"><ele>794.0</ele><time>2026-03-29T07:16:25.074Z</time></trkpt><trkpt lat="43.2900233" lon="12.02442"><ele>794.0</ele><time>2026-03-29T07:16:26.074Z</time></trkpt><trkpt lat="43.2899383" lon="12.0244717"><ele>794.0</ele><time>2026-03-29T07:16:27.075Z</time></trkpt><trkpt lat="43.2898567" lon="12.0245333"><ele>794.0</ele><time>2026-03-29T07:16:28.074Z</time></trkpt><trkpt lat="43.2897817" lon="12.024615"><ele>794.0</ele><time>2026-03-29T07:16:29.075Z</time></trkpt><trkpt lat="43.28971" lon="12.0247183"><ele>792.25</ele><time>2026-03-29T07:16:30.074Z</time></trkpt><trkpt lat="43.2896333" lon="12.0248383"><ele>790.5</ele><time>2026-03-29T07:16:31.075Z</time></trkpt><trkpt lat="43.289545" lon="12.0249533"><ele>788.75</ele><time>2026-03-29T07:16:32.075Z</time></trkpt><trkpt lat="43.2894517" lon="12.0250583"><ele>787.0</ele><time>2026-03-29T07:16:33.075Z</time></trkpt><trkpt lat="43.2893617" lon="12.0251567"><ele>787.0</ele><time>2026-03-29T07:16:34.075Z</time></trkpt><trkpt lat="43.28929" lon="12.02526"><ele>787.0</ele><time>2026-03-29T07:16:35.075Z</time></trkpt><trkpt lat="43.2892333" lon="12.0253667"><ele>787.0</ele><time>2026-03-29T07:16:36.075Z</time></trkpt><trkpt lat="43.28919" lon="12.0254767"><ele>787.0</ele><time>2026-03-29T07:16:37.074Z</time></trkpt><trkpt lat="43.2891667" lon="12.0255967"><ele>787.0</ele><time>2026-03-29T07:16:38.075Z</time></trkpt><trkpt lat="43.28915" lon="12.025725"><ele>789.2</ele><time>2026-03-29T07:16:39.075Z</time></trkpt><trkpt lat="43.28914" lon="12.025865"><ele>791.4000000000001</ele><time>2026-03-29T07:16:40.075Z</time></trkpt><trkpt lat="43.2891217" lon="12.0259933"><ele>793.5999999999999</ele><time>2026-03-29T07:16:41.075Z</time></trkpt><trkpt lat="43.28907" lon="12.0260967"><ele>795.8</ele><time>2026-03-29T07:16:42.075Z</time></trkpt><trkpt lat="43.288995" lon="12.02617"><ele>798.0</ele><time>2026-03-29T07:16:43.075Z</time></trkpt><trkpt lat="43.2889033" lon="12.026225"><ele>793.8</ele><time>2026-03-29T07:16:44.075Z</time></trkpt><trkpt lat="43.2888167" lon="12.0262833"><ele>789.5999999999999</ele><time>2026-03-29T07:16:45.075Z</time></trkpt><trkpt lat="43.2887383" lon="12.0263733"><ele>785.4000000000001</ele><time>2026-03-29T07:16:46.075Z</time></trkpt><trkpt lat="43.2886783" lon="12.0264783"><ele>781.2</ele><time>2026-03-29T07:16:47.075Z</time></trkpt><trkpt lat="43.2886267" lon="12.0265883"><ele>777.0</ele><time>2026-03-29T07:16:48.075Z</time></trkpt><trkpt lat="43.288575" lon="12.0266867"><ele>777.0</ele><time>2026-03-29T07:16:49.075Z</time></trkpt><trkpt lat="43.288545" lon="12.0267883"><ele>777.0</ele><time>2026-03-29T07:16:50.075Z</time></trkpt><trkpt lat="43.2885383" lon="12.0269"><ele>777.0</ele><time>2026-03-29T07:16:51.075Z</time></trkpt><trkpt lat="43.2885567" lon="12.0270117"><ele>777.0</ele><time>2026-03-29T07:16:52.075Z</time></trkpt><trkpt lat="43.2886" lon="12.0271267"><ele>777.0</ele><time>2026-03-29T07:16:53.075Z</time></trkpt><trkpt lat="43.2886533" lon="12.0272433"><ele>777.0</ele><time>2026-03-29T07:16:54.075Z</time></trkpt><trkpt lat="43.2887133" lon="12.0273683"><ele>775.25</ele><time>2026-03-29T07:16:55.075Z</time></trkpt><trkpt lat="43.2887767" lon="12.0275"><ele>773.5</ele><time>2026-03-29T07:16:56.074Z</time></trkpt><trkpt lat="43.2888433" lon="12.0276333"><ele>771.75</ele><time>2026-03-29T07:16:57.075Z</time></trkpt><trkpt lat="43.2889083" lon="12.0277683"><ele>770.0</ele><time>2026-03-29T07:16:58.075Z</time></trkpt><trkpt lat="43.28898" lon="12.0278917"><ele>775.8</ele><time>2026-03-29T07:16:59.074Z</time></trkpt><trkpt lat="43.28906" lon="12.0279917"><ele>781.6</ele><time>2026-03-29T07:17:00.074Z</time></trkpt><trkpt lat="43.2891433" lon="12.02807"><ele>787.4000000000001</ele><time>2026-03-29T07:17:01.075Z</time></trkpt><trkpt lat="43.2892267" lon="12.02813"><ele>793.2</ele><time>2026-03-29T07:17:02.075Z</time></trkpt><trkpt lat="43.2893033" lon="12.028185"><ele>799.0</ele><time>2026-03-29T07:17:03.074Z</time></trkpt><trkpt lat="43.289365" lon="12.0282483"><ele>796.6666666666666</ele><time>2026-03-29T07:17:04.074Z</time></trkpt><trkpt lat="43.2894033" lon="12.0283217"><ele>794.3333333333333</ele><time>2026-03-29T07:17:05.075Z</time></trkpt><trkpt lat="43.2894117" lon="12.0284133"><ele>792.0</ele><time>2026-03-29T07:17:06.074Z</time></trkpt><trkpt lat="43.2893817" lon="12.0285017"><ele>789.6666666666667</ele><time>2026-03-29T07:17:07.075Z</time></trkpt><trkpt lat="43.2893283" lon="12.028575"><ele>787.3333333333334</ele><time>2026-03-29T07:17:08.075Z</time></trkpt><trkpt lat="43.2892417" lon="12.0286317"><ele>785.0</ele><time>2026-03-29T07:17:09.075Z</time></trkpt><trkpt lat="43.28915" lon="12.0286783"><ele>785.0</ele><time>2026-03-29T07:17:10.075Z</time></trkpt><trkpt lat="43.2890617" lon="12.0287283"><ele>785.0</ele><time>2026-03-29T07:17:11.075Z</time></trkpt><trkpt lat="43.2889767" lon="12.0288033"><ele>785.0</ele><time>2026-03-29T07:17:12.075Z</time></trkpt><trkpt lat="43.2888983" lon="12.0288967"><ele>785.0</ele><time>2026-03-29T07:17:13.075Z</time></trkpt><trkpt lat="43.2888183" lon="12.0290083"><ele>785.0</ele><time>2026-03-29T07:17:14.075Z</time></trkpt><trkpt lat="43.2887367" lon="12.0291167"><ele>782.6</ele><time>2026-03-29T07:17:15.075Z</time></trkpt><trkpt lat="43.2886467" lon="12.029195"><ele>780.2</ele><time>2026-03-29T07:17:16.074Z</time></trkpt><trkpt lat="43.2885417" lon="12.0292567"><ele>777.8</ele><time>2026-03-29T07:17:17.074Z</time></trkpt><trkpt lat="43.28843" lon="12.0292683"><ele>775.4</ele><time>2026-03-29T07:17:18.074Z</time></trkpt><trkpt lat="43.2883283" lon="12.02925"><ele>773.0</ele><time>2026-03-29T07:17:19.074Z</time></trkpt><trkpt lat="43.2882467" lon="12.02924"><ele>773.0</ele><time>2026-03-29T07:17:20.075Z</time></trkpt><trkpt lat="43.28817" lon="12.0292367"><ele>773.0</ele><time>2026-03-29T07:17:21.074Z</time></trkpt><trkpt lat="43.2880983" lon="12.0292417"><ele>773.0</ele><time>2026-03-29T07:17:22.074Z</time></trkpt><trkpt lat="43.288035" lon="12.0292983"><ele>773.0</ele><time>2026-03-29T07:17:23.074Z</time></trkpt><trkpt lat="43.2879883" lon="12.0293733"><ele>773.0</ele><time>2026-03-29T07:17:24.075Z</time></trkpt><trkpt lat="43.2879683" lon="12.029465"><ele>773.0</ele><time>2026-03-29T07:17:25.075Z</time></trkpt><trkpt lat="43.287975" lon="12.029575"><ele>773.0</ele><time>2026-03-29T07:17:26.075Z</time></trkpt><trkpt lat="43.2879967" lon="12.0296917"><ele>774.8333333333334</ele><time>2026-03-29T07:17:27.074Z</time></trkpt><trkpt lat="43.2880367" lon="12.0298283"><ele>776.6666666666667</ele><time>2026-03-29T07:17:28.075Z</time></trkpt><trkpt lat="43.2880667" lon="12.0299617"><ele>778.5</ele><time>2026-03-29T07:17:29.075Z</time></trkpt><trkpt lat="43.28809" lon="12.03008"><ele>780.3333333333333</ele><time>2026-03-29T07:17:30.075Z</time></trkpt><trkpt lat="43.2880967" lon="12.0301817"><ele>782.1666666666666</ele><time>2026-03-29T07:17:31.075Z</time></trkpt><trkpt lat="43.2880767" lon="12.0302683"><ele>784.0</ele><time>2026-03-29T07:17:32.075Z</time></trkpt><trkpt lat="43.2880233" lon="12.0303267"><ele>779.0</ele><time>2026-03-29T07:17:33.074Z</time></trkpt><trkpt lat="43.2879383" lon="12.0303583"><ele>774.0</ele><time>2026-03-29T07:17:34.075Z</time></trkpt><trkpt lat="43.28784" lon="12.0303483"><ele>769.0</ele><time>2026-03-29T07:17:35.074Z</time></trkpt><trkpt lat="43.2877367" lon="12.0303317"><ele>764.0</ele><time>2026-03-29T07:17:36.075Z</time></trkpt><trkpt lat="43.287635" lon="12.03034"><ele>759.0</ele><time>2026-03-29T07:17:37.075Z</time></trkpt><trkpt lat="43.2875433" lon="12.0303633"><ele>759.0</ele><time>2026-03-29T07:17:38.075Z</time></trkpt><trkpt lat="43.28746" lon="12.03042"><ele>759.0</ele><time>2026-03-29T07:17:39.075Z</time></trkpt><trkpt lat="43.2873733" lon="12.0305"><ele>759.0</ele><time>2026-03-29T07:17:40.074Z</time></trkpt><trkpt lat="43.287285" lon="12.03059"><ele>759.0</ele><time>2026-03-29T07:17:41.075Z</time></trkpt><trkpt lat="43.2872" lon="12.0306817"><ele>759.0</ele><time>2026-03-29T07:17:42.074Z</time></trkpt><trkpt lat="43.28712" lon="12.0307767"><ele>757.6</ele><time>2026-03-29T07:17:43.075Z</time></trkpt><trkpt lat="43.2870417" lon="12.030875"><ele>756.2</ele><time>2026-03-29T07:17:44.075Z</time></trkpt><trkpt lat="43.2869633" lon="12.0309783"><ele>754.8000000000001</ele><time>2026-03-29T07:17:45.075Z</time></trkpt><trkpt lat="43.2868933" lon="12.0310833"><ele>753.4000000000001</ele><time>2026-03-29T07:17:46.074Z</time></trkpt><trkpt lat="43.286835" lon="12.0312033"><ele>752.0</ele><time>2026-03-29T07:17:47.075Z</time></trkpt><trkpt lat="43.286775" lon="12.03134"><ele>752.0</ele><time>2026-03-29T07:17:48.075Z</time></trkpt><trkpt lat="43.286725" lon="12.0314817"><ele>752.0</ele><time>2026-03-29T07:17:49.074Z</time></trkpt><trkpt lat="43.28668" lon="12.031605"><ele>752.0</ele><time>2026-03-29T07:17:50.075Z</time></trkpt><trkpt lat="43.2866467" lon="12.031715"><ele>752.0</ele><time>2026-03-29T07:17:51.075Z</time></trkpt><trkpt lat="43.28662" lon="12.0318017"><ele>752.0</ele><time>2026-03-29T07:17:52.075Z</time></trkpt><trkpt lat="43.2865733" lon="12.03186"><ele>752.0</ele><time>2026-03-29T07:17:54.074Z</time></trkpt><trkpt lat="43.2864967" lon="12.031955"><ele>750.4000000000001</ele><time>2026-03-29T07:17:57.075Z</time></trkpt><trkpt lat="43.286435" lon="12.0321183"><ele>748.8000000000001</ele><time>2026-03-29T07:17:59.074Z</time></trkpt><trkpt lat="43.2864033" lon="12.0322233"><ele>747.2</ele><time>2026-03-29T07:18:00.074Z</time></trkpt><trkpt lat="43.2863583" lon="12.032335"><ele>745.6</ele><time>2026-03-29T07:18:01.075Z</time></trkpt><trkpt lat="43.2862917" lon="12.0324617"><ele>744.0</ele><time>2026-03-29T07:18:02.075Z</time></trkpt><trkpt lat="43.2862067" lon="12.0325833"><ele>744.0</ele><time>2026-03-29T07:18:03.075Z</time></trkpt><trkpt lat="43.2861167" lon="12.0327"><ele>744.0</ele><time>2026-03-29T07:18:04.075Z</time></trkpt><trkpt lat="43.28602" lon="12.0328167"><ele>744.0</ele><time>2026-03-29T07:18:05.075Z</time></trkpt><trkpt lat="43.2859183" lon="12.0329317"><ele>744.0</ele><time>2026-03-29T07:18:06.075Z</time></trkpt><trkpt lat="43.2858167" lon="12.0330467"><ele>744.0</ele><time>2026-03-29T07:18:07.074Z</time></trkpt><trkpt lat="43.2857133" lon="12.03315"><ele>744.0</ele><time>2026-03-29T07:18:08.075Z</time></trkpt><trkpt lat="43.2856367" lon="12.0332567"><ele>744.0</ele><time>2026-03-29T07:18:09.075Z</time></trkpt><trkpt lat="43.2855317" lon="12.033355"><ele>744.0</ele><time>2026-03-29T07:18:10.074Z</time></trkpt><trkpt lat="43.285475" lon="12.03349"><ele>745.5</ele><time>2026-03-29T07:18:11.075Z</time></trkpt><trkpt lat="43.285425" lon="12.033625"><ele>747.0</ele><time>2026-03-29T07:18:12.074Z</time></trkpt><trkpt lat="43.2853933" lon="12.0337917"><ele>748.5</ele><time>2026-03-29T07:18:13.075Z</time></trkpt><trkpt lat="43.28537" lon="12.0339717"><ele>750.0</ele><time>2026-03-29T07:18:14.075Z</time></trkpt><trkpt lat="43.285345" lon="12.0341483"><ele>750.0</ele><time>2026-03-29T07:18:15.075Z</time></trkpt><trkpt lat="43.2852967" lon="12.03431"><ele>750.0</ele><time>2026-03-29T07:18:16.075Z</time></trkpt><trkpt lat="43.285245" lon="12.0344583"><ele>750.0</ele><time>2026-03-29T07:18:17.075Z</time></trkpt><trkpt lat="43.2852083" lon="12.0346017"><ele>750.0</ele><time>2026-03-29T07:18:18.075Z</time></trkpt><trkpt lat="43.2852" lon="12.03474"><ele>750.0</ele><time>2026-03-29T07:18:19.074Z</time></trkpt><trkpt lat="43.285215" lon="12.0348683"><ele>750.0</ele><time>2026-03-29T07:18:20.075Z</time></trkpt><trkpt lat="43.2852683" lon="12.0349717"><ele>750.0</ele><time>2026-03-29T07:18:21.075Z</time></trkpt><trkpt lat="43.2853517" lon="12.0350467"><ele>750.0</ele><time>2026-03-29T07:18:22.075Z</time></trkpt><trkpt lat="43.2854667" lon="12.0350767"><ele>750.0</ele><time>2026-03-29T07:18:23.075Z</time></trkpt><trkpt lat="43.285595" lon="12.0350983"><ele>754.5</ele><time>2026-03-29T07:18:24.074Z</time></trkpt><trkpt lat="43.28573" lon="12.0351033"><ele>759.0</ele><time>2026-03-29T07:18:25.075Z</time></trkpt><trkpt lat="43.2858733" lon="12.0350917"><ele>763.5</ele><time>2026-03-29T07:18:26.075Z</time></trkpt><trkpt lat="43.2860183" lon="12.03506"><ele>768.0</ele><time>2026-03-29T07:18:27.075Z</time></trkpt><trkpt lat="43.2861567" lon="12.03501"><ele>772.0</ele><time>2026-03-29T07:18:28.075Z</time></trkpt><trkpt lat="43.286295" lon="12.0349317"><ele>776.0</ele><time>2026-03-29T07:18:29.074Z</time></trkpt><trkpt lat="43.2864267" lon="12.03485"><ele>780.0</ele><time>2026-03-29T07:18:30.074Z</time></trkpt><trkpt lat="43.2865683" lon="12.03476"><ele>784.0</ele><time>2026-03-29T07:18:31.075Z</time></trkpt><trkpt lat="43.286705" lon="12.0346767"><ele>788.0</ele><time>2026-03-29T07:18:32.074Z</time></trkpt><trkpt lat="43.2868367" lon="12.03462"><ele>792.0</ele><time>2026-03-29T07:18:33.075Z</time></trkpt><trkpt lat="43.286975" lon="12.0345883"><ele>796.0</ele><time>2026-03-29T07:18:34.075Z</time></trkpt><trkpt lat="43.2871183" lon="12.0345933"><ele>799.5</ele><time>2026-03-29T07:18:35.074Z</time></trkpt><trkpt lat="43.2872617" lon="12.0346433"><ele>803.0</ele><time>2026-03-29T07:18:36.074Z</time></trkpt><trkpt lat="43.2873933" lon="12.034725"><ele>806.5</ele><time>2026-03-29T07:18:37.075Z</time></trkpt><trkpt lat="43.28751" lon="12.0348267"><ele>810.0</ele><time>2026-03-29T07:18:38.074Z</time></trkpt><trkpt lat="43.287635" lon="12.0349017"><ele>810.0</ele><time>2026-03-29T07:18:39.075Z</time></trkpt><trkpt lat="43.287755" lon="12.0349433"><ele>810.0</ele><time>2026-03-29T07:18:40.075Z</time></trkpt><trkpt lat="43.287875" lon="12.0349467"><ele>810.0</ele><time>2026-03-29T07:18:41.075Z</time></trkpt><trkpt lat="43.2879983" lon="12.0349133"><ele>810.0</ele><time>2026-03-29T07:18:42.074Z</time></trkpt><trkpt lat="43.28812" lon="12.0348433"><ele>811.25</ele><time>2026-03-29T07:18:43.075Z</time></trkpt><trkpt lat="43.28824" lon="12.03476"><ele>812.5</ele><time>2026-03-29T07:18:44.075Z</time></trkpt><trkpt lat="43.2883583" lon="12.03471"><ele>813.75</ele><time>2026-03-29T07:18:45.075Z</time></trkpt><trkpt lat="43.2884833" lon="12.0346817"><ele>815.0</ele><time>2026-03-29T07:18:46.074Z</time></trkpt><trkpt lat="43.2886067" lon="12.0346983"><ele>815.0</ele><time>2026-03-29T07:18:47.074Z</time></trkpt><trkpt lat="43.288705" lon="12.0347683"><ele>815.0</ele><time>2026-03-29T07:18:48.074Z</time></trkpt><trkpt lat="43.288775" lon="12.0348883"><ele>815.0</ele><time>2026-03-29T07:18:49.074Z</time></trkpt><trkpt lat="43.2888383" lon="12.0350083"><ele>815.0</ele><time>2026-03-29T07:18:50.075Z</time></trkpt><trkpt lat="43.288915" lon="12.035065"><ele>815.0</ele><time>2026-03-29T07:18:51.075Z</time></trkpt><trkpt lat="43.2890083" lon="12.0351233"><ele>811.4</ele><time>2026-03-29T07:18:52.075Z</time></trkpt><trkpt lat="43.2891067" lon="12.035165"><ele>807.8</ele><time>2026-03-29T07:18:53.074Z</time></trkpt><trkpt lat="43.2891933" lon="12.0352467"><ele>804.2</ele><time>2026-03-29T07:18:54.074Z</time></trkpt><trkpt lat="43.289285" lon="12.03533"><ele>800.6</ele><time>2026-03-29T07:18:55.075Z</time></trkpt><trkpt lat="43.28937" lon="12.03545"><ele>797.0</ele><time>2026-03-29T07:18:56.075Z</time></trkpt><trkpt lat="43.289465" lon="12.0355633"><ele>797.0</ele><time>2026-03-29T07:18:57.074Z</time></trkpt><trkpt lat="43.2895767" lon="12.0356717"><ele>797.0</ele><time>2026-03-29T07:18:58.075Z</time></trkpt><trkpt lat="43.2896983" lon="12.035745"><ele>797.0</ele><time>2026-03-29T07:18:59.075Z</time></trkpt><trkpt lat="43.2898267" lon="12.0358033"><ele>797.0</ele><time>2026-03-29T07:19:00.075Z</time></trkpt><trkpt lat="43.289955" lon="12.035855"><ele>796.25</ele><time>2026-03-29T07:19:01.075Z</time></trkpt><trkpt lat="43.290095" lon="12.03588"><ele>795.5</ele><time>2026-03-29T07:19:02.074Z</time></trkpt><trkpt lat="43.290235" lon="12.0359133"><ele>794.75</ele><time>2026-03-29T07:19:03.075Z</time></trkpt><trkpt lat="43.2903833" lon="12.03594"><ele>794.0</ele><time>2026-03-29T07:19:04.074Z</time></trkpt><trkpt lat="43.2905317" lon="12.03596"><ele>799.0</ele><time>2026-03-29T07:19:05.075Z</time></trkpt><trkpt lat="43.290685" lon="12.0359783"><ele>804.0</ele><time>2026-03-29T07:19:06.075Z</time></trkpt><trkpt lat="43.2908417" lon="12.0359783"><ele>809.0</ele><time>2026-03-29T07:19:07.075Z</time></trkpt><trkpt lat="43.2909867" lon="12.0359867"><ele>809.0</ele><time>2026-03-29T07:19:08.075Z</time></trkpt><trkpt lat="43.2911233" lon="12.036015"><ele>809.0</ele><time>2026-03-29T07:19:09.075Z</time></trkpt><trkpt lat="43.2912517" lon="12.0360783"><ele>809.0</ele><time>2026-03-29T07:19:10.075Z</time></trkpt><trkpt lat="43.291365" lon="12.0361867"><ele>809.0</ele><time>2026-03-29T07:19:11.075Z</time></trkpt><trkpt lat="43.2914633" lon="12.036295"><ele>812.0</ele><time>2026-03-29T07:19:12.075Z</time></trkpt><trkpt lat="43.2915583" lon="12.036385"><ele>815.0</ele><time>2026-03-29T07:19:13.074Z</time></trkpt><trkpt lat="43.29166" lon="12.0364483"><ele>818.0</ele><time>2026-03-29T07:19:14.075Z</time></trkpt><trkpt lat="43.2917783" lon="12.0364867"><ele>821.0</ele><time>2026-03-29T07:19:15.075Z</time></trkpt><trkpt lat="43.2919133" lon="12.036495"><ele>821.0</ele><time>2026-03-29T07:19:16.074Z</time></trkpt><trkpt lat="43.2920567" lon="12.0364967"><ele>821.0</ele><time>2026-03-29T07:19:17.075Z</time></trkpt><trkpt lat="43.2922083" lon="12.036505"><ele>821.0</ele><time>2026-03-29T07:19:18.075Z</time></trkpt><trkpt lat="43.292365" lon="12.0365383"><ele>818.5</ele><time>2026-03-29T07:19:19.075Z</time></trkpt><trkpt lat="43.2925133" lon="12.03658"><ele>816.0</ele><time>2026-03-29T07:19:20.075Z</time></trkpt><trkpt lat="43.2926617" lon="12.03663"><ele>813.5</ele><time>2026-03-29T07:19:21.075Z</time></trkpt><trkpt lat="43.29279" lon="12.0367183"><ele>811.0</ele><time>2026-03-29T07:19:22.075Z</time></trkpt><trkpt lat="43.2929067" lon="12.0368367"><ele>811.0</ele><time>2026-03-29T07:19:23.075Z</time></trkpt><trkpt lat="43.2930183" lon="12.036985"><ele>811.0</ele><time>2026-03-29T07:19:24.075Z</time></trkpt><trkpt lat="43.2931133" lon="12.03717"><ele>811.0</ele><time>2026-03-29T07:19:25.075Z</time></trkpt><trkpt lat="43.2931933" lon="12.03739"><ele>813.0</ele><time>2026-03-29T07:19:26.075Z</time></trkpt><trkpt lat="43.2932483" lon="12.037605"><ele>815.0</ele><time>2026-03-29T07:19:27.075Z</time></trkpt><trkpt lat="43.2932717" lon="12.0378483"><ele>817.0</ele><time>2026-03-29T07:19:28.075Z</time></trkpt><trkpt lat="43.2932733" lon="12.0381133"><ele>816.3333333333333</ele><time>2026-03-29T07:19:29.075Z</time></trkpt><trkpt lat="43.2932683" lon="12.038365"><ele>815.6666666666667</ele><time>2026-03-29T07:19:30.074Z</time></trkpt><trkpt lat="43.2932817" lon="12.0385867"><ele>815.0</ele><time>2026-03-29T07:19:31.074Z</time></trkpt><trkpt lat="43.2933067" lon="12.0387833"><ele>815.0</ele><time>2026-03-29T07:19:32.075Z</time></trkpt><trkpt lat="43.293355" lon="12.0389667"><ele>815.0</ele><time>2026-03-29T07:19:33.074Z</time></trkpt><trkpt lat="43.293415" lon="12.0391333"><ele>815.0</ele><time>2026-03-29T07:19:34.075Z</time></trkpt><trkpt lat="43.2934817" lon="12.0392917"><ele>815.0</ele><time>2026-03-29T07:19:35.075Z</time></trkpt><trkpt lat="43.2935433" lon="12.039425"><ele>813.8</ele><time>2026-03-29T07:19:36.075Z</time></trkpt><trkpt lat="43.2936083" lon="12.0395083"><ele>812.6</ele><time>2026-03-29T07:19:37.075Z</time></trkpt><trkpt lat="43.293695" lon="12.0395567"><ele>811.4000000000001</ele><time>2026-03-29T07:19:38.075Z</time></trkpt><trkpt lat="43.293785" lon="12.0395917"><ele>810.2</ele><time>2026-03-29T07:19:39.075Z</time></trkpt><trkpt lat="43.2939" lon="12.0396017"><ele>809.0</ele><time>2026-03-29T07:19:40.075Z</time></trkpt><trkpt lat="43.2940067" lon="12.039595"><ele>812.75</ele><time>2026-03-29T07:19:41.075Z</time></trkpt><trkpt lat="43.294115" lon="12.0395417"><ele>816.5</ele><time>2026-03-29T07:19:42.075Z</time></trkpt><trkpt lat="43.2942167" lon="12.0394583"><ele>820.25</ele><time>2026-03-29T07:19:43.075Z</time></trkpt><trkpt lat="43.2943033" lon="12.03934"><ele>824.0</ele><time>2026-03-29T07:19:44.075Z</time></trkpt><trkpt lat="43.2944117" lon="12.0392283"><ele>824.0</ele><time>2026-03-29T07:19:45.075Z</time></trkpt><trkpt lat="43.2945383" lon="12.0391367"><ele>824.0</ele><time>2026-03-29T07:19:46.075Z</time></trkpt><trkpt lat="43.294675" lon="12.03907"><ele>824.0</ele><time>2026-03-29T07:19:47.075Z</time></trkpt><trkpt lat="43.2948117" lon="12.0390083"><ele>824.0</ele><time>2026-03-29T07:19:48.075Z</time></trkpt><trkpt lat="43.2949467" lon="12.0389383"><ele>831.75</ele><time>2026-03-29T07:19:49.075Z</time></trkpt><trkpt lat="43.2950617" lon="12.0388683"><ele>839.5</ele><time>2026-03-29T07:19:50.076Z</time></trkpt><trkpt lat="43.295175" lon="12.0388467"><ele>847.25</ele><time>2026-03-29T07:19:51.075Z</time></trkpt><trkpt lat="43.2952917" lon="12.0388733"><ele>855.0</ele><time>2026-03-29T07:19:52.076Z</time></trkpt><trkpt lat="43.2954083" lon="12.0389017"><ele>855.0</ele><time>2026-03-29T07:19:53.075Z</time></trkpt><trkpt lat="43.2955367" lon="12.0389317"><ele>855.0</ele><time>2026-03-29T07:19:54.076Z</time></trkpt><trkpt lat="43.295675" lon="12.03898"><ele>855.0</ele><time>2026-03-29T07:19:55.075Z</time></trkpt><trkpt lat="43.2958033" lon="12.0390733"><ele>855.0</ele><time>2026-03-29T07:19:56.075Z</time></trkpt><trkpt lat="43.2959367" lon="12.0391717"><ele>851.5</ele><time>2026-03-29T07:19:57.076Z</time></trkpt><trkpt lat="43.296075" lon="12.039255"><ele>848.0</ele><time>2026-03-29T07:19:58.076Z</time></trkpt><trkpt lat="43.2962183" lon="12.0393183"><ele>844.5</ele><time>2026-03-29T07:19:59.076Z</time></trkpt><trkpt lat="43.2963617" lon="12.0393667"><ele>841.0</ele><time>2026-03-29T07:20:00.076Z</time></trkpt><trkpt lat="43.29651" lon="12.0394033"><ele>841.0</ele><time>2026-03-29T07:20:01.075Z</time></trkpt><trkpt lat="43.2966483" lon="12.0394567"><ele>841.0</ele><time>2026-03-29T07:20:02.076Z</time></trkpt><trkpt lat="43.29677" lon="12.0395517"><ele>841.0</ele><time>2026-03-29T07:20:03.076Z</time></trkpt><trkpt lat="43.296865" lon="12.0396483"><ele>841.0</ele><time>2026-03-29T07:20:04.076Z</time></trkpt><trkpt lat="43.2969567" lon="12.039725"><ele>840.9999999999999</ele><time>2026-03-29T07:20:05.076Z</time></trkpt><trkpt lat="43.2970333" lon="12.03976"><ele>841.0</ele><time>2026-03-29T07:20:06.076Z</time></trkpt><trkpt lat="43.2971033" lon="12.0397367"><ele>841.0</ele><time>2026-03-29T07:20:07.075Z</time></trkpt><trkpt lat="43.297165" lon="12.0396783"><ele>841.0</ele><time>2026-03-29T07:20:08.075Z</time></trkpt><trkpt lat="43.2972267" lon="12.039585"><ele>840.9999999999999</ele><time>2026-03-29T07:20:09.075Z</time></trkpt><trkpt lat="43.2972767" lon="12.0394433"><ele>841.0</ele><time>2026-03-29T07:20:10.076Z</time></trkpt><trkpt lat="43.297315" lon="12.03929"><ele>839.8</ele><time>2026-03-29T07:20:11.075Z</time></trkpt><trkpt lat="43.2973533" lon="12.0391367"><ele>838.5999999999999</ele><time>2026-03-29T07:20:12.075Z</time></trkpt><trkpt lat="43.297415" lon="12.0390183"><ele>837.4</ele><time>2026-03-29T07:20:13.076Z</time></trkpt><trkpt lat="43.297485" lon="12.0389433"><ele>836.2</ele><time>2026-03-29T07:20:14.075Z</time></trkpt><trkpt lat="43.2975717" lon="12.03891"><ele>835.0</ele><time>2026-03-29T07:20:15.075Z</time></trkpt><trkpt lat="43.29767" lon="12.03894"><ele>835.0</ele><time>2026-03-29T07:20:16.075Z</time></trkpt><trkpt lat="43.2977733" lon="12.039015"><ele>835.0</ele><time>2026-03-29T07:20:17.075Z</time></trkpt><trkpt lat="43.29788" lon="12.039105"><ele>835.0</ele><time>2026-03-29T07:20:18.076Z</time></trkpt><trkpt lat="43.297995" lon="12.0392133"><ele>835.0</ele><time>2026-03-29T07:20:19.076Z</time></trkpt><trkpt lat="43.298105" lon="12.0393633"><ele>837.0</ele><time>2026-03-29T07:20:20.076Z</time></trkpt><trkpt lat="43.298205" lon="12.03952"><ele>839.0</ele><time>2026-03-29T07:20:21.076Z</time></trkpt><trkpt lat="43.2982983" lon="12.03967"><ele>841.0</ele><time>2026-03-29T07:20:22.076Z</time></trkpt><trkpt lat="43.2983933" lon="12.0398117"><ele>843.0</ele><time>2026-03-29T07:20:23.076Z</time></trkpt><trkpt lat="43.2984817" lon="12.0399383"><ele>837.75</ele><time>2026-03-29T07:20:24.076Z</time></trkpt><trkpt lat="43.2985533" lon="12.040075"><ele>832.5</ele><time>2026-03-29T07:20:25.075Z</time></trkpt><trkpt lat="43.2986233" lon="12.04022"><ele>827.25</ele><time>2026-03-29T07:20:26.076Z</time></trkpt><trkpt lat="43.2986867" lon="12.0403533"><ele>822.0</ele><time>2026-03-29T07:20:27.076Z</time></trkpt><trkpt lat="43.298745" lon="12.0404783"><ele>822.0</ele><time>2026-03-29T07:20:28.076Z</time></trkpt><trkpt lat="43.2988083" lon="12.04061"><ele>822.0</ele><time>2026-03-29T07:20:29.075Z</time></trkpt><trkpt lat="43.2988667" lon="12.040745"><ele>822.0</ele><time>2026-03-29T07:20:30.076Z</time></trkpt><trkpt lat="43.2989333" lon="12.0408933"><ele>822.0</ele><time>2026-03-29T07:20:31.076Z</time></trkpt><trkpt lat="43.2990017" lon="12.0410417"><ele>823.25</ele><time>2026-03-29T07:20:32.075Z</time></trkpt><trkpt lat="43.2990633" lon="12.0412117"><ele>824.5</ele><time>2026-03-29T07:20:33.075Z</time></trkpt><trkpt lat="43.29912" lon="12.0413967"><ele>825.75</ele><time>2026-03-29T07:20:34.076Z</time></trkpt><trkpt lat="43.2991817" lon="12.0415767"><ele>827.0</ele><time>2026-03-29T07:20:35.076Z</time></trkpt><trkpt lat="43.2992383" lon="12.0417467"><ele>827.0</ele><time>2026-03-29T07:20:36.076Z</time></trkpt><trkpt lat="43.2993" lon="12.0419267"><ele>827.0</ele><time>2026-03-29T07:20:37.076Z</time></trkpt><trkpt lat="43.2993833" lon="12.0420883"><ele>827.0</ele><time>2026-03-29T07:20:38.076Z</time></trkpt><trkpt lat="43.2994533" lon="12.0422517"><ele>827.0</ele><time>2026-03-29T07:20:39.076Z</time></trkpt><trkpt lat="43.2995083" lon="12.0424217"><ele>823.75</ele><time>2026-03-29T07:20:40.076Z</time></trkpt><trkpt lat="43.2995633" lon="12.0425933"><ele>820.5</ele><time>2026-03-29T07:20:41.076Z</time></trkpt><trkpt lat="43.2996017" lon="12.04279"><ele>817.25</ele><time>2026-03-29T07:20:42.076Z</time></trkpt><trkpt lat="43.299615" lon="12.0429883"><ele>814.0</ele><time>2026-03-29T07:20:43.076Z</time></trkpt><trkpt lat="43.299625" lon="12.0431783"><ele>812.75</ele><time>2026-03-29T07:20:44.076Z</time></trkpt><trkpt lat="43.299615" lon="12.0433767"><ele>811.5</ele><time>2026-03-29T07:20:45.076Z</time></trkpt><trkpt lat="43.29961" lon="12.043555"><ele>810.25</ele><time>2026-03-29T07:20:46.076Z</time></trkpt><trkpt lat="43.2995883" lon="12.0437217"><ele>809.0</ele><time>2026-03-29T07:20:47.075Z</time></trkpt><trkpt lat="43.2995517" lon="12.04388"><ele>809.0</ele><time>2026-03-29T07:20:48.076Z</time></trkpt><trkpt lat="43.2995033" lon="12.044025"><ele>809.0</ele><time>2026-03-29T07:20:49.076Z</time></trkpt><trkpt lat="43.2994317" lon="12.0441733"><ele>809.0</ele><time>2026-03-29T07:20:50.075Z</time></trkpt><trkpt lat="43.29937" lon="12.04432"><ele>809.0</ele><time>2026-03-29T07:20:51.075Z</time></trkpt><trkpt lat="43.2993317" lon="12.0444767"><ele>811.5</ele><time>2026-03-29T07:20:52.075Z</time></trkpt><trkpt lat="43.29931" lon="12.04465"><ele>814.0</ele><time>2026-03-29T07:20:53.076Z</time></trkpt><trkpt lat="43.2992917" lon="12.0448233"><ele>816.5</ele><time>2026-03-29T07:20:54.076Z</time></trkpt><trkpt lat="43.29927" lon="12.0449767"><ele>819.0</ele><time>2026-03-29T07:20:55.076Z</time></trkpt><trkpt lat="43.2992233" lon="12.045125"><ele>820.5</ele><time>2026-03-29T07:20:56.075Z</time></trkpt><trkpt lat="43.2991417" lon="12.0452467"><ele>822.0</ele><time>2026-03-29T07:20:57.076Z</time></trkpt><trkpt lat="43.2990533" lon="12.04538"><ele>823.5</ele><time>2026-03-29T07:20:58.076Z</time></trkpt><trkpt lat="43.2989733" lon="12.0455317"><ele>825.0</ele><time>2026-03-29T07:20:59.075Z</time></trkpt><trkpt lat="43.29892" lon="12.0457"><ele>826.25</ele><time>2026-03-29T07:21:00.076Z</time></trkpt><trkpt lat="43.29889" lon="12.0458683"><ele>827.5</ele><time>2026-03-29T07:21:01.076Z</time></trkpt><trkpt lat="43.2989" lon="12.0460417"><ele>828.75</ele><time>2026-03-29T07:21:02.075Z</time></trkpt><trkpt lat="43.298915" lon="12.046215"><ele>830.0</ele><time>2026-03-29T07:21:03.075Z</time></trkpt><trkpt lat="43.2989317" lon="12.046375"><ele>830.0000000000001</ele><time>2026-03-29T07:21:04.075Z</time></trkpt><trkpt lat="43.2989467" lon="12.0465283"><ele>830.0</ele><time>2026-03-29T07:21:05.076Z</time></trkpt><trkpt lat="43.2989533" lon="12.0466633"><ele>830.0</ele><time>2026-03-29T07:21:06.075Z</time></trkpt><trkpt lat="43.2989367" lon="12.0467717"><ele>830.0</ele><time>2026-03-29T07:21:07.076Z</time></trkpt><trkpt lat="43.298895" lon="12.0468567"><ele>830.0000000000001</ele><time>2026-03-29T07:21:08.076Z</time></trkpt><trkpt lat="43.2988167" lon="12.04688"><ele>830.0</ele><time>2026-03-29T07:21:09.076Z</time></trkpt><trkpt lat="43.2987183" lon="12.04687"><ele>823.25</ele><time>2026-03-29T07:21:10.075Z</time></trkpt><trkpt lat="43.2986117" lon="12.0468633"><ele>816.5</ele><time>2026-03-29T07:21:11.076Z</time></trkpt><trkpt lat="43.2984783" lon="12.0468617"><ele>809.75</ele><time>2026-03-29T07:21:12.076Z</time></trkpt><trkpt lat="43.298355" lon="12.04687"><ele>803.0</ele><time>2026-03-29T07:21:13.076Z</time></trkpt><trkpt lat="43.29824" lon="12.0469217"><ele>803.0</ele><time>2026-03-29T07:21:14.075Z</time></trkpt><trkpt lat="43.298125" lon="12.0470067"><ele>803.0</ele><time>2026-03-29T07:21:15.075Z</time></trkpt><trkpt lat="43.298015" lon="12.047105"><ele>803.0</ele><time>2026-03-29T07:21:16.075Z</time></trkpt><trkpt lat="43.2979083" lon="12.047215"><ele>803.0</ele><time>2026-03-29T07:21:17.075Z</time></trkpt><trkpt lat="43.2978117" lon="12.04733"><ele>803.25</ele><time>2026-03-29T07:21:18.076Z</time></trkpt><trkpt lat="43.297705" lon="12.0474483"><ele>803.5</ele><time>2026-03-29T07:21:19.076Z</time></trkpt><trkpt lat="43.2976033" lon="12.0475633"><ele>803.75</ele><time>2026-03-29T07:21:20.076Z</time></trkpt><trkpt lat="43.297505" lon="12.047675"><ele>804.0</ele><time>2026-03-29T07:21:21.075Z</time></trkpt><trkpt lat="43.2974133" lon="12.0477817"><ele>804.0</ele><time>2026-03-29T07:21:22.075Z</time></trkpt><trkpt lat="43.297335" lon="12.047905"><ele>804.0</ele><time>2026-03-29T07:21:23.076Z</time></trkpt><trkpt lat="43.2972583" lon="12.048035"><ele>804.0</ele><time>2026-03-29T07:21:24.075Z</time></trkpt><trkpt lat="43.2971833" lon="12.04817"><ele>804.0</ele><time>2026-03-29T07:21:25.076Z</time></trkpt><trkpt lat="43.29713" lon="12.0483"><ele>799.5</ele><time>2026-03-29T07:21:26.075Z</time></trkpt><trkpt lat="43.2970967" lon="12.0484383"><ele>795.0</ele><time>2026-03-29T07:21:27.076Z</time></trkpt><trkpt lat="43.2970717" lon="12.048605"><ele>790.5</ele><time>2026-03-29T07:21:28.076Z</time></trkpt><trkpt lat="43.29706" lon="12.0487717"><ele>786.0</ele><time>2026-03-29T07:21:29.075Z</time></trkpt><trkpt lat="43.2970567" lon="12.04893"><ele>786.0</ele><time>2026-03-29T07:21:30.076Z</time></trkpt><trkpt lat="43.297055" lon="12.04907"><ele>786.0</ele><time>2026-03-29T07:21:31.076Z</time></trkpt><trkpt lat="43.2970467" lon="12.0491917"><ele>786.0</ele><time>2026-03-29T07:21:32.076Z</time></trkpt><trkpt lat="43.29702" lon="12.0493"><ele>786.0</ele><time>2026-03-29T07:21:33.075Z</time></trkpt><trkpt lat="43.2969633" lon="12.04938"><ele>786.0</ele><time>2026-03-29T07:21:34.075Z</time></trkpt><trkpt lat="43.296865" lon="12.0494417"><ele>788.0</ele><time>2026-03-29T07:21:35.076Z</time></trkpt><trkpt lat="43.2967617" lon="12.049505"><ele>790.0</ele><time>2026-03-29T07:21:36.076Z</time></trkpt><trkpt lat="43.2966533" lon="12.0495667"><ele>792.0</ele><time>2026-03-29T07:21:37.076Z</time></trkpt><trkpt lat="43.2965417" lon="12.04963"><ele>794.0</ele><time>2026-03-29T07:21:38.076Z</time></trkpt><trkpt lat="43.29642" lon="12.04972"><ele>791.25</ele><time>2026-03-29T07:21:39.076Z</time></trkpt><trkpt lat="43.296315" lon="12.0498167"><ele>788.5</ele><time>2026-03-29T07:21:40.075Z</time></trkpt><trkpt lat="43.2962167" lon="12.0499217"><ele>785.75</ele><time>2026-03-29T07:21:41.076Z</time></trkpt><trkpt lat="43.2961333" lon="12.0500667"><ele>783.0</ele><time>2026-03-29T07:21:42.075Z</time></trkpt><trkpt lat="43.2960467" lon="12.0502183"><ele>783.0</ele><time>2026-03-29T07:21:43.076Z</time></trkpt><trkpt lat="43.2959467" lon="12.0503383"><ele>783.0</ele><time>2026-03-29T07:21:44.076Z</time></trkpt><trkpt lat="43.2958417" lon="12.0504333"><ele>783.0</ele><time>2026-03-29T07:21:45.075Z</time></trkpt><trkpt lat="43.2957333" lon="12.0505117"><ele>783.0</ele><time>2026-03-29T07:21:46.075Z</time></trkpt><trkpt lat="43.2956333" lon="12.0506"><ele>781.0</ele><time>2026-03-29T07:21:47.075Z</time></trkpt><trkpt lat="43.2955433" lon="12.0507167"><ele>779.0</ele><time>2026-03-29T07:21:48.075Z</time></trkpt><trkpt lat="43.2954717" lon="12.0508567"><ele>777.0</ele><time>2026-03-29T07:21:49.076Z</time></trkpt><trkpt lat="43.2954167" lon="12.05101"><ele>775.0</ele><time>2026-03-29T07:21:50.076Z</time></trkpt><trkpt lat="43.29537" lon="12.0511683"><ele>775.0</ele><time>2026-03-29T07:21:51.076Z</time></trkpt><trkpt lat="43.2953067" lon="12.0513083"><ele>775.0</ele><time>2026-03-29T07:21:52.076Z</time></trkpt><trkpt lat="43.295215" lon="12.0514367"><ele>775.0</ele><time>2026-03-29T07:21:53.076Z</time></trkpt><trkpt lat="43.295105" lon="12.0515367"><ele>775.0</ele><time>2026-03-29T07:21:54.076Z</time></trkpt><trkpt lat="43.29497" lon="12.0516167"><ele>775.0</ele><time>2026-03-29T07:21:55.075Z</time></trkpt><trkpt lat="43.2948183" lon="12.0516583"><ele>775.0</ele><time>2026-03-29T07:21:56.076Z</time></trkpt><trkpt lat="43.2946633" lon="12.0516883"><ele>775.0</ele><time>2026-03-29T07:21:57.075Z</time></trkpt><trkpt lat="43.29452" lon="12.0517083"><ele>775.0</ele><time>2026-03-29T07:21:58.075Z</time></trkpt><trkpt lat="43.2943833" lon="12.0517217"><ele>775.0</ele><time>2026-03-29T07:21:59.075Z</time></trkpt><trkpt lat="43.2942533" lon="12.051735"><ele>775.0</ele><time>2026-03-29T07:22:00.075Z</time></trkpt><trkpt lat="43.2941267" lon="12.05175"><ele>775.0</ele><time>2026-03-29T07:22:01.075Z</time></trkpt><trkpt lat="43.2940067" lon="12.051785"><ele>771.25</ele><time>2026-03-29T07:22:02.076Z</time></trkpt><trkpt lat="43.293885" lon="12.0518417"><ele>767.5</ele><time>2026-03-29T07:22:03.076Z</time></trkpt><trkpt lat="43.2937833" lon="12.051955"><ele>763.75</ele><time>2026-03-29T07:22:04.076Z</time></trkpt><trkpt lat="43.2936733" lon="12.0520717"><ele>760.0</ele><time>2026-03-29T07:22:05.075Z</time></trkpt><trkpt lat="43.29359" lon="12.0522133"><ele>760.0</ele><time>2026-03-29T07:22:06.076Z</time></trkpt><trkpt lat="43.2934917" lon="12.0523133"><ele>760.0</ele><time>2026-03-29T07:22:07.076Z</time></trkpt><trkpt lat="43.2933817" lon="12.05238"><ele>760.0</ele><time>2026-03-29T07:22:08.075Z</time></trkpt><trkpt lat="43.2932617" lon="12.0524317"><ele>760.0</ele><time>2026-03-29T07:22:09.076Z</time></trkpt><trkpt lat="43.29313" lon="12.0524583"><ele>762.5</ele><time>2026-03-29T07:22:10.076Z</time></trkpt><trkpt lat="43.292995" lon="12.05246"><ele>765.0</ele><time>2026-03-29T07:22:11.076Z</time></trkpt><trkpt lat="43.2928517" lon="12.052435"><ele>767.5</ele><time>2026-03-29T07:22:12.076Z</time></trkpt><trkpt lat="43.2927083" lon="12.05239"><ele>770.0</ele><time>2026-03-29T07:22:13.075Z</time></trkpt><trkpt lat="43.2925733" lon="12.0523933"><ele>766.0</ele><time>2026-03-29T07:22:14.076Z</time></trkpt><trkpt lat="43.292445" lon="12.0524133"><ele>762.0</ele><time>2026-03-29T07:22:15.076Z</time></trkpt><trkpt lat="43.2923133" lon="12.0524483"><ele>758.0</ele><time>2026-03-29T07:22:16.075Z</time></trkpt><trkpt lat="43.2921967" lon="12.052515"><ele>754.0</ele><time>2026-03-29T07:22:17.076Z</time></trkpt><trkpt lat="43.292085" lon="12.05263"><ele>754.0</ele><time>2026-03-29T07:22:18.076Z</time></trkpt><trkpt lat="43.2919717" lon="12.0527517"><ele>754.0</ele><time>2026-03-29T07:22:19.075Z</time></trkpt><trkpt lat="43.291855" lon="12.0528883"><ele>754.0</ele><time>2026-03-29T07:22:20.076Z</time></trkpt><trkpt lat="43.2917567" lon="12.0530467"><ele>754.0</ele><time>2026-03-29T07:22:21.076Z</time></trkpt><trkpt lat="43.2916717" lon="12.0532117"><ele>756.0</ele><time>2026-03-29T07:22:22.075Z</time></trkpt><trkpt lat="43.291595" lon="12.053395"><ele>758.0</ele><time>2026-03-29T07:22:23.076Z</time></trkpt><trkpt lat="43.2915967" lon="12.0535817"><ele>760.0</ele><time>2026-03-29T07:22:24.076Z</time></trkpt><trkpt lat="43.2916283" lon="12.0537867"><ele>762.0</ele><time>2026-03-29T07:22:25.076Z</time></trkpt><trkpt lat="43.29168" lon="12.05398"><ele>760.6666666666666</ele><time>2026-03-29T07:22:26.076Z</time></trkpt><trkpt lat="43.29174" lon="12.0541817"><ele>759.3333333333333</ele><time>2026-03-29T07:22:27.076Z</time></trkpt><trkpt lat="43.2917817" lon="12.0543967"><ele>758.0</ele><time>2026-03-29T07:22:28.075Z</time></trkpt><trkpt lat="43.2917917" lon="12.054645"><ele>758.0</ele><time>2026-03-29T07:22:29.075Z</time></trkpt><trkpt lat="43.291785" lon="12.054885"><ele>758.0</ele><time>2026-03-29T07:22:30.076Z</time></trkpt><trkpt lat="43.2917467" lon="12.0551183"><ele>758.0</ele><time>2026-03-29T07:22:31.076Z</time></trkpt><trkpt lat="43.2916867" lon="12.0553383"><ele>757.25</ele><time>2026-03-29T07:22:32.076Z</time></trkpt><trkpt lat="43.2916267" lon="12.05554"><ele>756.5</ele><time>2026-03-29T07:22:33.075Z</time></trkpt><trkpt lat="43.2915767" lon="12.0557233"><ele>755.75</ele><time>2026-03-29T07:22:34.076Z</time></trkpt><trkpt lat="43.29153" lon="12.0558983"><ele>755.0</ele><time>2026-03-29T07:22:35.076Z</time></trkpt><trkpt lat="43.29149" lon="12.05606"><ele>755.0</ele><time>2026-03-29T07:22:36.075Z</time></trkpt><trkpt lat="43.2914517" lon="12.0562067"><ele>755.0</ele><time>2026-03-29T07:22:37.076Z</time></trkpt><trkpt lat="43.2914233" lon="12.0563383"><ele>755.0</ele><time>2026-03-29T07:22:38.076Z</time></trkpt><trkpt lat="43.2914017" lon="12.0564583"><ele>755.0</ele><time>2026-03-29T07:22:39.076Z</time></trkpt><trkpt lat="43.2913867" lon="12.0565483"><ele>755.0</ele><time>2026-03-29T07:22:40.076Z</time></trkpt><trkpt lat="43.2913333" lon="12.0566483"><ele>754.0</ele><time>2026-03-29T07:22:42.076Z</time></trkpt><trkpt lat="43.2912383" lon="12.0566467"><ele>753.0</ele><time>2026-03-29T07:22:44.075Z</time></trkpt><trkpt lat="43.2911133" lon="12.05664"><ele>752.0</ele><time>2026-03-29T07:22:46.075Z</time></trkpt><trkpt lat="43.29105" lon="12.056645"><ele>751.0</ele><time>2026-03-29T07:22:47.076Z</time></trkpt><trkpt lat="43.290985" lon="12.056655"><ele>750.0</ele><time>2026-03-29T07:22:48.075Z</time></trkpt><trkpt lat="43.2909133" lon="12.05666"><ele>749.0</ele><time>2026-03-29T07:22:49.076Z</time></trkpt><trkpt lat="43.290835" lon="12.0566717"><ele>749.0</ele><time>2026-03-29T07:22:50.076Z</time></trkpt><trkpt lat="43.2907517" lon="12.0566917"><ele>749.0</ele><time>2026-03-29T07:22:51.076Z</time></trkpt><trkpt lat="43.29066" lon="12.0567183"><ele>749.0</ele><time>2026-03-29T07:22:52.076Z</time></trkpt><trkpt lat="43.29055" lon="12.0567533"><ele>749.0</ele><time>2026-03-29T07:22:53.075Z</time></trkpt><trkpt lat="43.290435" lon="12.0568017"><ele>749.0</ele><time>2026-03-29T07:22:54.076Z</time></trkpt><trkpt lat="43.29031" lon="12.0568717"><ele>749.5</ele><time>2026-03-29T07:22:55.076Z</time></trkpt><trkpt lat="43.2901767" lon="12.0569567"><ele>750.0</ele><time>2026-03-29T07:22:56.075Z</time></trkpt><trkpt lat="43.2900417" lon="12.0570267"><ele>750.5</ele><time>2026-03-29T07:22:57.076Z</time></trkpt><trkpt lat="43.2899017" lon="12.0570833"><ele>751.0</ele><time>2026-03-29T07:22:58.075Z</time></trkpt><trkpt lat="43.2897467" lon="12.0571567"><ele>751.0</ele><time>2026-03-29T07:22:59.076Z</time></trkpt><trkpt lat="43.289585" lon="12.0572167"><ele>751.0</ele><time>2026-03-29T07:23:00.076Z</time></trkpt><trkpt lat="43.2894267" lon="12.0572833"><ele>751.0</ele><time>2026-03-29T07:23:01.076Z</time></trkpt><trkpt lat="43.2892717" lon="12.0573383"><ele>751.0</ele><time>2026-03-29T07:23:02.076Z</time></trkpt><trkpt lat="43.28913" lon="12.0573967"><ele>751.0</ele><time>2026-03-29T07:23:03.076Z</time></trkpt><trkpt lat="43.2890183" lon="12.0574617"><ele>751.0</ele><time>2026-03-29T07:23:04.076Z</time></trkpt><trkpt lat="43.2889217" lon="12.0575417"><ele>751.0</ele><time>2026-03-29T07:23:05.076Z</time></trkpt><trkpt lat="43.2888233" lon="12.05765"><ele>753.5</ele><time>2026-03-29T07:23:06.076Z</time></trkpt><trkpt lat="43.2887283" lon="12.0577817"><ele>756.0</ele><time>2026-03-29T07:23:07.076Z</time></trkpt><trkpt lat="43.288645" lon="12.057935"><ele>758.5</ele><time>2026-03-29T07:23:08.075Z</time></trkpt><trkpt lat="43.2885717" lon="12.05806"><ele>761.0</ele><time>2026-03-29T07:23:09.076Z</time></trkpt><trkpt lat="43.2885" lon="12.0582017"><ele>763.8</ele><time>2026-03-29T07:23:10.075Z</time></trkpt><trkpt lat="43.2884517" lon="12.058325"><ele>766.5999999999999</ele><time>2026-03-29T07:23:11.076Z</time></trkpt><trkpt lat="43.2884117" lon="12.05846"><ele>769.4</ele><time>2026-03-29T07:23:12.076Z</time></trkpt><trkpt lat="43.2883917" lon="12.0586067"><ele>772.2</ele><time>2026-03-29T07:23:13.075Z</time></trkpt><trkpt lat="43.288395" lon="12.0587533"><ele>775.0</ele><time>2026-03-29T07:23:14.075Z</time></trkpt><trkpt lat="43.2884017" lon="12.05894"><ele>777.5</ele><time>2026-03-29T07:23:15.076Z</time></trkpt><trkpt lat="43.2884183" lon="12.0591383"><ele>780.0</ele><time>2026-03-29T07:23:16.076Z</time></trkpt><trkpt lat="43.2884533" lon="12.059305"><ele>782.5</ele><time>2026-03-29T07:23:17.076Z</time></trkpt><trkpt lat="43.2884783" lon="12.0594617"><ele>785.0</ele><time>2026-03-29T07:23:18.076Z</time></trkpt><trkpt lat="43.28849" lon="12.0596017"><ele>785.0</ele><time>2026-03-29T07:23:19.076Z</time></trkpt><trkpt lat="43.288475" lon="12.059725"><ele>785.0</ele><time>2026-03-29T07:23:20.076Z</time></trkpt><trkpt lat="43.28843" lon="12.0598383"><ele>785.0</ele><time>2026-03-29T07:23:21.075Z</time></trkpt><trkpt lat="43.2883617" lon="12.0599367"><ele>785.0</ele><time>2026-03-29T07:23:22.076Z</time></trkpt><trkpt lat="43.288275" lon="12.0600183"><ele>785.0</ele><time>2026-03-29T07:23:23.075Z</time></trkpt><trkpt lat="43.28817" lon="12.0601"><ele>785.5</ele><time>2026-03-29T07:23:24.075Z</time></trkpt><trkpt lat="43.2880483" lon="12.060175"><ele>786.0</ele><time>2026-03-29T07:23:25.076Z</time></trkpt><trkpt lat="43.2879183" lon="12.0602583"><ele>786.5</ele><time>2026-03-29T07:23:26.076Z</time></trkpt><trkpt lat="43.28779" lon="12.0603367"><ele>787.0</ele><time>2026-03-29T07:23:27.076Z</time></trkpt><trkpt lat="43.287665" lon="12.0604217"><ele>787.0</ele><time>2026-03-29T07:23:28.076Z</time></trkpt><trkpt lat="43.2875417" lon="12.0605133"><ele>787.0</ele><time>2026-03-29T07:23:29.076Z</time></trkpt><trkpt lat="43.2874233" lon="12.06059"><ele>787.0</ele><time>2026-03-29T07:23:30.076Z</time></trkpt><trkpt lat="43.2873183" lon="12.0606617"><ele>787.0</ele><time>2026-03-29T07:23:31.076Z</time></trkpt><trkpt lat="43.2872133" lon="12.0607533"><ele>789.25</ele><time>2026-03-29T07:23:32.076Z</time></trkpt><trkpt lat="43.2871283" lon="12.06087"><ele>791.5</ele><time>2026-03-29T07:23:33.075Z</time></trkpt><trkpt lat="43.2870383" lon="12.06101"><ele>793.75</ele><time>2026-03-29T07:23:34.076Z</time></trkpt><trkpt lat="43.2869617" lon="12.0611633"><ele>796.0</ele><time>2026-03-29T07:23:35.075Z</time></trkpt><trkpt lat="43.286885" lon="12.06133"><ele>796.0</ele><time>2026-03-29T07:23:36.076Z</time></trkpt><trkpt lat="43.2868067" lon="12.0615"><ele>796.0</ele><time>2026-03-29T07:23:37.075Z</time></trkpt><trkpt lat="43.2867267" lon="12.06166"><ele>796.0</ele><time>2026-03-29T07:23:38.076Z</time></trkpt><trkpt lat="43.2866417" lon="12.06182"><ele>796.0</ele><time>2026-03-29T07:23:39.075Z</time></trkpt><trkpt lat="43.2865433" lon="12.0619917"><ele>796.0</ele><time>2026-03-29T07:23:40.076Z</time></trkpt><trkpt lat="43.286445" lon="12.062175"><ele>796.0</ele><time>2026-03-29T07:23:41.075Z</time></trkpt><trkpt lat="43.286355" lon="12.0623533"><ele>796.0</ele><time>2026-03-29T07:23:42.076Z</time></trkpt><trkpt lat="43.2862717" lon="12.06252"><ele>803.0</ele><time>2026-03-29T07:23:43.076Z</time></trkpt><trkpt lat="43.2861767" lon="12.06269"><ele>810.0</ele><time>2026-03-29T07:23:44.076Z</time></trkpt><trkpt lat="43.286085" lon="12.0628617"><ele>817.0</ele><time>2026-03-29T07:23:45.076Z</time></trkpt><trkpt lat="43.2859817" lon="12.0630433"><ele>817.0</ele><time>2026-03-29T07:23:46.075Z</time></trkpt><trkpt lat="43.2858783" lon="12.0632417"><ele>817.0</ele><time>2026-03-29T07:23:47.076Z</time></trkpt><trkpt lat="43.2857783" lon="12.06343"><ele>817.0</ele><time>2026-03-29T07:23:48.076Z</time></trkpt><trkpt lat="43.285695" lon="12.063605"><ele>817.0</ele><time>2026-03-29T07:23:49.076Z</time></trkpt><trkpt lat="43.285615" lon="12.0637733"><ele>817.0</ele><time>2026-03-29T07:23:50.075Z</time></trkpt><trkpt lat="43.2855367" lon="12.063925"><ele>817.0</ele><time>2026-03-29T07:23:51.076Z</time></trkpt><trkpt lat="43.28548" lon="12.064065"><ele>817.0</ele><time>2026-03-29T07:23:52.076Z</time></trkpt><trkpt lat="43.28543" lon="12.0642033"><ele>819.75</ele><time>2026-03-29T07:23:53.076Z</time></trkpt><trkpt lat="43.28539" lon="12.0643717"><ele>822.5</ele><time>2026-03-29T07:23:54.076Z</time></trkpt><trkpt lat="43.2853617" lon="12.0645567"><ele>825.25</ele><time>2026-03-29T07:23:55.076Z</time></trkpt><trkpt lat="43.285335" lon="12.06471"><ele>828.0</ele><time>2026-03-29T07:23:56.075Z</time></trkpt><trkpt lat="43.2853183" lon="12.0648583"><ele>828.25</ele><time>2026-03-29T07:23:57.076Z</time></trkpt><trkpt lat="43.28531" lon="12.0650183"><ele>828.5</ele><time>2026-03-29T07:23:58.075Z</time></trkpt><trkpt lat="43.2853167" lon="12.0651867"><ele>828.75</ele><time>2026-03-29T07:23:59.076Z</time></trkpt><trkpt lat="43.2853467" lon="12.0653917"><ele>829.0</ele><time>2026-03-29T07:24:00.076Z</time></trkpt><trkpt lat="43.2854017" lon="12.065605"><ele>828.25</ele><time>2026-03-29T07:24:01.076Z</time></trkpt><trkpt lat="43.285485" lon="12.0658217"><ele>827.5</ele><time>2026-03-29T07:24:02.076Z</time></trkpt><trkpt lat="43.28553" lon="12.0660133"><ele>826.75</ele><time>2026-03-29T07:24:03.076Z</time></trkpt><trkpt lat="43.2855467" lon="12.0661783"><ele>826.0</ele><time>2026-03-29T07:24:04.075Z</time></trkpt><trkpt lat="43.2855517" lon="12.06633"><ele>826.0</ele><time>2026-03-29T07:24:05.076Z</time></trkpt><trkpt lat="43.2855367" lon="12.0664717"><ele>826.0</ele><time>2026-03-29T07:24:06.076Z</time></trkpt><trkpt lat="43.2855083" lon="12.0666283"><ele>826.0</ele><time>2026-03-29T07:24:07.076Z</time></trkpt><trkpt lat="43.2854533" lon="12.066785"><ele>826.0</ele><time>2026-03-29T07:24:08.075Z</time></trkpt><trkpt lat="43.2853833" lon="12.0669367"><ele>828.25</ele><time>2026-03-29T07:24:09.076Z</time></trkpt><trkpt lat="43.2852967" lon="12.0670733"><ele>830.5</ele><time>2026-03-29T07:24:10.076Z</time></trkpt><trkpt lat="43.2852017" lon="12.067195"><ele>832.75</ele><time>2026-03-29T07:24:11.076Z</time></trkpt><trkpt lat="43.28509" lon="12.0672767"><ele>835.0</ele><time>2026-03-29T07:24:12.076Z</time></trkpt><trkpt lat="43.2849567" lon="12.0673583"><ele>835.0</ele><time>2026-03-29T07:24:13.076Z</time></trkpt><trkpt lat="43.28482" lon="12.067435"><ele>835.0</ele><time>2026-03-29T07:24:14.076Z</time></trkpt><trkpt lat="43.2846933" lon="12.0675217"><ele>835.0</ele><time>2026-03-29T07:24:15.076Z</time></trkpt><trkpt lat="43.284575" lon="12.0676367"><ele>835.0</ele><time>2026-03-29T07:24:16.076Z</time></trkpt><trkpt lat="43.2844633" lon="12.0677917"><ele>836.0</ele><time>2026-03-29T07:24:17.076Z</time></trkpt><trkpt lat="43.2843417" lon="12.067965"><ele>837.0</ele><time>2026-03-29T07:24:18.075Z</time></trkpt><trkpt lat="43.2842317" lon="12.06812"><ele>838.0</ele><time>2026-03-29T07:24:19.075Z</time></trkpt><trkpt lat="43.28413" lon="12.0682767"><ele>836.25</ele><time>2026-03-29T07:24:20.076Z</time></trkpt><trkpt lat="43.2840517" lon="12.06841"><ele>834.5</ele><time>2026-03-29T07:24:21.076Z</time></trkpt><trkpt lat="43.2839867" lon="12.0685383"><ele>832.75</ele><time>2026-03-29T07:24:22.075Z</time></trkpt><trkpt lat="43.2839317" lon="12.06868"><ele>831.0</ele><time>2026-03-29T07:24:23.075Z</time></trkpt><trkpt lat="43.2838833" lon="12.0688433"><ele>831.0</ele><time>2026-03-29T07:24:24.075Z</time></trkpt><trkpt lat="43.2838483" lon="12.069015"><ele>831.0</ele><time>2026-03-29T07:24:25.076Z</time></trkpt><trkpt lat="43.2838183" lon="12.069215"><ele>831.0</ele><time>2026-03-29T07:24:26.075Z</time></trkpt><trkpt lat="43.283795" lon="12.0694383"><ele>831.0</ele><time>2026-03-29T07:24:27.076Z</time></trkpt><trkpt lat="43.2837633" lon="12.0696367"><ele>832.5</ele><time>2026-03-29T07:24:28.076Z</time></trkpt><trkpt lat="43.2837367" lon="12.069825"><ele>834.0</ele><time>2026-03-29T07:24:29.076Z</time></trkpt><trkpt lat="43.2837083" lon="12.0700017"><ele>835.5</ele><time>2026-03-29T07:24:30.076Z</time></trkpt><trkpt lat="43.2836833" lon="12.070155"><ele>837.0</ele><time>2026-03-29T07:24:31.075Z</time></trkpt><trkpt lat="43.2836383" lon="12.0702883"><ele>839.6</ele><time>2026-03-29T07:24:32.076Z</time></trkpt><trkpt lat="43.28357" lon="12.0704117"><ele>842.2</ele><time>2026-03-29T07:24:33.076Z</time></trkpt><trkpt lat="43.2834883" lon="12.0705083"><ele>844.8</ele><time>2026-03-29T07:24:34.076Z</time></trkpt><trkpt lat="43.283395" lon="12.0705717"><ele>847.4</ele><time>2026-03-29T07:24:35.076Z</time></trkpt><trkpt lat="43.2832767" lon="12.070575"><ele>850.0</ele><time>2026-03-29T07:24:36.075Z</time></trkpt><trkpt lat="43.2831217" lon="12.0705567"><ele>847.5</ele><time>2026-03-29T07:24:37.076Z</time></trkpt><trkpt lat="43.2829983" lon="12.07054"><ele>845.0</ele><time>2026-03-29T07:24:38.076Z</time></trkpt><trkpt lat="43.2828767" lon="12.07055"><ele>842.5</ele><time>2026-03-29T07:24:39.076Z</time></trkpt><trkpt lat="43.282765" lon="12.0705633"><ele>840.0</ele><time>2026-03-29T07:24:40.076Z</time></trkpt><trkpt lat="43.282655" lon="12.07062"><ele>840.0</ele><time>2026-03-29T07:24:41.076Z</time></trkpt><trkpt lat="43.2825417" lon="12.0707217"><ele>840.0</ele><time>2026-03-29T07:24:42.076Z</time></trkpt><trkpt lat="43.2824183" lon="12.0708733"><ele>840.0</ele><time>2026-03-29T07:24:43.076Z</time></trkpt><trkpt lat="43.2822983" lon="12.0710233"><ele>841.5</ele><time>2026-03-29T07:24:44.075Z</time></trkpt><trkpt lat="43.2821933" lon="12.0711467"><ele>843.0</ele><time>2026-03-29T07:24:45.076Z</time></trkpt><trkpt lat="43.2821033" lon="12.07127"><ele>844.5</ele><time>2026-03-29T07:24:46.075Z</time></trkpt><trkpt lat="43.2820367" lon="12.0714067"><ele>846.0</ele><time>2026-03-29T07:24:47.075Z</time></trkpt><trkpt lat="43.281975" lon="12.0715617"><ele>848.75</ele><time>2026-03-29T07:24:48.076Z</time></trkpt><trkpt lat="43.281925" lon="12.0717167"><ele>851.5</ele><time>2026-03-29T07:24:49.076Z</time></trkpt><trkpt lat="43.2818883" lon="12.0718883"><ele>854.25</ele><time>2026-03-29T07:24:50.076Z</time></trkpt><trkpt lat="43.2818717" lon="12.0720717"><ele>857.0</ele><time>2026-03-29T07:24:51.075Z</time></trkpt><trkpt lat="43.281875" lon="12.07225"><ele>858.25</ele><time>2026-03-29T07:24:52.075Z</time></trkpt><trkpt lat="43.2818833" lon="12.0724417"><ele>859.5</ele><time>2026-03-29T07:24:53.076Z</time></trkpt><trkpt lat="43.2819017" lon="12.072635"><ele>860.75</ele><time>2026-03-29T07:24:54.076Z</time></trkpt><trkpt lat="43.2819317" lon="12.07281"><ele>862.0</ele><time>2026-03-29T07:24:55.075Z</time></trkpt><trkpt lat="43.281965" lon="12.0729883"><ele>862.0</ele><time>2026-03-29T07:24:56.076Z</time></trkpt><trkpt lat="43.28201" lon="12.0731617"><ele>862.0</ele><time>2026-03-29T07:24:57.076Z</time></trkpt><trkpt lat="43.2820717" lon="12.073325"><ele>862.0</ele><time>2026-03-29T07:24:58.076Z</time></trkpt><trkpt lat="43.2821167" lon="12.073475"><ele>862.0</ele><time>2026-03-29T07:24:59.075Z</time></trkpt><trkpt lat="43.2821533" lon="12.0736117"><ele>861.4000000000001</ele><time>2026-03-29T07:25:00.076Z</time></trkpt><trkpt lat="43.2821567" lon="12.0737367"><ele>860.8000000000001</ele><time>2026-03-29T07:25:01.075Z</time></trkpt><trkpt lat="43.2821333" lon="12.0738583"><ele>860.2</ele><time>2026-03-29T07:25:02.075Z</time></trkpt><trkpt lat="43.282085" lon="12.073995"><ele>859.6</ele><time>2026-03-29T07:25:03.076Z</time></trkpt><trkpt lat="43.2820083" lon="12.07413"><ele>859.0</ele><time>2026-03-29T07:25:04.076Z</time></trkpt><trkpt lat="43.2818983" lon="12.0742683"><ele>862.3333333333333</ele><time>2026-03-29T07:25:05.076Z</time></trkpt><trkpt lat="43.2817483" lon="12.07441"><ele>865.6666666666667</ele><time>2026-03-29T07:25:06.075Z</time></trkpt><trkpt lat="43.28159" lon="12.0745567"><ele>869.0</ele><time>2026-03-29T07:25:07.075Z</time></trkpt><trkpt lat="43.2814517" lon="12.074685"><ele>869.5</ele><time>2026-03-29T07:25:08.076Z</time></trkpt><trkpt lat="43.28134" lon="12.0747917"><ele>870.0</ele><time>2026-03-29T07:25:09.076Z</time></trkpt><trkpt lat="43.2812517" lon="12.07491"><ele>870.5</ele><time>2026-03-29T07:25:10.076Z</time></trkpt><trkpt lat="43.2811883" lon="12.07502"><ele>871.0</ele><time>2026-03-29T07:25:11.076Z</time></trkpt><trkpt lat="43.2811333" lon="12.0751433"><ele>871.0</ele><time>2026-03-29T07:25:12.075Z</time></trkpt><trkpt lat="43.281085" lon="12.07529"><ele>871.0</ele><time>2026-03-29T07:25:13.075Z</time></trkpt><trkpt lat="43.2810467" lon="12.0754483"><ele>871.0</ele><time>2026-03-29T07:25:14.076Z</time></trkpt><trkpt lat="43.2810083" lon="12.0756117"><ele>871.0</ele><time>2026-03-29T07:25:15.076Z</time></trkpt><trkpt lat="43.280975" lon="12.0757867"><ele>872.25</ele><time>2026-03-29T07:25:16.076Z</time></trkpt><trkpt lat="43.280955" lon="12.0759617"><ele>873.5</ele><time>2026-03-29T07:25:17.076Z</time></trkpt><trkpt lat="43.2809517" lon="12.0761517"><ele>874.75</ele><time>2026-03-29T07:25:18.076Z</time></trkpt><trkpt lat="43.2809617" lon="12.0763533"><ele>876.0</ele><time>2026-03-29T07:25:19.075Z</time></trkpt><trkpt lat="43.280975" lon="12.07654"><ele>877.8</ele><time>2026-03-29T07:25:20.076Z</time></trkpt><trkpt lat="43.28096" lon="12.076705"><ele>879.5999999999999</ele><time>2026-03-29T07:25:21.076Z</time></trkpt><trkpt lat="43.2809317" lon="12.0768317"><ele>881.4</ele><time>2026-03-29T07:25:22.076Z</time></trkpt><trkpt lat="43.2808667" lon="12.0769433"><ele>883.2</ele><time>2026-03-29T07:25:23.077Z</time></trkpt><trkpt lat="43.28078" lon="12.0770267"><ele>885.0</ele><time>2026-03-29T07:25:24.077Z</time></trkpt><trkpt lat="43.2806717" lon="12.0770917"><ele>884.25</ele><time>2026-03-29T07:25:25.077Z</time></trkpt><trkpt lat="43.2805517" lon="12.0771483"><ele>883.5</ele><time>2026-03-29T07:25:26.077Z</time></trkpt><trkpt lat="43.28044" lon="12.0772317"><ele>882.75</ele><time>2026-03-29T07:25:27.076Z</time></trkpt><trkpt lat="43.28035" lon="12.0773333"><ele>882.0</ele><time>2026-03-29T07:25:28.076Z</time></trkpt><trkpt lat="43.2802733" lon="12.0774767"><ele>882.0</ele><time>2026-03-29T07:25:29.077Z</time></trkpt><trkpt lat="43.2802217" lon="12.0776317"><ele>882.0</ele><time>2026-03-29T07:25:30.077Z</time></trkpt><trkpt lat="43.2801683" lon="12.0778133"><ele>882.0</ele><time>2026-03-29T07:25:31.077Z</time></trkpt><trkpt lat="43.28013" lon="12.0780067"><ele>882.0</ele><time>2026-03-29T07:25:32.077Z</time></trkpt><trkpt lat="43.28012" lon="12.0781917"><ele>883.0</ele><time>2026-03-29T07:25:33.077Z</time></trkpt><trkpt lat="43.2801233" lon="12.07837"><ele>884.0</ele><time>2026-03-29T07:25:34.076Z</time></trkpt><trkpt lat="43.2801317" lon="12.0785683"><ele>885.0</ele><time>2026-03-29T07:25:35.076Z</time></trkpt><trkpt lat="43.2801567" lon="12.078785"><ele>886.0</ele><time>2026-03-29T07:25:36.077Z</time></trkpt><trkpt lat="43.2801733" lon="12.078985"><ele>886.8</ele><time>2026-03-29T07:25:37.077Z</time></trkpt><trkpt lat="43.2801783" lon="12.0791667"><ele>887.5999999999999</ele><time>2026-03-29T07:25:38.076Z</time></trkpt><trkpt lat="43.2801867" lon="12.0793233"><ele>888.4</ele><time>2026-03-29T07:25:39.077Z</time></trkpt><trkpt lat="43.28019" lon="12.0794483"><ele>889.2</ele><time>2026-03-29T07:25:40.076Z</time></trkpt><trkpt lat="43.2801533" lon="12.079555"><ele>890.0</ele><time>2026-03-29T07:25:42.077Z</time></trkpt><trkpt lat="43.280085" lon="12.07948"><ele>890.0</ele><time>2026-03-29T07:25:44.077Z</time></trkpt><trkpt lat="43.2800383" lon="12.07937"><ele>890.0</ele><time>2026-03-29T07:25:45.076Z</time></trkpt><trkpt lat="43.2799783" lon="12.0792333"><ele>890.0</ele><time>2026-03-29T07:25:46.076Z</time></trkpt><trkpt lat="43.279905" lon="12.0791183"><ele>890.0</ele><time>2026-03-29T07:25:47.077Z</time></trkpt><trkpt lat="43.279835" lon="12.07902"><ele>890.0</ele><time>2026-03-29T07:25:48.077Z</time></trkpt><trkpt lat="43.279765" lon="12.0789333"><ele>887.0000000000001</ele><time>2026-03-29T07:25:49.077Z</time></trkpt><trkpt lat="43.2797" lon="12.07885"><ele>884.0</ele><time>2026-03-29T07:25:50.077Z</time></trkpt><trkpt lat="43.2796417" lon="12.0787767"><ele>881.0</ele><time>2026-03-29T07:25:51.077Z</time></trkpt><trkpt lat="43.2795883" lon="12.07871"><ele>878.0</ele><time>2026-03-29T07:25:52.076Z</time></trkpt><trkpt lat="43.2795217" lon="12.078635"><ele>875.0000000000001</ele><time>2026-03-29T07:25:53.077Z</time></trkpt><trkpt lat="43.2794583" lon="12.0785633"><ele>872.0</ele><time>2026-03-29T07:25:54.077Z</time></trkpt><trkpt lat="43.2793983" lon="12.0784967"><ele>872.0</ele><time>2026-03-29T07:25:55.076Z</time></trkpt><trkpt lat="43.2793517" lon="12.0784267"><ele>872.0</ele><time>2026-03-29T07:25:56.077Z</time></trkpt><trkpt lat="43.2793267" lon="12.0783417"><ele>872.0</ele><time>2026-03-29T07:25:57.077Z</time></trkpt><trkpt lat="43.2793417" lon="12.0781917"><ele>872.0</ele><time>2026-03-29T07:25:59.077Z</time></trkpt><trkpt lat="43.27942" lon="12.0781233"><ele>872.0</ele><time>2026-03-29T07:26:01.076Z</time></trkpt><trkpt lat="43.2795333" lon="12.0781"><ele>870.1666666666667</ele><time>2026-03-29T07:26:03.077Z</time></trkpt><trkpt lat="43.2796267" lon="12.0779917"><ele>868.3333333333334</ele><time>2026-03-29T07:26:05.077Z</time></trkpt><trkpt lat="43.2796417" lon="12.07785"><ele>866.5</ele><time>2026-03-29T07:26:07.077Z</time></trkpt><trkpt lat="43.279615" lon="12.0777683"><ele>864.6666666666667</ele><time>2026-03-29T07:26:08.077Z</time></trkpt><trkpt lat="43.2795833" lon="12.0776833"><ele>862.8333333333334</ele><time>2026-03-29T07:26:09.076Z</time></trkpt><trkpt lat="43.2795517" lon="12.0775983"><ele>861.0</ele><time>2026-03-29T07:26:10.077Z</time></trkpt><trkpt lat="43.2795183" lon="12.0775117"><ele>859.7142857142857</ele><time>2026-03-29T07:26:11.077Z</time></trkpt><trkpt lat="43.279485" lon="12.0774183"><ele>858.4285714285714</ele><time>2026-03-29T07:26:12.077Z</time></trkpt><trkpt lat="43.27945" lon="12.0773333"><ele>857.1428571428571</ele><time>2026-03-29T07:26:13.076Z</time></trkpt><trkpt lat="43.2794183" lon="12.077245"><ele>855.8571428571429</ele><time>2026-03-29T07:26:14.077Z</time></trkpt><trkpt lat="43.2793967" lon="12.07716"><ele>854.5714285714286</ele><time>2026-03-29T07:26:15.076Z</time></trkpt><trkpt lat="43.279375" lon="12.0770683"><ele>853.2857142857142</ele><time>2026-03-29T07:26:16.077Z</time></trkpt><trkpt lat="43.2793583" lon="12.07698"><ele>852.0</ele><time>2026-03-29T07:26:17.077Z</time></trkpt><trkpt lat="43.27935" lon="12.0768933"><ele>852.0</ele><time>2026-03-29T07:26:18.076Z</time></trkpt><trkpt lat="43.2793483" lon="12.0767183"><ele>852.0</ele><time>2026-03-29T07:26:20.077Z</time></trkpt><trkpt lat="43.2793617" lon="12.07655"><ele>852.0</ele><time>2026-03-29T07:26:22.076Z</time></trkpt><trkpt lat="43.2794067" lon="12.0763917"><ele>852.0</ele><time>2026-03-29T07:26:24.077Z</time></trkpt><trkpt lat="43.2794417" lon="12.0763083"><ele>852.0</ele><time>2026-03-29T07:26:25.076Z</time></trkpt><trkpt lat="43.2794833" lon="12.0762283"><ele>851.0</ele><time>2026-03-29T07:26:26.077Z</time></trkpt><trkpt lat="43.27952" lon="12.076155"><ele>850.0</ele><time>2026-03-29T07:26:27.077Z</time></trkpt><trkpt lat="43.2796117" lon="12.07601"><ele>849.0</ele><time>2026-03-29T07:26:29.077Z</time></trkpt><trkpt lat="43.2796583" lon="12.075935"><ele>848.0</ele><time>2026-03-29T07:26:30.077Z</time></trkpt><trkpt lat="43.2797083" lon="12.0758583"><ele>847.0</ele><time>2026-03-29T07:26:31.077Z</time></trkpt><trkpt lat="43.279755" lon="12.0757817"><ele>846.0</ele><time>2026-03-29T07:26:32.077Z</time></trkpt><trkpt lat="43.2798" lon="12.0757"><ele>846.0</ele><time>2026-03-29T07:26:33.076Z</time></trkpt><trkpt lat="43.279835" lon="12.075615"><ele>846.0</ele><time>2026-03-29T07:26:34.077Z</time></trkpt><trkpt lat="43.2798633" lon="12.0754733"><ele>846.0</ele><time>2026-03-29T07:26:36.077Z</time></trkpt><trkpt lat="43.2798367" lon="12.07532"><ele>846.0</ele><time>2026-03-29T07:26:38.076Z</time></trkpt><trkpt lat="43.27981" lon="12.075205"><ele>846.0</ele><time>2026-03-29T07:26:40.077Z</time></trkpt><trkpt lat="43.27974" lon="12.0751933"><ele>842.0</ele><time>2026-03-29T07:26:42.077Z</time></trkpt><trkpt lat="43.2796767" lon="12.07529"><ele>838.0</ele><time>2026-03-29T07:26:44.077Z</time></trkpt><trkpt lat="43.279575" lon="12.0753683"><ele>834.0</ele><time>2026-03-29T07:26:46.077Z</time></trkpt><trkpt lat="43.2795067" lon="12.07538"><ele>830.0</ele><time>2026-03-29T07:26:47.076Z</time></trkpt><trkpt lat="43.2794367" lon="12.0753817"><ele>826.0</ele><time>2026-03-29T07:26:48.077Z</time></trkpt><trkpt lat="43.2793133" lon="12.075375"><ele>826.0</ele><time>2026-03-29T07:26:50.077Z</time></trkpt><trkpt lat="43.2791983" lon="12.07537"><ele>826.0</ele><time>2026-03-29T07:26:52.077Z</time></trkpt><trkpt lat="43.2790833" lon="12.0753917"><ele>826.0</ele><time>2026-03-29T07:26:54.077Z</time></trkpt><trkpt lat="43.2789783" lon="12.0754433"><ele>826.0</ele><time>2026-03-29T07:26:56.076Z</time></trkpt><trkpt lat="43.2788717" lon="12.0755183"><ele>824.6666666666666</ele><time>2026-03-29T07:26:58.076Z</time></trkpt><trkpt lat="43.27882" lon="12.0755683"><ele>823.3333333333333</ele><time>2026-03-29T07:26:59.076Z</time></trkpt><trkpt lat="43.2787" lon="12.0756867"><ele>822.0</ele><time>2026-03-29T07:27:01.077Z</time></trkpt><trkpt lat="43.2786383" lon="12.07575"><ele>820.6666666666667</ele><time>2026-03-29T07:27:02.077Z</time></trkpt><trkpt lat="43.278575" lon="12.0758133"><ele>819.3333333333334</ele><time>2026-03-29T07:27:03.076Z</time></trkpt><trkpt lat="43.27852" lon="12.0758867"><ele>818.0</ele><time>2026-03-29T07:27:04.077Z</time></trkpt><trkpt lat="43.27845" lon="12.07602"><ele>818.0000000000001</ele><time>2026-03-29T07:27:06.076Z</time></trkpt><trkpt lat="43.2783483" lon="12.07611"><ele>818.0</ele><time>2026-03-29T07:27:08.077Z</time></trkpt><trkpt lat="43.2782783" lon="12.0761117"><ele>818.0</ele><time>2026-03-29T07:27:09.077Z</time></trkpt><trkpt lat="43.27821" lon="12.0761067"><ele>818.0</ele><time>2026-03-29T07:27:10.077Z</time></trkpt><trkpt lat="43.2781167" lon="12.0761367"><ele>818.0000000000001</ele><time>2026-03-29T07:27:12.077Z</time></trkpt><trkpt lat="43.27807" lon="12.07624"><ele>818.0</ele><time>2026-03-29T07:27:14.076Z</time></trkpt><trkpt lat="43.278085" lon="12.0763967"><ele>818.0000000000001</ele><time>2026-03-29T07:27:16.077Z</time></trkpt><trkpt lat="43.2781067" lon="12.0764917"><ele>818.0</ele><time>2026-03-29T07:27:17.077Z</time></trkpt><trkpt lat="43.27812" lon="12.076615"><ele>818.0</ele><time>2026-03-29T07:27:19.076Z</time></trkpt><trkpt lat="43.2780233" lon="12.0766267"><ele>818.0</ele><time>2026-03-29T07:27:21.076Z</time></trkpt><trkpt lat="43.2779467" lon="12.0766083"><ele>818.0000000000001</ele><time>2026-03-29T07:27:22.077Z</time></trkpt><trkpt lat="43.2778583" lon="12.0765883"><ele>818.0</ele><time>2026-03-29T07:27:23.077Z</time></trkpt><trkpt lat="43.2777767" lon="12.076575"><ele>817.5000000000001</ele><time>2026-03-29T07:27:24.076Z</time></trkpt><trkpt lat="43.2777033" lon="12.0765633"><ele>817.0</ele><time>2026-03-29T07:27:25.077Z</time></trkpt><trkpt lat="43.2776283" lon="12.0765567"><ele>816.5</ele><time>2026-03-29T07:27:26.076Z</time></trkpt><trkpt lat="43.2775483" lon="12.0765667"><ele>816.0</ele><time>2026-03-29T07:27:27.076Z</time></trkpt><trkpt lat="43.2774783" lon="12.0765883"><ele>815.5000000000001</ele><time>2026-03-29T07:27:28.077Z</time></trkpt><trkpt lat="43.2774033" lon="12.0766217"><ele>815.0</ele><time>2026-03-29T07:27:29.076Z</time></trkpt><trkpt lat="43.2773167" lon="12.07666"><ele>812.8333333333334</ele><time>2026-03-29T07:27:30.077Z</time></trkpt><trkpt lat="43.2772267" lon="12.076675"><ele>810.6666666666667</ele><time>2026-03-29T07:27:31.077Z</time></trkpt><trkpt lat="43.27714" lon="12.076695"><ele>808.5</ele><time>2026-03-29T07:27:32.076Z</time></trkpt><trkpt lat="43.2770567" lon="12.0767017"><ele>806.3333333333333</ele><time>2026-03-29T07:27:33.077Z</time></trkpt><trkpt lat="43.2769733" lon="12.0767033"><ele>804.1666666666666</ele><time>2026-03-29T07:27:34.077Z</time></trkpt><trkpt lat="43.2768983" lon="12.0767167"><ele>802.0</ele><time>2026-03-29T07:27:35.077Z</time></trkpt><trkpt lat="43.2768333" lon="12.0767383"><ele>801.9999999999999</ele><time>2026-03-29T07:27:36.076Z</time></trkpt><trkpt lat="43.2767733" lon="12.07677"><ele>802.0</ele><time>2026-03-29T07:27:37.076Z</time></trkpt><trkpt lat="43.2767067" lon="12.0768217"><ele>802.0</ele><time>2026-03-29T07:27:38.076Z</time></trkpt><trkpt lat="43.2766283" lon="12.0768867"><ele>802.0</ele><time>2026-03-29T07:27:39.076Z</time></trkpt><trkpt lat="43.27656" lon="12.076945"><ele>801.9999999999999</ele><time>2026-03-29T07:27:40.077Z</time></trkpt><trkpt lat="43.27649" lon="12.0770083"><ele>802.0</ele><time>2026-03-29T07:27:41.077Z</time></trkpt><trkpt lat="43.2764333" lon="12.0770717"><ele>800.4999999999999</ele><time>2026-03-29T07:27:42.077Z</time></trkpt><trkpt lat="43.2763783" lon="12.077135"><ele>799.0</ele><time>2026-03-29T07:27:43.077Z</time></trkpt><trkpt lat="43.2763317" lon="12.0772033"><ele>797.5</ele><time>2026-03-29T07:27:44.077Z</time></trkpt><trkpt lat="43.2762583" lon="12.0773217"><ele>796.0</ele><time>2026-03-29T07:27:46.077Z</time></trkpt><trkpt lat="43.27619" lon="12.0773883"><ele>794.4999999999999</ele><time>2026-03-29T07:27:48.077Z</time></trkpt><trkpt lat="43.276115" lon="12.0773867"><ele>793.0</ele><time>2026-03-29T07:27:51.077Z</time></trkpt><trkpt lat="43.2760617" lon="12.0773367"><ele>793.0</ele><time>2026-03-29T07:27:53.077Z</time></trkpt><trkpt lat="43.2760067" lon="12.0772683"><ele>793.0</ele><time>2026-03-29T07:27:55.076Z</time></trkpt><trkpt lat="43.27593" lon="12.0771933"><ele>793.0</ele><time>2026-03-29T07:27:57.077Z</time></trkpt><trkpt lat="43.2758483" lon="12.0771267"><ele>793.0</ele><time>2026-03-29T07:27:59.076Z</time></trkpt><trkpt lat="43.2757467" lon="12.077065"><ele>793.0</ele><time>2026-03-29T07:28:01.076Z</time></trkpt><trkpt lat="43.2756283" lon="12.0770267"><ele>792.8</ele><time>2026-03-29T07:28:03.076Z</time></trkpt><trkpt lat="43.275565" lon="12.077025"><ele>792.5999999999999</ele><time>2026-03-29T07:28:04.077Z</time></trkpt><trkpt lat="43.2754483" lon="12.0770433"><ele>792.4000000000001</ele><time>2026-03-29T07:28:06.077Z</time></trkpt><trkpt lat="43.2753133" lon="12.077075"><ele>792.2</ele><time>2026-03-29T07:28:08.077Z</time></trkpt><trkpt lat="43.2752417" lon="12.0771067"><ele>792.0</ele><time>2026-03-29T07:28:09.077Z</time></trkpt><trkpt lat="43.2751817" lon="12.07714"><ele>792.0</ele><time>2026-03-29T07:28:10.077Z</time></trkpt><trkpt lat="43.2751183" lon="12.0771733"><ele>792.0</ele><time>2026-03-29T07:28:11.077Z</time></trkpt><trkpt lat="43.275055" lon="12.0772067"><ele>792.0</ele><time>2026-03-29T07:28:12.077Z</time></trkpt><trkpt lat="43.274995" lon="12.0772467"><ele>792.0</ele><time>2026-03-29T07:28:13.077Z</time></trkpt><trkpt lat="43.2749" lon="12.0773283"><ele>792.0</ele><time>2026-03-29T07:28:15.077Z</time></trkpt><trkpt lat="43.27481" lon="12.07744"><ele>792.0</ele><time>2026-03-29T07:28:17.077Z</time></trkpt><trkpt lat="43.2747583" lon="12.0775067"><ele>791.8333333333334</ele><time>2026-03-29T07:28:18.077Z</time></trkpt><trkpt lat="43.2746767" lon="12.0776517"><ele>791.6666666666667</ele><time>2026-03-29T07:28:20.077Z</time></trkpt><trkpt lat="43.27465" lon="12.0777383"><ele>791.5</ele><time>2026-03-29T07:28:21.077Z</time></trkpt><trkpt lat="43.274615" lon="12.0778367"><ele>791.3333333333334</ele><time>2026-03-29T07:28:22.076Z</time></trkpt><trkpt lat="43.2745983" lon="12.0779317"><ele>791.1666666666667</ele><time>2026-03-29T07:28:23.076Z</time></trkpt><trkpt lat="43.2745833" lon="12.0780283"><ele>791.0</ele><time>2026-03-29T07:28:24.077Z</time></trkpt><trkpt lat="43.2745517" lon="12.07811"><ele>791.0000000000001</ele><time>2026-03-29T07:28:25.077Z</time></trkpt><trkpt lat="43.2744983" lon="12.0782617"><ele>791.0</ele><time>2026-03-29T07:28:27.077Z</time></trkpt><trkpt lat="43.274455" lon="12.0783483"><ele>791.0</ele><time>2026-03-29T07:28:28.077Z</time></trkpt><trkpt lat="43.2744267" lon="12.0784333"><ele>791.0</ele><time>2026-03-29T07:28:29.077Z</time></trkpt><trkpt lat="43.274415" lon="12.0785317"><ele>791.0000000000001</ele><time>2026-03-29T07:28:30.077Z</time></trkpt><trkpt lat="43.274405" lon="12.078635"><ele>791.0</ele><time>2026-03-29T07:28:31.077Z</time></trkpt><trkpt lat="43.274415" lon="12.0787467"><ele>792.4</ele><time>2026-03-29T07:28:32.077Z</time></trkpt><trkpt lat="43.2744217" lon="12.0788717"><ele>793.8</ele><time>2026-03-29T07:28:33.077Z</time></trkpt><trkpt lat="43.2744133" lon="12.0790117"><ele>795.1999999999999</ele><time>2026-03-29T07:28:34.077Z</time></trkpt><trkpt lat="43.2744083" lon="12.079135"><ele>796.5999999999999</ele><time>2026-03-29T07:28:35.076Z</time></trkpt><trkpt lat="43.2744083" lon="12.0792533"><ele>798.0</ele><time>2026-03-29T07:28:36.076Z</time></trkpt><trkpt lat="43.274415" lon="12.0793633"><ele>799.4</ele><time>2026-03-29T07:28:37.076Z</time></trkpt><trkpt lat="43.2744317" lon="12.0794633"><ele>800.8</ele><time>2026-03-29T07:28:38.077Z</time></trkpt><trkpt lat="43.2744633" lon="12.0796267"><ele>802.2</ele><time>2026-03-29T07:28:40.077Z</time></trkpt><trkpt lat="43.2744483" lon="12.0797333"><ele>803.6</ele><time>2026-03-29T07:28:42.077Z</time></trkpt><trkpt lat="43.2743433" lon="12.0797117"><ele>805.0</ele><time>2026-03-29T07:28:44.077Z</time></trkpt><trkpt lat="43.2742583" lon="12.0796283"><ele>804.9999999999999</ele><time>2026-03-29T07:28:45.077Z</time></trkpt><trkpt lat="43.2741817" lon="12.0795533"><ele>805.0</ele><time>2026-03-29T07:28:46.077Z</time></trkpt><trkpt lat="43.2741083" lon="12.0794883"><ele>805.0</ele><time>2026-03-29T07:28:47.076Z</time></trkpt><trkpt lat="43.2740533" lon="12.0794417"><ele>805.0</ele><time>2026-03-29T07:28:48.077Z</time></trkpt><trkpt lat="43.2739617" lon="12.07939"><ele>804.9999999999999</ele><time>2026-03-29T07:28:50.077Z</time></trkpt><trkpt lat="43.27389" lon="12.0793883"><ele>805.0</ele><time>2026-03-29T07:28:52.077Z</time></trkpt><trkpt lat="43.2738133" lon="12.0794233"><ele>800.8</ele><time>2026-03-29T07:28:54.077Z</time></trkpt><trkpt lat="43.273725" lon="12.0795133"><ele>796.6</ele><time>2026-03-29T07:28:56.077Z</time></trkpt><trkpt lat="43.2736517" lon="12.07961"><ele>792.4000000000001</ele><time>2026-03-29T07:28:58.077Z</time></trkpt><trkpt lat="43.27357" lon="12.079725"><ele>788.2</ele><time>2026-03-29T07:29:00.077Z</time></trkpt><trkpt lat="43.27351" lon="12.079785"><ele>784.0</ele><time>2026-03-29T07:29:01.076Z</time></trkpt><trkpt lat="43.2734517" lon="12.0798383"><ele>784.0</ele><time>2026-03-29T07:29:02.076Z</time></trkpt><trkpt lat="43.2733833" lon="12.079895"><ele>784.0</ele><time>2026-03-29T07:29:03.077Z</time></trkpt><trkpt lat="43.2733183" lon="12.079945"><ele>784.0</ele><time>2026-03-29T07:29:04.076Z</time></trkpt><trkpt lat="43.27321" lon="12.08003"><ele>784.0</ele><time>2026-03-29T07:29:06.077Z</time></trkpt><trkpt lat="43.27311" lon="12.08012"><ele>784.0</ele><time>2026-03-29T07:29:08.076Z</time></trkpt><trkpt lat="43.273055" lon="12.0801733"><ele>782.2</ele><time>2026-03-29T07:29:09.077Z</time></trkpt><trkpt lat="43.2729667" lon="12.0802783"><ele>780.4000000000001</ele><time>2026-03-29T07:29:11.076Z</time></trkpt><trkpt lat="43.2728967" lon="12.080355"><ele>778.6</ele><time>2026-03-29T07:29:13.076Z</time></trkpt><trkpt lat="43.27286" lon="12.0804483"><ele>776.8</ele><time>2026-03-29T07:29:15.077Z</time></trkpt><trkpt lat="43.27281" lon="12.080565"><ele>775.0</ele><time>2026-03-29T07:29:17.076Z</time></trkpt><trkpt lat="43.2727617" lon="12.080705"><ele>777.0</ele><time>2026-03-29T07:29:19.077Z</time></trkpt><trkpt lat="43.2727067" lon="12.0808433"><ele>779.0</ele><time>2026-03-29T07:29:21.077Z</time></trkpt><trkpt lat="43.27267" lon="12.0809183"><ele>781.0</ele><time>2026-03-29T07:29:22.077Z</time></trkpt><trkpt lat="43.2725917" lon="12.0810317"><ele>783.0</ele><time>2026-03-29T07:29:24.076Z</time></trkpt><trkpt lat="43.2725067" lon="12.0811333"><ele>785.0</ele><time>2026-03-29T07:29:26.077Z</time></trkpt><trkpt lat="43.2724483" lon="12.0811833"><ele>785.0000000000001</ele><time>2026-03-29T07:29:27.077Z</time></trkpt><trkpt lat="43.27239" lon="12.08123"><ele>785.0</ele><time>2026-03-29T07:29:28.077Z</time></trkpt><trkpt lat="43.272335" lon="12.081275"><ele>785.0</ele><time>2026-03-29T07:29:29.077Z</time></trkpt><trkpt lat="43.272225" lon="12.0813367"><ele>785.0</ele><time>2026-03-29T07:29:31.076Z</time></trkpt><trkpt lat="43.2721667" lon="12.08137"><ele>785.0000000000001</ele><time>2026-03-29T07:29:32.076Z</time></trkpt><trkpt lat="43.2720483" lon="12.0814433"><ele>785.0</ele><time>2026-03-29T07:29:34.076Z</time></trkpt><trkpt lat="43.2719483" lon="12.081535"><ele>783.3333333333334</ele><time>2026-03-29T07:29:36.077Z</time></trkpt><trkpt lat="43.27188" lon="12.0816367"><ele>781.6666666666667</ele><time>2026-03-29T07:29:38.077Z</time></trkpt><trkpt lat="43.2718333" lon="12.0817183"><ele>780.0</ele><time>2026-03-29T07:29:40.076Z</time></trkpt><trkpt lat="43.271825" lon="12.081815"><ele>778.3333333333333</ele><time>2026-03-29T07:29:42.077Z</time></trkpt><trkpt lat="43.27185" lon="12.081925"><ele>776.6666666666666</ele><time>2026-03-29T07:29:44.076Z</time></trkpt><trkpt lat="43.2718917" lon="12.08206"><ele>775.0</ele><time>2026-03-29T07:29:46.076Z</time></trkpt><trkpt lat="43.2719533" lon="12.0821967"><ele>775.0</ele><time>2026-03-29T07:29:48.077Z</time></trkpt><trkpt lat="43.271995" lon="12.0823383"><ele>775.0</ele><time>2026-03-29T07:29:50.076Z</time></trkpt><trkpt lat="43.2720083" lon="12.0824733"><ele>775.0</ele><time>2026-03-29T07:29:52.077Z</time></trkpt><trkpt lat="43.2719933" lon="12.08262"><ele>775.0</ele><time>2026-03-29T07:29:54.077Z</time></trkpt><trkpt lat="43.2719383" lon="12.0827367"><ele>775.0</ele><time>2026-03-29T07:29:56.077Z</time></trkpt><trkpt lat="43.2718417" lon="12.08284"><ele>775.1666666666666</ele><time>2026-03-29T07:29:58.077Z</time></trkpt><trkpt lat="43.2717833" lon="12.0829033"><ele>775.3333333333333</ele><time>2026-03-29T07:29:59.077Z</time></trkpt><trkpt lat="43.271725" lon="12.082955"><ele>775.5</ele><time>2026-03-29T07:30:00.077Z</time></trkpt><trkpt lat="43.2716633" lon="12.0830117"><ele>775.6666666666667</ele><time>2026-03-29T07:30:01.076Z</time></trkpt><trkpt lat="43.271575" lon="12.0831033"><ele>775.8333333333334</ele><time>2026-03-29T07:30:03.076Z</time></trkpt><trkpt lat="43.2714967" lon="12.0831917"><ele>776.0</ele><time>2026-03-29T07:30:05.076Z</time></trkpt><trkpt lat="43.2714533" lon="12.0832933"><ele>775.1666666666667</ele><time>2026-03-29T07:30:07.077Z</time></trkpt><trkpt lat="43.2714767" lon="12.0834517"><ele>774.3333333333334</ele><time>2026-03-29T07:30:09.077Z</time></trkpt><trkpt lat="43.2714967" lon="12.083535"><ele>773.5</ele><time>2026-03-29T07:30:10.076Z</time></trkpt><trkpt lat="43.2715083" lon="12.083625"><ele>772.6666666666667</ele><time>2026-03-29T07:30:11.077Z</time></trkpt><trkpt lat="43.2715283" lon="12.0837933"><ele>771.8333333333334</ele><time>2026-03-29T07:30:13.077Z</time></trkpt><trkpt lat="43.27153" lon="12.0838917"><ele>771.0</ele><time>2026-03-29T07:30:14.077Z</time></trkpt><trkpt lat="43.2715133" lon="12.0839933"><ele>771.0</ele><time>2026-03-29T07:30:15.076Z</time></trkpt><trkpt lat="43.2714933" lon="12.0840867"><ele>771.0</ele><time>2026-03-29T07:30:16.077Z</time></trkpt><trkpt lat="43.2714367" lon="12.08423"><ele>771.0</ele><time>2026-03-29T07:30:18.077Z</time></trkpt><trkpt lat="43.27139" lon="12.0842967"><ele>771.0</ele><time>2026-03-29T07:30:19.077Z</time></trkpt><trkpt lat="43.2713383" lon="12.084365"><ele>771.0</ele><time>2026-03-29T07:30:20.077Z</time></trkpt><trkpt lat="43.271285" lon="12.0844217"><ele>771.0</ele><time>2026-03-29T07:30:21.077Z</time></trkpt><trkpt lat="43.2712267" lon="12.0844717"><ele>765.4</ele><time>2026-03-29T07:30:22.077Z</time></trkpt><trkpt lat="43.2711183" lon="12.0845267"><ele>759.8</ele><time>2026-03-29T07:30:24.077Z</time></trkpt><trkpt lat="43.2710417" lon="12.0845483"><ele>754.1999999999999</ele><time>2026-03-29T07:30:26.077Z</time></trkpt><trkpt lat="43.270975" lon="12.0845433"><ele>748.5999999999999</ele><time>2026-03-29T07:30:28.077Z</time></trkpt><trkpt lat="43.2708917" lon="12.08452"><ele>743.0</ele><time>2026-03-29T07:30:30.077Z</time></trkpt><trkpt lat="43.2707833" lon="12.08454"><ele>743.0</ele><time>2026-03-29T07:30:32.077Z</time></trkpt><trkpt lat="43.2707167" lon="12.0845733"><ele>743.0</ele><time>2026-03-29T07:30:33.077Z</time></trkpt><trkpt lat="43.270655" lon="12.084605"><ele>743.0</ele><time>2026-03-29T07:30:34.077Z</time></trkpt><trkpt lat="43.2705967" lon="12.0846433"><ele>743.0</ele><time>2026-03-29T07:30:35.077Z</time></trkpt><trkpt lat="43.270525" lon="12.084695"><ele>743.0</ele><time>2026-03-29T07:30:36.077Z</time></trkpt><trkpt lat="43.2704533" lon="12.0847333"><ele>743.0</ele><time>2026-03-29T07:30:37.076Z</time></trkpt><trkpt lat="43.2703733" lon="12.0847667"><ele>743.0</ele><time>2026-03-29T07:30:38.077Z</time></trkpt><trkpt lat="43.270295" lon="12.084785"><ele>741.4</ele><time>2026-03-29T07:30:39.077Z</time></trkpt><trkpt lat="43.2701917" lon="12.08483"><ele>739.8</ele><time>2026-03-29T07:30:41.076Z</time></trkpt><trkpt lat="43.2701283" lon="12.0848983"><ele>738.2</ele><time>2026-03-29T07:30:43.077Z</time></trkpt><trkpt lat="43.2700883" lon="12.08498"><ele>736.6</ele><time>2026-03-29T07:30:45.077Z</time></trkpt><trkpt lat="43.2700133" lon="12.0850583"><ele>735.0</ele><time>2026-03-29T07:30:47.077Z</time></trkpt><trkpt lat="43.2699183" lon="12.0850667"><ele>735.0</ele><time>2026-03-29T07:30:49.077Z</time></trkpt><trkpt lat="43.26981" lon="12.0850667"><ele>735.0</ele><time>2026-03-29T07:30:51.077Z</time></trkpt><trkpt lat="43.2696983" lon="12.0850533"><ele>735.0</ele><time>2026-03-29T07:30:53.077Z</time></trkpt><trkpt lat="43.2695767" lon="12.0850683"><ele>735.0</ele><time>2026-03-29T07:30:55.076Z</time></trkpt><trkpt lat="43.2694667" lon="12.0851067"><ele>731.0</ele><time>2026-03-29T07:30:57.077Z</time></trkpt><trkpt lat="43.2694" lon="12.0850783"><ele>727.0</ele><time>2026-03-29T07:30:59.078Z</time></trkpt><trkpt lat="43.2694017" lon="12.0849833"><ele>723.0</ele><time>2026-03-29T07:31:01.078Z</time></trkpt><trkpt lat="43.2694483" lon="12.084925"><ele>719.0</ele><time>2026-03-29T07:31:03.078Z</time></trkpt><trkpt lat="43.26948" lon="12.084835"><ele>715.0</ele><time>2026-03-29T07:31:06.077Z</time></trkpt><trkpt lat="43.269425" lon="12.0847717"><ele>711.0</ele><time>2026-03-29T07:31:08.078Z</time></trkpt><trkpt lat="43.269325" lon="12.0847483"><ele>707.0</ele><time>2026-03-29T07:31:10.078Z</time></trkpt><trkpt lat="43.2692217" lon="12.084785"><ele>704.8</ele><time>2026-03-29T07:31:12.078Z</time></trkpt><trkpt lat="43.269115" lon="12.0848317"><ele>702.6</ele><time>2026-03-29T07:31:14.078Z</time></trkpt><trkpt lat="43.269025" lon="12.0848233"><ele>700.4</ele><time>2026-03-29T07:31:16.078Z</time></trkpt><trkpt lat="43.2689933" lon="12.0847417"><ele>698.1999999999999</ele><time>2026-03-29T07:31:18.077Z</time></trkpt><trkpt lat="43.2690383" lon="12.0846433"><ele>696.0</ele><time>2026-03-29T07:31:20.077Z</time></trkpt><trkpt lat="43.2691133" lon="12.08455"><ele>696.0</ele><time>2026-03-29T07:31:22.078Z</time></trkpt><trkpt lat="43.2691833" lon="12.084475"><ele>696.0</ele><time>2026-03-29T07:31:24.077Z</time></trkpt><trkpt lat="43.2692483" lon="12.0844083"><ele>696.0</ele><time>2026-03-29T07:31:26.078Z</time></trkpt><trkpt lat="43.2693117" lon="12.0843217"><ele>696.0</ele><time>2026-03-29T07:31:28.078Z</time></trkpt><trkpt lat="43.26938" lon="12.08424"><ele>696.0</ele><time>2026-03-29T07:31:30.077Z</time></trkpt><trkpt lat="43.2694217" lon="12.0841483"><ele>696.0</ele><time>2026-03-29T07:31:32.078Z</time></trkpt><trkpt lat="43.269475" lon="12.0840617"><ele>695.5</ele><time>2026-03-29T07:31:35.078Z</time></trkpt><trkpt lat="43.269555" lon="12.08404"><ele>695.0</ele><time>2026-03-29T07:31:38.078Z</time></trkpt><trkpt lat="43.26962" lon="12.0840033"><ele>694.5</ele><time>2026-03-29T07:31:41.077Z</time></trkpt><trkpt lat="43.2696817" lon="12.0839317"><ele>694.0</ele><time>2026-03-29T07:31:45.078Z</time></trkpt><trkpt lat="43.2697283" lon="12.0838567"><ele>693.5</ele><time>2026-03-29T07:31:47.078Z</time></trkpt><trkpt lat="43.2697667" lon="12.0837617"><ele>693.0</ele><time>2026-03-29T07:31:49.078Z</time></trkpt><trkpt lat="43.2697817" lon="12.083665"><ele>693.0</ele><time>2026-03-29T07:31:51.077Z</time></trkpt><trkpt lat="43.26979" lon="12.0835233"><ele>693.0</ele><time>2026-03-29T07:31:53.077Z</time></trkpt><trkpt lat="43.2697667" lon="12.0834383"><ele>693.0</ele><time>2026-03-29T07:31:54.078Z</time></trkpt><trkpt lat="43.2697017" lon="12.0832967"><ele>693.0</ele><time>2026-03-29T07:31:56.078Z</time></trkpt><trkpt lat="43.26968" lon="12.0831433"><ele>693.0</ele><time>2026-03-29T07:31:58.078Z</time></trkpt><trkpt lat="43.2697067" lon="12.0829817"><ele>693.5999999999999</ele><time>2026-03-29T07:32:00.078Z</time></trkpt><trkpt lat="43.269725" lon="12.0828983"><ele>694.1999999999999</ele><time>2026-03-29T07:32:01.078Z</time></trkpt><trkpt lat="43.2697083" lon="12.0827617"><ele>694.8</ele><time>2026-03-29T07:32:03.078Z</time></trkpt><trkpt lat="43.269645" lon="12.0826517"><ele>695.4</ele><time>2026-03-29T07:32:05.078Z</time></trkpt><trkpt lat="43.2695733" lon="12.0825367"><ele>696.0</ele><time>2026-03-29T07:32:07.078Z</time></trkpt><trkpt lat="43.2695617" lon="12.0824183"><ele>693.8333333333334</ele><time>2026-03-29T07:32:09.077Z</time></trkpt><trkpt lat="43.2696133" lon="12.08228"><ele>691.6666666666666</ele><time>2026-03-29T07:32:11.078Z</time></trkpt><trkpt lat="43.2696967" lon="12.0821467"><ele>689.5</ele><time>2026-03-29T07:32:13.077Z</time></trkpt><trkpt lat="43.26975" lon="12.0820817"><ele>687.3333333333333</ele><time>2026-03-29T07:32:14.077Z</time></trkpt><trkpt lat="43.2698" lon="12.0820283"><ele>685.1666666666666</ele><time>2026-03-29T07:32:15.078Z</time></trkpt><trkpt lat="43.2698583" lon="12.0819833"><ele>683.0</ele><time>2026-03-29T07:32:16.078Z</time></trkpt><trkpt lat="43.269915" lon="12.08194"><ele>688.8</ele><time>2026-03-29T07:32:17.078Z</time></trkpt><trkpt lat="43.26999" lon="12.0818367"><ele>694.5999999999999</ele><time>2026-03-29T07:32:19.078Z</time></trkpt><trkpt lat="43.2700117" lon="12.08171"><ele>700.4000000000001</ele><time>2026-03-29T07:32:21.078Z</time></trkpt><trkpt lat="43.2700317" lon="12.08158"><ele>706.2</ele><time>2026-03-29T07:32:23.077Z</time></trkpt><trkpt lat="43.270065" lon="12.0814783"><ele>712.0</ele><time>2026-03-29T07:32:25.077Z</time></trkpt><trkpt lat="43.270105" lon="12.0813567"><ele>712.0</ele><time>2026-03-29T07:32:27.078Z</time></trkpt><trkpt lat="43.2701167" lon="12.0812117"><ele>712.0</ele><time>2026-03-29T07:32:29.078Z</time></trkpt><trkpt lat="43.2700783" lon="12.081075"><ele>712.0</ele><time>2026-03-29T07:32:31.078Z</time></trkpt><trkpt lat="43.2699883" lon="12.08096"><ele>712.0</ele><time>2026-03-29T07:32:33.078Z</time></trkpt><trkpt lat="43.2699067" lon="12.08085"><ele>710.6</ele><time>2026-03-29T07:32:35.078Z</time></trkpt><trkpt lat="43.269865" lon="12.0807017"><ele>709.2</ele><time>2026-03-29T07:32:37.078Z</time></trkpt><trkpt lat="43.2698417" lon="12.0805733"><ele>707.8</ele><time>2026-03-29T07:32:39.078Z</time></trkpt><trkpt lat="43.26985" lon="12.0804433"><ele>706.4</ele><time>2026-03-29T07:32:41.078Z</time></trkpt><trkpt lat="43.2698783" lon="12.08031"><ele>705.0</ele><time>2026-03-29T07:32:43.078Z</time></trkpt><trkpt lat="43.2699" lon="12.080175"><ele>705.0</ele><time>2026-03-29T07:32:45.078Z</time></trkpt><trkpt lat="43.2699467" lon="12.080035"><ele>705.0</ele><time>2026-03-29T07:32:47.078Z</time></trkpt><trkpt lat="43.2699967" lon="12.0798883"><ele>705.0</ele><time>2026-03-29T07:32:49.078Z</time></trkpt><trkpt lat="43.2700217" lon="12.0798083"><ele>705.0</ele><time>2026-03-29T07:32:50.077Z</time></trkpt><trkpt lat="43.2700483" lon="12.0797267"><ele>705.0</ele><time>2026-03-29T07:32:51.078Z</time></trkpt><trkpt lat="43.2701033" lon="12.0795783"><ele>701.25</ele><time>2026-03-29T07:32:53.078Z</time></trkpt><trkpt lat="43.27017" lon="12.0794483"><ele>697.5</ele><time>2026-03-29T07:32:55.078Z</time></trkpt><trkpt lat="43.270235" lon="12.0793167"><ele>693.75</ele><time>2026-03-29T07:32:57.077Z</time></trkpt><trkpt lat="43.270285" lon="12.0791733"><ele>690.0</ele><time>2026-03-29T07:32:59.078Z</time></trkpt><trkpt lat="43.2703517" lon="12.0790333"><ele>691.75</ele><time>2026-03-29T07:33:01.077Z</time></trkpt><trkpt lat="43.270425" lon="12.0788983"><ele>693.5</ele><time>2026-03-29T07:33:03.078Z</time></trkpt><trkpt lat="43.2705117" lon="12.0787817"><ele>695.25</ele><time>2026-03-29T07:33:05.078Z</time></trkpt><trkpt lat="43.270585" lon="12.078645"><ele>697.0</ele><time>2026-03-29T07:33:07.078Z</time></trkpt><trkpt lat="43.2706367" lon="12.0785117"><ele>697.0</ele><time>2026-03-29T07:33:09.078Z</time></trkpt><trkpt lat="43.2706517" lon="12.078425"><ele>697.0</ele><time>2026-03-29T07:33:10.078Z</time></trkpt><trkpt lat="43.270655" lon="12.0783267"><ele>697.0</ele><time>2026-03-29T07:33:11.078Z</time></trkpt><trkpt lat="43.270655" lon="12.07823"><ele>697.0</ele><time>2026-03-29T07:33:12.077Z</time></trkpt><trkpt lat="43.2706517" lon="12.07814"><ele>697.0</ele><time>2026-03-29T07:33:13.078Z</time></trkpt><trkpt lat="43.2706583" lon="12.0780467"><ele>697.0</ele><time>2026-03-29T07:33:14.078Z</time></trkpt><trkpt lat="43.2706617" lon="12.0779583"><ele>697.0</ele><time>2026-03-29T07:33:15.078Z</time></trkpt><trkpt lat="43.2706667" lon="12.0777867"><ele>695.5</ele><time>2026-03-29T07:33:17.078Z</time></trkpt><trkpt lat="43.27067" lon="12.07762"><ele>694.0</ele><time>2026-03-29T07:33:19.078Z</time></trkpt><trkpt lat="43.2706333" lon="12.0774783"><ele>692.5</ele><time>2026-03-29T07:33:21.078Z</time></trkpt><trkpt lat="43.2705433" lon="12.0773683"><ele>691.0</ele><time>2026-03-29T07:33:23.078Z</time></trkpt><trkpt lat="43.2704517" lon="12.0772483"><ele>689.5999999999999</ele><time>2026-03-29T07:33:25.078Z</time></trkpt><trkpt lat="43.2704167" lon="12.077175"><ele>688.2</ele><time>2026-03-29T07:33:26.078Z</time></trkpt><trkpt lat="43.2704167" lon="12.0770483"><ele>686.8</ele><time>2026-03-29T07:33:28.078Z</time></trkpt><trkpt lat="43.2704833" lon="12.076935"><ele>685.4000000000001</ele><time>2026-03-29T07:33:30.077Z</time></trkpt><trkpt lat="43.2705783" lon="12.0768667"><ele>684.0</ele><time>2026-03-29T07:33:32.077Z</time></trkpt><trkpt lat="43.2707033" lon="12.076815"><ele>684.0</ele><time>2026-03-29T07:33:34.077Z</time></trkpt><trkpt lat="43.27077" lon="12.0768067"><ele>684.0</ele><time>2026-03-29T07:33:35.078Z</time></trkpt><trkpt lat="43.270845" lon="12.0767933"><ele>684.0</ele><time>2026-03-29T07:33:36.078Z</time></trkpt><trkpt lat="43.270955" lon="12.0767"><ele>684.0</ele><time>2026-03-29T07:33:38.078Z</time></trkpt><trkpt lat="43.2709917" lon="12.0766217"><ele>684.0</ele><time>2026-03-29T07:33:39.078Z</time></trkpt><trkpt lat="43.27101" lon="12.0765117"><ele>684.0</ele><time>2026-03-29T07:33:40.078Z</time></trkpt><trkpt lat="43.2710167" lon="12.0763817"><ele>684.8333333333334</ele><time>2026-03-29T07:33:41.078Z</time></trkpt><trkpt lat="43.2710217" lon="12.0762733"><ele>685.6666666666666</ele><time>2026-03-29T07:33:42.078Z</time></trkpt><trkpt lat="43.27102" lon="12.0761733"><ele>686.5</ele><time>2026-03-29T07:33:43.078Z</time></trkpt><trkpt lat="43.2710017" lon="12.0760833"><ele>687.3333333333333</ele><time>2026-03-29T07:33:44.078Z</time></trkpt><trkpt lat="43.2709117" lon="12.0759633"><ele>688.1666666666666</ele><time>2026-03-29T07:33:46.078Z</time></trkpt><trkpt lat="43.2708517" lon="12.0759267"><ele>689.0</ele><time>2026-03-29T07:33:47.078Z</time></trkpt><trkpt lat="43.2707817" lon="12.0759083"><ele>689.0</ele><time>2026-03-29T07:33:48.078Z</time></trkpt><trkpt lat="43.27071" lon="12.075895"><ele>689.0</ele><time>2026-03-29T07:33:49.078Z</time></trkpt><trkpt lat="43.270635" lon="12.0759017"><ele>689.0</ele><time>2026-03-29T07:33:50.077Z</time></trkpt><trkpt lat="43.27056" lon="12.0759167"><ele>689.0</ele><time>2026-03-29T07:33:51.077Z</time></trkpt><trkpt lat="43.2704867" lon="12.0759283"><ele>689.0</ele><time>2026-03-29T07:33:52.078Z</time></trkpt><trkpt lat="43.2704083" lon="12.0759433"><ele>689.0</ele><time>2026-03-29T07:33:53.078Z</time></trkpt><trkpt lat="43.27033" lon="12.075955"><ele>686.5</ele><time>2026-03-29T07:33:54.077Z</time></trkpt><trkpt lat="43.2702617" lon="12.0759717"><ele>684.0</ele><time>2026-03-29T07:33:55.078Z</time></trkpt><trkpt lat="43.2701583" lon="12.0759933"><ele>681.5</ele><time>2026-03-29T07:33:57.078Z</time></trkpt><trkpt lat="43.2700767" lon="12.0759783"><ele>679.0</ele><time>2026-03-29T07:33:59.078Z</time></trkpt><trkpt lat="43.2700067" lon="12.0759217"><ele>676.5</ele><time>2026-03-29T07:34:01.078Z</time></trkpt><trkpt lat="43.2699617" lon="12.075815"><ele>674.0</ele><time>2026-03-29T07:34:03.078Z</time></trkpt><trkpt lat="43.2699767" lon="12.0756517"><ele>674.0000000000001</ele><time>2026-03-29T07:34:05.078Z</time></trkpt><trkpt lat="43.2699817" lon="12.075565"><ele>674.0</ele><time>2026-03-29T07:34:06.078Z</time></trkpt><trkpt lat="43.269985" lon="12.0754717"><ele>674.0</ele><time>2026-03-29T07:34:07.078Z</time></trkpt><trkpt lat="43.2699867" lon="12.075375"><ele>674.0</ele><time>2026-03-29T07:34:08.077Z</time></trkpt><trkpt lat="43.269995" lon="12.0752817"><ele>674.0</ele><time>2026-03-29T07:34:09.078Z</time></trkpt><trkpt lat="43.27001" lon="12.0751933"><ele>674.0000000000001</ele><time>2026-03-29T07:34:10.077Z</time></trkpt><trkpt lat="43.2700267" lon="12.075105"><ele>674.0</ele><time>2026-03-29T07:34:11.078Z</time></trkpt><trkpt lat="43.2700467" lon="12.0750117"><ele>673.8333333333333</ele><time>2026-03-29T07:34:12.077Z</time></trkpt><trkpt lat="43.27006" lon="12.0749083"><ele>673.6666666666666</ele><time>2026-03-29T07:34:13.078Z</time></trkpt><trkpt lat="43.2700717" lon="12.0748033"><ele>673.5</ele><time>2026-03-29T07:34:14.077Z</time></trkpt><trkpt lat="43.270075" lon="12.07469"><ele>673.3333333333334</ele><time>2026-03-29T07:34:15.078Z</time></trkpt><trkpt lat="43.2700717" lon="12.0745883"><ele>673.1666666666667</ele><time>2026-03-29T07:34:16.078Z</time></trkpt><trkpt lat="43.2700667" lon="12.074495"><ele>673.0</ele><time>2026-03-29T07:34:17.078Z</time></trkpt><trkpt lat="43.2700883" lon="12.0743267"><ele>673.0</ele><time>2026-03-29T07:34:19.077Z</time></trkpt><trkpt lat="43.270125" lon="12.0742433"><ele>673.0</ele><time>2026-03-29T07:34:20.078Z</time></trkpt><trkpt lat="43.2701633" lon="12.0741533"><ele>673.0</ele><time>2026-03-29T07:34:21.078Z</time></trkpt><trkpt lat="43.2702" lon="12.0740583"><ele>673.0</ele><time>2026-03-29T07:34:22.078Z</time></trkpt><trkpt lat="43.270235" lon="12.0739533"><ele>673.0</ele><time>2026-03-29T07:34:23.078Z</time></trkpt><trkpt lat="43.2702583" lon="12.0738467"><ele>673.0</ele><time>2026-03-29T07:34:24.078Z</time></trkpt><trkpt lat="43.2702767" lon="12.0737367"><ele>671.8333333333334</ele><time>2026-03-29T07:34:25.078Z</time></trkpt><trkpt lat="43.2702933" lon="12.0736267"><ele>670.6666666666667</ele><time>2026-03-29T07:34:26.078Z</time></trkpt><trkpt lat="43.2703133" lon="12.073515"><ele>669.5</ele><time>2026-03-29T07:34:27.078Z</time></trkpt><trkpt lat="43.2703383" lon="12.07341"><ele>668.3333333333334</ele><time>2026-03-29T07:34:28.078Z</time></trkpt><trkpt lat="43.2703683" lon="12.0732983"><ele>667.1666666666666</ele><time>2026-03-29T07:34:29.077Z</time></trkpt><trkpt lat="43.2704" lon="12.0731967"><ele>666.0</ele><time>2026-03-29T07:34:30.077Z</time></trkpt><trkpt lat="43.2704383" lon="12.0731067"><ele>665.1666666666666</ele><time>2026-03-29T07:34:31.078Z</time></trkpt><trkpt lat="43.2704817" lon="12.073015"><ele>664.3333333333334</ele><time>2026-03-29T07:34:32.078Z</time></trkpt><trkpt lat="43.2705017" lon="12.0729233"><ele>663.5</ele><time>2026-03-29T07:34:33.078Z</time></trkpt><trkpt lat="43.2705233" lon="12.0727517"><ele>662.6666666666667</ele><time>2026-03-29T07:34:35.078Z</time></trkpt><trkpt lat="43.2705483" lon="12.0726717"><ele>661.8333333333334</ele><time>2026-03-29T07:34:36.078Z</time></trkpt><trkpt lat="43.2705833" lon="12.0725783"><ele>661.0</ele><time>2026-03-29T07:34:37.077Z</time></trkpt><trkpt lat="43.270635" lon="12.0724983"><ele>661.0</ele><time>2026-03-29T07:34:38.078Z</time></trkpt><trkpt lat="43.270685" lon="12.0724267"><ele>661.0</ele><time>2026-03-29T07:34:39.078Z</time></trkpt><trkpt lat="43.2707383" lon="12.0723767"><ele>661.0</ele><time>2026-03-29T07:34:40.078Z</time></trkpt><trkpt lat="43.2708067" lon="12.0723233"><ele>661.0</ele><time>2026-03-29T07:34:42.078Z</time></trkpt><trkpt lat="43.2708817" lon="12.0722833"><ele>661.0</ele><time>2026-03-29T07:34:46.077Z</time></trkpt><trkpt lat="43.2709567" lon="12.0722583"><ele>661.0</ele><time>2026-03-29T07:34:48.078Z</time></trkpt><trkpt lat="43.2710433" lon="12.07227"><ele>661.0</ele><time>2026-03-29T07:34:50.077Z</time></trkpt><trkpt lat="43.271105" lon="12.0722983"><ele>661.0</ele><time>2026-03-29T07:34:52.078Z</time></trkpt><trkpt lat="43.271095" lon="12.0721967"><ele>661.0</ele><time>2026-03-29T07:34:56.078Z</time></trkpt><trkpt lat="43.271005" lon="12.0721217"><ele>661.0</ele><time>2026-03-29T07:34:58.077Z</time></trkpt><trkpt lat="43.2709183" lon="12.0720283"><ele>661.0</ele><time>2026-03-29T07:35:00.077Z</time></trkpt><trkpt lat="43.27083" lon="12.0719117"><ele>661.0</ele><time>2026-03-29T07:35:02.078Z</time></trkpt><trkpt lat="43.2707183" lon="12.0718567"><ele>661.0</ele><time>2026-03-29T07:35:04.077Z</time></trkpt><trkpt lat="43.2706517" lon="12.07185"><ele>661.0</ele><time>2026-03-29T07:35:05.078Z</time></trkpt><trkpt lat="43.2705867" lon="12.0718517"><ele>661.0</ele><time>2026-03-29T07:35:06.077Z</time></trkpt><trkpt lat="43.2705233" lon="12.0718683"><ele>661.0</ele><time>2026-03-29T07:35:07.078Z</time></trkpt><trkpt lat="43.270415" lon="12.0719167"><ele>661.0</ele><time>2026-03-29T07:35:09.077Z</time></trkpt><trkpt lat="43.2703283" lon="12.0719917"><ele>659.8</ele><time>2026-03-29T07:35:11.077Z</time></trkpt><trkpt lat="43.2702733" lon="12.0720983"><ele>658.5999999999999</ele><time>2026-03-29T07:35:13.078Z</time></trkpt><trkpt lat="43.27024" lon="12.0722417"><ele>657.4</ele><time>2026-03-29T07:35:15.078Z</time></trkpt><trkpt lat="43.27018" lon="12.072325"><ele>656.2</ele><time>2026-03-29T07:35:17.078Z</time></trkpt><trkpt lat="43.2701172" lon="12.0722592"><ele>655.0</ele><time>2026-03-29T07:35:19.078Z</time></trkpt><trkpt lat="43.2700805" lon="12.072129"><ele>655.0</ele><time>2026-03-29T07:35:21.078Z</time></trkpt><trkpt lat="43.2700749" lon="12.0720427"><ele>655.0</ele><time>2026-03-29T07:35:22.077Z</time></trkpt><trkpt lat="43.2700596" lon="12.0719582"><ele>655.0</ele><time>2026-03-29T07:35:23.078Z</time></trkpt><trkpt lat="43.2699964" lon="12.0718409"><ele>655.0</ele><time>2026-03-29T07:35:25.078Z</time></trkpt><trkpt lat="43.2698825" lon="12.0718027"><ele>655.0</ele><time>2026-03-29T07:35:27.078Z</time></trkpt><trkpt lat="43.2698096" lon="12.0718003"><ele>655.0</ele><time>2026-03-29T07:35:28.078Z</time></trkpt><trkpt lat="43.2697399" lon="12.0718057"><ele>652.1666666666667</ele><time>2026-03-29T07:35:29.077Z</time></trkpt><trkpt lat="43.2696565" lon="12.0718548"><ele>649.3333333333334</ele><time>2026-03-29T07:35:31.077Z</time></trkpt><trkpt lat="43.269644" lon="12.0719434"><ele>646.5</ele><time>2026-03-29T07:35:33.078Z</time></trkpt><trkpt lat="43.2696437" lon="12.0720315"><ele>643.6666666666666</ele><time>2026-03-29T07:35:35.078Z</time></trkpt><trkpt lat="43.2695744" lon="12.0720761"><ele>640.8333333333333</ele><time>2026-03-29T07:35:37.077Z</time></trkpt><trkpt lat="43.2694621" lon="12.0720445"><ele>638.0</ele><time>2026-03-29T07:35:39.078Z</time></trkpt><trkpt lat="43.2693407" lon="12.0719877"><ele>638.0</ele><time>2026-03-29T07:35:41.077Z</time></trkpt><trkpt lat="43.2692778" lon="12.071962"><ele>638.0</ele><time>2026-03-29T07:35:42.077Z</time></trkpt><trkpt lat="43.2692154" lon="12.0719391"><ele>638.0</ele><time>2026-03-29T07:35:43.078Z</time></trkpt><trkpt lat="43.2691047" lon="12.0719169"><ele>638.0</ele><time>2026-03-29T07:35:45.078Z</time></trkpt><trkpt lat="43.2689976" lon="12.0718612"><ele>638.0</ele><time>2026-03-29T07:35:47.078Z</time></trkpt><trkpt lat="43.2689019" lon="12.0717561"><ele>633.4</ele><time>2026-03-29T07:35:49.078Z</time></trkpt><trkpt lat="43.2688193" lon="12.0716314"><ele>628.8</ele><time>2026-03-29T07:35:51.078Z</time></trkpt><trkpt lat="43.2687788" lon="12.0714855"><ele>624.2</ele><time>2026-03-29T07:35:53.078Z</time></trkpt><trkpt lat="43.2687826" lon="12.0713348"><ele>619.6</ele><time>2026-03-29T07:35:55.078Z</time></trkpt><trkpt lat="43.268731" lon="12.0712579"><ele>615.0</ele><time>2026-03-29T07:35:58.077Z</time></trkpt><trkpt lat="43.2686664" lon="12.0713374"><ele>615.0</ele><time>2026-03-29T07:36:00.077Z</time></trkpt><trkpt lat="43.2685979" lon="12.0713643"><ele>615.0</ele><time>2026-03-29T07:36:02.077Z</time></trkpt><trkpt lat="43.268574" lon="12.0712451"><ele>615.0</ele><time>2026-03-29T07:36:05.103Z</time></trkpt><trkpt lat="43.2685625" lon="12.0711526"><ele>615.0</ele><time>2026-03-29T07:36:06.077Z</time></trkpt><trkpt lat="43.2685348" lon="12.0710591"><ele>615.0</ele><time>2026-03-29T07:36:07.078Z</time></trkpt><trkpt lat="43.2684927" lon="12.070972"><ele>615.0</ele><time>2026-03-29T07:36:08.077Z</time></trkpt><trkpt lat="43.2684483" lon="12.0708971"><ele>615.0</ele><time>2026-03-29T07:36:09.077Z</time></trkpt><trkpt lat="43.2684016" lon="12.0708244"><ele>615.0</ele><time>2026-03-29T07:36:10.078Z</time></trkpt><trkpt lat="43.2683526" lon="12.0707551"><ele>615.0</ele><time>2026-03-29T07:36:11.078Z</time></trkpt><trkpt lat="43.2682988" lon="12.0706817"><ele>615.0</ele><time>2026-03-29T07:36:12.078Z</time></trkpt><trkpt lat="43.2681865" lon="12.070596"><ele>615.0</ele><time>2026-03-29T07:36:14.078Z</time></trkpt><trkpt lat="43.2681188" lon="12.070575"><ele>615.0</ele><time>2026-03-29T07:36:15.078Z</time></trkpt><trkpt lat="43.2680555" lon="12.070559"><ele>610.6</ele><time>2026-03-29T07:36:16.077Z</time></trkpt><trkpt lat="43.2679416" lon="12.0705212"><ele>606.2</ele><time>2026-03-29T07:36:18.078Z</time></trkpt><trkpt lat="43.2678829" lon="12.0704211"><ele>601.8</ele><time>2026-03-29T07:36:20.078Z</time></trkpt><trkpt lat="43.2678666" lon="12.0702518"><ele>597.4</ele><time>2026-03-29T07:36:22.078Z</time></trkpt><trkpt lat="43.2678678" lon="12.0701615"><ele>593.0</ele><time>2026-03-29T07:36:23.078Z</time></trkpt><trkpt lat="43.2678695" lon="12.0700749"><ele>593.0</ele><time>2026-03-29T07:36:24.077Z</time></trkpt><trkpt lat="43.2678331" lon="12.0699525"><ele>593.0</ele><time>2026-03-29T07:36:26.078Z</time></trkpt><trkpt lat="43.2677412" lon="12.0699196"><ele>593.0</ele><time>2026-03-29T07:36:28.078Z</time></trkpt><trkpt lat="43.2676757" lon="12.0699294"><ele>593.0</ele><time>2026-03-29T07:36:29.078Z</time></trkpt><trkpt lat="43.2676055" lon="12.0699452"><ele>593.0</ele><time>2026-03-29T07:36:30.077Z</time></trkpt><trkpt lat="43.2674908" lon="12.0699849"><ele>593.0</ele><time>2026-03-29T07:36:32.077Z</time></trkpt><trkpt lat="43.2674128" lon="12.0700863"><ele>593.0</ele><time>2026-03-29T07:36:34.078Z</time></trkpt><trkpt lat="43.2673669" lon="12.0702243"><ele>593.0</ele><time>2026-03-29T07:36:36.078Z</time></trkpt><trkpt lat="43.2673401" lon="12.0703537"><ele>593.0</ele><time>2026-03-29T07:36:38.078Z</time></trkpt><trkpt lat="43.2672815" lon="12.0703915"><ele>593.0</ele><time>2026-03-29T07:36:40.078Z</time></trkpt><trkpt lat="43.2672122" lon="12.070324"><ele>593.0</ele><time>2026-03-29T07:36:42.077Z</time></trkpt><trkpt lat="43.267154" lon="12.0701917"><ele>589.6666666666666</ele><time>2026-03-29T07:36:44.077Z</time></trkpt><trkpt lat="43.2670963" lon="12.0700369"><ele>586.3333333333333</ele><time>2026-03-29T07:36:46.077Z</time></trkpt><trkpt lat="43.2670672" lon="12.0699512"><ele>583.0</ele><time>2026-03-29T07:36:47.078Z</time></trkpt><trkpt lat="43.267037" lon="12.0698628"><ele>579.6666666666666</ele><time>2026-03-29T07:36:48.078Z</time></trkpt><trkpt lat="43.2670107" lon="12.0697706"><ele>576.3333333333334</ele><time>2026-03-29T07:36:49.078Z</time></trkpt><trkpt lat="43.2669869" lon="12.069673"><ele>573.0</ele><time>2026-03-29T07:36:50.078Z</time></trkpt><trkpt lat="43.2669678" lon="12.0695791"><ele>572.6666666666666</ele><time>2026-03-29T07:36:51.078Z</time></trkpt><trkpt lat="43.2669463" lon="12.0694787"><ele>572.3333333333334</ele><time>2026-03-29T07:36:52.077Z</time></trkpt><trkpt lat="43.266921" lon="12.0693747"><ele>572.0</ele><time>2026-03-29T07:36:53.078Z</time></trkpt><trkpt lat="43.2668916" lon="12.0692769"><ele>571.6666666666667</ele><time>2026-03-29T07:36:54.077Z</time></trkpt><trkpt lat="43.2668607" lon="12.0691808"><ele>571.3333333333334</ele><time>2026-03-29T07:36:55.079Z</time></trkpt><trkpt lat="43.2668277" lon="12.0690845"><ele>571.0</ele><time>2026-03-29T07:36:56.079Z</time></trkpt><trkpt lat="43.266804" lon="12.0689999"><ele>567.5</ele><time>2026-03-29T07:36:57.079Z</time></trkpt><trkpt lat="43.2668027" lon="12.0688412"><ele>564.0</ele><time>2026-03-29T07:36:59.079Z</time></trkpt><trkpt lat="43.2668741" lon="12.0687277"><ele>560.5</ele><time>2026-03-29T07:37:01.078Z</time></trkpt><trkpt lat="43.2669851" lon="12.0686644"><ele>557.0</ele><time>2026-03-29T07:37:03.078Z</time></trkpt><trkpt lat="43.2670829" lon="12.0685897"><ele>557.0</ele><time>2026-03-29T07:37:05.078Z</time></trkpt><trkpt lat="43.2671433" lon="12.0685233"><ele>557.0</ele><time>2026-03-29T07:37:07.079Z</time></trkpt><trkpt lat="43.2672" lon="12.0684617"><ele>557.0</ele><time>2026-03-29T07:37:09.079Z</time></trkpt><trkpt lat="43.26727" lon="12.0683833"><ele>557.0</ele><time>2026-03-29T07:37:11.078Z</time></trkpt><trkpt lat="43.26735" lon="12.0682783"><ele>557.0</ele><time>2026-03-29T07:37:13.079Z</time></trkpt><trkpt lat="43.2674483" lon="12.0681933"><ele>554.4</ele><time>2026-03-29T07:37:15.079Z</time></trkpt><trkpt lat="43.2675283" lon="12.0681133"><ele>551.8000000000001</ele><time>2026-03-29T07:37:17.079Z</time></trkpt><trkpt lat="43.267605" lon="12.0680367"><ele>549.2</ele><time>2026-03-29T07:37:19.078Z</time></trkpt><trkpt lat="43.267685" lon="12.0679617"><ele>546.6</ele><time>2026-03-29T07:37:21.079Z</time></trkpt><trkpt lat="43.26776" lon="12.0678767"><ele>544.0</ele><time>2026-03-29T07:37:23.079Z</time></trkpt><trkpt lat="43.2678333" lon="12.0677717"><ele>544.0</ele><time>2026-03-29T07:37:25.079Z</time></trkpt><trkpt lat="43.2679083" lon="12.0676883"><ele>544.0</ele><time>2026-03-29T07:37:27.079Z</time></trkpt><trkpt lat="43.2679867" lon="12.0676367"><ele>544.0</ele><time>2026-03-29T07:37:29.079Z</time></trkpt><trkpt lat="43.2680733" lon="12.0676183"><ele>544.0</ele><time>2026-03-29T07:37:31.079Z</time></trkpt><trkpt lat="43.268145" lon="12.0675917"><ele>544.0</ele><time>2026-03-29T07:37:33.079Z</time></trkpt><trkpt lat="43.2682017" lon="12.0675333"><ele>544.0</ele><time>2026-03-29T07:37:35.079Z</time></trkpt><trkpt lat="43.2682483" lon="12.0674467"><ele>543.1666666666667</ele><time>2026-03-29T07:37:37.079Z</time></trkpt><trkpt lat="43.2682633" lon="12.0673233"><ele>542.3333333333334</ele><time>2026-03-29T07:37:39.079Z</time></trkpt><trkpt lat="43.26826" lon="12.0671867"><ele>541.5</ele><time>2026-03-29T07:37:41.079Z</time></trkpt><trkpt lat="43.268255" lon="12.067035"><ele>540.6666666666666</ele><time>2026-03-29T07:37:43.079Z</time></trkpt><trkpt lat="43.2682567" lon="12.0669467"><ele>539.8333333333333</ele><time>2026-03-29T07:37:44.079Z</time></trkpt><trkpt lat="43.268255" lon="12.0668533"><ele>539.0</ele><time>2026-03-29T07:37:45.079Z</time></trkpt><trkpt lat="43.26825" lon="12.0667667"><ele>539.0</ele><time>2026-03-29T07:37:46.079Z</time></trkpt><trkpt lat="43.2682367" lon="12.0666817"><ele>539.0</ele><time>2026-03-29T07:37:47.079Z</time></trkpt><trkpt lat="43.2681883" lon="12.0665333"><ele>539.0</ele><time>2026-03-29T07:37:49.079Z</time></trkpt><trkpt lat="43.2680917" lon="12.0664067"><ele>539.0</ele><time>2026-03-29T07:37:51.078Z</time></trkpt><trkpt lat="43.268035" lon="12.0663517"><ele>539.0</ele><time>2026-03-29T07:37:52.079Z</time></trkpt><trkpt lat="43.2679767" lon="12.0663017"><ele>538.1666666666666</ele><time>2026-03-29T07:37:53.079Z</time></trkpt><trkpt lat="43.2679167" lon="12.0662483"><ele>537.3333333333333</ele><time>2026-03-29T07:37:54.078Z</time></trkpt><trkpt lat="43.26785" lon="12.0661917"><ele>536.5</ele><time>2026-03-29T07:37:55.079Z</time></trkpt><trkpt lat="43.2677867" lon="12.0661267"><ele>535.6666666666666</ele><time>2026-03-29T07:37:56.079Z</time></trkpt><trkpt lat="43.26774" lon="12.0660583"><ele>534.8333333333334</ele><time>2026-03-29T07:37:57.079Z</time></trkpt><trkpt lat="43.2677083" lon="12.0659783"><ele>534.0</ele><time>2026-03-29T07:37:58.079Z</time></trkpt><trkpt lat="43.2676783" lon="12.065825"><ele>532.2</ele><time>2026-03-29T07:38:00.078Z</time></trkpt><trkpt lat="43.267635" lon="12.06568"><ele>530.4</ele><time>2026-03-29T07:38:02.079Z</time></trkpt><trkpt lat="43.2675467" lon="12.06557"><ele>528.6</ele><time>2026-03-29T07:38:04.079Z</time></trkpt><trkpt lat="43.2674833" lon="12.0655317"><ele>526.8</ele><time>2026-03-29T07:38:05.079Z</time></trkpt><trkpt lat="43.2674233" lon="12.0655"><ele>525.0</ele><time>2026-03-29T07:38:06.079Z</time></trkpt><trkpt lat="43.267315" lon="12.0654533"><ele>525.0</ele><time>2026-03-29T07:38:08.079Z</time></trkpt><trkpt lat="43.2672083" lon="12.0654367"><ele>525.0</ele><time>2026-03-29T07:38:10.079Z</time></trkpt><trkpt lat="43.2671833" lon="12.06534"><ele>525.0</ele><time>2026-03-29T07:38:13.079Z</time></trkpt><trkpt lat="43.2672633" lon="12.0652417"><ele>525.0</ele><time>2026-03-29T07:38:15.078Z</time></trkpt><trkpt lat="43.2673442" lon="12.065145"><ele>525.0</ele><time>2026-03-29T07:38:17.079Z</time></trkpt><trkpt lat="43.2674281" lon="12.0650401"><ele>522.2</ele><time>2026-03-29T07:38:19.078Z</time></trkpt><trkpt lat="43.2675173" lon="12.064934"><ele>519.4</ele><time>2026-03-29T07:38:21.078Z</time></trkpt><trkpt lat="43.2676079" lon="12.0648196"><ele>516.6</ele><time>2026-03-29T07:38:23.079Z</time></trkpt><trkpt lat="43.2676752" lon="12.0646974"><ele>513.8</ele><time>2026-03-29T07:38:25.079Z</time></trkpt><trkpt lat="43.2676857" lon="12.0645759"><ele>511.0</ele><time>2026-03-29T07:38:27.078Z</time></trkpt><trkpt lat="43.2676207" lon="12.0645082"><ele>511.0</ele><time>2026-03-29T07:38:29.079Z</time></trkpt><trkpt lat="43.2675051" lon="12.0644784"><ele>511.0</ele><time>2026-03-29T07:38:31.078Z</time></trkpt><trkpt lat="43.2673828" lon="12.0644769"><ele>511.0</ele><time>2026-03-29T07:38:33.079Z</time></trkpt><trkpt lat="43.2672659" lon="12.0644755"><ele>511.0</ele><time>2026-03-29T07:38:35.079Z</time></trkpt><trkpt lat="43.2671381" lon="12.06449"><ele>508.4</ele><time>2026-03-29T07:38:37.078Z</time></trkpt><trkpt lat="43.2670194" lon="12.064525"><ele>505.8</ele><time>2026-03-29T07:38:39.079Z</time></trkpt><trkpt lat="43.2668983" lon="12.064558"><ele>503.19999999999993</ele><time>2026-03-29T07:38:41.079Z</time></trkpt><trkpt lat="43.2667823" lon="12.0645935"><ele>500.59999999999997</ele><time>2026-03-29T07:38:43.079Z</time></trkpt><trkpt lat="43.2667192" lon="12.0646042"><ele>498.0</ele><time>2026-03-29T07:38:44.079Z</time></trkpt><trkpt lat="43.2665979" lon="12.0646308"><ele>498.0</ele><time>2026-03-29T07:38:46.078Z</time></trkpt><trkpt lat="43.266535" lon="12.0646441"><ele>497.99999999999994</ele><time>2026-03-29T07:38:47.078Z</time></trkpt><trkpt lat="43.2664213" lon="12.0646981"><ele>497.99999999999994</ele><time>2026-03-29T07:38:49.079Z</time></trkpt><trkpt lat="43.266329" lon="12.0647942"><ele>498.0</ele><time>2026-03-29T07:38:51.079Z</time></trkpt><trkpt lat="43.2662605" lon="12.0649157"><ele>498.0</ele><time>2026-03-29T07:38:53.079Z</time></trkpt><trkpt lat="43.2662118" lon="12.0650437"><ele>495.0</ele><time>2026-03-29T07:38:55.078Z</time></trkpt><trkpt lat="43.2661397" lon="12.0650771"><ele>491.99999999999994</ele><time>2026-03-29T07:38:57.078Z</time></trkpt><trkpt lat="43.2660826" lon="12.0649698"><ele>488.99999999999994</ele><time>2026-03-29T07:38:59.079Z</time></trkpt><trkpt lat="43.2660453" lon="12.0648256"><ele>486.0</ele><time>2026-03-29T07:39:01.078Z</time></trkpt><trkpt lat="43.2660194" lon="12.0646748"><ele>483.0</ele><time>2026-03-29T07:39:03.079Z</time></trkpt><trkpt lat="43.2660151" lon="12.0645333"><ele>482.0</ele><time>2026-03-29T07:39:05.079Z</time></trkpt><trkpt lat="43.2660463" lon="12.0643992"><ele>480.99999999999994</ele><time>2026-03-29T07:39:07.079Z</time></trkpt><trkpt lat="43.2661" lon="12.0642667"><ele>479.99999999999994</ele><time>2026-03-29T07:39:09.079Z</time></trkpt><trkpt lat="43.2661483" lon="12.064115"><ele>479.0</ele><time>2026-03-29T07:39:11.079Z</time></trkpt><trkpt lat="43.2662067" lon="12.063985"><ele>478.0</ele><time>2026-03-29T07:39:13.079Z</time></trkpt><trkpt lat="43.2662833" lon="12.0638683"><ele>475.50000000000006</ele><time>2026-03-29T07:39:15.078Z</time></trkpt><trkpt lat="43.266315" lon="12.063755"><ele>473.0</ele><time>2026-03-29T07:39:17.078Z</time></trkpt><trkpt lat="43.2662833" lon="12.0636783"><ele>470.5</ele><time>2026-03-29T07:39:19.079Z</time></trkpt><trkpt lat="43.26619" lon="12.0636633"><ele>468.0</ele><time>2026-03-29T07:39:21.079Z</time></trkpt><trkpt lat="43.2660934" lon="12.0636951"><ele>465.50000000000006</ele><time>2026-03-29T07:39:23.078Z</time></trkpt><trkpt lat="43.2659998" lon="12.0637549"><ele>463.0</ele><time>2026-03-29T07:39:25.079Z</time></trkpt><trkpt lat="43.265908" lon="12.0637995"><ele>463.0</ele><time>2026-03-29T07:39:27.079Z</time></trkpt><trkpt lat="43.2658199" lon="12.0638325"><ele>462.99999999999994</ele><time>2026-03-29T07:39:29.079Z</time></trkpt><trkpt lat="43.2657171" lon="12.0638717"><ele>462.99999999999994</ele><time>2026-03-29T07:39:31.079Z</time></trkpt><trkpt lat="43.2656249" lon="12.0639139"><ele>463.0</ele><time>2026-03-29T07:39:33.078Z</time></trkpt><trkpt lat="43.2655525" lon="12.0638674"><ele>463.0</ele><time>2026-03-29T07:39:35.079Z</time></trkpt><trkpt lat="43.2655522" lon="12.0637608"><ele>463.0</ele><time>2026-03-29T07:39:37.079Z</time></trkpt><trkpt lat="43.2655971" lon="12.0636463"><ele>462.99999999999994</ele><time>2026-03-29T07:39:39.079Z</time></trkpt><trkpt lat="43.2656608" lon="12.0635383"><ele>462.99999999999994</ele><time>2026-03-29T07:39:41.078Z</time></trkpt><trkpt lat="43.2657336" lon="12.0634404"><ele>463.0</ele><time>2026-03-29T07:39:43.079Z</time></trkpt><trkpt lat="43.2658101" lon="12.063359"><ele>463.0</ele><time>2026-03-29T07:39:45.079Z</time></trkpt><trkpt lat="43.2658832" lon="12.0632713"><ele>460.50000000000006</ele><time>2026-03-29T07:39:47.079Z</time></trkpt><trkpt lat="43.2659267" lon="12.0631867"><ele>458.0</ele><time>2026-03-29T07:39:49.079Z</time></trkpt><trkpt lat="43.2658183" lon="12.06315"><ele>455.5</ele><time>2026-03-29T07:39:53.079Z</time></trkpt><trkpt lat="43.26575" lon="12.0631733"><ele>453.0</ele><time>2026-03-29T07:39:54.079Z</time></trkpt><trkpt lat="43.265685" lon="12.0631967"><ele>450.50000000000006</ele><time>2026-03-29T07:39:55.079Z</time></trkpt><trkpt lat="43.2655783" lon="12.06323"><ele>448.0</ele><time>2026-03-29T07:39:57.078Z</time></trkpt><trkpt lat="43.2655033" lon="12.0632633"><ele>448.0</ele><time>2026-03-29T07:40:00.078Z</time></trkpt><trkpt lat="43.2654317" lon="12.0632583"><ele>447.99999999999994</ele><time>2026-03-29T07:40:03.079Z</time></trkpt><trkpt lat="43.26545" lon="12.06313"><ele>447.99999999999994</ele><time>2026-03-29T07:40:06.078Z</time></trkpt><trkpt lat="43.2655083" lon="12.0630167"><ele>448.0</ele><time>2026-03-29T07:40:08.078Z</time></trkpt><trkpt lat="43.2655733" lon="12.0628967"><ele>448.0</ele><time>2026-03-29T07:40:10.078Z</time></trkpt><trkpt lat="43.2656317" lon="12.0627933"><ele>448.0</ele><time>2026-03-29T07:40:12.079Z</time></trkpt><trkpt lat="43.2656517" lon="12.0626883"><ele>447.99999999999994</ele><time>2026-03-29T07:40:14.079Z</time></trkpt><trkpt lat="43.2656" lon="12.062595"><ele>447.99999999999994</ele><time>2026-03-29T07:40:16.078Z</time></trkpt><trkpt lat="43.2655067" lon="12.0625167"><ele>448.0</ele><time>2026-03-29T07:40:18.078Z</time></trkpt><trkpt lat="43.2654083" lon="12.0624167"><ele>448.0</ele><time>2026-03-29T07:40:20.078Z</time></trkpt><trkpt lat="43.265355" lon="12.06237"><ele>443.59999999999997</ele><time>2026-03-29T07:40:21.078Z</time></trkpt><trkpt lat="43.2652617" lon="12.0622767"><ele>439.19999999999993</ele><time>2026-03-29T07:40:23.079Z</time></trkpt><trkpt lat="43.2653033" lon="12.062195"><ele>434.8</ele><time>2026-03-29T07:40:28.079Z</time></trkpt><trkpt lat="43.2653133" lon="12.0620717"><ele>430.4</ele><time>2026-03-29T07:40:31.079Z</time></trkpt><trkpt lat="43.2652367" lon="12.06198"><ele>426.0</ele><time>2026-03-29T07:40:33.079Z</time></trkpt><trkpt lat="43.2651333" lon="12.0618767"><ele>426.0</ele><time>2026-03-29T07:40:35.079Z</time></trkpt><trkpt lat="43.2650783" lon="12.0618167"><ele>426.0</ele><time>2026-03-29T07:40:36.079Z</time></trkpt><trkpt lat="43.2650267" lon="12.06176"><ele>426.0</ele><time>2026-03-29T07:40:37.078Z</time></trkpt><trkpt lat="43.2649267" lon="12.0616417"><ele>426.0</ele><time>2026-03-29T07:40:39.079Z</time></trkpt><trkpt lat="43.26488" lon="12.0615733"><ele>426.0</ele><time>2026-03-29T07:40:40.079Z</time></trkpt><trkpt lat="43.26483" lon="12.0615183"><ele>426.0</ele><time>2026-03-29T07:40:41.079Z</time></trkpt><trkpt lat="43.264735" lon="12.0614233"><ele>420.6</ele><time>2026-03-29T07:40:43.079Z</time></trkpt><trkpt lat="43.2646183" lon="12.0613883"><ele>415.20000000000005</ele><time>2026-03-29T07:40:45.078Z</time></trkpt><trkpt lat="43.2645117" lon="12.0614183"><ele>409.79999999999995</ele><time>2026-03-29T07:40:47.079Z</time></trkpt><trkpt lat="43.26444" lon="12.0613817"><ele>404.4</ele><time>2026-03-29T07:40:49.078Z</time></trkpt><trkpt lat="43.2644767" lon="12.0612683"><ele>399.0</ele><time>2026-03-29T07:40:52.079Z</time></trkpt><trkpt lat="43.2645567" lon="12.0611983"><ele>399.0</ele><time>2026-03-29T07:40:54.079Z</time></trkpt><trkpt lat="43.2646415" lon="12.0611178"><ele>399.0</ele><time>2026-03-29T07:40:56.079Z</time></trkpt><trkpt lat="43.2646433" lon="12.0610241"><ele>399.0</ele><time>2026-03-29T07:40:59.079Z</time></trkpt><trkpt lat="43.264552" lon="12.0610353"><ele>399.0</ele><time>2026-03-29T07:41:01.079Z</time></trkpt><trkpt lat="43.2644361" lon="12.0610843"><ele>399.0</ele><time>2026-03-29T07:41:03.079Z</time></trkpt><trkpt lat="43.2643201" lon="12.061143"><ele>399.0</ele><time>2026-03-29T07:41:05.079Z</time></trkpt><trkpt lat="43.2642194" lon="12.0612155"><ele>399.0</ele><time>2026-03-29T07:41:07.078Z</time></trkpt><trkpt lat="43.2641493" lon="12.0613034"><ele>399.0</ele><time>2026-03-29T07:41:09.079Z</time></trkpt><trkpt lat="43.2640887" lon="12.0613636"><ele>399.0</ele><time>2026-03-29T07:41:11.078Z</time></trkpt><trkpt lat="43.2640876" lon="12.0612499"><ele>399.0</ele><time>2026-03-29T07:41:15.078Z</time></trkpt><trkpt lat="43.2641491" lon="12.06113"><ele>399.0</ele><time>2026-03-29T07:41:17.079Z</time></trkpt><trkpt lat="43.2641765" lon="12.0610129"><ele>399.0</ele><time>2026-03-29T07:41:18.079Z</time></trkpt><trkpt lat="43.2642006" lon="12.0608732"><ele>399.0</ele><time>2026-03-29T07:41:19.079Z</time></trkpt><trkpt lat="43.2642283" lon="12.0607345"><ele>399.0</ele><time>2026-03-29T07:41:20.078Z</time></trkpt><trkpt lat="43.2642465" lon="12.0606074"><ele>399.0</ele><time>2026-03-29T07:41:21.078Z</time></trkpt><trkpt lat="43.2642429" lon="12.0605011"><ele>396.85714285714283</ele><time>2026-03-29T07:41:22.079Z</time></trkpt><trkpt lat="43.2642206" lon="12.0604138"><ele>394.7142857142857</ele><time>2026-03-29T07:41:23.079Z</time></trkpt><trkpt lat="43.2641879" lon="12.0603336"><ele>392.57142857142856</ele><time>2026-03-29T07:41:24.079Z</time></trkpt><trkpt lat="43.2641657" lon="12.0602458"><ele>390.42857142857144</ele><time>2026-03-29T07:41:25.078Z</time></trkpt><trkpt lat="43.2641639" lon="12.0601482"><ele>388.2857142857143</ele><time>2026-03-29T07:41:26.078Z</time></trkpt><trkpt lat="43.2641831" lon="12.0600464"><ele>386.1428571428571</ele><time>2026-03-29T07:41:27.078Z</time></trkpt><trkpt lat="43.2642158" lon="12.0599566"><ele>384.0</ele><time>2026-03-29T07:41:28.079Z</time></trkpt><trkpt lat="43.2642406" lon="12.0598236"><ele>380.6666666666667</ele><time>2026-03-29T07:41:30.079Z</time></trkpt><trkpt lat="43.2641686" lon="12.0597995"><ele>377.3333333333333</ele><time>2026-03-29T07:41:32.078Z</time></trkpt><trkpt lat="43.2641047" lon="12.0598295"><ele>374.0</ele><time>2026-03-29T07:41:33.079Z</time></trkpt><trkpt lat="43.2640407" lon="12.059867"><ele>370.66666666666663</ele><time>2026-03-29T07:41:34.079Z</time></trkpt><trkpt lat="43.2639734" lon="12.0598978"><ele>367.3333333333333</ele><time>2026-03-29T07:41:35.079Z</time></trkpt><trkpt lat="43.26386" lon="12.05986"><ele>364.0</ele><time>2026-03-29T07:41:37.079Z</time></trkpt><trkpt lat="43.2638367" lon="12.0596967"><ele>364.0</ele><time>2026-03-29T07:41:39.079Z</time></trkpt><trkpt lat="43.2638417" lon="12.0596"><ele>364.0</ele><time>2026-03-29T07:41:40.079Z</time></trkpt><trkpt lat="43.2638333" lon="12.0595117"><ele>364.0</ele><time>2026-03-29T07:41:41.078Z</time></trkpt><trkpt lat="43.263805" lon="12.0594233"><ele>364.0</ele><time>2026-03-29T07:41:42.078Z</time></trkpt><trkpt lat="43.263765" lon="12.05935"><ele>364.0</ele><time>2026-03-29T07:41:43.079Z</time></trkpt><trkpt lat="43.2637033" lon="12.05928"><ele>364.0</ele><time>2026-03-29T07:41:44.079Z</time></trkpt><trkpt lat="43.2636267" lon="12.0592233"><ele>364.0</ele><time>2026-03-29T07:41:45.079Z</time></trkpt><trkpt lat="43.2635633" lon="12.0591667"><ele>360.4</ele><time>2026-03-29T07:41:46.078Z</time></trkpt><trkpt lat="43.2634983" lon="12.0590483"><ele>356.79999999999995</ele><time>2026-03-29T07:41:48.079Z</time></trkpt><trkpt lat="43.2635283" lon="12.058885"><ele>353.20000000000005</ele><time>2026-03-29T07:41:50.078Z</time></trkpt><trkpt lat="43.263635" lon="12.058785"><ele>349.6</ele><time>2026-03-29T07:41:52.078Z</time></trkpt><trkpt lat="43.2637167" lon="12.0587733"><ele>346.0</ele><time>2026-03-29T07:41:53.079Z</time></trkpt><trkpt lat="43.2638033" lon="12.05879"><ele>346.0</ele><time>2026-03-29T07:41:54.078Z</time></trkpt><trkpt lat="43.2638883" lon="12.0588317"><ele>346.0</ele><time>2026-03-29T07:41:55.078Z</time></trkpt><trkpt lat="43.2639567" lon="12.0588683"><ele>346.0</ele><time>2026-03-29T07:41:56.079Z</time></trkpt><trkpt lat="43.2640083" lon="12.0589183"><ele>346.0</ele><time>2026-03-29T07:41:57.079Z</time></trkpt><trkpt lat="43.26403" lon="12.0590617"><ele>346.0</ele><time>2026-03-29T07:41:59.078Z</time></trkpt><trkpt lat="43.2640417" lon="12.0591667"><ele>346.0</ele><time>2026-03-29T07:42:01.078Z</time></trkpt><trkpt lat="43.26411" lon="12.0590517"><ele>346.0</ele><time>2026-03-29T07:42:04.078Z</time></trkpt><trkpt lat="43.2641283" lon="12.0589633"><ele>346.0</ele><time>2026-03-29T07:42:05.078Z</time></trkpt><trkpt lat="43.264135" lon="12.058865"><ele>346.0</ele><time>2026-03-29T07:42:06.078Z</time></trkpt><trkpt lat="43.2641" lon="12.05871"><ele>346.0</ele><time>2026-03-29T07:42:08.079Z</time></trkpt><trkpt lat="43.2640483" lon="12.0586367"><ele>346.0</ele><time>2026-03-29T07:42:09.079Z</time></trkpt><trkpt lat="43.26399" lon="12.058565"><ele>346.0</ele><time>2026-03-29T07:42:10.079Z</time></trkpt><trkpt lat="43.2639233" lon="12.05849"><ele>346.0</ele><time>2026-03-29T07:42:11.079Z</time></trkpt><trkpt lat="43.2638467" lon="12.058435"><ele>346.0</ele><time>2026-03-29T07:42:12.079Z</time></trkpt><trkpt lat="43.2637633" lon="12.0583967"><ele>346.0</ele><time>2026-03-29T07:42:13.079Z</time></trkpt><trkpt lat="43.26368" lon="12.0583733"><ele>346.0</ele><time>2026-03-29T07:42:14.079Z</time></trkpt><trkpt lat="43.2636017" lon="12.05835"><ele>346.0</ele><time>2026-03-29T07:42:15.079Z</time></trkpt><trkpt lat="43.2635367" lon="12.0583117"><ele>346.0</ele><time>2026-03-29T07:42:16.079Z</time></trkpt><trkpt lat="43.2634767" lon="12.0582667"><ele>343.3333333333333</ele><time>2026-03-29T07:42:17.078Z</time></trkpt><trkpt lat="43.2634167" lon="12.0582117"><ele>340.66666666666663</ele><time>2026-03-29T07:42:18.079Z</time></trkpt><trkpt lat="43.2633517" lon="12.0581483"><ele>338.0</ele><time>2026-03-29T07:42:19.079Z</time></trkpt><trkpt lat="43.2632817" lon="12.058075"><ele>335.3333333333333</ele><time>2026-03-29T07:42:20.078Z</time></trkpt><trkpt lat="43.2632083" lon="12.0580133"><ele>332.6666666666667</ele><time>2026-03-29T07:42:21.079Z</time></trkpt><trkpt lat="43.26314" lon="12.05796"><ele>330.0</ele><time>2026-03-29T07:42:22.079Z</time></trkpt><trkpt lat="43.263075" lon="12.0579067"><ele>329.3333333333333</ele><time>2026-03-29T07:42:23.079Z</time></trkpt><trkpt lat="43.2630067" lon="12.0578483"><ele>328.6666666666667</ele><time>2026-03-29T07:42:24.079Z</time></trkpt><trkpt lat="43.2629383" lon="12.0578033"><ele>328.0</ele><time>2026-03-29T07:42:25.078Z</time></trkpt><trkpt lat="43.2628733" lon="12.05777"><ele>327.33333333333337</ele><time>2026-03-29T07:42:26.079Z</time></trkpt><trkpt lat="43.2628083" lon="12.0577417"><ele>326.6666666666667</ele><time>2026-03-29T07:42:27.079Z</time></trkpt><trkpt lat="43.26272" lon="12.0576717"><ele>326.0</ele><time>2026-03-29T07:42:29.079Z</time></trkpt><trkpt lat="43.2627433" lon="12.057555"><ele>326.0</ele><time>2026-03-29T07:42:32.078Z</time></trkpt><trkpt lat="43.2628467" lon="12.05753"><ele>326.0</ele><time>2026-03-29T07:42:34.079Z</time></trkpt><trkpt lat="43.2629567" lon="12.0575333"><ele>326.0</ele><time>2026-03-29T07:42:36.078Z</time></trkpt><trkpt lat="43.26306" lon="12.0575067"><ele>326.0</ele><time>2026-03-29T07:42:38.078Z</time></trkpt><trkpt lat="43.26302" lon="12.0573817"><ele>326.0</ele><time>2026-03-29T07:42:41.078Z</time></trkpt><trkpt lat="43.262965" lon="12.0573267"><ele>324.5</ele><time>2026-03-29T07:42:42.079Z</time></trkpt><trkpt lat="43.2629017" lon="12.057255"><ele>323.0</ele><time>2026-03-29T07:42:43.079Z</time></trkpt><trkpt lat="43.2628333" lon="12.057175"><ele>321.5</ele><time>2026-03-29T07:42:44.078Z</time></trkpt><trkpt lat="43.2627617" lon="12.0571117"><ele>320.0</ele><time>2026-03-29T07:42:45.079Z</time></trkpt><trkpt lat="43.2626933" lon="12.0570583"><ele>318.5</ele><time>2026-03-29T07:42:46.079Z</time></trkpt><trkpt lat="43.2626233" lon="12.0570017"><ele>317.0</ele><time>2026-03-29T07:42:47.079Z</time></trkpt><trkpt lat="43.2625617" lon="12.0569333"><ele>317.0</ele><time>2026-03-29T07:42:48.079Z</time></trkpt><trkpt lat="43.2625183" lon="12.0568367"><ele>317.0</ele><time>2026-03-29T07:42:49.079Z</time></trkpt><trkpt lat="43.2624867" lon="12.05674"><ele>317.0</ele><time>2026-03-29T07:42:50.079Z</time></trkpt><trkpt lat="43.2624517" lon="12.0566517"><ele>317.0</ele><time>2026-03-29T07:42:51.079Z</time></trkpt><trkpt lat="43.2624067" lon="12.0565617"><ele>317.0</ele><time>2026-03-29T07:42:52.078Z</time></trkpt><trkpt lat="43.2623467" lon="12.0564867"><ele>317.0</ele><time>2026-03-29T07:42:53.078Z</time></trkpt><trkpt lat="43.2622767" lon="12.0564267"><ele>315.7142857142857</ele><time>2026-03-29T07:42:54.079Z</time></trkpt><trkpt lat="43.2622167" lon="12.0563617"><ele>314.42857142857144</ele><time>2026-03-29T07:42:55.078Z</time></trkpt><trkpt lat="43.26216" lon="12.05631"><ele>313.1428571428571</ele><time>2026-03-29T07:42:56.079Z</time></trkpt><trkpt lat="43.26211" lon="12.0562567"><ele>311.8571428571429</ele><time>2026-03-29T07:42:57.079Z</time></trkpt><trkpt lat="43.26206" lon="12.0561867"><ele>310.57142857142856</ele><time>2026-03-29T07:42:58.079Z</time></trkpt><trkpt lat="43.2620167" lon="12.0561183"><ele>309.2857142857143</ele><time>2026-03-29T07:42:59.079Z</time></trkpt><trkpt lat="43.2619433" lon="12.0560167"><ele>308.0</ele><time>2026-03-29T07:43:01.079Z</time></trkpt><trkpt lat="43.261875" lon="12.0559433"><ele>308.0</ele><time>2026-03-29T07:43:03.078Z</time></trkpt><trkpt lat="43.2618" lon="12.0558733"><ele>308.0</ele><time>2026-03-29T07:43:05.079Z</time></trkpt><trkpt lat="43.26172" lon="12.0557817"><ele>308.0</ele><time>2026-03-29T07:43:07.078Z</time></trkpt><trkpt lat="43.26165" lon="12.0557"><ele>308.0</ele><time>2026-03-29T07:43:09.078Z</time></trkpt><trkpt lat="43.2615583" lon="12.055645"><ele>308.0</ele><time>2026-03-29T07:43:11.079Z</time></trkpt><trkpt lat="43.261495" lon="12.0556267"><ele>307.6666666666667</ele><time>2026-03-29T07:43:12.079Z</time></trkpt><trkpt lat="43.261375" lon="12.0556033"><ele>307.33333333333337</ele><time>2026-03-29T07:43:14.079Z</time></trkpt><trkpt lat="43.261305" lon="12.055585"><ele>307.0</ele><time>2026-03-29T07:43:15.079Z</time></trkpt><trkpt lat="43.26123" lon="12.0555633"><ele>306.6666666666667</ele><time>2026-03-29T07:43:16.079Z</time></trkpt><trkpt lat="43.2611567" lon="12.05554"><ele>306.3333333333333</ele><time>2026-03-29T07:43:17.079Z</time></trkpt><trkpt lat="43.2610817" lon="12.0555217"><ele>306.0</ele><time>2026-03-29T07:43:18.079Z</time></trkpt><trkpt lat="43.2610067" lon="12.0555083"><ele>306.0</ele><time>2026-03-29T07:43:19.078Z</time></trkpt><trkpt lat="43.2609417" lon="12.0555033"><ele>306.0</ele><time>2026-03-29T07:43:20.078Z</time></trkpt><trkpt lat="43.2608717" lon="12.0554917"><ele>306.0</ele><time>2026-03-29T07:43:21.079Z</time></trkpt><trkpt lat="43.2608067" lon="12.05548"><ele>306.0</ele><time>2026-03-29T07:43:22.079Z</time></trkpt><trkpt lat="43.2607417" lon="12.0554633"><ele>306.0</ele><time>2026-03-29T07:43:23.079Z</time></trkpt><trkpt lat="43.2606783" lon="12.0554317"><ele>306.0</ele><time>2026-03-29T07:43:24.079Z</time></trkpt><trkpt lat="43.260615" lon="12.0553967"><ele>306.0</ele><time>2026-03-29T07:43:25.078Z</time></trkpt><trkpt lat="43.2605533" lon="12.0553567"><ele>305.2857142857143</ele><time>2026-03-29T07:43:26.079Z</time></trkpt><trkpt lat="43.2604917" lon="12.05532"><ele>304.57142857142856</ele><time>2026-03-29T07:43:27.079Z</time></trkpt><trkpt lat="43.2604217" lon="12.055285"><ele>303.8571428571429</ele><time>2026-03-29T07:43:28.079Z</time></trkpt><trkpt lat="43.2603533" lon="12.05525"><ele>303.1428571428571</ele><time>2026-03-29T07:43:29.079Z</time></trkpt><trkpt lat="43.2602883" lon="12.0552117"><ele>302.42857142857144</ele><time>2026-03-29T07:43:30.079Z</time></trkpt><trkpt lat="43.2602233" lon="12.05517"><ele>301.7142857142857</ele><time>2026-03-29T07:43:31.078Z</time></trkpt><trkpt lat="43.2601567" lon="12.0551333"><ele>301.0</ele><time>2026-03-29T07:43:32.078Z</time></trkpt><trkpt lat="43.2600833" lon="12.0551"><ele>301.0</ele><time>2026-03-29T07:43:33.079Z</time></trkpt><trkpt lat="43.2600183" lon="12.055065"><ele>301.0</ele><time>2026-03-29T07:43:34.079Z</time></trkpt><trkpt lat="43.2599517" lon="12.0550183"><ele>301.0</ele><time>2026-03-29T07:43:35.078Z</time></trkpt><trkpt lat="43.2598867" lon="12.0549717"><ele>301.0</ele><time>2026-03-29T07:43:36.079Z</time></trkpt><trkpt lat="43.2598217" lon="12.054925"><ele>301.0</ele><time>2026-03-29T07:43:37.079Z</time></trkpt><trkpt lat="43.2597517" lon="12.05489"><ele>301.0</ele><time>2026-03-29T07:43:38.079Z</time></trkpt><trkpt lat="43.2596883" lon="12.05488"><ele>301.0</ele><time>2026-03-29T07:43:39.079Z</time></trkpt><trkpt lat="43.2595767" lon="12.0549517"><ele>299.8</ele><time>2026-03-29T07:43:41.078Z</time></trkpt><trkpt lat="43.2595233" lon="12.0550317"><ele>298.6</ele><time>2026-03-29T07:43:42.079Z</time></trkpt><trkpt lat="43.25947" lon="12.0551417"><ele>297.4</ele><time>2026-03-29T07:43:43.078Z</time></trkpt><trkpt lat="43.2594183" lon="12.0552517"><ele>296.2</ele><time>2026-03-29T07:43:44.079Z</time></trkpt><trkpt lat="43.259365" lon="12.0553833"><ele>295.0</ele><time>2026-03-29T07:43:45.079Z</time></trkpt><trkpt lat="43.2593117" lon="12.0555067"><ele>295.0</ele><time>2026-03-29T07:43:46.078Z</time></trkpt><trkpt lat="43.25926" lon="12.055625"><ele>295.0</ele><time>2026-03-29T07:43:47.079Z</time></trkpt><trkpt lat="43.2592067" lon="12.0557383"><ele>295.0</ele><time>2026-03-29T07:43:48.079Z</time></trkpt><trkpt lat="43.2591417" lon="12.0558383"><ele>295.0</ele><time>2026-03-29T07:43:49.079Z</time></trkpt><trkpt lat="43.2590683" lon="12.0559317"><ele>295.0</ele><time>2026-03-29T07:43:50.078Z</time></trkpt><trkpt lat="43.2589867" lon="12.05601"><ele>294.8</ele><time>2026-03-29T07:43:51.079Z</time></trkpt><trkpt lat="43.2589017" lon="12.056095"><ele>294.6</ele><time>2026-03-29T07:43:52.079Z</time></trkpt><trkpt lat="43.2588133" lon="12.0561783"><ele>294.4</ele><time>2026-03-29T07:43:53.079Z</time></trkpt><trkpt lat="43.2587267" lon="12.05626"><ele>294.2</ele><time>2026-03-29T07:43:54.078Z</time></trkpt><trkpt lat="43.25864" lon="12.0563433"><ele>294.0</ele><time>2026-03-29T07:43:55.079Z</time></trkpt><trkpt lat="43.258555" lon="12.056425"><ele>294.0</ele><time>2026-03-29T07:43:56.078Z</time></trkpt><trkpt lat="43.2584617" lon="12.0565067"><ele>294.0</ele><time>2026-03-29T07:43:57.079Z</time></trkpt><trkpt lat="43.2583733" lon="12.0565883"><ele>294.0</ele><time>2026-03-29T07:43:58.078Z</time></trkpt><trkpt lat="43.258275" lon="12.0566733"><ele>294.0</ele><time>2026-03-29T07:43:59.079Z</time></trkpt><trkpt lat="43.2581733" lon="12.0567567"><ele>293.5</ele><time>2026-03-29T07:44:00.078Z</time></trkpt><trkpt lat="43.258075" lon="12.0568417"><ele>293.0</ele><time>2026-03-29T07:44:01.079Z</time></trkpt><trkpt lat="43.2579833" lon="12.0569367"><ele>292.5</ele><time>2026-03-29T07:44:02.079Z</time></trkpt><trkpt lat="43.2578867" lon="12.0570233"><ele>292.0</ele><time>2026-03-29T07:44:03.079Z</time></trkpt><trkpt lat="43.2577867" lon="12.0571167"><ele>292.0</ele><time>2026-03-29T07:44:04.079Z</time></trkpt><trkpt lat="43.25769" lon="12.057205"><ele>292.0</ele><time>2026-03-29T07:44:05.08Z</time></trkpt><trkpt lat="43.2575883" lon="12.0572983"><ele>292.0</ele><time>2026-03-29T07:44:06.08Z</time></trkpt><trkpt lat="43.257485" lon="12.0573917"><ele>292.0</ele><time>2026-03-29T07:44:07.08Z</time></trkpt><trkpt lat="43.257385" lon="12.0574783"><ele>293.0</ele><time>2026-03-29T07:44:08.08Z</time></trkpt><trkpt lat="43.2572833" lon="12.0575717"><ele>294.0</ele><time>2026-03-29T07:44:09.079Z</time></trkpt><trkpt lat="43.2571833" lon="12.0576667"><ele>295.0</ele><time>2026-03-29T07:44:10.079Z</time></trkpt><trkpt lat="43.2570817" lon="12.05776"><ele>296.0</ele><time>2026-03-29T07:44:11.08Z</time></trkpt><trkpt lat="43.2569733" lon="12.0578533"><ele>296.0</ele><time>2026-03-29T07:44:12.08Z</time></trkpt><trkpt lat="43.2568633" lon="12.0579383"><ele>296.0</ele><time>2026-03-29T07:44:13.08Z</time></trkpt><trkpt lat="43.2567583" lon="12.058025"><ele>296.0</ele><time>2026-03-29T07:44:14.08Z</time></trkpt><trkpt lat="43.2566583" lon="12.0581233"><ele>296.0</ele><time>2026-03-29T07:44:15.079Z</time></trkpt><trkpt lat="43.2565583" lon="12.0582133"><ele>296.5</ele><time>2026-03-29T07:44:16.08Z</time></trkpt><trkpt lat="43.25646" lon="12.0583033"><ele>297.0</ele><time>2026-03-29T07:44:17.08Z</time></trkpt><trkpt lat="43.2563667" lon="12.0583917"><ele>297.5</ele><time>2026-03-29T07:44:18.08Z</time></trkpt><trkpt lat="43.2562683" lon="12.05848"><ele>298.0</ele><time>2026-03-29T07:44:19.079Z</time></trkpt><trkpt lat="43.2561633" lon="12.0585667"><ele>298.0</ele><time>2026-03-29T07:44:20.079Z</time></trkpt><trkpt lat="43.25606" lon="12.058655"><ele>298.0</ele><time>2026-03-29T07:44:21.08Z</time></trkpt><trkpt lat="43.2559633" lon="12.0587517"><ele>298.0</ele><time>2026-03-29T07:44:22.079Z</time></trkpt><trkpt lat="43.2558617" lon="12.0588417"><ele>298.0</ele><time>2026-03-29T07:44:23.079Z</time></trkpt><trkpt lat="43.2557667" lon="12.0589267"><ele>298.0</ele><time>2026-03-29T07:44:24.08Z</time></trkpt><trkpt lat="43.25567" lon="12.0590083"><ele>298.0</ele><time>2026-03-29T07:44:25.08Z</time></trkpt><trkpt lat="43.2555767" lon="12.0591033"><ele>298.0</ele><time>2026-03-29T07:44:26.08Z</time></trkpt><trkpt lat="43.25548" lon="12.0591883"><ele>298.0</ele><time>2026-03-29T07:44:27.08Z</time></trkpt><trkpt lat="43.2553933" lon="12.05929"><ele>297.6</ele><time>2026-03-29T07:44:28.08Z</time></trkpt><trkpt lat="43.255305" lon="12.0593967"><ele>297.20000000000005</ele><time>2026-03-29T07:44:29.079Z</time></trkpt><trkpt lat="43.25522" lon="12.0595017"><ele>296.8</ele><time>2026-03-29T07:44:30.08Z</time></trkpt><trkpt lat="43.2551383" lon="12.0595967"><ele>296.40000000000003</ele><time>2026-03-29T07:44:31.08Z</time></trkpt><trkpt lat="43.2550567" lon="12.0596783"><ele>296.0</ele><time>2026-03-29T07:44:32.08Z</time></trkpt><trkpt lat="43.2549817" lon="12.0597333"><ele>296.0</ele><time>2026-03-29T07:44:33.08Z</time></trkpt><trkpt lat="43.2549117" lon="12.0597467"><ele>296.0</ele><time>2026-03-29T07:44:34.08Z</time></trkpt><trkpt lat="43.2548517" lon="12.05972"><ele>296.0</ele><time>2026-03-29T07:44:35.079Z</time></trkpt><trkpt lat="43.2547917" lon="12.0596617"><ele>296.0</ele><time>2026-03-29T07:44:36.08Z</time></trkpt><trkpt lat="43.2547383" lon="12.059585"><ele>296.0</ele><time>2026-03-29T07:44:37.08Z</time></trkpt><trkpt lat="43.2546817" lon="12.0595083"><ele>296.0</ele><time>2026-03-29T07:44:38.079Z</time></trkpt><trkpt lat="43.254625" lon="12.059435"><ele>296.0</ele><time>2026-03-29T07:44:39.079Z</time></trkpt><trkpt lat="43.25458" lon="12.05937"><ele>295.83333333333337</ele><time>2026-03-29T07:44:40.08Z</time></trkpt><trkpt lat="43.25451" lon="12.0592783"><ele>295.6666666666667</ele><time>2026-03-29T07:44:42.08Z</time></trkpt><trkpt lat="43.2544367" lon="12.0592317"><ele>295.5</ele><time>2026-03-29T07:44:49.08Z</time></trkpt><trkpt lat="43.2544033" lon="12.0593117"><ele>295.3333333333333</ele><time>2026-03-29T07:44:52.08Z</time></trkpt><trkpt lat="43.254405" lon="12.0593983"><ele>295.16666666666663</ele><time>2026-03-29T07:44:53.08Z</time></trkpt><trkpt lat="43.2544117" lon="12.059505"><ele>295.0</ele><time>2026-03-29T07:44:54.08Z</time></trkpt><trkpt lat="43.2544083" lon="12.059615"><ele>295.0</ele><time>2026-03-29T07:44:55.08Z</time></trkpt><trkpt lat="43.2544067" lon="12.05974"><ele>295.0</ele><time>2026-03-29T07:44:56.079Z</time></trkpt><trkpt lat="43.2544017" lon="12.0598633"><ele>295.0</ele><time>2026-03-29T07:44:57.079Z</time></trkpt><trkpt lat="43.2543933" lon="12.0600033"><ele>295.0</ele><time>2026-03-29T07:44:58.079Z</time></trkpt><trkpt lat="43.2543833" lon="12.06015"><ele>295.0</ele><time>2026-03-29T07:44:59.08Z</time></trkpt><trkpt lat="43.2543767" lon="12.0602983"><ele>295.5</ele><time>2026-03-29T07:45:00.08Z</time></trkpt><trkpt lat="43.254365" lon="12.0604567"><ele>296.0</ele><time>2026-03-29T07:45:01.08Z</time></trkpt><trkpt lat="43.2543467" lon="12.06061"><ele>296.5</ele><time>2026-03-29T07:45:02.08Z</time></trkpt><trkpt lat="43.2543367" lon="12.0607783"><ele>297.0</ele><time>2026-03-29T07:45:03.079Z</time></trkpt><trkpt lat="43.25432" lon="12.0609417"><ele>298.0</ele><time>2026-03-29T07:45:04.079Z</time></trkpt><trkpt lat="43.2543083" lon="12.0611183"><ele>299.0</ele><time>2026-03-29T07:45:05.079Z</time></trkpt><trkpt lat="43.254305" lon="12.0612983"><ele>300.0</ele><time>2026-03-29T07:45:06.08Z</time></trkpt><trkpt lat="43.2543033" lon="12.0614817"><ele>301.0</ele><time>2026-03-29T07:45:07.08Z</time></trkpt><trkpt lat="43.2543083" lon="12.061665"><ele>301.25</ele><time>2026-03-29T07:45:08.079Z</time></trkpt><trkpt lat="43.2543067" lon="12.0618517"><ele>301.5</ele><time>2026-03-29T07:45:09.08Z</time></trkpt><trkpt lat="43.2543033" lon="12.06203"><ele>301.75</ele><time>2026-03-29T07:45:10.08Z</time></trkpt><trkpt lat="43.2542967" lon="12.0622133"><ele>302.0</ele><time>2026-03-29T07:45:11.08Z</time></trkpt><trkpt lat="43.2542883" lon="12.062395"><ele>302.25</ele><time>2026-03-29T07:45:12.079Z</time></trkpt><trkpt lat="43.2542833" lon="12.0625767"><ele>302.5</ele><time>2026-03-29T07:45:13.08Z</time></trkpt><trkpt lat="43.25428" lon="12.06276"><ele>302.75</ele><time>2026-03-29T07:45:14.08Z</time></trkpt><trkpt lat="43.2542883" lon="12.0629433"><ele>303.0</ele><time>2026-03-29T07:45:15.08Z</time></trkpt><trkpt lat="43.25429" lon="12.06313"><ele>303.25</ele><time>2026-03-29T07:45:16.08Z</time></trkpt><trkpt lat="43.2542933" lon="12.06332"><ele>303.5</ele><time>2026-03-29T07:45:17.08Z</time></trkpt><trkpt lat="43.2542967" lon="12.0635033"><ele>303.75</ele><time>2026-03-29T07:45:18.079Z</time></trkpt><trkpt lat="43.2543" lon="12.0636883"><ele>304.0</ele><time>2026-03-29T07:45:19.08Z</time></trkpt><trkpt lat="43.2543033" lon="12.0638833"><ele>304.0</ele><time>2026-03-29T07:45:20.08Z</time></trkpt><trkpt lat="43.2543067" lon="12.0640733"><ele>304.0</ele><time>2026-03-29T07:45:21.08Z</time></trkpt><trkpt lat="43.2543167" lon="12.0642667"><ele>304.0</ele><time>2026-03-29T07:45:22.08Z</time></trkpt><trkpt lat="43.2543233" lon="12.0644567"><ele>304.0</ele><time>2026-03-29T07:45:23.079Z</time></trkpt><trkpt lat="43.2543333" lon="12.0646417"><ele>304.25</ele><time>2026-03-29T07:45:24.08Z</time></trkpt><trkpt lat="43.2543417" lon="12.0648367"><ele>304.5</ele><time>2026-03-29T07:45:25.079Z</time></trkpt><trkpt lat="43.2543483" lon="12.0650183"><ele>304.75</ele><time>2026-03-29T07:45:26.08Z</time></trkpt><trkpt lat="43.2543583" lon="12.0652033"><ele>305.0</ele><time>2026-03-29T07:45:27.08Z</time></trkpt><trkpt lat="43.2543683" lon="12.06539"><ele>305.5</ele><time>2026-03-29T07:45:28.079Z</time></trkpt><trkpt lat="43.2543783" lon="12.0655683"><ele>306.0</ele><time>2026-03-29T07:45:29.08Z</time></trkpt><trkpt lat="43.2543967" lon="12.0657533"><ele>306.5</ele><time>2026-03-29T07:45:30.08Z</time></trkpt><trkpt lat="43.2544283" lon="12.06594"><ele>307.0</ele><time>2026-03-29T07:45:31.08Z</time></trkpt><trkpt lat="43.2544567" lon="12.0661267"><ele>307.75</ele><time>2026-03-29T07:45:32.08Z</time></trkpt><trkpt lat="43.25449" lon="12.0663083"><ele>308.5</ele><time>2026-03-29T07:45:33.08Z</time></trkpt><trkpt lat="43.2545183" lon="12.0664933"><ele>309.25</ele><time>2026-03-29T07:45:34.08Z</time></trkpt><trkpt lat="43.254545" lon="12.0666833"><ele>310.0</ele><time>2026-03-29T07:45:35.08Z</time></trkpt><trkpt lat="43.2545717" lon="12.0668633"><ele>310.0</ele><time>2026-03-29T07:45:36.079Z</time></trkpt><trkpt lat="43.2546" lon="12.067045"><ele>310.0</ele><time>2026-03-29T07:45:37.08Z</time></trkpt><trkpt lat="43.2546317" lon="12.067225"><ele>310.0</ele><time>2026-03-29T07:45:38.079Z</time></trkpt><trkpt lat="43.2546667" lon="12.067405"><ele>310.0</ele><time>2026-03-29T07:45:39.08Z</time></trkpt><trkpt lat="43.254695" lon="12.0675967"><ele>310.25</ele><time>2026-03-29T07:45:40.079Z</time></trkpt><trkpt lat="43.25473" lon="12.0677833"><ele>310.5</ele><time>2026-03-29T07:45:41.08Z</time></trkpt><trkpt lat="43.2547617" lon="12.0679717"><ele>310.75</ele><time>2026-03-29T07:45:42.079Z</time></trkpt><trkpt lat="43.254785" lon="12.0681633"><ele>311.0</ele><time>2026-03-29T07:45:43.079Z</time></trkpt><trkpt lat="43.25481" lon="12.06835"><ele>314.0</ele><time>2026-03-29T07:45:44.08Z</time></trkpt><trkpt lat="43.2548217" lon="12.06854"><ele>317.0</ele><time>2026-03-29T07:45:45.079Z</time></trkpt><trkpt lat="43.254815" lon="12.0687367"><ele>320.0</ele><time>2026-03-29T07:45:46.079Z</time></trkpt><trkpt lat="43.254815" lon="12.068925"><ele>323.0</ele><time>2026-03-29T07:45:47.08Z</time></trkpt><trkpt lat="43.2548167" lon="12.06912"><ele>325.0</ele><time>2026-03-29T07:45:48.08Z</time></trkpt><trkpt lat="43.25482" lon="12.06931"><ele>327.0</ele><time>2026-03-29T07:45:49.079Z</time></trkpt><trkpt lat="43.2548183" lon="12.0695133"><ele>329.0</ele><time>2026-03-29T07:45:50.08Z</time></trkpt><trkpt lat="43.2548133" lon="12.069705"><ele>331.0</ele><time>2026-03-29T07:45:51.079Z</time></trkpt><trkpt lat="43.2548" lon="12.0699017"><ele>329.25</ele><time>2026-03-29T07:45:52.079Z</time></trkpt><trkpt lat="43.2547633" lon="12.0700883"><ele>327.5</ele><time>2026-03-29T07:45:53.08Z</time></trkpt><trkpt lat="43.2547267" lon="12.0702767"><ele>325.75</ele><time>2026-03-29T07:45:54.08Z</time></trkpt><trkpt lat="43.2546833" lon="12.0704733"><ele>324.0</ele><time>2026-03-29T07:45:55.079Z</time></trkpt><trkpt lat="43.25462" lon="12.0706783"><ele>326.6666666666667</ele><time>2026-03-29T07:45:56.079Z</time></trkpt><trkpt lat="43.2545533" lon="12.0708717"><ele>329.33333333333337</ele><time>2026-03-29T07:45:57.08Z</time></trkpt><trkpt lat="43.2544817" lon="12.0710717"><ele>332.0</ele><time>2026-03-29T07:45:58.08Z</time></trkpt><trkpt lat="43.2544017" lon="12.071265"><ele>332.0</ele><time>2026-03-29T07:45:59.08Z</time></trkpt><trkpt lat="43.2543133" lon="12.07144"><ele>332.0</ele><time>2026-03-29T07:46:00.079Z</time></trkpt><trkpt lat="43.2542067" lon="12.07159"><ele>332.0</ele><time>2026-03-29T07:46:01.08Z</time></trkpt><trkpt lat="43.254075" lon="12.071715"><ele>332.33333333333337</ele><time>2026-03-29T07:46:02.08Z</time></trkpt><trkpt lat="43.25394" lon="12.0718317"><ele>332.6666666666667</ele><time>2026-03-29T07:46:03.08Z</time></trkpt><trkpt lat="43.253805" lon="12.071955"><ele>333.0</ele><time>2026-03-29T07:46:04.08Z</time></trkpt><trkpt lat="43.2536733" lon="12.0720717"><ele>333.0</ele><time>2026-03-29T07:46:05.08Z</time></trkpt><trkpt lat="43.2535517" lon="12.072185"><ele>333.0</ele><time>2026-03-29T07:46:06.08Z</time></trkpt><trkpt lat="43.2534433" lon="12.0723283"><ele>333.0</ele><time>2026-03-29T07:46:07.08Z</time></trkpt><trkpt lat="43.2533683" lon="12.0724767"><ele>333.0</ele><time>2026-03-29T07:46:08.08Z</time></trkpt><trkpt lat="43.2533283" lon="12.07263"><ele>334.79999999999995</ele><time>2026-03-29T07:46:09.08Z</time></trkpt><trkpt lat="43.2533167" lon="12.0727717"><ele>336.6</ele><time>2026-03-29T07:46:10.079Z</time></trkpt><trkpt lat="43.2533467" lon="12.072905"><ele>338.4</ele><time>2026-03-29T07:46:11.08Z</time></trkpt><trkpt lat="43.2534067" lon="12.0730017"><ele>340.20000000000005</ele><time>2026-03-29T07:46:12.079Z</time></trkpt><trkpt lat="43.253485" lon="12.0730567"><ele>342.0</ele><time>2026-03-29T07:46:13.08Z</time></trkpt><trkpt lat="43.2535833" lon="12.0730617"><ele>342.0</ele><time>2026-03-29T07:46:14.08Z</time></trkpt><trkpt lat="43.25369" lon="12.0730217"><ele>342.0</ele><time>2026-03-29T07:46:15.08Z</time></trkpt><trkpt lat="43.2538017" lon="12.0729483"><ele>342.0</ele><time>2026-03-29T07:46:16.08Z</time></trkpt><trkpt lat="43.253915" lon="12.0728333"><ele>342.0</ele><time>2026-03-29T07:46:17.08Z</time></trkpt><trkpt lat="43.2540467" lon="12.0727133"><ele>347.6666666666667</ele><time>2026-03-29T07:46:18.079Z</time></trkpt><trkpt lat="43.2541783" lon="12.0726067"><ele>353.33333333333337</ele><time>2026-03-29T07:46:19.079Z</time></trkpt><trkpt lat="43.2543233" lon="12.0725183"><ele>359.0</ele><time>2026-03-29T07:46:20.08Z</time></trkpt><trkpt lat="43.2544733" lon="12.07246"><ele>360.5</ele><time>2026-03-29T07:46:21.08Z</time></trkpt><trkpt lat="43.2546167" lon="12.0724067"><ele>362.0</ele><time>2026-03-29T07:46:22.08Z</time></trkpt><trkpt lat="43.254755" lon="12.072355"><ele>363.5</ele><time>2026-03-29T07:46:23.08Z</time></trkpt><trkpt lat="43.2548783" lon="12.0722617"><ele>365.0</ele><time>2026-03-29T07:46:24.08Z</time></trkpt><trkpt lat="43.2549717" lon="12.0721467"><ele>365.0</ele><time>2026-03-29T07:46:25.08Z</time></trkpt><trkpt lat="43.2550467" lon="12.0719933"><ele>365.0</ele><time>2026-03-29T07:46:26.08Z</time></trkpt><trkpt lat="43.2551" lon="12.071815"><ele>365.0</ele><time>2026-03-29T07:46:27.079Z</time></trkpt><trkpt lat="43.25513" lon="12.071645"><ele>365.0</ele><time>2026-03-29T07:46:28.079Z</time></trkpt><trkpt lat="43.255185" lon="12.0715083"><ele>360.6666666666667</ele><time>2026-03-29T07:46:29.08Z</time></trkpt><trkpt lat="43.2552633" lon="12.07141"><ele>356.3333333333333</ele><time>2026-03-29T07:46:30.08Z</time></trkpt><trkpt lat="43.25536" lon="12.0713567"><ele>352.0</ele><time>2026-03-29T07:46:31.079Z</time></trkpt><trkpt lat="43.255605" lon="12.071385"><ele>355.75</ele><time>2026-03-29T07:46:33.08Z</time></trkpt><trkpt lat="43.2557483" lon="12.07142"><ele>359.5</ele><time>2026-03-29T07:46:34.08Z</time></trkpt><trkpt lat="43.2558917" lon="12.0714217"><ele>363.25</ele><time>2026-03-29T07:46:35.079Z</time></trkpt><trkpt lat="43.2560067" lon="12.0713967"><ele>367.0</ele><time>2026-03-29T07:46:36.08Z</time></trkpt><trkpt lat="43.256105" lon="12.0713267"><ele>367.0</ele><time>2026-03-29T07:46:37.08Z</time></trkpt><trkpt lat="43.256195" lon="12.0711933"><ele>367.0</ele><time>2026-03-29T07:46:38.079Z</time></trkpt><trkpt lat="43.256285" lon="12.0710583"><ele>367.0</ele><time>2026-03-29T07:46:39.08Z</time></trkpt><trkpt lat="43.256375" lon="12.0709567"><ele>367.0</ele><time>2026-03-29T07:46:40.08Z</time></trkpt><trkpt lat="43.2564817" lon="12.0708917"><ele>369.0</ele><time>2026-03-29T07:46:41.08Z</time></trkpt><trkpt lat="43.2566" lon="12.0708817"><ele>371.0</ele><time>2026-03-29T07:46:42.08Z</time></trkpt><trkpt lat="43.2567183" lon="12.0709167"><ele>373.0</ele><time>2026-03-29T07:46:43.08Z</time></trkpt><trkpt lat="43.2568217" lon="12.0710067"><ele>375.0</ele><time>2026-03-29T07:46:44.079Z</time></trkpt><trkpt lat="43.2569117" lon="12.0711333"><ele>375.0</ele><time>2026-03-29T07:46:45.079Z</time></trkpt><trkpt lat="43.2569833" lon="12.071305"><ele>375.0</ele><time>2026-03-29T07:46:46.079Z</time></trkpt><trkpt lat="43.2570417" lon="12.0715"><ele>375.0</ele><time>2026-03-29T07:46:47.079Z</time></trkpt><trkpt lat="43.2571" lon="12.071705"><ele>374.5</ele><time>2026-03-29T07:46:48.08Z</time></trkpt><trkpt lat="43.2571467" lon="12.0719033"><ele>374.0</ele><time>2026-03-29T07:46:49.08Z</time></trkpt><trkpt lat="43.2571967" lon="12.072075"><ele>373.5</ele><time>2026-03-29T07:46:50.079Z</time></trkpt><trkpt lat="43.257245" lon="12.0722333"><ele>373.0</ele><time>2026-03-29T07:46:51.08Z</time></trkpt><trkpt lat="43.2572933" lon="12.0723767"><ele>375.66666666666663</ele><time>2026-03-29T07:46:52.08Z</time></trkpt><trkpt lat="43.257335" lon="12.0725083"><ele>378.3333333333333</ele><time>2026-03-29T07:46:53.079Z</time></trkpt><trkpt lat="43.2573617" lon="12.0726283"><ele>381.0</ele><time>2026-03-29T07:46:54.08Z</time></trkpt><trkpt lat="43.2573633" lon="12.0727433"><ele>383.66666666666663</ele><time>2026-03-29T07:46:55.079Z</time></trkpt><trkpt lat="43.2573367" lon="12.0728467"><ele>386.3333333333333</ele><time>2026-03-29T07:46:56.08Z</time></trkpt><trkpt lat="43.257285" lon="12.072925"><ele>389.0</ele><time>2026-03-29T07:46:57.079Z</time></trkpt><trkpt lat="43.2572167" lon="12.0729683"><ele>392.4</ele><time>2026-03-29T07:46:58.08Z</time></trkpt><trkpt lat="43.257125" lon="12.072965"><ele>395.79999999999995</ele><time>2026-03-29T07:46:59.08Z</time></trkpt><trkpt lat="43.2570417" lon="12.0728967"><ele>399.20000000000005</ele><time>2026-03-29T07:47:00.08Z</time></trkpt><trkpt lat="43.2569717" lon="12.0727783"><ele>402.6</ele><time>2026-03-29T07:47:01.08Z</time></trkpt><trkpt lat="43.25691" lon="12.0726317"><ele>406.0</ele><time>2026-03-29T07:47:02.079Z</time></trkpt><trkpt lat="43.2568583" lon="12.0724717"><ele>403.0</ele><time>2026-03-29T07:47:03.08Z</time></trkpt><trkpt lat="43.2567917" lon="12.07234"><ele>400.0</ele><time>2026-03-29T07:47:04.08Z</time></trkpt><trkpt lat="43.2567133" lon="12.0722467"><ele>397.0</ele><time>2026-03-29T07:47:05.079Z</time></trkpt><trkpt lat="43.2566133" lon="12.0722183"><ele>394.0</ele><time>2026-03-29T07:47:06.079Z</time></trkpt><trkpt lat="43.2564917" lon="12.0722367"><ele>391.0</ele><time>2026-03-29T07:47:07.08Z</time></trkpt><trkpt lat="43.2563717" lon="12.07229"><ele>389.5</ele><time>2026-03-29T07:47:08.08Z</time></trkpt><trkpt lat="43.2562683" lon="12.0723767"><ele>388.0</ele><time>2026-03-29T07:47:09.079Z</time></trkpt><trkpt lat="43.2561767" lon="12.0724933"><ele>386.5</ele><time>2026-03-29T07:47:10.08Z</time></trkpt><trkpt lat="43.2561167" lon="12.0726467"><ele>385.0</ele><time>2026-03-29T07:47:11.08Z</time></trkpt><trkpt lat="43.2561017" lon="12.07281"><ele>388.5</ele><time>2026-03-29T07:47:12.08Z</time></trkpt><trkpt lat="43.2560933" lon="12.0729733"><ele>392.0</ele><time>2026-03-29T07:47:13.08Z</time></trkpt><trkpt lat="43.2560633" lon="12.0731317"><ele>395.5</ele><time>2026-03-29T07:47:14.079Z</time></trkpt><trkpt lat="43.256" lon="12.0732667"><ele>399.0</ele><time>2026-03-29T07:47:15.079Z</time></trkpt><trkpt lat="43.255915" lon="12.0733767"><ele>399.5</ele><time>2026-03-29T07:47:16.079Z</time></trkpt><trkpt lat="43.2558017" lon="12.073465"><ele>400.0</ele><time>2026-03-29T07:47:17.08Z</time></trkpt><trkpt lat="43.2556783" lon="12.073545"><ele>400.5</ele><time>2026-03-29T07:47:18.079Z</time></trkpt><trkpt lat="43.25554" lon="12.0736233"><ele>401.0</ele><time>2026-03-29T07:47:19.08Z</time></trkpt><trkpt lat="43.25541" lon="12.073715"><ele>401.0</ele><time>2026-03-29T07:47:20.08Z</time></trkpt><trkpt lat="43.2552933" lon="12.073795"><ele>401.0</ele><time>2026-03-29T07:47:21.08Z</time></trkpt><trkpt lat="43.2551983" lon="12.0738733"><ele>401.0</ele><time>2026-03-29T07:47:22.08Z</time></trkpt><trkpt lat="43.2551183" lon="12.0739767"><ele>401.0</ele><time>2026-03-29T07:47:23.079Z</time></trkpt><trkpt lat="43.2550633" lon="12.074105"><ele>405.5</ele><time>2026-03-29T07:47:24.08Z</time></trkpt><trkpt lat="43.2550417" lon="12.0742483"><ele>410.0</ele><time>2026-03-29T07:47:25.079Z</time></trkpt><trkpt lat="43.2550483" lon="12.0744083"><ele>414.5</ele><time>2026-03-29T07:47:26.08Z</time></trkpt><trkpt lat="43.2550717" lon="12.0745817"><ele>419.0</ele><time>2026-03-29T07:47:27.079Z</time></trkpt><trkpt lat="43.255095" lon="12.0747717"><ele>422.0</ele><time>2026-03-29T07:47:28.08Z</time></trkpt><trkpt lat="43.255105" lon="12.074975"><ele>425.0</ele><time>2026-03-29T07:47:29.08Z</time></trkpt><trkpt lat="43.255105" lon="12.075185"><ele>428.0</ele><time>2026-03-29T07:47:30.08Z</time></trkpt><trkpt lat="43.2550917" lon="12.0753967"><ele>428.0</ele><time>2026-03-29T07:47:31.08Z</time></trkpt><trkpt lat="43.255085" lon="12.07562"><ele>428.0</ele><time>2026-03-29T07:47:32.079Z</time></trkpt><trkpt lat="43.2550683" lon="12.075845"><ele>428.0</ele><time>2026-03-29T07:47:33.08Z</time></trkpt><trkpt lat="43.2550533" lon="12.0760717"><ele>431.0</ele><time>2026-03-29T07:47:34.08Z</time></trkpt><trkpt lat="43.25504" lon="12.0763"><ele>434.0</ele><time>2026-03-29T07:47:35.08Z</time></trkpt><trkpt lat="43.2550333" lon="12.076525"><ele>437.0</ele><time>2026-03-29T07:47:36.08Z</time></trkpt><trkpt lat="43.2550333" lon="12.07674"><ele>440.0</ele><time>2026-03-29T07:47:37.079Z</time></trkpt><trkpt lat="43.2550317" lon="12.0769417"><ele>443.0</ele><time>2026-03-29T07:47:38.08Z</time></trkpt><trkpt lat="43.2550283" lon="12.0771167"><ele>446.0</ele><time>2026-03-29T07:47:39.079Z</time></trkpt><trkpt lat="43.254995" lon="12.077275"><ele>449.0</ele><time>2026-03-29T07:47:40.08Z</time></trkpt><trkpt lat="43.2549583" lon="12.0774033"><ele>447.79999999999995</ele><time>2026-03-29T07:47:41.08Z</time></trkpt><trkpt lat="43.2548983" lon="12.07751"><ele>446.59999999999997</ele><time>2026-03-29T07:47:42.08Z</time></trkpt><trkpt lat="43.2548083" lon="12.07758"><ele>445.4</ele><time>2026-03-29T07:47:43.079Z</time></trkpt><trkpt lat="43.254715" lon="12.0776133"><ele>444.2</ele><time>2026-03-29T07:47:44.079Z</time></trkpt><trkpt lat="43.254635" lon="12.0776633"><ele>443.0</ele><time>2026-03-29T07:47:45.08Z</time></trkpt><trkpt lat="43.2545683" lon="12.077745"><ele>443.0</ele><time>2026-03-29T07:47:46.08Z</time></trkpt><trkpt lat="43.25452" lon="12.0778517"><ele>443.0</ele><time>2026-03-29T07:47:47.08Z</time></trkpt><trkpt lat="43.2544833" lon="12.078"><ele>443.0</ele><time>2026-03-29T07:47:48.079Z</time></trkpt><trkpt lat="43.254455" lon="12.078175"><ele>443.0</ele><time>2026-03-29T07:47:49.079Z</time></trkpt><trkpt lat="43.2544167" lon="12.0783683"><ele>445.66666666666663</ele><time>2026-03-29T07:47:50.08Z</time></trkpt><trkpt lat="43.254385" lon="12.07857"><ele>448.33333333333337</ele><time>2026-03-29T07:47:51.08Z</time></trkpt><trkpt lat="43.254365" lon="12.0787867"><ele>451.0</ele><time>2026-03-29T07:47:52.08Z</time></trkpt><trkpt lat="43.2543333" lon="12.0790067"><ele>454.0</ele><time>2026-03-29T07:47:53.08Z</time></trkpt><trkpt lat="43.2543083" lon="12.0792267"><ele>457.0</ele><time>2026-03-29T07:47:54.08Z</time></trkpt><trkpt lat="43.2542783" lon="12.0794583"><ele>460.0</ele><time>2026-03-29T07:47:55.08Z</time></trkpt><trkpt lat="43.25424" lon="12.0796783"><ele>460.0</ele><time>2026-03-29T07:47:56.08Z</time></trkpt><trkpt lat="43.254175" lon="12.0798933"><ele>460.0</ele><time>2026-03-29T07:47:57.079Z</time></trkpt><trkpt lat="43.2540867" lon="12.080095"><ele>460.0</ele><time>2026-03-29T07:47:58.08Z</time></trkpt><trkpt lat="43.2539783" lon="12.0802733"><ele>459.33333333333337</ele><time>2026-03-29T07:47:59.08Z</time></trkpt><trkpt lat="43.25384" lon="12.0804117"><ele>458.66666666666663</ele><time>2026-03-29T07:48:00.08Z</time></trkpt><trkpt lat="43.2536783" lon="12.0805483"><ele>458.0</ele><time>2026-03-29T07:48:01.079Z</time></trkpt><trkpt lat="43.2535383" lon="12.0806883"><ele>465.3333333333333</ele><time>2026-03-29T07:48:02.08Z</time></trkpt><trkpt lat="43.25338" lon="12.080815"><ele>472.66666666666663</ele><time>2026-03-29T07:48:03.08Z</time></trkpt><trkpt lat="43.2532533" lon="12.0809383"><ele>480.0</ele><time>2026-03-29T07:48:04.079Z</time></trkpt><trkpt lat="43.2531383" lon="12.081055"><ele>478.25</ele><time>2026-03-29T07:48:05.08Z</time></trkpt><trkpt lat="43.25304" lon="12.08119"><ele>476.5</ele><time>2026-03-29T07:48:06.08Z</time></trkpt><trkpt lat="43.25296" lon="12.081355"><ele>474.75</ele><time>2026-03-29T07:48:07.079Z</time></trkpt><trkpt lat="43.252895" lon="12.0815367"><ele>473.0</ele><time>2026-03-29T07:48:08.08Z</time></trkpt><trkpt lat="43.25285" lon="12.0817367"><ele>473.0</ele><time>2026-03-29T07:48:09.079Z</time></trkpt><trkpt lat="43.25282" lon="12.08195"><ele>473.0</ele><time>2026-03-29T07:48:10.079Z</time></trkpt><trkpt lat="43.2527817" lon="12.0821667"><ele>473.0</ele><time>2026-03-29T07:48:11.08Z</time></trkpt><trkpt lat="43.2527267" lon="12.0823917"><ele>476.66666666666663</ele><time>2026-03-29T07:48:12.08Z</time></trkpt><trkpt lat="43.2526533" lon="12.082605"><ele>480.33333333333337</ele><time>2026-03-29T07:48:13.08Z</time></trkpt><trkpt lat="43.2525583" lon="12.0828083"><ele>484.0</ele><time>2026-03-29T07:48:14.08Z</time></trkpt><trkpt lat="43.252445" lon="12.0829783"><ele>484.0</ele><time>2026-03-29T07:48:15.08Z</time></trkpt><trkpt lat="43.2523317" lon="12.0831317"><ele>484.0</ele><time>2026-03-29T07:48:16.08Z</time></trkpt><trkpt lat="43.2522267" lon="12.0832917"><ele>484.0</ele><time>2026-03-29T07:48:17.08Z</time></trkpt><trkpt lat="43.2521483" lon="12.08345"><ele>484.5</ele><time>2026-03-29T07:48:18.079Z</time></trkpt><trkpt lat="43.252085" lon="12.0836283"><ele>485.0</ele><time>2026-03-29T07:48:19.079Z</time></trkpt><trkpt lat="43.2520567" lon="12.0838267"><ele>485.5</ele><time>2026-03-29T07:48:20.079Z</time></trkpt><trkpt lat="43.2520483" lon="12.0840417"><ele>486.0</ele><time>2026-03-29T07:48:21.08Z</time></trkpt><trkpt lat="43.2520517" lon="12.0842717"><ele>486.0</ele><time>2026-03-29T07:48:22.079Z</time></trkpt><trkpt lat="43.252085" lon="12.084515"><ele>486.0</ele><time>2026-03-29T07:48:23.079Z</time></trkpt><trkpt lat="43.2521283" lon="12.0847617"><ele>486.0</ele><time>2026-03-29T07:48:24.08Z</time></trkpt><trkpt lat="43.2521867" lon="12.0850033"><ele>490.0</ele><time>2026-03-29T07:48:25.079Z</time></trkpt><trkpt lat="43.25223" lon="12.0852283"><ele>494.0</ele><time>2026-03-29T07:48:26.08Z</time></trkpt><trkpt lat="43.2522583" lon="12.08544"><ele>498.0</ele><time>2026-03-29T07:48:27.08Z</time></trkpt><trkpt lat="43.2522617" lon="12.0856533"><ele>500.66666666666663</ele><time>2026-03-29T07:48:28.079Z</time></trkpt><trkpt lat="43.252235" lon="12.085875"><ele>503.3333333333333</ele><time>2026-03-29T07:48:29.08Z</time></trkpt><trkpt lat="43.252205" lon="12.086105"><ele>506.0</ele><time>2026-03-29T07:48:30.08Z</time></trkpt><trkpt lat="43.2521717" lon="12.0863233"><ele>506.0</ele><time>2026-03-29T07:48:31.079Z</time></trkpt><trkpt lat="43.252115" lon="12.0865117"><ele>506.0</ele><time>2026-03-29T07:48:32.08Z</time></trkpt><trkpt lat="43.2520317" lon="12.0866767"><ele>506.0</ele><time>2026-03-29T07:48:33.08Z</time></trkpt><trkpt lat="43.2519233" lon="12.0868233"><ele>506.0</ele><time>2026-03-29T07:48:34.08Z</time></trkpt><trkpt lat="43.25179" lon="12.0869483"><ele>509.3333333333333</ele><time>2026-03-29T07:48:35.08Z</time></trkpt><trkpt lat="43.2516467" lon="12.08704"><ele>512.6666666666666</ele><time>2026-03-29T07:48:36.079Z</time></trkpt><trkpt lat="43.2514767" lon="12.0871283"><ele>516.0</ele><time>2026-03-29T07:48:37.079Z</time></trkpt><trkpt lat="43.2513033" lon="12.0871933"><ele>516.0</ele><time>2026-03-29T07:48:38.08Z</time></trkpt><trkpt lat="43.2511367" lon="12.0872183"><ele>516.0</ele><time>2026-03-29T07:48:39.08Z</time></trkpt><trkpt lat="43.2509667" lon="12.087195"><ele>516.0</ele><time>2026-03-29T07:48:40.079Z</time></trkpt><trkpt lat="43.2507883" lon="12.0871483"><ele>519.3333333333334</ele><time>2026-03-29T07:48:41.079Z</time></trkpt><trkpt lat="43.2506133" lon="12.08712"><ele>522.6666666666667</ele><time>2026-03-29T07:48:42.08Z</time></trkpt><trkpt lat="43.2504283" lon="12.0871067"><ele>526.0</ele><time>2026-03-29T07:48:43.08Z</time></trkpt><trkpt lat="43.25024" lon="12.087095"><ele>526.0</ele><time>2026-03-29T07:48:44.08Z</time></trkpt><trkpt lat="43.25004" lon="12.0870833"><ele>526.0</ele><time>2026-03-29T07:48:45.079Z</time></trkpt><trkpt lat="43.2498567" lon="12.0870617"><ele>526.0</ele><time>2026-03-29T07:48:46.08Z</time></trkpt><trkpt lat="43.2496817" lon="12.0870167"><ele>528.6666666666667</ele><time>2026-03-29T07:48:47.079Z</time></trkpt><trkpt lat="43.24951" lon="12.0869917"><ele>531.3333333333334</ele><time>2026-03-29T07:48:48.08Z</time></trkpt><trkpt lat="43.2493333" lon="12.0869867"><ele>534.0</ele><time>2026-03-29T07:48:49.08Z</time></trkpt><trkpt lat="43.2491517" lon="12.0870167"><ele>534.0</ele><time>2026-03-29T07:48:50.08Z</time></trkpt><trkpt lat="43.24897" lon="12.08709"><ele>534.0</ele><time>2026-03-29T07:48:51.079Z</time></trkpt><trkpt lat="43.24878" lon="12.087165"><ele>534.0</ele><time>2026-03-29T07:48:52.08Z</time></trkpt><trkpt lat="43.2485867" lon="12.0872267"><ele>534.3333333333334</ele><time>2026-03-29T07:48:53.08Z</time></trkpt><trkpt lat="43.248405" lon="12.0872933"><ele>534.6666666666667</ele><time>2026-03-29T07:48:54.079Z</time></trkpt><trkpt lat="43.248235" lon="12.0873483"><ele>535.0</ele><time>2026-03-29T07:48:55.079Z</time></trkpt><trkpt lat="43.248085" lon="12.0874017"><ele>538.5</ele><time>2026-03-29T07:48:56.079Z</time></trkpt><trkpt lat="43.2479383" lon="12.08745"><ele>542.0</ele><time>2026-03-29T07:48:57.08Z</time></trkpt><trkpt lat="43.247805" lon="12.0874967"><ele>545.5</ele><time>2026-03-29T07:48:58.08Z</time></trkpt><trkpt lat="43.2476917" lon="12.0875617"><ele>549.0</ele><time>2026-03-29T07:48:59.08Z</time></trkpt><trkpt lat="43.247595" lon="12.0875967"><ele>549.0</ele><time>2026-03-29T07:49:00.08Z</time></trkpt><trkpt lat="43.2475133" lon="12.08765"><ele>549.0</ele><time>2026-03-29T07:49:01.08Z</time></trkpt><trkpt lat="43.2474583" lon="12.0877383"><ele>549.0</ele><time>2026-03-29T07:49:02.08Z</time></trkpt><trkpt lat="43.2474383" lon="12.0878533"><ele>549.0</ele><time>2026-03-29T07:49:03.079Z</time></trkpt><trkpt lat="43.2474533" lon="12.08797"><ele>549.0</ele><time>2026-03-29T07:49:04.08Z</time></trkpt><trkpt lat="43.2474967" lon="12.0880817"><ele>549.0</ele><time>2026-03-29T07:49:05.08Z</time></trkpt><trkpt lat="43.2475567" lon="12.0881633"><ele>549.0</ele><time>2026-03-29T07:49:06.08Z</time></trkpt><trkpt lat="43.2476333" lon="12.0882167"><ele>549.0</ele><time>2026-03-29T07:49:07.08Z</time></trkpt><trkpt lat="43.2477267" lon="12.088215"><ele>549.0</ele><time>2026-03-29T07:49:08.08Z</time></trkpt><trkpt lat="43.247825" lon="12.0881583"><ele>549.0</ele><time>2026-03-29T07:49:09.079Z</time></trkpt><trkpt lat="43.2479233" lon="12.08808"><ele>549.0</ele><time>2026-03-29T07:49:10.08Z</time></trkpt><trkpt lat="43.2480383" lon="12.0880067"><ele>551.0</ele><time>2026-03-29T07:49:11.08Z</time></trkpt><trkpt lat="43.248175" lon="12.08796"><ele>553.0</ele><time>2026-03-29T07:49:12.08Z</time></trkpt><trkpt lat="43.248315" lon="12.0879583"><ele>555.0</ele><time>2026-03-29T07:49:13.08Z</time></trkpt><trkpt lat="43.2484567" lon="12.0879883"><ele>557.0</ele><time>2026-03-29T07:49:14.079Z</time></trkpt><trkpt lat="43.2486067" lon="12.08804"><ele>557.0</ele><time>2026-03-29T07:49:15.079Z</time></trkpt><trkpt lat="43.2487733" lon="12.08811"><ele>557.0</ele><time>2026-03-29T07:49:16.079Z</time></trkpt><trkpt lat="43.248945" lon="12.0881917"><ele>557.0</ele><time>2026-03-29T07:49:17.08Z</time></trkpt><trkpt lat="43.24912" lon="12.088275"><ele>564.0</ele><time>2026-03-29T07:49:18.08Z</time></trkpt><trkpt lat="43.2493033" lon="12.088345"><ele>571.0</ele><time>2026-03-29T07:49:19.08Z</time></trkpt><trkpt lat="43.2494783" lon="12.0884283"><ele>578.0</ele><time>2026-03-29T07:49:20.08Z</time></trkpt><trkpt lat="43.2496483" lon="12.0885167"><ele>576.6666666666666</ele><time>2026-03-29T07:49:21.08Z</time></trkpt><trkpt lat="43.2498133" lon="12.0886067"><ele>575.3333333333334</ele><time>2026-03-29T07:49:22.079Z</time></trkpt><trkpt lat="43.2499767" lon="12.0887"><ele>574.0</ele><time>2026-03-29T07:49:23.08Z</time></trkpt><trkpt lat="43.25014" lon="12.0887933"><ele>574.0</ele><time>2026-03-29T07:49:24.079Z</time></trkpt><trkpt lat="43.2502867" lon="12.0888817"><ele>574.0</ele><time>2026-03-29T07:49:25.079Z</time></trkpt><trkpt lat="43.2504183" lon="12.0889583"><ele>574.0</ele><time>2026-03-29T07:49:26.08Z</time></trkpt><trkpt lat="43.2505317" lon="12.0890233"><ele>574.0</ele><time>2026-03-29T07:49:27.08Z</time></trkpt><trkpt lat="43.25062" lon="12.0891067"><ele>576.4</ele><time>2026-03-29T07:49:28.079Z</time></trkpt><trkpt lat="43.2506867" lon="12.0891933"><ele>578.8</ele><time>2026-03-29T07:49:29.079Z</time></trkpt><trkpt lat="43.2507267" lon="12.0893033"><ele>581.2</ele><time>2026-03-29T07:49:30.08Z</time></trkpt><trkpt lat="43.2507317" lon="12.089425"><ele>583.6</ele><time>2026-03-29T07:49:31.08Z</time></trkpt><trkpt lat="43.25071" lon="12.089555"><ele>586.0</ele><time>2026-03-29T07:49:32.08Z</time></trkpt><trkpt lat="43.2506583" lon="12.089665"><ele>588.5</ele><time>2026-03-29T07:49:33.079Z</time></trkpt><trkpt lat="43.250575" lon="12.0897367"><ele>591.0</ele><time>2026-03-29T07:49:34.08Z</time></trkpt><trkpt lat="43.250465" lon="12.089765"><ele>593.5</ele><time>2026-03-29T07:49:35.079Z</time></trkpt><trkpt lat="43.25035" lon="12.0897417"><ele>596.0</ele><time>2026-03-29T07:49:36.08Z</time></trkpt><trkpt lat="43.2483683" lon="12.08788"><ele>595.0</ele><time>2026-03-29T07:49:49.46Z</time></trkpt><trkpt lat="43.2482783" lon="12.0878917"><ele>594.0</ele><time>2026-03-29T07:49:50.46Z</time></trkpt><trkpt lat="43.248245" lon="12.088055"><ele>593.0</ele><time>2026-03-29T07:49:51.46Z</time></trkpt><trkpt lat="43.2485867" lon="12.0896583"><ele>593.0</ele><time>2026-03-29T07:49:52.459Z</time></trkpt><trkpt lat="43.2485883" lon="12.08992"><ele>593.0</ele><time>2026-03-29T07:49:53.46Z</time></trkpt><trkpt lat="43.2485433" lon="12.0901717"><ele>593.0</ele><time>2026-03-29T07:49:54.46Z</time></trkpt><trkpt lat="43.2484417" lon="12.090455"><ele>607.0</ele><time>2026-03-29T07:49:55.459Z</time></trkpt><trkpt lat="43.2483483" lon="12.0909817"><ele>621.0</ele><time>2026-03-29T07:49:57.46Z</time></trkpt><trkpt lat="43.2482" lon="12.0911833"><ele>618.0</ele><time>2026-03-29T07:49:59.069Z</time></trkpt><trkpt lat="43.2480667" lon="12.09126"><ele>615.0</ele><time>2026-03-29T07:50:00.069Z</time></trkpt><trkpt lat="43.2477867" lon="12.0913767"><ele>612.0</ele><time>2026-03-29T07:50:02.068Z</time></trkpt><trkpt lat="43.247655" lon="12.0914333"><ele>612.0</ele><time>2026-03-29T07:50:03.069Z</time></trkpt><trkpt lat="43.2475433" lon="12.0914933"><ele>612.0</ele><time>2026-03-29T07:50:04.069Z</time></trkpt><trkpt lat="43.247445" lon="12.091545"><ele>612.0</ele><time>2026-03-29T07:50:05.069Z</time></trkpt><trkpt lat="43.2473783" lon="12.0916417"><ele>612.0</ele><time>2026-03-29T07:50:06.068Z</time></trkpt><trkpt lat="43.24735" lon="12.09176"><ele>612.0</ele><time>2026-03-29T07:50:07.069Z</time></trkpt><trkpt lat="43.24734" lon="12.0918817"><ele>614.4</ele><time>2026-03-29T07:50:08.069Z</time></trkpt><trkpt lat="43.2473483" lon="12.0919917"><ele>616.8000000000001</ele><time>2026-03-29T07:50:09.069Z</time></trkpt><trkpt lat="43.247315" lon="12.0921433"><ele>619.2</ele><time>2026-03-29T07:50:11.069Z</time></trkpt><trkpt lat="43.2471967" lon="12.0921667"><ele>621.6</ele><time>2026-03-29T07:50:13.069Z</time></trkpt><trkpt lat="43.2471283" lon="12.092195"><ele>624.0</ele><time>2026-03-29T07:50:14.069Z</time></trkpt><trkpt lat="43.24705" lon="12.0922467"><ele>624.0</ele><time>2026-03-29T07:50:15.069Z</time></trkpt><trkpt lat="43.2469733" lon="12.092315"><ele>624.0</ele><time>2026-03-29T07:50:16.069Z</time></trkpt><trkpt lat="43.246895" lon="12.092375"><ele>624.0</ele><time>2026-03-29T07:50:17.069Z</time></trkpt><trkpt lat="43.24681" lon="12.09244"><ele>624.0</ele><time>2026-03-29T07:50:18.068Z</time></trkpt><trkpt lat="43.2467217" lon="12.0925"><ele>624.0</ele><time>2026-03-29T07:50:19.068Z</time></trkpt><trkpt lat="43.24664" lon="12.092585"><ele>625.2</ele><time>2026-03-29T07:50:20.068Z</time></trkpt><trkpt lat="43.2465683" lon="12.0926817"><ele>626.4</ele><time>2026-03-29T07:50:21.068Z</time></trkpt><trkpt lat="43.2464917" lon="12.092775"><ele>627.6</ele><time>2026-03-29T07:50:22.068Z</time></trkpt><trkpt lat="43.246415" lon="12.0928667"><ele>628.8</ele><time>2026-03-29T07:50:23.068Z</time></trkpt><trkpt lat="43.24633" lon="12.09294"><ele>630.0</ele><time>2026-03-29T07:50:24.069Z</time></trkpt><trkpt lat="43.2462317" lon="12.09299"><ele>630.0</ele><time>2026-03-29T07:50:25.069Z</time></trkpt><trkpt lat="43.2461333" lon="12.0930167"><ele>630.0</ele><time>2026-03-29T07:50:26.069Z</time></trkpt><trkpt lat="43.2460433" lon="12.0930317"><ele>630.0</ele><time>2026-03-29T07:50:27.068Z</time></trkpt><trkpt lat="43.2459483" lon="12.0930367"><ele>630.0</ele><time>2026-03-29T07:50:28.069Z</time></trkpt><trkpt lat="43.245855" lon="12.0930167"><ele>630.0</ele><time>2026-03-29T07:50:29.069Z</time></trkpt><trkpt lat="43.245765" lon="12.092985"><ele>630.0</ele><time>2026-03-29T07:50:30.068Z</time></trkpt><trkpt lat="43.2456683" lon="12.0929583"><ele>630.0</ele><time>2026-03-29T07:50:31.069Z</time></trkpt><trkpt lat="43.2455733" lon="12.09292"><ele>630.0</ele><time>2026-03-29T07:50:32.068Z</time></trkpt><trkpt lat="43.2454867" lon="12.09286"><ele>630.0</ele><time>2026-03-29T07:50:33.069Z</time></trkpt><trkpt lat="43.2454083" lon="12.0928"><ele>630.0</ele><time>2026-03-29T07:50:34.069Z</time></trkpt><trkpt lat="43.2453267" lon="12.09276"><ele>631.2</ele><time>2026-03-29T07:50:35.068Z</time></trkpt><trkpt lat="43.24525" lon="12.0927583"><ele>632.4</ele><time>2026-03-29T07:50:36.069Z</time></trkpt><trkpt lat="43.245175" lon="12.0927817"><ele>633.6</ele><time>2026-03-29T07:50:37.069Z</time></trkpt><trkpt lat="43.2450983" lon="12.0928367"><ele>634.8</ele><time>2026-03-29T07:50:38.068Z</time></trkpt><trkpt lat="43.2450117" lon="12.0929117"><ele>636.0</ele><time>2026-03-29T07:50:39.069Z</time></trkpt><trkpt lat="43.2449083" lon="12.0929883"><ele>636.0</ele><time>2026-03-29T07:50:40.069Z</time></trkpt><trkpt lat="43.2448083" lon="12.0930683"><ele>636.0</ele><time>2026-03-29T07:50:41.069Z</time></trkpt><trkpt lat="43.2447233" lon="12.0931383"><ele>636.0</ele><time>2026-03-29T07:50:42.069Z</time></trkpt><trkpt lat="43.2446283" lon="12.0932017"><ele>636.0</ele><time>2026-03-29T07:50:43.069Z</time></trkpt><trkpt lat="43.2445267" lon="12.09326"><ele>636.0</ele><time>2026-03-29T07:50:44.069Z</time></trkpt><trkpt lat="43.2444317" lon="12.0933067"><ele>636.8333333333334</ele><time>2026-03-29T07:50:45.069Z</time></trkpt><trkpt lat="43.244355" lon="12.09334"><ele>637.6666666666666</ele><time>2026-03-29T07:50:46.068Z</time></trkpt><trkpt lat="43.24427" lon="12.0933683"><ele>638.5</ele><time>2026-03-29T07:50:48.069Z</time></trkpt><trkpt lat="43.2441933" lon="12.0933733"><ele>639.3333333333333</ele><time>2026-03-29T07:50:50.069Z</time></trkpt><trkpt lat="43.24409" lon="12.09337"><ele>640.1666666666666</ele><time>2026-03-29T07:50:52.069Z</time></trkpt><trkpt lat="43.243995" lon="12.0933733"><ele>641.0</ele><time>2026-03-29T07:50:54.069Z</time></trkpt><trkpt lat="43.2439333" lon="12.0933967"><ele>641.0</ele><time>2026-03-29T07:50:56.068Z</time></trkpt><trkpt lat="43.2438683" lon="12.0934333"><ele>641.0</ele><time>2026-03-29T07:50:58.069Z</time></trkpt><trkpt lat="43.2437817" lon="12.0934717"><ele>641.0</ele><time>2026-03-29T07:51:00.069Z</time></trkpt><trkpt lat="43.2437217" lon="12.0935"><ele>641.0</ele><time>2026-03-29T07:51:01.069Z</time></trkpt><trkpt lat="43.243605" lon="12.0935567"><ele>641.0</ele><time>2026-03-29T07:51:03.068Z</time></trkpt><trkpt lat="43.2435417" lon="12.0935817"><ele>641.0</ele><time>2026-03-29T07:51:04.069Z</time></trkpt><trkpt lat="43.2434617" lon="12.0935983"><ele>641.0</ele><time>2026-03-29T07:51:05.068Z</time></trkpt><trkpt lat="43.2433683" lon="12.0936283"><ele>641.0</ele><time>2026-03-29T07:51:06.069Z</time></trkpt><trkpt lat="43.24328" lon="12.093655"><ele>641.0</ele><time>2026-03-29T07:51:07.068Z</time></trkpt><trkpt lat="43.2431933" lon="12.0936867"><ele>641.0</ele><time>2026-03-29T07:51:08.068Z</time></trkpt><trkpt lat="43.24311" lon="12.0937183"><ele>641.0</ele><time>2026-03-29T07:51:09.069Z</time></trkpt><trkpt lat="43.243035" lon="12.09374"><ele>641.0</ele><time>2026-03-29T07:51:10.069Z</time></trkpt><trkpt lat="43.2429567" lon="12.0937517"><ele>640.6666666666666</ele><time>2026-03-29T07:51:11.068Z</time></trkpt><trkpt lat="43.2428767" lon="12.0937533"><ele>640.3333333333333</ele><time>2026-03-29T07:51:12.069Z</time></trkpt><trkpt lat="43.2428083" lon="12.0937517"><ele>640.0</ele><time>2026-03-29T07:51:13.068Z</time></trkpt><trkpt lat="43.2427333" lon="12.0937567"><ele>639.6666666666666</ele><time>2026-03-29T07:51:14.069Z</time></trkpt><trkpt lat="43.2426683" lon="12.0937483"><ele>639.3333333333334</ele><time>2026-03-29T07:51:15.068Z</time></trkpt><trkpt lat="43.2425467" lon="12.0937183"><ele>639.0</ele><time>2026-03-29T07:51:17.069Z</time></trkpt><trkpt lat="43.2424183" lon="12.0937117"><ele>639.0000000000001</ele><time>2026-03-29T07:51:19.068Z</time></trkpt><trkpt lat="43.2423533" lon="12.09372"><ele>639.0</ele><time>2026-03-29T07:51:20.069Z</time></trkpt><trkpt lat="43.2422867" lon="12.093725"><ele>639.0</ele><time>2026-03-29T07:51:21.069Z</time></trkpt><trkpt lat="43.2422183" lon="12.0937233"><ele>639.0</ele><time>2026-03-29T07:51:22.068Z</time></trkpt><trkpt lat="43.2421533" lon="12.0937267"><ele>639.0</ele><time>2026-03-29T07:51:23.068Z</time></trkpt><trkpt lat="43.2420867" lon="12.0937283"><ele>639.0000000000001</ele><time>2026-03-29T07:51:24.069Z</time></trkpt><trkpt lat="43.242015" lon="12.0937333"><ele>639.0</ele><time>2026-03-29T07:51:25.068Z</time></trkpt><trkpt lat="43.2419433" lon="12.0937233"><ele>639.1666666666666</ele><time>2026-03-29T07:51:26.069Z</time></trkpt><trkpt lat="43.2418683" lon="12.0937083"><ele>639.3333333333334</ele><time>2026-03-29T07:51:27.069Z</time></trkpt><trkpt lat="43.2417917" lon="12.0936933"><ele>639.5</ele><time>2026-03-29T07:51:28.068Z</time></trkpt><trkpt lat="43.2417033" lon="12.0936767"><ele>639.6666666666667</ele><time>2026-03-29T07:51:29.068Z</time></trkpt><trkpt lat="43.2416283" lon="12.09367"><ele>639.8333333333334</ele><time>2026-03-29T07:51:30.069Z</time></trkpt><trkpt lat="43.241545" lon="12.0936683"><ele>640.0</ele><time>2026-03-29T07:51:31.069Z</time></trkpt><trkpt lat="43.2414483" lon="12.0936767"><ele>640.1666666666667</ele><time>2026-03-29T07:51:32.069Z</time></trkpt><trkpt lat="43.2413633" lon="12.0936717"><ele>640.3333333333334</ele><time>2026-03-29T07:51:33.069Z</time></trkpt><trkpt lat="43.24129" lon="12.0936667"><ele>640.5</ele><time>2026-03-29T07:51:34.068Z</time></trkpt><trkpt lat="43.2412233" lon="12.093655"><ele>640.6666666666666</ele><time>2026-03-29T07:51:35.069Z</time></trkpt><trkpt lat="43.2410967" lon="12.0936383"><ele>640.8333333333333</ele><time>2026-03-29T07:51:37.069Z</time></trkpt><trkpt lat="43.2410183" lon="12.0936283"><ele>641.0</ele><time>2026-03-29T07:51:38.069Z</time></trkpt><trkpt lat="43.2409417" lon="12.0936283"><ele>641.0</ele><time>2026-03-29T07:51:39.069Z</time></trkpt><trkpt lat="43.2408683" lon="12.0936333"><ele>641.0</ele><time>2026-03-29T07:51:40.068Z</time></trkpt><trkpt lat="43.2407983" lon="12.093635"><ele>641.0</ele><time>2026-03-29T07:51:41.068Z</time></trkpt><trkpt lat="43.2406733" lon="12.0936367"><ele>641.0</ele><time>2026-03-29T07:51:43.069Z</time></trkpt><trkpt lat="43.2406017" lon="12.0936267"><ele>641.0</ele><time>2026-03-29T07:51:44.068Z</time></trkpt><trkpt lat="43.24052" lon="12.0936183"><ele>641.0</ele><time>2026-03-29T07:51:45.069Z</time></trkpt><trkpt lat="43.2404317" lon="12.0935917"><ele>639.8333333333333</ele><time>2026-03-29T07:51:46.069Z</time></trkpt><trkpt lat="43.2403367" lon="12.09356"><ele>638.6666666666666</ele><time>2026-03-29T07:51:47.069Z</time></trkpt><trkpt lat="43.2402467" lon="12.0935283"><ele>637.5</ele><time>2026-03-29T07:51:48.069Z</time></trkpt><trkpt lat="43.2401783" lon="12.0935"><ele>636.3333333333334</ele><time>2026-03-29T07:51:49.069Z</time></trkpt><trkpt lat="43.2401117" lon="12.093475"><ele>635.1666666666667</ele><time>2026-03-29T07:51:50.069Z</time></trkpt><trkpt lat="43.2400483" lon="12.09346"><ele>634.0</ele><time>2026-03-29T07:51:51.069Z</time></trkpt><trkpt lat="43.23994" lon="12.093475"><ele>634.0</ele><time>2026-03-29T07:51:53.069Z</time></trkpt><trkpt lat="43.2398283" lon="12.0935367"><ele>634.0</ele><time>2026-03-29T07:51:55.069Z</time></trkpt><trkpt lat="43.239765" lon="12.0935767"><ele>634.0</ele><time>2026-03-29T07:51:56.069Z</time></trkpt><trkpt lat="43.2396967" lon="12.0936217"><ele>634.0</ele><time>2026-03-29T07:51:57.068Z</time></trkpt><trkpt lat="43.2396283" lon="12.09368"><ele>634.0</ele><time>2026-03-29T07:51:58.068Z</time></trkpt><trkpt lat="43.2395567" lon="12.0937417"><ele>634.0</ele><time>2026-03-29T07:51:59.068Z</time></trkpt><trkpt lat="43.2394733" lon="12.0938067"><ele>633.5</ele><time>2026-03-29T07:52:00.069Z</time></trkpt><trkpt lat="43.2394" lon="12.0938633"><ele>633.0</ele><time>2026-03-29T07:52:01.069Z</time></trkpt><trkpt lat="43.2393317" lon="12.0939233"><ele>632.5</ele><time>2026-03-29T07:52:02.069Z</time></trkpt><trkpt lat="43.23927" lon="12.093985"><ele>632.0</ele><time>2026-03-29T07:52:03.068Z</time></trkpt><trkpt lat="43.2392083" lon="12.0940333"><ele>631.5</ele><time>2026-03-29T07:52:04.069Z</time></trkpt><trkpt lat="43.23915" lon="12.0940883"><ele>631.0</ele><time>2026-03-29T07:52:05.069Z</time></trkpt><trkpt lat="43.2390883" lon="12.0941417"><ele>631.0</ele><time>2026-03-29T07:52:06.069Z</time></trkpt><trkpt lat="43.2390283" lon="12.0941783"><ele>631.0</ele><time>2026-03-29T07:52:07.069Z</time></trkpt><trkpt lat="43.2389533" lon="12.0942017"><ele>631.0</ele><time>2026-03-29T07:52:08.069Z</time></trkpt><trkpt lat="43.2388667" lon="12.0942067"><ele>631.0</ele><time>2026-03-29T07:52:09.069Z</time></trkpt><trkpt lat="43.238785" lon="12.0942033"><ele>631.0</ele><time>2026-03-29T07:52:10.069Z</time></trkpt><trkpt lat="43.2387083" lon="12.0942167"><ele>631.0</ele><time>2026-03-29T07:52:11.069Z</time></trkpt><trkpt lat="43.2385983" lon="12.094255"><ele>631.8</ele><time>2026-03-29T07:52:13.069Z</time></trkpt><trkpt lat="43.238515" lon="12.09436"><ele>632.6</ele><time>2026-03-29T07:52:15.069Z</time></trkpt><trkpt lat="43.2384283" lon="12.0944883"><ele>633.4</ele><time>2026-03-29T07:52:17.068Z</time></trkpt><trkpt lat="43.2383817" lon="12.0945667"><ele>634.2</ele><time>2026-03-29T07:52:18.069Z</time></trkpt><trkpt lat="43.238325" lon="12.09466"><ele>635.0</ele><time>2026-03-29T07:52:20.069Z</time></trkpt><trkpt lat="43.23831" lon="12.094775"><ele>635.0</ele><time>2026-03-29T07:52:24.069Z</time></trkpt><trkpt lat="43.2382933" lon="12.09489"><ele>635.0</ele><time>2026-03-29T07:52:27.068Z</time></trkpt><trkpt lat="43.2382917" lon="12.094985"><ele>635.0</ele><time>2026-03-29T07:52:29.069Z</time></trkpt><trkpt lat="43.2383" lon="12.0951017"><ele>635.0</ele><time>2026-03-29T07:52:31.069Z</time></trkpt><trkpt lat="43.2383533" lon="12.095225"><ele>635.0</ele><time>2026-03-29T07:52:33.069Z</time></trkpt><trkpt lat="43.2384483" lon="12.0953217"><ele>635.6</ele><time>2026-03-29T07:52:35.069Z</time></trkpt><trkpt lat="43.2385283" lon="12.0954033"><ele>636.2</ele><time>2026-03-29T07:52:37.069Z</time></trkpt><trkpt lat="43.2385767" lon="12.0954767"><ele>636.8</ele><time>2026-03-29T07:52:39.068Z</time></trkpt><trkpt lat="43.2385783" lon="12.09558"><ele>637.4</ele><time>2026-03-29T07:52:41.068Z</time></trkpt><trkpt lat="43.2385533" lon="12.0957217"><ele>638.0</ele><time>2026-03-29T07:52:43.069Z</time></trkpt><trkpt lat="43.238515" lon="12.0958617"><ele>640.0</ele><time>2026-03-29T07:52:45.069Z</time></trkpt><trkpt lat="43.2384867" lon="12.0960217"><ele>642.0</ele><time>2026-03-29T07:52:47.069Z</time></trkpt><trkpt lat="43.238465" lon="12.0961717"><ele>644.0</ele><time>2026-03-29T07:52:49.068Z</time></trkpt><trkpt lat="43.2384517" lon="12.0962833"><ele>646.0</ele><time>2026-03-29T07:52:51.069Z</time></trkpt><trkpt lat="43.2384567" lon="12.0963783"><ele>648.0</ele><time>2026-03-29T07:52:53.069Z</time></trkpt><trkpt lat="43.2384767" lon="12.0964867"><ele>648.5999999999999</ele><time>2026-03-29T07:52:55.069Z</time></trkpt><trkpt lat="43.2385083" lon="12.096605"><ele>649.1999999999999</ele><time>2026-03-29T07:52:57.069Z</time></trkpt><trkpt lat="43.2385333" lon="12.096735"><ele>649.8</ele><time>2026-03-29T07:52:59.068Z</time></trkpt><trkpt lat="43.238535" lon="12.0968483"><ele>650.4</ele><time>2026-03-29T07:53:01.069Z</time></trkpt><trkpt lat="43.2385067" lon="12.09696"><ele>651.0</ele><time>2026-03-29T07:53:03.069Z</time></trkpt><trkpt lat="43.23843" lon="12.09704"><ele>651.0</ele><time>2026-03-29T07:53:05.069Z</time></trkpt><trkpt lat="43.2383667" lon="12.0970633"><ele>651.0</ele><time>2026-03-29T07:53:06.068Z</time></trkpt><trkpt lat="43.2382917" lon="12.0970733"><ele>651.0</ele><time>2026-03-29T07:53:07.068Z</time></trkpt><trkpt lat="43.2382" lon="12.0970717"><ele>651.0</ele><time>2026-03-29T07:53:08.069Z</time></trkpt><trkpt lat="43.2381183" lon="12.097075"><ele>651.0</ele><time>2026-03-29T07:53:09.069Z</time></trkpt><trkpt lat="43.2380467" lon="12.0970783"><ele>651.0</ele><time>2026-03-29T07:53:10.069Z</time></trkpt><trkpt lat="43.2379533" lon="12.0970983"><ele>652.1999999999999</ele><time>2026-03-29T07:53:12.069Z</time></trkpt><trkpt lat="43.2378767" lon="12.0971167"><ele>653.4</ele><time>2026-03-29T07:53:14.069Z</time></trkpt><trkpt lat="43.2377733" lon="12.0971617"><ele>654.6</ele><time>2026-03-29T07:53:16.068Z</time></trkpt><trkpt lat="43.2376767" lon="12.0972467"><ele>655.8</ele><time>2026-03-29T07:53:18.069Z</time></trkpt><trkpt lat="43.23763" lon="12.0973117"><ele>657.0</ele><time>2026-03-29T07:53:19.069Z</time></trkpt><trkpt lat="43.237565" lon="12.0974367"><ele>657.0</ele><time>2026-03-29T07:53:21.069Z</time></trkpt><trkpt lat="43.2375067" lon="12.0975767"><ele>657.0</ele><time>2026-03-29T07:53:23.069Z</time></trkpt><trkpt lat="43.2374783" lon="12.0977283"><ele>657.0</ele><time>2026-03-29T07:53:25.069Z</time></trkpt><trkpt lat="43.237465" lon="12.0978133"><ele>657.0</ele><time>2026-03-29T07:53:26.069Z</time></trkpt><trkpt lat="43.2374333" lon="12.09798"><ele>657.0</ele><time>2026-03-29T07:53:28.069Z</time></trkpt><trkpt lat="43.2373883" lon="12.0980983"><ele>657.0</ele><time>2026-03-29T07:53:30.068Z</time></trkpt><trkpt lat="43.237335" lon="12.09816"><ele>657.0</ele><time>2026-03-29T07:53:32.069Z</time></trkpt><trkpt lat="43.2372533" lon="12.0982017"><ele>657.0</ele><time>2026-03-29T07:53:34.069Z</time></trkpt><trkpt lat="43.237135" lon="12.0981767"><ele>657.0</ele><time>2026-03-29T07:53:36.068Z</time></trkpt><trkpt lat="43.2370667" lon="12.0981567"><ele>657.0</ele><time>2026-03-29T07:53:37.069Z</time></trkpt><trkpt lat="43.237" lon="12.0981383"><ele>657.0</ele><time>2026-03-29T07:53:38.069Z</time></trkpt><trkpt lat="43.2368833" lon="12.0981017"><ele>656.8571428571428</ele><time>2026-03-29T07:53:40.068Z</time></trkpt><trkpt lat="43.2367767" lon="12.0980733"><ele>656.7142857142858</ele><time>2026-03-29T07:53:42.069Z</time></trkpt><trkpt lat="43.2367083" lon="12.09805"><ele>656.5714285714286</ele><time>2026-03-29T07:53:44.069Z</time></trkpt><trkpt lat="43.2366367" lon="12.09804"><ele>656.4285714285713</ele><time>2026-03-29T07:53:48.07Z</time></trkpt><trkpt lat="43.2365717" lon="12.0980583"><ele>656.2857142857142</ele><time>2026-03-29T07:53:53.07Z</time></trkpt><trkpt lat="43.2365117" lon="12.0980983"><ele>656.1428571428571</ele><time>2026-03-29T07:53:57.069Z</time></trkpt><trkpt lat="43.2364517" lon="12.0981333"><ele>656.0</ele><time>2026-03-29T07:53:59.069Z</time></trkpt><trkpt lat="43.2363733" lon="12.098185"><ele>654.1666666666666</ele><time>2026-03-29T07:54:01.07Z</time></trkpt><trkpt lat="43.2362867" lon="12.0982333"><ele>652.3333333333333</ele><time>2026-03-29T07:54:03.07Z</time></trkpt><trkpt lat="43.236195" lon="12.0982667"><ele>650.5</ele><time>2026-03-29T07:54:05.069Z</time></trkpt><trkpt lat="43.2361283" lon="12.09828"><ele>648.6666666666666</ele><time>2026-03-29T07:54:07.069Z</time></trkpt><trkpt lat="43.23606" lon="12.0982683"><ele>646.8333333333334</ele><time>2026-03-29T07:54:11.07Z</time></trkpt><trkpt lat="43.23599" lon="12.0982383"><ele>645.0</ele><time>2026-03-29T07:54:15.069Z</time></trkpt><trkpt lat="43.2360133" lon="12.0981533"><ele>644.8571428571429</ele><time>2026-03-29T07:54:19.07Z</time></trkpt><trkpt lat="43.2360683" lon="12.098085"><ele>644.7142857142857</ele><time>2026-03-29T07:54:22.069Z</time></trkpt><trkpt lat="43.236115" lon="12.0980233"><ele>644.5714285714286</ele><time>2026-03-29T07:54:24.07Z</time></trkpt><trkpt lat="43.236155" lon="12.0979367"><ele>644.4285714285714</ele><time>2026-03-29T07:54:26.07Z</time></trkpt><trkpt lat="43.2361833" lon="12.0978567"><ele>644.2857142857142</ele><time>2026-03-29T07:54:28.07Z</time></trkpt><trkpt lat="43.2362" lon="12.0977633"><ele>644.1428571428571</ele><time>2026-03-29T07:54:30.07Z</time></trkpt><trkpt lat="43.2362217" lon="12.0976633"><ele>644.0</ele><time>2026-03-29T07:54:32.069Z</time></trkpt><trkpt lat="43.2362533" lon="12.0975883"><ele>644.0</ele><time>2026-03-29T07:54:34.07Z</time></trkpt><trkpt lat="43.2362933" lon="12.09752"><ele>644.0</ele><time>2026-03-29T07:54:36.07Z</time></trkpt><trkpt lat="43.236345" lon="12.0974483"><ele>644.0</ele><time>2026-03-29T07:54:38.07Z</time></trkpt><trkpt lat="43.2363917" lon="12.097385"><ele>644.0</ele><time>2026-03-29T07:54:40.07Z</time></trkpt><trkpt lat="43.2364617" lon="12.09739"><ele>644.0</ele><time>2026-03-29T07:54:43.07Z</time></trkpt><trkpt lat="43.23636" lon="12.097605"><ele>648.0</ele><time>2026-03-29T08:02:23.968Z</time></trkpt><trkpt lat="43.2366217" lon="12.0978167"><ele>652.0</ele><time>2026-03-29T08:02:24.969Z</time></trkpt><trkpt lat="43.2365867" lon="12.0977167"><ele>656.0</ele><time>2026-03-29T08:02:29.969Z</time></trkpt><trkpt lat="43.23655" lon="12.09754"><ele>654.0</ele><time>2026-03-29T08:02:31.969Z</time></trkpt><trkpt lat="43.236465" lon="12.0974083"><ele>652.0</ele><time>2026-03-29T08:02:45.069Z</time></trkpt><trkpt lat="43.2364333" lon="12.09749"><ele>650.0</ele><time>2026-03-29T08:05:02.069Z</time></trkpt><trkpt lat="43.2363667" lon="12.0975733"><ele>648.0</ele><time>2026-03-29T08:05:05.068Z</time></trkpt><trkpt lat="43.2363133" lon="12.0976283"><ele>646.0</ele><time>2026-03-29T08:05:07.068Z</time></trkpt><trkpt lat="43.2362617" lon="12.09769"><ele>644.0</ele><time>2026-03-29T08:05:09.069Z</time></trkpt><trkpt lat="43.2362117" lon="12.0977617"><ele>644.0</ele><time>2026-03-29T08:05:11.068Z</time></trkpt><trkpt lat="43.2361583" lon="12.09783"><ele>644.0</ele><time>2026-03-29T08:05:13.069Z</time></trkpt><trkpt lat="43.236115" lon="12.0979033"><ele>644.0</ele><time>2026-03-29T08:05:15.069Z</time></trkpt><trkpt lat="43.236085" lon="12.0979867"><ele>644.0</ele><time>2026-03-29T08:05:17.069Z</time></trkpt><trkpt lat="43.2360533" lon="12.0980867"><ele>644.0</ele><time>2026-03-29T08:05:20.069Z</time></trkpt><trkpt lat="43.236015" lon="12.0981633"><ele>644.0</ele><time>2026-03-29T08:05:23.068Z</time></trkpt><trkpt lat="43.235945" lon="12.09826"><ele>644.25</ele><time>2026-03-29T08:05:26.068Z</time></trkpt><trkpt lat="43.2358767" lon="12.098385"><ele>644.5</ele><time>2026-03-29T08:05:28.069Z</time></trkpt><trkpt lat="43.2358067" lon="12.0985117"><ele>644.75</ele><time>2026-03-29T08:05:30.069Z</time></trkpt><trkpt lat="43.2357217" lon="12.098595"><ele>645.0</ele><time>2026-03-29T08:05:32.068Z</time></trkpt><trkpt lat="43.2355933" lon="12.09869"><ele>643.1666666666666</ele><time>2026-03-29T08:05:35.069Z</time></trkpt><trkpt lat="43.2354967" lon="12.0987667"><ele>641.3333333333334</ele><time>2026-03-29T08:05:37.069Z</time></trkpt><trkpt lat="43.2353867" lon="12.098855"><ele>639.5</ele><time>2026-03-29T08:05:39.069Z</time></trkpt><trkpt lat="43.2353383" lon="12.098915"><ele>637.6666666666667</ele><time>2026-03-29T08:05:40.068Z</time></trkpt><trkpt lat="43.2352933" lon="12.0989767"><ele>635.8333333333334</ele><time>2026-03-29T08:05:41.069Z</time></trkpt><trkpt lat="43.23525" lon="12.09905"><ele>634.0</ele><time>2026-03-29T08:05:42.069Z</time></trkpt><trkpt lat="43.23521" lon="12.099125"><ele>634.0</ele><time>2026-03-29T08:05:43.069Z</time></trkpt><trkpt lat="43.2351633" lon="12.0991967"><ele>634.0</ele><time>2026-03-29T08:05:44.069Z</time></trkpt><trkpt lat="43.23511" lon="12.099275"><ele>634.0</ele><time>2026-03-29T08:05:45.069Z</time></trkpt><trkpt lat="43.235055" lon="12.0993517"><ele>634.0</ele><time>2026-03-29T08:05:46.069Z</time></trkpt><trkpt lat="43.2349983" lon="12.0994317"><ele>634.0</ele><time>2026-03-29T08:05:47.069Z</time></trkpt><trkpt lat="43.234935" lon="12.0995117"><ele>634.0</ele><time>2026-03-29T08:05:48.068Z</time></trkpt><trkpt lat="43.2348717" lon="12.099595"><ele>634.0</ele><time>2026-03-29T08:05:49.069Z</time></trkpt><trkpt lat="43.2348133" lon="12.0996933"><ele>634.0</ele><time>2026-03-29T08:05:50.069Z</time></trkpt><trkpt lat="43.23476" lon="12.09978"><ele>634.0</ele><time>2026-03-29T08:05:51.069Z</time></trkpt><trkpt lat="43.23471" lon="12.0998633"><ele>634.0</ele><time>2026-03-29T08:05:52.069Z</time></trkpt><trkpt lat="43.2346567" lon="12.0999383"><ele>634.0</ele><time>2026-03-29T08:05:53.069Z</time></trkpt><trkpt lat="43.2346017" lon="12.1000067"><ele>634.0</ele><time>2026-03-29T08:05:54.069Z</time></trkpt><trkpt lat="43.234545" lon="12.100085"><ele>631.0</ele><time>2026-03-29T08:05:55.069Z</time></trkpt><trkpt lat="43.23448" lon="12.1001667"><ele>628.0</ele><time>2026-03-29T08:05:56.069Z</time></trkpt><trkpt lat="43.2344183" lon="12.1002467"><ele>625.0</ele><time>2026-03-29T08:05:57.068Z</time></trkpt><trkpt lat="43.2343583" lon="12.10032"><ele>622.0</ele><time>2026-03-29T08:05:58.069Z</time></trkpt><trkpt lat="43.23429" lon="12.1003833"><ele>619.0</ele><time>2026-03-29T08:05:59.068Z</time></trkpt><trkpt lat="43.2342183" lon="12.1004483"><ele>616.0</ele><time>2026-03-29T08:06:00.069Z</time></trkpt><trkpt lat="43.2341517" lon="12.1005167"><ele>616.0</ele><time>2026-03-29T08:06:01.069Z</time></trkpt><trkpt lat="43.234085" lon="12.1005883"><ele>616.0</ele><time>2026-03-29T08:06:02.069Z</time></trkpt><trkpt lat="43.234025" lon="12.1006667"><ele>616.0</ele><time>2026-03-29T08:06:03.068Z</time></trkpt><trkpt lat="43.2339733" lon="12.1007483"><ele>616.0</ele><time>2026-03-29T08:06:04.068Z</time></trkpt><trkpt lat="43.233925" lon="12.1008283"><ele>616.0</ele><time>2026-03-29T08:06:05.069Z</time></trkpt><trkpt lat="43.233885" lon="12.10091"><ele>616.0</ele><time>2026-03-29T08:06:06.068Z</time></trkpt><trkpt lat="43.2338467" lon="12.1010033"><ele>613.8333333333334</ele><time>2026-03-29T08:06:07.069Z</time></trkpt><trkpt lat="43.23381" lon="12.1011033"><ele>611.6666666666667</ele><time>2026-03-29T08:06:08.068Z</time></trkpt><trkpt lat="43.23377" lon="12.1012033"><ele>609.5</ele><time>2026-03-29T08:06:09.069Z</time></trkpt><trkpt lat="43.233735" lon="12.1013017"><ele>607.3333333333334</ele><time>2026-03-29T08:06:10.069Z</time></trkpt><trkpt lat="43.2336983" lon="12.1013983"><ele>605.1666666666666</ele><time>2026-03-29T08:06:11.069Z</time></trkpt><trkpt lat="43.2336533" lon="12.1014917"><ele>603.0</ele><time>2026-03-29T08:06:12.068Z</time></trkpt><trkpt lat="43.233605" lon="12.1015767"><ele>603.4</ele><time>2026-03-29T08:06:13.068Z</time></trkpt><trkpt lat="43.2335433" lon="12.1016667"><ele>603.8</ele><time>2026-03-29T08:06:14.069Z</time></trkpt><trkpt lat="43.2334717" lon="12.1017533"><ele>604.2</ele><time>2026-03-29T08:06:15.069Z</time></trkpt><trkpt lat="43.2333933" lon="12.1018433"><ele>604.6</ele><time>2026-03-29T08:06:16.068Z</time></trkpt><trkpt lat="43.23332" lon="12.1019167"><ele>605.0</ele><time>2026-03-29T08:06:17.069Z</time></trkpt><trkpt lat="43.233235" lon="12.10199"><ele>605.0</ele><time>2026-03-29T08:06:18.069Z</time></trkpt><trkpt lat="43.2331583" lon="12.1020533"><ele>605.0</ele><time>2026-03-29T08:06:19.069Z</time></trkpt><trkpt lat="43.2330833" lon="12.1021083"><ele>605.0</ele><time>2026-03-29T08:06:20.069Z</time></trkpt><trkpt lat="43.2330133" lon="12.102175"><ele>605.0</ele><time>2026-03-29T08:06:21.069Z</time></trkpt><trkpt lat="43.2329583" lon="12.102245"><ele>605.0</ele><time>2026-03-29T08:06:22.068Z</time></trkpt><trkpt lat="43.23291" lon="12.102325"><ele>605.0</ele><time>2026-03-29T08:06:23.069Z</time></trkpt><trkpt lat="43.2328783" lon="12.1024"><ele>604.5</ele><time>2026-03-29T08:06:24.068Z</time></trkpt><trkpt lat="43.23286" lon="12.1024833"><ele>604.0</ele><time>2026-03-29T08:06:25.069Z</time></trkpt><trkpt lat="43.2329083" lon="12.1026417"><ele>603.5</ele><time>2026-03-29T08:06:27.069Z</time></trkpt><trkpt lat="43.2329733" lon="12.1027067"><ele>603.0</ele><time>2026-03-29T08:06:28.069Z</time></trkpt><trkpt lat="43.2330433" lon="12.1027567"><ele>602.5</ele><time>2026-03-29T08:06:29.068Z</time></trkpt><trkpt lat="43.2331033" lon="12.102805"><ele>602.0</ele><time>2026-03-29T08:06:30.069Z</time></trkpt><trkpt lat="43.2331817" lon="12.1028967"><ele>574.0</ele><time>2026-03-29T08:06:32.068Z</time></trkpt><trkpt lat="43.2335317" lon="12.10607"><ele>597.0</ele><time>2026-03-29T08:06:46.731Z</time></trkpt><trkpt lat="43.233825" lon="12.1045267"><ele>597.0</ele><time>2026-03-29T08:06:48.73Z</time></trkpt><trkpt lat="43.23385" lon="12.10471"><ele>597.0</ele><time>2026-03-29T08:06:49.731Z</time></trkpt><trkpt lat="43.23395" lon="12.1048017"><ele>597.0</ele><time>2026-03-29T08:06:50.731Z</time></trkpt><trkpt lat="43.2340567" lon="12.1048833"><ele>597.0</ele><time>2026-03-29T08:06:51.731Z</time></trkpt><trkpt lat="43.2342867" lon="12.1050067"><ele>598.5</ele><time>2026-03-29T08:06:53.731Z</time></trkpt><trkpt lat="43.2343917" lon="12.1050883"><ele>600.0</ele><time>2026-03-29T08:06:54.731Z</time></trkpt><trkpt lat="43.2345" lon="12.1052583"><ele>601.5</ele><time>2026-03-29T08:06:55.73Z</time></trkpt><trkpt lat="43.2345717" lon="12.105395"><ele>603.0</ele><time>2026-03-29T08:06:57.07Z</time></trkpt><trkpt lat="43.23455" lon="12.1055417"><ele>603.0</ele><time>2026-03-29T08:06:58.07Z</time></trkpt><trkpt lat="43.2345217" lon="12.1057117"><ele>603.0</ele><time>2026-03-29T08:06:59.069Z</time></trkpt><trkpt lat="43.234445" lon="12.10607"><ele>603.0</ele><time>2026-03-29T08:07:01.07Z</time></trkpt><trkpt lat="43.234405" lon="12.1062367"><ele>601.8</ele><time>2026-03-29T08:07:02.069Z</time></trkpt><trkpt lat="43.234395" lon="12.1063917"><ele>600.5999999999999</ele><time>2026-03-29T08:07:03.07Z</time></trkpt><trkpt lat="43.2344117" lon="12.106525"><ele>599.4000000000001</ele><time>2026-03-29T08:07:04.07Z</time></trkpt><trkpt lat="43.23445" lon="12.1066367"><ele>598.2</ele><time>2026-03-29T08:07:05.07Z</time></trkpt><trkpt lat="43.2345167" lon="12.1067367"><ele>597.0</ele><time>2026-03-29T08:07:06.069Z</time></trkpt><trkpt lat="43.2346017" lon="12.1068217"><ele>597.0</ele><time>2026-03-29T08:07:07.069Z</time></trkpt><trkpt lat="43.2347033" lon="12.1068833"><ele>597.0</ele><time>2026-03-29T08:07:08.07Z</time></trkpt><trkpt lat="43.2347983" lon="12.1069217"><ele>597.0</ele><time>2026-03-29T08:07:09.07Z</time></trkpt><trkpt lat="43.2348883" lon="12.10697"><ele>597.0</ele><time>2026-03-29T08:07:10.07Z</time></trkpt><trkpt lat="43.234965" lon="12.107035"><ele>597.0</ele><time>2026-03-29T08:07:11.07Z</time></trkpt><trkpt lat="43.2350233" lon="12.1071333"><ele>598.3333333333334</ele><time>2026-03-29T08:07:12.07Z</time></trkpt><trkpt lat="43.23507" lon="12.1072383"><ele>599.6666666666666</ele><time>2026-03-29T08:07:13.07Z</time></trkpt><trkpt lat="43.2350867" lon="12.1073483"><ele>601.0</ele><time>2026-03-29T08:07:14.069Z</time></trkpt><trkpt lat="43.23509" lon="12.107455"><ele>602.3333333333333</ele><time>2026-03-29T08:07:15.069Z</time></trkpt><trkpt lat="43.2350883" lon="12.10756"><ele>603.6666666666666</ele><time>2026-03-29T08:07:16.07Z</time></trkpt><trkpt lat="43.2350883" lon="12.1076717"><ele>605.0</ele><time>2026-03-29T08:07:17.069Z</time></trkpt><trkpt lat="43.2350817" lon="12.1077833"><ele>605.0</ele><time>2026-03-29T08:07:18.07Z</time></trkpt><trkpt lat="43.23507" lon="12.1078883"><ele>605.0</ele><time>2026-03-29T08:07:19.069Z</time></trkpt><trkpt lat="43.2350467" lon="12.1079967"><ele>605.0</ele><time>2026-03-29T08:07:20.069Z</time></trkpt><trkpt lat="43.2350083" lon="12.1081017"><ele>605.0</ele><time>2026-03-29T08:07:21.07Z</time></trkpt><trkpt lat="43.2349767" lon="12.108215"><ele>605.0</ele><time>2026-03-29T08:07:22.07Z</time></trkpt><trkpt lat="43.2349483" lon="12.1083167"><ele>605.0</ele><time>2026-03-29T08:07:23.07Z</time></trkpt><trkpt lat="43.2349383" lon="12.1084083"><ele>605.0</ele><time>2026-03-29T08:07:24.07Z</time></trkpt><trkpt lat="43.2349383" lon="12.1085067"><ele>605.0</ele><time>2026-03-29T08:07:26.07Z</time></trkpt><trkpt lat="43.234985" lon="12.1084267"><ele>605.0</ele><time>2026-03-29T08:07:32.07Z</time></trkpt><trkpt lat="43.2349767" lon="12.108265"><ele>605.0</ele><time>2026-03-29T08:07:34.07Z</time></trkpt><trkpt lat="43.2349917" lon="12.10815"><ele>605.0</ele><time>2026-03-29T08:07:35.07Z</time></trkpt><trkpt lat="43.2350267" lon="12.1080117"><ele>605.0</ele><time>2026-03-29T08:07:36.07Z</time></trkpt><trkpt lat="43.2350617" lon="12.1078667"><ele>605.0</ele><time>2026-03-29T08:07:37.07Z</time></trkpt><trkpt lat="43.2350917" lon="12.107715"><ele>605.0</ele><time>2026-03-29T08:07:38.07Z</time></trkpt><trkpt lat="43.2350917" lon="12.10756"><ele>605.0</ele><time>2026-03-29T08:07:39.069Z</time></trkpt><trkpt lat="43.2350983" lon="12.1074167"><ele>605.0</ele><time>2026-03-29T08:07:40.07Z</time></trkpt><trkpt lat="43.2350933" lon="12.10728"><ele>605.0</ele><time>2026-03-29T08:07:41.069Z</time></trkpt><trkpt lat="43.2350733" lon="12.1071667"><ele>605.0</ele><time>2026-03-29T08:07:42.069Z</time></trkpt><trkpt lat="43.2350383" lon="12.10706"><ele>605.0</ele><time>2026-03-29T08:07:43.07Z</time></trkpt><trkpt lat="43.23499" lon="12.106965"><ele>605.0</ele><time>2026-03-29T08:07:44.07Z</time></trkpt><trkpt lat="43.2349233" lon="12.1069"><ele>605.0</ele><time>2026-03-29T08:07:45.07Z</time></trkpt><trkpt lat="43.23484" lon="12.1068617"><ele>605.0</ele><time>2026-03-29T08:07:46.069Z</time></trkpt><trkpt lat="43.2347583" lon="12.10683"><ele>603.4</ele><time>2026-03-29T08:07:47.07Z</time></trkpt><trkpt lat="43.2346483" lon="12.1067883"><ele>601.8</ele><time>2026-03-29T08:07:49.069Z</time></trkpt><trkpt lat="43.2345767" lon="12.1067983"><ele>600.2</ele><time>2026-03-29T08:07:52.069Z</time></trkpt><trkpt lat="43.2345083" lon="12.106835"><ele>598.6</ele><time>2026-03-29T08:07:54.07Z</time></trkpt><trkpt lat="43.234435" lon="12.106965"><ele>597.0</ele><time>2026-03-29T08:07:56.069Z</time></trkpt><trkpt lat="43.2343917" lon="12.1070667"><ele>597.0</ele><time>2026-03-29T08:07:57.07Z</time></trkpt><trkpt lat="43.2343517" lon="12.1071517"><ele>597.0</ele><time>2026-03-29T08:07:58.07Z</time></trkpt><trkpt lat="43.234315" lon="12.1072383"><ele>597.0</ele><time>2026-03-29T08:07:59.069Z</time></trkpt><trkpt lat="43.2342833" lon="12.1073133"><ele>597.0</ele><time>2026-03-29T08:08:00.069Z</time></trkpt><trkpt lat="43.23427" lon="12.1074017"><ele>597.0</ele><time>2026-03-29T08:08:01.07Z</time></trkpt><trkpt lat="43.2342633" lon="12.10751"><ele>597.0</ele><time>2026-03-29T08:08:02.07Z</time></trkpt><trkpt lat="43.2342367" lon="12.1077533"><ele>598.0</ele><time>2026-03-29T08:08:04.07Z</time></trkpt><trkpt lat="43.2342183" lon="12.1078917"><ele>599.0</ele><time>2026-03-29T08:08:05.07Z</time></trkpt><trkpt lat="43.2342117" lon="12.1080317"><ele>600.0</ele><time>2026-03-29T08:08:06.07Z</time></trkpt><trkpt lat="43.2342167" lon="12.1081667"><ele>601.0</ele><time>2026-03-29T08:08:07.07Z</time></trkpt><trkpt lat="43.2342333" lon="12.10829"><ele>602.0</ele><time>2026-03-29T08:08:08.07Z</time></trkpt><trkpt lat="43.2342367" lon="12.108405"><ele>602.6</ele><time>2026-03-29T08:08:09.069Z</time></trkpt><trkpt lat="43.2342283" lon="12.1085283"><ele>603.2</ele><time>2026-03-29T08:08:10.07Z</time></trkpt><trkpt lat="43.2342083" lon="12.108655"><ele>603.8</ele><time>2026-03-29T08:08:11.07Z</time></trkpt><trkpt lat="43.2341817" lon="12.1087817"><ele>604.4</ele><time>2026-03-29T08:08:12.07Z</time></trkpt><trkpt lat="43.2341433" lon="12.1089217"><ele>605.0</ele><time>2026-03-29T08:08:13.07Z</time></trkpt><trkpt lat="43.234105" lon="12.1090567"><ele>606.6</ele><time>2026-03-29T08:08:14.07Z</time></trkpt><trkpt lat="43.2340717" lon="12.1091967"><ele>608.2</ele><time>2026-03-29T08:08:15.069Z</time></trkpt><trkpt lat="43.2340383" lon="12.1093333"><ele>609.8</ele><time>2026-03-29T08:08:16.07Z</time></trkpt><trkpt lat="43.2340067" lon="12.1094783"><ele>611.4</ele><time>2026-03-29T08:08:17.069Z</time></trkpt><trkpt lat="43.2339783" lon="12.109615"><ele>613.0</ele><time>2026-03-29T08:08:18.07Z</time></trkpt><trkpt lat="43.23396" lon="12.10976"><ele>614.0</ele><time>2026-03-29T08:08:19.069Z</time></trkpt><trkpt lat="43.233945" lon="12.1099183"><ele>615.0</ele><time>2026-03-29T08:08:20.07Z</time></trkpt><trkpt lat="43.233945" lon="12.1100717"><ele>616.0</ele><time>2026-03-29T08:08:21.07Z</time></trkpt><trkpt lat="43.2339683" lon="12.1102067"><ele>617.0</ele><time>2026-03-29T08:08:22.07Z</time></trkpt><trkpt lat="43.233995" lon="12.110325"><ele>618.0</ele><time>2026-03-29T08:08:23.069Z</time></trkpt><trkpt lat="43.2340267" lon="12.1104333"><ele>618.0</ele><time>2026-03-29T08:08:24.07Z</time></trkpt><trkpt lat="43.234075" lon="12.11051"><ele>618.0</ele><time>2026-03-29T08:08:25.069Z</time></trkpt><trkpt lat="43.2341367" lon="12.1105517"><ele>618.0</ele><time>2026-03-29T08:08:26.07Z</time></trkpt><trkpt lat="43.2342117" lon="12.1105717"><ele>618.0</ele><time>2026-03-29T08:08:27.07Z</time></trkpt><trkpt lat="43.2343067" lon="12.1105733"><ele>618.0</ele><time>2026-03-29T08:08:28.07Z</time></trkpt><trkpt lat="43.23441" lon="12.1105833"><ele>618.0</ele><time>2026-03-29T08:08:29.07Z</time></trkpt><trkpt lat="43.2345217" lon="12.1105983"><ele>618.0</ele><time>2026-03-29T08:08:30.07Z</time></trkpt><trkpt lat="43.2346317" lon="12.1106117"><ele>618.0</ele><time>2026-03-29T08:08:31.07Z</time></trkpt><trkpt lat="43.2347283" lon="12.110625"><ele>618.0</ele><time>2026-03-29T08:08:32.07Z</time></trkpt><trkpt lat="43.234815" lon="12.11065"><ele>618.0</ele><time>2026-03-29T08:08:33.069Z</time></trkpt><trkpt lat="43.2349033" lon="12.1106633"><ele>618.0</ele><time>2026-03-29T08:08:34.069Z</time></trkpt><trkpt lat="43.2349933" lon="12.1106767"><ele>618.1999999999999</ele><time>2026-03-29T08:08:35.069Z</time></trkpt><trkpt lat="43.2350783" lon="12.11071"><ele>618.4</ele><time>2026-03-29T08:08:36.069Z</time></trkpt><trkpt lat="43.2351633" lon="12.1107667"><ele>618.5999999999999</ele><time>2026-03-29T08:08:37.07Z</time></trkpt><trkpt lat="43.2352617" lon="12.11088"><ele>618.8</ele><time>2026-03-29T08:08:38.069Z</time></trkpt><trkpt lat="43.23534" lon="12.1109617"><ele>619.0</ele><time>2026-03-29T08:08:39.07Z</time></trkpt><trkpt lat="43.2354167" lon="12.1110533"><ele>621.8</ele><time>2026-03-29T08:08:40.07Z</time></trkpt><trkpt lat="43.2354983" lon="12.1111583"><ele>624.5999999999999</ele><time>2026-03-29T08:08:41.07Z</time></trkpt><trkpt lat="43.2355767" lon="12.1112467"><ele>627.4</ele><time>2026-03-29T08:08:42.07Z</time></trkpt><trkpt lat="43.2356417" lon="12.1113167"><ele>630.1999999999999</ele><time>2026-03-29T08:08:43.07Z</time></trkpt><trkpt lat="43.23571" lon="12.111435"><ele>633.0</ele><time>2026-03-29T08:08:45.07Z</time></trkpt><trkpt lat="43.2356833" lon="12.11152"><ele>633.0</ele><time>2026-03-29T08:08:47.07Z</time></trkpt><trkpt lat="43.2355567" lon="12.1114833"><ele>633.0</ele><time>2026-03-29T08:08:49.07Z</time></trkpt><trkpt lat="43.2354783" lon="12.1114567"><ele>633.0</ele><time>2026-03-29T08:08:50.069Z</time></trkpt><trkpt lat="43.23539" lon="12.11142"><ele>633.0</ele><time>2026-03-29T08:08:51.07Z</time></trkpt><trkpt lat="43.2353183" lon="12.1114267"><ele>633.0</ele><time>2026-03-29T08:08:52.069Z</time></trkpt><trkpt lat="43.2352517" lon="12.1114667"><ele>633.0</ele><time>2026-03-29T08:08:53.07Z</time></trkpt><trkpt lat="43.2351817" lon="12.1115583"><ele>635.0</ele><time>2026-03-29T08:08:54.07Z</time></trkpt><trkpt lat="43.23512" lon="12.11168"><ele>637.0</ele><time>2026-03-29T08:08:55.07Z</time></trkpt><trkpt lat="43.2350717" lon="12.111795"><ele>639.0</ele><time>2026-03-29T08:08:56.07Z</time></trkpt><trkpt lat="43.235035" lon="12.1119133"><ele>641.0</ele><time>2026-03-29T08:08:57.069Z</time></trkpt><trkpt lat="43.235025" lon="12.11204"><ele>643.0</ele><time>2026-03-29T08:08:58.07Z</time></trkpt><trkpt lat="43.2350283" lon="12.1121717"><ele>643.0</ele><time>2026-03-29T08:08:59.07Z</time></trkpt><trkpt lat="43.235065" lon="12.112315"><ele>643.0</ele><time>2026-03-29T08:09:00.069Z</time></trkpt><trkpt lat="43.23514" lon="12.1124683"><ele>643.0</ele><time>2026-03-29T08:09:01.07Z</time></trkpt><trkpt lat="43.2352283" lon="12.1126367"><ele>643.0</ele><time>2026-03-29T08:09:02.07Z</time></trkpt><trkpt lat="43.2353183" lon="12.11282"><ele>643.0</ele><time>2026-03-29T08:09:03.07Z</time></trkpt><trkpt lat="43.2354083" lon="12.1129933"><ele>643.0</ele><time>2026-03-29T08:09:04.07Z</time></trkpt><trkpt lat="43.2354883" lon="12.11315"><ele>643.0</ele><time>2026-03-29T08:09:05.07Z</time></trkpt><trkpt lat="43.2355717" lon="12.1132917"><ele>643.0</ele><time>2026-03-29T08:09:06.07Z</time></trkpt><trkpt lat="43.23565" lon="12.1134183"><ele>649.0</ele><time>2026-03-29T08:09:07.07Z</time></trkpt><trkpt lat="43.2357133" lon="12.1135467"><ele>655.0</ele><time>2026-03-29T08:09:08.07Z</time></trkpt><trkpt lat="43.2357567" lon="12.113665"><ele>661.0</ele><time>2026-03-29T08:09:09.07Z</time></trkpt><trkpt lat="43.23577" lon="12.113805"><ele>667.0</ele><time>2026-03-29T08:09:10.069Z</time></trkpt><trkpt lat="43.2357667" lon="12.1139567"><ele>673.0</ele><time>2026-03-29T08:09:11.07Z</time></trkpt><trkpt lat="43.235735" lon="12.114125"><ele>673.4</ele><time>2026-03-29T08:09:12.07Z</time></trkpt><trkpt lat="43.2357" lon="12.1142883"><ele>673.8</ele><time>2026-03-29T08:09:13.07Z</time></trkpt><trkpt lat="43.2356733" lon="12.11444"><ele>674.2</ele><time>2026-03-29T08:09:14.069Z</time></trkpt><trkpt lat="43.2356483" lon="12.114575"><ele>674.6</ele><time>2026-03-29T08:09:15.07Z</time></trkpt><trkpt lat="43.23563" lon="12.1146883"><ele>675.0</ele><time>2026-03-29T08:09:16.07Z</time></trkpt><trkpt lat="43.2356167" lon="12.1147833"><ele>673.1666666666666</ele><time>2026-03-29T08:09:17.07Z</time></trkpt><trkpt lat="43.2355967" lon="12.1148867"><ele>671.3333333333334</ele><time>2026-03-29T08:09:18.07Z</time></trkpt><trkpt lat="43.2355783" lon="12.1149983"><ele>669.5</ele><time>2026-03-29T08:09:19.069Z</time></trkpt><trkpt lat="43.2355533" lon="12.1151133"><ele>667.6666666666667</ele><time>2026-03-29T08:09:20.07Z</time></trkpt><trkpt lat="43.2355217" lon="12.1152283"><ele>665.8333333333334</ele><time>2026-03-29T08:09:21.069Z</time></trkpt><trkpt lat="43.235485" lon="12.1153317"><ele>664.0</ele><time>2026-03-29T08:09:22.069Z</time></trkpt><trkpt lat="43.2354383" lon="12.1154283"><ele>664.0</ele><time>2026-03-29T08:09:23.069Z</time></trkpt><trkpt lat="43.235375" lon="12.1154967"><ele>664.0</ele><time>2026-03-29T08:09:24.069Z</time></trkpt><trkpt lat="43.2352917" lon="12.1155383"><ele>664.0</ele><time>2026-03-29T08:09:25.07Z</time></trkpt><trkpt lat="43.2351883" lon="12.1155567"><ele>664.0</ele><time>2026-03-29T08:09:26.07Z</time></trkpt><trkpt lat="43.2350683" lon="12.1155633"><ele>664.0</ele><time>2026-03-29T08:09:27.069Z</time></trkpt><trkpt lat="43.2349433" lon="12.1155567"><ele>664.0</ele><time>2026-03-29T08:09:28.07Z</time></trkpt><trkpt lat="43.2348167" lon="12.1155667"><ele>664.0</ele><time>2026-03-29T08:09:29.069Z</time></trkpt><trkpt lat="43.2347067" lon="12.1155717"><ele>664.0</ele><time>2026-03-29T08:09:30.069Z</time></trkpt><trkpt lat="43.2345983" lon="12.1155733"><ele>664.0</ele><time>2026-03-29T08:09:31.069Z</time></trkpt><trkpt lat="43.2345" lon="12.11559"><ele>664.0</ele><time>2026-03-29T08:09:32.07Z</time></trkpt><trkpt lat="43.23441" lon="12.1155967"><ele>663.8000000000001</ele><time>2026-03-29T08:09:33.069Z</time></trkpt><trkpt lat="43.2343317" lon="12.1156367"><ele>663.6</ele><time>2026-03-29T08:09:34.07Z</time></trkpt><trkpt lat="43.234265" lon="12.1157083"><ele>663.4</ele><time>2026-03-29T08:09:35.07Z</time></trkpt><trkpt lat="43.2342083" lon="12.1157967"><ele>663.2</ele><time>2026-03-29T08:09:36.07Z</time></trkpt><trkpt lat="43.2341533" lon="12.1159233"><ele>663.0</ele><time>2026-03-29T08:09:37.069Z</time></trkpt><trkpt lat="43.2341" lon="12.1160533"><ele>664.5</ele><time>2026-03-29T08:09:38.07Z</time></trkpt><trkpt lat="43.2340417" lon="12.1161833"><ele>666.0</ele><time>2026-03-29T08:09:39.069Z</time></trkpt><trkpt lat="43.2339883" lon="12.116335"><ele>667.5</ele><time>2026-03-29T08:09:40.07Z</time></trkpt><trkpt lat="43.23394" lon="12.11648"><ele>669.0</ele><time>2026-03-29T08:09:41.07Z</time></trkpt><trkpt lat="43.2339" lon="12.116615"><ele>669.0</ele><time>2026-03-29T08:09:42.069Z</time></trkpt><trkpt lat="43.23386" lon="12.1167367"><ele>669.0</ele><time>2026-03-29T08:09:43.069Z</time></trkpt><trkpt lat="43.2338033" lon="12.1168483"><ele>669.0</ele><time>2026-03-29T08:09:44.07Z</time></trkpt><trkpt lat="43.233735" lon="12.116925"><ele>669.0</ele><time>2026-03-29T08:09:45.07Z</time></trkpt><trkpt lat="43.2336517" lon="12.116965"><ele>669.0</ele><time>2026-03-29T08:09:46.07Z</time></trkpt><trkpt lat="43.23355" lon="12.1169867"><ele>669.0</ele><time>2026-03-29T08:09:47.069Z</time></trkpt><trkpt lat="43.23344" lon="12.1170217"><ele>669.0</ele><time>2026-03-29T08:09:48.069Z</time></trkpt><trkpt lat="43.2333217" lon="12.1171133"><ele>669.0</ele><time>2026-03-29T08:09:49.069Z</time></trkpt><trkpt lat="43.2331983" lon="12.117205"><ele>669.0</ele><time>2026-03-29T08:09:50.07Z</time></trkpt><trkpt lat="43.233085" lon="12.1172967"><ele>670.6</ele><time>2026-03-29T08:09:51.069Z</time></trkpt><trkpt lat="43.2329833" lon="12.1173733"><ele>672.2</ele><time>2026-03-29T08:09:52.07Z</time></trkpt><trkpt lat="43.2328833" lon="12.1174383"><ele>673.8000000000001</ele><time>2026-03-29T08:09:53.07Z</time></trkpt><trkpt lat="43.2327833" lon="12.11748"><ele>675.4000000000001</ele><time>2026-03-29T08:09:54.07Z</time></trkpt><trkpt lat="43.2326783" lon="12.1175233"><ele>677.0</ele><time>2026-03-29T08:09:55.07Z</time></trkpt><trkpt lat="43.232575" lon="12.1175833"><ele>677.0</ele><time>2026-03-29T08:09:56.07Z</time></trkpt><trkpt lat="43.2324733" lon="12.11768"><ele>677.0</ele><time>2026-03-29T08:09:57.07Z</time></trkpt><trkpt lat="43.2323767" lon="12.1178083"><ele>677.0</ele><time>2026-03-29T08:09:58.069Z</time></trkpt><trkpt lat="43.2322817" lon="12.117945"><ele>677.0</ele><time>2026-03-29T08:09:59.069Z</time></trkpt><trkpt lat="43.2321967" lon="12.1180767"><ele>677.8</ele><time>2026-03-29T08:10:00.07Z</time></trkpt><trkpt lat="43.2321133" lon="12.1181783"><ele>678.6</ele><time>2026-03-29T08:10:01.07Z</time></trkpt><trkpt lat="43.2320483" lon="12.1182533"><ele>679.4</ele><time>2026-03-29T08:10:02.07Z</time></trkpt><trkpt lat="43.2320083" lon="12.118345"><ele>680.1999999999999</ele><time>2026-03-29T08:10:03.07Z</time></trkpt><trkpt lat="43.231985" lon="12.1184533"><ele>681.0</ele><time>2026-03-29T08:10:04.07Z</time></trkpt><trkpt lat="43.23199" lon="12.1185883"><ele>681.0</ele><time>2026-03-29T08:10:05.07Z</time></trkpt><trkpt lat="43.23201" lon="12.1187383"><ele>681.0</ele><time>2026-03-29T08:10:06.07Z</time></trkpt><trkpt lat="43.2320467" lon="12.1189133"><ele>681.0</ele><time>2026-03-29T08:10:07.07Z</time></trkpt><trkpt lat="43.23206" lon="12.1191017"><ele>681.0</ele><time>2026-03-29T08:10:08.07Z</time></trkpt><trkpt lat="43.2320767" lon="12.1192967"><ele>683.1999999999999</ele><time>2026-03-29T08:10:09.07Z</time></trkpt><trkpt lat="43.2321017" lon="12.1194767"><ele>685.4</ele><time>2026-03-29T08:10:10.07Z</time></trkpt><trkpt lat="43.232115" lon="12.1196283"><ele>687.6</ele><time>2026-03-29T08:10:11.07Z</time></trkpt><trkpt lat="43.2321183" lon="12.119755"><ele>689.8</ele><time>2026-03-29T08:10:12.07Z</time></trkpt><trkpt lat="43.2321167" lon="12.11986"><ele>692.0</ele><time>2026-03-29T08:10:13.07Z</time></trkpt><trkpt lat="43.2320333" lon="12.1199283"><ele>692.0</ele><time>2026-03-29T08:10:15.07Z</time></trkpt><trkpt lat="43.2319533" lon="12.119905"><ele>692.0</ele><time>2026-03-29T08:10:16.071Z</time></trkpt><trkpt lat="43.2318733" lon="12.119885"><ele>692.0</ele><time>2026-03-29T08:10:17.07Z</time></trkpt><trkpt lat="43.2317917" lon="12.119875"><ele>692.0</ele><time>2026-03-29T08:10:18.071Z</time></trkpt><trkpt lat="43.2317" lon="12.1198733"><ele>692.0</ele><time>2026-03-29T08:10:19.07Z</time></trkpt><trkpt lat="43.23161" lon="12.119895"><ele>692.0</ele><time>2026-03-29T08:10:20.071Z</time></trkpt><trkpt lat="43.23152" lon="12.11992"><ele>691.6</ele><time>2026-03-29T08:10:21.071Z</time></trkpt><trkpt lat="43.2314283" lon="12.119975"><ele>691.2</ele><time>2026-03-29T08:10:22.071Z</time></trkpt><trkpt lat="43.23135" lon="12.1200633"><ele>690.8</ele><time>2026-03-29T08:10:23.071Z</time></trkpt><trkpt lat="43.2312783" lon="12.1201833"><ele>690.4</ele><time>2026-03-29T08:10:24.07Z</time></trkpt><trkpt lat="43.2312183" lon="12.1203267"><ele>690.0</ele><time>2026-03-29T08:10:25.07Z</time></trkpt><trkpt lat="43.23117" lon="12.1204583"><ele>690.0</ele><time>2026-03-29T08:10:26.071Z</time></trkpt><trkpt lat="43.2311367" lon="12.12059"><ele>690.0</ele><time>2026-03-29T08:10:27.07Z</time></trkpt><trkpt lat="43.231125" lon="12.12075"><ele>690.0</ele><time>2026-03-29T08:10:28.07Z</time></trkpt><trkpt lat="43.2311183" lon="12.1209183"><ele>690.0</ele><time>2026-03-29T08:10:29.07Z</time></trkpt><trkpt lat="43.2311183" lon="12.12106"><ele>690.0</ele><time>2026-03-29T08:10:30.07Z</time></trkpt><trkpt lat="43.2311183" lon="12.1212067"><ele>691.75</ele><time>2026-03-29T08:10:31.071Z</time></trkpt><trkpt lat="43.23112" lon="12.1213633"><ele>693.5</ele><time>2026-03-29T08:10:32.071Z</time></trkpt><trkpt lat="43.2311217" lon="12.1215167"><ele>695.25</ele><time>2026-03-29T08:10:33.07Z</time></trkpt><trkpt lat="43.2311167" lon="12.121675"><ele>697.0</ele><time>2026-03-29T08:10:34.071Z</time></trkpt><trkpt lat="43.2311167" lon="12.1218333"><ele>697.0</ele><time>2026-03-29T08:10:35.071Z</time></trkpt><trkpt lat="43.23111" lon="12.121995"><ele>697.0</ele><time>2026-03-29T08:10:36.07Z</time></trkpt><trkpt lat="43.231115" lon="12.12216"><ele>697.0</ele><time>2026-03-29T08:10:37.07Z</time></trkpt><trkpt lat="43.2311267" lon="12.1223283"><ele>697.0</ele><time>2026-03-29T08:10:38.071Z</time></trkpt><trkpt lat="43.23115" lon="12.1224833"><ele>696.4000000000001</ele><time>2026-03-29T08:10:39.071Z</time></trkpt><trkpt lat="43.2311817" lon="12.12261"><ele>695.8000000000001</ele><time>2026-03-29T08:10:40.071Z</time></trkpt><trkpt lat="43.2312117" lon="12.1227167"><ele>695.2</ele><time>2026-03-29T08:10:41.071Z</time></trkpt><trkpt lat="43.231255" lon="12.12285"><ele>694.6</ele><time>2026-03-29T08:10:43.071Z</time></trkpt><trkpt lat="43.2312833" lon="12.122985"><ele>694.0</ele><time>2026-03-29T08:10:46.071Z</time></trkpt><trkpt lat="43.2313367" lon="12.1231067"><ele>694.0</ele><time>2026-03-29T08:10:48.07Z</time></trkpt><trkpt lat="43.2313833" lon="12.123165"><ele>694.0</ele><time>2026-03-29T08:10:49.071Z</time></trkpt><trkpt lat="43.2314417" lon="12.1232167"><ele>694.0</ele><time>2026-03-29T08:10:50.071Z</time></trkpt><trkpt lat="43.2315083" lon="12.1232633"><ele>694.0</ele><time>2026-03-29T08:10:51.07Z</time></trkpt><trkpt lat="43.2315817" lon="12.1232983"><ele>694.0</ele><time>2026-03-29T08:10:52.071Z</time></trkpt><trkpt lat="43.23165" lon="12.1233283"><ele>694.0</ele><time>2026-03-29T08:10:53.071Z</time></trkpt><trkpt lat="43.2317183" lon="12.1233617"><ele>694.0</ele><time>2026-03-29T08:10:54.07Z</time></trkpt><trkpt lat="43.23181" lon="12.1234517"><ele>695.25</ele><time>2026-03-29T08:10:56.071Z</time></trkpt><trkpt lat="43.23185" lon="12.1236167"><ele>696.5</ele><time>2026-03-29T08:10:58.071Z</time></trkpt><trkpt lat="43.2318217" lon="12.1238017"><ele>697.75</ele><time>2026-03-29T08:10:59.071Z</time></trkpt><trkpt lat="43.231805" lon="12.1239767"><ele>699.0</ele><time>2026-03-29T08:11:00.071Z</time></trkpt><trkpt lat="43.2317883" lon="12.1241483"><ele>699.0</ele><time>2026-03-29T08:11:01.07Z</time></trkpt><trkpt lat="43.2317767" lon="12.124305"><ele>699.0</ele><time>2026-03-29T08:11:02.071Z</time></trkpt><trkpt lat="43.2317717" lon="12.12445"><ele>699.0</ele><time>2026-03-29T08:11:03.071Z</time></trkpt><trkpt lat="43.23176" lon="12.1245817"><ele>699.0</ele><time>2026-03-29T08:11:04.071Z</time></trkpt><trkpt lat="43.2317367" lon="12.1247167"><ele>699.0</ele><time>2026-03-29T08:11:05.071Z</time></trkpt><trkpt lat="43.231695" lon="12.1248367"><ele>700.25</ele><time>2026-03-29T08:11:06.071Z</time></trkpt><trkpt lat="43.231645" lon="12.1249733"><ele>701.5</ele><time>2026-03-29T08:11:07.071Z</time></trkpt><trkpt lat="43.2315867" lon="12.1251433"><ele>702.75</ele><time>2026-03-29T08:11:08.071Z</time></trkpt><trkpt lat="43.2315317" lon="12.12531"><ele>704.0</ele><time>2026-03-29T08:11:09.071Z</time></trkpt><trkpt lat="43.231485" lon="12.1254567"><ele>697.8000000000001</ele><time>2026-03-29T08:11:10.071Z</time></trkpt><trkpt lat="43.231445" lon="12.1255783"><ele>691.6</ele><time>2026-03-29T08:11:11.071Z</time></trkpt><trkpt lat="43.231405" lon="12.1257"><ele>685.4</ele><time>2026-03-29T08:11:12.07Z</time></trkpt><trkpt lat="43.2313883" lon="12.1258167"><ele>679.2</ele><time>2026-03-29T08:11:13.071Z</time></trkpt><trkpt lat="43.2313867" lon="12.125955"><ele>673.0</ele><time>2026-03-29T08:11:14.07Z</time></trkpt><trkpt lat="43.2313983" lon="12.1260767"><ele>673.0</ele><time>2026-03-29T08:11:15.071Z</time></trkpt><trkpt lat="43.2314033" lon="12.1261933"><ele>673.0</ele><time>2026-03-29T08:11:16.071Z</time></trkpt><trkpt lat="43.2313983" lon="12.126315"><ele>673.0</ele><time>2026-03-29T08:11:17.07Z</time></trkpt><trkpt lat="43.23137" lon="12.1264233"><ele>673.0</ele><time>2026-03-29T08:11:18.07Z</time></trkpt><trkpt lat="43.2313183" lon="12.1264967"><ele>673.0</ele><time>2026-03-29T08:11:19.071Z</time></trkpt><trkpt lat="43.2312733" lon="12.1265633"><ele>673.0</ele><time>2026-03-29T08:11:20.07Z</time></trkpt><trkpt lat="43.2312433" lon="12.1266417"><ele>675.75</ele><time>2026-03-29T08:11:21.071Z</time></trkpt><trkpt lat="43.2312183" lon="12.1267683"><ele>678.5</ele><time>2026-03-29T08:11:22.07Z</time></trkpt><trkpt lat="43.2312067" lon="12.1269267"><ele>681.25</ele><time>2026-03-29T08:11:23.07Z</time></trkpt><trkpt lat="43.2312167" lon="12.1270967"><ele>684.0</ele><time>2026-03-29T08:11:24.071Z</time></trkpt><trkpt lat="43.2312317" lon="12.1272533"><ele>685.8000000000001</ele><time>2026-03-29T08:11:25.071Z</time></trkpt><trkpt lat="43.2312517" lon="12.127395"><ele>687.6</ele><time>2026-03-29T08:11:26.071Z</time></trkpt><trkpt lat="43.2312867" lon="12.1275333"><ele>689.4</ele><time>2026-03-29T08:11:27.07Z</time></trkpt><trkpt lat="43.231335" lon="12.1276683"><ele>691.2</ele><time>2026-03-29T08:11:28.071Z</time></trkpt><trkpt lat="43.2313883" lon="12.1277983"><ele>693.0</ele><time>2026-03-29T08:11:29.071Z</time></trkpt><trkpt lat="43.2314483" lon="12.1279183"><ele>698.2</ele><time>2026-03-29T08:11:30.071Z</time></trkpt><trkpt lat="43.231515" lon="12.1280267"><ele>703.4</ele><time>2026-03-29T08:11:31.071Z</time></trkpt><trkpt lat="43.231575" lon="12.128135"><ele>708.6</ele><time>2026-03-29T08:11:32.071Z</time></trkpt><trkpt lat="43.2316233" lon="12.12824"><ele>713.8000000000001</ele><time>2026-03-29T08:11:33.071Z</time></trkpt><trkpt lat="43.2316567" lon="12.1283417"><ele>719.0</ele><time>2026-03-29T08:11:34.071Z</time></trkpt><trkpt lat="43.2316417" lon="12.1284483"><ele>719.0</ele><time>2026-03-29T08:11:35.071Z</time></trkpt><trkpt lat="43.231615" lon="12.128555"><ele>719.0</ele><time>2026-03-29T08:11:36.071Z</time></trkpt><trkpt lat="43.2315783" lon="12.1286317"><ele>719.0</ele><time>2026-03-29T08:11:37.071Z</time></trkpt><trkpt lat="43.2314867" lon="12.1286533"><ele>719.0</ele><time>2026-03-29T08:11:44.071Z</time></trkpt><trkpt lat="43.2313967" lon="12.128715"><ele>719.0</ele><time>2026-03-29T08:11:46.07Z</time></trkpt><trkpt lat="43.2313233" lon="12.12878"><ele>719.0</ele><time>2026-03-29T08:11:47.071Z</time></trkpt><trkpt lat="43.2312283" lon="12.128845"><ele>714.2</ele><time>2026-03-29T08:11:48.071Z</time></trkpt><trkpt lat="43.231135" lon="12.12891"><ele>709.4000000000001</ele><time>2026-03-29T08:11:49.07Z</time></trkpt><trkpt lat="43.2310483" lon="12.1289433"><ele>704.6</ele><time>2026-03-29T08:11:50.071Z</time></trkpt><trkpt lat="43.2309617" lon="12.1289467"><ele>699.8</ele><time>2026-03-29T08:11:51.071Z</time></trkpt><trkpt lat="43.2308667" lon="12.1289583"><ele>695.0</ele><time>2026-03-29T08:11:52.071Z</time></trkpt><trkpt lat="43.2307883" lon="12.12897"><ele>695.0</ele><time>2026-03-29T08:11:53.071Z</time></trkpt><trkpt lat="43.23071" lon="12.1289983"><ele>695.0</ele><time>2026-03-29T08:11:54.071Z</time></trkpt><trkpt lat="43.23064" lon="12.129025"><ele>695.0</ele><time>2026-03-29T08:11:55.071Z</time></trkpt><trkpt lat="43.2305283" lon="12.12912"><ele>695.0</ele><time>2026-03-29T08:11:57.071Z</time></trkpt><trkpt lat="43.2304733" lon="12.1291767"><ele>695.0</ele><time>2026-03-29T08:11:58.071Z</time></trkpt><trkpt lat="43.23036" lon="12.129245"><ele>694.3333333333333</ele><time>2026-03-29T08:12:00.071Z</time></trkpt><trkpt lat="43.23029" lon="12.12925"><ele>693.6666666666666</ele><time>2026-03-29T08:12:01.071Z</time></trkpt><trkpt lat="43.2302183" lon="12.1292383"><ele>693.0</ele><time>2026-03-29T08:12:02.071Z</time></trkpt><trkpt lat="43.2300767" lon="12.1291933"><ele>692.3333333333334</ele><time>2026-03-29T08:12:04.071Z</time></trkpt><trkpt lat="43.2300033" lon="12.1291783"><ele>691.6666666666667</ele><time>2026-03-29T08:12:05.07Z</time></trkpt><trkpt lat="43.229935" lon="12.1291667"><ele>691.0</ele><time>2026-03-29T08:12:06.071Z</time></trkpt><trkpt lat="43.2298667" lon="12.1291767"><ele>687.0</ele><time>2026-03-29T08:12:07.071Z</time></trkpt><trkpt lat="43.22979" lon="12.1292017"><ele>683.0</ele><time>2026-03-29T08:12:08.071Z</time></trkpt><trkpt lat="43.2297267" lon="12.1292433"><ele>679.0</ele><time>2026-03-29T08:12:09.07Z</time></trkpt><trkpt lat="43.2296367" lon="12.1293583"><ele>675.0</ele><time>2026-03-29T08:12:11.071Z</time></trkpt><trkpt lat="43.22961" lon="12.12947"><ele>671.0</ele><time>2026-03-29T08:12:12.07Z</time></trkpt><trkpt lat="43.22959" lon="12.12959"><ele>667.0</ele><time>2026-03-29T08:12:13.071Z</time></trkpt><trkpt lat="43.2295783" lon="12.1297333"><ele>667.0</ele><time>2026-03-29T08:12:14.071Z</time></trkpt><trkpt lat="43.2295833" lon="12.12986"><ele>667.0</ele><time>2026-03-29T08:12:15.07Z</time></trkpt><trkpt lat="43.2295983" lon="12.1299917"><ele>667.0</ele><time>2026-03-29T08:12:16.07Z</time></trkpt><trkpt lat="43.229625" lon="12.130135"><ele>667.0</ele><time>2026-03-29T08:12:17.071Z</time></trkpt><trkpt lat="43.2296367" lon="12.1302917"><ele>667.0</ele><time>2026-03-29T08:12:18.071Z</time></trkpt><trkpt lat="43.2296383" lon="12.1304433"><ele>667.3333333333334</ele><time>2026-03-29T08:12:19.071Z</time></trkpt><trkpt lat="43.2296283" lon="12.1305867"><ele>667.6666666666667</ele><time>2026-03-29T08:12:20.071Z</time></trkpt><trkpt lat="43.22963" lon="12.1307167"><ele>668.0</ele><time>2026-03-29T08:12:21.071Z</time></trkpt><trkpt lat="43.229625" lon="12.1308283"><ele>668.3333333333334</ele><time>2026-03-29T08:12:22.07Z</time></trkpt><trkpt lat="43.2296017" lon="12.13092"><ele>668.6666666666666</ele><time>2026-03-29T08:12:23.071Z</time></trkpt><trkpt lat="43.2295333" lon="12.130995"><ele>669.0</ele><time>2026-03-29T08:12:24.07Z</time></trkpt><trkpt lat="43.229445" lon="12.1310817"><ele>669.6</ele><time>2026-03-29T08:12:25.071Z</time></trkpt><trkpt lat="43.2293433" lon="12.1311567"><ele>670.2</ele><time>2026-03-29T08:12:26.071Z</time></trkpt><trkpt lat="43.2292533" lon="12.131225"><ele>670.8000000000001</ele><time>2026-03-29T08:12:27.071Z</time></trkpt><trkpt lat="43.2291783" lon="12.1312833"><ele>671.4000000000001</ele><time>2026-03-29T08:12:28.07Z</time></trkpt><trkpt lat="43.2291083" lon="12.131335"><ele>672.0</ele><time>2026-03-29T08:12:29.071Z</time></trkpt><trkpt lat="43.2290433" lon="12.13137"><ele>671.6666666666666</ele><time>2026-03-29T08:12:31.071Z</time></trkpt><trkpt lat="43.228975" lon="12.13144"><ele>671.3333333333334</ele><time>2026-03-29T08:12:40.071Z</time></trkpt><trkpt lat="43.228905" lon="12.1315967"><ele>671.0</ele><time>2026-03-29T08:12:42.071Z</time></trkpt><trkpt lat="43.228865" lon="12.1316717"><ele>670.6666666666667</ele><time>2026-03-29T08:12:43.071Z</time></trkpt><trkpt lat="43.2288233" lon="12.13175"><ele>670.3333333333334</ele><time>2026-03-29T08:12:44.071Z</time></trkpt><trkpt lat="43.2287767" lon="12.1318167"><ele>670.0</ele><time>2026-03-29T08:12:45.071Z</time></trkpt><trkpt lat="43.22869" lon="12.1318667"><ele>670.0</ele><time>2026-03-29T08:12:47.071Z</time></trkpt><trkpt lat="43.2285633" lon="12.131915"><ele>670.0</ele><time>2026-03-29T08:12:49.07Z</time></trkpt><trkpt lat="43.2284917" lon="12.131925"><ele>670.0</ele><time>2026-03-29T08:12:50.071Z</time></trkpt><trkpt lat="43.2284117" lon="12.1319417"><ele>670.0</ele><time>2026-03-29T08:12:51.071Z</time></trkpt><trkpt lat="43.228335" lon="12.131945"><ele>670.0</ele><time>2026-03-29T08:12:52.07Z</time></trkpt><trkpt lat="43.22827" lon="12.1319467"><ele>670.0</ele><time>2026-03-29T08:12:53.071Z</time></trkpt><trkpt lat="43.2281617" lon="12.13197"><ele>667.2</ele><time>2026-03-29T08:12:55.071Z</time></trkpt><trkpt lat="43.2280617" lon="12.1320483"><ele>664.4</ele><time>2026-03-29T08:12:57.071Z</time></trkpt><trkpt lat="43.2279983" lon="12.13209"><ele>661.5999999999999</ele><time>2026-03-29T08:12:58.071Z</time></trkpt><trkpt lat="43.2279367" lon="12.13213"><ele>658.8</ele><time>2026-03-29T08:12:59.071Z</time></trkpt><trkpt lat="43.2278267" lon="12.1321583"><ele>656.0</ele><time>2026-03-29T08:13:01.071Z</time></trkpt><trkpt lat="43.22774" lon="12.1321767"><ele>656.0</ele><time>2026-03-29T08:13:03.071Z</time></trkpt><trkpt lat="43.2276833" lon="12.1322217"><ele>656.0</ele><time>2026-03-29T08:13:05.07Z</time></trkpt><trkpt lat="43.2276333" lon="12.1322917"><ele>656.0</ele><time>2026-03-29T08:13:07.071Z</time></trkpt><trkpt lat="43.22758" lon="12.1323783"><ele>656.0</ele><time>2026-03-29T08:13:09.07Z</time></trkpt><trkpt lat="43.227535" lon="12.1324967"><ele>656.0</ele><time>2026-03-29T08:13:11.071Z</time></trkpt><trkpt lat="43.227475" lon="12.1326"><ele>656.0</ele><time>2026-03-29T08:13:18.071Z</time></trkpt><trkpt lat="43.2274583" lon="12.1326967"><ele>657.9999999999999</ele><time>2026-03-29T08:13:20.071Z</time></trkpt><trkpt lat="43.227455" lon="12.1327883"><ele>660.0</ele><time>2026-03-29T08:13:22.07Z</time></trkpt><trkpt lat="43.2274533" lon="12.13289"><ele>662.0</ele><time>2026-03-29T08:13:25.071Z</time></trkpt><trkpt lat="43.22744" lon="12.1330083"><ele>664.0</ele><time>2026-03-29T08:13:28.071Z</time></trkpt><trkpt lat="43.2274367" lon="12.1331033"><ele>666.0</ele><time>2026-03-29T08:13:31.07Z</time></trkpt><trkpt lat="43.2274317" lon="12.1331983"><ele>667.9999999999999</ele><time>2026-03-29T08:13:33.071Z</time></trkpt><trkpt lat="43.227405" lon="12.133295"><ele>670.0</ele><time>2026-03-29T08:13:35.071Z</time></trkpt><trkpt lat="43.227395" lon="12.1333883"><ele>671.3333333333334</ele><time>2026-03-29T08:13:37.071Z</time></trkpt><trkpt lat="43.2273833" lon="12.1334867"><ele>672.6666666666667</ele><time>2026-03-29T08:13:39.071Z</time></trkpt><trkpt lat="43.2273633" lon="12.1335783"><ele>674.0</ele><time>2026-03-29T08:13:41.071Z</time></trkpt><trkpt lat="43.227345" lon="12.1336767"><ele>675.3333333333334</ele><time>2026-03-29T08:13:43.071Z</time></trkpt><trkpt lat="43.22733" lon="12.1337933"><ele>676.6666666666666</ele><time>2026-03-29T08:13:45.071Z</time></trkpt><trkpt lat="43.2273167" lon="12.1338817"><ele>678.0</ele><time>2026-03-29T08:13:47.07Z</time></trkpt><trkpt lat="43.2273283" lon="12.134005"><ele>679.6666666666666</ele><time>2026-03-29T08:14:56.07Z</time></trkpt><trkpt lat="43.2273217" lon="12.1341067"><ele>681.3333333333334</ele><time>2026-03-29T08:14:58.07Z</time></trkpt><trkpt lat="43.227325" lon="12.1342183"><ele>683.0</ele><time>2026-03-29T08:15:00.071Z</time></trkpt><trkpt lat="43.2273317" lon="12.134335"><ele>684.6666666666667</ele><time>2026-03-29T08:15:02.071Z</time></trkpt><trkpt lat="43.227335" lon="12.134445"><ele>686.3333333333334</ele><time>2026-03-29T08:15:04.071Z</time></trkpt><trkpt lat="43.227305" lon="12.134545"><ele>688.0</ele><time>2026-03-29T08:15:06.071Z</time></trkpt><trkpt lat="43.22727" lon="12.1346467"><ele>685.8333333333334</ele><time>2026-03-29T08:15:08.07Z</time></trkpt><trkpt lat="43.227235" lon="12.1347767"><ele>683.6666666666667</ele><time>2026-03-29T08:15:10.071Z</time></trkpt><trkpt lat="43.22723" lon="12.134885"><ele>681.5</ele><time>2026-03-29T08:15:12.071Z</time></trkpt><trkpt lat="43.2272" lon="12.1349683"><ele>679.3333333333334</ele><time>2026-03-29T08:15:14.071Z</time></trkpt><trkpt lat="43.22714" lon="12.1350483"><ele>677.1666666666666</ele><time>2026-03-29T08:15:16.071Z</time></trkpt><trkpt lat="43.227075" lon="12.13511"><ele>675.0</ele><time>2026-03-29T08:15:17.071Z</time></trkpt><trkpt lat="43.2270067" lon="12.1351683"><ele>675.0</ele><time>2026-03-29T08:15:18.071Z</time></trkpt><trkpt lat="43.2269383" lon="12.1352117"><ele>675.0</ele><time>2026-03-29T08:15:19.071Z</time></trkpt><trkpt lat="43.226875" lon="12.1352433"><ele>675.0</ele><time>2026-03-29T08:15:20.071Z</time></trkpt><trkpt lat="43.2268067" lon="12.1352633"><ele>675.0</ele><time>2026-03-29T08:15:21.071Z</time></trkpt><trkpt lat="43.2267217" lon="12.1352633"><ele>675.0</ele><time>2026-03-29T08:15:22.07Z</time></trkpt><trkpt lat="43.226645" lon="12.135255"><ele>675.0</ele><time>2026-03-29T08:15:23.071Z</time></trkpt><trkpt lat="43.2265783" lon="12.13525"><ele>675.0</ele><time>2026-03-29T08:15:24.071Z</time></trkpt><trkpt lat="43.22647" lon="12.1352333"><ele>672.8</ele><time>2026-03-29T08:15:26.071Z</time></trkpt><trkpt lat="43.22636" lon="12.1352433"><ele>670.6</ele><time>2026-03-29T08:15:28.071Z</time></trkpt><trkpt lat="43.2262583" lon="12.13526"><ele>668.4000000000001</ele><time>2026-03-29T08:15:30.071Z</time></trkpt><trkpt lat="43.2261783" lon="12.1352617"><ele>666.2</ele><time>2026-03-29T08:15:33.071Z</time></trkpt><trkpt lat="43.2261083" lon="12.13528"><ele>664.0</ele><time>2026-03-29T08:15:36.071Z</time></trkpt><trkpt lat="43.2260217" lon="12.1353183"><ele>664.0</ele><time>2026-03-29T08:15:39.071Z</time></trkpt><trkpt lat="43.22595" lon="12.1353583"><ele>664.0</ele><time>2026-03-29T08:15:41.07Z</time></trkpt><trkpt lat="43.2258883" lon="12.135425"><ele>664.0</ele><time>2026-03-29T08:15:43.071Z</time></trkpt><trkpt lat="43.2258167" lon="12.1355033"><ele>664.0</ele><time>2026-03-29T08:15:47.071Z</time></trkpt><trkpt lat="43.2257483" lon="12.1355667"><ele>664.0</ele><time>2026-03-29T08:15:50.071Z</time></trkpt><trkpt lat="43.2256917" lon="12.1356367"><ele>664.0</ele><time>2026-03-29T08:15:52.071Z</time></trkpt><trkpt lat="43.2256467" lon="12.135705"><ele>663.8000000000001</ele><time>2026-03-29T08:15:54.07Z</time></trkpt><trkpt lat="43.2255967" lon="12.1357883"><ele>663.6</ele><time>2026-03-29T08:15:56.071Z</time></trkpt><trkpt lat="43.2255617" lon="12.1359133"><ele>663.4</ele><time>2026-03-29T08:15:58.07Z</time></trkpt><trkpt lat="43.225495" lon="12.1360033"><ele>663.2</ele><time>2026-03-29T08:16:00.071Z</time></trkpt><trkpt lat="43.2253883" lon="12.1360733"><ele>663.0</ele><time>2026-03-29T08:16:02.071Z</time></trkpt><trkpt lat="43.2252967" lon="12.1361683"><ele>663.0</ele><time>2026-03-29T08:16:04.07Z</time></trkpt><trkpt lat="43.2252133" lon="12.136295"><ele>663.0</ele><time>2026-03-29T08:16:06.071Z</time></trkpt><trkpt lat="43.2251417" lon="12.13641"><ele>663.0</ele><time>2026-03-29T08:16:08.071Z</time></trkpt><trkpt lat="43.225055" lon="12.1365"><ele>663.0</ele><time>2026-03-29T08:16:10.07Z</time></trkpt><trkpt lat="43.2249733" lon="12.1365967"><ele>663.5999999999999</ele><time>2026-03-29T08:16:12.071Z</time></trkpt><trkpt lat="43.2249317" lon="12.13671"><ele>664.1999999999999</ele><time>2026-03-29T08:16:14.071Z</time></trkpt><trkpt lat="43.2248817" lon="12.1368533"><ele>664.8</ele><time>2026-03-29T08:16:16.071Z</time></trkpt><trkpt lat="43.2248333" lon="12.1369883"><ele>665.4</ele><time>2026-03-29T08:16:18.071Z</time></trkpt><trkpt lat="43.2247567" lon="12.1371083"><ele>666.0</ele><time>2026-03-29T08:16:20.071Z</time></trkpt><trkpt lat="43.2246533" lon="12.13718"><ele>664.4285714285714</ele><time>2026-03-29T08:16:22.071Z</time></trkpt><trkpt lat="43.22459" lon="12.1371967"><ele>662.8571428571428</ele><time>2026-03-29T08:16:23.071Z</time></trkpt><trkpt lat="43.2245233" lon="12.1372"><ele>661.2857142857142</ele><time>2026-03-29T08:16:24.07Z</time></trkpt><trkpt lat="43.2244533" lon="12.1372133"><ele>659.7142857142858</ele><time>2026-03-29T08:16:25.071Z</time></trkpt><trkpt lat="43.22438" lon="12.137235"><ele>658.1428571428571</ele><time>2026-03-29T08:16:26.071Z</time></trkpt><trkpt lat="43.2243" lon="12.13724"><ele>656.5714285714286</ele><time>2026-03-29T08:16:27.071Z</time></trkpt><trkpt lat="43.22422" lon="12.1372633"><ele>655.0</ele><time>2026-03-29T08:16:28.071Z</time></trkpt><trkpt lat="43.224145" lon="12.1372567"><ele>655.0</ele><time>2026-03-29T08:16:29.07Z</time></trkpt><trkpt lat="43.2240667" lon="12.1372517"><ele>655.0</ele><time>2026-03-29T08:16:30.07Z</time></trkpt><trkpt lat="43.22399" lon="12.1372417"><ele>655.0</ele><time>2026-03-29T08:16:31.071Z</time></trkpt><trkpt lat="43.2239267" lon="12.1372217"><ele>655.0</ele><time>2026-03-29T08:16:32.071Z</time></trkpt><trkpt lat="43.22386" lon="12.1372"><ele>655.0</ele><time>2026-03-29T08:16:34.071Z</time></trkpt><trkpt lat="43.2237717" lon="12.137125"><ele>655.0</ele><time>2026-03-29T08:16:37.071Z</time></trkpt><trkpt lat="43.2236933" lon="12.137055"><ele>653.3333333333334</ele><time>2026-03-29T08:16:39.07Z</time></trkpt><trkpt lat="43.2236217" lon="12.13701"><ele>651.6666666666667</ele><time>2026-03-29T08:16:41.071Z</time></trkpt><trkpt lat="43.2235483" lon="12.1369917"><ele>650.0</ele><time>2026-03-29T08:16:43.071Z</time></trkpt><trkpt lat="43.2234817" lon="12.1370267"><ele>648.3333333333334</ele><time>2026-03-29T08:16:45.071Z</time></trkpt><trkpt lat="43.2234417" lon="12.1371367"><ele>646.6666666666666</ele><time>2026-03-29T08:16:47.071Z</time></trkpt><trkpt lat="43.223415" lon="12.1373067"><ele>645.0</ele><time>2026-03-29T08:16:49.071Z</time></trkpt><trkpt lat="43.2234167" lon="12.13741"><ele>645.0</ele><time>2026-03-29T08:16:50.07Z</time></trkpt><trkpt lat="43.223425" lon="12.137515"><ele>645.0</ele><time>2026-03-29T08:16:51.071Z</time></trkpt><trkpt lat="43.2234183" lon="12.1376033"><ele>645.0</ele><time>2026-03-29T08:16:52.071Z</time></trkpt><trkpt lat="43.2234017" lon="12.1376967"><ele>645.0</ele><time>2026-03-29T08:16:53.071Z</time></trkpt><trkpt lat="43.22338" lon="12.1377783"><ele>645.0</ele><time>2026-03-29T08:16:54.07Z</time></trkpt><trkpt lat="43.22332" lon="12.1379333"><ele>645.0</ele><time>2026-03-29T08:16:56.071Z</time></trkpt><trkpt lat="43.22329" lon="12.1380367"><ele>645.0</ele><time>2026-03-29T08:16:57.071Z</time></trkpt><trkpt lat="43.22327" lon="12.1381467"><ele>645.0</ele><time>2026-03-29T08:16:58.071Z</time></trkpt><trkpt lat="43.22325" lon="12.1382583"><ele>645.0</ele><time>2026-03-29T08:16:59.071Z</time></trkpt><trkpt lat="43.2232283" lon="12.13837"><ele>645.0</ele><time>2026-03-29T08:17:00.071Z</time></trkpt><trkpt lat="43.2232033" lon="12.1384717"><ele>645.0</ele><time>2026-03-29T08:17:01.071Z</time></trkpt><trkpt lat="43.2231783" lon="12.138585"><ele>645.0</ele><time>2026-03-29T08:17:02.07Z</time></trkpt><trkpt lat="43.22315" lon="12.1387033"><ele>642.8333333333334</ele><time>2026-03-29T08:17:03.071Z</time></trkpt><trkpt lat="43.2231117" lon="12.13883"><ele>640.6666666666666</ele><time>2026-03-29T08:17:04.071Z</time></trkpt><trkpt lat="43.22307" lon="12.1389417"><ele>638.5</ele><time>2026-03-29T08:17:05.071Z</time></trkpt><trkpt lat="43.2230233" lon="12.1390317"><ele>636.3333333333333</ele><time>2026-03-29T08:17:06.071Z</time></trkpt><trkpt lat="43.2229717" lon="12.13911"><ele>634.1666666666666</ele><time>2026-03-29T08:17:07.071Z</time></trkpt><trkpt lat="43.2229167" lon="12.1391933"><ele>632.0</ele><time>2026-03-29T08:17:08.07Z</time></trkpt><trkpt lat="43.222865" lon="12.1392733"><ele>632.0</ele><time>2026-03-29T08:17:09.071Z</time></trkpt><trkpt lat="43.222805" lon="12.1393417"><ele>632.0</ele><time>2026-03-29T08:17:10.07Z</time></trkpt><trkpt lat="43.2227383" lon="12.1394083"><ele>632.0</ele><time>2026-03-29T08:17:11.071Z</time></trkpt><trkpt lat="43.222675" lon="12.1394767"><ele>632.0</ele><time>2026-03-29T08:17:12.07Z</time></trkpt><trkpt lat="43.222615" lon="12.13955"><ele>632.0</ele><time>2026-03-29T08:17:13.071Z</time></trkpt><trkpt lat="43.2225633" lon="12.139615"><ele>632.0</ele><time>2026-03-29T08:17:14.071Z</time></trkpt><trkpt lat="43.2225117" lon="12.1396783"><ele>632.0</ele><time>2026-03-29T08:17:15.071Z</time></trkpt><trkpt lat="43.2224567" lon="12.13975"><ele>632.0</ele><time>2026-03-29T08:17:16.071Z</time></trkpt><trkpt lat="43.2224133" lon="12.1398183"><ele>632.0</ele><time>2026-03-29T08:17:17.071Z</time></trkpt><trkpt lat="43.2223533" lon="12.1399267"><ele>632.0</ele><time>2026-03-29T08:17:19.07Z</time></trkpt><trkpt lat="43.222355" lon="12.1400517"><ele>632.0</ele><time>2026-03-29T08:17:21.071Z</time></trkpt><trkpt lat="43.2223617" lon="12.1402133"><ele>632.0</ele><time>2026-03-29T08:17:23.071Z</time></trkpt><trkpt lat="43.22237" lon="12.14037"><ele>632.0</ele><time>2026-03-29T08:17:25.071Z</time></trkpt><trkpt lat="43.2223383" lon="12.1405133"><ele>632.0</ele><time>2026-03-29T08:17:27.071Z</time></trkpt><trkpt lat="43.222315" lon="12.1405983"><ele>632.0</ele><time>2026-03-29T08:17:28.071Z</time></trkpt><trkpt lat="43.2223033" lon="12.14069"><ele>632.0</ele><time>2026-03-29T08:17:29.07Z</time></trkpt><trkpt lat="43.2222783" lon="12.1408433"><ele>631.2</ele><time>2026-03-29T08:17:31.071Z</time></trkpt><trkpt lat="43.2222317" lon="12.1409817"><ele>630.4000000000001</ele><time>2026-03-29T08:17:33.071Z</time></trkpt><trkpt lat="43.2221483" lon="12.1411033"><ele>629.5999999999999</ele><time>2026-03-29T08:17:35.071Z</time></trkpt><trkpt lat="43.2221017" lon="12.14117"><ele>628.8</ele><time>2026-03-29T08:17:36.071Z</time></trkpt><trkpt lat="43.22206" lon="12.14124"><ele>628.0</ele><time>2026-03-29T08:17:37.071Z</time></trkpt><trkpt lat="43.2217733" lon="12.1417233"><ele>627.0</ele><time>2026-03-29T08:17:50.879Z</time></trkpt><trkpt lat="43.2219167" lon="12.1411733"><ele>626.0</ele><time>2026-03-29T08:17:53.38Z</time></trkpt><trkpt lat="43.22192" lon="12.141325"><ele>626.0</ele><time>2026-03-29T08:17:55.379Z</time></trkpt><trkpt lat="43.22193" lon="12.14142"><ele>626.0</ele><time>2026-03-29T08:17:59.069Z</time></trkpt><trkpt lat="43.22187" lon="12.1414533"><ele>626.0</ele><time>2026-03-29T08:18:34.069Z</time></trkpt><trkpt lat="43.221815" lon="12.1415017"><ele>626.0</ele><time>2026-03-29T08:18:38.07Z</time></trkpt><trkpt lat="43.2217567" lon="12.1415717"><ele>626.0</ele><time>2026-03-29T08:18:41.07Z</time></trkpt><trkpt lat="43.22171" lon="12.1416317"><ele>626.0</ele><time>2026-03-29T08:18:43.069Z</time></trkpt><trkpt lat="43.221655" lon="12.14168"><ele>626.0</ele><time>2026-03-29T08:18:45.07Z</time></trkpt><trkpt lat="43.2215633" lon="12.14172"><ele>626.3333333333333</ele><time>2026-03-29T08:18:48.069Z</time></trkpt><trkpt lat="43.2215033" lon="12.1417583"><ele>626.6666666666666</ele><time>2026-03-29T08:18:50.07Z</time></trkpt><trkpt lat="43.221425" lon="12.1418"><ele>627.0</ele><time>2026-03-29T08:18:52.07Z</time></trkpt><trkpt lat="43.221355" lon="12.14187"><ele>627.3333333333334</ele><time>2026-03-29T08:18:54.069Z</time></trkpt><trkpt lat="43.221285" lon="12.1419433"><ele>627.6666666666667</ele><time>2026-03-29T08:18:57.07Z</time></trkpt><trkpt lat="43.2212233" lon="12.1420183"><ele>628.0</ele><time>2026-03-29T08:18:59.069Z</time></trkpt><trkpt lat="43.221095" lon="12.1420783"><ele>627.1999999999999</ele><time>2026-03-29T08:19:01.07Z</time></trkpt><trkpt lat="43.2210217" lon="12.1421"><ele>626.4</ele><time>2026-03-29T08:19:02.07Z</time></trkpt><trkpt lat="43.2209133" lon="12.1421433"><ele>625.5999999999999</ele><time>2026-03-29T08:19:04.07Z</time></trkpt><trkpt lat="43.2208417" lon="12.1421833"><ele>624.8</ele><time>2026-03-29T08:19:05.07Z</time></trkpt><trkpt lat="43.2207783" lon="12.1422283"><ele>624.0</ele><time>2026-03-29T08:19:06.07Z</time></trkpt><trkpt lat="43.2206683" lon="12.1423117"><ele>621.8333333333334</ele><time>2026-03-29T08:19:08.07Z</time></trkpt><trkpt lat="43.2205717" lon="12.1424083"><ele>619.6666666666666</ele><time>2026-03-29T08:19:10.07Z</time></trkpt><trkpt lat="43.22052" lon="12.1424667"><ele>617.5</ele><time>2026-03-29T08:19:11.069Z</time></trkpt><trkpt lat="43.2204617" lon="12.1425217"><ele>615.3333333333333</ele><time>2026-03-29T08:19:12.07Z</time></trkpt><trkpt lat="43.220405" lon="12.1425683"><ele>613.1666666666666</ele><time>2026-03-29T08:19:13.07Z</time></trkpt><trkpt lat="43.2203467" lon="12.1426017"><ele>611.0</ele><time>2026-03-29T08:19:14.07Z</time></trkpt><trkpt lat="43.22023" lon="12.14267"><ele>611.0</ele><time>2026-03-29T08:19:16.07Z</time></trkpt><trkpt lat="43.2201533" lon="12.14269"><ele>611.0</ele><time>2026-03-29T08:19:17.07Z</time></trkpt><trkpt lat="43.220075" lon="12.1426983"><ele>611.0</ele><time>2026-03-29T08:19:18.07Z</time></trkpt><trkpt lat="43.2199817" lon="12.1426883"><ele>611.0</ele><time>2026-03-29T08:19:19.07Z</time></trkpt><trkpt lat="43.2198583" lon="12.1426533"><ele>611.0</ele><time>2026-03-29T08:19:20.07Z</time></trkpt><trkpt lat="43.2197017" lon="12.1426033"><ele>611.6666666666666</ele><time>2026-03-29T08:19:21.07Z</time></trkpt><trkpt lat="43.219545" lon="12.1425433"><ele>612.3333333333334</ele><time>2026-03-29T08:19:22.07Z</time></trkpt><trkpt lat="43.2194017" lon="12.1424883"><ele>613.0</ele><time>2026-03-29T08:19:23.07Z</time></trkpt><trkpt lat="43.2192583" lon="12.1424517"><ele>613.0</ele><time>2026-03-29T08:19:24.07Z</time></trkpt><trkpt lat="43.2191067" lon="12.1424117"><ele>613.0</ele><time>2026-03-29T08:19:25.07Z</time></trkpt><trkpt lat="43.21895" lon="12.142375"><ele>613.0</ele><time>2026-03-29T08:19:26.07Z</time></trkpt><trkpt lat="43.2187983" lon="12.14234"><ele>610.0</ele><time>2026-03-29T08:19:27.07Z</time></trkpt><trkpt lat="43.2186467" lon="12.1423133"><ele>607.0</ele><time>2026-03-29T08:19:28.07Z</time></trkpt><trkpt lat="43.2184933" lon="12.1422983"><ele>604.0</ele><time>2026-03-29T08:19:29.07Z</time></trkpt><trkpt lat="43.2183583" lon="12.1422867"><ele>601.0</ele><time>2026-03-29T08:19:30.07Z</time></trkpt><trkpt lat="43.2182283" lon="12.1422583"><ele>601.25</ele><time>2026-03-29T08:19:31.069Z</time></trkpt><trkpt lat="43.2180833" lon="12.1422333"><ele>601.5</ele><time>2026-03-29T08:19:32.07Z</time></trkpt><trkpt lat="43.2179467" lon="12.14221"><ele>601.75</ele><time>2026-03-29T08:19:33.07Z</time></trkpt><trkpt lat="43.2178233" lon="12.1421933"><ele>602.0</ele><time>2026-03-29T08:19:34.07Z</time></trkpt><trkpt lat="43.2176983" lon="12.1421667"><ele>602.0</ele><time>2026-03-29T08:19:35.07Z</time></trkpt><trkpt lat="43.2175683" lon="12.142145"><ele>602.0</ele><time>2026-03-29T08:19:36.069Z</time></trkpt><trkpt lat="43.2174367" lon="12.1421233"><ele>602.0</ele><time>2026-03-29T08:19:37.07Z</time></trkpt><trkpt lat="43.2173083" lon="12.1421167"><ele>602.0</ele><time>2026-03-29T08:19:38.07Z</time></trkpt><trkpt lat="43.2171817" lon="12.1420967"><ele>602.0</ele><time>2026-03-29T08:19:39.069Z</time></trkpt><trkpt lat="43.2170683" lon="12.1420967"><ele>602.0</ele><time>2026-03-29T08:19:40.07Z</time></trkpt><trkpt lat="43.216955" lon="12.1420967"><ele>602.0</ele><time>2026-03-29T08:19:41.07Z</time></trkpt><trkpt lat="43.2168433" lon="12.14209"><ele>602.0</ele><time>2026-03-29T08:19:42.07Z</time></trkpt><trkpt lat="43.2167367" lon="12.142095"><ele>602.0</ele><time>2026-03-29T08:19:43.069Z</time></trkpt><trkpt lat="43.2166383" lon="12.1421183"><ele>602.0</ele><time>2026-03-29T08:19:44.069Z</time></trkpt><trkpt lat="43.2165367" lon="12.142155"><ele>602.0</ele><time>2026-03-29T08:19:45.069Z</time></trkpt><trkpt lat="43.2164383" lon="12.1422"><ele>602.0</ele><time>2026-03-29T08:19:46.069Z</time></trkpt><trkpt lat="43.2163517" lon="12.142245"><ele>602.0</ele><time>2026-03-29T08:19:47.07Z</time></trkpt><trkpt lat="43.216275" lon="12.142305"><ele>602.0</ele><time>2026-03-29T08:19:48.07Z</time></trkpt><trkpt lat="43.2162" lon="12.14237"><ele>603.25</ele><time>2026-03-29T08:19:49.07Z</time></trkpt><trkpt lat="43.2161333" lon="12.142445"><ele>604.5</ele><time>2026-03-29T08:19:50.07Z</time></trkpt><trkpt lat="43.21606" lon="12.1425483"><ele>605.75</ele><time>2026-03-29T08:19:51.069Z</time></trkpt><trkpt lat="43.2159583" lon="12.1427067"><ele>607.0</ele><time>2026-03-29T08:19:52.07Z</time></trkpt><trkpt lat="43.215845" lon="12.1428967"><ele>607.0</ele><time>2026-03-29T08:19:53.07Z</time></trkpt><trkpt lat="43.215745" lon="12.1430767"><ele>607.0</ele><time>2026-03-29T08:19:54.069Z</time></trkpt><trkpt lat="43.21565" lon="12.1432417"><ele>607.0</ele><time>2026-03-29T08:19:55.07Z</time></trkpt><trkpt lat="43.2155633" lon="12.1433867"><ele>605.25</ele><time>2026-03-29T08:19:56.07Z</time></trkpt><trkpt lat="43.2154833" lon="12.1435483"><ele>603.5</ele><time>2026-03-29T08:19:57.07Z</time></trkpt><trkpt lat="43.2154117" lon="12.1437"><ele>601.75</ele><time>2026-03-29T08:19:58.07Z</time></trkpt><trkpt lat="43.2153433" lon="12.1438467"><ele>600.0</ele><time>2026-03-29T08:19:59.07Z</time></trkpt><trkpt lat="43.2152683" lon="12.144015"><ele>600.25</ele><time>2026-03-29T08:20:00.07Z</time></trkpt><trkpt lat="43.2152117" lon="12.1441667"><ele>600.5</ele><time>2026-03-29T08:20:01.069Z</time></trkpt><trkpt lat="43.2151567" lon="12.1443183"><ele>600.75</ele><time>2026-03-29T08:20:02.07Z</time></trkpt><trkpt lat="43.2151033" lon="12.14447"><ele>601.0</ele><time>2026-03-29T08:20:03.07Z</time></trkpt><trkpt lat="43.2150433" lon="12.1446367"><ele>601.0</ele><time>2026-03-29T08:20:04.07Z</time></trkpt><trkpt lat="43.21499" lon="12.1447933"><ele>601.0</ele><time>2026-03-29T08:20:05.07Z</time></trkpt><trkpt lat="43.2149433" lon="12.1449233"><ele>601.0</ele><time>2026-03-29T08:20:06.069Z</time></trkpt><trkpt lat="43.2148983" lon="12.1450467"><ele>601.0</ele><time>2026-03-29T08:20:07.07Z</time></trkpt><trkpt lat="43.2148517" lon="12.14515"><ele>601.0</ele><time>2026-03-29T08:20:08.07Z</time></trkpt><trkpt lat="43.2148033" lon="12.1452467"><ele>599.6</ele><time>2026-03-29T08:20:09.069Z</time></trkpt><trkpt lat="43.2147567" lon="12.14534"><ele>598.2</ele><time>2026-03-29T08:20:10.07Z</time></trkpt><trkpt lat="43.21471" lon="12.145425"><ele>596.8</ele><time>2026-03-29T08:20:11.07Z</time></trkpt><trkpt lat="43.2146167" lon="12.1455367"><ele>595.4</ele><time>2026-03-29T08:20:13.07Z</time></trkpt><trkpt lat="43.2145" lon="12.1456267"><ele>594.0</ele><time>2026-03-29T08:20:15.07Z</time></trkpt><trkpt lat="43.2144267" lon="12.1456617"><ele>594.0</ele><time>2026-03-29T08:20:16.07Z</time></trkpt><trkpt lat="43.2143433" lon="12.1456917"><ele>594.0</ele><time>2026-03-29T08:20:17.07Z</time></trkpt><trkpt lat="43.21425" lon="12.1457117"><ele>594.0</ele><time>2026-03-29T08:20:18.07Z</time></trkpt><trkpt lat="43.2141633" lon="12.145735"><ele>594.0</ele><time>2026-03-29T08:20:19.07Z</time></trkpt><trkpt lat="43.2140667" lon="12.1457483"><ele>594.0</ele><time>2026-03-29T08:20:20.069Z</time></trkpt><trkpt lat="43.21397" lon="12.1457633"><ele>595.25</ele><time>2026-03-29T08:20:21.07Z</time></trkpt><trkpt lat="43.2138633" lon="12.14578"><ele>596.5</ele><time>2026-03-29T08:20:22.07Z</time></trkpt><trkpt lat="43.2137517" lon="12.1458183"><ele>597.75</ele><time>2026-03-29T08:20:23.069Z</time></trkpt><trkpt lat="43.2136383" lon="12.1458483"><ele>599.0</ele><time>2026-03-29T08:20:24.07Z</time></trkpt><trkpt lat="43.2135183" lon="12.1458817"><ele>599.0</ele><time>2026-03-29T08:20:25.07Z</time></trkpt><trkpt lat="43.2134017" lon="12.1459083"><ele>599.0</ele><time>2026-03-29T08:20:26.07Z</time></trkpt><trkpt lat="43.2132867" lon="12.1459383"><ele>599.0</ele><time>2026-03-29T08:20:27.07Z</time></trkpt><trkpt lat="43.213175" lon="12.14597"><ele>599.0</ele><time>2026-03-29T08:20:28.07Z</time></trkpt><trkpt lat="43.213075" lon="12.146"><ele>598.5</ele><time>2026-03-29T08:20:29.069Z</time></trkpt><trkpt lat="43.212975" lon="12.1460283"><ele>598.0</ele><time>2026-03-29T08:20:30.07Z</time></trkpt><trkpt lat="43.2128817" lon="12.1460567"><ele>597.5</ele><time>2026-03-29T08:20:31.069Z</time></trkpt><trkpt lat="43.2127933" lon="12.14608"><ele>597.0</ele><time>2026-03-29T08:20:32.069Z</time></trkpt><trkpt lat="43.2127133" lon="12.1461083"><ele>596.5</ele><time>2026-03-29T08:20:33.07Z</time></trkpt><trkpt lat="43.21264" lon="12.1461333"><ele>596.0</ele><time>2026-03-29T08:20:34.07Z</time></trkpt><trkpt lat="43.2125683" lon="12.1461383"><ele>596.0</ele><time>2026-03-29T08:20:35.069Z</time></trkpt><trkpt lat="43.212495" lon="12.1461367"><ele>596.0</ele><time>2026-03-29T08:20:36.07Z</time></trkpt><trkpt lat="43.212415" lon="12.1461483"><ele>596.0</ele><time>2026-03-29T08:20:37.07Z</time></trkpt><trkpt lat="43.2123367" lon="12.1461533"><ele>596.0</ele><time>2026-03-29T08:20:38.07Z</time></trkpt><trkpt lat="43.2122633" lon="12.1461683"><ele>596.0</ele><time>2026-03-29T08:20:39.07Z</time></trkpt><trkpt lat="43.212195" lon="12.1462033"><ele>596.0</ele><time>2026-03-29T08:20:40.069Z</time></trkpt><trkpt lat="43.2121267" lon="12.1462633"><ele>594.6666666666666</ele><time>2026-03-29T08:20:41.069Z</time></trkpt><trkpt lat="43.2120733" lon="12.1463233"><ele>593.3333333333333</ele><time>2026-03-29T08:20:42.07Z</time></trkpt><trkpt lat="43.2120033" lon="12.1463717"><ele>592.0</ele><time>2026-03-29T08:20:43.069Z</time></trkpt><trkpt lat="43.211925" lon="12.14641"><ele>590.6666666666666</ele><time>2026-03-29T08:20:44.07Z</time></trkpt><trkpt lat="43.2118283" lon="12.1464183"><ele>589.3333333333334</ele><time>2026-03-29T08:20:45.07Z</time></trkpt><trkpt lat="43.2117367" lon="12.14641"><ele>588.0</ele><time>2026-03-29T08:20:46.069Z</time></trkpt><trkpt lat="43.21164" lon="12.1464117"><ele>588.0</ele><time>2026-03-29T08:20:47.07Z</time></trkpt><trkpt lat="43.2115517" lon="12.1464167"><ele>588.0</ele><time>2026-03-29T08:20:48.07Z</time></trkpt><trkpt lat="43.211465" lon="12.146435"><ele>588.0</ele><time>2026-03-29T08:20:49.069Z</time></trkpt><trkpt lat="43.2113683" lon="12.146445"><ele>588.0</ele><time>2026-03-29T08:20:50.07Z</time></trkpt><trkpt lat="43.2112633" lon="12.1464633"><ele>588.0</ele><time>2026-03-29T08:20:51.07Z</time></trkpt><trkpt lat="43.2111483" lon="12.1464833"><ele>586.5</ele><time>2026-03-29T08:20:52.07Z</time></trkpt><trkpt lat="43.21104" lon="12.1464967"><ele>585.0</ele><time>2026-03-29T08:20:53.069Z</time></trkpt><trkpt lat="43.210925" lon="12.1464967"><ele>583.5</ele><time>2026-03-29T08:20:54.07Z</time></trkpt><trkpt lat="43.2108033" lon="12.1464817"><ele>582.0</ele><time>2026-03-29T08:20:55.069Z</time></trkpt><trkpt lat="43.210675" lon="12.1464633"><ele>581.0</ele><time>2026-03-29T08:20:56.07Z</time></trkpt><trkpt lat="43.2105467" lon="12.1464467"><ele>580.0</ele><time>2026-03-29T08:20:57.069Z</time></trkpt><trkpt lat="43.2104183" lon="12.14644"><ele>579.0</ele><time>2026-03-29T08:20:58.07Z</time></trkpt><trkpt lat="43.210295" lon="12.1464267"><ele>578.0</ele><time>2026-03-29T08:20:59.07Z</time></trkpt><trkpt lat="43.2101617" lon="12.1464133"><ele>578.0</ele><time>2026-03-29T08:21:00.069Z</time></trkpt><trkpt lat="43.2100283" lon="12.146405"><ele>578.0</ele><time>2026-03-29T08:21:01.07Z</time></trkpt><trkpt lat="43.2099017" lon="12.1463917"><ele>578.0</ele><time>2026-03-29T08:21:02.07Z</time></trkpt><trkpt lat="43.2097733" lon="12.146395"><ele>578.0</ele><time>2026-03-29T08:21:03.07Z</time></trkpt><trkpt lat="43.20964" lon="12.1464"><ele>576.5</ele><time>2026-03-29T08:21:04.07Z</time></trkpt><trkpt lat="43.2095117" lon="12.146415"><ele>575.0</ele><time>2026-03-29T08:21:05.07Z</time></trkpt><trkpt lat="43.20939" lon="12.1464267"><ele>573.5</ele><time>2026-03-29T08:21:06.069Z</time></trkpt><trkpt lat="43.2092667" lon="12.1464617"><ele>572.0</ele><time>2026-03-29T08:21:07.07Z</time></trkpt><trkpt lat="43.209155" lon="12.1464917"><ele>572.0</ele><time>2026-03-29T08:21:08.07Z</time></trkpt><trkpt lat="43.2090367" lon="12.1465267"><ele>572.0</ele><time>2026-03-29T08:21:09.069Z</time></trkpt><trkpt lat="43.2089267" lon="12.14656"><ele>572.0</ele><time>2026-03-29T08:21:10.07Z</time></trkpt><trkpt lat="43.20881" lon="12.1465933"><ele>572.0</ele><time>2026-03-29T08:21:11.07Z</time></trkpt><trkpt lat="43.2086983" lon="12.14664"><ele>569.25</ele><time>2026-03-29T08:21:12.07Z</time></trkpt><trkpt lat="43.20858" lon="12.1466933"><ele>566.5</ele><time>2026-03-29T08:21:13.069Z</time></trkpt><trkpt lat="43.2084633" lon="12.1467367"><ele>563.75</ele><time>2026-03-29T08:21:14.07Z</time></trkpt><trkpt lat="43.2083517" lon="12.1467667"><ele>561.0</ele><time>2026-03-29T08:21:15.07Z</time></trkpt><trkpt lat="43.2082383" lon="12.1467817"><ele>558.3333333333334</ele><time>2026-03-29T08:21:16.07Z</time></trkpt><trkpt lat="43.2081517" lon="12.146785"><ele>555.6666666666666</ele><time>2026-03-29T08:21:17.07Z</time></trkpt><trkpt lat="43.2080783" lon="12.1467683"><ele>553.0</ele><time>2026-03-29T08:21:18.07Z</time></trkpt><trkpt lat="43.2080033" lon="12.1467417"><ele>550.3333333333333</ele><time>2026-03-29T08:21:19.069Z</time></trkpt><trkpt lat="43.20793" lon="12.14671"><ele>547.6666666666666</ele><time>2026-03-29T08:21:20.07Z</time></trkpt><trkpt lat="43.2078483" lon="12.1466767"><ele>545.0</ele><time>2026-03-29T08:21:21.069Z</time></trkpt><trkpt lat="43.20776" lon="12.1466233"><ele>545.0</ele><time>2026-03-29T08:21:22.07Z</time></trkpt><trkpt lat="43.2076633" lon="12.14657"><ele>545.0</ele><time>2026-03-29T08:21:23.07Z</time></trkpt><trkpt lat="43.2075633" lon="12.1465183"><ele>545.0</ele><time>2026-03-29T08:21:24.069Z</time></trkpt><trkpt lat="43.2074567" lon="12.14647"><ele>545.0</ele><time>2026-03-29T08:21:25.07Z</time></trkpt><trkpt lat="43.20736" lon="12.1464133"><ele>545.0</ele><time>2026-03-29T08:21:26.07Z</time></trkpt><trkpt lat="43.2072633" lon="12.1463533"><ele>542.6</ele><time>2026-03-29T08:21:27.07Z</time></trkpt><trkpt lat="43.2071667" lon="12.1462967"><ele>540.2</ele><time>2026-03-29T08:21:28.07Z</time></trkpt><trkpt lat="43.2070733" lon="12.1462383"><ele>537.8</ele><time>2026-03-29T08:21:29.07Z</time></trkpt><trkpt lat="43.2069717" lon="12.146185"><ele>535.4</ele><time>2026-03-29T08:21:30.07Z</time></trkpt><trkpt lat="43.206875" lon="12.1461283"><ele>533.0</ele><time>2026-03-29T08:21:31.07Z</time></trkpt><trkpt lat="43.2067733" lon="12.1460617"><ele>533.0</ele><time>2026-03-29T08:21:32.07Z</time></trkpt><trkpt lat="43.2066733" lon="12.1459833"><ele>533.0</ele><time>2026-03-29T08:21:33.07Z</time></trkpt><trkpt lat="43.2065817" lon="12.1458933"><ele>533.0</ele><time>2026-03-29T08:21:34.07Z</time></trkpt><trkpt lat="43.20649" lon="12.1458183"><ele>533.0</ele><time>2026-03-29T08:21:35.07Z</time></trkpt><trkpt lat="43.2064" lon="12.1457417"><ele>533.0</ele><time>2026-03-29T08:21:36.07Z</time></trkpt><trkpt lat="43.2063083" lon="12.1456817"><ele>529.0</ele><time>2026-03-29T08:21:37.069Z</time></trkpt><trkpt lat="43.2062033" lon="12.1456417"><ele>525.0</ele><time>2026-03-29T08:21:38.069Z</time></trkpt><trkpt lat="43.206095" lon="12.145605"><ele>521.0</ele><time>2026-03-29T08:21:39.069Z</time></trkpt><trkpt lat="43.20599" lon="12.1455833"><ele>517.0</ele><time>2026-03-29T08:21:40.07Z</time></trkpt><trkpt lat="43.2058817" lon="12.145575"><ele>513.0</ele><time>2026-03-29T08:21:41.069Z</time></trkpt><trkpt lat="43.205775" lon="12.1455633"><ele>513.0</ele><time>2026-03-29T08:21:42.069Z</time></trkpt><trkpt lat="43.20567" lon="12.1455517"><ele>513.0</ele><time>2026-03-29T08:21:43.07Z</time></trkpt><trkpt lat="43.205565" lon="12.14555"><ele>513.0</ele><time>2026-03-29T08:21:44.07Z</time></trkpt><trkpt lat="43.2054617" lon="12.1455383"><ele>513.0</ele><time>2026-03-29T08:21:45.07Z</time></trkpt><trkpt lat="43.2053567" lon="12.1455367"><ele>513.0</ele><time>2026-03-29T08:21:46.07Z</time></trkpt><trkpt lat="43.205245" lon="12.1455417"><ele>511.79999999999995</ele><time>2026-03-29T08:21:47.069Z</time></trkpt><trkpt lat="43.20514" lon="12.145555"><ele>510.59999999999997</ele><time>2026-03-29T08:21:48.07Z</time></trkpt><trkpt lat="43.2050267" lon="12.145565"><ele>509.40000000000003</ele><time>2026-03-29T08:21:49.069Z</time></trkpt><trkpt lat="43.2049183" lon="12.1455833"><ele>508.20000000000005</ele><time>2026-03-29T08:21:50.07Z</time></trkpt><trkpt lat="43.20481" lon="12.1456083"><ele>507.0</ele><time>2026-03-29T08:21:51.069Z</time></trkpt><trkpt lat="43.20471" lon="12.1456267"><ele>507.0</ele><time>2026-03-29T08:21:52.069Z</time></trkpt><trkpt lat="43.2046133" lon="12.1456367"><ele>507.0</ele><time>2026-03-29T08:21:53.07Z</time></trkpt><trkpt lat="43.2045217" lon="12.14564"><ele>507.0</ele><time>2026-03-29T08:21:54.069Z</time></trkpt><trkpt lat="43.2044367" lon="12.1456283"><ele>507.0</ele><time>2026-03-29T08:21:55.07Z</time></trkpt><trkpt lat="43.204365" lon="12.1456083"><ele>507.0</ele><time>2026-03-29T08:21:56.07Z</time></trkpt><trkpt lat="43.2042933" lon="12.1455883"><ele>507.0</ele><time>2026-03-29T08:21:57.07Z</time></trkpt><trkpt lat="43.2042283" lon="12.1455867"><ele>507.0</ele><time>2026-03-29T08:21:58.07Z</time></trkpt><trkpt lat="43.2041067" lon="12.1456533"><ele>507.00000000000006</ele><time>2026-03-29T08:22:00.07Z</time></trkpt><trkpt lat="43.2040517" lon="12.145725"><ele>507.00000000000006</ele><time>2026-03-29T08:22:01.07Z</time></trkpt><trkpt lat="43.2039817" lon="12.145815"><ele>507.0</ele><time>2026-03-29T08:22:02.069Z</time></trkpt><trkpt lat="43.2039033" lon="12.1459217"><ele>507.0</ele><time>2026-03-29T08:22:03.07Z</time></trkpt><trkpt lat="43.2038333" lon="12.1460467"><ele>511.25</ele><time>2026-03-29T08:22:04.07Z</time></trkpt><trkpt lat="43.20377" lon="12.1461917"><ele>515.5</ele><time>2026-03-29T08:22:05.07Z</time></trkpt><trkpt lat="43.2037167" lon="12.146355"><ele>519.75</ele><time>2026-03-29T08:22:06.07Z</time></trkpt><trkpt lat="43.203665" lon="12.1465167"><ele>524.0</ele><time>2026-03-29T08:22:07.07Z</time></trkpt><trkpt lat="43.2036117" lon="12.146685"><ele>524.2</ele><time>2026-03-29T08:22:08.07Z</time></trkpt><trkpt lat="43.2035633" lon="12.1468233"><ele>524.4</ele><time>2026-03-29T08:22:09.07Z</time></trkpt><trkpt lat="43.203505" lon="12.1469333"><ele>524.6</ele><time>2026-03-29T08:22:10.07Z</time></trkpt><trkpt lat="43.2034317" lon="12.1470167"><ele>524.8</ele><time>2026-03-29T08:22:11.069Z</time></trkpt><trkpt lat="43.20334" lon="12.14707"><ele>525.0</ele><time>2026-03-29T08:22:12.07Z</time></trkpt><trkpt lat="43.2032283" lon="12.1471267"><ele>524.75</ele><time>2026-03-29T08:22:13.069Z</time></trkpt><trkpt lat="43.2031133" lon="12.1471833"><ele>524.5</ele><time>2026-03-29T08:22:14.069Z</time></trkpt><trkpt lat="43.203" lon="12.1472433"><ele>524.25</ele><time>2026-03-29T08:22:15.069Z</time></trkpt><trkpt lat="43.2029117" lon="12.147325"><ele>524.0</ele><time>2026-03-29T08:22:16.07Z</time></trkpt><trkpt lat="43.2028233" lon="12.1474117"><ele>524.75</ele><time>2026-03-29T08:22:17.07Z</time></trkpt><trkpt lat="43.2027383" lon="12.1475383"><ele>525.5</ele><time>2026-03-29T08:22:18.07Z</time></trkpt><trkpt lat="43.2026417" lon="12.1476767"><ele>526.25</ele><time>2026-03-29T08:22:19.07Z</time></trkpt><trkpt lat="43.2025417" lon="12.1478267"><ele>527.0</ele><time>2026-03-29T08:22:20.07Z</time></trkpt><trkpt lat="43.202465" lon="12.14798"><ele>527.0</ele><time>2026-03-29T08:22:21.069Z</time></trkpt><trkpt lat="43.2024033" lon="12.1480983"><ele>527.0</ele><time>2026-03-29T08:22:22.07Z</time></trkpt><trkpt lat="43.2023467" lon="12.1481933"><ele>527.0</ele><time>2026-03-29T08:22:23.07Z</time></trkpt><trkpt lat="43.2022883" lon="12.1482883"><ele>527.0</ele><time>2026-03-29T08:22:24.069Z</time></trkpt><trkpt lat="43.202235" lon="12.14838"><ele>527.0</ele><time>2026-03-29T08:22:25.069Z</time></trkpt><trkpt lat="43.202185" lon="12.1484667"><ele>527.5</ele><time>2026-03-29T08:22:26.07Z</time></trkpt><trkpt lat="43.2021367" lon="12.1485467"><ele>528.0</ele><time>2026-03-29T08:22:27.07Z</time></trkpt><trkpt lat="43.202085" lon="12.1486217"><ele>528.5</ele><time>2026-03-29T08:22:28.07Z</time></trkpt><trkpt lat="43.2020317" lon="12.1487"><ele>529.0</ele><time>2026-03-29T08:22:29.07Z</time></trkpt><trkpt lat="43.2019733" lon="12.1487783"><ele>529.5</ele><time>2026-03-29T08:22:30.069Z</time></trkpt><trkpt lat="43.2019067" lon="12.1488783"><ele>530.0</ele><time>2026-03-29T08:22:31.069Z</time></trkpt><trkpt lat="43.2018333" lon="12.1489783"><ele>532.4</ele><time>2026-03-29T08:22:32.07Z</time></trkpt><trkpt lat="43.2017717" lon="12.1490667"><ele>534.8</ele><time>2026-03-29T08:22:33.07Z</time></trkpt><trkpt lat="43.20172" lon="12.1491583"><ele>537.2</ele><time>2026-03-29T08:22:34.07Z</time></trkpt><trkpt lat="43.2016717" lon="12.1492767"><ele>539.6</ele><time>2026-03-29T08:22:35.069Z</time></trkpt><trkpt lat="43.2016283" lon="12.1493917"><ele>542.0</ele><time>2026-03-29T08:22:36.069Z</time></trkpt><trkpt lat="43.2015967" lon="12.14953"><ele>542.0</ele><time>2026-03-29T08:22:37.069Z</time></trkpt><trkpt lat="43.20157" lon="12.149685"><ele>542.0</ele><time>2026-03-29T08:22:38.069Z</time></trkpt><trkpt lat="43.2015467" lon="12.1498517"><ele>542.0</ele><time>2026-03-29T08:22:39.07Z</time></trkpt><trkpt lat="43.2015283" lon="12.1500367"><ele>542.0</ele><time>2026-03-29T08:22:40.07Z</time></trkpt><trkpt lat="43.2015083" lon="12.1502317"><ele>539.75</ele><time>2026-03-29T08:22:41.07Z</time></trkpt><trkpt lat="43.2014867" lon="12.1504333"><ele>537.5</ele><time>2026-03-29T08:22:42.07Z</time></trkpt><trkpt lat="43.201455" lon="12.1506133"><ele>535.25</ele><time>2026-03-29T08:22:43.07Z</time></trkpt><trkpt lat="43.20141" lon="12.1507967"><ele>533.0</ele><time>2026-03-29T08:22:44.07Z</time></trkpt><trkpt lat="43.2013733" lon="12.1509683"><ele>533.0</ele><time>2026-03-29T08:22:45.069Z</time></trkpt><trkpt lat="43.2013283" lon="12.1511233"><ele>533.0</ele><time>2026-03-29T08:22:46.07Z</time></trkpt><trkpt lat="43.2012767" lon="12.1512733"><ele>533.0</ele><time>2026-03-29T08:22:47.07Z</time></trkpt><trkpt lat="43.2012133" lon="12.1514217"><ele>533.0</ele><time>2026-03-29T08:22:48.07Z</time></trkpt><trkpt lat="43.20115" lon="12.1515617"><ele>536.75</ele><time>2026-03-29T08:22:49.069Z</time></trkpt><trkpt lat="43.2010717" lon="12.151715"><ele>540.5</ele><time>2026-03-29T08:22:50.07Z</time></trkpt><trkpt lat="43.2010017" lon="12.15185"><ele>544.25</ele><time>2026-03-29T08:22:51.07Z</time></trkpt><trkpt lat="43.2009383" lon="12.1519867"><ele>548.0</ele><time>2026-03-29T08:22:52.07Z</time></trkpt><trkpt lat="43.2008833" lon="12.1521167"><ele>548.0</ele><time>2026-03-29T08:22:53.07Z</time></trkpt><trkpt lat="43.2008433" lon="12.1522317"><ele>548.0</ele><time>2026-03-29T08:22:54.07Z</time></trkpt><trkpt lat="43.2008233" lon="12.1523317"><ele>548.0</ele><time>2026-03-29T08:22:55.07Z</time></trkpt><trkpt lat="43.2008183" lon="12.1524433"><ele>548.0</ele><time>2026-03-29T08:22:56.07Z</time></trkpt><trkpt lat="43.200825" lon="12.1525617"><ele>548.0</ele><time>2026-03-29T08:22:57.07Z</time></trkpt><trkpt lat="43.200845" lon="12.1526917"><ele>548.0</ele><time>2026-03-29T08:22:58.07Z</time></trkpt><trkpt lat="43.2008883" lon="12.15283"><ele>551.25</ele><time>2026-03-29T08:22:59.07Z</time></trkpt><trkpt lat="43.2009433" lon="12.15299"><ele>554.5</ele><time>2026-03-29T08:23:00.069Z</time></trkpt><trkpt lat="43.2009933" lon="12.153135"><ele>557.75</ele><time>2026-03-29T08:23:01.07Z</time></trkpt><trkpt lat="43.2010267" lon="12.153275"><ele>561.0</ele><time>2026-03-29T08:23:02.069Z</time></trkpt><trkpt lat="43.2010417" lon="12.1534333"><ele>562.5</ele><time>2026-03-29T08:23:03.069Z</time></trkpt><trkpt lat="43.20105" lon="12.1535983"><ele>564.0</ele><time>2026-03-29T08:23:04.07Z</time></trkpt><trkpt lat="43.2010517" lon="12.1537617"><ele>565.5</ele><time>2026-03-29T08:23:05.07Z</time></trkpt><trkpt lat="43.2010533" lon="12.1539217"><ele>567.0</ele><time>2026-03-29T08:23:06.07Z</time></trkpt><trkpt lat="43.2010617" lon="12.1540717"><ele>567.0</ele><time>2026-03-29T08:23:07.07Z</time></trkpt><trkpt lat="43.201075" lon="12.154225"><ele>567.0</ele><time>2026-03-29T08:23:08.07Z</time></trkpt><trkpt lat="43.2010917" lon="12.15436"><ele>567.0</ele><time>2026-03-29T08:23:09.069Z</time></trkpt><trkpt lat="43.201115" lon="12.1544733"><ele>567.0</ele><time>2026-03-29T08:23:10.07Z</time></trkpt><trkpt lat="43.20114" lon="12.1545583"><ele>567.0</ele><time>2026-03-29T08:23:11.07Z</time></trkpt><trkpt lat="43.2011783" lon="12.1546317"><ele>567.0</ele><time>2026-03-29T08:23:12.07Z</time></trkpt><trkpt lat="43.20122" lon="12.1546983"><ele>567.0</ele><time>2026-03-29T08:23:13.069Z</time></trkpt><trkpt lat="43.20128" lon="12.1547567"><ele>567.0</ele><time>2026-03-29T08:23:14.07Z</time></trkpt><trkpt lat="43.201355" lon="12.1548267"><ele>567.0</ele><time>2026-03-29T08:23:15.07Z</time></trkpt><trkpt lat="43.20143" lon="12.1548983"><ele>567.0</ele><time>2026-03-29T08:23:16.069Z</time></trkpt><trkpt lat="43.2015017" lon="12.1549717"><ele>567.0</ele><time>2026-03-29T08:23:17.07Z</time></trkpt><trkpt lat="43.201565" lon="12.15507"><ele>567.0</ele><time>2026-03-29T08:23:18.07Z</time></trkpt><trkpt lat="43.201625" lon="12.15519"><ele>566.2</ele><time>2026-03-29T08:23:19.07Z</time></trkpt><trkpt lat="43.2016833" lon="12.1553217"><ele>565.4000000000001</ele><time>2026-03-29T08:23:20.07Z</time></trkpt><trkpt lat="43.2017383" lon="12.15546"><ele>564.5999999999999</ele><time>2026-03-29T08:23:21.069Z</time></trkpt><trkpt lat="43.2017917" lon="12.1555883"><ele>563.8</ele><time>2026-03-29T08:23:22.07Z</time></trkpt><trkpt lat="43.2018317" lon="12.1557033"><ele>563.0</ele><time>2026-03-29T08:23:23.069Z</time></trkpt><trkpt lat="43.2018683" lon="12.1557983"><ele>563.0</ele><time>2026-03-29T08:23:24.069Z</time></trkpt><trkpt lat="43.2019083" lon="12.1558717"><ele>563.0</ele><time>2026-03-29T08:23:25.07Z</time></trkpt><trkpt lat="43.2019633" lon="12.15594"><ele>563.0</ele><time>2026-03-29T08:23:26.07Z</time></trkpt><trkpt lat="43.2020283" lon="12.1560033"><ele>563.0</ele><time>2026-03-29T08:23:27.07Z</time></trkpt><trkpt lat="43.2020983" lon="12.1560583"><ele>563.0</ele><time>2026-03-29T08:23:28.07Z</time></trkpt><trkpt lat="43.2021717" lon="12.15612"><ele>563.0</ele><time>2026-03-29T08:23:29.07Z</time></trkpt><trkpt lat="43.202245" lon="12.1561717"><ele>563.0</ele><time>2026-03-29T08:23:30.07Z</time></trkpt><trkpt lat="43.202325" lon="12.1562233"><ele>563.0</ele><time>2026-03-29T08:23:31.07Z</time></trkpt><trkpt lat="43.202395" lon="12.1562683"><ele>563.0</ele><time>2026-03-29T08:23:32.07Z</time></trkpt><trkpt lat="43.2024667" lon="12.15632"><ele>563.0</ele><time>2026-03-29T08:23:33.07Z</time></trkpt><trkpt lat="43.2025233" lon="12.1563617"><ele>563.0</ele><time>2026-03-29T08:23:34.069Z</time></trkpt><trkpt lat="43.20263" lon="12.15644"><ele>563.0</ele><time>2026-03-29T08:23:36.07Z</time></trkpt><trkpt lat="43.2026683" lon="12.1565633"><ele>561.0</ele><time>2026-03-29T08:23:38.069Z</time></trkpt><trkpt lat="43.2026517" lon="12.1566983"><ele>559.0</ele><time>2026-03-29T08:23:40.069Z</time></trkpt><trkpt lat="43.2025567" lon="12.156815"><ele>557.0</ele><time>2026-03-29T08:23:42.07Z</time></trkpt><trkpt lat="43.2024917" lon="12.1568533"><ele>555.0</ele><time>2026-03-29T08:23:43.07Z</time></trkpt><trkpt lat="43.2024217" lon="12.1568917"><ele>553.0</ele><time>2026-03-29T08:23:44.07Z</time></trkpt><trkpt lat="43.202365" lon="12.1569333"><ele>551.0</ele><time>2026-03-29T08:23:45.07Z</time></trkpt><trkpt lat="43.2023133" lon="12.156995"><ele>551.0</ele><time>2026-03-29T08:23:46.07Z</time></trkpt><trkpt lat="43.2022767" lon="12.1570683"><ele>551.0</ele><time>2026-03-29T08:23:47.07Z</time></trkpt><trkpt lat="43.2022517" lon="12.157235"><ele>551.0</ele><time>2026-03-29T08:23:49.07Z</time></trkpt><trkpt lat="43.2022583" lon="12.15733"><ele>551.0</ele><time>2026-03-29T08:23:50.069Z</time></trkpt><trkpt lat="43.20228" lon="12.1574283"><ele>551.0</ele><time>2026-03-29T08:23:51.07Z</time></trkpt><trkpt lat="43.20232" lon="12.1575383"><ele>551.0</ele><time>2026-03-29T08:23:52.07Z</time></trkpt><trkpt lat="43.2023683" lon="12.15767"><ele>549.0</ele><time>2026-03-29T08:23:53.07Z</time></trkpt><trkpt lat="43.2024283" lon="12.157805"><ele>547.0</ele><time>2026-03-29T08:23:54.07Z</time></trkpt><trkpt lat="43.2024783" lon="12.1579333"><ele>545.0</ele><time>2026-03-29T08:23:55.07Z</time></trkpt><trkpt lat="43.20253" lon="12.1580633"><ele>543.0</ele><time>2026-03-29T08:23:56.07Z</time></trkpt><trkpt lat="43.2025817" lon="12.1581833"><ele>541.0</ele><time>2026-03-29T08:23:57.07Z</time></trkpt><trkpt lat="43.20264" lon="12.1583117"><ele>540.0</ele><time>2026-03-29T08:23:58.07Z</time></trkpt><trkpt lat="43.202705" lon="12.1584467"><ele>539.0</ele><time>2026-03-29T08:23:59.069Z</time></trkpt><trkpt lat="43.20277" lon="12.1585467"><ele>538.0</ele><time>2026-03-29T08:24:00.07Z</time></trkpt><trkpt lat="43.202795" lon="12.15868"><ele>537.0</ele><time>2026-03-29T08:24:01.07Z</time></trkpt><trkpt lat="43.2028133" lon="12.158815"><ele>536.0</ele><time>2026-03-29T08:24:02.07Z</time></trkpt><trkpt lat="43.2028183" lon="12.1589333"><ele>534.25</ele><time>2026-03-29T08:24:03.07Z</time></trkpt><trkpt lat="43.202805" lon="12.1590867"><ele>532.5</ele><time>2026-03-29T08:24:04.07Z</time></trkpt><trkpt lat="43.20278" lon="12.15927"><ele>530.75</ele><time>2026-03-29T08:24:05.07Z</time></trkpt><trkpt lat="43.2027433" lon="12.15946"><ele>529.0</ele><time>2026-03-29T08:24:06.07Z</time></trkpt><trkpt lat="43.2026967" lon="12.159645"><ele>529.0</ele><time>2026-03-29T08:24:07.07Z</time></trkpt><trkpt lat="43.2026433" lon="12.1598233"><ele>529.0</ele><time>2026-03-29T08:24:08.069Z</time></trkpt><trkpt lat="43.202585" lon="12.16001"><ele>529.0</ele><time>2026-03-29T08:24:09.069Z</time></trkpt><trkpt lat="43.20253" lon="12.16018"><ele>529.0</ele><time>2026-03-29T08:24:10.07Z</time></trkpt><trkpt lat="43.2024617" lon="12.1603383"><ele>528.6666666666667</ele><time>2026-03-29T08:24:11.07Z</time></trkpt><trkpt lat="43.2023633" lon="12.1605067"><ele>528.3333333333334</ele><time>2026-03-29T08:24:12.07Z</time></trkpt><trkpt lat="43.2022585" lon="12.1606769"><ele>528.0</ele><time>2026-03-29T08:24:13.07Z</time></trkpt><trkpt lat="43.2021435" lon="12.1608385"><ele>529.0</ele><time>2026-03-29T08:24:14.07Z</time></trkpt><trkpt lat="43.2020161" lon="12.1609771"><ele>530.0</ele><time>2026-03-29T08:24:15.07Z</time></trkpt><trkpt lat="43.2018738" lon="12.1611087"><ele>531.0</ele><time>2026-03-29T08:24:16.07Z</time></trkpt><trkpt lat="43.2017281" lon="12.1612358"><ele>531.0</ele><time>2026-03-29T08:24:17.07Z</time></trkpt><trkpt lat="43.2015955" lon="12.1613653"><ele>531.0</ele><time>2026-03-29T08:24:18.07Z</time></trkpt><trkpt lat="43.2014674" lon="12.1614885"><ele>531.0</ele><time>2026-03-29T08:24:19.07Z</time></trkpt><trkpt lat="43.2013533" lon="12.1616141"><ele>531.3333333333334</ele><time>2026-03-29T08:24:20.07Z</time></trkpt><trkpt lat="43.2012398" lon="12.161753"><ele>531.6666666666667</ele><time>2026-03-29T08:24:21.07Z</time></trkpt><trkpt lat="43.2011189" lon="12.161915"><ele>532.0</ele><time>2026-03-29T08:24:22.07Z</time></trkpt><trkpt lat="43.20099" lon="12.1620872"><ele>532.0</ele><time>2026-03-29T08:24:23.07Z</time></trkpt><trkpt lat="43.2008546" lon="12.1622662"><ele>532.0</ele><time>2026-03-29T08:24:24.07Z</time></trkpt><trkpt lat="43.2007102" lon="12.1624454"><ele>532.0</ele><time>2026-03-29T08:24:25.07Z</time></trkpt><trkpt lat="43.2005845" lon="12.1626202"><ele>532.0</ele><time>2026-03-29T08:24:26.07Z</time></trkpt><trkpt lat="43.2004725" lon="12.1627634"><ele>532.0</ele><time>2026-03-29T08:24:27.07Z</time></trkpt><trkpt lat="43.2003811" lon="12.1628689"><ele>532.0</ele><time>2026-03-29T08:24:28.07Z</time></trkpt><trkpt lat="43.2003162" lon="12.1629668"><ele>532.0</ele><time>2026-03-29T08:24:29.069Z</time></trkpt><trkpt lat="43.2002727" lon="12.1630657"><ele>532.0</ele><time>2026-03-29T08:24:30.069Z</time></trkpt><trkpt lat="43.2002391" lon="12.1631714"><ele>532.0</ele><time>2026-03-29T08:24:31.069Z</time></trkpt><trkpt lat="43.2002173" lon="12.1632911"><ele>532.0</ele><time>2026-03-29T08:24:32.07Z</time></trkpt><trkpt lat="43.2002103" lon="12.1634098"><ele>532.0</ele><time>2026-03-29T08:24:33.069Z</time></trkpt><trkpt lat="43.2002194" lon="12.1635268"><ele>532.0</ele><time>2026-03-29T08:24:34.07Z</time></trkpt><trkpt lat="43.2002338" lon="12.1636537"><ele>532.0</ele><time>2026-03-29T08:24:35.07Z</time></trkpt><trkpt lat="43.2002499" lon="12.1637902"><ele>535.25</ele><time>2026-03-29T08:24:36.07Z</time></trkpt><trkpt lat="43.200274" lon="12.1639431"><ele>538.5</ele><time>2026-03-29T08:24:37.07Z</time></trkpt><trkpt lat="43.200306" lon="12.1641127"><ele>541.75</ele><time>2026-03-29T08:24:38.07Z</time></trkpt><trkpt lat="43.2003449" lon="12.1643002"><ele>545.0</ele><time>2026-03-29T08:24:39.069Z</time></trkpt><trkpt lat="43.200393" lon="12.1644883"><ele>545.5</ele><time>2026-03-29T08:24:40.07Z</time></trkpt><trkpt lat="43.2004409" lon="12.1646643"><ele>546.0</ele><time>2026-03-29T08:24:41.069Z</time></trkpt><trkpt lat="43.2004742" lon="12.1648359"><ele>546.5</ele><time>2026-03-29T08:24:42.07Z</time></trkpt><trkpt lat="43.2004961" lon="12.1650083"><ele>547.0</ele><time>2026-03-29T08:24:43.069Z</time></trkpt><trkpt lat="43.2005" lon="12.1651778"><ele>548.5</ele><time>2026-03-29T08:24:44.069Z</time></trkpt><trkpt lat="43.2004772" lon="12.1653406"><ele>550.0</ele><time>2026-03-29T08:24:45.07Z</time></trkpt><trkpt lat="43.2004343" lon="12.1655006"><ele>551.5</ele><time>2026-03-29T08:24:46.07Z</time></trkpt><trkpt lat="43.2003779" lon="12.1656679"><ele>553.0</ele><time>2026-03-29T08:24:47.07Z</time></trkpt><trkpt lat="43.2003161" lon="12.1658411"><ele>554.4</ele><time>2026-03-29T08:24:48.07Z</time></trkpt><trkpt lat="43.2002624" lon="12.1660094"><ele>555.8</ele><time>2026-03-29T08:24:49.07Z</time></trkpt><trkpt lat="43.2002269" lon="12.1661629"><ele>557.2</ele><time>2026-03-29T08:24:50.07Z</time></trkpt><trkpt lat="43.2002192" lon="12.1663025"><ele>558.6</ele><time>2026-03-29T08:24:51.069Z</time></trkpt><trkpt lat="43.2002348" lon="12.1664268"><ele>560.0</ele><time>2026-03-29T08:24:52.07Z</time></trkpt><trkpt lat="43.2002508" lon="12.1665458"><ele>561.4</ele><time>2026-03-29T08:24:53.069Z</time></trkpt><trkpt lat="43.2002726" lon="12.1666637"><ele>562.8</ele><time>2026-03-29T08:24:54.07Z</time></trkpt><trkpt lat="43.2003013" lon="12.1667711"><ele>564.2</ele><time>2026-03-29T08:24:55.07Z</time></trkpt><trkpt lat="43.2003338" lon="12.1668804"><ele>565.6</ele><time>2026-03-29T08:24:56.069Z</time></trkpt><trkpt lat="43.200364" lon="12.1670071"><ele>567.0</ele><time>2026-03-29T08:24:57.07Z</time></trkpt><trkpt lat="43.2003918" lon="12.1671501"><ele>567.0</ele><time>2026-03-29T08:24:58.07Z</time></trkpt><trkpt lat="43.2004237" lon="12.1673094"><ele>567.0</ele><time>2026-03-29T08:24:59.07Z</time></trkpt><trkpt lat="43.2004613" lon="12.1674819"><ele>567.0</ele><time>2026-03-29T08:25:00.069Z</time></trkpt><trkpt lat="43.200504" lon="12.1676501"><ele>567.0</ele><time>2026-03-29T08:25:01.07Z</time></trkpt><trkpt lat="43.2005436" lon="12.1678041"><ele>566.5</ele><time>2026-03-29T08:25:02.07Z</time></trkpt><trkpt lat="43.2005879" lon="12.1679415"><ele>566.0</ele><time>2026-03-29T08:25:03.069Z</time></trkpt><trkpt lat="43.2006478" lon="12.1680856"><ele>565.5</ele><time>2026-03-29T08:25:04.07Z</time></trkpt><trkpt lat="43.2007279" lon="12.1682499"><ele>565.0</ele><time>2026-03-29T08:25:05.07Z</time></trkpt><trkpt lat="43.2008081" lon="12.1684165"><ele>565.0</ele><time>2026-03-29T08:25:06.069Z</time></trkpt><trkpt lat="43.2008794" lon="12.1685741"><ele>565.0</ele><time>2026-03-29T08:25:07.07Z</time></trkpt><trkpt lat="43.2009407" lon="12.1687337"><ele>565.0</ele><time>2026-03-29T08:25:08.069Z</time></trkpt><trkpt lat="43.2009963" lon="12.1688962"><ele>565.0</ele><time>2026-03-29T08:25:09.069Z</time></trkpt><trkpt lat="43.2010467" lon="12.1690449"><ele>565.8</ele><time>2026-03-29T08:25:10.07Z</time></trkpt><trkpt lat="43.2010857" lon="12.1691833"><ele>566.6</ele><time>2026-03-29T08:25:11.07Z</time></trkpt><trkpt lat="43.2011103" lon="12.1693215"><ele>567.4</ele><time>2026-03-29T08:25:12.07Z</time></trkpt><trkpt lat="43.2011218" lon="12.1694651"><ele>568.2</ele><time>2026-03-29T08:25:13.07Z</time></trkpt><trkpt lat="43.2011133" lon="12.1696172"><ele>569.0</ele><time>2026-03-29T08:25:14.07Z</time></trkpt><trkpt lat="43.2010861" lon="12.1697691"><ele>569.6666666666666</ele><time>2026-03-29T08:25:15.07Z</time></trkpt><trkpt lat="43.2010545" lon="12.1699046"><ele>570.3333333333333</ele><time>2026-03-29T08:25:16.07Z</time></trkpt><trkpt lat="43.2010343" lon="12.1700262"><ele>571.0</ele><time>2026-03-29T08:25:17.07Z</time></trkpt><trkpt lat="43.2010282" lon="12.1701372"><ele>571.6666666666666</ele><time>2026-03-29T08:25:18.07Z</time></trkpt><trkpt lat="43.2010387" lon="12.1702418"><ele>572.3333333333334</ele><time>2026-03-29T08:25:19.07Z</time></trkpt><trkpt lat="43.2010654" lon="12.1703381"><ele>573.0</ele><time>2026-03-29T08:25:20.07Z</time></trkpt><trkpt lat="43.2011246" lon="12.1704313"><ele>573.0</ele><time>2026-03-29T08:25:21.07Z</time></trkpt><trkpt lat="43.2012324" lon="12.1705517"><ele>573.0</ele><time>2026-03-29T08:25:22.07Z</time></trkpt><trkpt lat="43.2013728" lon="12.1707045"><ele>573.0</ele><time>2026-03-29T08:25:23.07Z</time></trkpt><trkpt lat="43.201552" lon="12.1708799"><ele>570.3333333333334</ele><time>2026-03-29T08:25:24.07Z</time></trkpt><trkpt lat="43.2017111" lon="12.1710411"><ele>567.6666666666667</ele><time>2026-03-29T08:25:25.07Z</time></trkpt><trkpt lat="43.2018854" lon="12.1711845"><ele>565.0</ele><time>2026-03-29T08:25:26.07Z</time></trkpt><trkpt lat="43.2020541" lon="12.1713273"><ele>565.0</ele><time>2026-03-29T08:25:27.07Z</time></trkpt><trkpt lat="43.2022061" lon="12.1714587"><ele>565.0</ele><time>2026-03-29T08:25:28.07Z</time></trkpt><trkpt lat="43.2023395" lon="12.171586"><ele>565.0</ele><time>2026-03-29T08:25:29.07Z</time></trkpt><trkpt lat="43.2024518" lon="12.1717066"><ele>565.6</ele><time>2026-03-29T08:25:30.07Z</time></trkpt><trkpt lat="43.2025401" lon="12.1718145"><ele>566.2</ele><time>2026-03-29T08:25:31.07Z</time></trkpt><trkpt lat="43.2026053" lon="12.171921"><ele>566.8</ele><time>2026-03-29T08:25:32.07Z</time></trkpt><trkpt lat="43.2026473" lon="12.1720519"><ele>567.4</ele><time>2026-03-29T08:25:33.07Z</time></trkpt><trkpt lat="43.2026858" lon="12.1721834"><ele>568.0</ele><time>2026-03-29T08:25:34.069Z</time></trkpt><trkpt lat="43.2027233" lon="12.1723061"><ele>569.0</ele><time>2026-03-29T08:25:35.069Z</time></trkpt><trkpt lat="43.2027553" lon="12.1724051"><ele>570.0</ele><time>2026-03-29T08:25:36.07Z</time></trkpt><trkpt lat="43.2027695" lon="12.1724981"><ele>571.0</ele><time>2026-03-29T08:25:37.069Z</time></trkpt><trkpt lat="43.2027516" lon="12.1725833"><ele>572.0</ele><time>2026-03-29T08:25:38.07Z</time></trkpt><trkpt lat="43.2026949" lon="12.1726556"><ele>573.0</ele><time>2026-03-29T08:25:39.069Z</time></trkpt><trkpt lat="43.2025685" lon="12.1727034"><ele>574.0</ele><time>2026-03-29T08:25:40.07Z</time></trkpt><trkpt lat="43.2024135" lon="12.1727457"><ele>576.6666666666667</ele><time>2026-03-29T08:25:41.07Z</time></trkpt><trkpt lat="43.2022345" lon="12.1728013"><ele>579.3333333333334</ele><time>2026-03-29T08:25:42.07Z</time></trkpt><trkpt lat="43.2020258" lon="12.1728679"><ele>582.0</ele><time>2026-03-29T08:25:43.071Z</time></trkpt><trkpt lat="43.2018064" lon="12.172942"><ele>582.0</ele><time>2026-03-29T08:25:44.071Z</time></trkpt><trkpt lat="43.2016005" lon="12.1730285"><ele>582.0</ele><time>2026-03-29T08:25:45.071Z</time></trkpt><trkpt lat="43.2014152" lon="12.1731082"><ele>582.0</ele><time>2026-03-29T08:25:46.071Z</time></trkpt><trkpt lat="43.2012474" lon="12.1731784"><ele>580.3333333333334</ele><time>2026-03-29T08:25:47.071Z</time></trkpt><trkpt lat="43.2010828" lon="12.1732498"><ele>578.6666666666667</ele><time>2026-03-29T08:25:48.07Z</time></trkpt><trkpt lat="43.2009365" lon="12.1733196"><ele>577.0</ele><time>2026-03-29T08:25:49.071Z</time></trkpt><trkpt lat="43.2008044" lon="12.1734077"><ele>577.0</ele><time>2026-03-29T08:25:50.071Z</time></trkpt><trkpt lat="43.2006804" lon="12.1734721"><ele>577.0</ele><time>2026-03-29T08:25:51.071Z</time></trkpt><trkpt lat="43.2005759" lon="12.1735421"><ele>577.0</ele><time>2026-03-29T08:25:52.07Z</time></trkpt><trkpt lat="43.200499" lon="12.173629"><ele>577.0</ele><time>2026-03-29T08:25:53.071Z</time></trkpt><trkpt lat="43.2004319" lon="12.173732"><ele>577.0</ele><time>2026-03-29T08:25:54.071Z</time></trkpt><trkpt lat="43.2003675" lon="12.1738713"><ele>577.5</ele><time>2026-03-29T08:25:55.071Z</time></trkpt><trkpt lat="43.2003039" lon="12.1740168"><ele>578.0</ele><time>2026-03-29T08:25:56.071Z</time></trkpt><trkpt lat="43.200229" lon="12.1741549"><ele>578.5</ele><time>2026-03-29T08:25:57.071Z</time></trkpt><trkpt lat="43.2001381" lon="12.1742765"><ele>579.0</ele><time>2026-03-29T08:25:58.07Z</time></trkpt><trkpt lat="43.2000503" lon="12.1743898"><ele>576.6</ele><time>2026-03-29T08:25:59.071Z</time></trkpt><trkpt lat="43.1999561" lon="12.1744981"><ele>574.2</ele><time>2026-03-29T08:26:00.071Z</time></trkpt><trkpt lat="43.1998726" lon="12.1745946"><ele>571.8000000000001</ele><time>2026-03-29T08:26:01.07Z</time></trkpt><trkpt lat="43.1997968" lon="12.1746853"><ele>569.4</ele><time>2026-03-29T08:26:02.071Z</time></trkpt><trkpt lat="43.1997297" lon="12.1747696"><ele>567.0</ele><time>2026-03-29T08:26:03.071Z</time></trkpt><trkpt lat="43.1996718" lon="12.1748514"><ele>564.6666666666666</ele><time>2026-03-29T08:26:04.07Z</time></trkpt><trkpt lat="43.1996148" lon="12.1749292"><ele>562.3333333333334</ele><time>2026-03-29T08:26:05.071Z</time></trkpt><trkpt lat="43.1995542" lon="12.1749995"><ele>560.0</ele><time>2026-03-29T08:26:06.071Z</time></trkpt><trkpt lat="43.1994924" lon="12.1750647"><ele>557.6666666666667</ele><time>2026-03-29T08:26:07.071Z</time></trkpt><trkpt lat="43.1994299" lon="12.1751275"><ele>555.3333333333334</ele><time>2026-03-29T08:26:08.071Z</time></trkpt><trkpt lat="43.1993784" lon="12.175194"><ele>553.0</ele><time>2026-03-29T08:26:09.071Z</time></trkpt><trkpt lat="43.1993309" lon="12.1752684"><ele>553.0</ele><time>2026-03-29T08:26:10.07Z</time></trkpt><trkpt lat="43.1992919" lon="12.1753416"><ele>553.0</ele><time>2026-03-29T08:26:11.07Z</time></trkpt><trkpt lat="43.1992632" lon="12.1754211"><ele>553.0</ele><time>2026-03-29T08:26:12.07Z</time></trkpt><trkpt lat="43.1992461" lon="12.1755045"><ele>553.0</ele><time>2026-03-29T08:26:13.071Z</time></trkpt><trkpt lat="43.1992385" lon="12.1756804"><ele>553.0</ele><time>2026-03-29T08:26:15.07Z</time></trkpt><trkpt lat="43.1992383" lon="12.1757803"><ele>553.0</ele><time>2026-03-29T08:26:16.07Z</time></trkpt><trkpt lat="43.1992375" lon="12.1758867"><ele>551.0</ele><time>2026-03-29T08:26:17.071Z</time></trkpt><trkpt lat="43.199241" lon="12.1759972"><ele>549.0</ele><time>2026-03-29T08:26:18.07Z</time></trkpt><trkpt lat="43.1992438" lon="12.1761189"><ele>547.0</ele><time>2026-03-29T08:26:19.071Z</time></trkpt><trkpt lat="43.1992365" lon="12.1762432"><ele>545.0</ele><time>2026-03-29T08:26:20.071Z</time></trkpt><trkpt lat="43.1992281" lon="12.1763731"><ele>543.0</ele><time>2026-03-29T08:26:21.071Z</time></trkpt><trkpt lat="43.19921" lon="12.1765076"><ele>541.8</ele><time>2026-03-29T08:26:22.07Z</time></trkpt><trkpt lat="43.1991854" lon="12.1766391"><ele>540.5999999999999</ele><time>2026-03-29T08:26:23.071Z</time></trkpt><trkpt lat="43.1991564" lon="12.1767697"><ele>539.4000000000001</ele><time>2026-03-29T08:26:24.071Z</time></trkpt><trkpt lat="43.199119" lon="12.1768982"><ele>538.2</ele><time>2026-03-29T08:26:25.071Z</time></trkpt><trkpt lat="43.1990808" lon="12.1770315"><ele>537.0</ele><time>2026-03-29T08:26:26.071Z</time></trkpt><trkpt lat="43.199035" lon="12.1771809"><ele>533.5</ele><time>2026-03-29T08:26:27.071Z</time></trkpt><trkpt lat="43.1989853" lon="12.1773294"><ele>530.0</ele><time>2026-03-29T08:26:28.07Z</time></trkpt><trkpt lat="43.1989413" lon="12.1774729"><ele>526.5</ele><time>2026-03-29T08:26:29.071Z</time></trkpt><trkpt lat="43.1989007" lon="12.1776199"><ele>523.0</ele><time>2026-03-29T08:26:30.071Z</time></trkpt><trkpt lat="43.1988648" lon="12.1777667"><ele>523.0</ele><time>2026-03-29T08:26:31.071Z</time></trkpt><trkpt lat="43.1988334" lon="12.1779112"><ele>523.0</ele><time>2026-03-29T08:26:32.071Z</time></trkpt><trkpt lat="43.198796" lon="12.1780601"><ele>523.0</ele><time>2026-03-29T08:26:33.071Z</time></trkpt><trkpt lat="43.1987532" lon="12.1782182"><ele>523.0</ele><time>2026-03-29T08:26:34.07Z</time></trkpt><trkpt lat="43.1986926" lon="12.1783873"><ele>522.75</ele><time>2026-03-29T08:26:35.071Z</time></trkpt><trkpt lat="43.1986335" lon="12.1785539"><ele>522.5</ele><time>2026-03-29T08:26:36.07Z</time></trkpt><trkpt lat="43.1985727" lon="12.1787224"><ele>522.25</ele><time>2026-03-29T08:26:37.071Z</time></trkpt><trkpt lat="43.1985143" lon="12.1788916"><ele>522.0</ele><time>2026-03-29T08:26:38.071Z</time></trkpt><trkpt lat="43.1984549" lon="12.1790593"><ele>521.5</ele><time>2026-03-29T08:26:39.07Z</time></trkpt><trkpt lat="43.1983899" lon="12.1792258"><ele>521.0</ele><time>2026-03-29T08:26:40.07Z</time></trkpt><trkpt lat="43.1983197" lon="12.179393"><ele>520.5</ele><time>2026-03-29T08:26:41.071Z</time></trkpt><trkpt lat="43.1982492" lon="12.1795297"><ele>520.0</ele><time>2026-03-29T08:26:42.07Z</time></trkpt><trkpt lat="43.1981739" lon="12.1796464"><ele>518.6</ele><time>2026-03-29T08:26:43.071Z</time></trkpt><trkpt lat="43.1980873" lon="12.1797461"><ele>517.2</ele><time>2026-03-29T08:26:44.071Z</time></trkpt><trkpt lat="43.1979988" lon="12.1798314"><ele>515.8</ele><time>2026-03-29T08:26:45.071Z</time></trkpt><trkpt lat="43.1979097" lon="12.1799151"><ele>514.4</ele><time>2026-03-29T08:26:46.07Z</time></trkpt><trkpt lat="43.1978248" lon="12.1800022"><ele>513.0</ele><time>2026-03-29T08:26:47.07Z</time></trkpt><trkpt lat="43.1977443" lon="12.1800847"><ele>513.0</ele><time>2026-03-29T08:26:48.071Z</time></trkpt><trkpt lat="43.1976714" lon="12.1801606"><ele>513.0</ele><time>2026-03-29T08:26:49.071Z</time></trkpt><trkpt lat="43.1976161" lon="12.1802443"><ele>513.0</ele><time>2026-03-29T08:26:50.071Z</time></trkpt><trkpt lat="43.1975821" lon="12.1803333"><ele>513.0</ele><time>2026-03-29T08:26:51.071Z</time></trkpt><trkpt lat="43.1975649" lon="12.1804326"><ele>513.0</ele><time>2026-03-29T08:26:52.07Z</time></trkpt><trkpt lat="43.1975671" lon="12.1805459"><ele>513.0</ele><time>2026-03-29T08:26:53.071Z</time></trkpt><trkpt lat="43.1975887" lon="12.1806818"><ele>512.25</ele><time>2026-03-29T08:26:54.071Z</time></trkpt><trkpt lat="43.1976309" lon="12.1808267"><ele>511.5</ele><time>2026-03-29T08:26:55.07Z</time></trkpt><trkpt lat="43.1976974" lon="12.1809644"><ele>510.75</ele><time>2026-03-29T08:26:56.071Z</time></trkpt><trkpt lat="43.1977674" lon="12.1811016"><ele>510.0</ele><time>2026-03-29T08:26:57.071Z</time></trkpt><trkpt lat="43.1978278" lon="12.1812404"><ele>510.0</ele><time>2026-03-29T08:26:58.071Z</time></trkpt><trkpt lat="43.1978674" lon="12.1813847"><ele>510.0</ele><time>2026-03-29T08:26:59.071Z</time></trkpt><trkpt lat="43.1978824" lon="12.181541"><ele>510.0</ele><time>2026-03-29T08:27:00.07Z</time></trkpt><trkpt lat="43.1978786" lon="12.1817197"><ele>510.0</ele><time>2026-03-29T08:27:01.071Z</time></trkpt><trkpt lat="43.1978436" lon="12.181921"><ele>509.0</ele><time>2026-03-29T08:27:02.071Z</time></trkpt><trkpt lat="43.1977824" lon="12.182151"><ele>508.0</ele><time>2026-03-29T08:27:03.071Z</time></trkpt><trkpt lat="43.1977045" lon="12.182362"><ele>507.0</ele><time>2026-03-29T08:27:04.071Z</time></trkpt><trkpt lat="43.1976149" lon="12.1825806"><ele>507.0</ele><time>2026-03-29T08:27:05.071Z</time></trkpt><trkpt lat="43.1975199" lon="12.1828112"><ele>507.0</ele><time>2026-03-29T08:27:06.071Z</time></trkpt><trkpt lat="43.1974323" lon="12.1830049"><ele>507.0</ele><time>2026-03-29T08:27:07.071Z</time></trkpt><trkpt lat="43.1973502" lon="12.1831652"><ele>508.40000000000003</ele><time>2026-03-29T08:27:08.071Z</time></trkpt><trkpt lat="43.197267" lon="12.1832808"><ele>509.80000000000007</ele><time>2026-03-29T08:27:09.071Z</time></trkpt><trkpt lat="43.1971799" lon="12.1833629"><ele>511.2</ele><time>2026-03-29T08:27:10.071Z</time></trkpt><trkpt lat="43.1970898" lon="12.1834004"><ele>512.6</ele><time>2026-03-29T08:27:11.07Z</time></trkpt><trkpt lat="43.1969968" lon="12.183399"><ele>514.0</ele><time>2026-03-29T08:27:12.071Z</time></trkpt><trkpt lat="43.1968868" lon="12.1833749"><ele>514.0</ele><time>2026-03-29T08:27:13.07Z</time></trkpt><trkpt lat="43.1967726" lon="12.1833538"><ele>514.0</ele><time>2026-03-29T08:27:14.071Z</time></trkpt><trkpt lat="43.1966742" lon="12.1833616"><ele>514.0</ele><time>2026-03-29T08:27:15.07Z</time></trkpt><trkpt lat="43.1965925" lon="12.1833908"><ele>514.0</ele><time>2026-03-29T08:27:16.071Z</time></trkpt><trkpt lat="43.196519" lon="12.1834432"><ele>514.0</ele><time>2026-03-29T08:27:17.07Z</time></trkpt><trkpt lat="43.1964457" lon="12.1835286"><ele>514.75</ele><time>2026-03-29T08:27:18.071Z</time></trkpt><trkpt lat="43.1963598" lon="12.18365"><ele>515.5</ele><time>2026-03-29T08:27:19.071Z</time></trkpt><trkpt lat="43.1962525" lon="12.1837913"><ele>516.25</ele><time>2026-03-29T08:27:20.071Z</time></trkpt><trkpt lat="43.1961452" lon="12.1839164"><ele>517.0</ele><time>2026-03-29T08:27:21.07Z</time></trkpt><trkpt lat="43.196058" lon="12.1840233"><ele>518.2</ele><time>2026-03-29T08:27:22.07Z</time></trkpt><trkpt lat="43.1960086" lon="12.1841319"><ele>519.4000000000001</ele><time>2026-03-29T08:27:23.071Z</time></trkpt><trkpt lat="43.1959772" lon="12.1842569"><ele>520.5999999999999</ele><time>2026-03-29T08:27:24.071Z</time></trkpt><trkpt lat="43.1959665" lon="12.1844093"><ele>521.8</ele><time>2026-03-29T08:27:25.071Z</time></trkpt><trkpt lat="43.1959723" lon="12.1845808"><ele>523.0</ele><time>2026-03-29T08:27:26.071Z</time></trkpt><trkpt lat="43.1959923" lon="12.1847774"><ele>524.3333333333334</ele><time>2026-03-29T08:27:27.07Z</time></trkpt><trkpt lat="43.1960231" lon="12.1849927"><ele>525.6666666666666</ele><time>2026-03-29T08:27:28.071Z</time></trkpt><trkpt lat="43.1960554" lon="12.1852327"><ele>527.0</ele><time>2026-03-29T08:27:29.071Z</time></trkpt><trkpt lat="43.1960938" lon="12.1854875"><ele>529.3333333333333</ele><time>2026-03-29T08:27:30.071Z</time></trkpt><trkpt lat="43.19614" lon="12.185746"><ele>531.6666666666666</ele><time>2026-03-29T08:27:31.071Z</time></trkpt><trkpt lat="43.1961834" lon="12.18598"><ele>534.0</ele><time>2026-03-29T08:27:32.071Z</time></trkpt><trkpt lat="43.1962221" lon="12.1861844"><ele>534.0</ele><time>2026-03-29T08:27:33.071Z</time></trkpt><trkpt lat="43.1962522" lon="12.1863661"><ele>534.0</ele><time>2026-03-29T08:27:34.071Z</time></trkpt><trkpt lat="43.1962729" lon="12.1865223"><ele>534.0</ele><time>2026-03-29T08:27:35.071Z</time></trkpt><trkpt lat="43.1962755" lon="12.1866575"><ele>534.0</ele><time>2026-03-29T08:27:36.07Z</time></trkpt><trkpt lat="43.1962564" lon="12.1867919"><ele>535.8</ele><time>2026-03-29T08:27:37.071Z</time></trkpt><trkpt lat="43.1962176" lon="12.1869237"><ele>537.5999999999999</ele><time>2026-03-29T08:27:38.071Z</time></trkpt><trkpt lat="43.1961624" lon="12.1870435"><ele>539.4</ele><time>2026-03-29T08:27:39.07Z</time></trkpt><trkpt lat="43.1960921" lon="12.1871634"><ele>541.1999999999999</ele><time>2026-03-29T08:27:40.071Z</time></trkpt><trkpt lat="43.1960048" lon="12.187294"><ele>543.0</ele><time>2026-03-29T08:27:41.071Z</time></trkpt><trkpt lat="43.1959111" lon="12.187441"><ele>544.5</ele><time>2026-03-29T08:27:42.071Z</time></trkpt><trkpt lat="43.1958132" lon="12.1875975"><ele>546.0</ele><time>2026-03-29T08:27:43.071Z</time></trkpt><trkpt lat="43.195721" lon="12.1877503"><ele>547.5</ele><time>2026-03-29T08:27:44.071Z</time></trkpt><trkpt lat="43.19564" lon="12.1878801"><ele>549.0</ele><time>2026-03-29T08:27:45.071Z</time></trkpt><trkpt lat="43.1955674" lon="12.1879892"><ele>549.0</ele><time>2026-03-29T08:27:46.07Z</time></trkpt><trkpt lat="43.1955013" lon="12.1880993"><ele>549.0</ele><time>2026-03-29T08:27:47.07Z</time></trkpt><trkpt lat="43.1954417" lon="12.1882329"><ele>549.0</ele><time>2026-03-29T08:27:48.071Z</time></trkpt><trkpt lat="43.1953923" lon="12.188396"><ele>549.0</ele><time>2026-03-29T08:27:49.071Z</time></trkpt><trkpt lat="43.1953387" lon="12.1885614"><ele>550.25</ele><time>2026-03-29T08:27:50.071Z</time></trkpt><trkpt lat="43.1952753" lon="12.1887185"><ele>551.5</ele><time>2026-03-29T08:27:51.071Z</time></trkpt><trkpt lat="43.1951976" lon="12.1888743"><ele>552.75</ele><time>2026-03-29T08:27:52.071Z</time></trkpt><trkpt lat="43.1950844" lon="12.1890373"><ele>554.0</ele><time>2026-03-29T08:27:53.071Z</time></trkpt><trkpt lat="43.1949532" lon="12.189188"><ele>553.25</ele><time>2026-03-29T08:27:54.071Z</time></trkpt><trkpt lat="43.1948255" lon="12.1893263"><ele>552.5</ele><time>2026-03-29T08:27:55.071Z</time></trkpt><trkpt lat="43.1947152" lon="12.1894536"><ele>551.75</ele><time>2026-03-29T08:27:56.071Z</time></trkpt><trkpt lat="43.1946281" lon="12.1895771"><ele>551.0</ele><time>2026-03-29T08:27:57.071Z</time></trkpt><trkpt lat="43.19456" lon="12.1897007"><ele>551.0</ele><time>2026-03-29T08:27:58.071Z</time></trkpt><trkpt lat="43.1945141" lon="12.1898228"><ele>551.0</ele><time>2026-03-29T08:27:59.071Z</time></trkpt><trkpt lat="43.1944796" lon="12.1899549"><ele>551.0</ele><time>2026-03-29T08:28:00.07Z</time></trkpt><trkpt lat="43.1944516" lon="12.1901033"><ele>551.0</ele><time>2026-03-29T08:28:01.071Z</time></trkpt><trkpt lat="43.1944154" lon="12.1902594"><ele>551.0</ele><time>2026-03-29T08:28:02.071Z</time></trkpt><trkpt lat="43.1943718" lon="12.1904085"><ele>551.0</ele><time>2026-03-29T08:28:03.07Z</time></trkpt><trkpt lat="43.1943167" lon="12.1905463"><ele>551.0</ele><time>2026-03-29T08:28:04.071Z</time></trkpt><trkpt lat="43.1942439" lon="12.1906566"><ele>551.0</ele><time>2026-03-29T08:28:05.07Z</time></trkpt><trkpt lat="43.1941597" lon="12.190742"><ele>551.0</ele><time>2026-03-29T08:28:06.071Z</time></trkpt><trkpt lat="43.194059" lon="12.1908101"><ele>551.0</ele><time>2026-03-29T08:28:07.07Z</time></trkpt><trkpt lat="43.1939332" lon="12.1908754"><ele>550.0</ele><time>2026-03-29T08:28:08.071Z</time></trkpt><trkpt lat="43.1937866" lon="12.1909378"><ele>549.0</ele><time>2026-03-29T08:28:09.071Z</time></trkpt><trkpt lat="43.1936035" lon="12.191009"><ele>548.0</ele><time>2026-03-29T08:28:10.071Z</time></trkpt><trkpt lat="43.1934249" lon="12.1910953"><ele>548.0</ele><time>2026-03-29T08:28:11.071Z</time></trkpt><trkpt lat="43.1932648" lon="12.1911694"><ele>548.0</ele><time>2026-03-29T08:28:12.071Z</time></trkpt><trkpt lat="43.1931201" lon="12.1912393"><ele>548.0</ele><time>2026-03-29T08:28:13.07Z</time></trkpt><trkpt lat="43.1929958" lon="12.1912902"><ele>548.0</ele><time>2026-03-29T08:28:14.07Z</time></trkpt><trkpt lat="43.1928924" lon="12.1913309"><ele>548.0</ele><time>2026-03-29T08:28:15.071Z</time></trkpt><trkpt lat="43.1928106" lon="12.1913596"><ele>548.0</ele><time>2026-03-29T08:28:16.071Z</time></trkpt><trkpt lat="43.1927369" lon="12.1913857"><ele>548.0</ele><time>2026-03-29T08:28:17.071Z</time></trkpt><trkpt lat="43.1926665" lon="12.1914235"><ele>548.0</ele><time>2026-03-29T08:28:18.07Z</time></trkpt><trkpt lat="43.1926094" lon="12.1914711"><ele>548.0</ele><time>2026-03-29T08:28:19.071Z</time></trkpt><trkpt lat="43.1925538" lon="12.1915256"><ele>549.0</ele><time>2026-03-29T08:28:20.071Z</time></trkpt><trkpt lat="43.192505" lon="12.1915853"><ele>550.0</ele><time>2026-03-29T08:28:21.07Z</time></trkpt><trkpt lat="43.1952753" lon="12.1887185"><ele>551.3333333333334</ele><time>2026-03-29T08:27:51.071Z</time></trkpt><trkpt lat="43.1951976" lon="12.1888743"><ele>552.6666666666666</ele><time>2026-03-29T08:27:52.071Z</time></trkpt><trkpt lat="43.1950844" lon="12.1890373"><ele>554.0</ele><time>2026-03-29T08:27:53.071Z</time></trkpt><trkpt lat="43.1949532" lon="12.189188"><ele>553.25</ele><time>2026-03-29T08:27:54.071Z</time></trkpt><trkpt lat="43.1948255" lon="12.1893263"><ele>552.5</ele><time>2026-03-29T08:27:55.071Z</time></trkpt><trkpt lat="43.1947152" lon="12.1894536"><ele>551.75</ele><time>2026-03-29T08:27:56.071Z</time></trkpt><trkpt lat="43.1946281" lon="12.1895771"><ele>551.0</ele><time>2026-03-29T08:27:57.071Z</time></trkpt><trkpt lat="43.19456" lon="12.1897007"><ele>551.0</ele><time>2026-03-29T08:27:58.071Z</time></trkpt><trkpt lat="43.1945141" lon="12.1898228"><ele>551.0</ele><time>2026-03-29T08:27:59.071Z</time></trkpt><trkpt lat="43.1944796" lon="12.1899549"><ele>551.0</ele><time>2026-03-29T08:28:00.07Z</time></trkpt><trkpt lat="43.1944516" lon="12.1901033"><ele>551.0</ele><time>2026-03-29T08:28:01.071Z</time></trkpt><trkpt lat="43.1944154" lon="12.1902594"><ele>551.0</ele><time>2026-03-29T08:28:02.071Z</time></trkpt><trkpt lat="43.1943718" lon="12.1904085"><ele>551.0</ele><time>2026-03-29T08:28:03.07Z</time></trkpt><trkpt lat="43.1943167" lon="12.1905463"><ele>551.0</ele><time>2026-03-29T08:28:04.071Z</time></trkpt><trkpt lat="43.1942439" lon="12.1906566"><ele>551.0</ele><time>2026-03-29T08:28:05.07Z</time></trkpt><trkpt lat="43.1941597" lon="12.190742"><ele>551.0</ele><time>2026-03-29T08:28:06.071Z</time></trkpt><trkpt lat="43.194059" lon="12.1908101"><ele>551.0</ele><time>2026-03-29T08:28:07.07Z</time></trkpt><trkpt lat="43.1939332" lon="12.1908754"><ele>550.0</ele><time>2026-03-29T08:28:08.071Z</time></trkpt><trkpt lat="43.1937866" lon="12.1909378"><ele>549.0</ele><time>2026-03-29T08:28:09.071Z</time></trkpt><trkpt lat="43.1936035" lon="12.191009"><ele>548.0</ele><time>2026-03-29T08:28:10.071Z</time></trkpt><trkpt lat="43.1934249" lon="12.1910953"><ele>548.0</ele><time>2026-03-29T08:28:11.071Z</time></trkpt><trkpt lat="43.1932648" lon="12.1911694"><ele>548.0</ele><time>2026-03-29T08:28:12.071Z</time></trkpt><trkpt lat="43.1931201" lon="12.1912393"><ele>548.0</ele><time>2026-03-29T08:28:13.07Z</time></trkpt><trkpt lat="43.1929958" lon="12.1912902"><ele>548.0</ele><time>2026-03-29T08:28:14.07Z</time></trkpt><trkpt lat="43.1928924" lon="12.1913309"><ele>548.0</ele><time>2026-03-29T08:28:15.071Z</time></trkpt><trkpt lat="43.1928106" lon="12.1913596"><ele>548.0</ele><time>2026-03-29T08:28:16.071Z</time></trkpt><trkpt lat="43.1927369" lon="12.1913857"><ele>548.0</ele><time>2026-03-29T08:28:17.071Z</time></trkpt><trkpt lat="43.1926665" lon="12.1914235"><ele>548.0</ele><time>2026-03-29T08:28:18.07Z</time></trkpt><trkpt lat="43.1926094" lon="12.1914711"><ele>548.0</ele><time>2026-03-29T08:28:19.071Z</time></trkpt><trkpt lat="43.1925538" lon="12.1915256"><ele>547.8571428571429</ele><time>2026-03-29T08:28:20.071Z</time></trkpt><trkpt lat="43.192505" lon="12.1915853"><ele>547.7142857142858</ele><time>2026-03-29T08:28:21.07Z</time></trkpt><trkpt lat="43.1924526" lon="12.1916501"><ele>547.5714285714286</ele><time>2026-03-29T08:28:22.071Z</time></trkpt><trkpt lat="43.192398" lon="12.1917139"><ele>547.4285714285714</ele><time>2026-03-29T08:28:23.07Z</time></trkpt><trkpt lat="43.1923437" lon="12.191781"><ele>547.2857142857142</ele><time>2026-03-29T08:28:24.07Z</time></trkpt><trkpt lat="43.1922832" lon="12.1918512"><ele>547.1428571428571</ele><time>2026-03-29T08:28:25.071Z</time></trkpt><trkpt lat="43.1922154" lon="12.1919212"><ele>547.0</ele><time>2026-03-29T08:28:26.071Z</time></trkpt><trkpt lat="43.1921458" lon="12.1919882"><ele>547.0</ele><time>2026-03-29T08:28:27.071Z</time></trkpt><trkpt lat="43.1920772" lon="12.1920599"><ele>547.0</ele><time>2026-03-29T08:28:28.071Z</time></trkpt><trkpt lat="43.19201" lon="12.192141"><ele>547.0</ele><time>2026-03-29T08:28:29.071Z</time></trkpt><trkpt lat="43.1919433" lon="12.1922258"><ele>547.0</ele><time>2026-03-29T08:28:30.07Z</time></trkpt><trkpt lat="43.1918804" lon="12.1923225"><ele>547.0</ele><time>2026-03-29T08:28:31.071Z</time></trkpt><trkpt lat="43.1918342" lon="12.1924265"><ele>545.8000000000001</ele><time>2026-03-29T08:28:32.071Z</time></trkpt><trkpt lat="43.1918018" lon="12.1925345"><ele>544.6</ele><time>2026-03-29T08:28:33.071Z</time></trkpt><trkpt lat="43.1917784" lon="12.1926554"><ele>543.4000000000001</ele><time>2026-03-29T08:28:34.07Z</time></trkpt><trkpt lat="43.1917638" lon="12.192786"><ele>542.2</ele><time>2026-03-29T08:28:35.071Z</time></trkpt><trkpt lat="43.1917624" lon="12.192924"><ele>541.0</ele><time>2026-03-29T08:28:36.071Z</time></trkpt><trkpt lat="43.1917849" lon="12.1930566"><ele>542.75</ele><time>2026-03-29T08:28:37.07Z</time></trkpt><trkpt lat="43.1918309" lon="12.193186"><ele>544.5</ele><time>2026-03-29T08:28:38.071Z</time></trkpt><trkpt lat="43.1918891" lon="12.1933183"><ele>546.25</ele><time>2026-03-29T08:28:39.071Z</time></trkpt><trkpt lat="43.1919598" lon="12.1934541"><ele>548.0</ele><time>2026-03-29T08:28:40.07Z</time></trkpt><trkpt lat="43.1920523" lon="12.1935839"><ele>548.0</ele><time>2026-03-29T08:28:41.071Z</time></trkpt><trkpt lat="43.1921602" lon="12.1937175"><ele>548.0</ele><time>2026-03-29T08:28:42.071Z</time></trkpt><trkpt lat="43.1922624" lon="12.1938556"><ele>548.0</ele><time>2026-03-29T08:28:43.071Z</time></trkpt><trkpt lat="43.1923466" lon="12.1940105"><ele>548.0</ele><time>2026-03-29T08:28:44.07Z</time></trkpt><trkpt lat="43.1924196" lon="12.1941857"><ele>549.5</ele><time>2026-03-29T08:28:45.071Z</time></trkpt><trkpt lat="43.1924836" lon="12.1943746"><ele>551.0</ele><time>2026-03-29T08:28:46.071Z</time></trkpt><trkpt lat="43.192541" lon="12.194544"><ele>552.5</ele><time>2026-03-29T08:28:47.07Z</time></trkpt><trkpt lat="43.1925915" lon="12.1946836"><ele>554.0</ele><time>2026-03-29T08:28:48.071Z</time></trkpt><trkpt lat="43.1926434" lon="12.194797"><ele>556.25</ele><time>2026-03-29T08:28:49.071Z</time></trkpt><trkpt lat="43.1927175" lon="12.1949119"><ele>558.5</ele><time>2026-03-29T08:28:50.071Z</time></trkpt><trkpt lat="43.192814" lon="12.1950148"><ele>560.75</ele><time>2026-03-29T08:28:51.071Z</time></trkpt><trkpt lat="43.1929069" lon="12.1951264"><ele>563.0</ele><time>2026-03-29T08:28:52.071Z</time></trkpt><trkpt lat="43.1929959" lon="12.195249"><ele>563.0</ele><time>2026-03-29T08:28:53.071Z</time></trkpt><trkpt lat="43.1930664" lon="12.1953935"><ele>563.0</ele><time>2026-03-29T08:28:54.071Z</time></trkpt><trkpt lat="43.1931281" lon="12.1955762"><ele>563.0</ele><time>2026-03-29T08:28:55.071Z</time></trkpt><trkpt lat="43.1931925" lon="12.195778"><ele>563.0</ele><time>2026-03-29T08:28:56.071Z</time></trkpt><trkpt lat="43.1932614" lon="12.1959679"><ele>562.0</ele><time>2026-03-29T08:28:57.071Z</time></trkpt><trkpt lat="43.1933381" lon="12.1961209"><ele>561.0</ele><time>2026-03-29T08:28:58.071Z</time></trkpt><trkpt lat="43.1934218" lon="12.1962578"><ele>560.0</ele><time>2026-03-29T08:28:59.07Z</time></trkpt><trkpt lat="43.1935054" lon="12.19639"><ele>559.0</ele><time>2026-03-29T08:29:00.07Z</time></trkpt><trkpt lat="43.1935873" lon="12.1965213"><ele>559.0</ele><time>2026-03-29T08:29:01.071Z</time></trkpt><trkpt lat="43.1936555" lon="12.1966635"><ele>559.0</ele><time>2026-03-29T08:29:02.071Z</time></trkpt><trkpt lat="43.1937002" lon="12.1968171"><ele>559.0</ele><time>2026-03-29T08:29:03.07Z</time></trkpt><trkpt lat="43.19373" lon="12.1969858"><ele>559.0</ele><time>2026-03-29T08:29:04.071Z</time></trkpt><trkpt lat="43.1937264" lon="12.1971569"><ele>559.0</ele><time>2026-03-29T08:29:05.071Z</time></trkpt><trkpt lat="43.1937012" lon="12.1973207"><ele>559.0</ele><time>2026-03-29T08:29:06.071Z</time></trkpt><trkpt lat="43.1936448" lon="12.197465"><ele>559.0</ele><time>2026-03-29T08:29:07.071Z</time></trkpt><trkpt lat="43.193577" lon="12.1975843"><ele>559.0</ele><time>2026-03-29T08:29:08.071Z</time></trkpt><trkpt lat="43.1935185" lon="12.1977009"><ele>557.0</ele><time>2026-03-29T08:29:09.071Z</time></trkpt><trkpt lat="43.1934911" lon="12.1978274"><ele>555.0</ele><time>2026-03-29T08:29:10.071Z</time></trkpt><trkpt lat="43.1934994" lon="12.1979688"><ele>553.0</ele><time>2026-03-29T08:29:11.07Z</time></trkpt><trkpt lat="43.1935469" lon="12.1981272"><ele>551.0</ele><time>2026-03-29T08:29:12.071Z</time></trkpt><trkpt lat="43.1936222" lon="12.1983229"><ele>547.3333333333333</ele><time>2026-03-29T08:29:13.071Z</time></trkpt><trkpt lat="43.1937023" lon="12.1985501"><ele>543.6666666666666</ele><time>2026-03-29T08:29:14.071Z</time></trkpt><trkpt lat="43.1937709" lon="12.1987747"><ele>540.0</ele><time>2026-03-29T08:29:15.071Z</time></trkpt><trkpt lat="43.1938353" lon="12.1989647"><ele>540.5</ele><time>2026-03-29T08:29:16.071Z</time></trkpt><trkpt lat="43.1939067" lon="12.1991267"><ele>541.0</ele><time>2026-03-29T08:29:17.071Z</time></trkpt><trkpt lat="43.1939867" lon="12.1993017"><ele>541.5</ele><time>2026-03-29T08:29:18.071Z</time></trkpt><trkpt lat="43.1940783" lon="12.1994767"><ele>542.0</ele><time>2026-03-29T08:29:19.07Z</time></trkpt><trkpt lat="43.1941667" lon="12.1996367"><ele>542.0</ele><time>2026-03-29T08:29:20.071Z</time></trkpt><trkpt lat="43.19424" lon="12.199775"><ele>542.0</ele><time>2026-03-29T08:29:21.07Z</time></trkpt><trkpt lat="43.1943017" lon="12.1999217"><ele>542.0</ele><time>2026-03-29T08:29:22.07Z</time></trkpt><trkpt lat="43.194345" lon="12.2000633"><ele>542.0</ele><time>2026-03-29T08:29:23.071Z</time></trkpt><trkpt lat="43.1943617" lon="12.2002217"><ele>539.5</ele><time>2026-03-29T08:29:24.07Z</time></trkpt><trkpt lat="43.19434" lon="12.2003717"><ele>537.0</ele><time>2026-03-29T08:29:25.071Z</time></trkpt><trkpt lat="43.1942933" lon="12.2005317"><ele>534.5</ele><time>2026-03-29T08:29:26.071Z</time></trkpt><trkpt lat="43.194215" lon="12.2007117"><ele>532.0</ele><time>2026-03-29T08:29:27.071Z</time></trkpt><trkpt lat="43.19412" lon="12.20092"><ele>528.3333333333334</ele><time>2026-03-29T08:29:28.071Z</time></trkpt><trkpt lat="43.19405" lon="12.2011283"><ele>524.6666666666666</ele><time>2026-03-29T08:29:29.071Z</time></trkpt><trkpt lat="43.193995" lon="12.2013267"><ele>521.0</ele><time>2026-03-29T08:29:30.07Z</time></trkpt><trkpt lat="43.1939533" lon="12.2015117"><ele>517.25</ele><time>2026-03-29T08:29:31.07Z</time></trkpt><trkpt lat="43.1939133" lon="12.20169"><ele>513.5</ele><time>2026-03-29T08:29:32.07Z</time></trkpt><trkpt lat="43.19387" lon="12.201875"><ele>509.75</ele><time>2026-03-29T08:29:33.071Z</time></trkpt><trkpt lat="43.1938217" lon="12.2020483"><ele>506.0</ele><time>2026-03-29T08:29:34.071Z</time></trkpt><trkpt lat="43.193785" lon="12.2022"><ele>506.20000000000005</ele><time>2026-03-29T08:29:35.071Z</time></trkpt><trkpt lat="43.1937567" lon="12.2023517"><ele>506.40000000000003</ele><time>2026-03-29T08:29:36.071Z</time></trkpt><trkpt lat="43.1937383" lon="12.2024767"><ele>506.6</ele><time>2026-03-29T08:29:37.071Z</time></trkpt><trkpt lat="43.1937033" lon="12.2026083"><ele>506.8</ele><time>2026-03-29T08:29:38.071Z</time></trkpt><trkpt lat="43.1936667" lon="12.2027183"><ele>507.0</ele><time>2026-03-29T08:29:39.071Z</time></trkpt><trkpt lat="43.1936333" lon="12.2028183"><ele>507.0</ele><time>2026-03-29T08:29:40.071Z</time></trkpt><trkpt lat="43.19361" lon="12.2029117"><ele>507.0</ele><time>2026-03-29T08:29:41.071Z</time></trkpt><trkpt lat="43.1936067" lon="12.2030117"><ele>507.0</ele><time>2026-03-29T08:29:42.071Z</time></trkpt><trkpt lat="43.1936083" lon="12.2031017"><ele>507.0</ele><time>2026-03-29T08:29:43.07Z</time></trkpt><trkpt lat="43.1935783" lon="12.203235"><ele>507.0</ele><time>2026-03-29T08:29:45.07Z</time></trkpt><trkpt lat="43.1934867" lon="12.203265"><ele>507.0</ele><time>2026-03-29T08:29:47.07Z</time></trkpt><trkpt lat="43.1934217" lon="12.2032433"><ele>507.0</ele><time>2026-03-29T08:29:48.07Z</time></trkpt><trkpt lat="43.193355" lon="12.20322"><ele>507.0</ele><time>2026-03-29T08:29:49.071Z</time></trkpt><trkpt lat="43.193295" lon="12.2031917"><ele>507.0</ele><time>2026-03-29T08:29:50.071Z</time></trkpt><trkpt lat="43.1931833" lon="12.2031517"><ele>507.0</ele><time>2026-03-29T08:29:52.071Z</time></trkpt><trkpt lat="43.1930767" lon="12.20309"><ele>507.0</ele><time>2026-03-29T08:29:54.071Z</time></trkpt><trkpt lat="43.1930183" lon="12.203035"><ele>507.0</ele><time>2026-03-29T08:29:55.07Z</time></trkpt><trkpt lat="43.1929617" lon="12.20294"><ele>503.0</ele><time>2026-03-29T08:29:56.071Z</time></trkpt><trkpt lat="43.1929133" lon="12.2028167"><ele>499.0</ele><time>2026-03-29T08:29:57.071Z</time></trkpt><trkpt lat="43.1928783" lon="12.20266"><ele>495.0</ele><time>2026-03-29T08:29:58.07Z</time></trkpt><trkpt lat="43.1928417" lon="12.2025017"><ele>491.0</ele><time>2026-03-29T08:29:59.071Z</time></trkpt><trkpt lat="43.1928117" lon="12.2023317"><ele>490.25</ele><time>2026-03-29T08:30:00.07Z</time></trkpt><trkpt lat="43.1927783" lon="12.2021683"><ele>489.5</ele><time>2026-03-29T08:30:01.071Z</time></trkpt><trkpt lat="43.1927433" lon="12.2020033"><ele>488.75</ele><time>2026-03-29T08:30:02.071Z</time></trkpt><trkpt lat="43.1927" lon="12.20184"><ele>488.0</ele><time>2026-03-29T08:30:03.071Z</time></trkpt><trkpt lat="43.192655" lon="12.201685"><ele>488.0</ele><time>2026-03-29T08:30:04.071Z</time></trkpt><trkpt lat="43.1926067" lon="12.2015317"><ele>488.0</ele><time>2026-03-29T08:30:05.071Z</time></trkpt><trkpt lat="43.1925583" lon="12.201375"><ele>488.0</ele><time>2026-03-29T08:30:06.07Z</time></trkpt><trkpt lat="43.19251" lon="12.201215"><ele>488.0</ele><time>2026-03-29T08:30:07.071Z</time></trkpt><trkpt lat="43.1924517" lon="12.2010633"><ele>488.5</ele><time>2026-03-29T08:30:08.07Z</time></trkpt><trkpt lat="43.19239" lon="12.2009017"><ele>489.0</ele><time>2026-03-29T08:30:09.071Z</time></trkpt><trkpt lat="43.1923183" lon="12.2007417"><ele>489.5</ele><time>2026-03-29T08:30:10.07Z</time></trkpt><trkpt lat="43.19224" lon="12.200585"><ele>490.0</ele><time>2026-03-29T08:30:11.071Z</time></trkpt><trkpt lat="43.19215" lon="12.20043"><ele>488.33333333333337</ele><time>2026-03-29T08:30:12.071Z</time></trkpt><trkpt lat="43.192055" lon="12.2002783"><ele>486.66666666666663</ele><time>2026-03-29T08:30:13.071Z</time></trkpt><trkpt lat="43.1919467" lon="12.2001317"><ele>485.0</ele><time>2026-03-29T08:30:14.071Z</time></trkpt><trkpt lat="43.1918283" lon="12.1999867"><ele>485.0</ele><time>2026-03-29T08:30:15.071Z</time></trkpt><trkpt lat="43.1916983" lon="12.19985"><ele>485.0</ele><time>2026-03-29T08:30:16.071Z</time></trkpt><trkpt lat="43.191555" lon="12.1997283"><ele>485.0</ele><time>2026-03-29T08:30:17.07Z</time></trkpt><trkpt lat="43.191405" lon="12.19962"><ele>486.0</ele><time>2026-03-29T08:30:18.07Z</time></trkpt><trkpt lat="43.191245" lon="12.1995283"><ele>487.0</ele><time>2026-03-29T08:30:19.07Z</time></trkpt><trkpt lat="43.1910917" lon="12.1994583"><ele>488.0</ele><time>2026-03-29T08:30:20.071Z</time></trkpt><trkpt lat="43.1909433" lon="12.199405"><ele>488.0</ele><time>2026-03-29T08:30:21.07Z</time></trkpt><trkpt lat="43.1907917" lon="12.19937"><ele>488.0</ele><time>2026-03-29T08:30:22.071Z</time></trkpt><trkpt lat="43.1906417" lon="12.1993167"><ele>488.0</ele><time>2026-03-29T08:30:23.071Z</time></trkpt><trkpt lat="43.1904867" lon="12.1992533"><ele>484.3333333333333</ele><time>2026-03-29T08:30:24.071Z</time></trkpt><trkpt lat="43.190335" lon="12.19918"><ele>480.66666666666663</ele><time>2026-03-29T08:30:25.071Z</time></trkpt><trkpt lat="43.1901867" lon="12.1991083"><ele>477.0</ele><time>2026-03-29T08:30:26.07Z</time></trkpt><trkpt lat="43.1900483" lon="12.1990367"><ele>477.75</ele><time>2026-03-29T08:30:27.071Z</time></trkpt><trkpt lat="43.1899217" lon="12.1989483"><ele>478.5</ele><time>2026-03-29T08:30:28.07Z</time></trkpt><trkpt lat="43.1897933" lon="12.1988467"><ele>479.25</ele><time>2026-03-29T08:30:29.07Z</time></trkpt><trkpt lat="43.18968" lon="12.1987167"><ele>480.0</ele><time>2026-03-29T08:30:30.071Z</time></trkpt><trkpt lat="43.1895583" lon="12.1985883"><ele>480.0</ele><time>2026-03-29T08:30:31.071Z</time></trkpt><trkpt lat="43.1894317" lon="12.198475"><ele>480.0</ele><time>2026-03-29T08:30:32.07Z</time></trkpt><trkpt lat="43.1892883" lon="12.1983833"><ele>480.0</ele><time>2026-03-29T08:30:33.071Z</time></trkpt><trkpt lat="43.1891283" lon="12.1982933"><ele>479.66666666666663</ele><time>2026-03-29T08:30:34.07Z</time></trkpt><trkpt lat="43.188955" lon="12.1982167"><ele>479.3333333333333</ele><time>2026-03-29T08:30:35.071Z</time></trkpt><trkpt lat="43.1887883" lon="12.1981183"><ele>479.0</ele><time>2026-03-29T08:30:36.07Z</time></trkpt><trkpt lat="43.1886317" lon="12.198015"><ele>479.0</ele><time>2026-03-29T08:30:37.07Z</time></trkpt><trkpt lat="43.1884733" lon="12.1979117"><ele>479.0</ele><time>2026-03-29T08:30:38.071Z</time></trkpt><trkpt lat="43.1883217" lon="12.19781"><ele>479.0</ele><time>2026-03-29T08:30:39.071Z</time></trkpt><trkpt lat="43.1881717" lon="12.1977067"><ele>473.66666666666663</ele><time>2026-03-29T08:30:40.07Z</time></trkpt><trkpt lat="43.1880217" lon="12.1975983"><ele>468.33333333333337</ele><time>2026-03-29T08:30:41.071Z</time></trkpt><trkpt lat="43.187875" lon="12.1975117"><ele>463.0</ele><time>2026-03-29T08:30:42.071Z</time></trkpt><trkpt lat="43.18774" lon="12.1974267"><ele>463.0</ele><time>2026-03-29T08:30:43.07Z</time></trkpt><trkpt lat="43.1876167" lon="12.1973467"><ele>462.99999999999994</ele><time>2026-03-29T08:30:44.071Z</time></trkpt><trkpt lat="43.1875183" lon="12.1972717"><ele>462.99999999999994</ele><time>2026-03-29T08:30:45.07Z</time></trkpt><trkpt lat="43.187445" lon="12.1971867"><ele>463.0</ele><time>2026-03-29T08:30:46.07Z</time></trkpt><trkpt lat="43.1873733" lon="12.1970883"><ele>463.0</ele><time>2026-03-29T08:30:47.071Z</time></trkpt><trkpt lat="43.18732" lon="12.1969867"><ele>463.79999999999995</ele><time>2026-03-29T08:30:48.07Z</time></trkpt><trkpt lat="43.1872983" lon="12.196865"><ele>464.59999999999997</ele><time>2026-03-29T08:30:49.071Z</time></trkpt><trkpt lat="43.187305" lon="12.196725"><ele>465.40000000000003</ele><time>2026-03-29T08:30:50.07Z</time></trkpt><trkpt lat="43.1873467" lon="12.1965783"><ele>466.20000000000005</ele><time>2026-03-29T08:30:51.071Z</time></trkpt><trkpt lat="43.187395" lon="12.1964083"><ele>467.0</ele><time>2026-03-29T08:30:52.071Z</time></trkpt><trkpt lat="43.1874517" lon="12.1962433"><ele>464.75</ele><time>2026-03-29T08:30:53.07Z</time></trkpt><trkpt lat="43.187515" lon="12.1960867"><ele>462.5</ele><time>2026-03-29T08:30:54.071Z</time></trkpt><trkpt lat="43.1875783" lon="12.1959233"><ele>460.25</ele><time>2026-03-29T08:30:55.071Z</time></trkpt><trkpt lat="43.1876317" lon="12.1957783"><ele>458.0</ele><time>2026-03-29T08:30:56.071Z</time></trkpt><trkpt lat="43.1876867" lon="12.1956367"><ele>456.25</ele><time>2026-03-29T08:30:57.071Z</time></trkpt><trkpt lat="43.1877217" lon="12.1954783"><ele>454.5</ele><time>2026-03-29T08:30:58.071Z</time></trkpt><trkpt lat="43.18774" lon="12.19533"><ele>452.75</ele><time>2026-03-29T08:30:59.071Z</time></trkpt><trkpt lat="43.18773" lon="12.19516"><ele>451.0</ele><time>2026-03-29T08:31:00.071Z</time></trkpt><trkpt lat="43.1877083" lon="12.1949717"><ele>452.0</ele><time>2026-03-29T08:31:01.071Z</time></trkpt><trkpt lat="43.1876717" lon="12.194785"><ele>453.0</ele><time>2026-03-29T08:31:02.071Z</time></trkpt><trkpt lat="43.1876283" lon="12.1945983"><ele>454.0</ele><time>2026-03-29T08:31:03.07Z</time></trkpt><trkpt lat="43.1875733" lon="12.1944267"><ele>455.0</ele><time>2026-03-29T08:31:04.07Z</time></trkpt><trkpt lat="43.1875117" lon="12.19427"><ele>455.0</ele><time>2026-03-29T08:31:05.071Z</time></trkpt><trkpt lat="43.1874433" lon="12.19413"><ele>455.0</ele><time>2026-03-29T08:31:06.071Z</time></trkpt><trkpt lat="43.1873467" lon="12.1940167"><ele>455.0</ele><time>2026-03-29T08:31:07.07Z</time></trkpt><trkpt lat="43.1872483" lon="12.1939367"><ele>455.0</ele><time>2026-03-29T08:31:08.071Z</time></trkpt><trkpt lat="43.1871367" lon="12.1939033"><ele>455.0</ele><time>2026-03-29T08:31:09.071Z</time></trkpt><trkpt lat="43.1870233" lon="12.1939033"><ele>455.0</ele><time>2026-03-29T08:31:10.07Z</time></trkpt><trkpt lat="43.18689" lon="12.193945"><ele>455.0</ele><time>2026-03-29T08:31:11.071Z</time></trkpt><trkpt lat="43.1867517" lon="12.1939817"><ele>455.0</ele><time>2026-03-29T08:31:12.071Z</time></trkpt><trkpt lat="43.1866117" lon="12.1939833"><ele>450.66666666666663</ele><time>2026-03-29T08:31:13.071Z</time></trkpt><trkpt lat="43.1864683" lon="12.1939733"><ele>446.33333333333337</ele><time>2026-03-29T08:31:14.071Z</time></trkpt><trkpt lat="43.18632" lon="12.1939367"><ele>442.0</ele><time>2026-03-29T08:31:15.07Z</time></trkpt><trkpt lat="43.186165" lon="12.1938833"><ele>442.0</ele><time>2026-03-29T08:31:16.071Z</time></trkpt><trkpt lat="43.1860183" lon="12.1938167"><ele>442.0</ele><time>2026-03-29T08:31:17.07Z</time></trkpt><trkpt lat="43.185865" lon="12.1937517"><ele>442.0</ele><time>2026-03-29T08:31:18.07Z</time></trkpt><trkpt lat="43.1857133" lon="12.193695"><ele>436.0</ele><time>2026-03-29T08:31:19.071Z</time></trkpt><trkpt lat="43.185565" lon="12.1936433"><ele>430.0</ele><time>2026-03-29T08:31:20.071Z</time></trkpt><trkpt lat="43.1854183" lon="12.193585"><ele>424.0</ele><time>2026-03-29T08:31:21.071Z</time></trkpt><trkpt lat="43.18528" lon="12.1935267"><ele>424.0</ele><time>2026-03-29T08:31:22.071Z</time></trkpt><trkpt lat="43.1851567" lon="12.19346"><ele>424.0</ele><time>2026-03-29T08:31:23.071Z</time></trkpt><trkpt lat="43.18504" lon="12.1933883"><ele>424.0</ele><time>2026-03-29T08:31:24.071Z</time></trkpt><trkpt lat="43.1849433" lon="12.1932967"><ele>424.0</ele><time>2026-03-29T08:31:25.071Z</time></trkpt><trkpt lat="43.1848617" lon="12.1931633"><ele>420.25</ele><time>2026-03-29T08:31:26.07Z</time></trkpt><trkpt lat="43.1847817" lon="12.1930033"><ele>416.5</ele><time>2026-03-29T08:31:27.071Z</time></trkpt><trkpt lat="43.18471" lon="12.1928233"><ele>412.75</ele><time>2026-03-29T08:31:28.07Z</time></trkpt><trkpt lat="43.1846467" lon="12.1926467"><ele>409.0</ele><time>2026-03-29T08:31:29.071Z</time></trkpt><trkpt lat="43.18459" lon="12.1924817"><ele>409.25</ele><time>2026-03-29T08:31:30.071Z</time></trkpt><trkpt lat="43.1845617" lon="12.1923017"><ele>409.5</ele><time>2026-03-29T08:31:31.071Z</time></trkpt><trkpt lat="43.18456" lon="12.1921067"><ele>409.75</ele><time>2026-03-29T08:31:32.071Z</time></trkpt><trkpt lat="43.184585" lon="12.191905"><ele>410.0</ele><time>2026-03-29T08:31:33.071Z</time></trkpt><trkpt lat="43.1846233" lon="12.1917267"><ele>410.0</ele><time>2026-03-29T08:31:34.071Z</time></trkpt><trkpt lat="43.1846683" lon="12.1915717"><ele>410.0</ele><time>2026-03-29T08:31:35.071Z</time></trkpt><trkpt lat="43.18471" lon="12.191425"><ele>410.0</ele><time>2026-03-29T08:31:36.071Z</time></trkpt><trkpt lat="43.18473" lon="12.1912817"><ele>410.0</ele><time>2026-03-29T08:31:37.071Z</time></trkpt><trkpt lat="43.18473" lon="12.1911483"><ele>410.0</ele><time>2026-03-29T08:31:38.07Z</time></trkpt><trkpt lat="43.1846967" lon="12.1910383"><ele>410.8</ele><time>2026-03-29T08:31:39.071Z</time></trkpt><trkpt lat="43.184645" lon="12.1909533"><ele>411.6</ele><time>2026-03-29T08:31:40.071Z</time></trkpt><trkpt lat="43.1845567" lon="12.1909267"><ele>412.4</ele><time>2026-03-29T08:31:41.071Z</time></trkpt><trkpt lat="43.184455" lon="12.1909583"><ele>413.2</ele><time>2026-03-29T08:31:42.071Z</time></trkpt><trkpt lat="43.1843467" lon="12.1910383"><ele>414.0</ele><time>2026-03-29T08:31:43.071Z</time></trkpt><trkpt lat="43.1842367" lon="12.191155"><ele>414.0</ele><time>2026-03-29T08:31:44.07Z</time></trkpt><trkpt lat="43.1841283" lon="12.1912767"><ele>414.0</ele><time>2026-03-29T08:31:45.071Z</time></trkpt><trkpt lat="43.1840217" lon="12.1914067"><ele>414.0</ele><time>2026-03-29T08:31:46.071Z</time></trkpt><trkpt lat="43.1839217" lon="12.19154"><ele>414.0</ele><time>2026-03-29T08:31:47.07Z</time></trkpt><trkpt lat="43.1838333" lon="12.191695"><ele>411.0</ele><time>2026-03-29T08:31:48.07Z</time></trkpt><trkpt lat="43.183755" lon="12.1918683"><ele>408.0</ele><time>2026-03-29T08:31:49.071Z</time></trkpt><trkpt lat="43.18371" lon="12.19206"><ele>405.0</ele><time>2026-03-29T08:31:50.071Z</time></trkpt><trkpt lat="43.1836667" lon="12.192245"><ele>402.0</ele><time>2026-03-29T08:31:51.07Z</time></trkpt><trkpt lat="43.18361" lon="12.1924167"><ele>401.6</ele><time>2026-03-29T08:31:52.07Z</time></trkpt><trkpt lat="43.1835417" lon="12.1925583"><ele>401.20000000000005</ele><time>2026-03-29T08:31:53.071Z</time></trkpt><trkpt lat="43.183475" lon="12.1926767"><ele>400.8</ele><time>2026-03-29T08:31:54.071Z</time></trkpt><trkpt lat="43.1834" lon="12.1927683"><ele>400.4</ele><time>2026-03-29T08:31:55.07Z</time></trkpt><trkpt lat="43.183335" lon="12.1928267"><ele>400.0</ele><time>2026-03-29T08:31:56.071Z</time></trkpt><trkpt lat="43.1832633" lon="12.1928567"><ele>400.00000000000006</ele><time>2026-03-29T08:31:57.07Z</time></trkpt><trkpt lat="43.18319" lon="12.1928633"><ele>400.0</ele><time>2026-03-29T08:31:58.07Z</time></trkpt><trkpt lat="43.1831217" lon="12.1928533"><ele>400.0</ele><time>2026-03-29T08:31:59.071Z</time></trkpt><trkpt lat="43.18305" lon="12.192805"><ele>400.0</ele><time>2026-03-29T08:32:00.071Z</time></trkpt><trkpt lat="43.18298" lon="12.19271"><ele>400.00000000000006</ele><time>2026-03-29T08:32:01.07Z</time></trkpt><trkpt lat="43.182925" lon="12.1925867"><ele>400.0</ele><time>2026-03-29T08:32:02.071Z</time></trkpt><trkpt lat="43.1828767" lon="12.192435"><ele>396.5</ele><time>2026-03-29T08:32:03.07Z</time></trkpt><trkpt lat="43.1828283" lon="12.1922683"><ele>393.0</ele><time>2026-03-29T08:32:04.071Z</time></trkpt><trkpt lat="43.1827817" lon="12.192105"><ele>389.5</ele><time>2026-03-29T08:32:05.071Z</time></trkpt><trkpt lat="43.1827367" lon="12.1919467"><ele>386.0</ele><time>2026-03-29T08:32:06.071Z</time></trkpt><trkpt lat="43.1827033" lon="12.1918017"><ele>385.99999999999994</ele><time>2026-03-29T08:32:07.07Z</time></trkpt><trkpt lat="43.1826867" lon="12.1916717"><ele>386.0</ele><time>2026-03-29T08:32:08.07Z</time></trkpt><trkpt lat="43.1826883" lon="12.191555"><ele>386.0</ele><time>2026-03-29T08:32:09.071Z</time></trkpt><trkpt lat="43.182705" lon="12.1914517"><ele>386.0</ele><time>2026-03-29T08:32:10.071Z</time></trkpt><trkpt lat="43.1827333" lon="12.191355"><ele>385.99999999999994</ele><time>2026-03-29T08:32:11.07Z</time></trkpt><trkpt lat="43.1827617" lon="12.191275"><ele>386.0</ele><time>2026-03-29T08:32:12.071Z</time></trkpt><trkpt lat="43.182805" lon="12.1912117"><ele>385.99999999999994</ele><time>2026-03-29T08:32:13.071Z</time></trkpt><trkpt lat="43.18287" lon="12.191115"><ele>386.0</ele><time>2026-03-29T08:32:15.071Z</time></trkpt><trkpt lat="43.18278" lon="12.1911483"><ele>386.0</ele><time>2026-03-29T08:32:21.071Z</time></trkpt><trkpt lat="43.1827517" lon="12.1912283"><ele>386.0</ele><time>2026-03-29T08:32:22.071Z</time></trkpt><trkpt lat="43.1827217" lon="12.1913233"><ele>385.99999999999994</ele><time>2026-03-29T08:32:23.071Z</time></trkpt><trkpt lat="43.18269" lon="12.1914483"><ele>386.0</ele><time>2026-03-29T08:32:24.07Z</time></trkpt><trkpt lat="43.1826683" lon="12.1916033"><ele>386.0</ele><time>2026-03-29T08:32:25.071Z</time></trkpt><trkpt lat="43.1826767" lon="12.1917883"><ele>386.0</ele><time>2026-03-29T08:32:26.071Z</time></trkpt><trkpt lat="43.1827117" lon="12.1919933"><ele>386.0</ele><time>2026-03-29T08:32:27.072Z</time></trkpt><trkpt lat="43.18278" lon="12.192225"><ele>387.0</ele><time>2026-03-29T08:32:28.072Z</time></trkpt><trkpt lat="43.182855" lon="12.1924367"><ele>388.0</ele><time>2026-03-29T08:32:29.071Z</time></trkpt><trkpt lat="43.182915" lon="12.1926183"><ele>389.0</ele><time>2026-03-29T08:32:30.072Z</time></trkpt><trkpt lat="43.1829817" lon="12.1927417"><ele>390.0</ele><time>2026-03-29T08:32:31.072Z</time></trkpt><trkpt lat="43.1830533" lon="12.1928283"><ele>390.0</ele><time>2026-03-29T08:32:32.072Z</time></trkpt><trkpt lat="43.1830917" lon="12.1929233"><ele>390.0</ele><time>2026-03-29T08:32:34.071Z</time></trkpt><trkpt lat="43.1830033" lon="12.192895"><ele>390.0</ele><time>2026-03-29T08:32:36.072Z</time></trkpt><trkpt lat="43.1828867" lon="12.19277"><ele>390.0</ele><time>2026-03-29T08:32:38.072Z</time></trkpt><trkpt lat="43.18283" lon="12.1926983"><ele>390.0</ele><time>2026-03-29T08:32:39.072Z</time></trkpt><trkpt lat="43.18277" lon="12.192625"><ele>390.0</ele><time>2026-03-29T08:32:40.072Z</time></trkpt><trkpt lat="43.1827017" lon="12.19257"><ele>390.0</ele><time>2026-03-29T08:32:41.072Z</time></trkpt><trkpt lat="43.1826317" lon="12.1925283"><ele>390.0</ele><time>2026-03-29T08:32:42.072Z</time></trkpt><trkpt lat="43.182555" lon="12.1924817"><ele>390.0</ele><time>2026-03-29T08:32:43.072Z</time></trkpt><trkpt lat="43.18248" lon="12.1924383"><ele>390.0</ele><time>2026-03-29T08:32:44.072Z</time></trkpt><trkpt lat="43.182405" lon="12.1923983"><ele>390.0</ele><time>2026-03-29T08:32:45.072Z</time></trkpt><trkpt lat="43.18232" lon="12.19236"><ele>385.0</ele><time>2026-03-29T08:32:46.072Z</time></trkpt><trkpt lat="43.1822333" lon="12.19233"><ele>380.0</ele><time>2026-03-29T08:32:47.071Z</time></trkpt><trkpt lat="43.1821417" lon="12.1923083"><ele>375.0</ele><time>2026-03-29T08:32:48.071Z</time></trkpt><trkpt lat="43.1820483" lon="12.1922933"><ele>370.0</ele><time>2026-03-29T08:32:49.071Z</time></trkpt><trkpt lat="43.1819533" lon="12.1922817"><ele>365.0</ele><time>2026-03-29T08:32:50.072Z</time></trkpt><trkpt lat="43.1818617" lon="12.192265"><ele>365.0</ele><time>2026-03-29T08:32:51.071Z</time></trkpt><trkpt lat="43.181775" lon="12.192245"><ele>365.0</ele><time>2026-03-29T08:32:52.071Z</time></trkpt><trkpt lat="43.181685" lon="12.1921983"><ele>365.0</ele><time>2026-03-29T08:32:53.072Z</time></trkpt><trkpt lat="43.1815933" lon="12.1921383"><ele>365.0</ele><time>2026-03-29T08:32:54.072Z</time></trkpt><trkpt lat="43.181495" lon="12.1920733"><ele>365.0</ele><time>2026-03-29T08:32:55.071Z</time></trkpt><trkpt lat="43.1813933" lon="12.1920167"><ele>363.0</ele><time>2026-03-29T08:32:56.071Z</time></trkpt><trkpt lat="43.181285" lon="12.19197"><ele>361.0</ele><time>2026-03-29T08:32:57.072Z</time></trkpt><trkpt lat="43.1811767" lon="12.1919217"><ele>359.0</ele><time>2026-03-29T08:32:58.072Z</time></trkpt><trkpt lat="43.1810633" lon="12.191875"><ele>357.0</ele><time>2026-03-29T08:32:59.072Z</time></trkpt><trkpt lat="43.1809583" lon="12.191825"><ele>357.0</ele><time>2026-03-29T08:33:00.072Z</time></trkpt><trkpt lat="43.1808483" lon="12.191785"><ele>357.0</ele><time>2026-03-29T08:33:01.072Z</time></trkpt><trkpt lat="43.1807483" lon="12.1917367"><ele>357.0</ele><time>2026-03-29T08:33:02.072Z</time></trkpt><trkpt lat="43.1806367" lon="12.19171"><ele>357.0</ele><time>2026-03-29T08:33:03.072Z</time></trkpt><trkpt lat="43.18053" lon="12.1916817"><ele>357.0</ele><time>2026-03-29T08:33:04.072Z</time></trkpt><trkpt lat="43.1804267" lon="12.19164"><ele>356.40000000000003</ele><time>2026-03-29T08:33:05.071Z</time></trkpt><trkpt lat="43.1803283" lon="12.1915667"><ele>355.8</ele><time>2026-03-29T08:33:06.072Z</time></trkpt><trkpt lat="43.180235" lon="12.191485"><ele>355.2</ele><time>2026-03-29T08:33:07.072Z</time></trkpt><trkpt lat="43.1801667" lon="12.1914033"><ele>354.6</ele><time>2026-03-29T08:33:08.072Z</time></trkpt><trkpt lat="43.1801083" lon="12.1913383"><ele>354.0</ele><time>2026-03-29T08:33:09.072Z</time></trkpt><trkpt lat="43.1800633" lon="12.1912533"><ele>351.6666666666667</ele><time>2026-03-29T08:33:10.071Z</time></trkpt><trkpt lat="43.1800267" lon="12.19116"><ele>349.3333333333333</ele><time>2026-03-29T08:33:11.072Z</time></trkpt><trkpt lat="43.1800067" lon="12.191055"><ele>347.0</ele><time>2026-03-29T08:33:12.071Z</time></trkpt><trkpt lat="43.1800017" lon="12.19094"><ele>344.66666666666663</ele><time>2026-03-29T08:33:13.071Z</time></trkpt><trkpt lat="43.1800017" lon="12.1908233"><ele>342.3333333333333</ele><time>2026-03-29T08:33:14.072Z</time></trkpt><trkpt lat="43.1799933" lon="12.19069"><ele>340.0</ele><time>2026-03-29T08:33:15.072Z</time></trkpt><trkpt lat="43.1799783" lon="12.19055"><ele>337.0</ele><time>2026-03-29T08:33:16.072Z</time></trkpt><trkpt lat="43.1799583" lon="12.19041"><ele>334.0</ele><time>2026-03-29T08:33:17.072Z</time></trkpt><trkpt lat="43.1799117" lon="12.1902833"><ele>331.0</ele><time>2026-03-29T08:33:18.071Z</time></trkpt><trkpt lat="43.1798433" lon="12.19016"><ele>328.0</ele><time>2026-03-29T08:33:19.072Z</time></trkpt><trkpt lat="43.17976" lon="12.19004"><ele>325.0</ele><time>2026-03-29T08:33:20.072Z</time></trkpt><trkpt lat="43.1796667" lon="12.1899167"><ele>323.6</ele><time>2026-03-29T08:33:21.072Z</time></trkpt><trkpt lat="43.1795767" lon="12.189805"><ele>322.2</ele><time>2026-03-29T08:33:22.072Z</time></trkpt><trkpt lat="43.1795017" lon="12.18969"><ele>320.8</ele><time>2026-03-29T08:33:23.071Z</time></trkpt><trkpt lat="43.17942" lon="12.1895917"><ele>319.4</ele><time>2026-03-29T08:33:24.071Z</time></trkpt><trkpt lat="43.1793417" lon="12.1895117"><ele>318.0</ele><time>2026-03-29T08:33:25.072Z</time></trkpt><trkpt lat="43.1792633" lon="12.1894233"><ele>318.0</ele><time>2026-03-29T08:33:26.072Z</time></trkpt><trkpt lat="43.1791817" lon="12.1893383"><ele>318.0</ele><time>2026-03-29T08:33:27.072Z</time></trkpt><trkpt lat="43.1791067" lon="12.1892483"><ele>318.0</ele><time>2026-03-29T08:33:28.071Z</time></trkpt><trkpt lat="43.1790367" lon="12.1891683"><ele>318.0</ele><time>2026-03-29T08:33:29.072Z</time></trkpt><trkpt lat="43.17898" lon="12.1890683"><ele>318.0</ele><time>2026-03-29T08:33:30.071Z</time></trkpt><trkpt lat="43.17893" lon="12.1889517"><ele>314.6</ele><time>2026-03-29T08:33:31.072Z</time></trkpt><trkpt lat="43.178875" lon="12.1888283"><ele>311.20000000000005</ele><time>2026-03-29T08:33:32.072Z</time></trkpt><trkpt lat="43.17883" lon="12.1887017"><ele>307.8</ele><time>2026-03-29T08:33:33.071Z</time></trkpt><trkpt lat="43.178785" lon="12.1885783"><ele>304.40000000000003</ele><time>2026-03-29T08:33:34.071Z</time></trkpt><trkpt lat="43.17873" lon="12.18845"><ele>301.0</ele><time>2026-03-29T08:33:35.072Z</time></trkpt><trkpt lat="43.1786717" lon="12.18831"><ele>300.6</ele><time>2026-03-29T08:33:36.072Z</time></trkpt><trkpt lat="43.1786117" lon="12.188175"><ele>300.20000000000005</ele><time>2026-03-29T08:33:37.072Z</time></trkpt><trkpt lat="43.1785483" lon="12.1880467"><ele>299.79999999999995</ele><time>2026-03-29T08:33:38.072Z</time></trkpt><trkpt lat="43.1784867" lon="12.1879333"><ele>299.4</ele><time>2026-03-29T08:33:39.072Z</time></trkpt><trkpt lat="43.1784233" lon="12.1878283"><ele>299.0</ele><time>2026-03-29T08:33:40.072Z</time></trkpt><trkpt lat="43.178375" lon="12.1877167"><ele>299.0</ele><time>2026-03-29T08:33:41.072Z</time></trkpt><trkpt lat="43.1783317" lon="12.1876217"><ele>299.0</ele><time>2026-03-29T08:33:42.072Z</time></trkpt><trkpt lat="43.1783" lon="12.1875217"><ele>299.0</ele><time>2026-03-29T08:33:43.072Z</time></trkpt><trkpt lat="43.17827" lon="12.1874283"><ele>299.0</ele><time>2026-03-29T08:33:44.072Z</time></trkpt><trkpt lat="43.1782517" lon="12.1873383"><ele>299.0</ele><time>2026-03-29T08:33:45.072Z</time></trkpt><trkpt lat="43.1782433" lon="12.1872317"><ele>299.0</ele><time>2026-03-29T08:33:46.072Z</time></trkpt><trkpt lat="43.1782383" lon="12.1871117"><ele>297.8</ele><time>2026-03-29T08:33:47.071Z</time></trkpt><trkpt lat="43.1782267" lon="12.1869967"><ele>296.59999999999997</ele><time>2026-03-29T08:33:48.072Z</time></trkpt><trkpt lat="43.1781983" lon="12.1868917"><ele>295.4</ele><time>2026-03-29T08:33:49.072Z</time></trkpt><trkpt lat="43.17816" lon="12.1867867"><ele>294.2</ele><time>2026-03-29T08:33:50.071Z</time></trkpt><trkpt lat="43.1780983" lon="12.1866717"><ele>293.0</ele><time>2026-03-29T08:33:51.072Z</time></trkpt><trkpt lat="43.17805" lon="12.1865617"><ele>290.8</ele><time>2026-03-29T08:33:52.072Z</time></trkpt><trkpt lat="43.1779867" lon="12.1864417"><ele>288.6</ele><time>2026-03-29T08:33:53.071Z</time></trkpt><trkpt lat="43.177925" lon="12.18633"><ele>286.4</ele><time>2026-03-29T08:33:54.072Z</time></trkpt><trkpt lat="43.1778633" lon="12.1862167"><ele>284.2</ele><time>2026-03-29T08:33:55.072Z</time></trkpt><trkpt lat="43.1778067" lon="12.18611"><ele>282.0</ele><time>2026-03-29T08:33:56.072Z</time></trkpt><trkpt lat="43.1777517" lon="12.1860017"><ele>282.0</ele><time>2026-03-29T08:33:57.071Z</time></trkpt><trkpt lat="43.1777033" lon="12.18591"><ele>282.0</ele><time>2026-03-29T08:33:58.072Z</time></trkpt><trkpt lat="43.177685" lon="12.1858117"><ele>282.0</ele><time>2026-03-29T08:33:59.072Z</time></trkpt><trkpt lat="43.17767" lon="12.185725"><ele>282.0</ele><time>2026-03-29T08:34:00.072Z</time></trkpt><trkpt lat="43.1776583" lon="12.1855717"><ele>282.0</ele><time>2026-03-29T08:34:02.071Z</time></trkpt><trkpt lat="43.1776467" lon="12.1853933"><ele>280.3333333333333</ele><time>2026-03-29T08:34:04.072Z</time></trkpt><trkpt lat="43.1776483" lon="12.1852917"><ele>278.6666666666667</ele><time>2026-03-29T08:34:05.072Z</time></trkpt><trkpt lat="43.1776483" lon="12.1851833"><ele>277.0</ele><time>2026-03-29T08:34:06.071Z</time></trkpt><trkpt lat="43.1776467" lon="12.1850733"><ele>275.33333333333337</ele><time>2026-03-29T08:34:07.072Z</time></trkpt><trkpt lat="43.1776433" lon="12.1849517"><ele>273.6666666666667</ele><time>2026-03-29T08:34:08.072Z</time></trkpt><trkpt lat="43.1776383" lon="12.1848367"><ele>272.0</ele><time>2026-03-29T08:34:09.071Z</time></trkpt><trkpt lat="43.1776283" lon="12.18473"><ele>270.6</ele><time>2026-03-29T08:34:10.072Z</time></trkpt><trkpt lat="43.1775867" lon="12.1846333"><ele>269.2</ele><time>2026-03-29T08:34:11.072Z</time></trkpt><trkpt lat="43.1775017" lon="12.1845167"><ele>267.8</ele><time>2026-03-29T08:34:13.072Z</time></trkpt><trkpt lat="43.1774467" lon="12.18444"><ele>266.4</ele><time>2026-03-29T08:34:15.072Z</time></trkpt><trkpt lat="43.1774483" lon="12.1843367"><ele>265.0</ele><time>2026-03-29T08:34:17.072Z</time></trkpt><trkpt lat="43.1775" lon="12.18417"><ele>265.0</ele><time>2026-03-29T08:34:19.072Z</time></trkpt><trkpt lat="43.17754" lon="12.1840733"><ele>265.0</ele><time>2026-03-29T08:34:20.072Z</time></trkpt><trkpt lat="43.1775717" lon="12.1839617"><ele>265.0</ele><time>2026-03-29T08:34:21.072Z</time></trkpt><trkpt lat="43.1775917" lon="12.18384"><ele>265.0</ele><time>2026-03-29T08:34:22.072Z</time></trkpt><trkpt lat="43.1776183" lon="12.1837183"><ele>265.0</ele><time>2026-03-29T08:34:23.072Z</time></trkpt><trkpt lat="43.1776467" lon="12.1836067"><ele>265.0</ele><time>2026-03-29T08:34:24.072Z</time></trkpt><trkpt lat="43.1776617" lon="12.1835117"><ele>264.8</ele><time>2026-03-29T08:34:25.072Z</time></trkpt><trkpt lat="43.177685" lon="12.1833717"><ele>264.6</ele><time>2026-03-29T08:34:27.071Z</time></trkpt><trkpt lat="43.1776617" lon="12.1832883"><ele>264.4</ele><time>2026-03-29T08:34:29.072Z</time></trkpt><trkpt lat="43.1775867" lon="12.1832617"><ele>264.2</ele><time>2026-03-29T08:34:31.072Z</time></trkpt><trkpt lat="43.1774717" lon="12.1833383"><ele>264.0</ele><time>2026-03-29T08:34:33.072Z</time></trkpt><trkpt lat="43.177395" lon="12.1834083"><ele>263.2</ele><time>2026-03-29T08:34:34.072Z</time></trkpt><trkpt lat="43.177315" lon="12.1834817"><ele>262.4</ele><time>2026-03-29T08:34:35.072Z</time></trkpt><trkpt lat="43.17723" lon="12.1835583"><ele>261.6</ele><time>2026-03-29T08:34:36.072Z</time></trkpt><trkpt lat="43.177135" lon="12.183645"><ele>260.8</ele><time>2026-03-29T08:34:37.072Z</time></trkpt><trkpt lat="43.1770383" lon="12.18373"><ele>260.0</ele><time>2026-03-29T08:34:38.071Z</time></trkpt><trkpt lat="43.17695" lon="12.1838117"><ele>260.0</ele><time>2026-03-29T08:34:39.072Z</time></trkpt><trkpt lat="43.1768667" lon="12.1838783"><ele>260.0</ele><time>2026-03-29T08:34:40.072Z</time></trkpt><trkpt lat="43.1767933" lon="12.1839333"><ele>260.0</ele><time>2026-03-29T08:34:41.072Z</time></trkpt><trkpt lat="43.1766983" lon="12.183985"><ele>260.0</ele><time>2026-03-29T08:34:43.072Z</time></trkpt><trkpt lat="43.176625" lon="12.1839267"><ele>260.0</ele><time>2026-03-29T08:34:47.072Z</time></trkpt><trkpt lat="43.1765633" lon="12.183835"><ele>259.83333333333337</ele><time>2026-03-29T08:34:50.072Z</time></trkpt><trkpt lat="43.17649" lon="12.1837417"><ele>259.6666666666667</ele><time>2026-03-29T08:34:52.072Z</time></trkpt><trkpt lat="43.17644" lon="12.183645"><ele>259.5</ele><time>2026-03-29T08:34:54.072Z</time></trkpt><trkpt lat="43.1763633" lon="12.1836517"><ele>259.3333333333333</ele><time>2026-03-29T08:34:56.072Z</time></trkpt><trkpt lat="43.176285" lon="12.183725"><ele>259.16666666666663</ele><time>2026-03-29T08:34:57.072Z</time></trkpt><trkpt lat="43.176205" lon="12.1837817"><ele>259.0</ele><time>2026-03-29T08:34:58.071Z</time></trkpt><trkpt lat="43.1761417" lon="12.1838417"><ele>259.0</ele><time>2026-03-29T08:34:59.072Z</time></trkpt><trkpt lat="43.17608" lon="12.1839133"><ele>259.0</ele><time>2026-03-29T08:35:00.072Z</time></trkpt><trkpt lat="43.1760033" lon="12.183985"><ele>259.0</ele><time>2026-03-29T08:35:01.071Z</time></trkpt><trkpt lat="43.175925" lon="12.1840333"><ele>259.0</ele><time>2026-03-29T08:35:02.072Z</time></trkpt><trkpt lat="43.175845" lon="12.1840867"><ele>259.0</ele><time>2026-03-29T08:35:03.072Z</time></trkpt><trkpt lat="43.1757683" lon="12.184155"><ele>259.0</ele><time>2026-03-29T08:35:04.072Z</time></trkpt><trkpt lat="43.1756967" lon="12.1842267"><ele>259.2</ele><time>2026-03-29T08:35:05.072Z</time></trkpt><trkpt lat="43.17562" lon="12.1842917"><ele>259.4</ele><time>2026-03-29T08:35:06.072Z</time></trkpt><trkpt lat="43.1755433" lon="12.1843617"><ele>259.6</ele><time>2026-03-29T08:35:07.071Z</time></trkpt><trkpt lat="43.1754867" lon="12.18441"><ele>259.8</ele><time>2026-03-29T08:35:08.071Z</time></trkpt><trkpt lat="43.1753733" lon="12.18442"><ele>260.0</ele><time>2026-03-29T08:35:10.072Z</time></trkpt><trkpt lat="43.1752817" lon="12.184335"><ele>260.0</ele><time>2026-03-29T08:35:12.071Z</time></trkpt><trkpt lat="43.1752417" lon="12.184195"><ele>260.0</ele><time>2026-03-29T08:35:14.072Z</time></trkpt><trkpt lat="43.1751583" lon="12.18413"><ele>260.0</ele><time>2026-03-29T08:35:16.072Z</time></trkpt><trkpt lat="43.1750617" lon="12.18414"><ele>260.0</ele><time>2026-03-29T08:35:18.072Z</time></trkpt><trkpt lat="43.1749633" lon="12.1842517"><ele>260.0</ele><time>2026-03-29T08:35:20.072Z</time></trkpt><trkpt lat="43.1749067" lon="12.1843467"><ele>259.6</ele><time>2026-03-29T08:35:21.072Z</time></trkpt><trkpt lat="43.174845" lon="12.18444"><ele>259.2</ele><time>2026-03-29T08:35:22.072Z</time></trkpt><trkpt lat="43.1747717" lon="12.1845283"><ele>258.8</ele><time>2026-03-29T08:35:23.072Z</time></trkpt><trkpt lat="43.1746817" lon="12.184615"><ele>258.4</ele><time>2026-03-29T08:35:24.072Z</time></trkpt><trkpt lat="43.1745867" lon="12.1846983"><ele>258.0</ele><time>2026-03-29T08:35:25.071Z</time></trkpt><trkpt lat="43.17449" lon="12.18479"><ele>258.5</ele><time>2026-03-29T08:35:26.072Z</time></trkpt><trkpt lat="43.1743917" lon="12.184885"><ele>259.0</ele><time>2026-03-29T08:35:27.072Z</time></trkpt><trkpt lat="43.1742867" lon="12.1849867"><ele>259.5</ele><time>2026-03-29T08:35:28.072Z</time></trkpt><trkpt lat="43.1741733" lon="12.1850933"><ele>260.0</ele><time>2026-03-29T08:35:29.072Z</time></trkpt><trkpt lat="43.17405" lon="12.1852067"><ele>259.33333333333337</ele><time>2026-03-29T08:35:30.072Z</time></trkpt><trkpt lat="43.173915" lon="12.185335"><ele>258.6666666666667</ele><time>2026-03-29T08:35:31.072Z</time></trkpt><trkpt lat="43.173765" lon="12.1854733"><ele>258.0</ele><time>2026-03-29T08:35:32.072Z</time></trkpt><trkpt lat="43.1736117" lon="12.185615"><ele>258.0</ele><time>2026-03-29T08:35:33.072Z</time></trkpt><trkpt lat="43.17345" lon="12.1857533"><ele>258.0</ele><time>2026-03-29T08:35:34.071Z</time></trkpt><trkpt lat="43.1732833" lon="12.185885"><ele>258.0</ele><time>2026-03-29T08:35:35.072Z</time></trkpt><trkpt lat="43.1731233" lon="12.1860167"><ele>258.0</ele><time>2026-03-29T08:35:36.072Z</time></trkpt><trkpt lat="43.172955" lon="12.1861483"><ele>258.0</ele><time>2026-03-29T08:35:37.072Z</time></trkpt><trkpt lat="43.1727733" lon="12.1862867"><ele>258.0</ele><time>2026-03-29T08:35:38.072Z</time></trkpt><trkpt lat="43.1725883" lon="12.1864267"><ele>258.0</ele><time>2026-03-29T08:35:39.072Z</time></trkpt><trkpt lat="43.1723817" lon="12.1865767"><ele>258.0</ele><time>2026-03-29T08:35:40.072Z</time></trkpt><trkpt lat="43.1721517" lon="12.1867367"><ele>258.0</ele><time>2026-03-29T08:35:41.072Z</time></trkpt><trkpt lat="43.1719083" lon="12.1869"><ele>258.0</ele><time>2026-03-29T08:35:42.072Z</time></trkpt><trkpt lat="43.1716467" lon="12.187045"><ele>258.0</ele><time>2026-03-29T08:35:43.071Z</time></trkpt><trkpt lat="43.171405" lon="12.1871733"><ele>258.0</ele><time>2026-03-29T08:35:44.072Z</time></trkpt><trkpt lat="43.171185" lon="12.1872967"><ele>258.6666666666667</ele><time>2026-03-29T08:35:45.072Z</time></trkpt><trkpt lat="43.1709817" lon="12.18741"><ele>259.33333333333337</ele><time>2026-03-29T08:35:46.072Z</time></trkpt><trkpt lat="43.1707983" lon="12.1874983"><ele>260.0</ele><time>2026-03-29T08:35:47.072Z</time></trkpt><trkpt lat="43.17063" lon="12.1875633"><ele>260.0</ele><time>2026-03-29T08:35:48.072Z</time></trkpt><trkpt lat="43.17046" lon="12.18763"><ele>260.0</ele><time>2026-03-29T08:35:49.072Z</time></trkpt><trkpt lat="43.1702767" lon="12.1876983"><ele>260.0</ele><time>2026-03-29T08:35:50.071Z</time></trkpt><trkpt lat="43.17009" lon="12.18776"><ele>260.0</ele><time>2026-03-29T08:35:51.071Z</time></trkpt><trkpt lat="43.1699133" lon="12.18782"><ele>260.0</ele><time>2026-03-29T08:35:52.072Z</time></trkpt><trkpt lat="43.1697583" lon="12.18788"><ele>260.0</ele><time>2026-03-29T08:35:53.072Z</time></trkpt><trkpt lat="43.1696283" lon="12.1879267"><ele>259.8</ele><time>2026-03-29T08:35:54.072Z</time></trkpt><trkpt lat="43.169515" lon="12.1879583"><ele>259.6</ele><time>2026-03-29T08:35:55.072Z</time></trkpt><trkpt lat="43.16942" lon="12.1879817"><ele>259.4</ele><time>2026-03-29T08:35:56.072Z</time></trkpt><trkpt lat="43.169335" lon="12.188"><ele>259.2</ele><time>2026-03-29T08:35:57.072Z</time></trkpt><trkpt lat="43.169245" lon="12.1880067"><ele>259.0</ele><time>2026-03-29T08:35:58.072Z</time></trkpt><trkpt lat="43.1691583" lon="12.18803"><ele>259.0</ele><time>2026-03-29T08:35:59.072Z</time></trkpt><trkpt lat="43.169055" lon="12.1880567"><ele>259.0</ele><time>2026-03-29T08:36:00.072Z</time></trkpt><trkpt lat="43.1689433" lon="12.1880817"><ele>259.0</ele><time>2026-03-29T08:36:01.071Z</time></trkpt><trkpt lat="43.1688067" lon="12.1881217"><ele>259.0</ele><time>2026-03-29T08:36:02.072Z</time></trkpt><trkpt lat="43.1686467" lon="12.18816"><ele>260.0</ele><time>2026-03-29T08:36:03.072Z</time></trkpt><trkpt lat="43.1684783" lon="12.188185"><ele>261.0</ele><time>2026-03-29T08:36:04.071Z</time></trkpt><trkpt lat="43.168295" lon="12.1882033"><ele>262.0</ele><time>2026-03-29T08:36:05.072Z</time></trkpt><trkpt lat="43.1681133" lon="12.1882217"><ele>262.0</ele><time>2026-03-29T08:36:06.072Z</time></trkpt><trkpt lat="43.16793" lon="12.1882383"><ele>262.0</ele><time>2026-03-29T08:36:07.072Z</time></trkpt><trkpt lat="43.16774" lon="12.1882533"><ele>262.0</ele><time>2026-03-29T08:36:08.072Z</time></trkpt><trkpt lat="43.1675383" lon="12.1882783"><ele>261.66666666666663</ele><time>2026-03-29T08:36:09.072Z</time></trkpt><trkpt lat="43.16734" lon="12.1883083"><ele>261.3333333333333</ele><time>2026-03-29T08:36:10.072Z</time></trkpt><trkpt lat="43.167135" lon="12.1883283"><ele>261.0</ele><time>2026-03-29T08:36:11.071Z</time></trkpt><trkpt lat="43.1669333" lon="12.1883383"><ele>261.0</ele><time>2026-03-29T08:36:12.071Z</time></trkpt><trkpt lat="43.16672" lon="12.188345"><ele>261.0</ele><time>2026-03-29T08:36:13.072Z</time></trkpt><trkpt lat="43.1665033" lon="12.18836"><ele>261.0</ele><time>2026-03-29T08:36:14.071Z</time></trkpt><trkpt lat="43.1662817" lon="12.1883717"><ele>260.0</ele><time>2026-03-29T08:36:15.072Z</time></trkpt><trkpt lat="43.1660483" lon="12.1883867"><ele>259.0</ele><time>2026-03-29T08:36:16.072Z</time></trkpt><trkpt lat="43.1658333" lon="12.188415"><ele>258.5</ele><time>2026-03-29T08:36:17.072Z</time></trkpt><trkpt lat="43.1656033" lon="12.188425"><ele>258.0</ele><time>2026-03-29T08:36:18.071Z</time></trkpt><trkpt lat="43.1653817" lon="12.188445"><ele>258.0</ele><time>2026-03-29T08:36:19.071Z</time></trkpt><trkpt lat="43.16515" lon="12.1884717"><ele>258.0</ele><time>2026-03-29T08:36:20.071Z</time></trkpt><trkpt lat="43.164945" lon="12.1884917"><ele>258.0</ele><time>2026-03-29T08:36:21.072Z</time></trkpt><trkpt lat="43.16476" lon="12.1885017"><ele>258.0</ele><time>2026-03-29T08:36:22.072Z</time></trkpt><trkpt lat="43.164595" lon="12.1885117"><ele>258.0</ele><time>2026-03-29T08:36:23.072Z</time></trkpt><trkpt lat="43.1644483" lon="12.188535"><ele>258.0</ele><time>2026-03-29T08:36:24.072Z</time></trkpt><trkpt lat="43.1643033" lon="12.18855"><ele>258.0</ele><time>2026-03-29T08:36:25.072Z</time></trkpt><trkpt lat="43.16415" lon="12.1885717"><ele>258.0</ele><time>2026-03-29T08:36:26.072Z</time></trkpt><trkpt lat="43.164" lon="12.18858"><ele>258.0</ele><time>2026-03-29T08:36:27.071Z</time></trkpt><trkpt lat="43.1638583" lon="12.1885833"><ele>258.0</ele><time>2026-03-29T08:36:28.072Z</time></trkpt><trkpt lat="43.1637083" lon="12.1886"><ele>258.0</ele><time>2026-03-29T08:36:29.071Z</time></trkpt><trkpt lat="43.1635683" lon="12.18861"><ele>258.0</ele><time>2026-03-29T08:36:30.071Z</time></trkpt><trkpt lat="43.1634333" lon="12.1886133"><ele>258.0</ele><time>2026-03-29T08:36:31.072Z</time></trkpt><trkpt lat="43.1633117" lon="12.1886183"><ele>258.0</ele><time>2026-03-29T08:36:32.072Z</time></trkpt><trkpt lat="43.1631983" lon="12.1886333"><ele>258.0</ele><time>2026-03-29T08:36:33.071Z</time></trkpt><trkpt lat="43.1630917" lon="12.1886383"><ele>258.0</ele><time>2026-03-29T08:36:34.072Z</time></trkpt><trkpt lat="43.1629883" lon="12.188645"><ele>258.0</ele><time>2026-03-29T08:36:35.072Z</time></trkpt><trkpt lat="43.1628933" lon="12.1886517"><ele>258.0</ele><time>2026-03-29T08:36:36.072Z</time></trkpt><trkpt lat="43.1627983" lon="12.1886483"><ele>258.0</ele><time>2026-03-29T08:36:37.071Z</time></trkpt><trkpt lat="43.1627" lon="12.18866"><ele>258.0</ele><time>2026-03-29T08:36:38.072Z</time></trkpt><trkpt lat="43.162605" lon="12.1886683"><ele>258.0</ele><time>2026-03-29T08:36:39.072Z</time></trkpt><trkpt lat="43.1625133" lon="12.1886767"><ele>258.0</ele><time>2026-03-29T08:36:40.071Z</time></trkpt><trkpt lat="43.1624167" lon="12.1886833"><ele>258.0</ele><time>2026-03-29T08:36:41.072Z</time></trkpt><trkpt lat="43.16232" lon="12.1886867"><ele>258.0</ele><time>2026-03-29T08:36:42.072Z</time></trkpt><trkpt lat="43.1622233" lon="12.1887"><ele>258.25</ele><time>2026-03-29T08:36:43.072Z</time></trkpt><trkpt lat="43.1621183" lon="12.1887117"><ele>258.5</ele><time>2026-03-29T08:36:44.072Z</time></trkpt><trkpt lat="43.1620067" lon="12.1887183"><ele>258.75</ele><time>2026-03-29T08:36:45.071Z</time></trkpt><trkpt lat="43.1618867" lon="12.188725"><ele>259.0</ele><time>2026-03-29T08:36:46.072Z</time></trkpt><trkpt lat="43.161755" lon="12.1887183"><ele>259.0</ele><time>2026-03-29T08:36:47.072Z</time></trkpt><trkpt lat="43.16162" lon="12.1886983"><ele>259.0</ele><time>2026-03-29T08:36:48.071Z</time></trkpt><trkpt lat="43.1614817" lon="12.188695"><ele>259.0</ele><time>2026-03-29T08:36:49.071Z</time></trkpt><trkpt lat="43.16136" lon="12.1886817"><ele>259.0</ele><time>2026-03-29T08:36:50.072Z</time></trkpt><trkpt lat="43.1612517" lon="12.1886683"><ele>259.4</ele><time>2026-03-29T08:36:51.072Z</time></trkpt><trkpt lat="43.16115" lon="12.1886533"><ele>259.79999999999995</ele><time>2026-03-29T08:36:52.071Z</time></trkpt><trkpt lat="43.1610567" lon="12.18863"><ele>260.20000000000005</ele><time>2026-03-29T08:36:53.072Z</time></trkpt><trkpt lat="43.1609817" lon="12.188615"><ele>260.6</ele><time>2026-03-29T08:36:54.072Z</time></trkpt><trkpt lat="43.1609133" lon="12.18857"><ele>261.0</ele><time>2026-03-29T08:36:56.072Z</time></trkpt><trkpt lat="43.1608217" lon="12.1884817"><ele>261.0</ele><time>2026-03-29T08:36:59.072Z</time></trkpt><trkpt lat="43.1607717" lon="12.1884067"><ele>261.0</ele><time>2026-03-29T08:37:00.071Z</time></trkpt><trkpt lat="43.1607167" lon="12.1883217"><ele>261.0</ele><time>2026-03-29T08:37:01.072Z</time></trkpt><trkpt lat="43.1606617" lon="12.18825"><ele>261.0</ele><time>2026-03-29T08:37:02.072Z</time></trkpt><trkpt lat="43.1606083" lon="12.1881767"><ele>261.0</ele><time>2026-03-29T08:37:03.072Z</time></trkpt><trkpt lat="43.160555" lon="12.1880917"><ele>261.0</ele><time>2026-03-29T08:37:04.071Z</time></trkpt><trkpt lat="43.1604917" lon="12.1880083"><ele>261.5</ele><time>2026-03-29T08:37:05.072Z</time></trkpt><trkpt lat="43.1604317" lon="12.1879283"><ele>262.0</ele><time>2026-03-29T08:37:06.072Z</time></trkpt><trkpt lat="43.1603717" lon="12.1878467"><ele>262.5</ele><time>2026-03-29T08:37:07.072Z</time></trkpt><trkpt lat="43.1603083" lon="12.1877617"><ele>263.0</ele><time>2026-03-29T08:37:08.072Z</time></trkpt><trkpt lat="43.160235" lon="12.1876833"><ele>263.5</ele><time>2026-03-29T08:37:09.072Z</time></trkpt><trkpt lat="43.1601667" lon="12.1875933"><ele>264.0</ele><time>2026-03-29T08:37:10.072Z</time></trkpt><trkpt lat="43.160085" lon="12.1875083"><ele>264.0</ele><time>2026-03-29T08:37:11.072Z</time></trkpt><trkpt lat="43.1600083" lon="12.1874383"><ele>264.0</ele><time>2026-03-29T08:37:12.071Z</time></trkpt><trkpt lat="43.15993" lon="12.1873783"><ele>264.0</ele><time>2026-03-29T08:37:13.072Z</time></trkpt><trkpt lat="43.1598467" lon="12.1873317"><ele>264.0</ele><time>2026-03-29T08:37:14.072Z</time></trkpt><trkpt lat="43.1597767" lon="12.1872717"><ele>264.0</ele><time>2026-03-29T08:37:15.072Z</time></trkpt><trkpt lat="43.1597033" lon="12.1872267"><ele>264.0</ele><time>2026-03-29T08:37:16.072Z</time></trkpt><trkpt lat="43.1596317" lon="12.1872017"><ele>263.59999999999997</ele><time>2026-03-29T08:37:17.071Z</time></trkpt><trkpt lat="43.15952" lon="12.18714"><ele>263.2</ele><time>2026-03-29T08:37:19.072Z</time></trkpt><trkpt lat="43.159425" lon="12.1870733"><ele>262.79999999999995</ele><time>2026-03-29T08:37:21.072Z</time></trkpt><trkpt lat="43.1593167" lon="12.1870117"><ele>262.4</ele><time>2026-03-29T08:37:23.072Z</time></trkpt><trkpt lat="43.159255" lon="12.186975"><ele>262.0</ele><time>2026-03-29T08:37:24.072Z</time></trkpt><trkpt lat="43.1591867" lon="12.1869367"><ele>262.0</ele><time>2026-03-29T08:37:25.071Z</time></trkpt><trkpt lat="43.1591083" lon="12.1868967"><ele>262.0</ele><time>2026-03-29T08:37:26.072Z</time></trkpt><trkpt lat="43.1590167" lon="12.1868567"><ele>262.0</ele><time>2026-03-29T08:37:27.071Z</time></trkpt><trkpt lat="43.1589167" lon="12.1867933"><ele>262.0</ele><time>2026-03-29T08:37:28.071Z</time></trkpt><trkpt lat="43.1588067" lon="12.1867333"><ele>262.0</ele><time>2026-03-29T08:37:29.072Z</time></trkpt><trkpt lat="43.1586867" lon="12.1866583"><ele>262.0</ele><time>2026-03-29T08:37:30.071Z</time></trkpt><trkpt lat="43.1585683" lon="12.1865917"><ele>262.0</ele><time>2026-03-29T08:37:31.072Z</time></trkpt><trkpt lat="43.158445" lon="12.1865283"><ele>262.0</ele><time>2026-03-29T08:37:32.072Z</time></trkpt><trkpt lat="43.1583217" lon="12.1864633"><ele>262.0</ele><time>2026-03-29T08:37:33.071Z</time></trkpt><trkpt lat="43.1581933" lon="12.1863983"><ele>261.66666666666663</ele><time>2026-03-29T08:37:34.071Z</time></trkpt><trkpt lat="43.1580683" lon="12.1863283"><ele>261.3333333333333</ele><time>2026-03-29T08:37:35.072Z</time></trkpt><trkpt lat="43.157925" lon="12.1862517"><ele>261.0</ele><time>2026-03-29T08:37:36.071Z</time></trkpt><trkpt lat="43.1577717" lon="12.1861633"><ele>261.0</ele><time>2026-03-29T08:37:37.071Z</time></trkpt><trkpt lat="43.1576233" lon="12.1860917"><ele>261.0</ele><time>2026-03-29T08:37:38.072Z</time></trkpt><trkpt lat="43.1574617" lon="12.1860183"><ele>261.0</ele><time>2026-03-29T08:37:39.072Z</time></trkpt><trkpt lat="43.157295" lon="12.1859383"><ele>260.6666666666667</ele><time>2026-03-29T08:37:40.071Z</time></trkpt><trkpt lat="43.1571283" lon="12.1858583"><ele>260.33333333333337</ele><time>2026-03-29T08:37:41.071Z</time></trkpt><trkpt lat="43.1569617" lon="12.1857683"><ele>260.0</ele><time>2026-03-29T08:37:42.071Z</time></trkpt><trkpt lat="43.15679" lon="12.1856733"><ele>260.0</ele><time>2026-03-29T08:37:43.072Z</time></trkpt><trkpt lat="43.1566017" lon="12.1855783"><ele>260.0</ele><time>2026-03-29T08:37:44.071Z</time></trkpt><trkpt lat="43.15642" lon="12.1854833"><ele>260.0</ele><time>2026-03-29T08:37:45.072Z</time></trkpt><trkpt lat="43.1562433" lon="12.1853867"><ele>259.6666666666667</ele><time>2026-03-29T08:37:46.072Z</time></trkpt><trkpt lat="43.1560633" lon="12.18529"><ele>259.3333333333333</ele><time>2026-03-29T08:37:47.071Z</time></trkpt><trkpt lat="43.1558817" lon="12.18519"><ele>259.0</ele><time>2026-03-29T08:37:48.071Z</time></trkpt><trkpt lat="43.1557" lon="12.1850917"><ele>258.66666666666663</ele><time>2026-03-29T08:37:49.072Z</time></trkpt><trkpt lat="43.1555167" lon="12.185"><ele>258.3333333333333</ele><time>2026-03-29T08:37:50.072Z</time></trkpt><trkpt lat="43.1553417" lon="12.18491"><ele>258.0</ele><time>2026-03-29T08:37:51.072Z</time></trkpt><trkpt lat="43.15517" lon="12.18482"><ele>258.0</ele><time>2026-03-29T08:37:52.072Z</time></trkpt><trkpt lat="43.1550017" lon="12.1847217"><ele>258.0</ele><time>2026-03-29T08:37:53.072Z</time></trkpt><trkpt lat="43.1548467" lon="12.1846067"><ele>258.0</ele><time>2026-03-29T08:37:54.071Z</time></trkpt><trkpt lat="43.1547017" lon="12.1844917"><ele>258.6666666666667</ele><time>2026-03-29T08:37:55.072Z</time></trkpt><trkpt lat="43.15455" lon="12.1843617"><ele>259.33333333333337</ele><time>2026-03-29T08:37:56.071Z</time></trkpt><trkpt lat="43.15442" lon="12.1842033"><ele>260.0</ele><time>2026-03-29T08:37:57.071Z</time></trkpt><trkpt lat="43.1542983" lon="12.1840567"><ele>260.0</ele><time>2026-03-29T08:37:58.072Z</time></trkpt><trkpt lat="43.154185" lon="12.183905"><ele>260.0</ele><time>2026-03-29T08:37:59.072Z</time></trkpt><trkpt lat="43.154065" lon="12.1837333"><ele>260.0</ele><time>2026-03-29T08:38:00.071Z</time></trkpt><trkpt lat="43.1539333" lon="12.1835517"><ele>260.0</ele><time>2026-03-29T08:38:01.072Z</time></trkpt><trkpt lat="43.153805" lon="12.18336"><ele>260.0</ele><time>2026-03-29T08:38:02.072Z</time></trkpt><trkpt lat="43.1536767" lon="12.1831817"><ele>260.0</ele><time>2026-03-29T08:38:03.072Z</time></trkpt><trkpt lat="43.15355" lon="12.183015"><ele>260.0</ele><time>2026-03-29T08:38:04.072Z</time></trkpt><trkpt lat="43.153435" lon="12.1828583"><ele>260.0</ele><time>2026-03-29T08:38:05.072Z</time></trkpt><trkpt lat="43.1533" lon="12.1827067"><ele>260.0</ele><time>2026-03-29T08:38:06.072Z</time></trkpt><trkpt lat="43.15316" lon="12.1825467"><ele>261.0</ele><time>2026-03-29T08:38:07.072Z</time></trkpt><trkpt lat="43.1530233" lon="12.18238"><ele>262.0</ele><time>2026-03-29T08:38:08.072Z</time></trkpt><trkpt lat="43.1528833" lon="12.1822017"><ele>263.0</ele><time>2026-03-29T08:38:09.071Z</time></trkpt><trkpt lat="43.1527517" lon="12.18202"><ele>263.0</ele><time>2026-03-29T08:38:10.071Z</time></trkpt><trkpt lat="43.1526267" lon="12.18183"><ele>263.0</ele><time>2026-03-29T08:38:11.072Z</time></trkpt><trkpt lat="43.1525217" lon="12.18163"><ele>263.0</ele><time>2026-03-29T08:38:12.072Z</time></trkpt><trkpt lat="43.1524283" lon="12.1814217"><ele>272.0</ele><time>2026-03-29T08:38:13.071Z</time></trkpt><trkpt lat="43.1523417" lon="12.1811983"><ele>281.0</ele><time>2026-03-29T08:38:14.072Z</time></trkpt><trkpt lat="43.1522683" lon="12.180975"><ele>290.0</ele><time>2026-03-29T08:38:15.072Z</time></trkpt><trkpt lat="43.1522033" lon="12.180725"><ele>287.33333333333337</ele><time>2026-03-29T08:38:16.072Z</time></trkpt><trkpt lat="43.1521317" lon="12.180485"><ele>284.6666666666667</ele><time>2026-03-29T08:38:17.072Z</time></trkpt><trkpt lat="43.1520717" lon="12.180235"><ele>282.0</ele><time>2026-03-29T08:38:18.072Z</time></trkpt><trkpt lat="43.1519883" lon="12.1799833"><ele>278.0</ele><time>2026-03-29T08:38:19.071Z</time></trkpt><trkpt lat="43.1519133" lon="12.179735"><ele>274.0</ele><time>2026-03-29T08:38:20.071Z</time></trkpt><trkpt lat="43.15184" lon="12.1795033"><ele>270.0</ele><time>2026-03-29T08:38:21.071Z</time></trkpt><trkpt lat="43.1517617" lon="12.1792783"><ele>270.0</ele><time>2026-03-29T08:38:22.072Z</time></trkpt><trkpt lat="43.1516617" lon="12.17908"><ele>270.0</ele><time>2026-03-29T08:38:23.072Z</time></trkpt><trkpt lat="43.1515717" lon="12.17887"><ele>270.0</ele><time>2026-03-29T08:38:24.072Z</time></trkpt><trkpt lat="43.1514717" lon="12.1786583"><ele>271.6666666666667</ele><time>2026-03-29T08:38:25.072Z</time></trkpt><trkpt lat="43.1513533" lon="12.17845"><ele>273.33333333333337</ele><time>2026-03-29T08:38:26.071Z</time></trkpt><trkpt lat="43.15123" lon="12.1782583"><ele>275.0</ele><time>2026-03-29T08:38:27.072Z</time></trkpt><trkpt lat="43.151095" lon="12.1780833"><ele>274.33333333333337</ele><time>2026-03-29T08:38:28.072Z</time></trkpt><trkpt lat="43.1509483" lon="12.1778917"><ele>273.6666666666667</ele><time>2026-03-29T08:38:29.072Z</time></trkpt><trkpt lat="43.1508133" lon="12.1777233"><ele>273.0</ele><time>2026-03-29T08:38:30.071Z</time></trkpt><trkpt lat="43.1506967" lon="12.17752"><ele>270.6666666666667</ele><time>2026-03-29T08:38:31.071Z</time></trkpt><trkpt lat="43.150585" lon="12.1773167"><ele>268.33333333333337</ele><time>2026-03-29T08:38:32.072Z</time></trkpt><trkpt lat="43.1504633" lon="12.1771217"><ele>266.0</ele><time>2026-03-29T08:38:33.072Z</time></trkpt><trkpt lat="43.1503533" lon="12.1769133"><ele>266.0</ele><time>2026-03-29T08:38:34.072Z</time></trkpt><trkpt lat="43.1502417" lon="12.17671"><ele>266.0</ele><time>2026-03-29T08:38:35.072Z</time></trkpt><trkpt lat="43.150135" lon="12.1764933"><ele>266.0</ele><time>2026-03-29T08:38:36.072Z</time></trkpt><trkpt lat="43.1500333" lon="12.17627"><ele>265.6666666666667</ele><time>2026-03-29T08:38:37.072Z</time></trkpt><trkpt lat="43.1499483" lon="12.17603"><ele>265.3333333333333</ele><time>2026-03-29T08:38:38.071Z</time></trkpt><trkpt lat="43.1498783" lon="12.1757717"><ele>265.0</ele><time>2026-03-29T08:38:39.071Z</time></trkpt><trkpt lat="43.1498333" lon="12.1755117"><ele>267.3333333333333</ele><time>2026-03-29T08:38:40.072Z</time></trkpt><trkpt lat="43.1497933" lon="12.1752433"><ele>269.6666666666667</ele><time>2026-03-29T08:38:41.072Z</time></trkpt><trkpt lat="43.149765" lon="12.1749717"><ele>272.0</ele><time>2026-03-29T08:38:42.072Z</time></trkpt><trkpt lat="43.14975" lon="12.1746867"><ele>272.0</ele><time>2026-03-29T08:38:43.071Z</time></trkpt><trkpt lat="43.1497483" lon="12.1744117"><ele>272.0</ele><time>2026-03-29T08:38:44.071Z</time></trkpt><trkpt lat="43.1497517" lon="12.1741333"><ele>272.0</ele><time>2026-03-29T08:38:45.071Z</time></trkpt><trkpt lat="43.1497567" lon="12.173855"><ele>271.33333333333337</ele><time>2026-03-29T08:38:46.072Z</time></trkpt><trkpt lat="43.1497667" lon="12.173575"><ele>270.6666666666667</ele><time>2026-03-29T08:38:47.071Z</time></trkpt><trkpt lat="43.1497767" lon="12.1732917"><ele>270.0</ele><time>2026-03-29T08:38:48.072Z</time></trkpt><trkpt lat="43.1497817" lon="12.173015"><ele>270.0</ele><time>2026-03-29T08:38:49.072Z</time></trkpt><trkpt lat="43.1497817" lon="12.172745"><ele>270.0</ele><time>2026-03-29T08:38:50.071Z</time></trkpt><trkpt lat="43.1497833" lon="12.1724783"><ele>270.0</ele><time>2026-03-29T08:38:51.072Z</time></trkpt><trkpt lat="43.1497867" lon="12.1722183"><ele>270.3333333333333</ele><time>2026-03-29T08:38:52.072Z</time></trkpt><trkpt lat="43.1497833" lon="12.171955"><ele>270.66666666666663</ele><time>2026-03-29T08:38:53.072Z</time></trkpt><trkpt lat="43.1497767" lon="12.1716867"><ele>271.0</ele><time>2026-03-29T08:38:54.072Z</time></trkpt><trkpt lat="43.14975" lon="12.1714233"><ele>271.0</ele><time>2026-03-29T08:38:55.072Z</time></trkpt><trkpt lat="43.1497117" lon="12.17117"><ele>271.0</ele><time>2026-03-29T08:38:56.071Z</time></trkpt><trkpt lat="43.14964" lon="12.1709183"><ele>271.0</ele><time>2026-03-29T08:38:57.072Z</time></trkpt><trkpt lat="43.149565" lon="12.1706817"><ele>269.0</ele><time>2026-03-29T08:38:58.071Z</time></trkpt><trkpt lat="43.1494717" lon="12.1704583"><ele>267.0</ele><time>2026-03-29T08:38:59.071Z</time></trkpt><trkpt lat="43.1493517" lon="12.1702617"><ele>265.0</ele><time>2026-03-29T08:39:00.072Z</time></trkpt><trkpt lat="43.149195" lon="12.1701"><ele>267.0</ele><time>2026-03-29T08:39:01.072Z</time></trkpt><trkpt lat="43.149025" lon="12.16995"><ele>269.0</ele><time>2026-03-29T08:39:02.072Z</time></trkpt><trkpt lat="43.14885" lon="12.16981"><ele>271.0</ele><time>2026-03-29T08:39:03.072Z</time></trkpt><trkpt lat="43.1486767" lon="12.1696633"><ele>271.0</ele><time>2026-03-29T08:39:04.072Z</time></trkpt><trkpt lat="43.1484983" lon="12.169505"><ele>271.0</ele><time>2026-03-29T08:39:05.071Z</time></trkpt><trkpt lat="43.1483183" lon="12.1693417"><ele>271.0</ele><time>2026-03-29T08:39:06.072Z</time></trkpt><trkpt lat="43.148155" lon="12.16919"><ele>274.3333333333333</ele><time>2026-03-29T08:39:07.072Z</time></trkpt><trkpt lat="43.1479983" lon="12.169035"><ele>277.6666666666667</ele><time>2026-03-29T08:39:08.072Z</time></trkpt><trkpt lat="43.1478483" lon="12.168885"><ele>281.0</ele><time>2026-03-29T08:39:09.072Z</time></trkpt><trkpt lat="43.1476967" lon="12.1687317"><ele>281.0</ele><time>2026-03-29T08:39:10.072Z</time></trkpt><trkpt lat="43.1475483" lon="12.168575"><ele>281.0</ele><time>2026-03-29T08:39:11.072Z</time></trkpt><trkpt lat="43.1474017" lon="12.1684067"><ele>281.0</ele><time>2026-03-29T08:39:12.072Z</time></trkpt><trkpt lat="43.1472517" lon="12.1682333"><ele>282.33333333333337</ele><time>2026-03-29T08:39:13.072Z</time></trkpt><trkpt lat="43.1471033" lon="12.1680633"><ele>283.6666666666667</ele><time>2026-03-29T08:39:14.072Z</time></trkpt><trkpt lat="43.146965" lon="12.1678967"><ele>285.0</ele><time>2026-03-29T08:39:15.071Z</time></trkpt><trkpt lat="43.14684" lon="12.1677283"><ele>285.0</ele><time>2026-03-29T08:39:16.072Z</time></trkpt><trkpt lat="43.1467183" lon="12.16756"><ele>285.0</ele><time>2026-03-29T08:39:17.072Z</time></trkpt><trkpt lat="43.1465967" lon="12.1673767"><ele>285.0</ele><time>2026-03-29T08:39:18.072Z</time></trkpt><trkpt lat="43.1464967" lon="12.1671483"><ele>286.3333333333333</ele><time>2026-03-29T08:39:19.071Z</time></trkpt><trkpt lat="43.1464067" lon="12.16694"><ele>287.66666666666663</ele><time>2026-03-29T08:39:20.072Z</time></trkpt><trkpt lat="43.1463317" lon="12.1667267"><ele>289.0</ele><time>2026-03-29T08:39:21.072Z</time></trkpt><trkpt lat="43.1462567" lon="12.1665317"><ele>287.3333333333333</ele><time>2026-03-29T08:39:22.072Z</time></trkpt><trkpt lat="43.1461633" lon="12.1663117"><ele>285.6666666666667</ele><time>2026-03-29T08:39:23.071Z</time></trkpt><trkpt lat="43.146075" lon="12.1661033"><ele>284.0</ele><time>2026-03-29T08:39:24.072Z</time></trkpt><trkpt lat="43.1459983" lon="12.165905"><ele>284.0</ele><time>2026-03-29T08:39:25.072Z</time></trkpt><trkpt lat="43.1459417" lon="12.1656983"><ele>284.0</ele><time>2026-03-29T08:39:26.071Z</time></trkpt><trkpt lat="43.1458917" lon="12.1654817"><ele>284.0</ele><time>2026-03-29T08:39:27.072Z</time></trkpt><trkpt lat="43.145855" lon="12.16527"><ele>283.5</ele><time>2026-03-29T08:39:28.072Z</time></trkpt><trkpt lat="43.1458117" lon="12.16508"><ele>283.0</ele><time>2026-03-29T08:39:29.071Z</time></trkpt><trkpt lat="43.1457617" lon="12.1649"><ele>282.5</ele><time>2026-03-29T08:39:30.071Z</time></trkpt><trkpt lat="43.1457067" lon="12.1647333"><ele>282.0</ele><time>2026-03-29T08:39:31.072Z</time></trkpt><trkpt lat="43.1456433" lon="12.1645683"><ele>283.25</ele><time>2026-03-29T08:39:32.071Z</time></trkpt><trkpt lat="43.1455617" lon="12.1644217"><ele>284.5</ele><time>2026-03-29T08:39:33.071Z</time></trkpt><trkpt lat="43.1454883" lon="12.1642717"><ele>285.75</ele><time>2026-03-29T08:39:34.072Z</time></trkpt><trkpt lat="43.1454167" lon="12.1641367"><ele>287.0</ele><time>2026-03-29T08:39:35.071Z</time></trkpt><trkpt lat="43.1453517" lon="12.1640133"><ele>287.4</ele><time>2026-03-29T08:39:36.072Z</time></trkpt><trkpt lat="43.1452883" lon="12.1639167"><ele>287.79999999999995</ele><time>2026-03-29T08:39:37.072Z</time></trkpt><trkpt lat="43.1452217" lon="12.1638417"><ele>288.2</ele><time>2026-03-29T08:39:38.072Z</time></trkpt><trkpt lat="43.14516" lon="12.1637783"><ele>288.59999999999997</ele><time>2026-03-29T08:39:39.072Z</time></trkpt><trkpt lat="43.14509" lon="12.1637433"><ele>289.0</ele><time>2026-03-29T08:39:40.071Z</time></trkpt><trkpt lat="43.14497" lon="12.1637267"><ele>289.0</ele><time>2026-03-29T08:39:42.072Z</time></trkpt><trkpt lat="43.1449" lon="12.16384"><ele>289.0</ele><time>2026-03-29T08:39:44.072Z</time></trkpt><trkpt lat="43.1449067" lon="12.163935"><ele>289.0</ele><time>2026-03-29T08:39:45.072Z</time></trkpt><trkpt lat="43.14492" lon="12.16406"><ele>289.0</ele><time>2026-03-29T08:39:46.072Z</time></trkpt><trkpt lat="43.1449583" lon="12.1641867"><ele>289.0</ele><time>2026-03-29T08:39:47.072Z</time></trkpt><trkpt lat="43.145035" lon="12.1643067"><ele>288.5</ele><time>2026-03-29T08:39:48.072Z</time></trkpt><trkpt lat="43.145145" lon="12.1644183"><ele>288.0</ele><time>2026-03-29T08:39:49.072Z</time></trkpt><trkpt lat="43.1452467" lon="12.1645283"><ele>287.5</ele><time>2026-03-29T08:39:50.072Z</time></trkpt><trkpt lat="43.1453317" lon="12.1646517"><ele>287.0</ele><time>2026-03-29T08:39:51.072Z</time></trkpt><trkpt lat="43.1453783" lon="12.1647833"><ele>288.4</ele><time>2026-03-29T08:39:52.072Z</time></trkpt><trkpt lat="43.1454" lon="12.164915"><ele>289.79999999999995</ele><time>2026-03-29T08:39:53.072Z</time></trkpt><trkpt lat="43.1453883" lon="12.16505"><ele>291.2</ele><time>2026-03-29T08:39:54.071Z</time></trkpt><trkpt lat="43.145345" lon="12.1651833"><ele>292.59999999999997</ele><time>2026-03-29T08:39:55.072Z</time></trkpt><trkpt lat="43.14526" lon="12.1652917"><ele>294.0</ele><time>2026-03-29T08:39:56.072Z</time></trkpt><trkpt lat="43.1451433" lon="12.1653567"><ele>294.0</ele><time>2026-03-29T08:39:57.071Z</time></trkpt><trkpt lat="43.1449983" lon="12.1653983"><ele>294.0</ele><time>2026-03-29T08:39:58.072Z</time></trkpt><trkpt lat="43.144835" lon="12.1654283"><ele>294.0</ele><time>2026-03-29T08:39:59.072Z</time></trkpt><trkpt lat="43.14467" lon="12.1654667"><ele>293.25</ele><time>2026-03-29T08:40:00.072Z</time></trkpt><trkpt lat="43.1445217" lon="12.1654983"><ele>292.5</ele><time>2026-03-29T08:40:01.071Z</time></trkpt><trkpt lat="43.1443817" lon="12.1655267"><ele>291.75</ele><time>2026-03-29T08:40:02.072Z</time></trkpt><trkpt lat="43.14425" lon="12.1655667"><ele>291.0</ele><time>2026-03-29T08:40:03.071Z</time></trkpt><trkpt lat="43.14413" lon="12.1656267"><ele>292.5</ele><time>2026-03-29T08:40:04.072Z</time></trkpt><trkpt lat="43.14402" lon="12.1657183"><ele>294.0</ele><time>2026-03-29T08:40:05.072Z</time></trkpt><trkpt lat="43.1439267" lon="12.1658267"><ele>295.5</ele><time>2026-03-29T08:40:06.072Z</time></trkpt><trkpt lat="43.14385" lon="12.165945"><ele>297.0</ele><time>2026-03-29T08:40:07.072Z</time></trkpt><trkpt lat="43.1437833" lon="12.166095"><ele>297.0</ele><time>2026-03-29T08:40:08.071Z</time></trkpt><trkpt lat="43.14374" lon="12.1662633"><ele>297.0</ele><time>2026-03-29T08:40:09.072Z</time></trkpt><trkpt lat="43.14372" lon="12.1664417"><ele>297.0</ele><time>2026-03-29T08:40:10.072Z</time></trkpt><trkpt lat="43.1437333" lon="12.1666283"><ele>297.0</ele><time>2026-03-29T08:40:11.072Z</time></trkpt><trkpt lat="43.1437617" lon="12.1668233"><ele>298.6666666666667</ele><time>2026-03-29T08:40:12.072Z</time></trkpt><trkpt lat="43.1437983" lon="12.1670183"><ele>300.33333333333337</ele><time>2026-03-29T08:40:13.072Z</time></trkpt><trkpt lat="43.1438417" lon="12.1672167"><ele>302.0</ele><time>2026-03-29T08:40:14.072Z</time></trkpt><trkpt lat="43.1439" lon="12.16741"><ele>303.0</ele><time>2026-03-29T08:40:15.072Z</time></trkpt><trkpt lat="43.1439783" lon="12.1676033"><ele>304.0</ele><time>2026-03-29T08:40:16.072Z</time></trkpt><trkpt lat="43.1440567" lon="12.1678017"><ele>305.0</ele><time>2026-03-29T08:40:17.072Z</time></trkpt><trkpt lat="43.1441333" lon="12.1679983"><ele>310.0</ele><time>2026-03-29T08:40:18.071Z</time></trkpt><trkpt lat="43.14421" lon="12.16818"><ele>315.0</ele><time>2026-03-29T08:40:19.072Z</time></trkpt><trkpt lat="43.1442717" lon="12.168365"><ele>320.0</ele><time>2026-03-29T08:40:20.072Z</time></trkpt><trkpt lat="43.1443117" lon="12.1685633"><ele>321.6666666666667</ele><time>2026-03-29T08:40:21.072Z</time></trkpt><trkpt lat="43.1443317" lon="12.168765"><ele>323.3333333333333</ele><time>2026-03-29T08:40:22.072Z</time></trkpt><trkpt lat="43.14433" lon="12.168985"><ele>325.0</ele><time>2026-03-29T08:40:23.071Z</time></trkpt><trkpt lat="43.1443267" lon="12.16921"><ele>325.66666666666663</ele><time>2026-03-29T08:40:24.072Z</time></trkpt><trkpt lat="43.144325" lon="12.16946"><ele>326.3333333333333</ele><time>2026-03-29T08:40:25.072Z</time></trkpt><trkpt lat="43.1443383" lon="12.1697283"><ele>327.0</ele><time>2026-03-29T08:40:26.071Z</time></trkpt><trkpt lat="43.144355" lon="12.16997"><ele>328.0</ele><time>2026-03-29T08:40:27.072Z</time></trkpt><trkpt lat="43.14439" lon="12.1701967"><ele>329.0</ele><time>2026-03-29T08:40:28.072Z</time></trkpt><trkpt lat="43.1444383" lon="12.1704183"><ele>330.0</ele><time>2026-03-29T08:40:29.072Z</time></trkpt><trkpt lat="43.1445067" lon="12.1706383"><ele>328.6666666666667</ele><time>2026-03-29T08:40:30.072Z</time></trkpt><trkpt lat="43.1445867" lon="12.1708717"><ele>327.33333333333337</ele><time>2026-03-29T08:40:31.071Z</time></trkpt><trkpt lat="43.1446733" lon="12.1710917"><ele>326.0</ele><time>2026-03-29T08:40:32.072Z</time></trkpt><trkpt lat="43.1447567" lon="12.1712917"><ele>326.0</ele><time>2026-03-29T08:40:33.072Z</time></trkpt><trkpt lat="43.1448367" lon="12.17148"><ele>326.0</ele><time>2026-03-29T08:40:34.072Z</time></trkpt><trkpt lat="43.1449" lon="12.171665"><ele>326.0</ele><time>2026-03-29T08:40:35.072Z</time></trkpt><trkpt lat="43.1449417" lon="12.1718367"><ele>326.0</ele><time>2026-03-29T08:40:36.072Z</time></trkpt><trkpt lat="43.1449467" lon="12.1720117"><ele>327.5</ele><time>2026-03-29T08:40:37.071Z</time></trkpt><trkpt lat="43.1449267" lon="12.1721717"><ele>329.0</ele><time>2026-03-29T08:40:38.072Z</time></trkpt><trkpt lat="43.14486" lon="12.172325"><ele>330.5</ele><time>2026-03-29T08:40:39.071Z</time></trkpt><trkpt lat="43.144755" lon="12.17247"><ele>332.0</ele><time>2026-03-29T08:40:40.071Z</time></trkpt><trkpt lat="43.1446283" lon="12.1726083"><ele>337.33333333333337</ele><time>2026-03-29T08:40:41.072Z</time></trkpt><trkpt lat="43.1444967" lon="12.172745"><ele>342.6666666666667</ele><time>2026-03-29T08:40:42.072Z</time></trkpt><trkpt lat="43.144375" lon="12.17287"><ele>348.0</ele><time>2026-03-29T08:40:43.071Z</time></trkpt><trkpt lat="43.14427" lon="12.17299"><ele>348.0</ele><time>2026-03-29T08:40:44.072Z</time></trkpt><trkpt lat="43.1441683" lon="12.1731083"><ele>348.0</ele><time>2026-03-29T08:40:45.071Z</time></trkpt><trkpt lat="43.144085" lon="12.1732383"><ele>348.0</ele><time>2026-03-29T08:40:46.072Z</time></trkpt><trkpt lat="43.1440233" lon="12.173375"><ele>348.0</ele><time>2026-03-29T08:40:47.072Z</time></trkpt><trkpt lat="43.143995" lon="12.17354"><ele>350.75</ele><time>2026-03-29T08:40:48.072Z</time></trkpt><trkpt lat="43.1439967" lon="12.1737233"><ele>353.5</ele><time>2026-03-29T08:40:49.072Z</time></trkpt><trkpt lat="43.1440017" lon="12.173925"><ele>356.25</ele><time>2026-03-29T08:40:50.071Z</time></trkpt><trkpt lat="43.1440017" lon="12.174135"><ele>359.0</ele><time>2026-03-29T08:40:51.072Z</time></trkpt><trkpt lat="43.1440067" lon="12.17435"><ele>359.6666666666667</ele><time>2026-03-29T08:40:52.072Z</time></trkpt><trkpt lat="43.1440067" lon="12.1745817"><ele>360.3333333333333</ele><time>2026-03-29T08:40:53.072Z</time></trkpt><trkpt lat="43.1440167" lon="12.17481"><ele>361.0</ele><time>2026-03-29T08:40:54.072Z</time></trkpt><trkpt lat="43.14403" lon="12.1750233"><ele>362.0</ele><time>2026-03-29T08:40:55.073Z</time></trkpt><trkpt lat="43.1440317" lon="12.175235"><ele>363.0</ele><time>2026-03-29T08:40:56.073Z</time></trkpt><trkpt lat="43.1440383" lon="12.1754383"><ele>364.0</ele><time>2026-03-29T08:40:57.073Z</time></trkpt><trkpt lat="43.1440317" lon="12.175635"><ele>365.0</ele><time>2026-03-29T08:40:58.072Z</time></trkpt><trkpt lat="43.144015" lon="12.175815"><ele>366.2</ele><time>2026-03-29T08:40:59.073Z</time></trkpt><trkpt lat="43.143995" lon="12.17599"><ele>367.4</ele><time>2026-03-29T08:41:00.073Z</time></trkpt><trkpt lat="43.1439767" lon="12.17614"><ele>368.6</ele><time>2026-03-29T08:41:01.073Z</time></trkpt><trkpt lat="43.143975" lon="12.1762517"><ele>369.8</ele><time>2026-03-29T08:41:02.072Z</time></trkpt><trkpt lat="43.143955" lon="12.1763783"><ele>371.0</ele><time>2026-03-29T08:41:04.073Z</time></trkpt><trkpt lat="43.1438617" lon="12.176345"><ele>371.0</ele><time>2026-03-29T08:41:07.072Z</time></trkpt><trkpt lat="43.1437967" lon="12.1763217"><ele>371.0</ele><time>2026-03-29T08:41:10.072Z</time></trkpt><trkpt lat="43.1437567" lon="12.1763967"><ele>371.0</ele><time>2026-03-29T08:41:12.072Z</time></trkpt><trkpt lat="43.14374" lon="12.17648"><ele>371.0</ele><time>2026-03-29T08:41:13.072Z</time></trkpt><trkpt lat="43.1437267" lon="12.17659"><ele>371.0</ele><time>2026-03-29T08:41:14.073Z</time></trkpt><trkpt lat="43.1437217" lon="12.176715"><ele>371.0</ele><time>2026-03-29T08:41:15.073Z</time></trkpt><trkpt lat="43.143715" lon="12.176845"><ele>372.20000000000005</ele><time>2026-03-29T08:41:16.073Z</time></trkpt><trkpt lat="43.14372" lon="12.17698"><ele>373.40000000000003</ele><time>2026-03-29T08:41:17.073Z</time></trkpt><trkpt lat="43.1437217" lon="12.177145"><ele>374.6</ele><time>2026-03-29T08:41:18.072Z</time></trkpt><trkpt lat="43.1437217" lon="12.1772883"><ele>375.8</ele><time>2026-03-29T08:41:19.073Z</time></trkpt><trkpt lat="43.1437217" lon="12.177405"><ele>377.0</ele><time>2026-03-29T08:41:20.072Z</time></trkpt><trkpt lat="43.1437133" lon="12.1775183"><ele>378.1428571428571</ele><time>2026-03-29T08:41:21.073Z</time></trkpt><trkpt lat="43.1436817" lon="12.177605"><ele>379.2857142857143</ele><time>2026-03-29T08:41:22.073Z</time></trkpt><trkpt lat="43.1436433" lon="12.1776867"><ele>380.42857142857144</ele><time>2026-03-29T08:41:23.073Z</time></trkpt><trkpt lat="43.1435933" lon="12.177745"><ele>381.57142857142856</ele><time>2026-03-29T08:41:24.073Z</time></trkpt><trkpt lat="43.1435283" lon="12.17777"><ele>382.7142857142857</ele><time>2026-03-29T08:41:25.073Z</time></trkpt><trkpt lat="43.1434583" lon="12.17777"><ele>383.85714285714283</ele><time>2026-03-29T08:41:26.072Z</time></trkpt><trkpt lat="43.1433933" lon="12.1777617"><ele>385.0</ele><time>2026-03-29T08:41:27.072Z</time></trkpt><trkpt lat="43.14331" lon="12.1777283"><ele>385.2</ele><time>2026-03-29T08:41:29.073Z</time></trkpt><trkpt lat="43.1431967" lon="12.1777217"><ele>385.4</ele><time>2026-03-29T08:41:32.073Z</time></trkpt><trkpt lat="43.143125" lon="12.1777133"><ele>385.6</ele><time>2026-03-29T08:41:33.073Z</time></trkpt><trkpt lat="43.143045" lon="12.1777033"><ele>385.8</ele><time>2026-03-29T08:41:34.073Z</time></trkpt><trkpt lat="43.14295" lon="12.1776917"><ele>386.0</ele><time>2026-03-29T08:41:35.072Z</time></trkpt><trkpt lat="43.1428483" lon="12.1776733"><ele>385.99999999999994</ele><time>2026-03-29T08:41:36.073Z</time></trkpt><trkpt lat="43.142745" lon="12.17765"><ele>386.0</ele><time>2026-03-29T08:41:37.072Z</time></trkpt><trkpt lat="43.1426483" lon="12.177625"><ele>386.0</ele><time>2026-03-29T08:41:38.072Z</time></trkpt><trkpt lat="43.142555" lon="12.1776033"><ele>386.0</ele><time>2026-03-29T08:41:39.073Z</time></trkpt><trkpt lat="43.142475" lon="12.177585"><ele>385.99999999999994</ele><time>2026-03-29T08:41:40.073Z</time></trkpt><trkpt lat="43.1424117" lon="12.1775667"><ele>386.0</ele><time>2026-03-29T08:41:41.073Z</time></trkpt><trkpt lat="43.142345" lon="12.177555"><ele>384.8</ele><time>2026-03-29T08:41:42.073Z</time></trkpt><trkpt lat="43.1422767" lon="12.1775567"><ele>383.6</ele><time>2026-03-29T08:41:43.072Z</time></trkpt><trkpt lat="43.142215" lon="12.1775767"><ele>382.4</ele><time>2026-03-29T08:41:44.073Z</time></trkpt><trkpt lat="43.1420967" lon="12.1776767"><ele>381.2</ele><time>2026-03-29T08:41:46.072Z</time></trkpt><trkpt lat="43.1420267" lon="12.1777783"><ele>380.0</ele><time>2026-03-29T08:41:47.073Z</time></trkpt><trkpt lat="43.1419617" lon="12.177915"><ele>380.0</ele><time>2026-03-29T08:41:48.073Z</time></trkpt><trkpt lat="43.141905" lon="12.1780617"><ele>380.0</ele><time>2026-03-29T08:41:49.073Z</time></trkpt><trkpt lat="43.1418583" lon="12.1781867"><ele>380.0</ele><time>2026-03-29T08:41:50.073Z</time></trkpt><trkpt lat="43.1417933" lon="12.1782817"><ele>380.0</ele><time>2026-03-29T08:41:51.072Z</time></trkpt><trkpt lat="43.1417117" lon="12.17835"><ele>380.0</ele><time>2026-03-29T08:41:52.073Z</time></trkpt><trkpt lat="43.1416267" lon="12.17839"><ele>381.75</ele><time>2026-03-29T08:41:53.072Z</time></trkpt><trkpt lat="43.141545" lon="12.1784333"><ele>383.5</ele><time>2026-03-29T08:41:54.073Z</time></trkpt><trkpt lat="43.1414317" lon="12.1785167"><ele>385.25</ele><time>2026-03-29T08:41:55.073Z</time></trkpt><trkpt lat="43.1412967" lon="12.17864"><ele>387.0</ele><time>2026-03-29T08:41:56.073Z</time></trkpt><trkpt lat="43.1411467" lon="12.1787833"><ele>387.0</ele><time>2026-03-29T08:41:57.073Z</time></trkpt><trkpt lat="43.141" lon="12.1789033"><ele>387.0</ele><time>2026-03-29T08:41:58.072Z</time></trkpt><trkpt lat="43.140895" lon="12.1789933"><ele>387.0</ele><time>2026-03-29T08:41:59.073Z</time></trkpt><trkpt lat="43.1408033" lon="12.17906"><ele>387.0</ele><time>2026-03-29T08:42:00.073Z</time></trkpt><trkpt lat="43.1407267" lon="12.1791333"><ele>386.5</ele><time>2026-03-29T08:42:01.072Z</time></trkpt><trkpt lat="43.1406667" lon="12.1791967"><ele>386.0</ele><time>2026-03-29T08:42:02.073Z</time></trkpt><trkpt lat="43.1406183" lon="12.1792583"><ele>385.5</ele><time>2026-03-29T08:42:03.073Z</time></trkpt><trkpt lat="43.1405467" lon="12.179345"><ele>385.0</ele><time>2026-03-29T08:42:05.072Z</time></trkpt><trkpt lat="43.1405117" lon="12.1794433"><ele>384.5</ele><time>2026-03-29T08:42:07.073Z</time></trkpt><trkpt lat="43.140475" lon="12.1795683"><ele>384.0</ele><time>2026-03-29T08:42:09.072Z</time></trkpt><trkpt lat="43.140445" lon="12.1797067"><ele>385.2</ele><time>2026-03-29T08:42:11.073Z</time></trkpt><trkpt lat="43.1404233" lon="12.1798617"><ele>386.4</ele><time>2026-03-29T08:42:13.072Z</time></trkpt><trkpt lat="43.1403967" lon="12.18"><ele>387.6</ele><time>2026-03-29T08:42:15.073Z</time></trkpt><trkpt lat="43.1403783" lon="12.1801133"><ele>388.8</ele><time>2026-03-29T08:42:17.073Z</time></trkpt><trkpt lat="43.140365" lon="12.1802033"><ele>390.0</ele><time>2026-03-29T08:42:20.073Z</time></trkpt><trkpt lat="43.1403667" lon="12.1803317"><ele>390.0</ele><time>2026-03-29T08:42:22.073Z</time></trkpt><trkpt lat="43.1403783" lon="12.1804267"><ele>390.0</ele><time>2026-03-29T08:42:23.073Z</time></trkpt><trkpt lat="43.1403883" lon="12.1805167"><ele>390.0</ele><time>2026-03-29T08:42:24.073Z</time></trkpt><trkpt lat="43.1403983" lon="12.1806683"><ele>390.0</ele><time>2026-03-29T08:42:26.072Z</time></trkpt><trkpt lat="43.1404267" lon="12.1807517"><ele>390.0</ele><time>2026-03-29T08:42:51.072Z</time></trkpt><trkpt lat="43.140425" lon="12.1808767"><ele>390.0</ele><time>2026-03-29T08:42:53.073Z</time></trkpt><trkpt lat="43.14043" lon="12.1809683"><ele>391.3333333333333</ele><time>2026-03-29T08:42:54.073Z</time></trkpt><trkpt lat="43.140435" lon="12.1810783"><ele>392.66666666666663</ele><time>2026-03-29T08:42:55.073Z</time></trkpt><trkpt lat="43.1404383" lon="12.1811883"><ele>394.0</ele><time>2026-03-29T08:42:56.073Z</time></trkpt><trkpt lat="43.14044" lon="12.1813067"><ele>395.3333333333333</ele><time>2026-03-29T08:42:57.073Z</time></trkpt><trkpt lat="43.140455" lon="12.1814283"><ele>396.66666666666663</ele><time>2026-03-29T08:42:58.073Z</time></trkpt><trkpt lat="43.1404833" lon="12.1815517"><ele>398.0</ele><time>2026-03-29T08:42:59.073Z</time></trkpt><trkpt lat="43.1405133" lon="12.181675"><ele>399.59999999999997</ele><time>2026-03-29T08:43:00.072Z</time></trkpt><trkpt lat="43.140535" lon="12.1818017"><ele>401.2</ele><time>2026-03-29T08:43:01.073Z</time></trkpt><trkpt lat="43.14056" lon="12.18201"><ele>402.8</ele><time>2026-03-29T08:43:03.073Z</time></trkpt><trkpt lat="43.1405883" lon="12.182125"><ele>404.4</ele><time>2026-03-29T08:43:05.073Z</time></trkpt><trkpt lat="43.140655" lon="12.1822417"><ele>406.0</ele><time>2026-03-29T08:43:07.073Z</time></trkpt><trkpt lat="43.1407" lon="12.1823133"><ele>407.00000000000006</ele><time>2026-03-29T08:43:08.073Z</time></trkpt><trkpt lat="43.14075" lon="12.1823883"><ele>408.0</ele><time>2026-03-29T08:43:09.072Z</time></trkpt><trkpt lat="43.140805" lon="12.1824517"><ele>409.0</ele><time>2026-03-29T08:43:10.073Z</time></trkpt><trkpt lat="43.1408533" lon="12.182515"><ele>410.0</ele><time>2026-03-29T08:43:11.073Z</time></trkpt><trkpt lat="43.1408817" lon="12.18264"><ele>411.00000000000006</ele><time>2026-03-29T08:43:13.072Z</time></trkpt><trkpt lat="43.1408333" lon="12.18278"><ele>412.0</ele><time>2026-03-29T08:43:15.073Z</time></trkpt><trkpt lat="43.140765" lon="12.182835"><ele>412.5</ele><time>2026-03-29T08:43:16.073Z</time></trkpt><trkpt lat="43.1406717" lon="12.1828867"><ele>413.0</ele><time>2026-03-29T08:43:17.073Z</time></trkpt><trkpt lat="43.1405333" lon="12.18293"><ele>413.5</ele><time>2026-03-29T08:43:18.073Z</time></trkpt><trkpt lat="43.1403683" lon="12.18297"><ele>414.0</ele><time>2026-03-29T08:43:19.073Z</time></trkpt><trkpt lat="43.14022" lon="12.183005"><ele>414.0</ele><time>2026-03-29T08:43:20.072Z</time></trkpt><trkpt lat="43.140085" lon="12.1830183"><ele>414.0</ele><time>2026-03-29T08:43:21.073Z</time></trkpt><trkpt lat="43.1399517" lon="12.1830133"><ele>414.0</ele><time>2026-03-29T08:43:22.072Z</time></trkpt><trkpt lat="43.1398217" lon="12.1830133"><ele>414.0</ele><time>2026-03-29T08:43:23.073Z</time></trkpt><trkpt lat="43.139685" lon="12.183025"><ele>414.5</ele><time>2026-03-29T08:43:24.073Z</time></trkpt><trkpt lat="43.1395583" lon="12.1830533"><ele>415.0</ele><time>2026-03-29T08:43:25.073Z</time></trkpt><trkpt lat="43.139445" lon="12.1830583"><ele>415.5</ele><time>2026-03-29T08:43:26.073Z</time></trkpt><trkpt lat="43.1393283" lon="12.1830533"><ele>416.0</ele><time>2026-03-29T08:43:27.073Z</time></trkpt><trkpt lat="43.1392033" lon="12.1830767"><ele>416.0</ele><time>2026-03-29T08:43:28.073Z</time></trkpt><trkpt lat="43.139075" lon="12.1831033"><ele>416.0</ele><time>2026-03-29T08:43:29.072Z</time></trkpt><trkpt lat="43.1389667" lon="12.1831283"><ele>416.0</ele><time>2026-03-29T08:43:30.072Z</time></trkpt><trkpt lat="43.1388517" lon="12.1831333"><ele>416.0</ele><time>2026-03-29T08:43:31.072Z</time></trkpt><trkpt lat="43.138725" lon="12.18312"><ele>415.5</ele><time>2026-03-29T08:43:32.073Z</time></trkpt><trkpt lat="43.1385983" lon="12.1830983"><ele>415.0</ele><time>2026-03-29T08:43:33.073Z</time></trkpt><trkpt lat="43.1384767" lon="12.18307"><ele>414.5</ele><time>2026-03-29T08:43:34.072Z</time></trkpt><trkpt lat="43.1383617" lon="12.1830433"><ele>414.0</ele><time>2026-03-29T08:43:35.072Z</time></trkpt><trkpt lat="43.138245" lon="12.1830233"><ele>412.6</ele><time>2026-03-29T08:43:36.073Z</time></trkpt><trkpt lat="43.138135" lon="12.1830117"><ele>411.2</ele><time>2026-03-29T08:43:37.072Z</time></trkpt><trkpt lat="43.138035" lon="12.183005"><ele>409.8</ele><time>2026-03-29T08:43:38.073Z</time></trkpt><trkpt lat="43.1379417" lon="12.1830017"><ele>408.40000000000003</ele><time>2026-03-29T08:43:39.073Z</time></trkpt><trkpt lat="43.1378383" lon="12.18299"><ele>407.0</ele><time>2026-03-29T08:43:40.073Z</time></trkpt><trkpt lat="43.13776" lon="12.1829733"><ele>406.99999999999994</ele><time>2026-03-29T08:43:41.073Z</time></trkpt><trkpt lat="43.137695" lon="12.182955"><ele>407.0</ele><time>2026-03-29T08:43:42.072Z</time></trkpt><trkpt lat="43.1376217" lon="12.18291"><ele>407.0</ele><time>2026-03-29T08:43:44.073Z</time></trkpt><trkpt lat="43.1375317" lon="12.1828533"><ele>407.0</ele><time>2026-03-29T08:43:46.073Z</time></trkpt><trkpt lat="43.1374617" lon="12.1828217"><ele>406.99999999999994</ele><time>2026-03-29T08:43:47.073Z</time></trkpt><trkpt lat="43.1373683" lon="12.182775"><ele>407.0</ele><time>2026-03-29T08:43:48.073Z</time></trkpt><trkpt lat="43.137265" lon="12.1827417"><ele>405.20000000000005</ele><time>2026-03-29T08:43:49.072Z</time></trkpt><trkpt lat="43.1371633" lon="12.1827317"><ele>403.4</ele><time>2026-03-29T08:43:50.073Z</time></trkpt><trkpt lat="43.137045" lon="12.1827283"><ele>401.6</ele><time>2026-03-29T08:43:51.073Z</time></trkpt><trkpt lat="43.1369283" lon="12.18273"><ele>399.79999999999995</ele><time>2026-03-29T08:43:52.072Z</time></trkpt><trkpt lat="43.13682" lon="12.18273"><ele>398.0</ele><time>2026-03-29T08:43:53.073Z</time></trkpt><trkpt lat="43.136725" lon="12.1827283"><ele>398.0</ele><time>2026-03-29T08:43:54.073Z</time></trkpt><trkpt lat="43.136635" lon="12.18272"><ele>398.0</ele><time>2026-03-29T08:43:55.073Z</time></trkpt><trkpt lat="43.136545" lon="12.182705"><ele>398.0</ele><time>2026-03-29T08:43:56.073Z</time></trkpt><trkpt lat="43.1364533" lon="12.182675"><ele>398.0</ele><time>2026-03-29T08:43:57.073Z</time></trkpt><trkpt lat="43.13636" lon="12.18264"><ele>398.0</ele><time>2026-03-29T08:43:58.073Z</time></trkpt><trkpt lat="43.136265" lon="12.182605"><ele>397.0</ele><time>2026-03-29T08:43:59.072Z</time></trkpt><trkpt lat="43.13616" lon="12.1825633"><ele>396.0</ele><time>2026-03-29T08:44:00.073Z</time></trkpt><trkpt lat="43.13607" lon="12.1825183"><ele>395.0</ele><time>2026-03-29T08:44:01.072Z</time></trkpt><trkpt lat="43.1359883" lon="12.1824833"><ele>394.0</ele><time>2026-03-29T08:44:02.072Z</time></trkpt><trkpt lat="43.13591" lon="12.1824383"><ele>393.0</ele><time>2026-03-29T08:44:03.073Z</time></trkpt><trkpt lat="43.135835" lon="12.1824"><ele>393.0</ele><time>2026-03-29T08:44:04.073Z</time></trkpt><trkpt lat="43.1357767" lon="12.1823533"><ele>393.0</ele><time>2026-03-29T08:44:05.072Z</time></trkpt><trkpt lat="43.1357017" lon="12.1822633"><ele>393.0</ele><time>2026-03-29T08:44:07.073Z</time></trkpt><trkpt lat="43.1356383" lon="12.182205"><ele>393.0</ele><time>2026-03-29T08:44:10.073Z</time></trkpt><trkpt lat="43.135575" lon="12.1821767"><ele>393.0</ele><time>2026-03-29T08:44:16.072Z</time></trkpt><trkpt lat="43.1353833" lon="12.182015"><ele>392.4</ele><time>2026-03-29T08:44:19.072Z</time></trkpt><trkpt lat="43.1353083" lon="12.1819467"><ele>391.79999999999995</ele><time>2026-03-29T08:44:20.073Z</time></trkpt><trkpt lat="43.1352333" lon="12.181875"><ele>391.2</ele><time>2026-03-29T08:44:21.073Z</time></trkpt><trkpt lat="43.1351583" lon="12.1817983"><ele>390.6</ele><time>2026-03-29T08:44:22.072Z</time></trkpt><trkpt lat="43.1350783" lon="12.1817117"><ele>390.0</ele><time>2026-03-29T08:44:23.073Z</time></trkpt><trkpt lat="43.1350067" lon="12.1816433"><ele>390.0</ele><time>2026-03-29T08:44:24.072Z</time></trkpt><trkpt lat="43.134935" lon="12.181565"><ele>390.0</ele><time>2026-03-29T08:44:25.072Z</time></trkpt><trkpt lat="43.1348717" lon="12.1814917"><ele>390.0</ele><time>2026-03-29T08:44:26.073Z</time></trkpt><trkpt lat="43.1348133" lon="12.18143"><ele>390.0</ele><time>2026-03-29T08:44:27.072Z</time></trkpt><trkpt lat="43.1347583" lon="12.1813867"><ele>390.0</ele><time>2026-03-29T08:44:28.072Z</time></trkpt><trkpt lat="43.1346867" lon="12.1813367"><ele>390.0</ele><time>2026-03-29T08:44:30.073Z</time></trkpt><trkpt lat="43.134615" lon="12.1813183"><ele>390.6</ele><time>2026-03-29T08:44:32.073Z</time></trkpt><trkpt lat="43.134545" lon="12.1812717"><ele>391.2</ele><time>2026-03-29T08:44:34.073Z</time></trkpt><trkpt lat="43.1344583" lon="12.181225"><ele>391.79999999999995</ele><time>2026-03-29T08:44:36.072Z</time></trkpt><trkpt lat="43.1343483" lon="12.1811883"><ele>392.4</ele><time>2026-03-29T08:44:38.073Z</time></trkpt><trkpt lat="43.1342817" lon="12.1811417"><ele>393.0</ele><time>2026-03-29T08:44:39.072Z</time></trkpt><trkpt lat="43.1341933" lon="12.18109"><ele>393.0</ele><time>2026-03-29T08:44:40.072Z</time></trkpt><trkpt lat="43.1340933" lon="12.1810317"><ele>393.0</ele><time>2026-03-29T08:44:41.072Z</time></trkpt><trkpt lat="43.133965" lon="12.1809683"><ele>393.0</ele><time>2026-03-29T08:44:42.072Z</time></trkpt><trkpt lat="43.13379" lon="12.1808917"><ele>393.0</ele><time>2026-03-29T08:44:43.072Z</time></trkpt><trkpt lat="43.1335717" lon="12.180785"><ele>390.0</ele><time>2026-03-29T08:44:44.073Z</time></trkpt><trkpt lat="43.1333433" lon="12.1806733"><ele>387.0</ele><time>2026-03-29T08:44:45.072Z</time></trkpt><trkpt lat="43.1331333" lon="12.1805783"><ele>386.66666666666663</ele><time>2026-03-29T08:44:46.072Z</time></trkpt><trkpt lat="43.13294" lon="12.1805"><ele>386.3333333333333</ele><time>2026-03-29T08:44:47.072Z</time></trkpt><trkpt lat="43.1327567" lon="12.180435"><ele>386.0</ele><time>2026-03-29T08:44:48.073Z</time></trkpt><trkpt lat="43.1325883" lon="12.1803583"><ele>386.0</ele><time>2026-03-29T08:44:49.073Z</time></trkpt><trkpt lat="43.1324417" lon="12.1803083"><ele>386.0</ele><time>2026-03-29T08:44:50.072Z</time></trkpt><trkpt lat="43.132315" lon="12.180255"><ele>386.0</ele><time>2026-03-29T08:44:51.073Z</time></trkpt><trkpt lat="43.1322133" lon="12.1801983"><ele>386.0</ele><time>2026-03-29T08:44:52.073Z</time></trkpt><trkpt lat="43.1320517" lon="12.1800767"><ele>385.4</ele><time>2026-03-29T08:44:54.073Z</time></trkpt><trkpt lat="43.1319683" lon="12.18002"><ele>384.8</ele><time>2026-03-29T08:44:55.072Z</time></trkpt><trkpt lat="43.1318683" lon="12.1799733"><ele>384.2</ele><time>2026-03-29T08:44:56.073Z</time></trkpt><trkpt lat="43.131755" lon="12.1799467"><ele>383.59999999999997</ele><time>2026-03-29T08:44:57.073Z</time></trkpt><trkpt lat="43.1316517" lon="12.1799083"><ele>383.0</ele><time>2026-03-29T08:44:58.072Z</time></trkpt><trkpt lat="43.1315567" lon="12.1798633"><ele>381.5</ele><time>2026-03-29T08:44:59.073Z</time></trkpt><trkpt lat="43.1314483" lon="12.1798133"><ele>380.0</ele><time>2026-03-29T08:45:00.073Z</time></trkpt><trkpt lat="43.13134" lon="12.1797317"><ele>378.5</ele><time>2026-03-29T08:45:01.073Z</time></trkpt><trkpt lat="43.1312367" lon="12.179655"><ele>377.0</ele><time>2026-03-29T08:45:02.073Z</time></trkpt><trkpt lat="43.1311083" lon="12.1795917"><ele>377.0</ele><time>2026-03-29T08:45:03.073Z</time></trkpt><trkpt lat="43.13094" lon="12.179525"><ele>377.0</ele><time>2026-03-29T08:45:04.073Z</time></trkpt><trkpt lat="43.1307517" lon="12.1794517"><ele>377.0</ele><time>2026-03-29T08:45:05.073Z</time></trkpt><trkpt lat="43.1305483" lon="12.179365"><ele>377.6666666666667</ele><time>2026-03-29T08:45:06.073Z</time></trkpt><trkpt lat="43.1303517" lon="12.1792967"><ele>378.3333333333333</ele><time>2026-03-29T08:45:07.072Z</time></trkpt><trkpt lat="43.1301733" lon="12.179225"><ele>379.0</ele><time>2026-03-29T08:45:08.073Z</time></trkpt><trkpt lat="43.1300083" lon="12.1791517"><ele>378.25</ele><time>2026-03-29T08:45:09.073Z</time></trkpt><trkpt lat="43.129855" lon="12.1790833"><ele>377.5</ele><time>2026-03-29T08:45:10.073Z</time></trkpt><trkpt lat="43.1297167" lon="12.1790267"><ele>376.75</ele><time>2026-03-29T08:45:11.073Z</time></trkpt><trkpt lat="43.12959" lon="12.1789767"><ele>376.0</ele><time>2026-03-29T08:45:12.073Z</time></trkpt><trkpt lat="43.1294683" lon="12.178925"><ele>376.0</ele><time>2026-03-29T08:45:13.073Z</time></trkpt><trkpt lat="43.1293667" lon="12.178875"><ele>376.0</ele><time>2026-03-29T08:45:14.073Z</time></trkpt><trkpt lat="43.1292783" lon="12.1788283"><ele>376.0</ele><time>2026-03-29T08:45:15.072Z</time></trkpt><trkpt lat="43.1291917" lon="12.178785"><ele>376.0</ele><time>2026-03-29T08:45:16.073Z</time></trkpt><trkpt lat="43.12911" lon="12.178735"><ele>376.0</ele><time>2026-03-29T08:45:17.073Z</time></trkpt><trkpt lat="43.129025" lon="12.1787"><ele>376.0</ele><time>2026-03-29T08:45:18.072Z</time></trkpt><trkpt lat="43.1289467" lon="12.1786683"><ele>376.0</ele><time>2026-03-29T08:45:19.073Z</time></trkpt><trkpt lat="43.1288783" lon="12.1786333"><ele>376.0</ele><time>2026-03-29T08:45:20.073Z</time></trkpt><trkpt lat="43.1288083" lon="12.1786"><ele>376.0</ele><time>2026-03-29T08:45:21.073Z</time></trkpt><trkpt lat="43.128735" lon="12.17857"><ele>376.0</ele><time>2026-03-29T08:45:22.073Z</time></trkpt><trkpt lat="43.12867" lon="12.1785433"><ele>376.0</ele><time>2026-03-29T08:45:23.073Z</time></trkpt><trkpt lat="43.1286067" lon="12.178505"><ele>376.0</ele><time>2026-03-29T08:45:24.073Z</time></trkpt><trkpt lat="43.1285467" lon="12.1784717"><ele>376.0</ele><time>2026-03-29T08:45:25.072Z</time></trkpt><trkpt lat="43.12843" lon="12.1784083"><ele>376.0</ele><time>2026-03-29T08:45:27.073Z</time></trkpt><trkpt lat="43.1283633" lon="12.1783833"><ele>376.0</ele><time>2026-03-29T08:45:28.073Z</time></trkpt><trkpt lat="43.1283083" lon="12.1783383"><ele>376.0</ele><time>2026-03-29T08:45:29.073Z</time></trkpt><trkpt lat="43.1282533" lon="12.178285"><ele>376.0</ele><time>2026-03-29T08:45:30.073Z</time></trkpt><trkpt lat="43.1281983" lon="12.1782417"><ele>376.0</ele><time>2026-03-29T08:45:31.072Z</time></trkpt><trkpt lat="43.12808" lon="12.17818"><ele>375.5</ele><time>2026-03-29T08:45:33.072Z</time></trkpt><trkpt lat="43.12802" lon="12.1781383"><ele>375.0</ele><time>2026-03-29T08:45:34.073Z</time></trkpt><trkpt lat="43.12796" lon="12.1780817"><ele>374.5</ele><time>2026-03-29T08:45:35.073Z</time></trkpt><trkpt lat="43.12791" lon="12.1780217"><ele>374.0</ele><time>2026-03-29T08:45:36.073Z</time></trkpt><trkpt lat="43.12786" lon="12.1779433"><ele>373.5</ele><time>2026-03-29T08:45:37.072Z</time></trkpt><trkpt lat="43.1278" lon="12.17786"><ele>373.0</ele><time>2026-03-29T08:45:38.073Z</time></trkpt><trkpt lat="43.1277433" lon="12.1777667"><ele>373.0</ele><time>2026-03-29T08:45:39.073Z</time></trkpt><trkpt lat="43.12768" lon="12.1776767"><ele>373.0</ele><time>2026-03-29T08:45:40.073Z</time></trkpt><trkpt lat="43.1276217" lon="12.17759"><ele>373.0</ele><time>2026-03-29T08:45:41.073Z</time></trkpt><trkpt lat="43.127565" lon="12.1774983"><ele>373.0</ele><time>2026-03-29T08:45:42.073Z</time></trkpt><trkpt lat="43.1275167" lon="12.1774217"><ele>373.0</ele><time>2026-03-29T08:45:43.073Z</time></trkpt><trkpt lat="43.1274533" lon="12.1773417"><ele>373.0</ele><time>2026-03-29T08:45:45.073Z</time></trkpt><trkpt lat="43.1273767" lon="12.1772733"><ele>373.4</ele><time>2026-03-29T08:45:48.072Z</time></trkpt><trkpt lat="43.127295" lon="12.1772367"><ele>373.79999999999995</ele><time>2026-03-29T08:45:50.072Z</time></trkpt><trkpt lat="43.12718" lon="12.1772867"><ele>374.2</ele><time>2026-03-29T08:45:52.073Z</time></trkpt><trkpt lat="43.127115" lon="12.17736"><ele>374.6</ele><time>2026-03-29T08:45:53.073Z</time></trkpt><trkpt lat="43.1270467" lon="12.1774667"><ele>375.0</ele><time>2026-03-29T08:45:54.073Z</time></trkpt><trkpt lat="43.1269667" lon="12.1775883"><ele>375.0</ele><time>2026-03-29T08:45:55.073Z</time></trkpt><trkpt lat="43.126875" lon="12.1777033"><ele>375.0</ele><time>2026-03-29T08:45:56.073Z</time></trkpt><trkpt lat="43.126785" lon="12.1777933"><ele>375.0</ele><time>2026-03-29T08:45:57.072Z</time></trkpt><trkpt lat="43.1267033" lon="12.17786"><ele>375.0</ele><time>2026-03-29T08:45:58.072Z</time></trkpt><trkpt lat="43.12659" lon="12.17789"><ele>375.0</ele><time>2026-03-29T08:45:59.072Z</time></trkpt><trkpt lat="43.1264533" lon="12.1779033"><ele>378.33333333333337</ele><time>2026-03-29T08:46:00.073Z</time></trkpt><trkpt lat="43.12628" lon="12.1779"><ele>381.6666666666667</ele><time>2026-03-29T08:46:01.072Z</time></trkpt><trkpt lat="43.1260917" lon="12.1778933"><ele>385.0</ele><time>2026-03-29T08:46:02.073Z</time></trkpt><trkpt lat="43.125905" lon="12.1778983"><ele>385.0</ele><time>2026-03-29T08:46:03.073Z</time></trkpt><trkpt lat="43.1257417" lon="12.1779333"><ele>385.0</ele><time>2026-03-29T08:46:04.072Z</time></trkpt><trkpt lat="43.1256033" lon="12.1779667"><ele>385.0</ele><time>2026-03-29T08:46:05.073Z</time></trkpt><trkpt lat="43.1254833" lon="12.178045"><ele>385.0</ele><time>2026-03-29T08:46:06.073Z</time></trkpt><trkpt lat="43.1253767" lon="12.1781217"><ele>384.25</ele><time>2026-03-29T08:46:07.073Z</time></trkpt><trkpt lat="43.1252783" lon="12.17821"><ele>383.5</ele><time>2026-03-29T08:46:08.073Z</time></trkpt><trkpt lat="43.125185" lon="12.178355"><ele>382.75</ele><time>2026-03-29T08:46:09.073Z</time></trkpt><trkpt lat="43.12509" lon="12.1785017"><ele>382.0</ele><time>2026-03-29T08:46:10.072Z</time></trkpt><trkpt lat="43.125" lon="12.17863"><ele>382.0</ele><time>2026-03-29T08:46:11.072Z</time></trkpt><trkpt lat="43.1249317" lon="12.1787133"><ele>382.0</ele><time>2026-03-29T08:46:12.073Z</time></trkpt><trkpt lat="43.1248533" lon="12.1787683"><ele>382.0</ele><time>2026-03-29T08:46:14.072Z</time></trkpt><trkpt lat="43.124745" lon="12.1786833"><ele>382.0</ele><time>2026-03-29T08:46:16.073Z</time></trkpt><trkpt lat="43.1246617" lon="12.17864"><ele>382.0</ele><time>2026-03-29T08:46:17.072Z</time></trkpt><trkpt lat="43.1245367" lon="12.178595"><ele>381.0</ele><time>2026-03-29T08:46:18.073Z</time></trkpt><trkpt lat="43.124355" lon="12.17856"><ele>380.0</ele><time>2026-03-29T08:46:19.073Z</time></trkpt><trkpt lat="43.1241633" lon="12.1785067"><ele>379.0</ele><time>2026-03-29T08:46:20.073Z</time></trkpt><trkpt lat="43.12399" lon="12.17845"><ele>375.0</ele><time>2026-03-29T08:46:21.072Z</time></trkpt><trkpt lat="43.123825" lon="12.178405"><ele>371.0</ele><time>2026-03-29T08:46:22.072Z</time></trkpt><trkpt lat="43.1236667" lon="12.1783683"><ele>367.0</ele><time>2026-03-29T08:46:23.073Z</time></trkpt><trkpt lat="43.12352" lon="12.1783233"><ele>367.0</ele><time>2026-03-29T08:46:24.073Z</time></trkpt><trkpt lat="43.1233833" lon="12.1782783"><ele>367.0</ele><time>2026-03-29T08:46:25.073Z</time></trkpt><trkpt lat="43.1232533" lon="12.17824"><ele>367.0</ele><time>2026-03-29T08:46:26.072Z</time></trkpt><trkpt lat="43.1231383" lon="12.17817"><ele>367.0</ele><time>2026-03-29T08:46:27.073Z</time></trkpt><trkpt lat="43.12302" lon="12.178105"><ele>368.5</ele><time>2026-03-29T08:46:28.073Z</time></trkpt><trkpt lat="43.122905" lon="12.1780317"><ele>370.0</ele><time>2026-03-29T08:46:29.073Z</time></trkpt><trkpt lat="43.12278" lon="12.177945"><ele>371.5</ele><time>2026-03-29T08:46:30.073Z</time></trkpt><trkpt lat="43.1226567" lon="12.1778583"><ele>373.0</ele><time>2026-03-29T08:46:31.073Z</time></trkpt><trkpt lat="43.12253" lon="12.177765"><ele>373.0</ele><time>2026-03-29T08:46:32.073Z</time></trkpt><trkpt lat="43.1224067" lon="12.1776733"><ele>373.0</ele><time>2026-03-29T08:46:33.073Z</time></trkpt><trkpt lat="43.1222833" lon="12.1775767"><ele>373.0</ele><time>2026-03-29T08:46:34.073Z</time></trkpt><trkpt lat="43.1221617" lon="12.1774883"><ele>373.0</ele><time>2026-03-29T08:46:35.073Z</time></trkpt><trkpt lat="43.122045" lon="12.1773967"><ele>373.5</ele><time>2026-03-29T08:46:36.073Z</time></trkpt><trkpt lat="43.1219183" lon="12.177305"><ele>374.0</ele><time>2026-03-29T08:46:37.073Z</time></trkpt><trkpt lat="43.121795" lon="12.17721"><ele>374.5</ele><time>2026-03-29T08:46:38.072Z</time></trkpt><trkpt lat="43.121675" lon="12.177125"><ele>375.0</ele><time>2026-03-29T08:46:39.073Z</time></trkpt><trkpt lat="43.1215533" lon="12.177035"><ele>370.0</ele><time>2026-03-29T08:46:40.073Z</time></trkpt><trkpt lat="43.1214317" lon="12.1769483"><ele>365.0</ele><time>2026-03-29T08:46:41.072Z</time></trkpt><trkpt lat="43.1213033" lon="12.17686"><ele>360.0</ele><time>2026-03-29T08:46:42.073Z</time></trkpt><trkpt lat="43.121185" lon="12.176755"><ele>355.0</ele><time>2026-03-29T08:46:43.073Z</time></trkpt><trkpt lat="43.1210567" lon="12.176665"><ele>355.0</ele><time>2026-03-29T08:46:44.072Z</time></trkpt><trkpt lat="43.1209333" lon="12.17659"><ele>355.0</ele><time>2026-03-29T08:46:45.073Z</time></trkpt><trkpt lat="43.1208117" lon="12.17651"><ele>355.0</ele><time>2026-03-29T08:46:46.072Z</time></trkpt><trkpt lat="43.12069" lon="12.17643"><ele>355.0</ele><time>2026-03-29T08:46:47.072Z</time></trkpt><trkpt lat="43.12057" lon="12.1763533"><ele>354.25</ele><time>2026-03-29T08:46:48.073Z</time></trkpt><trkpt lat="43.1204383" lon="12.1762833"><ele>353.5</ele><time>2026-03-29T08:46:49.072Z</time></trkpt><trkpt lat="43.1203017" lon="12.176225"><ele>352.75</ele><time>2026-03-29T08:46:50.073Z</time></trkpt><trkpt lat="43.1201633" lon="12.1761717"><ele>352.0</ele><time>2026-03-29T08:46:51.073Z</time></trkpt><trkpt lat="43.120025" lon="12.1761067"><ele>348.0</ele><time>2026-03-29T08:46:52.073Z</time></trkpt><trkpt lat="43.1198867" lon="12.1760467"><ele>344.0</ele><time>2026-03-29T08:46:53.073Z</time></trkpt><trkpt lat="43.1197467" lon="12.1759783"><ele>340.0</ele><time>2026-03-29T08:46:54.072Z</time></trkpt><trkpt lat="43.1196133" lon="12.1759083"><ele>336.0</ele><time>2026-03-29T08:46:55.073Z</time></trkpt><trkpt lat="43.1194783" lon="12.1758483"><ele>336.0</ele><time>2026-03-29T08:46:56.073Z</time></trkpt><trkpt lat="43.1193517" lon="12.1757933"><ele>336.0</ele><time>2026-03-29T08:46:57.073Z</time></trkpt><trkpt lat="43.1192317" lon="12.17572"><ele>336.0</ele><time>2026-03-29T08:46:58.072Z</time></trkpt><trkpt lat="43.11911" lon="12.1756417"><ele>336.0</ele><time>2026-03-29T08:46:59.073Z</time></trkpt><trkpt lat="43.11898" lon="12.17555"><ele>333.0</ele><time>2026-03-29T08:47:00.073Z</time></trkpt><trkpt lat="43.118855" lon="12.1754533"><ele>330.0</ele><time>2026-03-29T08:47:01.073Z</time></trkpt><trkpt lat="43.1187367" lon="12.1753483"><ele>327.0</ele><time>2026-03-29T08:47:02.073Z</time></trkpt><trkpt lat="43.1186233" lon="12.175245"><ele>324.0</ele><time>2026-03-29T08:47:03.072Z</time></trkpt><trkpt lat="43.1185167" lon="12.175145"><ele>324.0</ele><time>2026-03-29T08:47:04.072Z</time></trkpt><trkpt lat="43.1184167" lon="12.1750617"><ele>324.0</ele><time>2026-03-29T08:47:05.073Z</time></trkpt><trkpt lat="43.1183333" lon="12.1749867"><ele>324.0</ele><time>2026-03-29T08:47:06.073Z</time></trkpt><trkpt lat="43.1182633" lon="12.1749133"><ele>324.0</ele><time>2026-03-29T08:47:07.073Z</time></trkpt><trkpt lat="43.1182083" lon="12.1748383"><ele>324.0</ele><time>2026-03-29T08:47:08.072Z</time></trkpt><trkpt lat="43.118165" lon="12.174755"><ele>321.8333333333333</ele><time>2026-03-29T08:47:09.073Z</time></trkpt><trkpt lat="43.11811" lon="12.1746833"><ele>319.6666666666667</ele><time>2026-03-29T08:47:10.073Z</time></trkpt><trkpt lat="43.1180483" lon="12.1746283"><ele>317.5</ele><time>2026-03-29T08:47:11.072Z</time></trkpt><trkpt lat="43.1179767" lon="12.174605"><ele>315.33333333333337</ele><time>2026-03-29T08:47:12.073Z</time></trkpt><trkpt lat="43.117895" lon="12.1746183"><ele>313.1666666666667</ele><time>2026-03-29T08:47:13.073Z</time></trkpt><trkpt lat="43.1178117" lon="12.17466"><ele>311.0</ele><time>2026-03-29T08:47:14.073Z</time></trkpt><trkpt lat="43.1177333" lon="12.174705"><ele>311.0</ele><time>2026-03-29T08:47:15.073Z</time></trkpt><trkpt lat="43.1176467" lon="12.1747267"><ele>311.0</ele><time>2026-03-29T08:47:16.073Z</time></trkpt><trkpt lat="43.1175683" lon="12.1747167"><ele>311.0</ele><time>2026-03-29T08:47:17.073Z</time></trkpt><trkpt lat="43.1174883" lon="12.174685"><ele>311.0</ele><time>2026-03-29T08:47:18.073Z</time></trkpt><trkpt lat="43.117425" lon="12.1746217"><ele>311.0</ele><time>2026-03-29T08:47:19.072Z</time></trkpt><trkpt lat="43.1173617" lon="12.1745333"><ele>311.0</ele><time>2026-03-29T08:47:20.072Z</time></trkpt><trkpt lat="43.1173067" lon="12.1744767"><ele>310.0</ele><time>2026-03-29T08:47:21.073Z</time></trkpt><trkpt lat="43.1172467" lon="12.1744233"><ele>309.0</ele><time>2026-03-29T08:47:22.073Z</time></trkpt><trkpt lat="43.1171833" lon="12.17437"><ele>308.0</ele><time>2026-03-29T08:47:23.072Z</time></trkpt><trkpt lat="43.117135" lon="12.1743033"><ele>307.0</ele><time>2026-03-29T08:47:24.073Z</time></trkpt><trkpt lat="43.11708" lon="12.174245"><ele>306.0</ele><time>2026-03-29T08:47:25.072Z</time></trkpt><trkpt lat="43.1170233" lon="12.17419"><ele>305.0</ele><time>2026-03-29T08:47:26.073Z</time></trkpt><trkpt lat="43.1169617" lon="12.1741433"><ele>304.0</ele><time>2026-03-29T08:47:27.073Z</time></trkpt><trkpt lat="43.1169" lon="12.1740933"><ele>304.0</ele><time>2026-03-29T08:47:28.073Z</time></trkpt><trkpt lat="43.116825" lon="12.174075"><ele>304.0</ele><time>2026-03-29T08:47:29.072Z</time></trkpt><trkpt lat="43.1167533" lon="12.17405"><ele>304.0</ele><time>2026-03-29T08:47:30.072Z</time></trkpt><trkpt lat="43.116675" lon="12.1740267"><ele>304.0</ele><time>2026-03-29T08:47:31.073Z</time></trkpt><trkpt lat="43.116595" lon="12.174"><ele>304.0</ele><time>2026-03-29T08:47:32.073Z</time></trkpt><trkpt lat="43.11651" lon="12.1739817"><ele>304.0</ele><time>2026-03-29T08:47:33.073Z</time></trkpt><trkpt lat="43.1164233" lon="12.173965"><ele>301.8333333333333</ele><time>2026-03-29T08:47:34.073Z</time></trkpt><trkpt lat="43.1163433" lon="12.1739483"><ele>299.66666666666663</ele><time>2026-03-29T08:47:35.073Z</time></trkpt><trkpt lat="43.1162717" lon="12.1739283"><ele>297.5</ele><time>2026-03-29T08:47:36.072Z</time></trkpt><trkpt lat="43.1161967" lon="12.1739317"><ele>295.3333333333333</ele><time>2026-03-29T08:47:37.073Z</time></trkpt><trkpt lat="43.116095" lon="12.1740183"><ele>293.1666666666667</ele><time>2026-03-29T08:47:39.073Z</time></trkpt><trkpt lat="43.1160733" lon="12.1741017"><ele>291.0</ele><time>2026-03-29T08:47:40.073Z</time></trkpt><trkpt lat="43.1161067" lon="12.17423"><ele>291.0</ele><time>2026-03-29T08:47:41.073Z</time></trkpt><trkpt lat="43.1161433" lon="12.17437"><ele>291.0</ele><time>2026-03-29T08:47:42.072Z</time></trkpt><trkpt lat="43.1162" lon="12.1745283"><ele>291.0</ele><time>2026-03-29T08:47:43.073Z</time></trkpt><trkpt lat="43.1162717" lon="12.1747033"><ele>291.0</ele><time>2026-03-29T08:47:44.073Z</time></trkpt><trkpt lat="43.116335" lon="12.1748717"><ele>289.25</ele><time>2026-03-29T08:47:45.073Z</time></trkpt><trkpt lat="43.1163983" lon="12.17503"><ele>287.5</ele><time>2026-03-29T08:47:46.073Z</time></trkpt><trkpt lat="43.1164633" lon="12.1751867"><ele>285.75</ele><time>2026-03-29T08:47:47.073Z</time></trkpt><trkpt lat="43.1165333" lon="12.175345"><ele>284.0</ele><time>2026-03-29T08:47:48.073Z</time></trkpt><trkpt lat="43.11661" lon="12.175505"><ele>285.75</ele><time>2026-03-29T08:47:49.072Z</time></trkpt><trkpt lat="43.11668" lon="12.1756633"><ele>287.5</ele><time>2026-03-29T08:47:50.072Z</time></trkpt><trkpt lat="43.1167583" lon="12.1758067"><ele>289.25</ele><time>2026-03-29T08:47:51.073Z</time></trkpt><trkpt lat="43.1168383" lon="12.1759367"><ele>291.0</ele><time>2026-03-29T08:47:52.073Z</time></trkpt><trkpt lat="43.1169183" lon="12.1760417"><ele>291.0</ele><time>2026-03-29T08:47:53.073Z</time></trkpt><trkpt lat="43.1169933" lon="12.1761383"><ele>291.0</ele><time>2026-03-29T08:47:54.072Z</time></trkpt><trkpt lat="43.1170533" lon="12.1762233"><ele>291.0</ele><time>2026-03-29T08:47:55.072Z</time></trkpt><trkpt lat="43.1170983" lon="12.1763067"><ele>291.0</ele><time>2026-03-29T08:47:56.072Z</time></trkpt><trkpt lat="43.1171383" lon="12.1763933"><ele>291.0</ele><time>2026-03-29T08:47:57.072Z</time></trkpt><trkpt lat="43.117175" lon="12.1764683"><ele>291.0</ele><time>2026-03-29T08:47:58.073Z</time></trkpt><trkpt lat="43.1172067" lon="12.17659"><ele>288.8</ele><time>2026-03-29T08:48:00.073Z</time></trkpt><trkpt lat="43.11714" lon="12.17666"><ele>286.6</ele><time>2026-03-29T08:48:02.073Z</time></trkpt><trkpt lat="43.1170767" lon="12.17667"><ele>284.4</ele><time>2026-03-29T08:48:03.073Z</time></trkpt><trkpt lat="43.1169717" lon="12.1766433"><ele>282.2</ele><time>2026-03-29T08:48:04.073Z</time></trkpt><trkpt lat="43.11686" lon="12.176615"><ele>280.0</ele><time>2026-03-29T08:48:05.073Z</time></trkpt><trkpt lat="43.1167483" lon="12.1765817"><ele>280.0</ele><time>2026-03-29T08:48:06.073Z</time></trkpt><trkpt lat="43.1166267" lon="12.17654"><ele>280.0</ele><time>2026-03-29T08:48:07.073Z</time></trkpt><trkpt lat="43.1165167" lon="12.1765033"><ele>280.0</ele><time>2026-03-29T08:48:08.072Z</time></trkpt><trkpt lat="43.1164117" lon="12.17649"><ele>280.0</ele><time>2026-03-29T08:48:09.073Z</time></trkpt><trkpt lat="43.11631" lon="12.1764967"><ele>280.0</ele><time>2026-03-29T08:48:10.072Z</time></trkpt><trkpt lat="43.11622" lon="12.176495"><ele>279.8333333333333</ele><time>2026-03-29T08:48:11.073Z</time></trkpt><trkpt lat="43.1161517" lon="12.1764867"><ele>279.66666666666663</ele><time>2026-03-29T08:48:12.073Z</time></trkpt><trkpt lat="43.1160917" lon="12.1764367"><ele>279.5</ele><time>2026-03-29T08:48:13.073Z</time></trkpt><trkpt lat="43.1160267" lon="12.17636"><ele>279.3333333333333</ele><time>2026-03-29T08:48:14.072Z</time></trkpt><trkpt lat="43.115955" lon="12.1762617"><ele>279.1666666666667</ele><time>2026-03-29T08:48:15.072Z</time></trkpt><trkpt lat="43.11588" lon="12.17615"><ele>279.0</ele><time>2026-03-29T08:48:16.073Z</time></trkpt><trkpt lat="43.1158017" lon="12.1760367"><ele>277.8</ele><time>2026-03-29T08:48:17.072Z</time></trkpt><trkpt lat="43.115725" lon="12.17592"><ele>276.59999999999997</ele><time>2026-03-29T08:48:18.073Z</time></trkpt><trkpt lat="43.1156483" lon="12.175815"><ele>275.4</ele><time>2026-03-29T08:48:19.073Z</time></trkpt><trkpt lat="43.1155717" lon="12.1757217"><ele>274.2</ele><time>2026-03-29T08:48:20.073Z</time></trkpt><trkpt lat="43.11549" lon="12.1756367"><ele>273.0</ele><time>2026-03-29T08:48:21.073Z</time></trkpt><trkpt lat="43.1153983" lon="12.1755617"><ele>273.0</ele><time>2026-03-29T08:48:22.073Z</time></trkpt><trkpt lat="43.1153217" lon="12.1754783"><ele>273.0</ele><time>2026-03-29T08:48:23.073Z</time></trkpt><trkpt lat="43.1152467" lon="12.1754"><ele>273.0</ele><time>2026-03-29T08:48:24.072Z</time></trkpt><trkpt lat="43.115175" lon="12.175315"><ele>273.0</ele><time>2026-03-29T08:48:25.073Z</time></trkpt><trkpt lat="43.115115" lon="12.1752183"><ele>273.0</ele><time>2026-03-29T08:48:26.072Z</time></trkpt><trkpt lat="43.1150783" lon="12.1751283"><ele>273.0</ele><time>2026-03-29T08:48:27.073Z</time></trkpt><trkpt lat="43.1150333" lon="12.175045"><ele>273.0</ele><time>2026-03-29T08:48:28.072Z</time></trkpt><trkpt lat="43.1149767" lon="12.1749683"><ele>273.0</ele><time>2026-03-29T08:48:29.073Z</time></trkpt><trkpt lat="43.1149067" lon="12.174905"><ele>273.0</ele><time>2026-03-29T08:48:30.072Z</time></trkpt><trkpt lat="43.1148483" lon="12.1748467"><ele>273.0</ele><time>2026-03-29T08:48:31.073Z</time></trkpt><trkpt lat="43.1147833" lon="12.1747917"><ele>273.0</ele><time>2026-03-29T08:48:32.072Z</time></trkpt><trkpt lat="43.1147067" lon="12.1747483"><ele>271.2</ele><time>2026-03-29T08:48:33.073Z</time></trkpt><trkpt lat="43.1146267" lon="12.17471"><ele>269.4</ele><time>2026-03-29T08:48:34.073Z</time></trkpt><trkpt lat="43.1145417" lon="12.1746583"><ele>267.59999999999997</ele><time>2026-03-29T08:48:35.073Z</time></trkpt><trkpt lat="43.1144633" lon="12.1746"><ele>265.8</ele><time>2026-03-29T08:48:36.073Z</time></trkpt><trkpt lat="43.1143833" lon="12.174535"><ele>264.0</ele><time>2026-03-29T08:48:37.073Z</time></trkpt><trkpt lat="43.1143133" lon="12.174455"><ele>264.0</ele><time>2026-03-29T08:48:38.073Z</time></trkpt><trkpt lat="43.114255" lon="12.1743617"><ele>264.0</ele><time>2026-03-29T08:48:39.073Z</time></trkpt><trkpt lat="43.1142083" lon="12.1742717"><ele>264.0</ele><time>2026-03-29T08:48:40.073Z</time></trkpt><trkpt lat="43.1141667" lon="12.17419"><ele>264.0</ele><time>2026-03-29T08:48:41.073Z</time></trkpt><trkpt lat="43.1140967" lon="12.174085"><ele>264.0</ele><time>2026-03-29T08:48:43.073Z</time></trkpt><trkpt lat="43.1140083" lon="12.1741583"><ele>263.0</ele><time>2026-03-29T08:48:48.073Z</time></trkpt><trkpt lat="43.1139833" lon="12.17426"><ele>262.0</ele><time>2026-03-29T08:48:49.073Z</time></trkpt><trkpt lat="43.1139483" lon="12.1743783"><ele>261.0</ele><time>2026-03-29T08:48:50.073Z</time></trkpt><trkpt lat="43.1138983" lon="12.1745067"><ele>260.0</ele><time>2026-03-29T08:48:51.073Z</time></trkpt><trkpt lat="43.1138317" lon="12.1746317"><ele>259.0</ele><time>2026-03-29T08:48:52.073Z</time></trkpt><trkpt lat="43.1137667" lon="12.1747683"><ele>259.0</ele><time>2026-03-29T08:48:53.073Z</time></trkpt><trkpt lat="43.1137033" lon="12.1749267"><ele>259.0</ele><time>2026-03-29T08:48:54.073Z</time></trkpt><trkpt lat="43.1136283" lon="12.1751117"><ele>259.0</ele><time>2026-03-29T08:48:55.073Z</time></trkpt><trkpt lat="43.1135417" lon="12.1753083"><ele>259.0</ele><time>2026-03-29T08:48:56.073Z</time></trkpt><trkpt lat="43.1134467" lon="12.1754967"><ele>259.0</ele><time>2026-03-29T08:48:57.073Z</time></trkpt><trkpt lat="43.1133667" lon="12.17568"><ele>259.0</ele><time>2026-03-29T08:48:58.073Z</time></trkpt><trkpt lat="43.1132983" lon="12.1758617"><ele>258.3333333333333</ele><time>2026-03-29T08:48:59.073Z</time></trkpt><trkpt lat="43.11323" lon="12.1760517"><ele>257.6666666666667</ele><time>2026-03-29T08:49:00.073Z</time></trkpt><trkpt lat="43.11317" lon="12.1762467"><ele>257.0</ele><time>2026-03-29T08:49:01.073Z</time></trkpt><trkpt lat="43.1131317" lon="12.176475"><ele>257.5</ele><time>2026-03-29T08:49:02.073Z</time></trkpt><trkpt lat="43.113085" lon="12.1767583"><ele>258.0</ele><time>2026-03-29T08:49:03.072Z</time></trkpt><trkpt lat="43.11302" lon="12.177105"><ele>258.0</ele><time>2026-03-29T08:49:04.073Z</time></trkpt><trkpt lat="43.1129367" lon="12.1774833"><ele>258.0</ele><time>2026-03-29T08:49:05.073Z</time></trkpt><trkpt lat="43.11286" lon="12.177865"><ele>259.0</ele><time>2026-03-29T08:49:06.073Z</time></trkpt><trkpt lat="43.112785" lon="12.1781967"><ele>260.0</ele><time>2026-03-29T08:49:07.073Z</time></trkpt><trkpt lat="43.1127233" lon="12.1784867"><ele>260.0</ele><time>2026-03-29T08:49:08.072Z</time></trkpt><trkpt lat="43.1126733" lon="12.17874"><ele>260.0</ele><time>2026-03-29T08:49:09.073Z</time></trkpt><trkpt lat="43.112625" lon="12.1789717"><ele>260.0</ele><time>2026-03-29T08:49:10.073Z</time></trkpt><trkpt lat="43.112575" lon="12.179185"><ele>260.33333333333337</ele><time>2026-03-29T08:49:11.073Z</time></trkpt><trkpt lat="43.11252" lon="12.17939"><ele>260.6666666666667</ele><time>2026-03-29T08:49:12.073Z</time></trkpt><trkpt lat="43.11246" lon="12.1795817"><ele>261.0</ele><time>2026-03-29T08:49:13.073Z</time></trkpt><trkpt lat="43.11239" lon="12.1797683"><ele>260.0</ele><time>2026-03-29T08:49:14.073Z</time></trkpt><trkpt lat="43.1123083" lon="12.1799383"><ele>259.0</ele><time>2026-03-29T08:49:15.073Z</time></trkpt><trkpt lat="43.11222" lon="12.18011"><ele>258.0</ele><time>2026-03-29T08:49:16.072Z</time></trkpt><trkpt lat="43.1121383" lon="12.1802817"><ele>258.0</ele><time>2026-03-29T08:49:17.073Z</time></trkpt><trkpt lat="43.1120617" lon="12.180445"><ele>258.0</ele><time>2026-03-29T08:49:18.073Z</time></trkpt><trkpt lat="43.1119933" lon="12.180575"><ele>258.0</ele><time>2026-03-29T08:49:19.073Z</time></trkpt><trkpt lat="43.1119383" lon="12.180695"><ele>258.0</ele><time>2026-03-29T08:49:20.072Z</time></trkpt><trkpt lat="43.1119133" lon="12.1808017"><ele>258.0</ele><time>2026-03-29T08:49:21.072Z</time></trkpt><trkpt lat="43.111905" lon="12.18089"><ele>258.5</ele><time>2026-03-29T08:49:22.072Z</time></trkpt><trkpt lat="43.111895" lon="12.1810267"><ele>259.0</ele><time>2026-03-29T08:49:24.073Z</time></trkpt><trkpt lat="43.1118183" lon="12.181075"><ele>259.5</ele><time>2026-03-29T08:53:01.073Z</time></trkpt><trkpt lat="43.1117517" lon="12.181085"><ele>260.0</ele><time>2026-03-29T08:53:03.074Z</time></trkpt><trkpt lat="43.1116833" lon="12.181135"><ele>260.5</ele><time>2026-03-29T08:53:05.073Z</time></trkpt><trkpt lat="43.1116333" lon="12.1812217"><ele>261.0</ele><time>2026-03-29T08:53:06.073Z</time></trkpt><trkpt lat="43.11158" lon="12.18133"><ele>260.8</ele><time>2026-03-29T08:53:07.074Z</time></trkpt><trkpt lat="43.11152" lon="12.181445"><ele>260.6</ele><time>2026-03-29T08:53:08.074Z</time></trkpt><trkpt lat="43.1114667" lon="12.1815633"><ele>260.4</ele><time>2026-03-29T08:53:09.074Z</time></trkpt><trkpt lat="43.1114017" lon="12.1816833"><ele>260.2</ele><time>2026-03-29T08:53:10.073Z</time></trkpt><trkpt lat="43.1113367" lon="12.1818067"><ele>260.0</ele><time>2026-03-29T08:53:11.074Z</time></trkpt><trkpt lat="43.1112667" lon="12.1819283"><ele>260.0</ele><time>2026-03-29T08:53:12.074Z</time></trkpt><trkpt lat="43.1111833" lon="12.1820617"><ele>260.0</ele><time>2026-03-29T08:53:13.074Z</time></trkpt><trkpt lat="43.1110967" lon="12.18219"><ele>260.0</ele><time>2026-03-29T08:53:14.074Z</time></trkpt><trkpt lat="43.1110167" lon="12.1823267"><ele>260.0</ele><time>2026-03-29T08:53:15.074Z</time></trkpt><trkpt lat="43.11093" lon="12.1824667"><ele>260.25</ele><time>2026-03-29T08:53:16.074Z</time></trkpt><trkpt lat="43.11084" lon="12.1826033"><ele>260.5</ele><time>2026-03-29T08:53:17.074Z</time></trkpt><trkpt lat="43.1107517" lon="12.1827533"><ele>260.75</ele><time>2026-03-29T08:53:18.074Z</time></trkpt><trkpt lat="43.1106567" lon="12.1829067"><ele>261.0</ele><time>2026-03-29T08:53:19.074Z</time></trkpt><trkpt lat="43.11055" lon="12.1830567"><ele>260.5</ele><time>2026-03-29T08:53:20.074Z</time></trkpt><trkpt lat="43.1104517" lon="12.1832083"><ele>260.0</ele><time>2026-03-29T08:53:21.074Z</time></trkpt><trkpt lat="43.110345" lon="12.18336"><ele>259.5</ele><time>2026-03-29T08:53:22.074Z</time></trkpt><trkpt lat="43.1102517" lon="12.1835067"><ele>259.0</ele><time>2026-03-29T08:53:23.073Z</time></trkpt><trkpt lat="43.1101633" lon="12.1836733"><ele>259.0</ele><time>2026-03-29T08:53:24.074Z</time></trkpt><trkpt lat="43.110085" lon="12.183845"><ele>259.0</ele><time>2026-03-29T08:53:25.074Z</time></trkpt><trkpt lat="43.1100183" lon="12.1840217"><ele>259.0</ele><time>2026-03-29T08:53:26.074Z</time></trkpt><trkpt lat="43.1099567" lon="12.1842"><ele>259.0</ele><time>2026-03-29T08:53:27.073Z</time></trkpt><trkpt lat="43.1098883" lon="12.18437"><ele>258.75</ele><time>2026-03-29T08:53:28.073Z</time></trkpt><trkpt lat="43.109825" lon="12.18454"><ele>258.5</ele><time>2026-03-29T08:53:29.073Z</time></trkpt><trkpt lat="43.10976" lon="12.1847083"><ele>258.25</ele><time>2026-03-29T08:53:30.073Z</time></trkpt><trkpt lat="43.1096967" lon="12.1848783"><ele>258.0</ele><time>2026-03-29T08:53:31.074Z</time></trkpt><trkpt lat="43.1096283" lon="12.1850467"><ele>258.0</ele><time>2026-03-29T08:53:32.073Z</time></trkpt><trkpt lat="43.1095583" lon="12.18521"><ele>258.0</ele><time>2026-03-29T08:53:33.074Z</time></trkpt><trkpt lat="43.1094867" lon="12.185375"><ele>258.0</ele><time>2026-03-29T08:53:34.073Z</time></trkpt><trkpt lat="43.1094183" lon="12.1855383"><ele>258.0</ele><time>2026-03-29T08:53:35.074Z</time></trkpt><trkpt lat="43.10935" lon="12.185695"><ele>258.0</ele><time>2026-03-29T08:53:36.074Z</time></trkpt><trkpt lat="43.10927" lon="12.1858483"><ele>258.0</ele><time>2026-03-29T08:53:37.074Z</time></trkpt><trkpt lat="43.1091833" lon="12.1859967"><ele>258.0</ele><time>2026-03-29T08:53:38.073Z</time></trkpt><trkpt lat="43.1090883" lon="12.1861433"><ele>258.0</ele><time>2026-03-29T08:53:39.074Z</time></trkpt><trkpt lat="43.1089867" lon="12.18629"><ele>258.0</ele><time>2026-03-29T08:53:40.074Z</time></trkpt><trkpt lat="43.108875" lon="12.1864167"><ele>258.0</ele><time>2026-03-29T08:53:41.074Z</time></trkpt><trkpt lat="43.1087467" lon="12.1865383"><ele>258.0</ele><time>2026-03-29T08:53:42.074Z</time></trkpt><trkpt lat="43.1086133" lon="12.1866517"><ele>257.6666666666667</ele><time>2026-03-29T08:53:43.074Z</time></trkpt><trkpt lat="43.1084783" lon="12.1867717"><ele>257.33333333333337</ele><time>2026-03-29T08:53:44.074Z</time></trkpt><trkpt lat="43.108345" lon="12.1868967"><ele>257.0</ele><time>2026-03-29T08:53:45.073Z</time></trkpt><trkpt lat="43.1082033" lon="12.1870167"><ele>257.0</ele><time>2026-03-29T08:53:46.073Z</time></trkpt><trkpt lat="43.108055" lon="12.1871267"><ele>257.0</ele><time>2026-03-29T08:53:47.074Z</time></trkpt><trkpt lat="43.1079067" lon="12.1872417"><ele>257.0</ele><time>2026-03-29T08:53:48.073Z</time></trkpt><trkpt lat="43.1077517" lon="12.1873383"><ele>257.33333333333337</ele><time>2026-03-29T08:53:49.074Z</time></trkpt><trkpt lat="43.1076133" lon="12.1874217"><ele>257.6666666666667</ele><time>2026-03-29T08:53:50.074Z</time></trkpt><trkpt lat="43.1074667" lon="12.187495"><ele>258.0</ele><time>2026-03-29T08:53:51.073Z</time></trkpt><trkpt lat="43.10732" lon="12.187575"><ele>258.0</ele><time>2026-03-29T08:53:52.074Z</time></trkpt><trkpt lat="43.1071617" lon="12.18765"><ele>258.0</ele><time>2026-03-29T08:53:53.073Z</time></trkpt><trkpt lat="43.1070033" lon="12.1877533"><ele>258.0</ele><time>2026-03-29T08:53:54.073Z</time></trkpt><trkpt lat="43.10685" lon="12.18786"><ele>258.0</ele><time>2026-03-29T08:53:55.073Z</time></trkpt><trkpt lat="43.106725" lon="12.1879633"><ele>258.0</ele><time>2026-03-29T08:53:56.074Z</time></trkpt><trkpt lat="43.1066133" lon="12.1880517"><ele>258.0</ele><time>2026-03-29T08:53:57.074Z</time></trkpt><trkpt lat="43.1065067" lon="12.18814"><ele>258.0</ele><time>2026-03-29T08:53:58.073Z</time></trkpt><trkpt lat="43.1064133" lon="12.1882183"><ele>259.2</ele><time>2026-03-29T08:53:59.073Z</time></trkpt><trkpt lat="43.106325" lon="12.1882767"><ele>260.4</ele><time>2026-03-29T08:54:00.074Z</time></trkpt><trkpt lat="43.106245" lon="12.1882983"><ele>261.59999999999997</ele><time>2026-03-29T08:54:01.074Z</time></trkpt><trkpt lat="43.106155" lon="12.1882883"><ele>262.8</ele><time>2026-03-29T08:54:02.074Z</time></trkpt><trkpt lat="43.1060433" lon="12.1882617"><ele>264.0</ele><time>2026-03-29T08:54:03.074Z</time></trkpt><trkpt lat="43.105915" lon="12.188205"><ele>262.3333333333333</ele><time>2026-03-29T08:54:04.073Z</time></trkpt><trkpt lat="43.105755" lon="12.18816"><ele>260.66666666666663</ele><time>2026-03-29T08:54:05.073Z</time></trkpt><trkpt lat="43.105555" lon="12.1881333"><ele>259.0</ele><time>2026-03-29T08:54:06.074Z</time></trkpt><trkpt lat="43.1053783" lon="12.1881383"><ele>258.3333333333333</ele><time>2026-03-29T08:54:07.074Z</time></trkpt><trkpt lat="43.10521" lon="12.1881517"><ele>257.6666666666667</ele><time>2026-03-29T08:54:08.074Z</time></trkpt><trkpt lat="43.1050367" lon="12.188115"><ele>257.0</ele><time>2026-03-29T08:54:09.074Z</time></trkpt><trkpt lat="43.1048717" lon="12.18805"><ele>256.33333333333337</ele><time>2026-03-29T08:54:10.074Z</time></trkpt><trkpt lat="43.1047033" lon="12.1879933"><ele>255.66666666666669</ele><time>2026-03-29T08:54:11.074Z</time></trkpt><trkpt lat="43.1045533" lon="12.1879517"><ele>255.0</ele><time>2026-03-29T08:54:12.073Z</time></trkpt><trkpt lat="43.1044117" lon="12.1879533"><ele>255.0</ele><time>2026-03-29T08:54:13.074Z</time></trkpt><trkpt lat="43.1042533" lon="12.18799"><ele>255.0</ele><time>2026-03-29T08:54:14.074Z</time></trkpt><trkpt lat="43.1040983" lon="12.1880467"><ele>255.0</ele><time>2026-03-29T08:54:15.074Z</time></trkpt><trkpt lat="43.1039483" lon="12.1881583"><ele>256.3333333333333</ele><time>2026-03-29T08:54:16.074Z</time></trkpt><trkpt lat="43.1037917" lon="12.188265"><ele>257.66666666666663</ele><time>2026-03-29T08:54:17.074Z</time></trkpt><trkpt lat="43.1036383" lon="12.1884083"><ele>259.0</ele><time>2026-03-29T08:54:18.073Z</time></trkpt><trkpt lat="43.1034867" lon="12.18854"><ele>259.0</ele><time>2026-03-29T08:54:19.074Z</time></trkpt><trkpt lat="43.10335" lon="12.188665"><ele>259.0</ele><time>2026-03-29T08:54:20.074Z</time></trkpt><trkpt lat="43.10322" lon="12.18878"><ele>259.0</ele><time>2026-03-29T08:54:21.073Z</time></trkpt><trkpt lat="43.103095" lon="12.188895"><ele>259.25</ele><time>2026-03-29T08:54:22.073Z</time></trkpt><trkpt lat="43.10298" lon="12.1889983"><ele>259.5</ele><time>2026-03-29T08:54:23.074Z</time></trkpt><trkpt lat="43.10288" lon="12.1890967"><ele>259.75</ele><time>2026-03-29T08:54:24.074Z</time></trkpt><trkpt lat="43.102775" lon="12.1891867"><ele>260.0</ele><time>2026-03-29T08:54:25.074Z</time></trkpt><trkpt lat="43.1026717" lon="12.1892783"><ele>260.0</ele><time>2026-03-29T08:54:26.074Z</time></trkpt><trkpt lat="43.10259" lon="12.18941"><ele>260.0</ele><time>2026-03-29T08:54:27.074Z</time></trkpt><trkpt lat="43.102515" lon="12.189575"><ele>260.0</ele><time>2026-03-29T08:54:28.074Z</time></trkpt><trkpt lat="43.10243" lon="12.189765"><ele>260.0</ele><time>2026-03-29T08:54:29.074Z</time></trkpt><trkpt lat="43.1023383" lon="12.189985"><ele>259.6666666666667</ele><time>2026-03-29T08:54:30.074Z</time></trkpt><trkpt lat="43.1022317" lon="12.1902083"><ele>259.3333333333333</ele><time>2026-03-29T08:54:31.073Z</time></trkpt><trkpt lat="43.102125" lon="12.1904467"><ele>259.0</ele><time>2026-03-29T08:54:32.074Z</time></trkpt><trkpt lat="43.102025" lon="12.1906817"><ele>259.0</ele><time>2026-03-29T08:54:33.073Z</time></trkpt><trkpt lat="43.1019283" lon="12.1909"><ele>259.0</ele><time>2026-03-29T08:54:34.074Z</time></trkpt><trkpt lat="43.1018317" lon="12.1910933"><ele>259.0</ele><time>2026-03-29T08:54:35.074Z</time></trkpt><trkpt lat="43.1017467" lon="12.191285"><ele>259.0</ele><time>2026-03-29T08:54:36.073Z</time></trkpt><trkpt lat="43.1016633" lon="12.1914717"><ele>259.0</ele><time>2026-03-29T08:54:37.074Z</time></trkpt><trkpt lat="43.1015767" lon="12.1916517"><ele>259.0</ele><time>2026-03-29T08:54:38.074Z</time></trkpt><trkpt lat="43.10149" lon="12.191825"><ele>259.0</ele><time>2026-03-29T08:54:39.074Z</time></trkpt><trkpt lat="43.1014117" lon="12.1920017"><ele>259.0</ele><time>2026-03-29T08:54:40.074Z</time></trkpt><trkpt lat="43.1013383" lon="12.1921633"><ele>259.0</ele><time>2026-03-29T08:54:41.074Z</time></trkpt><trkpt lat="43.1012867" lon="12.19233"><ele>259.0</ele><time>2026-03-29T08:54:42.074Z</time></trkpt><trkpt lat="43.101265" lon="12.1925033"><ele>259.0</ele><time>2026-03-29T08:54:43.074Z</time></trkpt><trkpt lat="43.101275" lon="12.1926783"><ele>259.0</ele><time>2026-03-29T08:54:44.074Z</time></trkpt><trkpt lat="43.1013133" lon="12.1928517"><ele>259.0</ele><time>2026-03-29T08:54:45.073Z</time></trkpt><trkpt lat="43.101375" lon="12.1930333"><ele>259.0</ele><time>2026-03-29T08:54:46.074Z</time></trkpt><trkpt lat="43.101445" lon="12.1932183"><ele>259.25</ele><time>2026-03-29T08:54:47.074Z</time></trkpt><trkpt lat="43.1015133" lon="12.1934017"><ele>259.5</ele><time>2026-03-29T08:54:48.074Z</time></trkpt><trkpt lat="43.1015767" lon="12.193585"><ele>259.75</ele><time>2026-03-29T08:54:49.074Z</time></trkpt><trkpt lat="43.1016333" lon="12.1937717"><ele>260.0</ele><time>2026-03-29T08:54:50.074Z</time></trkpt><trkpt lat="43.10169" lon="12.1939533"><ele>260.25</ele><time>2026-03-29T08:54:51.073Z</time></trkpt><trkpt lat="43.101755" lon="12.194135"><ele>260.5</ele><time>2026-03-29T08:54:52.074Z</time></trkpt><trkpt lat="43.1018133" lon="12.1943083"><ele>260.75</ele><time>2026-03-29T08:54:53.074Z</time></trkpt><trkpt lat="43.1018783" lon="12.19448"><ele>261.0</ele><time>2026-03-29T08:54:54.074Z</time></trkpt><trkpt lat="43.1019417" lon="12.19466"><ele>261.25</ele><time>2026-03-29T08:54:55.074Z</time></trkpt><trkpt lat="43.1020067" lon="12.19484"><ele>261.5</ele><time>2026-03-29T08:54:56.074Z</time></trkpt><trkpt lat="43.1020433" lon="12.19503"><ele>261.75</ele><time>2026-03-29T08:54:57.074Z</time></trkpt><trkpt lat="43.10207" lon="12.1952333"><ele>262.0</ele><time>2026-03-29T08:54:58.073Z</time></trkpt><trkpt lat="43.10206" lon="12.1954333"><ele>262.0</ele><time>2026-03-29T08:54:59.074Z</time></trkpt><trkpt lat="43.1020133" lon="12.195635"><ele>262.0</ele><time>2026-03-29T08:55:00.074Z</time></trkpt><trkpt lat="43.10195" lon="12.1958317"><ele>262.0</ele><time>2026-03-29T08:55:01.073Z</time></trkpt><trkpt lat="43.101885" lon="12.1960383"><ele>262.66666666666663</ele><time>2026-03-29T08:55:02.074Z</time></trkpt><trkpt lat="43.1018183" lon="12.1962467"><ele>263.3333333333333</ele><time>2026-03-29T08:55:03.073Z</time></trkpt><trkpt lat="43.1017617" lon="12.1964683"><ele>264.0</ele><time>2026-03-29T08:55:04.074Z</time></trkpt><trkpt lat="43.101695" lon="12.19669"><ele>264.3333333333333</ele><time>2026-03-29T08:55:05.074Z</time></trkpt><trkpt lat="43.1016283" lon="12.1969183"><ele>264.66666666666663</ele><time>2026-03-29T08:55:06.074Z</time></trkpt><trkpt lat="43.1015533" lon="12.1971433"><ele>265.0</ele><time>2026-03-29T08:55:07.074Z</time></trkpt><trkpt lat="43.1014767" lon="12.1973683"><ele>266.3333333333333</ele><time>2026-03-29T08:55:08.074Z</time></trkpt><trkpt lat="43.1013983" lon="12.1975967"><ele>267.6666666666667</ele><time>2026-03-29T08:55:09.074Z</time></trkpt><trkpt lat="43.10132" lon="12.1978283"><ele>269.0</ele><time>2026-03-29T08:55:10.074Z</time></trkpt><trkpt lat="43.1012483" lon="12.1980467"><ele>270.33333333333337</ele><time>2026-03-29T08:55:11.074Z</time></trkpt><trkpt lat="43.1011817" lon="12.19825"><ele>271.6666666666667</ele><time>2026-03-29T08:55:12.074Z</time></trkpt><trkpt lat="43.1011" lon="12.1984433"><ele>273.0</ele><time>2026-03-29T08:55:13.074Z</time></trkpt><trkpt lat="43.1010033" lon="12.1986167"><ele>273.0</ele><time>2026-03-29T08:55:14.074Z</time></trkpt><trkpt lat="43.1008917" lon="12.1987717"><ele>273.0</ele><time>2026-03-29T08:55:15.074Z</time></trkpt><trkpt lat="43.1007517" lon="12.1988917"><ele>273.0</ele><time>2026-03-29T08:55:16.073Z</time></trkpt><trkpt lat="43.1006283" lon="12.1989833"><ele>274.2</ele><time>2026-03-29T08:55:17.073Z</time></trkpt><trkpt lat="43.1005183" lon="12.1990733"><ele>275.4</ele><time>2026-03-29T08:55:18.074Z</time></trkpt><trkpt lat="43.10043" lon="12.19917"><ele>276.59999999999997</ele><time>2026-03-29T08:55:19.073Z</time></trkpt><trkpt lat="43.1003567" lon="12.19924"><ele>277.8</ele><time>2026-03-29T08:55:20.074Z</time></trkpt><trkpt lat="43.1002933" lon="12.1993017"><ele>279.0</ele><time>2026-03-29T08:55:21.074Z</time></trkpt><trkpt lat="43.1002367" lon="12.1993433"><ele>279.0</ele><time>2026-03-29T08:55:22.073Z</time></trkpt><trkpt lat="43.1001717" lon="12.1993967"><ele>279.0</ele><time>2026-03-29T08:55:23.073Z</time></trkpt><trkpt lat="43.1000883" lon="12.199455"><ele>279.0</ele><time>2026-03-29T08:55:24.074Z</time></trkpt><trkpt lat="43.0999967" lon="12.1995117"><ele>279.0</ele><time>2026-03-29T08:55:25.074Z</time></trkpt><trkpt lat="43.0998917" lon="12.1995567"><ele>279.0</ele><time>2026-03-29T08:55:26.074Z</time></trkpt><trkpt lat="43.099785" lon="12.1996083"><ele>278.25</ele><time>2026-03-29T08:55:27.074Z</time></trkpt><trkpt lat="43.0996717" lon="12.1996667"><ele>277.5</ele><time>2026-03-29T08:55:28.074Z</time></trkpt><trkpt lat="43.0995567" lon="12.1997233"><ele>276.75</ele><time>2026-03-29T08:55:29.074Z</time></trkpt><trkpt lat="43.099445" lon="12.1997667"><ele>276.0</ele><time>2026-03-29T08:55:30.074Z</time></trkpt><trkpt lat="43.0993233" lon="12.1998117"><ele>275.75</ele><time>2026-03-29T08:55:31.074Z</time></trkpt><trkpt lat="43.0991967" lon="12.1998367"><ele>275.5</ele><time>2026-03-29T08:55:32.073Z</time></trkpt><trkpt lat="43.0990633" lon="12.19985"><ele>275.25</ele><time>2026-03-29T08:55:33.074Z</time></trkpt><trkpt lat="43.0989367" lon="12.1998367"><ele>275.0</ele><time>2026-03-29T08:55:34.074Z</time></trkpt><trkpt lat="43.0988167" lon="12.1998317"><ele>275.0</ele><time>2026-03-29T08:55:35.074Z</time></trkpt><trkpt lat="43.098675" lon="12.1997867"><ele>275.0</ele><time>2026-03-29T08:55:36.073Z</time></trkpt><trkpt lat="43.09853" lon="12.1997467"><ele>275.0</ele><time>2026-03-29T08:55:37.074Z</time></trkpt><trkpt lat="43.098385" lon="12.1997133"><ele>275.0</ele><time>2026-03-29T08:55:38.074Z</time></trkpt><trkpt lat="43.09825" lon="12.199675"><ele>275.5</ele><time>2026-03-29T08:55:39.073Z</time></trkpt><trkpt lat="43.0981067" lon="12.1996533"><ele>276.0</ele><time>2026-03-29T08:55:40.073Z</time></trkpt><trkpt lat="43.0979683" lon="12.199635"><ele>276.5</ele><time>2026-03-29T08:55:41.073Z</time></trkpt><trkpt lat="43.097825" lon="12.199655"><ele>277.0</ele><time>2026-03-29T08:55:42.073Z</time></trkpt><trkpt lat="43.0976917" lon="12.19972"><ele>277.0</ele><time>2026-03-29T08:55:43.074Z</time></trkpt><trkpt lat="43.097555" lon="12.19981"><ele>277.0</ele><time>2026-03-29T08:55:44.074Z</time></trkpt><trkpt lat="43.09743" lon="12.1999183"><ele>277.0</ele><time>2026-03-29T08:55:45.074Z</time></trkpt><trkpt lat="43.097305" lon="12.2000383"><ele>279.0</ele><time>2026-03-29T08:55:46.073Z</time></trkpt><trkpt lat="43.0971717" lon="12.20018"><ele>281.0</ele><time>2026-03-29T08:55:47.073Z</time></trkpt><trkpt lat="43.0970333" lon="12.200305"><ele>283.0</ele><time>2026-03-29T08:55:48.074Z</time></trkpt><trkpt lat="43.0968983" lon="12.2004133"><ele>283.0</ele><time>2026-03-29T08:55:49.074Z</time></trkpt><trkpt lat="43.0967567" lon="12.2004817"><ele>283.0</ele><time>2026-03-29T08:55:50.074Z</time></trkpt><trkpt lat="43.0966083" lon="12.2005017"><ele>283.0</ele><time>2026-03-29T08:55:51.073Z</time></trkpt><trkpt lat="43.0964633" lon="12.2004583"><ele>283.0</ele><time>2026-03-29T08:55:52.073Z</time></trkpt><trkpt lat="43.09631" lon="12.2003817"><ele>284.3333333333333</ele><time>2026-03-29T08:55:53.073Z</time></trkpt><trkpt lat="43.09616" lon="12.200285"><ele>285.6666666666667</ele><time>2026-03-29T08:55:54.074Z</time></trkpt><trkpt lat="43.0960067" lon="12.2001833"><ele>287.0</ele><time>2026-03-29T08:55:55.074Z</time></trkpt><trkpt lat="43.0958683" lon="12.200075"><ele>288.0</ele><time>2026-03-29T08:55:56.074Z</time></trkpt><trkpt lat="43.0957367" lon="12.1999767"><ele>289.0</ele><time>2026-03-29T08:55:57.074Z</time></trkpt><trkpt lat="43.09561" lon="12.1998933"><ele>290.0</ele><time>2026-03-29T08:55:58.073Z</time></trkpt><trkpt lat="43.0954767" lon="12.1998"><ele>291.0</ele><time>2026-03-29T08:55:59.073Z</time></trkpt><trkpt lat="43.095345" lon="12.1997117"><ele>291.0</ele><time>2026-03-29T08:56:00.074Z</time></trkpt><trkpt lat="43.0951967" lon="12.1996583"><ele>291.0</ele><time>2026-03-29T08:56:01.074Z</time></trkpt><trkpt lat="43.0950317" lon="12.19961"><ele>291.0</ele><time>2026-03-29T08:56:02.074Z</time></trkpt><trkpt lat="43.0948533" lon="12.19957"><ele>290.6666666666667</ele><time>2026-03-29T08:56:03.073Z</time></trkpt><trkpt lat="43.0946867" lon="12.19952"><ele>290.33333333333337</ele><time>2026-03-29T08:56:04.074Z</time></trkpt><trkpt lat="43.094525" lon="12.199465"><ele>290.0</ele><time>2026-03-29T08:56:05.073Z</time></trkpt><trkpt lat="43.0943767" lon="12.1994"><ele>290.0</ele><time>2026-03-29T08:56:06.074Z</time></trkpt><trkpt lat="43.0942267" lon="12.1993133"><ele>290.0</ele><time>2026-03-29T08:56:07.074Z</time></trkpt><trkpt lat="43.0940767" lon="12.1992283"><ele>290.0</ele><time>2026-03-29T08:56:08.074Z</time></trkpt><trkpt lat="43.0939467" lon="12.19913"><ele>291.33333333333337</ele><time>2026-03-29T08:56:09.074Z</time></trkpt><trkpt lat="43.0937983" lon="12.199015"><ele>292.6666666666667</ele><time>2026-03-29T08:56:10.073Z</time></trkpt><trkpt lat="43.09365" lon="12.198905"><ele>294.0</ele><time>2026-03-29T08:56:11.074Z</time></trkpt><trkpt lat="43.0935017" lon="12.1987917"><ele>291.0</ele><time>2026-03-29T08:56:12.074Z</time></trkpt><trkpt lat="43.0933517" lon="12.1986917"><ele>288.0</ele><time>2026-03-29T08:56:13.074Z</time></trkpt><trkpt lat="43.0932" lon="12.1986067"><ele>285.0</ele><time>2026-03-29T08:56:14.073Z</time></trkpt><trkpt lat="43.0930433" lon="12.1985283"><ele>284.6666666666667</ele><time>2026-03-29T08:56:15.074Z</time></trkpt><trkpt lat="43.092875" lon="12.1984817"><ele>284.33333333333337</ele><time>2026-03-29T08:56:16.074Z</time></trkpt><trkpt lat="43.0926983" lon="12.1984683"><ele>284.0</ele><time>2026-03-29T08:56:17.073Z</time></trkpt><trkpt lat="43.0925283" lon="12.19845"><ele>285.0</ele><time>2026-03-29T08:56:18.073Z</time></trkpt><trkpt lat="43.0923783" lon="12.1984017"><ele>286.0</ele><time>2026-03-29T08:56:19.073Z</time></trkpt><trkpt lat="43.0922217" lon="12.1983117"><ele>287.0</ele><time>2026-03-29T08:56:20.074Z</time></trkpt><trkpt lat="43.0920967" lon="12.1981717"><ele>286.33333333333337</ele><time>2026-03-29T08:56:21.074Z</time></trkpt><trkpt lat="43.0919967" lon="12.198005"><ele>285.6666666666667</ele><time>2026-03-29T08:56:22.073Z</time></trkpt><trkpt lat="43.091915" lon="12.1977933"><ele>285.0</ele><time>2026-03-29T08:56:23.073Z</time></trkpt><trkpt lat="43.0918333" lon="12.197605"><ele>285.0</ele><time>2026-03-29T08:56:24.074Z</time></trkpt><trkpt lat="43.091735" lon="12.1974567"><ele>285.0</ele><time>2026-03-29T08:56:25.073Z</time></trkpt><trkpt lat="43.0916083" lon="12.1973317"><ele>285.0</ele><time>2026-03-29T08:56:26.074Z</time></trkpt><trkpt lat="43.0914733" lon="12.1972517"><ele>285.0</ele><time>2026-03-29T08:56:27.074Z</time></trkpt><trkpt lat="43.091315" lon="12.1972167"><ele>284.3333333333333</ele><time>2026-03-29T08:56:28.074Z</time></trkpt><trkpt lat="43.0911417" lon="12.1972283"><ele>283.66666666666663</ele><time>2026-03-29T08:56:29.074Z</time></trkpt><trkpt lat="43.09094" lon="12.19727"><ele>283.0</ele><time>2026-03-29T08:56:30.074Z</time></trkpt><trkpt lat="43.0907167" lon="12.1973333"><ele>285.5</ele><time>2026-03-29T08:56:31.073Z</time></trkpt><trkpt lat="43.090485" lon="12.197425"><ele>288.0</ele><time>2026-03-29T08:56:32.073Z</time></trkpt><trkpt lat="43.0902683" lon="12.19748"><ele>288.0</ele><time>2026-03-29T08:56:33.074Z</time></trkpt><trkpt lat="43.0900833" lon="12.1975167"><ele>288.0</ele><time>2026-03-29T08:56:34.074Z</time></trkpt><trkpt lat="43.0899183" lon="12.1975"><ele>288.0</ele><time>2026-03-29T08:56:35.074Z</time></trkpt><trkpt lat="43.089785" lon="12.1974283"><ele>290.6666666666667</ele><time>2026-03-29T08:56:36.073Z</time></trkpt><trkpt lat="43.089675" lon="12.1973117"><ele>293.33333333333337</ele><time>2026-03-29T08:56:37.074Z</time></trkpt><trkpt lat="43.089575" lon="12.1971283"><ele>296.0</ele><time>2026-03-29T08:56:38.073Z</time></trkpt><trkpt lat="43.0894917" lon="12.19689"><ele>296.0</ele><time>2026-03-29T08:56:39.074Z</time></trkpt><trkpt lat="43.089405" lon="12.1966717"><ele>296.0</ele><time>2026-03-29T08:56:40.074Z</time></trkpt><trkpt lat="43.08931" lon="12.196485"><ele>296.0</ele><time>2026-03-29T08:56:41.074Z</time></trkpt><trkpt lat="43.0891833" lon="12.1963367"><ele>294.6666666666667</ele><time>2026-03-29T08:56:42.074Z</time></trkpt><trkpt lat="43.089015" lon="12.196225"><ele>293.3333333333333</ele><time>2026-03-29T08:56:43.074Z</time></trkpt><trkpt lat="43.0888217" lon="12.1961067"><ele>292.0</ele><time>2026-03-29T08:56:44.073Z</time></trkpt><trkpt lat="43.0886033" lon="12.1960017"><ele>292.0</ele><time>2026-03-29T08:56:45.073Z</time></trkpt><trkpt lat="43.0884067" lon="12.1958917"><ele>292.0</ele><time>2026-03-29T08:56:46.073Z</time></trkpt><trkpt lat="43.088225" lon="12.1957883"><ele>292.0</ele><time>2026-03-29T08:56:47.074Z</time></trkpt><trkpt lat="43.0880683" lon="12.1956983"><ele>291.0</ele><time>2026-03-29T08:56:48.073Z</time></trkpt><trkpt lat="43.0879233" lon="12.1956233"><ele>290.0</ele><time>2026-03-29T08:56:49.074Z</time></trkpt><trkpt lat="43.0877967" lon="12.1955367"><ele>289.0</ele><time>2026-03-29T08:56:50.074Z</time></trkpt><trkpt lat="43.0876917" lon="12.1954133"><ele>288.0</ele><time>2026-03-29T08:56:51.074Z</time></trkpt><trkpt lat="43.087595" lon="12.19528"><ele>288.0</ele><time>2026-03-29T08:56:52.074Z</time></trkpt><trkpt lat="43.0875217" lon="12.19512"><ele>288.0</ele><time>2026-03-29T08:56:53.074Z</time></trkpt><trkpt lat="43.0874667" lon="12.1949333"><ele>288.0</ele><time>2026-03-29T08:56:54.074Z</time></trkpt><trkpt lat="43.08746" lon="12.1947583"><ele>288.0</ele><time>2026-03-29T08:56:55.074Z</time></trkpt><trkpt lat="43.0874733" lon="12.1945667"><ele>287.0</ele><time>2026-03-29T08:56:56.074Z</time></trkpt><trkpt lat="43.0874967" lon="12.1943483"><ele>286.0</ele><time>2026-03-29T08:56:57.073Z</time></trkpt><trkpt lat="43.0875283" lon="12.1941217"><ele>285.0</ele><time>2026-03-29T08:56:58.074Z</time></trkpt><trkpt lat="43.0875517" lon="12.1938933"><ele>284.6666666666667</ele><time>2026-03-29T08:56:59.073Z</time></trkpt><trkpt lat="43.087575" lon="12.1936617"><ele>284.33333333333337</ele><time>2026-03-29T08:57:00.074Z</time></trkpt><trkpt lat="43.0875983" lon="12.1934067"><ele>284.0</ele><time>2026-03-29T08:57:01.074Z</time></trkpt><trkpt lat="43.0876233" lon="12.193155"><ele>285.0</ele><time>2026-03-29T08:57:02.073Z</time></trkpt><trkpt lat="43.0876417" lon="12.1929233"><ele>286.0</ele><time>2026-03-29T08:57:03.074Z</time></trkpt><trkpt lat="43.0876667" lon="12.1926933"><ele>287.0</ele><time>2026-03-29T08:57:04.074Z</time></trkpt><trkpt lat="43.087685" lon="12.1924617"><ele>285.33333333333337</ele><time>2026-03-29T08:57:05.074Z</time></trkpt><trkpt lat="43.0876833" lon="12.1922567"><ele>283.6666666666667</ele><time>2026-03-29T08:57:06.073Z</time></trkpt><trkpt lat="43.08767" lon="12.19205"><ele>282.0</ele><time>2026-03-29T08:57:07.074Z</time></trkpt><trkpt lat="43.0876233" lon="12.1918467"><ele>282.0</ele><time>2026-03-29T08:57:08.074Z</time></trkpt><trkpt lat="43.0875633" lon="12.191655"><ele>282.0</ele><time>2026-03-29T08:57:09.074Z</time></trkpt><trkpt lat="43.0874833" lon="12.1914717"><ele>282.0</ele><time>2026-03-29T08:57:10.073Z</time></trkpt><trkpt lat="43.0874033" lon="12.1913017"><ele>284.0</ele><time>2026-03-29T08:57:11.074Z</time></trkpt><trkpt lat="43.087325" lon="12.1911533"><ele>286.0</ele><time>2026-03-29T08:57:12.074Z</time></trkpt><trkpt lat="43.0872483" lon="12.1909967"><ele>288.0</ele><time>2026-03-29T08:57:13.074Z</time></trkpt><trkpt lat="43.0871833" lon="12.1908367"><ele>290.0</ele><time>2026-03-29T08:57:14.074Z</time></trkpt><trkpt lat="43.0871333" lon="12.19067"><ele>290.0</ele><time>2026-03-29T08:57:15.074Z</time></trkpt><trkpt lat="43.08709" lon="12.1904783"><ele>290.0</ele><time>2026-03-29T08:57:16.074Z</time></trkpt><trkpt lat="43.087075" lon="12.1902833"><ele>290.0</ele><time>2026-03-29T08:57:17.074Z</time></trkpt><trkpt lat="43.0870867" lon="12.190085"><ele>290.0</ele><time>2026-03-29T08:57:18.074Z</time></trkpt><trkpt lat="43.0871233" lon="12.1898783"><ele>292.0</ele><time>2026-03-29T08:57:19.073Z</time></trkpt><trkpt lat="43.0871717" lon="12.18966"><ele>294.0</ele><time>2026-03-29T08:57:20.074Z</time></trkpt><trkpt lat="43.0872333" lon="12.1894333"><ele>296.0</ele><time>2026-03-29T08:57:21.074Z</time></trkpt><trkpt lat="43.0872967" lon="12.1892167"><ele>295.6666666666667</ele><time>2026-03-29T08:57:22.074Z</time></trkpt><trkpt lat="43.0873483" lon="12.1890017"><ele>295.3333333333333</ele><time>2026-03-29T08:57:23.074Z</time></trkpt><trkpt lat="43.0874017" lon="12.18878"><ele>295.0</ele><time>2026-03-29T08:57:24.074Z</time></trkpt><trkpt lat="43.08745" lon="12.1885617"><ele>288.66666666666663</ele><time>2026-03-29T08:57:25.074Z</time></trkpt><trkpt lat="43.0875067" lon="12.18834"><ele>282.3333333333333</ele><time>2026-03-29T08:57:26.074Z</time></trkpt><trkpt lat="43.08756" lon="12.188125"><ele>276.0</ele><time>2026-03-29T08:57:27.074Z</time></trkpt><trkpt lat="43.0876017" lon="12.1879183"><ele>275.6666666666667</ele><time>2026-03-29T08:57:28.074Z</time></trkpt><trkpt lat="43.08765" lon="12.18769"><ele>275.33333333333337</ele><time>2026-03-29T08:57:29.074Z</time></trkpt><trkpt lat="43.08767" lon="12.1874667"><ele>275.0</ele><time>2026-03-29T08:57:30.074Z</time></trkpt><trkpt lat="43.0876617" lon="12.18726"><ele>273.33333333333337</ele><time>2026-03-29T08:57:31.074Z</time></trkpt><trkpt lat="43.0876267" lon="12.18705"><ele>271.6666666666667</ele><time>2026-03-29T08:57:32.073Z</time></trkpt><trkpt lat="43.0875617" lon="12.1868217"><ele>270.0</ele><time>2026-03-29T08:57:33.074Z</time></trkpt><trkpt lat="43.0874833" lon="12.186565"><ele>271.0</ele><time>2026-03-29T08:57:34.073Z</time></trkpt><trkpt lat="43.0874183" lon="12.1862817"><ele>272.0</ele><time>2026-03-29T08:57:35.074Z</time></trkpt><trkpt lat="43.0873467" lon="12.1860183"><ele>273.0</ele><time>2026-03-29T08:57:36.073Z</time></trkpt><trkpt lat="43.087285" lon="12.1857717"><ele>271.0</ele><time>2026-03-29T08:57:37.073Z</time></trkpt><trkpt lat="43.0872433" lon="12.18553"><ele>269.0</ele><time>2026-03-29T08:57:38.074Z</time></trkpt><trkpt lat="43.0872317" lon="12.18528"><ele>267.0</ele><time>2026-03-29T08:57:39.074Z</time></trkpt><trkpt lat="43.0872433" lon="12.185005"><ele>267.3333333333333</ele><time>2026-03-29T08:57:40.074Z</time></trkpt><trkpt lat="43.087275" lon="12.1847233"><ele>267.66666666666663</ele><time>2026-03-29T08:57:41.073Z</time></trkpt><trkpt lat="43.08731" lon="12.1844367"><ele>268.0</ele><time>2026-03-29T08:57:42.074Z</time></trkpt><trkpt lat="43.0873433" lon="12.1841483"><ele>268.3333333333333</ele><time>2026-03-29T08:57:43.074Z</time></trkpt><trkpt lat="43.0873667" lon="12.1838633"><ele>268.6666666666667</ele><time>2026-03-29T08:57:44.074Z</time></trkpt><trkpt lat="43.0873933" lon="12.183585"><ele>269.0</ele><time>2026-03-29T08:57:45.074Z</time></trkpt><trkpt lat="43.087415" lon="12.18331"><ele>266.0</ele><time>2026-03-29T08:57:46.074Z</time></trkpt><trkpt lat="43.0874367" lon="12.1830367"><ele>263.0</ele><time>2026-03-29T08:57:47.074Z</time></trkpt><trkpt lat="43.08746" lon="12.1827633"><ele>260.0</ele><time>2026-03-29T08:57:48.074Z</time></trkpt><trkpt lat="43.087485" lon="12.18248"><ele>260.0</ele><time>2026-03-29T08:57:49.074Z</time></trkpt><trkpt lat="43.0875083" lon="12.182195"><ele>260.0</ele><time>2026-03-29T08:57:50.074Z</time></trkpt><trkpt lat="43.0875383" lon="12.1819"><ele>260.0</ele><time>2026-03-29T08:57:51.074Z</time></trkpt><trkpt lat="43.087565" lon="12.1815967"><ele>261.33333333333337</ele><time>2026-03-29T08:57:52.074Z</time></trkpt><trkpt lat="43.0875867" lon="12.1813033"><ele>262.6666666666667</ele><time>2026-03-29T08:57:53.074Z</time></trkpt><trkpt lat="43.08762" lon="12.18101"><ele>264.0</ele><time>2026-03-29T08:57:54.074Z</time></trkpt><trkpt lat="43.08765" lon="12.180705"><ele>264.0</ele><time>2026-03-29T08:57:55.074Z</time></trkpt><trkpt lat="43.0876717" lon="12.1804117"><ele>264.0</ele><time>2026-03-29T08:57:56.074Z</time></trkpt><trkpt lat="43.0876967" lon="12.1801133"><ele>264.0</ele><time>2026-03-29T08:57:57.074Z</time></trkpt><trkpt lat="43.0877283" lon="12.1798083"><ele>265.3333333333333</ele><time>2026-03-29T08:57:58.074Z</time></trkpt><trkpt lat="43.0877533" lon="12.1795167"><ele>266.66666666666663</ele><time>2026-03-29T08:57:59.074Z</time></trkpt><trkpt lat="43.0877783" lon="12.17922"><ele>268.0</ele><time>2026-03-29T08:58:00.074Z</time></trkpt><trkpt lat="43.0878" lon="12.1789267"><ele>268.0</ele><time>2026-03-29T08:58:01.074Z</time></trkpt><trkpt lat="43.087815" lon="12.178625"><ele>268.0</ele><time>2026-03-29T08:58:02.074Z</time></trkpt><trkpt lat="43.08784" lon="12.17833"><ele>268.0</ele><time>2026-03-29T08:58:03.074Z</time></trkpt><trkpt lat="43.08786" lon="12.1780367"><ele>268.0</ele><time>2026-03-29T08:58:04.074Z</time></trkpt><trkpt lat="43.087885" lon="12.17774"><ele>268.0</ele><time>2026-03-29T08:58:05.074Z</time></trkpt><trkpt lat="43.0879067" lon="12.1774367"><ele>268.0</ele><time>2026-03-29T08:58:06.074Z</time></trkpt><trkpt lat="43.0879267" lon="12.1771333"><ele>268.0</ele><time>2026-03-29T08:58:07.074Z</time></trkpt><trkpt lat="43.087955" lon="12.17684"><ele>268.0</ele><time>2026-03-29T08:58:08.073Z</time></trkpt><trkpt lat="43.0879817" lon="12.1765617"><ele>268.0</ele><time>2026-03-29T08:58:09.074Z</time></trkpt><trkpt lat="43.0880033" lon="12.1762967"><ele>268.0</ele><time>2026-03-29T08:58:10.073Z</time></trkpt><trkpt lat="43.0880267" lon="12.1760517"><ele>268.0</ele><time>2026-03-29T08:58:11.074Z</time></trkpt><trkpt lat="43.0880433" lon="12.1758233"><ele>268.0</ele><time>2026-03-29T08:58:12.074Z</time></trkpt><trkpt lat="43.0880583" lon="12.1756"><ele>267.66666666666663</ele><time>2026-03-29T08:58:13.074Z</time></trkpt><trkpt lat="43.0880733" lon="12.175375"><ele>267.3333333333333</ele><time>2026-03-29T08:58:14.074Z</time></trkpt><trkpt lat="43.0880933" lon="12.175155"><ele>267.0</ele><time>2026-03-29T08:58:15.073Z</time></trkpt><trkpt lat="43.0881183" lon="12.17493"><ele>267.0</ele><time>2026-03-29T08:58:16.073Z</time></trkpt><trkpt lat="43.0881333" lon="12.1747117"><ele>267.0</ele><time>2026-03-29T08:58:17.073Z</time></trkpt><trkpt lat="43.0881417" lon="12.1744867"><ele>267.0</ele><time>2026-03-29T08:58:18.074Z</time></trkpt><trkpt lat="43.0881567" lon="12.1742617"><ele>267.0</ele><time>2026-03-29T08:58:19.074Z</time></trkpt><trkpt lat="43.0881733" lon="12.1740317"><ele>267.0</ele><time>2026-03-29T08:58:20.074Z</time></trkpt><trkpt lat="43.0881883" lon="12.1738017"><ele>267.0</ele><time>2026-03-29T08:58:21.073Z</time></trkpt><trkpt lat="43.088205" lon="12.1735867"><ele>267.5</ele><time>2026-03-29T08:58:22.074Z</time></trkpt><trkpt lat="43.088215" lon="12.1733767"><ele>268.0</ele><time>2026-03-29T08:58:23.074Z</time></trkpt><trkpt lat="43.0882417" lon="12.1731767"><ele>268.5</ele><time>2026-03-29T08:58:24.073Z</time></trkpt><trkpt lat="43.0882667" lon="12.1729817"><ele>269.0</ele><time>2026-03-29T08:58:25.074Z</time></trkpt><trkpt lat="43.0883033" lon="12.1727817"><ele>269.6666666666667</ele><time>2026-03-29T08:58:26.073Z</time></trkpt><trkpt lat="43.0883483" lon="12.1725783"><ele>270.3333333333333</ele><time>2026-03-29T08:58:27.073Z</time></trkpt><trkpt lat="43.0883967" lon="12.17239"><ele>271.0</ele><time>2026-03-29T08:58:28.074Z</time></trkpt><trkpt lat="43.088465" lon="12.1722083"><ele>271.0</ele><time>2026-03-29T08:58:29.073Z</time></trkpt><trkpt lat="43.0885417" lon="12.17204"><ele>271.0</ele><time>2026-03-29T08:58:30.074Z</time></trkpt><trkpt lat="43.0886333" lon="12.171875"><ele>271.0</ele><time>2026-03-29T08:58:31.074Z</time></trkpt><trkpt lat="43.0887267" lon="12.1717067"><ele>271.0</ele><time>2026-03-29T08:58:32.074Z</time></trkpt><trkpt lat="43.0888183" lon="12.1715367"><ele>271.0</ele><time>2026-03-29T08:58:33.073Z</time></trkpt><trkpt lat="43.0889083" lon="12.171365"><ele>271.0</ele><time>2026-03-29T08:58:34.074Z</time></trkpt><trkpt lat="43.0890017" lon="12.1711867"><ele>271.0</ele><time>2026-03-29T08:58:35.074Z</time></trkpt><trkpt lat="43.08909" lon="12.1710167"><ele>271.0</ele><time>2026-03-29T08:58:36.074Z</time></trkpt><trkpt lat="43.0891767" lon="12.1708417"><ele>271.0</ele><time>2026-03-29T08:58:37.074Z</time></trkpt><trkpt lat="43.0892633" lon="12.1706767"><ele>271.0</ele><time>2026-03-29T08:58:38.074Z</time></trkpt><trkpt lat="43.08935" lon="12.170495"><ele>271.0</ele><time>2026-03-29T08:58:39.074Z</time></trkpt><trkpt lat="43.0894417" lon="12.1703267"><ele>271.0</ele><time>2026-03-29T08:58:40.073Z</time></trkpt><trkpt lat="43.089535" lon="12.17015"><ele>271.0</ele><time>2026-03-29T08:58:41.073Z</time></trkpt><trkpt lat="43.08962" lon="12.16997"><ele>271.0</ele><time>2026-03-29T08:58:42.074Z</time></trkpt><trkpt lat="43.08971" lon="12.169795"><ele>271.0</ele><time>2026-03-29T08:58:43.074Z</time></trkpt><trkpt lat="43.0898017" lon="12.1696083"><ele>270.3333333333333</ele><time>2026-03-29T08:58:44.073Z</time></trkpt><trkpt lat="43.0898967" lon="12.1694433"><ele>269.6666666666667</ele><time>2026-03-29T08:58:45.073Z</time></trkpt><trkpt lat="43.0899983" lon="12.1692783"><ele>269.0</ele><time>2026-03-29T08:58:46.074Z</time></trkpt><trkpt lat="43.0900917" lon="12.1690967"><ele>272.0</ele><time>2026-03-29T08:58:47.073Z</time></trkpt><trkpt lat="43.0901817" lon="12.1689083"><ele>275.0</ele><time>2026-03-29T08:58:48.073Z</time></trkpt><trkpt lat="43.0902767" lon="12.1687183"><ele>278.0</ele><time>2026-03-29T08:58:49.073Z</time></trkpt><trkpt lat="43.090345" lon="12.1685083"><ele>278.0</ele><time>2026-03-29T08:58:50.073Z</time></trkpt><trkpt lat="43.0904117" lon="12.168305"><ele>278.0</ele><time>2026-03-29T08:58:51.074Z</time></trkpt><trkpt lat="43.0904533" lon="12.16809"><ele>278.0</ele><time>2026-03-29T08:58:52.073Z</time></trkpt><trkpt lat="43.0904717" lon="12.167855"><ele>276.6666666666667</ele><time>2026-03-29T08:58:53.074Z</time></trkpt><trkpt lat="43.0905067" lon="12.1676317"><ele>275.3333333333333</ele><time>2026-03-29T08:58:54.074Z</time></trkpt><trkpt lat="43.0905383" lon="12.1674083"><ele>274.0</ele><time>2026-03-29T08:58:55.074Z</time></trkpt><trkpt lat="43.0905817" lon="12.1671917"><ele>276.66666666666663</ele><time>2026-03-29T08:58:56.074Z</time></trkpt><trkpt lat="43.09062" lon="12.16697"><ele>279.3333333333333</ele><time>2026-03-29T08:58:57.074Z</time></trkpt><trkpt lat="43.0906533" lon="12.16674"><ele>282.0</ele><time>2026-03-29T08:58:58.074Z</time></trkpt><trkpt lat="43.09069" lon="12.1665133"><ele>285.6666666666667</ele><time>2026-03-29T08:58:59.074Z</time></trkpt><trkpt lat="43.0907317" lon="12.1662983"><ele>289.33333333333337</ele><time>2026-03-29T08:59:00.074Z</time></trkpt><trkpt lat="43.090765" lon="12.166075"><ele>293.0</ele><time>2026-03-29T08:59:01.074Z</time></trkpt><trkpt lat="43.090785" lon="12.16585"><ele>292.33333333333337</ele><time>2026-03-29T08:59:02.073Z</time></trkpt><trkpt lat="43.0907833" lon="12.1656333"><ele>291.6666666666667</ele><time>2026-03-29T08:59:03.073Z</time></trkpt><trkpt lat="43.09076" lon="12.16542"><ele>291.0</ele><time>2026-03-29T08:59:04.073Z</time></trkpt><trkpt lat="43.0907167" lon="12.165205"><ele>291.0</ele><time>2026-03-29T08:59:05.074Z</time></trkpt><trkpt lat="43.0906633" lon="12.164985"><ele>291.0</ele><time>2026-03-29T08:59:06.073Z</time></trkpt><trkpt lat="43.0905983" lon="12.1647683"><ele>291.0</ele><time>2026-03-29T08:59:07.074Z</time></trkpt><trkpt lat="43.09053" lon="12.1645533"><ele>288.6666666666667</ele><time>2026-03-29T08:59:08.074Z</time></trkpt><trkpt lat="43.0904533" lon="12.1643417"><ele>286.33333333333337</ele><time>2026-03-29T08:59:09.074Z</time></trkpt><trkpt lat="43.090395" lon="12.16413"><ele>284.0</ele><time>2026-03-29T08:59:10.074Z</time></trkpt><trkpt lat="43.09033" lon="12.1639233"><ele>279.0</ele><time>2026-03-29T08:59:11.074Z</time></trkpt><trkpt lat="43.090265" lon="12.16371"><ele>274.0</ele><time>2026-03-29T08:59:12.074Z</time></trkpt><trkpt lat="43.0901817" lon="12.163525"><ele>269.0</ele><time>2026-03-29T08:59:13.074Z</time></trkpt><trkpt lat="43.090065" lon="12.1633617"><ele>268.6666666666667</ele><time>2026-03-29T08:59:14.073Z</time></trkpt><trkpt lat="43.0899183" lon="12.1632083"><ele>268.3333333333333</ele><time>2026-03-29T08:59:15.073Z</time></trkpt><trkpt lat="43.0897633" lon="12.1630733"><ele>268.0</ele><time>2026-03-29T08:59:16.074Z</time></trkpt><trkpt lat="43.0896167" lon="12.1629367"><ele>268.0</ele><time>2026-03-29T08:59:17.074Z</time></trkpt><trkpt lat="43.089485" lon="12.1628117"><ele>268.0</ele><time>2026-03-29T08:59:18.074Z</time></trkpt><trkpt lat="43.08935" lon="12.1627033"><ele>268.0</ele><time>2026-03-29T08:59:19.074Z</time></trkpt><trkpt lat="43.08922" lon="12.16258"><ele>268.0</ele><time>2026-03-29T08:59:20.075Z</time></trkpt><trkpt lat="43.0890933" lon="12.1624467"><ele>268.0</ele><time>2026-03-29T08:59:21.074Z</time></trkpt><trkpt lat="43.0889667" lon="12.1623017"><ele>268.0</ele><time>2026-03-29T08:59:22.075Z</time></trkpt><trkpt lat="43.0888333" lon="12.16217"><ele>269.0</ele><time>2026-03-29T08:59:23.075Z</time></trkpt><trkpt lat="43.0886933" lon="12.1620333"><ele>270.0</ele><time>2026-03-29T08:59:24.075Z</time></trkpt><trkpt lat="43.0885567" lon="12.1619017"><ele>271.0</ele><time>2026-03-29T08:59:25.075Z</time></trkpt><trkpt lat="43.0884333" lon="12.1617667"><ele>271.0</ele><time>2026-03-29T08:59:26.075Z</time></trkpt><trkpt lat="43.0882983" lon="12.1616417"><ele>271.0</ele><time>2026-03-29T08:59:27.075Z</time></trkpt><trkpt lat="43.088155" lon="12.1615133"><ele>271.0</ele><time>2026-03-29T08:59:28.075Z</time></trkpt><trkpt lat="43.088015" lon="12.16139"><ele>269.66666666666663</ele><time>2026-03-29T08:59:29.075Z</time></trkpt><trkpt lat="43.087875" lon="12.1612617"><ele>268.3333333333333</ele><time>2026-03-29T08:59:30.074Z</time></trkpt><trkpt lat="43.087735" lon="12.1611317"><ele>267.0</ele><time>2026-03-29T08:59:31.075Z</time></trkpt><trkpt lat="43.08759" lon="12.161"><ele>267.0</ele><time>2026-03-29T08:59:32.075Z</time></trkpt><trkpt lat="43.0874617" lon="12.1608617"><ele>267.0</ele><time>2026-03-29T08:59:33.075Z</time></trkpt><trkpt lat="43.0873333" lon="12.1607217"><ele>267.0</ele><time>2026-03-29T08:59:34.075Z</time></trkpt><trkpt lat="43.0872133" lon="12.1605983"><ele>266.75</ele><time>2026-03-29T08:59:35.074Z</time></trkpt><trkpt lat="43.0871017" lon="12.1604817"><ele>266.5</ele><time>2026-03-29T08:59:36.074Z</time></trkpt><trkpt lat="43.086995" lon="12.1603783"><ele>266.25</ele><time>2026-03-29T08:59:37.074Z</time></trkpt><trkpt lat="43.0868867" lon="12.1602817"><ele>266.0</ele><time>2026-03-29T08:59:38.074Z</time></trkpt><trkpt lat="43.08678" lon="12.1601917"><ele>266.0</ele><time>2026-03-29T08:59:39.074Z</time></trkpt><trkpt lat="43.0866733" lon="12.1601067"><ele>266.0</ele><time>2026-03-29T08:59:40.075Z</time></trkpt><trkpt lat="43.0865533" lon="12.160035"><ele>266.0</ele><time>2026-03-29T08:59:41.075Z</time></trkpt><trkpt lat="43.086425" lon="12.1600067"><ele>266.0</ele><time>2026-03-29T08:59:42.075Z</time></trkpt><trkpt lat="43.0862917" lon="12.1600067"><ele>266.5</ele><time>2026-03-29T08:59:43.074Z</time></trkpt><trkpt lat="43.086165" lon="12.160045"><ele>267.0</ele><time>2026-03-29T08:59:44.075Z</time></trkpt><trkpt lat="43.08604" lon="12.1600833"><ele>267.5</ele><time>2026-03-29T08:59:45.075Z</time></trkpt><trkpt lat="43.085915" lon="12.1601317"><ele>268.0</ele><time>2026-03-29T08:59:46.074Z</time></trkpt><trkpt lat="43.0857917" lon="12.16017"><ele>268.25</ele><time>2026-03-29T08:59:47.075Z</time></trkpt><trkpt lat="43.0856783" lon="12.160215"><ele>268.5</ele><time>2026-03-29T08:59:48.075Z</time></trkpt><trkpt lat="43.0855567" lon="12.1602517"><ele>268.75</ele><time>2026-03-29T08:59:49.075Z</time></trkpt><trkpt lat="43.0854333" lon="12.1602983"><ele>269.0</ele><time>2026-03-29T08:59:50.075Z</time></trkpt><trkpt lat="43.0853067" lon="12.1603283"><ele>269.0</ele><time>2026-03-29T08:59:51.075Z</time></trkpt><trkpt lat="43.0851867" lon="12.1603333"><ele>269.0</ele><time>2026-03-29T08:59:52.075Z</time></trkpt><trkpt lat="43.085065" lon="12.16034"><ele>269.0</ele><time>2026-03-29T08:59:53.074Z</time></trkpt><trkpt lat="43.0849383" lon="12.1603233"><ele>269.0</ele><time>2026-03-29T08:59:54.075Z</time></trkpt><trkpt lat="43.0848217" lon="12.160275"><ele>269.75</ele><time>2026-03-29T08:59:55.074Z</time></trkpt><trkpt lat="43.0847183" lon="12.1601917"><ele>270.5</ele><time>2026-03-29T08:59:56.074Z</time></trkpt><trkpt lat="43.0846233" lon="12.1600883"><ele>271.25</ele><time>2026-03-29T08:59:57.075Z</time></trkpt><trkpt lat="43.0845433" lon="12.1599667"><ele>272.0</ele><time>2026-03-29T08:59:58.075Z</time></trkpt><trkpt lat="43.0844617" lon="12.1598483"><ele>272.0</ele><time>2026-03-29T08:59:59.075Z</time></trkpt><trkpt lat="43.0843667" lon="12.1597417"><ele>272.0</ele><time>2026-03-29T09:00:00.074Z</time></trkpt><trkpt lat="43.0842667" lon="12.1596217"><ele>272.0</ele><time>2026-03-29T09:00:01.075Z</time></trkpt><trkpt lat="43.0841667" lon="12.1595"><ele>272.0</ele><time>2026-03-29T09:00:02.075Z</time></trkpt><trkpt lat="43.084065" lon="12.1593733"><ele>272.25</ele><time>2026-03-29T09:00:03.075Z</time></trkpt><trkpt lat="43.0839633" lon="12.1592517"><ele>272.5</ele><time>2026-03-29T09:00:04.075Z</time></trkpt><trkpt lat="43.0838567" lon="12.1591267"><ele>272.75</ele><time>2026-03-29T09:00:05.075Z</time></trkpt><trkpt lat="43.0837617" lon="12.1590133"><ele>273.0</ele><time>2026-03-29T09:00:06.075Z</time></trkpt><trkpt lat="43.0836783" lon="12.1588933"><ele>272.6</ele><time>2026-03-29T09:00:07.075Z</time></trkpt><trkpt lat="43.0835967" lon="12.1587767"><ele>272.20000000000005</ele><time>2026-03-29T09:00:08.075Z</time></trkpt><trkpt lat="43.0835233" lon="12.1586683"><ele>271.8</ele><time>2026-03-29T09:00:09.074Z</time></trkpt><trkpt lat="43.08345" lon="12.1585667"><ele>271.40000000000003</ele><time>2026-03-29T09:00:10.075Z</time></trkpt><trkpt lat="43.0833833" lon="12.158455"><ele>271.0</ele><time>2026-03-29T09:00:11.074Z</time></trkpt><trkpt lat="43.0833183" lon="12.1583367"><ele>271.25</ele><time>2026-03-29T09:00:12.075Z</time></trkpt><trkpt lat="43.0832633" lon="12.158195"><ele>271.5</ele><time>2026-03-29T09:00:13.075Z</time></trkpt><trkpt lat="43.0832117" lon="12.1580333"><ele>271.75</ele><time>2026-03-29T09:00:14.074Z</time></trkpt><trkpt lat="43.0831633" lon="12.1578683"><ele>272.0</ele><time>2026-03-29T09:00:15.075Z</time></trkpt><trkpt lat="43.0831217" lon="12.157695"><ele>272.0</ele><time>2026-03-29T09:00:16.075Z</time></trkpt><trkpt lat="43.083075" lon="12.1575133"><ele>272.0</ele><time>2026-03-29T09:00:17.074Z</time></trkpt><trkpt lat="43.0830217" lon="12.1573317"><ele>272.0</ele><time>2026-03-29T09:00:18.075Z</time></trkpt><trkpt lat="43.0829683" lon="12.1571617"><ele>272.0</ele><time>2026-03-29T09:00:19.074Z</time></trkpt><trkpt lat="43.0829183" lon="12.15698"><ele>271.25</ele><time>2026-03-29T09:00:20.075Z</time></trkpt><trkpt lat="43.0828683" lon="12.156805"><ele>270.5</ele><time>2026-03-29T09:00:21.075Z</time></trkpt><trkpt lat="43.0828283" lon="12.1566267"><ele>269.75</ele><time>2026-03-29T09:00:22.074Z</time></trkpt><trkpt lat="43.0827767" lon="12.1564467"><ele>269.0</ele><time>2026-03-29T09:00:23.075Z</time></trkpt><trkpt lat="43.0827267" lon="12.1562717"><ele>268.75</ele><time>2026-03-29T09:00:24.075Z</time></trkpt><trkpt lat="43.082665" lon="12.1560933"><ele>268.5</ele><time>2026-03-29T09:00:25.074Z</time></trkpt><trkpt lat="43.0826083" lon="12.15591"><ele>268.25</ele><time>2026-03-29T09:00:26.074Z</time></trkpt><trkpt lat="43.0825433" lon="12.1557233"><ele>268.0</ele><time>2026-03-29T09:00:27.075Z</time></trkpt><trkpt lat="43.0824917" lon="12.1555383"><ele>267.5</ele><time>2026-03-29T09:00:28.075Z</time></trkpt><trkpt lat="43.0824417" lon="12.155345"><ele>267.0</ele><time>2026-03-29T09:00:29.075Z</time></trkpt><trkpt lat="43.0823883" lon="12.1551633"><ele>266.5</ele><time>2026-03-29T09:00:30.075Z</time></trkpt><trkpt lat="43.0823417" lon="12.1549767"><ele>266.0</ele><time>2026-03-29T09:00:31.075Z</time></trkpt><trkpt lat="43.08229" lon="12.154785"><ele>267.0</ele><time>2026-03-29T09:00:32.075Z</time></trkpt><trkpt lat="43.0822333" lon="12.1546067"><ele>268.0</ele><time>2026-03-29T09:00:33.074Z</time></trkpt><trkpt lat="43.0821767" lon="12.15442"><ele>269.0</ele><time>2026-03-29T09:00:34.074Z</time></trkpt><trkpt lat="43.0821217" lon="12.154235"><ele>270.0</ele><time>2026-03-29T09:00:35.075Z</time></trkpt><trkpt lat="43.0820683" lon="12.1540617"><ele>269.5</ele><time>2026-03-29T09:00:36.074Z</time></trkpt><trkpt lat="43.0820183" lon="12.15388"><ele>269.0</ele><time>2026-03-29T09:00:37.075Z</time></trkpt><trkpt lat="43.08197" lon="12.153695"><ele>268.5</ele><time>2026-03-29T09:00:38.074Z</time></trkpt><trkpt lat="43.0819167" lon="12.1535217"><ele>268.0</ele><time>2026-03-29T09:00:39.074Z</time></trkpt><trkpt lat="43.0818633" lon="12.1533417"><ele>267.75</ele><time>2026-03-29T09:00:40.075Z</time></trkpt><trkpt lat="43.0818183" lon="12.1531583"><ele>267.5</ele><time>2026-03-29T09:00:41.075Z</time></trkpt><trkpt lat="43.0817883" lon="12.1529567"><ele>267.25</ele><time>2026-03-29T09:00:42.075Z</time></trkpt><trkpt lat="43.0817717" lon="12.152755"><ele>267.0</ele><time>2026-03-29T09:00:43.075Z</time></trkpt><trkpt lat="43.08176" lon="12.1525533"><ele>266.3333333333333</ele><time>2026-03-29T09:00:44.075Z</time></trkpt><trkpt lat="43.08176" lon="12.152355"><ele>265.66666666666663</ele><time>2026-03-29T09:00:45.074Z</time></trkpt><trkpt lat="43.0817733" lon="12.1521417"><ele>265.0</ele><time>2026-03-29T09:00:46.075Z</time></trkpt><trkpt lat="43.081785" lon="12.1519267"><ele>265.0</ele><time>2026-03-29T09:00:47.074Z</time></trkpt><trkpt lat="43.0818" lon="12.1517217"><ele>265.0</ele><time>2026-03-29T09:00:48.075Z</time></trkpt><trkpt lat="43.0818083" lon="12.1515167"><ele>265.0</ele><time>2026-03-29T09:00:49.075Z</time></trkpt><trkpt lat="43.0818167" lon="12.1513117"><ele>265.0</ele><time>2026-03-29T09:00:50.074Z</time></trkpt><trkpt lat="43.0818333" lon="12.1511083"><ele>265.0</ele><time>2026-03-29T09:00:51.074Z</time></trkpt><trkpt lat="43.081845" lon="12.1508933"><ele>265.0</ele><time>2026-03-29T09:00:52.074Z</time></trkpt><trkpt lat="43.0818617" lon="12.1506733"><ele>265.0</ele><time>2026-03-29T09:00:53.075Z</time></trkpt><trkpt lat="43.081875" lon="12.1504533"><ele>265.0</ele><time>2026-03-29T09:00:54.075Z</time></trkpt><trkpt lat="43.0818833" lon="12.15023"><ele>265.0</ele><time>2026-03-29T09:00:55.075Z</time></trkpt><trkpt lat="43.0818983" lon="12.150005"><ele>265.0</ele><time>2026-03-29T09:00:56.075Z</time></trkpt><trkpt lat="43.0819083" lon="12.1497783"><ele>265.0</ele><time>2026-03-29T09:00:57.075Z</time></trkpt><trkpt lat="43.0819217" lon="12.1495833"><ele>265.0</ele><time>2026-03-29T09:00:58.074Z</time></trkpt><trkpt lat="43.0819317" lon="12.1494"><ele>265.0</ele><time>2026-03-29T09:00:59.075Z</time></trkpt><trkpt lat="43.0819367" lon="12.1492217"><ele>265.0</ele><time>2026-03-29T09:01:00.075Z</time></trkpt><trkpt lat="43.0819433" lon="12.1490733"><ele>265.0</ele><time>2026-03-29T09:01:01.075Z</time></trkpt><trkpt lat="43.08195" lon="12.1489517"><ele>265.0</ele><time>2026-03-29T09:01:02.074Z</time></trkpt><trkpt lat="43.0819617" lon="12.14885"><ele>265.0</ele><time>2026-03-29T09:01:03.075Z</time></trkpt><trkpt lat="43.0819217" lon="12.14876"><ele>265.0</ele><time>2026-03-29T09:01:05.075Z</time></trkpt><trkpt lat="43.08184" lon="12.1487933"><ele>265.0</ele><time>2026-03-29T09:01:07.074Z</time></trkpt><trkpt lat="43.0817767" lon="12.1488417"><ele>265.0</ele><time>2026-03-29T09:01:08.075Z</time></trkpt><trkpt lat="43.0817033" lon="12.1488783"><ele>265.0</ele><time>2026-03-29T09:01:09.074Z</time></trkpt><trkpt lat="43.0816217" lon="12.14892"><ele>265.0</ele><time>2026-03-29T09:01:10.075Z</time></trkpt><trkpt lat="43.081525" lon="12.1489717"><ele>265.0</ele><time>2026-03-29T09:01:11.075Z</time></trkpt><trkpt lat="43.08143" lon="12.149015"><ele>265.0</ele><time>2026-03-29T09:01:12.075Z</time></trkpt><trkpt lat="43.0813317" lon="12.1490333"><ele>265.4</ele><time>2026-03-29T09:01:13.075Z</time></trkpt><trkpt lat="43.0812283" lon="12.1490233"><ele>265.8</ele><time>2026-03-29T09:01:14.075Z</time></trkpt><trkpt lat="43.081125" lon="12.1489967"><ele>266.2</ele><time>2026-03-29T09:01:15.074Z</time></trkpt><trkpt lat="43.0810167" lon="12.1489483"><ele>266.6</ele><time>2026-03-29T09:01:16.075Z</time></trkpt><trkpt lat="43.0809083" lon="12.1488867"><ele>267.0</ele><time>2026-03-29T09:01:17.075Z</time></trkpt><trkpt lat="43.0808067" lon="12.14881"><ele>267.6666666666667</ele><time>2026-03-29T09:01:18.075Z</time></trkpt><trkpt lat="43.08072" lon="12.1487383"><ele>268.3333333333333</ele><time>2026-03-29T09:01:19.075Z</time></trkpt><trkpt lat="43.08065" lon="12.1486817"><ele>269.0</ele><time>2026-03-29T09:01:20.075Z</time></trkpt><trkpt lat="43.080595" lon="12.1486333"><ele>269.66666666666663</ele><time>2026-03-29T09:01:21.075Z</time></trkpt><trkpt lat="43.0805283" lon="12.1486"><ele>270.3333333333333</ele><time>2026-03-29T09:01:23.074Z</time></trkpt><trkpt lat="43.0804333" lon="12.1486117"><ele>271.0</ele><time>2026-03-29T09:01:26.074Z</time></trkpt><trkpt lat="43.0803333" lon="12.1486283"><ele>271.0</ele><time>2026-03-29T09:01:28.075Z</time></trkpt><trkpt lat="43.0802233" lon="12.148635"><ele>271.0</ele><time>2026-03-29T09:01:30.075Z</time></trkpt><trkpt lat="43.0801183" lon="12.14867"><ele>271.0</ele><time>2026-03-29T09:01:32.075Z</time></trkpt><trkpt lat="43.0800433" lon="12.14874"><ele>271.0</ele><time>2026-03-29T09:01:50.075Z</time></trkpt><trkpt lat="43.0799817" lon="12.14878"><ele>271.0</ele><time>2026-03-29T09:01:53.075Z</time></trkpt><trkpt lat="43.0799783" lon="12.1488783"><ele>271.0</ele><time>2026-03-29T09:01:56.075Z</time></trkpt><trkpt lat="43.080005" lon="12.1489567"><ele>271.0</ele><time>2026-03-29T09:02:07.074Z</time></trkpt><trkpt lat="43.0800233" lon="12.149045"><ele>271.0</ele><time>2026-03-29T09:02:12.075Z</time></trkpt><trkpt lat="43.0800067" lon="12.148925"><ele>271.0</ele><time>2026-03-29T09:02:53.075Z</time></trkpt><trkpt lat="43.08001" lon="12.1487933"><ele>271.0</ele><time>2026-03-29T09:02:56.075Z</time></trkpt><trkpt lat="43.080085" lon="12.148715"><ele>271.0</ele><time>2026-03-29T09:02:59.074Z</time></trkpt><trkpt lat="43.080145" lon="12.1486783"><ele>271.0</ele><time>2026-03-29T09:03:01.075Z</time></trkpt><trkpt lat="43.080225" lon="12.1486617"><ele>271.0</ele><time>2026-03-29T09:03:03.074Z</time></trkpt><trkpt lat="43.08029" lon="12.1486083"><ele>271.0</ele><time>2026-03-29T09:03:06.074Z</time></trkpt><trkpt lat="43.08029" lon="12.1485"><ele>271.0</ele><time>2026-03-29T09:03:09.075Z</time></trkpt><trkpt lat="43.0802517" lon="12.1484283"><ele>271.0</ele><time>2026-03-29T09:03:11.075Z</time></trkpt><trkpt lat="43.0801667" lon="12.1484133"><ele>271.0</ele><time>2026-03-29T09:03:13.075Z</time></trkpt><trkpt lat="43.08004" lon="12.1484083"><ele>271.0</ele><time>2026-03-29T09:03:15.075Z</time></trkpt><trkpt lat="43.079975" lon="12.148425"><ele>271.3333333333333</ele><time>2026-03-29T09:03:16.075Z</time></trkpt><trkpt lat="43.079905" lon="12.1484433"><ele>271.66666666666663</ele><time>2026-03-29T09:03:17.074Z</time></trkpt><trkpt lat="43.0798333" lon="12.1484683"><ele>272.0</ele><time>2026-03-29T09:03:18.075Z</time></trkpt><trkpt lat="43.0797467" lon="12.1484767"><ele>272.3333333333333</ele><time>2026-03-29T09:03:19.074Z</time></trkpt><trkpt lat="43.079665" lon="12.1484783"><ele>272.6666666666667</ele><time>2026-03-29T09:03:20.075Z</time></trkpt><trkpt lat="43.0795883" lon="12.1484917"><ele>273.0</ele><time>2026-03-29T09:03:21.075Z</time></trkpt><trkpt lat="43.0795067" lon="12.1485"><ele>273.0</ele><time>2026-03-29T09:03:22.075Z</time></trkpt><trkpt lat="43.07944" lon="12.1485383"><ele>273.0</ele><time>2026-03-29T09:03:23.075Z</time></trkpt><trkpt lat="43.0793717" lon="12.1485583"><ele>273.0</ele><time>2026-03-29T09:03:24.075Z</time></trkpt><trkpt lat="43.07928" lon="12.14856"><ele>273.0</ele><time>2026-03-29T09:03:25.074Z</time></trkpt><trkpt lat="43.0791917" lon="12.1485733"><ele>273.0</ele><time>2026-03-29T09:03:26.075Z</time></trkpt><trkpt lat="43.0790933" lon="12.1485967"><ele>273.0</ele><time>2026-03-29T09:03:27.075Z</time></trkpt><trkpt lat="43.078995" lon="12.1486167"><ele>273.4</ele><time>2026-03-29T09:03:28.075Z</time></trkpt><trkpt lat="43.07889" lon="12.1486283"><ele>273.8</ele><time>2026-03-29T09:03:29.074Z</time></trkpt><trkpt lat="43.0787833" lon="12.1486383"><ele>274.2</ele><time>2026-03-29T09:03:30.075Z</time></trkpt><trkpt lat="43.0786733" lon="12.148655"><ele>274.6</ele><time>2026-03-29T09:03:31.075Z</time></trkpt><trkpt lat="43.0785683" lon="12.148665"><ele>275.0</ele><time>2026-03-29T09:03:32.075Z</time></trkpt><trkpt lat="43.0784583" lon="12.1486783"><ele>275.0</ele><time>2026-03-29T09:03:33.075Z</time></trkpt><trkpt lat="43.0783583" lon="12.1487083"><ele>275.0</ele><time>2026-03-29T09:03:34.075Z</time></trkpt><trkpt lat="43.0782533" lon="12.1487533"><ele>275.0</ele><time>2026-03-29T09:03:35.075Z</time></trkpt><trkpt lat="43.0781517" lon="12.1488033"><ele>275.0</ele><time>2026-03-29T09:03:36.074Z</time></trkpt><trkpt lat="43.078045" lon="12.1488633"><ele>275.0</ele><time>2026-03-29T09:03:37.075Z</time></trkpt><trkpt lat="43.07794" lon="12.14891"><ele>275.6</ele><time>2026-03-29T09:03:38.075Z</time></trkpt><trkpt lat="43.0778383" lon="12.1489483"><ele>276.2</ele><time>2026-03-29T09:03:39.075Z</time></trkpt><trkpt lat="43.0777317" lon="12.1489767"><ele>276.8</ele><time>2026-03-29T09:03:40.075Z</time></trkpt><trkpt lat="43.07762" lon="12.1490017"><ele>277.4</ele><time>2026-03-29T09:03:41.075Z</time></trkpt><trkpt lat="43.0775" lon="12.1490233"><ele>278.0</ele><time>2026-03-29T09:03:42.075Z</time></trkpt><trkpt lat="43.0773817" lon="12.1490383"><ele>277.75</ele><time>2026-03-29T09:03:43.075Z</time></trkpt><trkpt lat="43.0772567" lon="12.1490567"><ele>277.5</ele><time>2026-03-29T09:03:44.075Z</time></trkpt><trkpt lat="43.0771417" lon="12.1490883"><ele>277.25</ele><time>2026-03-29T09:03:45.074Z</time></trkpt><trkpt lat="43.0770183" lon="12.14911"><ele>277.0</ele><time>2026-03-29T09:03:46.074Z</time></trkpt><trkpt lat="43.076895" lon="12.1491233"><ele>277.0</ele><time>2026-03-29T09:03:47.074Z</time></trkpt><trkpt lat="43.0767767" lon="12.149145"><ele>277.0</ele><time>2026-03-29T09:03:48.074Z</time></trkpt><trkpt lat="43.07665" lon="12.14919"><ele>277.0</ele><time>2026-03-29T09:03:49.075Z</time></trkpt><trkpt lat="43.0765233" lon="12.1492483"><ele>277.0</ele><time>2026-03-29T09:03:50.075Z</time></trkpt><trkpt lat="43.0763667" lon="12.1493133"><ele>277.66666666666663</ele><time>2026-03-29T09:03:51.075Z</time></trkpt><trkpt lat="43.0761967" lon="12.1493967"><ele>278.3333333333333</ele><time>2026-03-29T09:03:52.074Z</time></trkpt><trkpt lat="43.0760367" lon="12.1494817"><ele>279.0</ele><time>2026-03-29T09:03:53.075Z</time></trkpt><trkpt lat="43.0758733" lon="12.1495567"><ele>280.3333333333333</ele><time>2026-03-29T09:03:54.075Z</time></trkpt><trkpt lat="43.0757117" lon="12.14964"><ele>281.66666666666663</ele><time>2026-03-29T09:03:55.075Z</time></trkpt><trkpt lat="43.0755483" lon="12.1497283"><ele>283.0</ele><time>2026-03-29T09:03:56.074Z</time></trkpt><trkpt lat="43.0753867" lon="12.1498167"><ele>282.0</ele><time>2026-03-29T09:03:57.075Z</time></trkpt><trkpt lat="43.075225" lon="12.1498883"><ele>281.0</ele><time>2026-03-29T09:03:58.075Z</time></trkpt><trkpt lat="43.0750783" lon="12.14995"><ele>280.0</ele><time>2026-03-29T09:03:59.075Z</time></trkpt><trkpt lat="43.0749417" lon="12.15001"><ele>283.0</ele><time>2026-03-29T09:04:00.075Z</time></trkpt><trkpt lat="43.0748083" lon="12.1500567"><ele>286.0</ele><time>2026-03-29T09:04:01.075Z</time></trkpt><trkpt lat="43.07468" lon="12.150125"><ele>289.0</ele><time>2026-03-29T09:04:02.075Z</time></trkpt><trkpt lat="43.0745417" lon="12.1502267"><ele>292.0</ele><time>2026-03-29T09:04:03.075Z</time></trkpt><trkpt lat="43.07441" lon="12.150355"><ele>292.0</ele><time>2026-03-29T09:04:04.075Z</time></trkpt><trkpt lat="43.0742767" lon="12.150505"><ele>292.0</ele><time>2026-03-29T09:04:05.075Z</time></trkpt><trkpt lat="43.074155" lon="12.1506483"><ele>292.0</ele><time>2026-03-29T09:04:06.075Z</time></trkpt><trkpt lat="43.0740267" lon="12.150765"><ele>292.75</ele><time>2026-03-29T09:04:07.075Z</time></trkpt><trkpt lat="43.0738883" lon="12.1508417"><ele>293.5</ele><time>2026-03-29T09:04:08.075Z</time></trkpt><trkpt lat="43.0737667" lon="12.1508983"><ele>294.25</ele><time>2026-03-29T09:04:09.074Z</time></trkpt><trkpt lat="43.073665" lon="12.1509133"><ele>295.0</ele><time>2026-03-29T09:04:10.075Z</time></trkpt><trkpt lat="43.07356" lon="12.1509517"><ele>295.0</ele><time>2026-03-29T09:04:11.074Z</time></trkpt><trkpt lat="43.0734567" lon="12.1510117"><ele>295.0</ele><time>2026-03-29T09:04:12.074Z</time></trkpt><trkpt lat="43.0733717" lon="12.151085"><ele>295.0</ele><time>2026-03-29T09:04:13.075Z</time></trkpt><trkpt lat="43.0733067" lon="12.1511867"><ele>295.0</ele><time>2026-03-29T09:04:14.075Z</time></trkpt><trkpt lat="43.0732533" lon="12.1513083"><ele>295.0</ele><time>2026-03-29T09:04:15.075Z</time></trkpt><trkpt lat="43.073195" lon="12.15147"><ele>296.4</ele><time>2026-03-29T09:04:16.075Z</time></trkpt><trkpt lat="43.0731267" lon="12.1516183"><ele>297.8</ele><time>2026-03-29T09:04:17.075Z</time></trkpt><trkpt lat="43.0730433" lon="12.15173"><ele>299.2</ele><time>2026-03-29T09:04:18.075Z</time></trkpt><trkpt lat="43.07295" lon="12.1518133"><ele>300.6</ele><time>2026-03-29T09:04:19.075Z</time></trkpt><trkpt lat="43.0728633" lon="12.15185"><ele>302.0</ele><time>2026-03-29T09:04:20.075Z</time></trkpt><trkpt lat="43.0727917" lon="12.1518367"><ele>302.0</ele><time>2026-03-29T09:04:21.075Z</time></trkpt><trkpt lat="43.07271" lon="12.1516967"><ele>302.0</ele><time>2026-03-29T09:04:23.075Z</time></trkpt><trkpt lat="43.072695" lon="12.1515783"><ele>302.0</ele><time>2026-03-29T09:04:24.074Z</time></trkpt><trkpt lat="43.0726817" lon="12.15145"><ele>302.0</ele><time>2026-03-29T09:04:25.074Z</time></trkpt><trkpt lat="43.0726433" lon="12.1513333"><ele>302.0</ele><time>2026-03-29T09:04:26.075Z</time></trkpt><trkpt lat="43.0725917" lon="12.1512483"><ele>302.4</ele><time>2026-03-29T09:04:27.075Z</time></trkpt><trkpt lat="43.0725317" lon="12.1511933"><ele>302.79999999999995</ele><time>2026-03-29T09:04:28.074Z</time></trkpt><trkpt lat="43.0724667" lon="12.1511883"><ele>303.2</ele><time>2026-03-29T09:04:29.075Z</time></trkpt><trkpt lat="43.0723667" lon="12.1512555"><ele>303.59999999999997</ele><time>2026-03-29T09:04:31.074Z</time></trkpt><trkpt lat="43.0723092" lon="12.1513779"><ele>304.0</ele><time>2026-03-29T09:04:33.075Z</time></trkpt><trkpt lat="43.0723042" lon="12.1515102"><ele>305.5</ele><time>2026-03-29T09:04:34.074Z</time></trkpt><trkpt lat="43.0722762" lon="12.1516078"><ele>307.0</ele><time>2026-03-29T09:04:35.075Z</time></trkpt><trkpt lat="43.0722312" lon="12.1516684"><ele>308.5</ele><time>2026-03-29T09:04:36.075Z</time></trkpt><trkpt lat="43.0721434" lon="12.1516369"><ele>310.0</ele><time>2026-03-29T09:04:38.075Z</time></trkpt><trkpt lat="43.0721097" lon="12.1514619"><ele>311.5</ele><time>2026-03-29T09:04:40.075Z</time></trkpt><trkpt lat="43.072086" lon="12.1513642"><ele>313.0</ele><time>2026-03-29T09:04:41.075Z</time></trkpt><trkpt lat="43.0720396" lon="12.1512932"><ele>313.0</ele><time>2026-03-29T09:04:42.074Z</time></trkpt><trkpt lat="43.0719289" lon="12.1512553"><ele>313.0</ele><time>2026-03-29T09:04:44.075Z</time></trkpt><trkpt lat="43.0718343" lon="12.1514047"><ele>313.0</ele><time>2026-03-29T09:04:46.075Z</time></trkpt><trkpt lat="43.0717885" lon="12.1515208"><ele>313.0</ele><time>2026-03-29T09:04:47.075Z</time></trkpt><trkpt lat="43.0717304" lon="12.1516183"><ele>313.0</ele><time>2026-03-29T09:04:48.074Z</time></trkpt><trkpt lat="43.0716463" lon="12.1517077"><ele>317.0</ele><time>2026-03-29T09:04:49.074Z</time></trkpt><trkpt lat="43.071534" lon="12.151786"><ele>321.0</ele><time>2026-03-29T09:04:50.075Z</time></trkpt><trkpt lat="43.0714181" lon="12.1518536"><ele>325.0</ele><time>2026-03-29T09:04:51.075Z</time></trkpt><trkpt lat="43.0712927" lon="12.1519129"><ele>329.0</ele><time>2026-03-29T09:04:52.074Z</time></trkpt><trkpt lat="43.0711618" lon="12.1519595"><ele>329.0</ele><time>2026-03-29T09:04:53.075Z</time></trkpt><trkpt lat="43.0710359" lon="12.1519988"><ele>329.0</ele><time>2026-03-29T09:04:54.075Z</time></trkpt><trkpt lat="43.0709104" lon="12.1520266"><ele>329.0</ele><time>2026-03-29T09:04:55.075Z</time></trkpt><trkpt lat="43.0707784" lon="12.1520446"><ele>329.0</ele><time>2026-03-29T09:04:56.074Z</time></trkpt><trkpt lat="43.0706497" lon="12.1520531"><ele>331.4</ele><time>2026-03-29T09:04:57.075Z</time></trkpt><trkpt lat="43.0705226" lon="12.1520571"><ele>333.79999999999995</ele><time>2026-03-29T09:04:58.074Z</time></trkpt><trkpt lat="43.0704059" lon="12.1520628"><ele>336.20000000000005</ele><time>2026-03-29T09:04:59.075Z</time></trkpt><trkpt lat="43.0703116" lon="12.1520603"><ele>338.6</ele><time>2026-03-29T09:05:00.075Z</time></trkpt><trkpt lat="43.0702284" lon="12.1520472"><ele>341.0</ele><time>2026-03-29T09:05:01.075Z</time></trkpt><trkpt lat="43.0701511" lon="12.1520274"><ele>341.0</ele><time>2026-03-29T09:05:02.075Z</time></trkpt><trkpt lat="43.0700694" lon="12.1520133"><ele>341.0</ele><time>2026-03-29T09:05:03.074Z</time></trkpt><trkpt lat="43.0699805" lon="12.152014"><ele>341.0</ele><time>2026-03-29T09:05:04.075Z</time></trkpt><trkpt lat="43.069887" lon="12.1520205"><ele>341.0</ele><time>2026-03-29T09:05:05.075Z</time></trkpt><trkpt lat="43.0697935" lon="12.1520109"><ele>341.0</ele><time>2026-03-29T09:05:06.075Z</time></trkpt><trkpt lat="43.0697" lon="12.1520057"><ele>342.0</ele><time>2026-03-29T09:05:07.075Z</time></trkpt><trkpt lat="43.0696065" lon="12.1519872"><ele>343.0</ele><time>2026-03-29T09:05:08.074Z</time></trkpt><trkpt lat="43.0695116" lon="12.1519548"><ele>344.0</ele><time>2026-03-29T09:05:09.075Z</time></trkpt><trkpt lat="43.069416" lon="12.1518936"><ele>345.0</ele><time>2026-03-29T09:05:10.075Z</time></trkpt><trkpt lat="43.0693251" lon="12.1518051"><ele>346.0</ele><time>2026-03-29T09:05:11.074Z</time></trkpt><trkpt lat="43.0692313" lon="12.1517217"><ele>346.0</ele><time>2026-03-29T09:05:12.074Z</time></trkpt><trkpt lat="43.0691417" lon="12.1516544"><ele>346.0</ele><time>2026-03-29T09:05:13.074Z</time></trkpt><trkpt lat="43.069073" lon="12.1515943"><ele>346.0</ele><time>2026-03-29T09:05:14.075Z</time></trkpt><trkpt lat="43.0690665" lon="12.1514565"><ele>346.0</ele><time>2026-03-29T09:05:16.075Z</time></trkpt><trkpt lat="43.069144" lon="12.1513779"><ele>346.0</ele><time>2026-03-29T09:05:18.075Z</time></trkpt><trkpt lat="43.0692351" lon="12.1514107"><ele>346.0</ele><time>2026-03-29T09:05:19.075Z</time></trkpt><trkpt lat="43.0693495" lon="12.1514624"><ele>346.0</ele><time>2026-03-29T09:05:20.075Z</time></trkpt><trkpt lat="43.0694644" lon="12.1515221"><ele>346.0</ele><time>2026-03-29T09:05:21.074Z</time></trkpt><trkpt lat="43.0695678" lon="12.1515648"><ele>346.0</ele><time>2026-03-29T09:05:22.074Z</time></trkpt><trkpt lat="43.0696545" lon="12.1515787"><ele>346.0</ele><time>2026-03-29T09:05:23.074Z</time></trkpt><trkpt lat="43.0697249" lon="12.1515671"><ele>347.6</ele><time>2026-03-29T09:05:24.075Z</time></trkpt><trkpt lat="43.0697927" lon="12.1514525"><ele>349.20000000000005</ele><time>2026-03-29T09:05:26.074Z</time></trkpt><trkpt lat="43.0697404" lon="12.1513269"><ele>350.79999999999995</ele><time>2026-03-29T09:05:28.075Z</time></trkpt><trkpt lat="43.0696423" lon="12.1512507"><ele>352.4</ele><time>2026-03-29T09:05:30.075Z</time></trkpt><trkpt lat="43.0695735" lon="12.151212"><ele>354.0</ele><time>2026-03-29T09:05:31.075Z</time></trkpt><trkpt lat="43.0694936" lon="12.1511744"><ele>354.0</ele><time>2026-03-29T09:05:32.075Z</time></trkpt><trkpt lat="43.0693983" lon="12.1511255"><ele>354.0</ele><time>2026-03-29T09:05:33.075Z</time></trkpt><trkpt lat="43.0692895" lon="12.1510755"><ele>354.0</ele><time>2026-03-29T09:05:34.074Z</time></trkpt><trkpt lat="43.0691662" lon="12.1510381"><ele>354.0</ele><time>2026-03-29T09:05:35.075Z</time></trkpt><trkpt lat="43.069022" lon="12.1510194"><ele>358.3333333333333</ele><time>2026-03-29T09:05:36.075Z</time></trkpt><trkpt lat="43.0688449" lon="12.1510336"><ele>362.66666666666663</ele><time>2026-03-29T09:05:37.074Z</time></trkpt><trkpt lat="43.0686411" lon="12.151062"><ele>367.0</ele><time>2026-03-29T09:05:38.075Z</time></trkpt><trkpt lat="43.0684053" lon="12.1511004"><ele>370.66666666666663</ele><time>2026-03-29T09:05:39.075Z</time></trkpt><trkpt lat="43.0681724" lon="12.151147"><ele>374.3333333333333</ele><time>2026-03-29T09:05:40.075Z</time></trkpt><trkpt lat="43.0679871" lon="12.1511828"><ele>378.0</ele><time>2026-03-29T09:05:41.074Z</time></trkpt><trkpt lat="43.0678411" lon="12.1512004"><ele>378.0</ele><time>2026-03-29T09:05:42.075Z</time></trkpt><trkpt lat="43.0677214" lon="12.1512116"><ele>378.0</ele><time>2026-03-29T09:05:43.075Z</time></trkpt><trkpt lat="43.067609" lon="12.1512225"><ele>378.0</ele><time>2026-03-29T09:05:44.074Z</time></trkpt><trkpt lat="43.0674968" lon="12.1512341"><ele>378.0</ele><time>2026-03-29T09:05:45.074Z</time></trkpt><trkpt lat="43.0673851" lon="12.1512514"><ele>376.8333333333333</ele><time>2026-03-29T09:05:46.074Z</time></trkpt><trkpt lat="43.0672879" lon="12.1512681"><ele>375.6666666666667</ele><time>2026-03-29T09:05:47.075Z</time></trkpt><trkpt lat="43.0672055" lon="12.1512711"><ele>374.5</ele><time>2026-03-29T09:05:48.075Z</time></trkpt><trkpt lat="43.0671343" lon="12.1512663"><ele>373.33333333333337</ele><time>2026-03-29T09:05:49.074Z</time></trkpt><trkpt lat="43.067069" lon="12.1512468"><ele>372.1666666666667</ele><time>2026-03-29T09:05:50.075Z</time></trkpt><trkpt lat="43.066997" lon="12.1512132"><ele>371.0</ele><time>2026-03-29T09:05:51.074Z</time></trkpt><trkpt lat="43.0669158" lon="12.1511725"><ele>371.0</ele><time>2026-03-29T09:05:52.075Z</time></trkpt><trkpt lat="43.0668297" lon="12.1511147"><ele>371.0</ele><time>2026-03-29T09:05:53.074Z</time></trkpt><trkpt lat="43.0667433" lon="12.1510389"><ele>371.0</ele><time>2026-03-29T09:05:54.075Z</time></trkpt><trkpt lat="43.0666625" lon="12.1509467"><ele>371.0</ele><time>2026-03-29T09:05:55.075Z</time></trkpt><trkpt lat="43.0665898" lon="12.1508233"><ele>371.0</ele><time>2026-03-29T09:05:56.074Z</time></trkpt><trkpt lat="43.0665323" lon="12.1506765"><ele>371.20000000000005</ele><time>2026-03-29T09:05:57.074Z</time></trkpt><trkpt lat="43.0664938" lon="12.1505203"><ele>371.40000000000003</ele><time>2026-03-29T09:05:58.075Z</time></trkpt><trkpt lat="43.0664479" lon="12.1503802"><ele>371.6</ele><time>2026-03-29T09:05:59.075Z</time></trkpt><trkpt lat="43.0663833" lon="12.1502776"><ele>371.8</ele><time>2026-03-29T09:06:00.075Z</time></trkpt><trkpt lat="43.0662912" lon="12.150207"><ele>372.0</ele><time>2026-03-29T09:06:01.075Z</time></trkpt><trkpt lat="43.0661678" lon="12.1501513"><ele>372.0</ele><time>2026-03-29T09:06:02.074Z</time></trkpt><trkpt lat="43.0660233" lon="12.1500933"><ele>372.0</ele><time>2026-03-29T09:06:03.075Z</time></trkpt><trkpt lat="43.0659067" lon="12.150035"><ele>372.0</ele><time>2026-03-29T09:06:04.075Z</time></trkpt><trkpt lat="43.0657833" lon="12.15"><ele>372.0</ele><time>2026-03-29T09:06:05.075Z</time></trkpt><trkpt lat="43.0656533" lon="12.1500067"><ele>372.0</ele><time>2026-03-29T09:06:06.075Z</time></trkpt><trkpt lat="43.06552" lon="12.1500617"><ele>372.0</ele><time>2026-03-29T09:06:07.075Z</time></trkpt><trkpt lat="43.0653683" lon="12.1501233"><ele>372.0</ele><time>2026-03-29T09:06:08.075Z</time></trkpt><trkpt lat="43.0652183" lon="12.1501633"><ele>372.0</ele><time>2026-03-29T09:06:09.074Z</time></trkpt><trkpt lat="43.0650867" lon="12.1501867"><ele>372.0</ele><time>2026-03-29T09:06:10.074Z</time></trkpt><trkpt lat="43.0649667" lon="12.1502083"><ele>372.0</ele><time>2026-03-29T09:06:11.075Z</time></trkpt><trkpt lat="43.0648517" lon="12.1502"><ele>372.0</ele><time>2026-03-29T09:06:12.075Z</time></trkpt><trkpt lat="43.064735" lon="12.1501633"><ele>370.6</ele><time>2026-03-29T09:06:13.075Z</time></trkpt><trkpt lat="43.0646217" lon="12.150125"><ele>369.20000000000005</ele><time>2026-03-29T09:06:14.074Z</time></trkpt><trkpt lat="43.064515" lon="12.1500717"><ele>367.8</ele><time>2026-03-29T09:06:15.075Z</time></trkpt><trkpt lat="43.0644183" lon="12.1500467"><ele>366.4</ele><time>2026-03-29T09:06:16.075Z</time></trkpt><trkpt lat="43.0643117" lon="12.1500283"><ele>365.0</ele><time>2026-03-29T09:06:17.074Z</time></trkpt><trkpt lat="43.0642" lon="12.150015"><ele>362.75</ele><time>2026-03-29T09:06:18.074Z</time></trkpt><trkpt lat="43.0640833" lon="12.149985"><ele>360.5</ele><time>2026-03-29T09:06:19.075Z</time></trkpt><trkpt lat="43.06396" lon="12.149955"><ele>358.25</ele><time>2026-03-29T09:06:20.075Z</time></trkpt><trkpt lat="43.0638433" lon="12.1499017"><ele>356.0</ele><time>2026-03-29T09:06:21.075Z</time></trkpt><trkpt lat="43.0637183" lon="12.1498617"><ele>358.5</ele><time>2026-03-29T09:06:22.074Z</time></trkpt><trkpt lat="43.0636" lon="12.1498517"><ele>361.0</ele><time>2026-03-29T09:06:23.075Z</time></trkpt><trkpt lat="43.0634917" lon="12.149835"><ele>363.5</ele><time>2026-03-29T09:06:24.075Z</time></trkpt><trkpt lat="43.063385" lon="12.1498133"><ele>366.0</ele><time>2026-03-29T09:06:25.075Z</time></trkpt><trkpt lat="43.0632767" lon="12.1497617"><ele>366.0</ele><time>2026-03-29T09:06:26.075Z</time></trkpt><trkpt lat="43.06317" lon="12.1497067"><ele>366.0</ele><time>2026-03-29T09:06:27.075Z</time></trkpt><trkpt lat="43.0630617" lon="12.1496383"><ele>366.0</ele><time>2026-03-29T09:06:28.074Z</time></trkpt><trkpt lat="43.062955" lon="12.1495767"><ele>366.0</ele><time>2026-03-29T09:06:29.075Z</time></trkpt><trkpt lat="43.0628483" lon="12.1495283"><ele>366.0</ele><time>2026-03-29T09:06:30.075Z</time></trkpt><trkpt lat="43.062755" lon="12.1494917"><ele>366.0</ele><time>2026-03-29T09:06:31.075Z</time></trkpt><trkpt lat="43.06267" lon="12.1494533"><ele>366.0</ele><time>2026-03-29T09:06:32.075Z</time></trkpt><trkpt lat="43.0625883" lon="12.149425"><ele>366.0</ele><time>2026-03-29T09:06:33.074Z</time></trkpt><trkpt lat="43.0625117" lon="12.1493983"><ele>366.0</ele><time>2026-03-29T09:06:34.075Z</time></trkpt><trkpt lat="43.0624233" lon="12.1493917"><ele>366.0</ele><time>2026-03-29T09:06:35.075Z</time></trkpt><trkpt lat="43.06233" lon="12.149395"><ele>365.5</ele><time>2026-03-29T09:06:36.075Z</time></trkpt><trkpt lat="43.0622283" lon="12.1493983"><ele>365.0</ele><time>2026-03-29T09:06:37.073Z</time></trkpt><trkpt lat="43.0621083" lon="12.1493867"><ele>364.5</ele><time>2026-03-29T09:06:38.075Z</time></trkpt><trkpt lat="43.06198" lon="12.1493717"><ele>364.0</ele><time>2026-03-29T09:06:39.075Z</time></trkpt><trkpt lat="43.0618433" lon="12.149365"><ele>364.0</ele><time>2026-03-29T09:06:40.075Z</time></trkpt><trkpt lat="43.061705" lon="12.149355"><ele>364.0</ele><time>2026-03-29T09:06:41.075Z</time></trkpt><trkpt lat="43.061575" lon="12.1493467"><ele>364.0</ele><time>2026-03-29T09:06:42.074Z</time></trkpt><trkpt lat="43.061445" lon="12.1493483"><ele>364.0</ele><time>2026-03-29T09:06:43.074Z</time></trkpt><trkpt lat="43.0613233" lon="12.14933"><ele>362.75</ele><time>2026-03-29T09:06:44.075Z</time></trkpt><trkpt lat="43.0612017" lon="12.149315"><ele>361.5</ele><time>2026-03-29T09:06:45.075Z</time></trkpt><trkpt lat="43.0610817" lon="12.1493233"><ele>360.25</ele><time>2026-03-29T09:06:46.074Z</time></trkpt><trkpt lat="43.0609683" lon="12.1493083"><ele>359.0</ele><time>2026-03-29T09:06:47.075Z</time></trkpt><trkpt lat="43.060855" lon="12.1493017"><ele>356.6</ele><time>2026-03-29T09:06:48.075Z</time></trkpt><trkpt lat="43.0607467" lon="12.1492933"><ele>354.2</ele><time>2026-03-29T09:06:49.075Z</time></trkpt><trkpt lat="43.060645" lon="12.1492767"><ele>351.8</ele><time>2026-03-29T09:06:50.074Z</time></trkpt><trkpt lat="43.0605433" lon="12.14926"><ele>349.40000000000003</ele><time>2026-03-29T09:06:51.075Z</time></trkpt><trkpt lat="43.060445" lon="12.1492483"><ele>347.0</ele><time>2026-03-29T09:06:52.075Z</time></trkpt><trkpt lat="43.0603433" lon="12.149235"><ele>347.0</ele><time>2026-03-29T09:06:53.075Z</time></trkpt><trkpt lat="43.0602617" lon="12.1492"><ele>347.0</ele><time>2026-03-29T09:06:54.075Z</time></trkpt><trkpt lat="43.060185" lon="12.14915"><ele>347.0</ele><time>2026-03-29T09:06:55.075Z</time></trkpt><trkpt lat="43.0601133" lon="12.1490983"><ele>347.0</ele><time>2026-03-29T09:06:56.075Z</time></trkpt><trkpt lat="43.0600417" lon="12.14906"><ele>347.0</ele><time>2026-03-29T09:06:57.075Z</time></trkpt><trkpt lat="43.0599733" lon="12.1490067"><ele>347.0</ele><time>2026-03-29T09:06:58.075Z</time></trkpt><trkpt lat="43.0598933" lon="12.1489433"><ele>344.6</ele><time>2026-03-29T09:06:59.074Z</time></trkpt><trkpt lat="43.0598167" lon="12.1488717"><ele>342.20000000000005</ele><time>2026-03-29T09:07:00.075Z</time></trkpt><trkpt lat="43.0597483" lon="12.1487817"><ele>339.8</ele><time>2026-03-29T09:07:01.075Z</time></trkpt><trkpt lat="43.05968" lon="12.1486683"><ele>337.4</ele><time>2026-03-29T09:07:02.075Z</time></trkpt><trkpt lat="43.0596217" lon="12.1485433"><ele>335.0</ele><time>2026-03-29T09:07:03.075Z</time></trkpt><trkpt lat="43.05957" lon="12.1484033"><ele>335.0</ele><time>2026-03-29T09:07:04.075Z</time></trkpt><trkpt lat="43.0595183" lon="12.1482683"><ele>335.0</ele><time>2026-03-29T09:07:05.074Z</time></trkpt><trkpt lat="43.0594817" lon="12.1481233"><ele>335.0</ele><time>2026-03-29T09:07:06.074Z</time></trkpt><trkpt lat="43.0594667" lon="12.1479767"><ele>335.0</ele><time>2026-03-29T09:07:07.075Z</time></trkpt><trkpt lat="43.059465" lon="12.147835"><ele>335.0</ele><time>2026-03-29T09:07:08.075Z</time></trkpt><trkpt lat="43.059445" lon="12.1477"><ele>335.6</ele><time>2026-03-29T09:07:09.074Z</time></trkpt><trkpt lat="43.0594117" lon="12.1475667"><ele>336.2</ele><time>2026-03-29T09:07:10.075Z</time></trkpt><trkpt lat="43.059365" lon="12.1474283"><ele>336.79999999999995</ele><time>2026-03-29T09:07:11.075Z</time></trkpt><trkpt lat="43.05931" lon="12.1473"><ele>337.4</ele><time>2026-03-29T09:07:12.074Z</time></trkpt><trkpt lat="43.0592633" lon="12.147155"><ele>338.0</ele><time>2026-03-29T09:07:13.074Z</time></trkpt><trkpt lat="43.0592383" lon="12.146995"><ele>338.25</ele><time>2026-03-29T09:07:14.075Z</time></trkpt><trkpt lat="43.059235" lon="12.146825"><ele>338.5</ele><time>2026-03-29T09:07:15.074Z</time></trkpt><trkpt lat="43.059235" lon="12.1466417"><ele>338.75</ele><time>2026-03-29T09:07:16.075Z</time></trkpt><trkpt lat="43.05923" lon="12.1464733"><ele>339.0</ele><time>2026-03-29T09:07:17.074Z</time></trkpt><trkpt lat="43.05924" lon="12.1463033"><ele>339.0</ele><time>2026-03-29T09:07:18.075Z</time></trkpt><trkpt lat="43.0592583" lon="12.146165"><ele>339.0</ele><time>2026-03-29T09:07:19.075Z</time></trkpt><trkpt lat="43.0592967" lon="12.146045"><ele>339.0</ele><time>2026-03-29T09:07:20.076Z</time></trkpt><trkpt lat="43.0593583" lon="12.14595"><ele>339.0</ele><time>2026-03-29T09:07:21.076Z</time></trkpt><trkpt lat="43.0594367" lon="12.1458583"><ele>339.0</ele><time>2026-03-29T09:07:22.075Z</time></trkpt><trkpt lat="43.0595183" lon="12.1457733"><ele>337.79999999999995</ele><time>2026-03-29T09:07:23.076Z</time></trkpt><trkpt lat="43.0596017" lon="12.1456783"><ele>336.59999999999997</ele><time>2026-03-29T09:07:24.075Z</time></trkpt><trkpt lat="43.05969" lon="12.1455867"><ele>335.4</ele><time>2026-03-29T09:07:25.075Z</time></trkpt><trkpt lat="43.05978" lon="12.14549"><ele>334.2</ele><time>2026-03-29T09:07:26.076Z</time></trkpt><trkpt lat="43.059865" lon="12.1454017"><ele>333.0</ele><time>2026-03-29T09:07:27.076Z</time></trkpt><trkpt lat="43.0599433" lon="12.14532"><ele>335.0</ele><time>2026-03-29T09:07:28.075Z</time></trkpt><trkpt lat="43.0600217" lon="12.1452467"><ele>337.0</ele><time>2026-03-29T09:07:29.076Z</time></trkpt><trkpt lat="43.060095" lon="12.145185"><ele>339.0</ele><time>2026-03-29T09:07:30.076Z</time></trkpt><trkpt lat="43.0601733" lon="12.1451233"><ele>341.0</ele><time>2026-03-29T09:07:31.076Z</time></trkpt><trkpt lat="43.060255" lon="12.1450533"><ele>343.0</ele><time>2026-03-29T09:07:32.076Z</time></trkpt><trkpt lat="43.0603417" lon="12.1449917"><ele>343.0</ele><time>2026-03-29T09:07:33.076Z</time></trkpt><trkpt lat="43.0604367" lon="12.1449333"><ele>343.0</ele><time>2026-03-29T09:07:34.075Z</time></trkpt><trkpt lat="43.060535" lon="12.1448783"><ele>343.0</ele><time>2026-03-29T09:07:35.076Z</time></trkpt><trkpt lat="43.0606383" lon="12.1448183"><ele>343.0</ele><time>2026-03-29T09:07:36.076Z</time></trkpt><trkpt lat="43.060735" lon="12.1447617"><ele>343.0</ele><time>2026-03-29T09:07:37.076Z</time></trkpt><trkpt lat="43.0608383" lon="12.14469"><ele>342.5</ele><time>2026-03-29T09:07:38.076Z</time></trkpt><trkpt lat="43.0609467" lon="12.1446233"><ele>342.0</ele><time>2026-03-29T09:07:39.076Z</time></trkpt><trkpt lat="43.0610533" lon="12.1445683"><ele>341.5</ele><time>2026-03-29T09:07:40.076Z</time></trkpt><trkpt lat="43.0611633" lon="12.1445133"><ele>341.0</ele><time>2026-03-29T09:07:41.076Z</time></trkpt><trkpt lat="43.0612733" lon="12.1444517"><ele>341.0</ele><time>2026-03-29T09:07:42.075Z</time></trkpt><trkpt lat="43.061385" lon="12.1443917"><ele>341.0</ele><time>2026-03-29T09:07:43.075Z</time></trkpt><trkpt lat="43.0614933" lon="12.1443417"><ele>341.0</ele><time>2026-03-29T09:07:44.075Z</time></trkpt><trkpt lat="43.0615983" lon="12.1442983"><ele>341.0</ele><time>2026-03-29T09:07:45.075Z</time></trkpt><trkpt lat="43.06171" lon="12.1442767"><ele>342.0</ele><time>2026-03-29T09:07:46.076Z</time></trkpt><trkpt lat="43.0618167" lon="12.14426"><ele>343.0</ele><time>2026-03-29T09:07:47.076Z</time></trkpt><trkpt lat="43.0619267" lon="12.1442533"><ele>344.0</ele><time>2026-03-29T09:07:48.076Z</time></trkpt><trkpt lat="43.0620483" lon="12.14426"><ele>345.0</ele><time>2026-03-29T09:07:49.076Z</time></trkpt><trkpt lat="43.06217" lon="12.14427"><ele>345.0</ele><time>2026-03-29T09:07:50.076Z</time></trkpt><trkpt lat="43.06228" lon="12.1442833"><ele>345.0</ele><time>2026-03-29T09:07:51.076Z</time></trkpt><trkpt lat="43.06238" lon="12.1442783"><ele>345.0</ele><time>2026-03-29T09:07:52.076Z</time></trkpt><trkpt lat="43.0624717" lon="12.144255"><ele>345.0</ele><time>2026-03-29T09:07:53.076Z</time></trkpt><trkpt lat="43.0625517" lon="12.14421"><ele>345.0</ele><time>2026-03-29T09:07:54.075Z</time></trkpt><trkpt lat="43.062625" lon="12.1441183"><ele>343.75</ele><time>2026-03-29T09:07:55.076Z</time></trkpt><trkpt lat="43.0627017" lon="12.1440017"><ele>342.5</ele><time>2026-03-29T09:07:56.076Z</time></trkpt><trkpt lat="43.0627767" lon="12.1438767"><ele>341.25</ele><time>2026-03-29T09:07:57.076Z</time></trkpt><trkpt lat="43.0628433" lon="12.14374"><ele>340.0</ele><time>2026-03-29T09:07:58.076Z</time></trkpt><trkpt lat="43.062895" lon="12.1436067"><ele>340.0</ele><time>2026-03-29T09:07:59.076Z</time></trkpt><trkpt lat="43.06294" lon="12.143475"><ele>340.0</ele><time>2026-03-29T09:08:00.076Z</time></trkpt><trkpt lat="43.06298" lon="12.1433617"><ele>340.0</ele><time>2026-03-29T09:08:01.076Z</time></trkpt><trkpt lat="43.0630117" lon="12.143235"><ele>340.0</ele><time>2026-03-29T09:08:02.076Z</time></trkpt><trkpt lat="43.063055" lon="12.143115"><ele>340.0</ele><time>2026-03-29T09:08:03.076Z</time></trkpt><trkpt lat="43.0630983" lon="12.1429933"><ele>339.5</ele><time>2026-03-29T09:08:04.075Z</time></trkpt><trkpt lat="43.0631483" lon="12.1428883"><ele>339.0</ele><time>2026-03-29T09:08:05.076Z</time></trkpt><trkpt lat="43.0632017" lon="12.1427917"><ele>338.5</ele><time>2026-03-29T09:08:06.076Z</time></trkpt><trkpt lat="43.06326" lon="12.1427183"><ele>338.0</ele><time>2026-03-29T09:08:07.076Z</time></trkpt><trkpt lat="43.0633167" lon="12.1426517"><ele>337.5</ele><time>2026-03-29T09:08:08.076Z</time></trkpt><trkpt lat="43.06341" lon="12.142565"><ele>337.0</ele><time>2026-03-29T09:08:10.076Z</time></trkpt><trkpt lat="43.0634617" lon="12.1425083"><ele>338.3333333333333</ele><time>2026-03-29T09:08:12.076Z</time></trkpt><trkpt lat="43.0635" lon="12.14243"><ele>339.66666666666663</ele><time>2026-03-29T09:08:14.076Z</time></trkpt><trkpt lat="43.0634833" lon="12.14229"><ele>341.0</ele><time>2026-03-29T09:08:16.076Z</time></trkpt><trkpt lat="43.06346" lon="12.1422017"><ele>342.3333333333333</ele><time>2026-03-29T09:08:17.076Z</time></trkpt><trkpt lat="43.0634383" lon="12.1421017"><ele>343.6666666666667</ele><time>2026-03-29T09:08:18.076Z</time></trkpt><trkpt lat="43.0634033" lon="12.1420167"><ele>345.0</ele><time>2026-03-29T09:08:19.075Z</time></trkpt><trkpt lat="43.0633033" lon="12.14191"><ele>342.6</ele><time>2026-03-29T09:08:21.075Z</time></trkpt><trkpt lat="43.063225" lon="12.1418867"><ele>340.2</ele><time>2026-03-29T09:08:22.075Z</time></trkpt><trkpt lat="43.0631333" lon="12.1418583"><ele>337.79999999999995</ele><time>2026-03-29T09:08:23.075Z</time></trkpt><trkpt lat="43.0630317" lon="12.1418117"><ele>335.4</ele><time>2026-03-29T09:08:24.076Z</time></trkpt><trkpt lat="43.06292" lon="12.1417433"><ele>333.0</ele><time>2026-03-29T09:08:25.076Z</time></trkpt><trkpt lat="43.0627983" lon="12.1416633"><ele>333.0</ele><time>2026-03-29T09:08:26.076Z</time></trkpt><trkpt lat="43.06268" lon="12.14158"><ele>333.0</ele><time>2026-03-29T09:08:27.076Z</time></trkpt><trkpt lat="43.062565" lon="12.141515"><ele>333.0</ele><time>2026-03-29T09:08:28.075Z</time></trkpt><trkpt lat="43.0624533" lon="12.1414383"><ele>333.0</ele><time>2026-03-29T09:08:29.076Z</time></trkpt><trkpt lat="43.0623367" lon="12.1413583"><ele>331.5</ele><time>2026-03-29T09:08:30.075Z</time></trkpt><trkpt lat="43.0622217" lon="12.1412867"><ele>330.0</ele><time>2026-03-29T09:08:31.076Z</time></trkpt><trkpt lat="43.062115" lon="12.1412167"><ele>328.5</ele><time>2026-03-29T09:08:32.076Z</time></trkpt><trkpt lat="43.0620083" lon="12.141145"><ele>327.0</ele><time>2026-03-29T09:08:33.076Z</time></trkpt><trkpt lat="43.0619017" lon="12.14108"><ele>327.0</ele><time>2026-03-29T09:08:34.076Z</time></trkpt><trkpt lat="43.061795" lon="12.1410083"><ele>327.0</ele><time>2026-03-29T09:08:35.076Z</time></trkpt><trkpt lat="43.0616967" lon="12.1409233"><ele>327.0</ele><time>2026-03-29T09:08:36.076Z</time></trkpt><trkpt lat="43.0616" lon="12.1408367"><ele>327.0</ele><time>2026-03-29T09:08:37.076Z</time></trkpt><trkpt lat="43.061505" lon="12.140735"><ele>326.0</ele><time>2026-03-29T09:08:38.076Z</time></trkpt><trkpt lat="43.061435" lon="12.14061"><ele>325.0</ele><time>2026-03-29T09:08:39.076Z</time></trkpt><trkpt lat="43.06137" lon="12.1404683"><ele>324.0</ele><time>2026-03-29T09:08:40.076Z</time></trkpt><trkpt lat="43.0613033" lon="12.14033"><ele>323.0</ele><time>2026-03-29T09:08:41.076Z</time></trkpt><trkpt lat="43.06123" lon="12.1402083"><ele>323.0</ele><time>2026-03-29T09:08:42.076Z</time></trkpt><trkpt lat="43.0611383" lon="12.1400867"><ele>323.0</ele><time>2026-03-29T09:08:43.076Z</time></trkpt><trkpt lat="43.061045" lon="12.1399767"><ele>323.0</ele><time>2026-03-29T09:08:44.076Z</time></trkpt><trkpt lat="43.0609467" lon="12.139875"><ele>323.0</ele><time>2026-03-29T09:08:45.076Z</time></trkpt><trkpt lat="43.0608233" lon="12.139785"><ele>321.25</ele><time>2026-03-29T09:08:46.076Z</time></trkpt><trkpt lat="43.0607033" lon="12.1397017"><ele>319.5</ele><time>2026-03-29T09:08:47.076Z</time></trkpt><trkpt lat="43.0605817" lon="12.13961"><ele>317.75</ele><time>2026-03-29T09:08:48.076Z</time></trkpt><trkpt lat="43.06046" lon="12.1395117"><ele>316.0</ele><time>2026-03-29T09:08:49.076Z</time></trkpt><trkpt lat="43.0603383" lon="12.139405"><ele>316.0</ele><time>2026-03-29T09:08:50.075Z</time></trkpt><trkpt lat="43.0602167" lon="12.1392983"><ele>316.0</ele><time>2026-03-29T09:08:51.075Z</time></trkpt><trkpt lat="43.060075" lon="12.1391967"><ele>316.0</ele><time>2026-03-29T09:08:52.075Z</time></trkpt><trkpt lat="43.0599367" lon="12.1391083"><ele>314.66666666666663</ele><time>2026-03-29T09:08:53.075Z</time></trkpt><trkpt lat="43.0598017" lon="12.139005"><ele>313.3333333333333</ele><time>2026-03-29T09:08:54.075Z</time></trkpt><trkpt lat="43.0596683" lon="12.1389"><ele>312.0</ele><time>2026-03-29T09:08:55.076Z</time></trkpt><trkpt lat="43.0595367" lon="12.1387967"><ele>312.0</ele><time>2026-03-29T09:08:56.075Z</time></trkpt><trkpt lat="43.05941" lon="12.1386917"><ele>312.0</ele><time>2026-03-29T09:08:57.076Z</time></trkpt><trkpt lat="43.0592817" lon="12.1385883"><ele>312.0</ele><time>2026-03-29T09:08:58.075Z</time></trkpt><trkpt lat="43.0591533" lon="12.1384867"><ele>312.0</ele><time>2026-03-29T09:08:59.076Z</time></trkpt><trkpt lat="43.0590317" lon="12.1383767"><ele>311.25</ele><time>2026-03-29T09:09:00.076Z</time></trkpt><trkpt lat="43.0589033" lon="12.138275"><ele>310.5</ele><time>2026-03-29T09:09:01.076Z</time></trkpt><trkpt lat="43.0587733" lon="12.13817"><ele>309.75</ele><time>2026-03-29T09:09:02.075Z</time></trkpt><trkpt lat="43.058645" lon="12.1380667"><ele>309.0</ele><time>2026-03-29T09:09:03.076Z</time></trkpt><trkpt lat="43.05851" lon="12.13796"><ele>309.0</ele><time>2026-03-29T09:09:04.076Z</time></trkpt><trkpt lat="43.058375" lon="12.137855"><ele>309.0</ele><time>2026-03-29T09:09:05.076Z</time></trkpt><trkpt lat="43.05824" lon="12.1377433"><ele>309.0</ele><time>2026-03-29T09:09:06.075Z</time></trkpt><trkpt lat="43.0581267" lon="12.13761"><ele>307.3333333333333</ele><time>2026-03-29T09:09:07.076Z</time></trkpt><trkpt lat="43.0579967" lon="12.1374867"><ele>305.66666666666663</ele><time>2026-03-29T09:09:08.075Z</time></trkpt><trkpt lat="43.0578717" lon="12.137345"><ele>304.0</ele><time>2026-03-29T09:09:09.076Z</time></trkpt><trkpt lat="43.0577517" lon="12.1372"><ele>304.0</ele><time>2026-03-29T09:09:10.076Z</time></trkpt><trkpt lat="43.05762" lon="12.1370567"><ele>304.0</ele><time>2026-03-29T09:09:11.076Z</time></trkpt><trkpt lat="43.05749" lon="12.1369167"><ele>304.0</ele><time>2026-03-29T09:09:12.076Z</time></trkpt><trkpt lat="43.0573633" lon="12.136765"><ele>303.0</ele><time>2026-03-29T09:09:13.076Z</time></trkpt><trkpt lat="43.0572367" lon="12.136605"><ele>302.0</ele><time>2026-03-29T09:09:14.076Z</time></trkpt><trkpt lat="43.05711" lon="12.136455"><ele>301.0</ele><time>2026-03-29T09:09:15.076Z</time></trkpt><trkpt lat="43.0569783" lon="12.1363017"><ele>301.0</ele><time>2026-03-29T09:09:16.076Z</time></trkpt><trkpt lat="43.05685" lon="12.1361483"><ele>301.0</ele><time>2026-03-29T09:09:17.075Z</time></trkpt><trkpt lat="43.056725" lon="12.135995"><ele>301.0</ele><time>2026-03-29T09:09:18.076Z</time></trkpt><trkpt lat="43.0565983" lon="12.13584"><ele>300.66666666666663</ele><time>2026-03-29T09:09:19.075Z</time></trkpt><trkpt lat="43.0564733" lon="12.1356867"><ele>300.3333333333333</ele><time>2026-03-29T09:09:20.076Z</time></trkpt><trkpt lat="43.05635" lon="12.1355417"><ele>300.0</ele><time>2026-03-29T09:09:21.075Z</time></trkpt><trkpt lat="43.0562233" lon="12.135395"><ele>300.0</ele><time>2026-03-29T09:09:22.076Z</time></trkpt><trkpt lat="43.0561" lon="12.1352417"><ele>300.0</ele><time>2026-03-29T09:09:23.076Z</time></trkpt><trkpt lat="43.05597" lon="12.1350933"><ele>300.0</ele><time>2026-03-29T09:09:24.075Z</time></trkpt><trkpt lat="43.0558383" lon="12.13494"><ele>299.3333333333333</ele><time>2026-03-29T09:09:25.076Z</time></trkpt><trkpt lat="43.05571" lon="12.1347817"><ele>298.66666666666663</ele><time>2026-03-29T09:09:26.075Z</time></trkpt><trkpt lat="43.0555783" lon="12.1346267"><ele>298.0</ele><time>2026-03-29T09:09:27.075Z</time></trkpt><trkpt lat="43.0554417" lon="12.1344767"><ele>298.0</ele><time>2026-03-29T09:09:28.075Z</time></trkpt><trkpt lat="43.0553083" lon="12.1343217"><ele>298.0</ele><time>2026-03-29T09:09:29.076Z</time></trkpt><trkpt lat="43.0551817" lon="12.1341683"><ele>298.0</ele><time>2026-03-29T09:09:30.075Z</time></trkpt><trkpt lat="43.0550483" lon="12.1340183"><ele>297.3333333333333</ele><time>2026-03-29T09:09:31.076Z</time></trkpt><trkpt lat="43.0549233" lon="12.13386"><ele>296.6666666666667</ele><time>2026-03-29T09:09:32.076Z</time></trkpt><trkpt lat="43.0547983" lon="12.1336883"><ele>296.0</ele><time>2026-03-29T09:09:33.076Z</time></trkpt><trkpt lat="43.05468" lon="12.13352"><ele>296.0</ele><time>2026-03-29T09:09:34.076Z</time></trkpt><trkpt lat="43.0545583" lon="12.1333483"><ele>296.0</ele><time>2026-03-29T09:09:35.075Z</time></trkpt><trkpt lat="43.0544383" lon="12.133175"><ele>296.0</ele><time>2026-03-29T09:09:36.076Z</time></trkpt><trkpt lat="43.0543217" lon="12.1330067"><ele>295.6666666666667</ele><time>2026-03-29T09:09:37.076Z</time></trkpt><trkpt lat="43.054215" lon="12.1328417"><ele>295.3333333333333</ele><time>2026-03-29T09:09:38.076Z</time></trkpt><trkpt lat="43.0541167" lon="12.1326833"><ele>295.0</ele><time>2026-03-29T09:09:39.076Z</time></trkpt><trkpt lat="43.05402" lon="12.1325267"><ele>294.0</ele><time>2026-03-29T09:09:40.076Z</time></trkpt><trkpt lat="43.0539183" lon="12.1323783"><ele>293.0</ele><time>2026-03-29T09:09:41.076Z</time></trkpt><trkpt lat="43.05382" lon="12.1322367"><ele>292.0</ele><time>2026-03-29T09:09:42.076Z</time></trkpt><trkpt lat="43.053725" lon="12.1321133"><ele>291.0</ele><time>2026-03-29T09:09:43.075Z</time></trkpt><trkpt lat="43.053635" lon="12.1319983"><ele>291.0</ele><time>2026-03-29T09:09:44.076Z</time></trkpt><trkpt lat="43.0535467" lon="12.1319267"><ele>291.0</ele><time>2026-03-29T09:09:45.076Z</time></trkpt><trkpt lat="43.0534567" lon="12.1318683"><ele>291.0</ele><time>2026-03-29T09:09:46.076Z</time></trkpt><trkpt lat="43.0533583" lon="12.1318533"><ele>291.0</ele><time>2026-03-29T09:09:47.075Z</time></trkpt><trkpt lat="43.0532467" lon="12.1318767"><ele>291.0</ele><time>2026-03-29T09:09:48.076Z</time></trkpt><trkpt lat="43.0531217" lon="12.131945"><ele>289.0</ele><time>2026-03-29T09:09:49.075Z</time></trkpt><trkpt lat="43.0529933" lon="12.132045"><ele>287.0</ele><time>2026-03-29T09:09:50.075Z</time></trkpt><trkpt lat="43.0528633" lon="12.132165"><ele>285.0</ele><time>2026-03-29T09:09:51.076Z</time></trkpt><trkpt lat="43.0527267" lon="12.132275"><ele>285.0</ele><time>2026-03-29T09:09:52.076Z</time></trkpt><trkpt lat="43.0525933" lon="12.1323667"><ele>285.0</ele><time>2026-03-29T09:09:53.076Z</time></trkpt><trkpt lat="43.0524517" lon="12.1324567"><ele>285.0</ele><time>2026-03-29T09:09:54.075Z</time></trkpt><trkpt lat="43.0523083" lon="12.1325433"><ele>286.3333333333333</ele><time>2026-03-29T09:09:55.076Z</time></trkpt><trkpt lat="43.052155" lon="12.1326133"><ele>287.66666666666663</ele><time>2026-03-29T09:09:56.076Z</time></trkpt><trkpt lat="43.0519883" lon="12.1326917"><ele>289.0</ele><time>2026-03-29T09:09:57.076Z</time></trkpt><trkpt lat="43.0518217" lon="12.1327533"><ele>289.0</ele><time>2026-03-29T09:09:58.076Z</time></trkpt><trkpt lat="43.051665" lon="12.1328217"><ele>289.0</ele><time>2026-03-29T09:09:59.075Z</time></trkpt><trkpt lat="43.05151" lon="12.13288"><ele>289.0</ele><time>2026-03-29T09:10:00.076Z</time></trkpt><trkpt lat="43.0513533" lon="12.1329283"><ele>289.0</ele><time>2026-03-29T09:10:01.075Z</time></trkpt><trkpt lat="43.0511967" lon="12.1329683"><ele>289.0</ele><time>2026-03-29T09:10:02.076Z</time></trkpt><trkpt lat="43.0510333" lon="12.133"><ele>289.0</ele><time>2026-03-29T09:10:03.076Z</time></trkpt><trkpt lat="43.0508717" lon="12.1330233"><ele>289.25</ele><time>2026-03-29T09:10:04.076Z</time></trkpt><trkpt lat="43.050725" lon="12.1330383"><ele>289.5</ele><time>2026-03-29T09:10:05.076Z</time></trkpt><trkpt lat="43.0505833" lon="12.1330433"><ele>289.75</ele><time>2026-03-29T09:10:06.076Z</time></trkpt><trkpt lat="43.0504617" lon="12.1330383"><ele>290.0</ele><time>2026-03-29T09:10:07.076Z</time></trkpt><trkpt lat="43.050365" lon="12.1329933"><ele>290.0</ele><time>2026-03-29T09:10:08.076Z</time></trkpt><trkpt lat="43.0502933" lon="12.1329083"><ele>290.0</ele><time>2026-03-29T09:10:09.076Z</time></trkpt><trkpt lat="43.05024" lon="12.1327867"><ele>290.0</ele><time>2026-03-29T09:10:10.076Z</time></trkpt><trkpt lat="43.0502067" lon="12.1326117"><ele>290.0</ele><time>2026-03-29T09:10:11.076Z</time></trkpt><trkpt lat="43.0501767" lon="12.1324017"><ele>289.6666666666667</ele><time>2026-03-29T09:10:12.075Z</time></trkpt><trkpt lat="43.0501383" lon="12.1321767"><ele>289.3333333333333</ele><time>2026-03-29T09:10:13.076Z</time></trkpt><trkpt lat="43.0500967" lon="12.1319367"><ele>289.0</ele><time>2026-03-29T09:10:14.075Z</time></trkpt><trkpt lat="43.0500517" lon="12.1316967"><ele>288.66666666666663</ele><time>2026-03-29T09:10:15.076Z</time></trkpt><trkpt lat="43.0500033" lon="12.1314467"><ele>288.3333333333333</ele><time>2026-03-29T09:10:16.076Z</time></trkpt><trkpt lat="43.0499583" lon="12.1311883"><ele>288.0</ele><time>2026-03-29T09:10:17.076Z</time></trkpt><trkpt lat="43.049915" lon="12.1309333"><ele>287.3333333333333</ele><time>2026-03-29T09:10:18.075Z</time></trkpt><trkpt lat="43.04987" lon="12.1306733"><ele>286.66666666666663</ele><time>2026-03-29T09:10:19.076Z</time></trkpt><trkpt lat="43.04982" lon="12.1304117"><ele>286.0</ele><time>2026-03-29T09:10:20.076Z</time></trkpt><trkpt lat="43.049765" lon="12.1301617"><ele>286.0</ele><time>2026-03-29T09:10:21.076Z</time></trkpt><trkpt lat="43.04971" lon="12.1299133"><ele>286.0</ele><time>2026-03-29T09:10:22.076Z</time></trkpt><trkpt lat="43.0496517" lon="12.129675"><ele>286.0</ele><time>2026-03-29T09:10:23.076Z</time></trkpt><trkpt lat="43.04959" lon="12.1294533"><ele>285.66666666666663</ele><time>2026-03-29T09:10:24.076Z</time></trkpt><trkpt lat="43.0495167" lon="12.1292167"><ele>285.3333333333333</ele><time>2026-03-29T09:10:25.076Z</time></trkpt><trkpt lat="43.049425" lon="12.1289817"><ele>285.0</ele><time>2026-03-29T09:10:26.076Z</time></trkpt><trkpt lat="43.0493217" lon="12.1287083"><ele>285.0</ele><time>2026-03-29T09:10:27.075Z</time></trkpt><trkpt lat="43.0492233" lon="12.1284033"><ele>285.0</ele><time>2026-03-29T09:10:28.076Z</time></trkpt><trkpt lat="43.0491233" lon="12.128085"><ele>287.0</ele><time>2026-03-29T09:10:29.076Z</time></trkpt><trkpt lat="43.0490467" lon="12.127775"><ele>289.0</ele><time>2026-03-29T09:10:30.076Z</time></trkpt><trkpt lat="43.0489767" lon="12.1274733"><ele>289.0</ele><time>2026-03-29T09:10:31.076Z</time></trkpt><trkpt lat="43.048915" lon="12.127195"><ele>289.0</ele><time>2026-03-29T09:10:32.076Z</time></trkpt><trkpt lat="43.0488483" lon="12.1269"><ele>289.0</ele><time>2026-03-29T09:10:33.076Z</time></trkpt><trkpt lat="43.0487917" lon="12.1266167"><ele>289.0</ele><time>2026-03-29T09:10:34.075Z</time></trkpt><trkpt lat="43.048735" lon="12.1263283"><ele>289.0</ele><time>2026-03-29T09:10:35.076Z</time></trkpt><trkpt lat="43.0486783" lon="12.126045"><ele>289.0</ele><time>2026-03-29T09:10:36.075Z</time></trkpt><trkpt lat="43.0486267" lon="12.1257617"><ele>288.3333333333333</ele><time>2026-03-29T09:10:37.076Z</time></trkpt><trkpt lat="43.0485733" lon="12.125475"><ele>287.6666666666667</ele><time>2026-03-29T09:10:38.076Z</time></trkpt><trkpt lat="43.048515" lon="12.1251933"><ele>287.0</ele><time>2026-03-29T09:10:39.076Z</time></trkpt><trkpt lat="43.0484583" lon="12.124905"><ele>286.33333333333337</ele><time>2026-03-29T09:10:40.076Z</time></trkpt><trkpt lat="43.0484017" lon="12.1246167"><ele>285.6666666666667</ele><time>2026-03-29T09:10:41.076Z</time></trkpt><trkpt lat="43.0483483" lon="12.1243383"><ele>285.0</ele><time>2026-03-29T09:10:42.075Z</time></trkpt><trkpt lat="43.0482983" lon="12.1240717"><ele>286.6666666666667</ele><time>2026-03-29T09:10:43.075Z</time></trkpt><trkpt lat="43.04825" lon="12.12382"><ele>288.33333333333337</ele><time>2026-03-29T09:10:44.076Z</time></trkpt><trkpt lat="43.0482067" lon="12.1235817"><ele>290.0</ele><time>2026-03-29T09:10:45.076Z</time></trkpt><trkpt lat="43.0481533" lon="12.1233567"><ele>289.0</ele><time>2026-03-29T09:10:46.076Z</time></trkpt><trkpt lat="43.048095" lon="12.12314"><ele>288.0</ele><time>2026-03-29T09:10:47.076Z</time></trkpt><trkpt lat="43.0480167" lon="12.12293"><ele>287.0</ele><time>2026-03-29T09:10:48.076Z</time></trkpt><trkpt lat="43.0479133" lon="12.1227217"><ele>287.0</ele><time>2026-03-29T09:10:49.075Z</time></trkpt><trkpt lat="43.0477867" lon="12.122505"><ele>287.0</ele><time>2026-03-29T09:10:50.076Z</time></trkpt><trkpt lat="43.0476483" lon="12.1222983"><ele>287.0</ele><time>2026-03-29T09:10:51.076Z</time></trkpt><trkpt lat="43.0475067" lon="12.1220817"><ele>285.6666666666667</ele><time>2026-03-29T09:10:52.076Z</time></trkpt><trkpt lat="43.0473633" lon="12.1218583"><ele>284.3333333333333</ele><time>2026-03-29T09:10:53.076Z</time></trkpt><trkpt lat="43.0472217" lon="12.1216417"><ele>283.0</ele><time>2026-03-29T09:10:54.076Z</time></trkpt><trkpt lat="43.0470817" lon="12.1214217"><ele>282.0</ele><time>2026-03-29T09:10:55.075Z</time></trkpt><trkpt lat="43.0469433" lon="12.12121"><ele>281.0</ele><time>2026-03-29T09:10:56.076Z</time></trkpt><trkpt lat="43.0468083" lon="12.120995"><ele>280.0</ele><time>2026-03-29T09:10:57.076Z</time></trkpt><trkpt lat="43.046675" lon="12.120775"><ele>280.3333333333333</ele><time>2026-03-29T09:10:58.076Z</time></trkpt><trkpt lat="43.0465367" lon="12.1205467"><ele>280.6666666666667</ele><time>2026-03-29T09:10:59.076Z</time></trkpt><trkpt lat="43.0463933" lon="12.1203133"><ele>281.0</ele><time>2026-03-29T09:11:00.076Z</time></trkpt><trkpt lat="43.0462467" lon="12.120065"><ele>280.0</ele><time>2026-03-29T09:11:01.076Z</time></trkpt><trkpt lat="43.0461117" lon="12.1198167"><ele>279.0</ele><time>2026-03-29T09:11:02.076Z</time></trkpt><trkpt lat="43.0459683" lon="12.1195517"><ele>279.0</ele><time>2026-03-29T09:11:03.076Z</time></trkpt><trkpt lat="43.0458217" lon="12.1192733"><ele>279.0</ele><time>2026-03-29T09:11:04.075Z</time></trkpt><trkpt lat="43.045675" lon="12.1189917"><ele>279.5</ele><time>2026-03-29T09:11:05.076Z</time></trkpt><trkpt lat="43.0455367" lon="12.1187017"><ele>280.0</ele><time>2026-03-29T09:11:06.076Z</time></trkpt><trkpt lat="43.045405" lon="12.1184233"><ele>279.5</ele><time>2026-03-29T09:11:07.076Z</time></trkpt><trkpt lat="43.0452733" lon="12.118135"><ele>279.0</ele><time>2026-03-29T09:11:08.075Z</time></trkpt><trkpt lat="43.0451417" lon="12.1178417"><ele>279.0</ele><time>2026-03-29T09:11:09.075Z</time></trkpt><trkpt lat="43.04501" lon="12.1175483"><ele>279.0</ele><time>2026-03-29T09:11:10.076Z</time></trkpt><trkpt lat="43.04488" lon="12.11726"><ele>280.0</ele><time>2026-03-29T09:11:11.075Z</time></trkpt><trkpt lat="43.0447483" lon="12.116985"><ele>281.0</ele><time>2026-03-29T09:11:12.075Z</time></trkpt><trkpt lat="43.044625" lon="12.116725"><ele>280.6666666666667</ele><time>2026-03-29T09:11:13.076Z</time></trkpt><trkpt lat="43.0445117" lon="12.1164817"><ele>280.3333333333333</ele><time>2026-03-29T09:11:14.075Z</time></trkpt><trkpt lat="43.0443983" lon="12.1162333"><ele>280.0</ele><time>2026-03-29T09:11:15.076Z</time></trkpt><trkpt lat="43.044285" lon="12.11597"><ele>280.0</ele><time>2026-03-29T09:11:16.076Z</time></trkpt><trkpt lat="43.04417" lon="12.1157"><ele>280.0</ele><time>2026-03-29T09:11:17.075Z</time></trkpt><trkpt lat="43.04405" lon="12.1154283"><ele>280.0</ele><time>2026-03-29T09:11:18.076Z</time></trkpt><trkpt lat="43.0439333" lon="12.115155"><ele>280.0</ele><time>2026-03-29T09:11:19.076Z</time></trkpt><trkpt lat="43.0438183" lon="12.1148783"><ele>278.5</ele><time>2026-03-29T09:11:20.076Z</time></trkpt><trkpt lat="43.043715" lon="12.1146017"><ele>277.0</ele><time>2026-03-29T09:11:21.076Z</time></trkpt><trkpt lat="43.0436" lon="12.114325"><ele>277.0</ele><time>2026-03-29T09:11:22.076Z</time></trkpt><trkpt lat="43.04348" lon="12.1140383"><ele>277.0</ele><time>2026-03-29T09:11:23.076Z</time></trkpt><trkpt lat="43.0433533" lon="12.11377"><ele>278.5</ele><time>2026-03-29T09:11:24.076Z</time></trkpt><trkpt lat="43.0432217" lon="12.11351"><ele>280.0</ele><time>2026-03-29T09:11:25.076Z</time></trkpt><trkpt lat="43.0430917" lon="12.113265"><ele>279.66666666666663</ele><time>2026-03-29T09:11:26.076Z</time></trkpt><trkpt lat="43.0429533" lon="12.1130217"><ele>279.3333333333333</ele><time>2026-03-29T09:11:27.076Z</time></trkpt><trkpt lat="43.0428383" lon="12.1127633"><ele>279.0</ele><time>2026-03-29T09:11:28.076Z</time></trkpt><trkpt lat="43.0427317" lon="12.1125167"><ele>279.0</ele><time>2026-03-29T09:11:29.076Z</time></trkpt><trkpt lat="43.0426283" lon="12.1122817"><ele>279.0</ele><time>2026-03-29T09:11:30.075Z</time></trkpt><trkpt lat="43.042535" lon="12.112045"><ele>279.0</ele><time>2026-03-29T09:11:31.076Z</time></trkpt><trkpt lat="43.0424317" lon="12.1118133"><ele>279.0</ele><time>2026-03-29T09:11:32.076Z</time></trkpt><trkpt lat="43.04232" lon="12.1115867"><ele>279.0</ele><time>2026-03-29T09:11:33.076Z</time></trkpt><trkpt lat="43.0421833" lon="12.111365"><ele>279.0</ele><time>2026-03-29T09:11:34.076Z</time></trkpt><trkpt lat="43.0420317" lon="12.1111683"><ele>279.0</ele><time>2026-03-29T09:11:35.075Z</time></trkpt><trkpt lat="43.041885" lon="12.1109683"><ele>279.0</ele><time>2026-03-29T09:11:36.075Z</time></trkpt><trkpt lat="43.041735" lon="12.1107633"><ele>279.0</ele><time>2026-03-29T09:11:37.076Z</time></trkpt><trkpt lat="43.04158" lon="12.110565"><ele>280.0</ele><time>2026-03-29T09:11:38.075Z</time></trkpt><trkpt lat="43.0414367" lon="12.1103583"><ele>281.0</ele><time>2026-03-29T09:11:39.076Z</time></trkpt><trkpt lat="43.0412933" lon="12.11015"><ele>282.0</ele><time>2026-03-29T09:11:40.076Z</time></trkpt><trkpt lat="43.0411433" lon="12.109955"><ele>282.3333333333333</ele><time>2026-03-29T09:11:41.075Z</time></trkpt><trkpt lat="43.0409983" lon="12.10976"><ele>282.66666666666663</ele><time>2026-03-29T09:11:42.076Z</time></trkpt><trkpt lat="43.0408517" lon="12.1095617"><ele>283.0</ele><time>2026-03-29T09:11:43.076Z</time></trkpt><trkpt lat="43.0407083" lon="12.109355"><ele>283.0</ele><time>2026-03-29T09:11:44.076Z</time></trkpt><trkpt lat="43.04056" lon="12.1091567"><ele>283.0</ele><time>2026-03-29T09:11:45.075Z</time></trkpt><trkpt lat="43.04041" lon="12.1089683"><ele>283.0</ele><time>2026-03-29T09:11:46.076Z</time></trkpt><trkpt lat="43.0402633" lon="12.10875"><ele>282.5</ele><time>2026-03-29T09:11:47.076Z</time></trkpt><trkpt lat="43.0401167" lon="12.10853"><ele>282.0</ele><time>2026-03-29T09:11:48.076Z</time></trkpt><trkpt lat="43.0399583" lon="12.1082883"><ele>284.0</ele><time>2026-03-29T09:11:49.076Z</time></trkpt><trkpt lat="43.0398067" lon="12.1080467"><ele>286.0</ele><time>2026-03-29T09:11:50.075Z</time></trkpt><trkpt lat="43.0396517" lon="12.1078067"><ele>286.0</ele><time>2026-03-29T09:11:51.076Z</time></trkpt><trkpt lat="43.0395067" lon="12.1075867"><ele>286.0</ele><time>2026-03-29T09:11:52.076Z</time></trkpt><trkpt lat="43.0393633" lon="12.1073767"><ele>286.0</ele><time>2026-03-29T09:11:53.076Z</time></trkpt><trkpt lat="43.0392333" lon="12.1071817"><ele>289.3333333333333</ele><time>2026-03-29T09:11:54.076Z</time></trkpt><trkpt lat="43.0391" lon="12.106985"><ele>292.6666666666667</ele><time>2026-03-29T09:11:55.076Z</time></trkpt><trkpt lat="43.0389667" lon="12.1067967"><ele>296.0</ele><time>2026-03-29T09:11:56.076Z</time></trkpt><trkpt lat="43.0388583" lon="12.1066183"><ele>295.6666666666667</ele><time>2026-03-29T09:11:57.075Z</time></trkpt><trkpt lat="43.038765" lon="12.10644"><ele>295.3333333333333</ele><time>2026-03-29T09:11:58.076Z</time></trkpt><trkpt lat="43.038655" lon="12.1062967"><ele>295.0</ele><time>2026-03-29T09:11:59.076Z</time></trkpt><trkpt lat="43.0385367" lon="12.1061617"><ele>295.0</ele><time>2026-03-29T09:12:00.076Z</time></trkpt><trkpt lat="43.0384033" lon="12.10608"><ele>295.0</ele><time>2026-03-29T09:12:01.075Z</time></trkpt><trkpt lat="43.0382417" lon="12.1060317"><ele>295.0</ele><time>2026-03-29T09:12:02.076Z</time></trkpt><trkpt lat="43.0380683" lon="12.1059733"><ele>298.0</ele><time>2026-03-29T09:12:03.076Z</time></trkpt><trkpt lat="43.0379167" lon="12.105885"><ele>301.0</ele><time>2026-03-29T09:12:04.075Z</time></trkpt><trkpt lat="43.0377917" lon="12.10578"><ele>304.0</ele><time>2026-03-29T09:12:05.075Z</time></trkpt><trkpt lat="43.0376883" lon="12.105645"><ele>304.0</ele><time>2026-03-29T09:12:06.076Z</time></trkpt><trkpt lat="43.037605" lon="12.1055117"><ele>304.0</ele><time>2026-03-29T09:12:07.076Z</time></trkpt><trkpt lat="43.0375417" lon="12.1053567"><ele>304.0</ele><time>2026-03-29T09:12:08.075Z</time></trkpt><trkpt lat="43.03748" lon="12.1052283"><ele>304.0</ele><time>2026-03-29T09:12:09.075Z</time></trkpt><trkpt lat="43.0373967" lon="12.1051383"><ele>306.2</ele><time>2026-03-29T09:12:10.076Z</time></trkpt><trkpt lat="43.037305" lon="12.1050867"><ele>308.4</ele><time>2026-03-29T09:12:11.076Z</time></trkpt><trkpt lat="43.0372067" lon="12.1050917"><ele>310.6</ele><time>2026-03-29T09:12:12.076Z</time></trkpt><trkpt lat="43.0371033" lon="12.10509"><ele>312.8</ele><time>2026-03-29T09:12:13.075Z</time></trkpt><trkpt lat="43.037015" lon="12.1050683"><ele>315.0</ele><time>2026-03-29T09:12:14.075Z</time></trkpt><trkpt lat="43.0369283" lon="12.1050033"><ele>315.25</ele><time>2026-03-29T09:12:15.076Z</time></trkpt><trkpt lat="43.0368433" lon="12.1049"><ele>315.5</ele><time>2026-03-29T09:12:16.076Z</time></trkpt><trkpt lat="43.036755" lon="12.104785"><ele>315.75</ele><time>2026-03-29T09:12:17.076Z</time></trkpt><trkpt lat="43.036635" lon="12.1046967"><ele>316.0</ele><time>2026-03-29T09:12:18.076Z</time></trkpt><trkpt lat="43.0364933" lon="12.1046083"><ele>319.0</ele><time>2026-03-29T09:12:19.076Z</time></trkpt><trkpt lat="43.0363683" lon="12.10454"><ele>322.0</ele><time>2026-03-29T09:12:20.076Z</time></trkpt><trkpt lat="43.036245" lon="12.1044883"><ele>325.0</ele><time>2026-03-29T09:12:21.076Z</time></trkpt><trkpt lat="43.0361233" lon="12.1044383"><ele>328.0</ele><time>2026-03-29T09:12:22.075Z</time></trkpt><trkpt lat="43.0360117" lon="12.1043717"><ele>328.0</ele><time>2026-03-29T09:12:23.076Z</time></trkpt><trkpt lat="43.0359" lon="12.1043017"><ele>328.0</ele><time>2026-03-29T09:12:24.076Z</time></trkpt><trkpt lat="43.035795" lon="12.1042333"><ele>328.0</ele><time>2026-03-29T09:12:25.076Z</time></trkpt><trkpt lat="43.0356917" lon="12.1041667"><ele>328.0</ele><time>2026-03-29T09:12:26.076Z</time></trkpt><trkpt lat="43.035585" lon="12.1041117"><ele>329.2</ele><time>2026-03-29T09:12:27.075Z</time></trkpt><trkpt lat="43.035475" lon="12.10408"><ele>330.4</ele><time>2026-03-29T09:12:28.076Z</time></trkpt><trkpt lat="43.0353717" lon="12.1040683"><ele>331.59999999999997</ele><time>2026-03-29T09:12:29.076Z</time></trkpt><trkpt lat="43.03527" lon="12.1040717"><ele>332.79999999999995</ele><time>2026-03-29T09:12:30.075Z</time></trkpt><trkpt lat="43.0351633" lon="12.1040783"><ele>334.0</ele><time>2026-03-29T09:12:31.076Z</time></trkpt><trkpt lat="43.0350583" lon="12.1040467"><ele>330.0</ele><time>2026-03-29T09:12:32.076Z</time></trkpt><trkpt lat="43.0349533" lon="12.1039983"><ele>326.0</ele><time>2026-03-29T09:12:33.076Z</time></trkpt><trkpt lat="43.03485" lon="12.1039417"><ele>322.0</ele><time>2026-03-29T09:12:34.075Z</time></trkpt><trkpt lat="43.0347367" lon="12.103875"><ele>318.0</ele><time>2026-03-29T09:12:35.076Z</time></trkpt><trkpt lat="43.034625" lon="12.1038083"><ele>318.0</ele><time>2026-03-29T09:12:36.076Z</time></trkpt><trkpt lat="43.03452" lon="12.1037483"><ele>318.0</ele><time>2026-03-29T09:12:37.076Z</time></trkpt><trkpt lat="43.0344033" lon="12.1036917"><ele>318.0</ele><time>2026-03-29T09:12:38.076Z</time></trkpt><trkpt lat="43.0342867" lon="12.10362"><ele>318.0</ele><time>2026-03-29T09:12:39.075Z</time></trkpt><trkpt lat="43.034175" lon="12.1035383"><ele>319.25</ele><time>2026-03-29T09:12:40.075Z</time></trkpt><trkpt lat="43.0340533" lon="12.1034617"><ele>320.5</ele><time>2026-03-29T09:12:41.075Z</time></trkpt><trkpt lat="43.0339417" lon="12.1033717"><ele>321.75</ele><time>2026-03-29T09:12:42.075Z</time></trkpt><trkpt lat="43.0338417" lon="12.103265"><ele>323.0</ele><time>2026-03-29T09:12:43.076Z</time></trkpt><trkpt lat="43.03377" lon="12.1031317"><ele>324.59999999999997</ele><time>2026-03-29T09:12:44.075Z</time></trkpt><trkpt lat="43.0337183" lon="12.1030117"><ele>326.2</ele><time>2026-03-29T09:12:45.076Z</time></trkpt><trkpt lat="43.03372" lon="12.1028917"><ele>327.8</ele><time>2026-03-29T09:12:46.076Z</time></trkpt><trkpt lat="43.0337683" lon="12.1027667"><ele>329.4</ele><time>2026-03-29T09:12:47.076Z</time></trkpt><trkpt lat="43.0338333" lon="12.102655"><ele>331.0</ele><time>2026-03-29T09:12:48.076Z</time></trkpt><trkpt lat="43.0339017" lon="12.1025683"><ele>331.0</ele><time>2026-03-29T09:12:49.075Z</time></trkpt><trkpt lat="43.0339583" lon="12.1024917"><ele>331.0</ele><time>2026-03-29T09:12:50.076Z</time></trkpt><trkpt lat="43.03401" lon="12.1024133"><ele>331.0</ele><time>2026-03-29T09:12:51.076Z</time></trkpt><trkpt lat="43.0340483" lon="12.1023017"><ele>331.0</ele><time>2026-03-29T09:12:53.076Z</time></trkpt><trkpt lat="43.034" lon="12.10224"><ele>331.0</ele><time>2026-03-29T09:12:56.076Z</time></trkpt><trkpt lat="43.03393" lon="12.1023167"><ele>331.0</ele><time>2026-03-29T09:12:58.076Z</time></trkpt><trkpt lat="43.0338733" lon="12.1024033"><ele>331.0</ele><time>2026-03-29T09:12:59.075Z</time></trkpt><trkpt lat="43.0337967" lon="12.1025217"><ele>331.0</ele><time>2026-03-29T09:13:00.076Z</time></trkpt><trkpt lat="43.0337" lon="12.10267"><ele>331.0</ele><time>2026-03-29T09:13:01.076Z</time></trkpt><trkpt lat="43.03359" lon="12.102835"><ele>331.0</ele><time>2026-03-29T09:13:02.076Z</time></trkpt><trkpt lat="43.0334533" lon="12.1029867"><ele>334.3333333333333</ele><time>2026-03-29T09:13:03.076Z</time></trkpt><trkpt lat="43.0332883" lon="12.10316"><ele>337.6666666666667</ele><time>2026-03-29T09:13:04.076Z</time></trkpt><trkpt lat="43.0331183" lon="12.1033533"><ele>341.0</ele><time>2026-03-29T09:13:05.075Z</time></trkpt><trkpt lat="43.03296" lon="12.1035533"><ele>341.0</ele><time>2026-03-29T09:13:06.076Z</time></trkpt><trkpt lat="43.0327967" lon="12.103745"><ele>341.0</ele><time>2026-03-29T09:13:07.076Z</time></trkpt><trkpt lat="43.0326367" lon="12.103935"><ele>341.0</ele><time>2026-03-29T09:13:08.076Z</time></trkpt><trkpt lat="43.03248" lon="12.1041267"><ele>344.6666666666667</ele><time>2026-03-29T09:13:09.075Z</time></trkpt><trkpt lat="43.0323317" lon="12.104325"><ele>348.3333333333333</ele><time>2026-03-29T09:13:10.075Z</time></trkpt><trkpt lat="43.0321817" lon="12.1045133"><ele>352.0</ele><time>2026-03-29T09:13:11.075Z</time></trkpt><trkpt lat="43.0320267" lon="12.1047133"><ele>349.0</ele><time>2026-03-29T09:13:12.076Z</time></trkpt><trkpt lat="43.0318867" lon="12.10493"><ele>346.0</ele><time>2026-03-29T09:13:13.075Z</time></trkpt><trkpt lat="43.031745" lon="12.10514"><ele>343.0</ele><time>2026-03-29T09:13:14.076Z</time></trkpt><trkpt lat="43.0316183" lon="12.1053517"><ele>347.0</ele><time>2026-03-29T09:13:15.076Z</time></trkpt><trkpt lat="43.031475" lon="12.1055633"><ele>351.0</ele><time>2026-03-29T09:13:16.075Z</time></trkpt><trkpt lat="43.0313283" lon="12.1057667"><ele>355.0</ele><time>2026-03-29T09:13:17.075Z</time></trkpt><trkpt lat="43.0311833" lon="12.1059717"><ele>355.0</ele><time>2026-03-29T09:13:18.076Z</time></trkpt><trkpt lat="43.0310283" lon="12.1061783"><ele>355.0</ele><time>2026-03-29T09:13:19.075Z</time></trkpt><trkpt lat="43.030885" lon="12.1063817"><ele>355.0</ele><time>2026-03-29T09:13:20.075Z</time></trkpt><trkpt lat="43.0307483" lon="12.1065617"><ele>357.66666666666663</ele><time>2026-03-29T09:13:21.075Z</time></trkpt><trkpt lat="43.0306067" lon="12.1067283"><ele>360.3333333333333</ele><time>2026-03-29T09:13:22.076Z</time></trkpt><trkpt lat="43.0304967" lon="12.1068833"><ele>363.0</ele><time>2026-03-29T09:13:23.076Z</time></trkpt><trkpt lat="43.0304" lon="12.1070167"><ele>363.0</ele><time>2026-03-29T09:13:24.076Z</time></trkpt><trkpt lat="43.0303183" lon="12.1071333"><ele>363.0</ele><time>2026-03-29T09:13:25.076Z</time></trkpt><trkpt lat="43.0302533" lon="12.1072233"><ele>363.0</ele><time>2026-03-29T09:13:26.075Z</time></trkpt><trkpt lat="43.0301967" lon="12.107285"><ele>363.0</ele><time>2026-03-29T09:13:27.076Z</time></trkpt><trkpt lat="43.0301317" lon="12.1073417"><ele>363.0</ele><time>2026-03-29T09:13:29.075Z</time></trkpt><trkpt lat="43.0300433" lon="12.10738"><ele>363.0</ele><time>2026-03-29T09:13:31.076Z</time></trkpt><trkpt lat="43.02998" lon="12.1073833"><ele>363.0</ele><time>2026-03-29T09:13:32.076Z</time></trkpt><trkpt lat="43.029905" lon="12.107355"><ele>363.0</ele><time>2026-03-29T09:13:33.075Z</time></trkpt><trkpt lat="43.0298367" lon="12.1072817"><ele>363.0</ele><time>2026-03-29T09:13:34.076Z</time></trkpt><trkpt lat="43.0297983" lon="12.107185"><ele>363.0</ele><time>2026-03-29T09:13:35.076Z</time></trkpt><trkpt lat="43.0297733" lon="12.1070617"><ele>363.0</ele><time>2026-03-29T09:13:36.076Z</time></trkpt><trkpt lat="43.029735" lon="12.10691"><ele>363.5</ele><time>2026-03-29T09:13:37.076Z</time></trkpt><trkpt lat="43.0296917" lon="12.106755"><ele>364.0</ele><time>2026-03-29T09:13:38.076Z</time></trkpt><trkpt lat="43.0296733" lon="12.10657"><ele>364.5</ele><time>2026-03-29T09:13:39.076Z</time></trkpt><trkpt lat="43.02968" lon="12.1063967"><ele>365.0</ele><time>2026-03-29T09:13:40.076Z</time></trkpt><trkpt lat="43.029685" lon="12.10622"><ele>367.2</ele><time>2026-03-29T09:13:41.076Z</time></trkpt><trkpt lat="43.02971" lon="12.10607"><ele>369.4</ele><time>2026-03-29T09:13:42.076Z</time></trkpt><trkpt lat="43.0297383" lon="12.105945"><ele>371.6</ele><time>2026-03-29T09:13:43.076Z</time></trkpt><trkpt lat="43.02977" lon="12.10583"><ele>373.8</ele><time>2026-03-29T09:13:44.075Z</time></trkpt><trkpt lat="43.0297967" lon="12.1057133"><ele>376.0</ele><time>2026-03-29T09:13:45.075Z</time></trkpt><trkpt lat="43.0298183" lon="12.1056017"><ele>377.8</ele><time>2026-03-29T09:13:46.076Z</time></trkpt><trkpt lat="43.0298433" lon="12.1054867"><ele>379.6</ele><time>2026-03-29T09:13:47.076Z</time></trkpt><trkpt lat="43.0298717" lon="12.1053683"><ele>381.4</ele><time>2026-03-29T09:13:48.076Z</time></trkpt><trkpt lat="43.02991" lon="12.105235"><ele>383.2</ele><time>2026-03-29T09:13:49.075Z</time></trkpt><trkpt lat="43.0299633" lon="12.1050967"><ele>385.0</ele><time>2026-03-29T09:13:50.076Z</time></trkpt><trkpt lat="43.0300217" lon="12.1049733"><ele>387.2</ele><time>2026-03-29T09:13:51.076Z</time></trkpt><trkpt lat="43.0300933" lon="12.1048483"><ele>389.4</ele><time>2026-03-29T09:13:52.076Z</time></trkpt><trkpt lat="43.03014" lon="12.1047267"><ele>391.6</ele><time>2026-03-29T09:13:53.075Z</time></trkpt><trkpt lat="43.030185" lon="12.1045933"><ele>393.8</ele><time>2026-03-29T09:13:54.076Z</time></trkpt><trkpt lat="43.0302267" lon="12.104455"><ele>396.0</ele><time>2026-03-29T09:13:55.076Z</time></trkpt><trkpt lat="43.0302667" lon="12.1043083"><ele>396.0</ele><time>2026-03-29T09:13:56.076Z</time></trkpt><trkpt lat="43.0303033" lon="12.104145"><ele>396.0</ele><time>2026-03-29T09:13:57.075Z</time></trkpt><trkpt lat="43.0303233" lon="12.1039667"><ele>396.0</ele><time>2026-03-29T09:13:58.075Z</time></trkpt><trkpt lat="43.030335" lon="12.1038083"><ele>396.0</ele><time>2026-03-29T09:13:59.076Z</time></trkpt><trkpt lat="43.03037" lon="12.10365"><ele>400.0</ele><time>2026-03-29T09:14:00.076Z</time></trkpt><trkpt lat="43.0304317" lon="12.10352"><ele>404.0</ele><time>2026-03-29T09:14:01.076Z</time></trkpt><trkpt lat="43.0304933" lon="12.1034167"><ele>408.0</ele><time>2026-03-29T09:14:02.076Z</time></trkpt><trkpt lat="43.0305583" lon="12.1033267"><ele>412.0</ele><time>2026-03-29T09:14:03.075Z</time></trkpt><trkpt lat="43.0306083" lon="12.1032233"><ele>416.0</ele><time>2026-03-29T09:14:04.076Z</time></trkpt><trkpt lat="43.030625" lon="12.10311"><ele>416.6</ele><time>2026-03-29T09:14:05.075Z</time></trkpt><trkpt lat="43.0306167" lon="12.1029867"><ele>417.20000000000005</ele><time>2026-03-29T09:14:06.075Z</time></trkpt><trkpt lat="43.0305817" lon="12.1028583"><ele>417.79999999999995</ele><time>2026-03-29T09:14:07.076Z</time></trkpt><trkpt lat="43.03052" lon="12.1027333"><ele>418.4</ele><time>2026-03-29T09:14:08.075Z</time></trkpt><trkpt lat="43.0304467" lon="12.1026167"><ele>419.0</ele><time>2026-03-29T09:14:09.076Z</time></trkpt><trkpt lat="43.03036" lon="12.1025117"><ele>419.0</ele><time>2026-03-29T09:14:10.076Z</time></trkpt><trkpt lat="43.0302817" lon="12.1024117"><ele>419.0</ele><time>2026-03-29T09:14:11.075Z</time></trkpt><trkpt lat="43.0301967" lon="12.102315"><ele>419.0</ele><time>2026-03-29T09:14:12.076Z</time></trkpt><trkpt lat="43.03011" lon="12.1022317"><ele>419.0</ele><time>2026-03-29T09:14:13.076Z</time></trkpt><trkpt lat="43.03002" lon="12.1021583"><ele>419.0</ele><time>2026-03-29T09:14:14.075Z</time></trkpt><trkpt lat="43.0299267" lon="12.1020883"><ele>419.0</ele><time>2026-03-29T09:14:15.076Z</time></trkpt><trkpt lat="43.02984" lon="12.102025"><ele>419.0</ele><time>2026-03-29T09:14:16.076Z</time></trkpt><trkpt lat="43.0297617" lon="12.1019567"><ele>419.0</ele><time>2026-03-29T09:14:17.076Z</time></trkpt><trkpt lat="43.0296817" lon="12.1019"><ele>419.0</ele><time>2026-03-29T09:14:18.076Z</time></trkpt><trkpt lat="43.02962" lon="12.10184"><ele>419.0</ele><time>2026-03-29T09:14:19.075Z</time></trkpt><trkpt lat="43.0295283" lon="12.10175"><ele>418.99999999999994</ele><time>2026-03-29T09:14:21.076Z</time></trkpt><trkpt lat="43.0294783" lon="12.1016317"><ele>419.0</ele><time>2026-03-29T09:14:23.076Z</time></trkpt><trkpt lat="43.029425" lon="12.1014767"><ele>419.0</ele><time>2026-03-29T09:14:25.075Z</time></trkpt><trkpt lat="43.029405" lon="12.10139"><ele>419.0</ele><time>2026-03-29T09:14:26.075Z</time></trkpt><trkpt lat="43.0293883" lon="12.1012917"><ele>418.99999999999994</ele><time>2026-03-29T09:14:27.076Z</time></trkpt><trkpt lat="43.0293817" lon="12.101185"><ele>419.0</ele><time>2026-03-29T09:14:28.076Z</time></trkpt><trkpt lat="43.0293867" lon="12.101085"><ele>419.3333333333333</ele><time>2026-03-29T09:14:29.076Z</time></trkpt><trkpt lat="43.029395" lon="12.1009983"><ele>419.66666666666663</ele><time>2026-03-29T09:14:30.076Z</time></trkpt><trkpt lat="43.0294333" lon="12.100845"><ele>420.0</ele><time>2026-03-29T09:14:32.076Z</time></trkpt><trkpt lat="43.0294533" lon="12.1007583"><ele>420.33333333333337</ele><time>2026-03-29T09:14:33.076Z</time></trkpt><trkpt lat="43.0294717" lon="12.1006617"><ele>420.6666666666667</ele><time>2026-03-29T09:14:34.076Z</time></trkpt><trkpt lat="43.0294967" lon="12.1005683"><ele>421.0</ele><time>2026-03-29T09:14:35.075Z</time></trkpt><trkpt lat="43.02952" lon="12.1004633"><ele>421.50000000000006</ele><time>2026-03-29T09:14:36.075Z</time></trkpt><trkpt lat="43.0295233" lon="12.1003617"><ele>422.0</ele><time>2026-03-29T09:14:37.075Z</time></trkpt><trkpt lat="43.0295283" lon="12.10025"><ele>422.5</ele><time>2026-03-29T09:14:38.076Z</time></trkpt><trkpt lat="43.0295217" lon="12.1001367"><ele>423.0</ele><time>2026-03-29T09:14:39.076Z</time></trkpt><trkpt lat="43.0295117" lon="12.10003"><ele>423.50000000000006</ele><time>2026-03-29T09:14:40.076Z</time></trkpt><trkpt lat="43.0295" lon="12.0999267"><ele>424.0</ele><time>2026-03-29T09:14:41.075Z</time></trkpt><trkpt lat="43.0294833" lon="12.0998233"><ele>424.83333333333337</ele><time>2026-03-29T09:14:42.076Z</time></trkpt><trkpt lat="43.02945" lon="12.0997233"><ele>425.6666666666667</ele><time>2026-03-29T09:14:43.076Z</time></trkpt><trkpt lat="43.02942" lon="12.099635"><ele>426.5</ele><time>2026-03-29T09:14:44.076Z</time></trkpt><trkpt lat="43.0293917" lon="12.0995467"><ele>427.33333333333337</ele><time>2026-03-29T09:14:45.076Z</time></trkpt><trkpt lat="43.0293883" lon="12.09944"><ele>428.1666666666667</ele><time>2026-03-29T09:14:47.075Z</time></trkpt><trkpt lat="43.0293717" lon="12.099275"><ele>429.0</ele><time>2026-03-29T09:14:49.076Z</time></trkpt><trkpt lat="43.0293717" lon="12.0991683"><ele>429.5</ele><time>2026-03-29T09:14:50.076Z</time></trkpt><trkpt lat="43.0293733" lon="12.0990617"><ele>430.0</ele><time>2026-03-29T09:14:51.076Z</time></trkpt><trkpt lat="43.0293733" lon="12.09894"><ele>430.5</ele><time>2026-03-29T09:14:52.075Z</time></trkpt><trkpt lat="43.02939" lon="12.0988233"><ele>431.0</ele><time>2026-03-29T09:14:53.075Z</time></trkpt><trkpt lat="43.0294033" lon="12.0986983"><ele>431.5</ele><time>2026-03-29T09:14:54.076Z</time></trkpt><trkpt lat="43.0294083" lon="12.09858"><ele>432.0</ele><time>2026-03-29T09:14:55.076Z</time></trkpt><trkpt lat="43.0294133" lon="12.0984783"><ele>432.0</ele><time>2026-03-29T09:14:56.076Z</time></trkpt><trkpt lat="43.02942" lon="12.0983667"><ele>432.0</ele><time>2026-03-29T09:14:57.077Z</time></trkpt><trkpt lat="43.02943" lon="12.09827"><ele>432.0</ele><time>2026-03-29T09:14:58.077Z</time></trkpt><trkpt lat="43.02944" lon="12.0980967"><ele>432.0</ele><time>2026-03-29T09:15:00.076Z</time></trkpt><trkpt lat="43.0294383" lon="12.0980033"><ele>432.0</ele><time>2026-03-29T09:15:01.076Z</time></trkpt><trkpt lat="43.02944" lon="12.097915"><ele>432.0</ele><time>2026-03-29T09:15:02.077Z</time></trkpt><trkpt lat="43.0294383" lon="12.09782"><ele>432.8333333333333</ele><time>2026-03-29T09:15:03.077Z</time></trkpt><trkpt lat="43.0293933" lon="12.0976783"><ele>433.66666666666663</ele><time>2026-03-29T09:15:05.077Z</time></trkpt><trkpt lat="43.0293533" lon="12.0976083"><ele>434.5</ele><time>2026-03-29T09:15:06.077Z</time></trkpt><trkpt lat="43.0293" lon="12.0975217"><ele>435.3333333333333</ele><time>2026-03-29T09:15:07.077Z</time></trkpt><trkpt lat="43.0292467" lon="12.0974417"><ele>436.16666666666663</ele><time>2026-03-29T09:15:08.077Z</time></trkpt><trkpt lat="43.0291917" lon="12.0973683"><ele>437.0</ele><time>2026-03-29T09:15:09.077Z</time></trkpt><trkpt lat="43.0291283" lon="12.0973017"><ele>437.0</ele><time>2026-03-29T09:15:10.076Z</time></trkpt><trkpt lat="43.02908" lon="12.097245"><ele>437.00000000000006</ele><time>2026-03-29T09:15:11.077Z</time></trkpt><trkpt lat="43.0289883" lon="12.0971767"><ele>437.00000000000006</ele><time>2026-03-29T09:15:13.077Z</time></trkpt><trkpt lat="43.0289183" lon="12.097165"><ele>437.0</ele><time>2026-03-29T09:15:16.077Z</time></trkpt><trkpt lat="43.0288133" lon="12.0972117"><ele>437.0</ele><time>2026-03-29T09:15:23.077Z</time></trkpt><trkpt lat="43.0287333" lon="12.0973267"><ele>437.0</ele><time>2026-03-29T09:15:25.077Z</time></trkpt><trkpt lat="43.028635" lon="12.0974083"><ele>437.00000000000006</ele><time>2026-03-29T09:15:27.077Z</time></trkpt><trkpt lat="43.028545" lon="12.0974283"><ele>437.00000000000006</ele><time>2026-03-29T09:15:29.077Z</time></trkpt><trkpt lat="43.0284383" lon="12.0974"><ele>437.0</ele><time>2026-03-29T09:15:31.077Z</time></trkpt><trkpt lat="43.0283683" lon="12.09737"><ele>437.0</ele><time>2026-03-29T09:15:33.076Z</time></trkpt><trkpt lat="43.0282817" lon="12.097365"><ele>437.0</ele><time>2026-03-29T09:15:44.076Z</time></trkpt><trkpt lat="43.0281567" lon="12.097355"><ele>437.00000000000006</ele><time>2026-03-29T09:15:46.077Z</time></trkpt><trkpt lat="43.0280633" lon="12.0973533"><ele>437.00000000000006</ele><time>2026-03-29T09:15:47.077Z</time></trkpt><trkpt lat="43.02796" lon="12.09734"><ele>437.0</ele><time>2026-03-29T09:15:48.077Z</time></trkpt><trkpt lat="43.0278583" lon="12.0973333"><ele>437.0</ele><time>2026-03-29T09:15:49.076Z</time></trkpt><trkpt lat="43.0277667" lon="12.0973267"><ele>436.99999999999994</ele><time>2026-03-29T09:15:50.077Z</time></trkpt><trkpt lat="43.0276583" lon="12.0973133"><ele>437.0</ele><time>2026-03-29T09:15:51.077Z</time></trkpt><trkpt lat="43.0275617" lon="12.0973"><ele>437.0</ele><time>2026-03-29T09:15:52.077Z</time></trkpt><trkpt lat="43.027485" lon="12.0972767"><ele>437.0</ele><time>2026-03-29T09:15:53.077Z</time></trkpt><trkpt lat="43.02742" lon="12.0972617"><ele>436.99999999999994</ele><time>2026-03-29T09:15:54.077Z</time></trkpt><trkpt lat="43.0273367" lon="12.09726"><ele>437.0</ele><time>2026-03-29T09:15:56.076Z</time></trkpt><trkpt lat="43.0274567" lon="12.0972867"><ele>436.99999999999994</ele><time>2026-03-29T09:16:03.077Z</time></trkpt><trkpt lat="43.0275283" lon="12.09729"><ele>437.0</ele><time>2026-03-29T09:16:04.077Z</time></trkpt><trkpt lat="43.0275983" lon="12.0972967"><ele>437.0</ele><time>2026-03-29T09:16:05.077Z</time></trkpt><trkpt lat="43.0276683" lon="12.0973017"><ele>437.0</ele><time>2026-03-29T09:16:06.077Z</time></trkpt><trkpt lat="43.0277483" lon="12.0973017"><ele>436.99999999999994</ele><time>2026-03-29T09:16:07.077Z</time></trkpt><trkpt lat="43.0278333" lon="12.0973117"><ele>437.0</ele><time>2026-03-29T09:16:08.076Z</time></trkpt><trkpt lat="43.0279233" lon="12.0973217"><ele>437.0</ele><time>2026-03-29T09:16:09.077Z</time></trkpt><trkpt lat="43.0280133" lon="12.0973417"><ele>437.00000000000006</ele><time>2026-03-29T09:16:10.076Z</time></trkpt><trkpt lat="43.0281" lon="12.0973583"><ele>437.00000000000006</ele><time>2026-03-29T09:16:11.077Z</time></trkpt><trkpt lat="43.028185" lon="12.0973617"><ele>437.0</ele><time>2026-03-29T09:16:12.077Z</time></trkpt><trkpt lat="43.0282583" lon="12.097375"><ele>437.0</ele><time>2026-03-29T09:16:13.077Z</time></trkpt><trkpt lat="43.0283717" lon="12.0973817"><ele>436.99999999999994</ele><time>2026-03-29T09:16:15.077Z</time></trkpt><trkpt lat="43.0284583" lon="12.0974033"><ele>437.0</ele><time>2026-03-29T09:16:17.077Z</time></trkpt><trkpt lat="43.0285367" lon="12.0974083"><ele>437.0</ele><time>2026-03-29T09:16:21.077Z</time></trkpt><trkpt lat="43.028605" lon="12.09732"><ele>437.0</ele><time>2026-03-29T09:16:27.076Z</time></trkpt><trkpt lat="43.0285433" lon="12.09726"><ele>436.99999999999994</ele><time>2026-03-29T09:16:30.077Z</time></trkpt><trkpt lat="43.0284817" lon="12.0972383"><ele>437.0</ele><time>2026-03-29T09:16:32.077Z</time></trkpt><trkpt lat="43.0283933" lon="12.0972067"><ele>436.99999999999994</ele><time>2026-03-29T09:16:35.077Z</time></trkpt><trkpt lat="43.02833" lon="12.097155"><ele>437.0</ele><time>2026-03-29T09:16:38.077Z</time></trkpt><trkpt lat="43.0283433" lon="12.09705"><ele>437.0</ele><time>2026-03-29T09:16:40.077Z</time></trkpt><trkpt lat="43.028355" lon="12.0969317"><ele>437.0</ele><time>2026-03-29T09:16:42.077Z</time></trkpt><trkpt lat="43.0283167" lon="12.0968267"><ele>436.99999999999994</ele><time>2026-03-29T09:16:44.077Z</time></trkpt><trkpt lat="43.0283017" lon="12.09672"><ele>437.0</ele><time>2026-03-29T09:16:46.077Z</time></trkpt><trkpt lat="43.0283467" lon="12.0966317"><ele>439.6</ele><time>2026-03-29T09:16:48.076Z</time></trkpt><trkpt lat="43.0284367" lon="12.09655"><ele>442.20000000000005</ele><time>2026-03-29T09:16:50.077Z</time></trkpt><trkpt lat="43.0285083" lon="12.096465"><ele>444.8</ele><time>2026-03-29T09:16:52.077Z</time></trkpt><trkpt lat="43.028515" lon="12.09635"><ele>447.4</ele><time>2026-03-29T09:16:54.077Z</time></trkpt><trkpt lat="43.0284317" lon="12.0962433"><ele>450.0</ele><time>2026-03-29T09:16:56.076Z</time></trkpt><trkpt lat="43.0283383" lon="12.09618"><ele>451.8333333333333</ele><time>2026-03-29T09:16:58.076Z</time></trkpt><trkpt lat="43.0282367" lon="12.0960917"><ele>453.66666666666663</ele><time>2026-03-29T09:17:00.077Z</time></trkpt><trkpt lat="43.02818" lon="12.0960317"><ele>455.5</ele><time>2026-03-29T09:17:01.076Z</time></trkpt><trkpt lat="43.0281283" lon="12.0959717"><ele>457.3333333333333</ele><time>2026-03-29T09:17:02.076Z</time></trkpt><trkpt lat="43.0280717" lon="12.095925"><ele>459.16666666666663</ele><time>2026-03-29T09:17:03.077Z</time></trkpt><trkpt lat="43.0280117" lon="12.0958767"><ele>461.0</ele><time>2026-03-29T09:17:04.077Z</time></trkpt><trkpt lat="43.0279417" lon="12.0958267"><ele>460.99999999999994</ele><time>2026-03-29T09:17:05.077Z</time></trkpt><trkpt lat="43.027865" lon="12.0957867"><ele>461.0</ele><time>2026-03-29T09:17:06.076Z</time></trkpt><trkpt lat="43.0277933" lon="12.0957567"><ele>461.0</ele><time>2026-03-29T09:17:07.077Z</time></trkpt><trkpt lat="43.0277117" lon="12.095725"><ele>461.0</ele><time>2026-03-29T09:17:08.076Z</time></trkpt><trkpt lat="43.0276283" lon="12.0957033"><ele>460.99999999999994</ele><time>2026-03-29T09:17:09.077Z</time></trkpt><trkpt lat="43.0275467" lon="12.0956833"><ele>461.0</ele><time>2026-03-29T09:17:10.077Z</time></trkpt><trkpt lat="43.0274583" lon="12.0956683"><ele>464.16666666666663</ele><time>2026-03-29T09:17:11.077Z</time></trkpt><trkpt lat="43.0273583" lon="12.0956483"><ele>467.3333333333333</ele><time>2026-03-29T09:17:12.076Z</time></trkpt><trkpt lat="43.0272633" lon="12.0956167"><ele>470.5</ele><time>2026-03-29T09:17:13.077Z</time></trkpt><trkpt lat="43.0271833" lon="12.0955767"><ele>473.66666666666663</ele><time>2026-03-29T09:17:14.076Z</time></trkpt><trkpt lat="43.02711" lon="12.09555"><ele>476.8333333333333</ele><time>2026-03-29T09:17:15.077Z</time></trkpt><trkpt lat="43.0270433" lon="12.09552"><ele>480.0</ele><time>2026-03-29T09:17:16.077Z</time></trkpt><trkpt lat="43.0269767" lon="12.0954817"><ele>480.0</ele><time>2026-03-29T09:17:17.077Z</time></trkpt><trkpt lat="43.0269217" lon="12.0954233"><ele>480.0</ele><time>2026-03-29T09:17:18.077Z</time></trkpt><trkpt lat="43.0268733" lon="12.0953617"><ele>480.0</ele><time>2026-03-29T09:17:19.077Z</time></trkpt><trkpt lat="43.02682" lon="12.095285"><ele>480.0</ele><time>2026-03-29T09:17:20.076Z</time></trkpt><trkpt lat="43.02678" lon="12.0951917"><ele>480.0</ele><time>2026-03-29T09:17:21.077Z</time></trkpt><trkpt lat="43.02674" lon="12.095085"><ele>480.0</ele><time>2026-03-29T09:17:22.077Z</time></trkpt><trkpt lat="43.0267033" lon="12.0949883"><ele>480.6666666666667</ele><time>2026-03-29T09:17:23.077Z</time></trkpt><trkpt lat="43.0266633" lon="12.0948883"><ele>481.33333333333337</ele><time>2026-03-29T09:17:24.077Z</time></trkpt><trkpt lat="43.02662" lon="12.0947917"><ele>482.0</ele><time>2026-03-29T09:17:25.077Z</time></trkpt><trkpt lat="43.0265733" lon="12.0947017"><ele>482.6666666666667</ele><time>2026-03-29T09:17:26.077Z</time></trkpt><trkpt lat="43.0265217" lon="12.0946133"><ele>483.33333333333337</ele><time>2026-03-29T09:17:27.077Z</time></trkpt><trkpt lat="43.0264683" lon="12.09453"><ele>484.0</ele><time>2026-03-29T09:17:28.077Z</time></trkpt><trkpt lat="43.0264117" lon="12.0944517"><ele>484.00000000000006</ele><time>2026-03-29T09:17:29.077Z</time></trkpt><trkpt lat="43.0263483" lon="12.09437"><ele>484.0</ele><time>2026-03-29T09:17:30.076Z</time></trkpt><trkpt lat="43.0262767" lon="12.0943017"><ele>484.0</ele><time>2026-03-29T09:17:31.076Z</time></trkpt><trkpt lat="43.0262183" lon="12.0942217"><ele>484.0</ele><time>2026-03-29T09:17:32.077Z</time></trkpt><trkpt lat="43.02617" lon="12.094165"><ele>484.00000000000006</ele><time>2026-03-29T09:17:33.077Z</time></trkpt><trkpt lat="43.0260817" lon="12.0940683"><ele>484.0</ele><time>2026-03-29T09:17:35.076Z</time></trkpt><trkpt lat="43.026005" lon="12.0939467"><ele>484.33333333333337</ele><time>2026-03-29T09:17:37.076Z</time></trkpt><trkpt lat="43.02596" lon="12.0938633"><ele>484.6666666666667</ele><time>2026-03-29T09:17:38.077Z</time></trkpt><trkpt lat="43.02591" lon="12.09377"><ele>485.0</ele><time>2026-03-29T09:17:39.076Z</time></trkpt><trkpt lat="43.0258583" lon="12.0936733"><ele>485.33333333333337</ele><time>2026-03-29T09:17:40.076Z</time></trkpt><trkpt lat="43.0258067" lon="12.09358"><ele>485.6666666666667</ele><time>2026-03-29T09:17:41.077Z</time></trkpt><trkpt lat="43.02575" lon="12.0934783"><ele>486.0</ele><time>2026-03-29T09:17:42.077Z</time></trkpt><trkpt lat="43.025675" lon="12.0933883"><ele>486.0</ele><time>2026-03-29T09:17:43.076Z</time></trkpt><trkpt lat="43.0255967" lon="12.0933083"><ele>486.0</ele><time>2026-03-29T09:17:44.077Z</time></trkpt><trkpt lat="43.0255217" lon="12.0932183"><ele>486.0</ele><time>2026-03-29T09:17:45.077Z</time></trkpt><trkpt lat="43.0254633" lon="12.09313"><ele>486.0</ele><time>2026-03-29T09:17:46.077Z</time></trkpt><trkpt lat="43.0254067" lon="12.0930233"><ele>486.0</ele><time>2026-03-29T09:17:47.076Z</time></trkpt><trkpt lat="43.0253533" lon="12.092915"><ele>487.8333333333333</ele><time>2026-03-29T09:17:48.076Z</time></trkpt><trkpt lat="43.0252917" lon="12.0928183"><ele>489.66666666666663</ele><time>2026-03-29T09:17:49.076Z</time></trkpt><trkpt lat="43.025235" lon="12.09273"><ele>491.5</ele><time>2026-03-29T09:17:50.076Z</time></trkpt><trkpt lat="43.0251667" lon="12.0926483"><ele>493.3333333333333</ele><time>2026-03-29T09:17:51.076Z</time></trkpt><trkpt lat="43.0251017" lon="12.0925667"><ele>495.16666666666663</ele><time>2026-03-29T09:17:52.077Z</time></trkpt><trkpt lat="43.0250417" lon="12.0924783"><ele>497.0</ele><time>2026-03-29T09:17:53.077Z</time></trkpt><trkpt lat="43.0249783" lon="12.0923833"><ele>497.7142857142857</ele><time>2026-03-29T09:17:54.077Z</time></trkpt><trkpt lat="43.0249167" lon="12.0923"><ele>498.42857142857144</ele><time>2026-03-29T09:17:55.076Z</time></trkpt><trkpt lat="43.0248667" lon="12.092235"><ele>499.1428571428571</ele><time>2026-03-29T09:17:56.077Z</time></trkpt><trkpt lat="43.02481" lon="12.0921833"><ele>499.85714285714283</ele><time>2026-03-29T09:17:57.076Z</time></trkpt><trkpt lat="43.024755" lon="12.09212"><ele>500.57142857142856</ele><time>2026-03-29T09:17:58.077Z</time></trkpt><trkpt lat="43.0246917" lon="12.0920633"><ele>501.2857142857142</ele><time>2026-03-29T09:17:59.077Z</time></trkpt><trkpt lat="43.0246333" lon="12.0920067"><ele>501.99999999999994</ele><time>2026-03-29T09:18:00.076Z</time></trkpt><trkpt lat="43.0245783" lon="12.0919567"><ele>502.00000000000006</ele><time>2026-03-29T09:18:01.077Z</time></trkpt><trkpt lat="43.02452" lon="12.0919133"><ele>502.0</ele><time>2026-03-29T09:18:02.076Z</time></trkpt><trkpt lat="43.0244633" lon="12.091865"><ele>502.0</ele><time>2026-03-29T09:18:03.077Z</time></trkpt><trkpt lat="43.0244033" lon="12.091815"><ele>502.0</ele><time>2026-03-29T09:18:04.077Z</time></trkpt><trkpt lat="43.0243517" lon="12.0917517"><ele>502.00000000000006</ele><time>2026-03-29T09:18:05.077Z</time></trkpt><trkpt lat="43.0242983" lon="12.091705"><ele>502.0</ele><time>2026-03-29T09:18:06.077Z</time></trkpt><trkpt lat="43.0242117" lon="12.0916"><ele>502.00000000000006</ele><time>2026-03-29T09:18:08.077Z</time></trkpt><trkpt lat="43.0241717" lon="12.0915267"><ele>502.0</ele><time>2026-03-29T09:18:09.076Z</time></trkpt><trkpt lat="43.0241283" lon="12.0914483"><ele>502.0</ele><time>2026-03-29T09:18:10.077Z</time></trkpt><trkpt lat="43.02407" lon="12.091375"><ele>502.0</ele><time>2026-03-29T09:18:11.077Z</time></trkpt><trkpt lat="43.0240083" lon="12.0913017"><ele>502.00000000000006</ele><time>2026-03-29T09:18:12.077Z</time></trkpt><trkpt lat="43.02395" lon="12.0912317"><ele>502.0</ele><time>2026-03-29T09:18:13.077Z</time></trkpt><trkpt lat="43.0238917" lon="12.091165"><ele>503.0</ele><time>2026-03-29T09:18:14.076Z</time></trkpt><trkpt lat="43.0238417" lon="12.09111"><ele>504.00000000000006</ele><time>2026-03-29T09:18:15.076Z</time></trkpt><trkpt lat="43.0237483" lon="12.091015"><ele>505.00000000000006</ele><time>2026-03-29T09:18:17.077Z</time></trkpt><trkpt lat="43.0236633" lon="12.0909417"><ele>506.0</ele><time>2026-03-29T09:18:19.077Z</time></trkpt><trkpt lat="43.0235567" lon="12.0908617"><ele>507.0</ele><time>2026-03-29T09:18:21.077Z</time></trkpt><trkpt lat="43.0234833" lon="12.090835"><ele>507.0</ele><time>2026-03-29T09:18:22.076Z</time></trkpt><trkpt lat="43.0234" lon="12.0908083"><ele>507.0</ele><time>2026-03-29T09:18:23.076Z</time></trkpt><trkpt lat="43.0233167" lon="12.09077"><ele>507.0</ele><time>2026-03-29T09:18:24.077Z</time></trkpt><trkpt lat="43.0232317" lon="12.09075"><ele>507.0</ele><time>2026-03-29T09:18:25.077Z</time></trkpt><trkpt lat="43.023165" lon="12.0907233"><ele>507.0</ele><time>2026-03-29T09:18:26.076Z</time></trkpt><trkpt lat="43.0230917" lon="12.09071"><ele>507.0</ele><time>2026-03-29T09:18:27.077Z</time></trkpt><trkpt lat="43.0230183" lon="12.09069"><ele>509.0</ele><time>2026-03-29T09:18:28.077Z</time></trkpt><trkpt lat="43.02296" lon="12.09064"><ele>511.0</ele><time>2026-03-29T09:18:29.076Z</time></trkpt><trkpt lat="43.022905" lon="12.090595"><ele>513.0</ele><time>2026-03-29T09:18:30.077Z</time></trkpt><trkpt lat="43.02284" lon="12.09054"><ele>515.0</ele><time>2026-03-29T09:18:31.076Z</time></trkpt><trkpt lat="43.0227717" lon="12.0904867"><ele>517.0</ele><time>2026-03-29T09:18:32.076Z</time></trkpt><trkpt lat="43.0227017" lon="12.0904267"><ele>519.0</ele><time>2026-03-29T09:18:33.077Z</time></trkpt><trkpt lat="43.0226417" lon="12.090355"><ele>519.0</ele><time>2026-03-29T09:18:34.077Z</time></trkpt><trkpt lat="43.0225867" lon="12.0902733"><ele>519.0</ele><time>2026-03-29T09:18:35.077Z</time></trkpt><trkpt lat="43.02252" lon="12.090185"><ele>519.0</ele><time>2026-03-29T09:18:36.077Z</time></trkpt><trkpt lat="43.0224533" lon="12.0901117"><ele>519.0</ele><time>2026-03-29T09:18:37.076Z</time></trkpt><trkpt lat="43.022385" lon="12.0900333"><ele>519.0</ele><time>2026-03-29T09:18:38.077Z</time></trkpt><trkpt lat="43.022305" lon="12.08996"><ele>519.0</ele><time>2026-03-29T09:18:39.076Z</time></trkpt><trkpt lat="43.0222267" lon="12.089885"><ele>522.5</ele><time>2026-03-29T09:18:40.077Z</time></trkpt><trkpt lat="43.0221467" lon="12.089825"><ele>526.0</ele><time>2026-03-29T09:18:41.076Z</time></trkpt><trkpt lat="43.0220733" lon="12.0897767"><ele>529.5</ele><time>2026-03-29T09:18:42.077Z</time></trkpt><trkpt lat="43.0220017" lon="12.089735"><ele>533.0</ele><time>2026-03-29T09:18:43.077Z</time></trkpt><trkpt lat="43.0219417" lon="12.0896917"><ele>536.5</ele><time>2026-03-29T09:18:44.077Z</time></trkpt><trkpt lat="43.0218867" lon="12.0896467"><ele>540.0</ele><time>2026-03-29T09:18:45.076Z</time></trkpt><trkpt lat="43.02179" lon="12.08956"><ele>540.0</ele><time>2026-03-29T09:18:47.077Z</time></trkpt><trkpt lat="43.0217067" lon="12.0894733"><ele>540.0</ele><time>2026-03-29T09:18:49.077Z</time></trkpt><trkpt lat="43.0236633" lon="12.0909417"><ele>535.8</ele><time>2026-03-29T09:18:19.077Z</time></trkpt><trkpt lat="43.0235567" lon="12.0908617"><ele>531.6</ele><time>2026-03-29T09:18:21.077Z</time></trkpt><trkpt lat="43.0234833" lon="12.090835"><ele>527.4</ele><time>2026-03-29T09:18:22.076Z</time></trkpt><trkpt lat="43.0234" lon="12.0908083"><ele>523.2</ele><time>2026-03-29T09:18:23.076Z</time></trkpt><trkpt lat="43.0233167" lon="12.09077"><ele>519.0</ele><time>2026-03-29T09:18:24.077Z</time></trkpt><trkpt lat="43.0232317" lon="12.09075"><ele>519.0</ele><time>2026-03-29T09:18:25.077Z</time></trkpt><trkpt lat="43.023165" lon="12.0907233"><ele>519.0</ele><time>2026-03-29T09:18:26.076Z</time></trkpt><trkpt lat="43.0230917" lon="12.09071"><ele>519.0</ele><time>2026-03-29T09:18:27.077Z</time></trkpt><trkpt lat="43.0230183" lon="12.09069"><ele>519.0</ele><time>2026-03-29T09:18:28.077Z</time></trkpt><trkpt lat="43.02296" lon="12.09064"><ele>519.0</ele><time>2026-03-29T09:18:29.076Z</time></trkpt><trkpt lat="43.022905" lon="12.090595"><ele>519.0</ele><time>2026-03-29T09:18:30.077Z</time></trkpt><trkpt lat="43.02284" lon="12.09054"><ele>519.0</ele><time>2026-03-29T09:18:31.076Z</time></trkpt><trkpt lat="43.0227717" lon="12.0904867"><ele>519.0</ele><time>2026-03-29T09:18:32.076Z</time></trkpt><trkpt lat="43.0227017" lon="12.0904267"><ele>519.0</ele><time>2026-03-29T09:18:33.077Z</time></trkpt><trkpt lat="43.0226417" lon="12.090355"><ele>519.0</ele><time>2026-03-29T09:18:34.077Z</time></trkpt><trkpt lat="43.0225867" lon="12.0902733"><ele>519.0</ele><time>2026-03-29T09:18:35.077Z</time></trkpt><trkpt lat="43.02252" lon="12.090185"><ele>519.0</ele><time>2026-03-29T09:18:36.077Z</time></trkpt><trkpt lat="43.0224533" lon="12.0901117"><ele>519.0</ele><time>2026-03-29T09:18:37.076Z</time></trkpt><trkpt lat="43.022385" lon="12.0900333"><ele>520.3333333333334</ele><time>2026-03-29T09:18:38.077Z</time></trkpt><trkpt lat="43.022305" lon="12.08996"><ele>521.6666666666666</ele><time>2026-03-29T09:18:39.076Z</time></trkpt><trkpt lat="43.0222267" lon="12.089885"><ele>523.0</ele><time>2026-03-29T09:18:40.077Z</time></trkpt><trkpt lat="43.0221467" lon="12.089825"><ele>524.3333333333333</ele><time>2026-03-29T09:18:41.076Z</time></trkpt><trkpt lat="43.0220733" lon="12.0897767"><ele>525.6666666666666</ele><time>2026-03-29T09:18:42.077Z</time></trkpt><trkpt lat="43.0220017" lon="12.089735"><ele>527.0</ele><time>2026-03-29T09:18:43.077Z</time></trkpt><trkpt lat="43.0219417" lon="12.0896917"><ele>529.6</ele><time>2026-03-29T09:18:44.077Z</time></trkpt><trkpt lat="43.0218867" lon="12.0896467"><ele>532.2</ele><time>2026-03-29T09:18:45.076Z</time></trkpt><trkpt lat="43.02179" lon="12.08956"><ele>534.8</ele><time>2026-03-29T09:18:47.077Z</time></trkpt><trkpt lat="43.0217067" lon="12.0894733"><ele>537.4</ele><time>2026-03-29T09:18:49.077Z</time></trkpt><trkpt lat="43.02164" lon="12.0893483"><ele>540.0</ele><time>2026-03-29T09:18:51.077Z</time></trkpt><trkpt lat="43.021575" lon="12.08922"><ele>544.4</ele><time>2026-03-29T09:18:53.077Z</time></trkpt><trkpt lat="43.0215" lon="12.0890867"><ele>548.8</ele><time>2026-03-29T09:18:55.077Z</time></trkpt><trkpt lat="43.0214483" lon="12.089015"><ele>553.2</ele><time>2026-03-29T09:18:56.077Z</time></trkpt><trkpt lat="43.0213783" lon="12.0889217"><ele>557.6</ele><time>2026-03-29T09:18:57.077Z</time></trkpt><trkpt lat="43.02129" lon="12.0888117"><ele>562.0</ele><time>2026-03-29T09:18:58.076Z</time></trkpt><trkpt lat="43.02118" lon="12.0886967"><ele>562.0</ele><time>2026-03-29T09:18:59.077Z</time></trkpt><trkpt lat="43.0210617" lon="12.0885983"><ele>562.0</ele><time>2026-03-29T09:19:00.076Z</time></trkpt><trkpt lat="43.02095" lon="12.08852"><ele>562.0</ele><time>2026-03-29T09:19:01.077Z</time></trkpt><trkpt lat="43.0208633" lon="12.0884617"><ele>562.0</ele><time>2026-03-29T09:19:02.077Z</time></trkpt><trkpt lat="43.0207733" lon="12.0884267"><ele>563.0</ele><time>2026-03-29T09:19:03.077Z</time></trkpt><trkpt lat="43.0206883" lon="12.088385"><ele>564.0</ele><time>2026-03-29T09:19:04.076Z</time></trkpt><trkpt lat="43.0206" lon="12.08835"><ele>565.0</ele><time>2026-03-29T09:19:05.077Z</time></trkpt><trkpt lat="43.0205017" lon="12.088325"><ele>566.0</ele><time>2026-03-29T09:19:06.076Z</time></trkpt><trkpt lat="43.0204017" lon="12.088285"><ele>567.0</ele><time>2026-03-29T09:19:07.076Z</time></trkpt><trkpt lat="43.0202983" lon="12.0882233"><ele>566.0</ele><time>2026-03-29T09:19:08.077Z</time></trkpt><trkpt lat="43.0202017" lon="12.08816"><ele>565.0</ele><time>2026-03-29T09:19:09.076Z</time></trkpt><trkpt lat="43.0201167" lon="12.0880967"><ele>564.0</ele><time>2026-03-29T09:19:10.077Z</time></trkpt><trkpt lat="43.02004" lon="12.088035"><ele>563.0</ele><time>2026-03-29T09:19:11.077Z</time></trkpt><trkpt lat="43.019975" lon="12.08797"><ele>562.0</ele><time>2026-03-29T09:19:12.077Z</time></trkpt><trkpt lat="43.01992" lon="12.0878933"><ele>562.0</ele><time>2026-03-29T09:19:13.077Z</time></trkpt><trkpt lat="43.0198767" lon="12.0877967"><ele>562.0</ele><time>2026-03-29T09:19:14.076Z</time></trkpt><trkpt lat="43.01984" lon="12.08769"><ele>562.0</ele><time>2026-03-29T09:19:15.077Z</time></trkpt><trkpt lat="43.0198233" lon="12.0875583"><ele>562.0</ele><time>2026-03-29T09:19:16.077Z</time></trkpt><trkpt lat="43.019825" lon="12.0874267"><ele>562.0</ele><time>2026-03-29T09:19:17.077Z</time></trkpt><trkpt lat="43.0198283" lon="12.0872933"><ele>564.8000000000001</ele><time>2026-03-29T09:19:18.077Z</time></trkpt><trkpt lat="43.0198267" lon="12.0871717"><ele>567.6</ele><time>2026-03-29T09:19:19.076Z</time></trkpt><trkpt lat="43.0198" lon="12.0870417"><ele>570.4000000000001</ele><time>2026-03-29T09:19:20.077Z</time></trkpt><trkpt lat="43.0197517" lon="12.08692"><ele>573.2</ele><time>2026-03-29T09:19:21.077Z</time></trkpt><trkpt lat="43.0196917" lon="12.0867883"><ele>576.0</ele><time>2026-03-29T09:19:22.077Z</time></trkpt><trkpt lat="43.0196" lon="12.0866267"><ele>577.25</ele><time>2026-03-29T09:19:23.077Z</time></trkpt><trkpt lat="43.0195117" lon="12.08648"><ele>578.5</ele><time>2026-03-29T09:19:24.077Z</time></trkpt><trkpt lat="43.019445" lon="12.0863317"><ele>579.75</ele><time>2026-03-29T09:19:25.077Z</time></trkpt><trkpt lat="43.0193917" lon="12.0861733"><ele>581.0</ele><time>2026-03-29T09:19:26.077Z</time></trkpt><trkpt lat="43.0193617" lon="12.0860083"><ele>581.0</ele><time>2026-03-29T09:19:27.076Z</time></trkpt><trkpt lat="43.01934" lon="12.0858233"><ele>581.0</ele><time>2026-03-29T09:19:28.077Z</time></trkpt><trkpt lat="43.0193267" lon="12.0856117"><ele>581.0</ele><time>2026-03-29T09:19:29.077Z</time></trkpt><trkpt lat="43.0193117" lon="12.0853867"><ele>583.25</ele><time>2026-03-29T09:19:30.077Z</time></trkpt><trkpt lat="43.0192917" lon="12.08517"><ele>585.5</ele><time>2026-03-29T09:19:31.076Z</time></trkpt><trkpt lat="43.019275" lon="12.084965"><ele>587.75</ele><time>2026-03-29T09:19:32.077Z</time></trkpt><trkpt lat="43.0192683" lon="12.0848033"><ele>590.0</ele><time>2026-03-29T09:19:33.077Z</time></trkpt><trkpt lat="43.0192733" lon="12.084665"><ele>591.6</ele><time>2026-03-29T09:19:34.076Z</time></trkpt><trkpt lat="43.0192833" lon="12.0845683"><ele>593.2</ele><time>2026-03-29T09:19:35.077Z</time></trkpt><trkpt lat="43.01926" lon="12.0844683"><ele>594.8</ele><time>2026-03-29T09:19:37.076Z</time></trkpt><trkpt lat="43.0191917" lon="12.08441"><ele>596.4</ele><time>2026-03-29T09:19:39.077Z</time></trkpt><trkpt lat="43.0191033" lon="12.08432"><ele>598.0</ele><time>2026-03-29T09:19:41.077Z</time></trkpt><trkpt lat="43.01902" lon="12.0841867"><ele>599.4285714285714</ele><time>2026-03-29T09:19:43.077Z</time></trkpt><trkpt lat="43.0189767" lon="12.0841067"><ele>600.8571428571429</ele><time>2026-03-29T09:19:44.076Z</time></trkpt><trkpt lat="43.0189333" lon="12.0840317"><ele>602.2857142857142</ele><time>2026-03-29T09:19:45.076Z</time></trkpt><trkpt lat="43.0188917" lon="12.08395"><ele>603.7142857142858</ele><time>2026-03-29T09:19:46.076Z</time></trkpt><trkpt lat="43.018855" lon="12.0838667"><ele>605.1428571428572</ele><time>2026-03-29T09:19:47.077Z</time></trkpt><trkpt lat="43.0188117" lon="12.083785"><ele>606.5714285714286</ele><time>2026-03-29T09:19:48.077Z</time></trkpt><trkpt lat="43.0187683" lon="12.083705"><ele>608.0</ele><time>2026-03-29T09:19:49.077Z</time></trkpt><trkpt lat="43.0187267" lon="12.0836167"><ele>610.5</ele><time>2026-03-29T09:19:50.077Z</time></trkpt><trkpt lat="43.01869" lon="12.0835233"><ele>613.0</ele><time>2026-03-29T09:19:51.076Z</time></trkpt><trkpt lat="43.01866" lon="12.0834183"><ele>615.5</ele><time>2026-03-29T09:19:52.077Z</time></trkpt><trkpt lat="43.0186383" lon="12.0832967"><ele>618.0</ele><time>2026-03-29T09:19:53.077Z</time></trkpt><trkpt lat="43.0186217" lon="12.0831633"><ele>620.5</ele><time>2026-03-29T09:19:54.077Z</time></trkpt><trkpt lat="43.0186017" lon="12.083035"><ele>623.0</ele><time>2026-03-29T09:19:55.076Z</time></trkpt><trkpt lat="43.018575" lon="12.08289"><ele>622.8</ele><time>2026-03-29T09:19:56.076Z</time></trkpt><trkpt lat="43.0185533" lon="12.0827533"><ele>622.5999999999999</ele><time>2026-03-29T09:19:57.077Z</time></trkpt><trkpt lat="43.0185333" lon="12.0826317"><ele>622.4000000000001</ele><time>2026-03-29T09:19:58.076Z</time></trkpt><trkpt lat="43.0185083" lon="12.08252"><ele>622.2</ele><time>2026-03-29T09:19:59.077Z</time></trkpt><trkpt lat="43.0184767" lon="12.0824083"><ele>622.0</ele><time>2026-03-29T09:20:00.076Z</time></trkpt><trkpt lat="43.0184367" lon="12.0822967"><ele>622.0</ele><time>2026-03-29T09:20:01.077Z</time></trkpt><trkpt lat="43.0183883" lon="12.0822017"><ele>622.0</ele><time>2026-03-29T09:20:02.076Z</time></trkpt><trkpt lat="43.018335" lon="12.0821167"><ele>622.0</ele><time>2026-03-29T09:20:03.077Z</time></trkpt><trkpt lat="43.0182683" lon="12.082015"><ele>622.0</ele><time>2026-03-29T09:20:04.077Z</time></trkpt><trkpt lat="43.0182083" lon="12.081915"><ele>622.0</ele><time>2026-03-29T09:20:05.076Z</time></trkpt><trkpt lat="43.0181483" lon="12.0818133"><ele>622.3333333333334</ele><time>2026-03-29T09:20:06.076Z</time></trkpt><trkpt lat="43.0180833" lon="12.0817283"><ele>622.6666666666667</ele><time>2026-03-29T09:20:07.077Z</time></trkpt><trkpt lat="43.018025" lon="12.081645"><ele>623.0</ele><time>2026-03-29T09:20:08.077Z</time></trkpt><trkpt lat="43.0179767" lon="12.081555"><ele>623.3333333333334</ele><time>2026-03-29T09:20:09.077Z</time></trkpt><trkpt lat="43.0179267" lon="12.0814567"><ele>623.6666666666666</ele><time>2026-03-29T09:20:10.077Z</time></trkpt><trkpt lat="43.0178767" lon="12.081355"><ele>624.0</ele><time>2026-03-29T09:20:11.077Z</time></trkpt><trkpt lat="43.01782" lon="12.081255"><ele>624.0</ele><time>2026-03-29T09:20:12.077Z</time></trkpt><trkpt lat="43.01776" lon="12.0811417"><ele>624.0</ele><time>2026-03-29T09:20:13.077Z</time></trkpt><trkpt lat="43.0177017" lon="12.0810217"><ele>624.0</ele><time>2026-03-29T09:20:14.076Z</time></trkpt><trkpt lat="43.017645" lon="12.0809083"><ele>624.0</ele><time>2026-03-29T09:20:15.077Z</time></trkpt><trkpt lat="43.0175883" lon="12.0807983"><ele>624.0</ele><time>2026-03-29T09:20:16.077Z</time></trkpt><trkpt lat="43.0175333" lon="12.080695"><ele>621.8333333333334</ele><time>2026-03-29T09:20:17.077Z</time></trkpt><trkpt lat="43.017485" lon="12.0805883"><ele>619.6666666666666</ele><time>2026-03-29T09:20:18.076Z</time></trkpt><trkpt lat="43.0174413" lon="12.0805045"><ele>617.5</ele><time>2026-03-29T09:20:19.076Z</time></trkpt><trkpt lat="43.0173921" lon="12.0804219"><ele>615.3333333333333</ele><time>2026-03-29T09:20:20.077Z</time></trkpt><trkpt lat="43.0173329" lon="12.0803497"><ele>613.1666666666666</ele><time>2026-03-29T09:20:21.077Z</time></trkpt><trkpt lat="43.0172613" lon="12.0802878"><ele>611.0</ele><time>2026-03-29T09:20:22.077Z</time></trkpt><trkpt lat="43.0171809" lon="12.0802352"><ele>611.0</ele><time>2026-03-29T09:20:23.076Z</time></trkpt><trkpt lat="43.0170938" lon="12.0801861"><ele>611.0</ele><time>2026-03-29T09:20:24.077Z</time></trkpt><trkpt lat="43.0169899" lon="12.0801356"><ele>611.0</ele><time>2026-03-29T09:20:25.077Z</time></trkpt><trkpt lat="43.0169079" lon="12.0800762"><ele>611.0</ele><time>2026-03-29T09:20:26.077Z</time></trkpt><trkpt lat="43.0168196" lon="12.079988"><ele>611.0</ele><time>2026-03-29T09:20:27.076Z</time></trkpt><trkpt lat="43.016727" lon="12.0798753"><ele>610.25</ele><time>2026-03-29T09:20:28.076Z</time></trkpt><trkpt lat="43.0166302" lon="12.0797629"><ele>609.5</ele><time>2026-03-29T09:20:29.077Z</time></trkpt><trkpt lat="43.0165296" lon="12.0796563"><ele>608.75</ele><time>2026-03-29T09:20:30.077Z</time></trkpt><trkpt lat="43.01643" lon="12.0795464"><ele>608.0</ele><time>2026-03-29T09:20:31.077Z</time></trkpt><trkpt lat="43.0163346" lon="12.0794293"><ele>608.0</ele><time>2026-03-29T09:20:32.076Z</time></trkpt><trkpt lat="43.0162463" lon="12.0793267"><ele>608.0</ele><time>2026-03-29T09:20:33.077Z</time></trkpt><trkpt lat="43.0161599" lon="12.0792314"><ele>608.0</ele><time>2026-03-29T09:20:34.076Z</time></trkpt><trkpt lat="43.0160756" lon="12.079131"><ele>608.0</ele><time>2026-03-29T09:20:35.077Z</time></trkpt><trkpt lat="43.0159956" lon="12.0790218"><ele>607.0</ele><time>2026-03-29T09:20:36.077Z</time></trkpt><trkpt lat="43.0159209" lon="12.0789064"><ele>606.0</ele><time>2026-03-29T09:20:37.076Z</time></trkpt><trkpt lat="43.0158423" lon="12.0787913"><ele>605.0</ele><time>2026-03-29T09:20:38.077Z</time></trkpt><trkpt lat="43.0157634" lon="12.0786828"><ele>604.0</ele><time>2026-03-29T09:20:39.077Z</time></trkpt><trkpt lat="43.015687" lon="12.0785746"><ele>604.0</ele><time>2026-03-29T09:20:40.076Z</time></trkpt><trkpt lat="43.0156147" lon="12.0784742"><ele>604.0</ele><time>2026-03-29T09:20:41.077Z</time></trkpt><trkpt lat="43.0155414" lon="12.0783861"><ele>604.0</ele><time>2026-03-29T09:20:42.077Z</time></trkpt><trkpt lat="43.0154669" lon="12.0783009"><ele>604.0</ele><time>2026-03-29T09:20:43.077Z</time></trkpt><trkpt lat="43.0154023" lon="12.078214"><ele>604.0</ele><time>2026-03-29T09:20:44.077Z</time></trkpt><trkpt lat="43.0153473" lon="12.0781163"><ele>605.8</ele><time>2026-03-29T09:20:45.076Z</time></trkpt><trkpt lat="43.015297" lon="12.0780155"><ele>607.5999999999999</ele><time>2026-03-29T09:20:46.077Z</time></trkpt><trkpt lat="43.0152382" lon="12.0779187"><ele>609.4</ele><time>2026-03-29T09:20:47.076Z</time></trkpt><trkpt lat="43.015172" lon="12.0778277"><ele>611.1999999999999</ele><time>2026-03-29T09:20:48.077Z</time></trkpt><trkpt lat="43.0150936" lon="12.0777396"><ele>613.0</ele><time>2026-03-29T09:20:49.077Z</time></trkpt><trkpt lat="43.0150148" lon="12.0776631"><ele>613.1666666666667</ele><time>2026-03-29T09:20:50.076Z</time></trkpt><trkpt lat="43.014943" lon="12.077595"><ele>613.3333333333334</ele><time>2026-03-29T09:20:51.076Z</time></trkpt><trkpt lat="43.0148712" lon="12.0775542"><ele>613.5</ele><time>2026-03-29T09:20:52.076Z</time></trkpt><trkpt lat="43.0148046" lon="12.0775026"><ele>613.6666666666666</ele><time>2026-03-29T09:20:53.077Z</time></trkpt><trkpt lat="43.0147414" lon="12.0774575"><ele>613.8333333333333</ele><time>2026-03-29T09:20:54.077Z</time></trkpt><trkpt lat="43.0146896" lon="12.0773931"><ele>614.0</ele><time>2026-03-29T09:20:55.076Z</time></trkpt><trkpt lat="43.0146536" lon="12.0773091"><ele>614.0</ele><time>2026-03-29T09:20:56.077Z</time></trkpt><trkpt lat="43.0146368" lon="12.077193"><ele>614.0</ele><time>2026-03-29T09:20:57.077Z</time></trkpt><trkpt lat="43.01462" lon="12.0770483"><ele>614.0</ele><time>2026-03-29T09:20:58.077Z</time></trkpt><trkpt lat="43.014597" lon="12.0769371"><ele>614.0</ele><time>2026-03-29T09:20:59.077Z</time></trkpt><trkpt lat="43.014566" lon="12.076838"><ele>614.0</ele><time>2026-03-29T09:21:00.077Z</time></trkpt><trkpt lat="43.0145221" lon="12.0767605"><ele>614.0</ele><time>2026-03-29T09:21:01.077Z</time></trkpt><trkpt lat="43.0144707" lon="12.0767021"><ele>614.0</ele><time>2026-03-29T09:21:02.077Z</time></trkpt><trkpt lat="43.0144124" lon="12.0766421"><ele>614.0</ele><time>2026-03-29T09:21:03.077Z</time></trkpt><trkpt lat="43.0143623" lon="12.0765785"><ele>614.0</ele><time>2026-03-29T09:21:04.076Z</time></trkpt><trkpt lat="43.0143164" lon="12.0765161"><ele>614.0</ele><time>2026-03-29T09:21:05.077Z</time></trkpt><trkpt lat="43.0142515" lon="12.0763877"><ele>614.0</ele><time>2026-03-29T09:21:07.077Z</time></trkpt><trkpt lat="43.0142246" lon="12.0762404"><ele>614.0</ele><time>2026-03-29T09:21:09.076Z</time></trkpt><trkpt lat="43.0142418" lon="12.0760948"><ele>612.0</ele><time>2026-03-29T09:21:11.077Z</time></trkpt><trkpt lat="43.0143012" lon="12.0759638"><ele>610.0</ele><time>2026-03-29T09:21:13.076Z</time></trkpt><trkpt lat="43.0143891" lon="12.0758414"><ele>608.0</ele><time>2026-03-29T09:21:15.077Z</time></trkpt><trkpt lat="43.0144866" lon="12.0757317"><ele>606.0</ele><time>2026-03-29T09:21:17.077Z</time></trkpt><trkpt lat="43.0145522" lon="12.0756166"><ele>604.0</ele><time>2026-03-29T09:21:19.077Z</time></trkpt><trkpt lat="43.0145774" lon="12.0754828"><ele>602.0</ele><time>2026-03-29T09:21:21.077Z</time></trkpt><trkpt lat="43.0145482" lon="12.0753299"><ele>600.0</ele><time>2026-03-29T09:21:23.077Z</time></trkpt><trkpt lat="43.0145135" lon="12.0752479"><ele>598.0</ele><time>2026-03-29T09:21:24.077Z</time></trkpt><trkpt lat="43.0144755" lon="12.0751627"><ele>596.0</ele><time>2026-03-29T09:21:25.077Z</time></trkpt><trkpt lat="43.0144338" lon="12.0750786"><ele>594.0</ele><time>2026-03-29T09:21:26.077Z</time></trkpt><trkpt lat="43.0143835" lon="12.0749989"><ele>593.8333333333334</ele><time>2026-03-29T09:21:27.076Z</time></trkpt><trkpt lat="43.014331" lon="12.0749193"><ele>593.6666666666666</ele><time>2026-03-29T09:21:28.077Z</time></trkpt><trkpt lat="43.0142777" lon="12.0748372"><ele>593.5</ele><time>2026-03-29T09:21:29.077Z</time></trkpt><trkpt lat="43.0142278" lon="12.0747492"><ele>593.3333333333333</ele><time>2026-03-29T09:21:30.077Z</time></trkpt><trkpt lat="43.014184" lon="12.0746601"><ele>593.1666666666666</ele><time>2026-03-29T09:21:31.077Z</time></trkpt><trkpt lat="43.0141476" lon="12.0745607"><ele>593.0</ele><time>2026-03-29T09:21:32.076Z</time></trkpt><trkpt lat="43.0141187" lon="12.074452"><ele>592.8333333333333</ele><time>2026-03-29T09:21:33.077Z</time></trkpt><trkpt lat="43.0140968" lon="12.074338"><ele>592.6666666666666</ele><time>2026-03-29T09:21:34.077Z</time></trkpt><trkpt lat="43.0140773" lon="12.0742209"><ele>592.5</ele><time>2026-03-29T09:21:35.076Z</time></trkpt><trkpt lat="43.0140567" lon="12.0741037"><ele>592.3333333333334</ele><time>2026-03-29T09:21:36.076Z</time></trkpt><trkpt lat="43.0140286" lon="12.0739886"><ele>592.1666666666667</ele><time>2026-03-29T09:21:37.077Z</time></trkpt><trkpt lat="43.013989" lon="12.0738752"><ele>592.0</ele><time>2026-03-29T09:21:38.077Z</time></trkpt><trkpt lat="43.013927" lon="12.0737477"><ele>592.0</ele><time>2026-03-29T09:21:39.077Z</time></trkpt><trkpt lat="43.013837" lon="12.0736013"><ele>592.0</ele><time>2026-03-29T09:21:40.077Z</time></trkpt><trkpt lat="43.0137353" lon="12.0734418"><ele>592.0</ele><time>2026-03-29T09:21:41.077Z</time></trkpt><trkpt lat="43.0136346" lon="12.0732699"><ele>593.5</ele><time>2026-03-29T09:21:42.077Z</time></trkpt><trkpt lat="43.0135404" lon="12.0730904"><ele>595.0</ele><time>2026-03-29T09:21:43.077Z</time></trkpt><trkpt lat="43.0134589" lon="12.0729104"><ele>596.5</ele><time>2026-03-29T09:21:44.077Z</time></trkpt><trkpt lat="43.0133976" lon="12.0727519"><ele>598.0</ele><time>2026-03-29T09:21:45.077Z</time></trkpt><trkpt lat="43.0133516" lon="12.072628"><ele>597.8571428571429</ele><time>2026-03-29T09:21:46.076Z</time></trkpt><trkpt lat="43.0133163" lon="12.0725283"><ele>597.7142857142858</ele><time>2026-03-29T09:21:47.076Z</time></trkpt><trkpt lat="43.013283" lon="12.0724367"><ele>597.5714285714287</ele><time>2026-03-29T09:21:48.077Z</time></trkpt><trkpt lat="43.0132524" lon="12.0723478"><ele>597.4285714285714</ele><time>2026-03-29T09:21:49.076Z</time></trkpt><trkpt lat="43.0132223" lon="12.0722574"><ele>597.2857142857143</ele><time>2026-03-29T09:21:50.077Z</time></trkpt><trkpt lat="43.0131932" lon="12.0721704"><ele>597.1428571428572</ele><time>2026-03-29T09:21:51.076Z</time></trkpt><trkpt lat="43.0131577" lon="12.0720797"><ele>597.0</ele><time>2026-03-29T09:21:52.077Z</time></trkpt><trkpt lat="43.0131203" lon="12.0719862"><ele>596.6666666666666</ele><time>2026-03-29T09:21:53.077Z</time></trkpt><trkpt lat="43.0130848" lon="12.0718932"><ele>596.3333333333334</ele><time>2026-03-29T09:21:54.077Z</time></trkpt><trkpt lat="43.0130476" lon="12.071801"><ele>596.0</ele><time>2026-03-29T09:21:55.077Z</time></trkpt><trkpt lat="43.0130029" lon="12.0717108"><ele>595.6666666666667</ele><time>2026-03-29T09:21:56.077Z</time></trkpt><trkpt lat="43.0129487" lon="12.0716288"><ele>595.3333333333334</ele><time>2026-03-29T09:21:57.076Z</time></trkpt><trkpt lat="43.0128851" lon="12.071551"><ele>595.0</ele><time>2026-03-29T09:21:58.077Z</time></trkpt><trkpt lat="43.0128224" lon="12.0714743"><ele>593.1666666666667</ele><time>2026-03-29T09:21:59.077Z</time></trkpt><trkpt lat="43.0127758" lon="12.0713947"><ele>591.3333333333334</ele><time>2026-03-29T09:22:00.077Z</time></trkpt><trkpt lat="43.0127371" lon="12.0713048"><ele>589.5</ele><time>2026-03-29T09:22:01.077Z</time></trkpt><trkpt lat="43.0127065" lon="12.0712012"><ele>587.6666666666666</ele><time>2026-03-29T09:22:02.076Z</time></trkpt><trkpt lat="43.0126809" lon="12.0710923"><ele>585.8333333333333</ele><time>2026-03-29T09:22:03.077Z</time></trkpt><trkpt lat="43.0126583" lon="12.0709691"><ele>584.0</ele><time>2026-03-29T09:22:04.077Z</time></trkpt><trkpt lat="43.0126372" lon="12.070839"><ele>583.8</ele><time>2026-03-29T09:22:05.077Z</time></trkpt><trkpt lat="43.0126128" lon="12.0707154"><ele>583.5999999999999</ele><time>2026-03-29T09:22:06.077Z</time></trkpt><trkpt lat="43.0125826" lon="12.0706022"><ele>583.4</ele><time>2026-03-29T09:22:07.077Z</time></trkpt><trkpt lat="43.0125453" lon="12.0704927"><ele>583.1999999999999</ele><time>2026-03-29T09:22:08.077Z</time></trkpt><trkpt lat="43.0125119" lon="12.070375"><ele>583.0</ele><time>2026-03-29T09:22:09.077Z</time></trkpt><trkpt lat="43.0124895" lon="12.0702562"><ele>581.8333333333334</ele><time>2026-03-29T09:22:10.076Z</time></trkpt><trkpt lat="43.0124733" lon="12.070136"><ele>580.6666666666667</ele><time>2026-03-29T09:22:11.076Z</time></trkpt><trkpt lat="43.0124606" lon="12.0700278"><ele>579.5</ele><time>2026-03-29T09:22:12.077Z</time></trkpt><trkpt lat="43.0124297" lon="12.0699278"><ele>578.3333333333334</ele><time>2026-03-29T09:22:13.077Z</time></trkpt><trkpt lat="43.0123738" lon="12.0698473"><ele>577.1666666666666</ele><time>2026-03-29T09:22:14.076Z</time></trkpt><trkpt lat="43.0123013" lon="12.0697774"><ele>576.0</ele><time>2026-03-29T09:22:15.076Z</time></trkpt><trkpt lat="43.0122211" lon="12.0697"><ele>576.0</ele><time>2026-03-29T09:22:16.076Z</time></trkpt><trkpt lat="43.0121391" lon="12.0696099"><ele>576.0</ele><time>2026-03-29T09:22:17.077Z</time></trkpt><trkpt lat="43.0120576" lon="12.0695043"><ele>576.0</ele><time>2026-03-29T09:22:18.077Z</time></trkpt><trkpt lat="43.0119809" lon="12.0693902"><ele>576.0</ele><time>2026-03-29T09:22:19.077Z</time></trkpt><trkpt lat="43.011903" lon="12.0692757"><ele>576.0</ele><time>2026-03-29T09:22:20.076Z</time></trkpt><trkpt lat="43.0118163" lon="12.0691659"><ele>575.25</ele><time>2026-03-29T09:22:21.076Z</time></trkpt><trkpt lat="43.0117183" lon="12.0690547"><ele>574.5</ele><time>2026-03-29T09:22:22.076Z</time></trkpt><trkpt lat="43.0116168" lon="12.0689383"><ele>573.75</ele><time>2026-03-29T09:22:23.076Z</time></trkpt><trkpt lat="43.011519" lon="12.0688258"><ele>573.0</ele><time>2026-03-29T09:22:24.077Z</time></trkpt><trkpt lat="43.0114254" lon="12.0687153"><ele>573.0</ele><time>2026-03-29T09:22:25.077Z</time></trkpt><trkpt lat="43.0113321" lon="12.068606"><ele>573.0</ele><time>2026-03-29T09:22:26.077Z</time></trkpt><trkpt lat="43.0112387" lon="12.0685095"><ele>573.0</ele><time>2026-03-29T09:22:27.076Z</time></trkpt><trkpt lat="43.0111469" lon="12.0684255"><ele>573.0</ele><time>2026-03-29T09:22:28.077Z</time></trkpt><trkpt lat="43.0110689" lon="12.0683503"><ele>573.0</ele><time>2026-03-29T09:22:29.077Z</time></trkpt><trkpt lat="43.0110052" lon="12.0682823"><ele>571.4285714285714</ele><time>2026-03-29T09:22:30.077Z</time></trkpt><trkpt lat="43.0109504" lon="12.0682194"><ele>569.8571428571429</ele><time>2026-03-29T09:22:31.077Z</time></trkpt><trkpt lat="43.010898" lon="12.0681547"><ele>568.2857142857143</ele><time>2026-03-29T09:22:32.077Z</time></trkpt><trkpt lat="43.0108464" lon="12.0680865"><ele>566.7142857142858</ele><time>2026-03-29T09:22:33.077Z</time></trkpt><trkpt lat="43.0107991" lon="12.0680151"><ele>565.1428571428571</ele><time>2026-03-29T09:22:34.076Z</time></trkpt><trkpt lat="43.010759" lon="12.067938"><ele>563.5714285714287</ele><time>2026-03-29T09:22:35.077Z</time></trkpt><trkpt lat="43.0107186" lon="12.0678609"><ele>562.0</ele><time>2026-03-29T09:22:36.077Z</time></trkpt><trkpt lat="43.0106712" lon="12.0677889"><ele>561.2857142857143</ele><time>2026-03-29T09:22:37.077Z</time></trkpt><trkpt lat="43.0106127" lon="12.067739"><ele>560.5714285714286</ele><time>2026-03-29T09:22:38.077Z</time></trkpt><trkpt lat="43.0105476" lon="12.0677029"><ele>559.8571428571429</ele><time>2026-03-29T09:22:39.077Z</time></trkpt><trkpt lat="43.0104859" lon="12.0676687"><ele>559.1428571428571</ele><time>2026-03-29T09:22:40.077Z</time></trkpt><trkpt lat="43.0104308" lon="12.067624"><ele>558.4285714285714</ele><time>2026-03-29T09:22:41.077Z</time></trkpt><trkpt lat="43.0103805" lon="12.0675659"><ele>557.7142857142858</ele><time>2026-03-29T09:22:42.076Z</time></trkpt><trkpt lat="43.0103365" lon="12.0674932"><ele>557.0</ele><time>2026-03-29T09:22:43.077Z</time></trkpt><trkpt lat="43.0102991" lon="12.0674151"><ele>556.2857142857143</ele><time>2026-03-29T09:22:44.077Z</time></trkpt><trkpt lat="43.0102613" lon="12.0673331"><ele>555.5714285714286</ele><time>2026-03-29T09:22:45.077Z</time></trkpt><trkpt lat="43.0102177" lon="12.0672607"><ele>554.8571428571429</ele><time>2026-03-29T09:22:46.077Z</time></trkpt><trkpt lat="43.0101644" lon="12.0671996"><ele>554.1428571428571</ele><time>2026-03-29T09:22:47.077Z</time></trkpt><trkpt lat="43.0101025" lon="12.0671457"><ele>553.4285714285714</ele><time>2026-03-29T09:22:48.077Z</time></trkpt><trkpt lat="43.0100385" lon="12.0670989"><ele>552.7142857142858</ele><time>2026-03-29T09:22:49.077Z</time></trkpt><trkpt lat="43.0099745" lon="12.0670489"><ele>552.0</ele><time>2026-03-29T09:22:50.076Z</time></trkpt><trkpt lat="43.0099086" lon="12.0670061"><ele>552.0</ele><time>2026-03-29T09:22:51.077Z</time></trkpt><trkpt lat="43.0098351" lon="12.0669697"><ele>552.0</ele><time>2026-03-29T09:22:52.077Z</time></trkpt><trkpt lat="43.0097546" lon="12.066929"><ele>552.0</ele><time>2026-03-29T09:22:53.077Z</time></trkpt><trkpt lat="43.0096765" lon="12.0668787"><ele>552.0</ele><time>2026-03-29T09:22:54.077Z</time></trkpt><trkpt lat="43.009605" lon="12.0668182"><ele>552.0</ele><time>2026-03-29T09:22:55.077Z</time></trkpt><trkpt lat="43.0095406" lon="12.0667564"><ele>552.0</ele><time>2026-03-29T09:22:56.077Z</time></trkpt><trkpt lat="43.0094857" lon="12.0666943"><ele>552.0</ele><time>2026-03-29T09:22:57.077Z</time></trkpt><trkpt lat="43.0094392" lon="12.0666297"><ele>552.0</ele><time>2026-03-29T09:22:58.077Z</time></trkpt><trkpt lat="43.0093726" lon="12.066491"><ele>552.0</ele><time>2026-03-29T09:23:00.077Z</time></trkpt><trkpt lat="43.0093323" lon="12.0663676"><ele>552.0</ele><time>2026-03-29T09:23:02.078Z</time></trkpt><trkpt lat="43.0093183" lon="12.066245"><ele>552.0</ele><time>2026-03-29T09:23:05.078Z</time></trkpt><trkpt lat="43.0092717" lon="12.0661217"><ele>551.5</ele><time>2026-03-29T09:23:09.078Z</time></trkpt><trkpt lat="43.0091967" lon="12.0659767"><ele>551.0</ele><time>2026-03-29T09:23:11.078Z</time></trkpt><trkpt lat="43.009155" lon="12.065905"><ele>550.5</ele><time>2026-03-29T09:23:12.077Z</time></trkpt><trkpt lat="43.009105" lon="12.0658317"><ele>550.0</ele><time>2026-03-29T09:23:13.077Z</time></trkpt><trkpt lat="43.009045" lon="12.0657733"><ele>549.5</ele><time>2026-03-29T09:23:14.078Z</time></trkpt><trkpt lat="43.0089833" lon="12.0657217"><ele>549.0</ele><time>2026-03-29T09:23:15.077Z</time></trkpt><trkpt lat="43.0089133" lon="12.0656733"><ele>549.0</ele><time>2026-03-29T09:23:16.078Z</time></trkpt><trkpt lat="43.0088383" lon="12.0656317"><ele>549.0</ele><time>2026-03-29T09:23:17.078Z</time></trkpt><trkpt lat="43.0087633" lon="12.0655883"><ele>549.0</ele><time>2026-03-29T09:23:18.077Z</time></trkpt><trkpt lat="43.0086883" lon="12.0655217"><ele>549.0</ele><time>2026-03-29T09:23:19.078Z</time></trkpt><trkpt lat="43.008615" lon="12.0654483"><ele>549.0</ele><time>2026-03-29T09:23:20.077Z</time></trkpt><trkpt lat="43.0085483" lon="12.0653717"><ele>549.0</ele><time>2026-03-29T09:23:21.077Z</time></trkpt><trkpt lat="43.0084833" lon="12.0652867"><ele>549.0</ele><time>2026-03-29T09:23:22.077Z</time></trkpt><trkpt lat="43.008435" lon="12.0651933"><ele>549.0</ele><time>2026-03-29T09:23:23.078Z</time></trkpt><trkpt lat="43.0084017" lon="12.0651067"><ele>549.0</ele><time>2026-03-29T09:23:24.078Z</time></trkpt><trkpt lat="43.0083917" lon="12.0649467"><ele>549.0</ele><time>2026-03-29T09:23:26.077Z</time></trkpt><trkpt lat="43.00839" lon="12.0648567"><ele>549.0</ele><time>2026-03-29T09:23:27.077Z</time></trkpt><trkpt lat="43.0083833" lon="12.0647583"><ele>549.0</ele><time>2026-03-29T09:23:28.077Z</time></trkpt><trkpt lat="43.0083583" lon="12.0646633"><ele>550.8</ele><time>2026-03-29T09:23:29.077Z</time></trkpt><trkpt lat="43.0083067" lon="12.0645733"><ele>552.5999999999999</ele><time>2026-03-29T09:23:30.078Z</time></trkpt><trkpt lat="43.0082317" lon="12.0644883"><ele>554.4</ele><time>2026-03-29T09:23:31.078Z</time></trkpt><trkpt lat="43.0081333" lon="12.064405"><ele>556.1999999999999</ele><time>2026-03-29T09:23:32.078Z</time></trkpt><trkpt lat="43.0080217" lon="12.0643133"><ele>558.0</ele><time>2026-03-29T09:23:33.078Z</time></trkpt><trkpt lat="43.0079017" lon="12.0641967"><ele>553.3333333333334</ele><time>2026-03-29T09:23:34.077Z</time></trkpt><trkpt lat="43.0077983" lon="12.0640717"><ele>548.6666666666667</ele><time>2026-03-29T09:23:35.077Z</time></trkpt><trkpt lat="43.0077033" lon="12.0639117"><ele>544.0</ele><time>2026-03-29T09:23:36.078Z</time></trkpt><trkpt lat="43.0076033" lon="12.0637267"><ele>544.0</ele><time>2026-03-29T09:23:37.078Z</time></trkpt><trkpt lat="43.007525" lon="12.0635433"><ele>544.0</ele><time>2026-03-29T09:23:38.078Z</time></trkpt><trkpt lat="43.007455" lon="12.0633567"><ele>544.0</ele><time>2026-03-29T09:23:39.078Z</time></trkpt><trkpt lat="43.0074017" lon="12.0631883"><ele>544.0</ele><time>2026-03-29T09:23:40.077Z</time></trkpt><trkpt lat="43.0073533" lon="12.0630233"><ele>544.25</ele><time>2026-03-29T09:23:41.078Z</time></trkpt><trkpt lat="43.0073" lon="12.0628633"><ele>544.5</ele><time>2026-03-29T09:23:42.077Z</time></trkpt><trkpt lat="43.0072383" lon="12.0627167"><ele>544.75</ele><time>2026-03-29T09:23:43.078Z</time></trkpt><trkpt lat="43.0071717" lon="12.0625733"><ele>545.0</ele><time>2026-03-29T09:23:44.078Z</time></trkpt><trkpt lat="43.0071" lon="12.062435"><ele>542.3333333333333</ele><time>2026-03-29T09:23:45.078Z</time></trkpt><trkpt lat="43.0070383" lon="12.0623283"><ele>539.6666666666666</ele><time>2026-03-29T09:23:46.078Z</time></trkpt><trkpt lat="43.0069767" lon="12.0622467"><ele>537.0</ele><time>2026-03-29T09:23:47.078Z</time></trkpt><trkpt lat="43.0069083" lon="12.062215"><ele>534.3333333333334</ele><time>2026-03-29T09:23:48.078Z</time></trkpt><trkpt lat="43.0068417" lon="12.0622233"><ele>531.6666666666667</ele><time>2026-03-29T09:23:49.078Z</time></trkpt><trkpt lat="43.00677" lon="12.0622783"><ele>529.0</ele><time>2026-03-29T09:23:50.078Z</time></trkpt><trkpt lat="43.006695" lon="12.0623533"><ele>533.25</ele><time>2026-03-29T09:23:51.078Z</time></trkpt><trkpt lat="43.0066067" lon="12.0624533"><ele>537.5</ele><time>2026-03-29T09:23:52.078Z</time></trkpt><trkpt lat="43.00651" lon="12.0625417"><ele>541.75</ele><time>2026-03-29T09:23:53.077Z</time></trkpt><trkpt lat="43.0064033" lon="12.0626167"><ele>546.0</ele><time>2026-03-29T09:23:54.078Z</time></trkpt><trkpt lat="43.0062933" lon="12.0626883"><ele>546.0</ele><time>2026-03-29T09:23:55.078Z</time></trkpt><trkpt lat="43.006175" lon="12.0627017"><ele>546.0</ele><time>2026-03-29T09:23:56.078Z</time></trkpt><trkpt lat="43.0060867" lon="12.0627117"><ele>546.0</ele><time>2026-03-29T09:23:57.077Z</time></trkpt><trkpt lat="43.006015" lon="12.0627433"><ele>546.0</ele><time>2026-03-29T09:23:58.078Z</time></trkpt><trkpt lat="43.0059683" lon="12.06281"><ele>546.0</ele><time>2026-03-29T09:23:59.078Z</time></trkpt><trkpt lat="43.0059667" lon="12.0629917"><ele>546.0</ele><time>2026-03-29T09:24:01.078Z</time></trkpt><trkpt lat="43.0060017" lon="12.0631067"><ele>546.0</ele><time>2026-03-29T09:24:02.078Z</time></trkpt><trkpt lat="43.0060567" lon="12.0632283"><ele>546.0</ele><time>2026-03-29T09:24:03.078Z</time></trkpt><trkpt lat="43.0061283" lon="12.0633417"><ele>546.0</ele><time>2026-03-29T09:24:04.078Z</time></trkpt><trkpt lat="43.0061783" lon="12.063465"><ele>546.0</ele><time>2026-03-29T09:24:05.078Z</time></trkpt><trkpt lat="43.0062083" lon="12.06359"><ele>547.8</ele><time>2026-03-29T09:24:06.078Z</time></trkpt><trkpt lat="43.006195" lon="12.0636933"><ele>549.6</ele><time>2026-03-29T09:24:07.078Z</time></trkpt><trkpt lat="43.0061533" lon="12.06381"><ele>551.4</ele><time>2026-03-29T09:24:08.078Z</time></trkpt><trkpt lat="43.006075" lon="12.0639333"><ele>553.2</ele><time>2026-03-29T09:24:09.078Z</time></trkpt><trkpt lat="43.0059817" lon="12.064075"><ele>555.0</ele><time>2026-03-29T09:24:10.078Z</time></trkpt><trkpt lat="43.0059117" lon="12.0642067"><ele>557.0</ele><time>2026-03-29T09:24:11.078Z</time></trkpt><trkpt lat="43.0058567" lon="12.0643083"><ele>559.0</ele><time>2026-03-29T09:24:12.078Z</time></trkpt><trkpt lat="43.005795" lon="12.0644233"><ele>561.0</ele><time>2026-03-29T09:24:14.078Z</time></trkpt><trkpt lat="43.0057167" lon="12.0645067"><ele>563.0</ele><time>2026-03-29T09:24:16.077Z</time></trkpt><trkpt lat="43.0056117" lon="12.0645733"><ele>565.0</ele><time>2026-03-29T09:24:18.078Z</time></trkpt><trkpt lat="43.0055467" lon="12.0646283"><ele>565.0</ele><time>2026-03-29T09:24:19.078Z</time></trkpt><trkpt lat="43.0054617" lon="12.0646833"><ele>565.0</ele><time>2026-03-29T09:24:20.078Z</time></trkpt><trkpt lat="43.0053617" lon="12.0647533"><ele>565.0</ele><time>2026-03-29T09:24:21.078Z</time></trkpt><trkpt lat="43.0052617" lon="12.064825"><ele>565.0</ele><time>2026-03-29T09:24:22.077Z</time></trkpt><trkpt lat="43.0051483" lon="12.0648817"><ele>565.0</ele><time>2026-03-29T09:24:23.078Z</time></trkpt><trkpt lat="43.0050317" lon="12.06493"><ele>569.25</ele><time>2026-03-29T09:24:24.078Z</time></trkpt><trkpt lat="43.004915" lon="12.06497"><ele>573.5</ele><time>2026-03-29T09:24:25.078Z</time></trkpt><trkpt lat="43.0047983" lon="12.065025"><ele>577.75</ele><time>2026-03-29T09:24:26.078Z</time></trkpt><trkpt lat="43.004675" lon="12.065085"><ele>582.0</ele><time>2026-03-29T09:24:27.078Z</time></trkpt><trkpt lat="43.0045583" lon="12.0651417"><ele>582.0</ele><time>2026-03-29T09:24:28.077Z</time></trkpt><trkpt lat="43.0044417" lon="12.0651867"><ele>582.0</ele><time>2026-03-29T09:24:29.078Z</time></trkpt><trkpt lat="43.0043233" lon="12.06523"><ele>582.0</ele><time>2026-03-29T09:24:30.077Z</time></trkpt><trkpt lat="43.0042083" lon="12.0652633"><ele>582.0</ele><time>2026-03-29T09:24:31.078Z</time></trkpt><trkpt lat="43.004095" lon="12.0653083"><ele>581.6</ele><time>2026-03-29T09:24:32.077Z</time></trkpt><trkpt lat="43.0039983" lon="12.0653433"><ele>581.2</ele><time>2026-03-29T09:24:33.077Z</time></trkpt><trkpt lat="43.003905" lon="12.0653683"><ele>580.8</ele><time>2026-03-29T09:24:34.077Z</time></trkpt><trkpt lat="43.0038133" lon="12.06539"><ele>580.4</ele><time>2026-03-29T09:24:35.078Z</time></trkpt><trkpt lat="43.0037133" lon="12.0654"><ele>580.0</ele><time>2026-03-29T09:24:36.077Z</time></trkpt><trkpt lat="43.0036083" lon="12.0654083"><ele>580.0</ele><time>2026-03-29T09:24:37.078Z</time></trkpt><trkpt lat="43.0035" lon="12.0654267"><ele>580.0</ele><time>2026-03-29T09:24:38.078Z</time></trkpt><trkpt lat="43.0033917" lon="12.06545"><ele>580.0</ele><time>2026-03-29T09:24:39.078Z</time></trkpt><trkpt lat="43.0032867" lon="12.0654817"><ele>580.0</ele><time>2026-03-29T09:24:40.078Z</time></trkpt><trkpt lat="43.003185" lon="12.0654967"><ele>580.0</ele><time>2026-03-29T09:24:41.078Z</time></trkpt><trkpt lat="43.00308" lon="12.065515"><ele>579.6</ele><time>2026-03-29T09:24:42.078Z</time></trkpt><trkpt lat="43.00297" lon="12.0655283"><ele>579.2</ele><time>2026-03-29T09:24:43.077Z</time></trkpt><trkpt lat="43.0028617" lon="12.06552"><ele>578.8</ele><time>2026-03-29T09:24:44.077Z</time></trkpt><trkpt lat="43.0027567" lon="12.0655133"><ele>578.4</ele><time>2026-03-29T09:24:45.078Z</time></trkpt><trkpt lat="43.0026567" lon="12.06552"><ele>578.0</ele><time>2026-03-29T09:24:46.078Z</time></trkpt><trkpt lat="43.002545" lon="12.0655133"><ele>580.75</ele><time>2026-03-29T09:24:47.078Z</time></trkpt><trkpt lat="43.0024283" lon="12.0655017"><ele>583.5</ele><time>2026-03-29T09:24:48.078Z</time></trkpt><trkpt lat="43.0023033" lon="12.065495"><ele>586.25</ele><time>2026-03-29T09:24:49.078Z</time></trkpt><trkpt lat="43.0021633" lon="12.0655"><ele>589.0</ele><time>2026-03-29T09:24:50.078Z</time></trkpt><trkpt lat="43.0020333" lon="12.065485"><ele>589.0</ele><time>2026-03-29T09:24:51.078Z</time></trkpt><trkpt lat="43.00192" lon="12.0654817"><ele>589.0</ele><time>2026-03-29T09:24:52.078Z</time></trkpt><trkpt lat="43.00181" lon="12.065495"><ele>589.0</ele><time>2026-03-29T09:24:53.078Z</time></trkpt><trkpt lat="43.0016917" lon="12.0655433"><ele>589.0</ele><time>2026-03-29T09:24:54.078Z</time></trkpt><trkpt lat="43.0015783" lon="12.0656133"><ele>593.5</ele><time>2026-03-29T09:24:55.077Z</time></trkpt><trkpt lat="43.00145" lon="12.0656967"><ele>598.0</ele><time>2026-03-29T09:24:56.078Z</time></trkpt><trkpt lat="43.0013383" lon="12.0658"><ele>602.5</ele><time>2026-03-29T09:24:57.078Z</time></trkpt><trkpt lat="43.0012517" lon="12.06587"><ele>607.0</ele><time>2026-03-29T09:24:58.077Z</time></trkpt><trkpt lat="43.001185" lon="12.0659167"><ele>607.1666666666667</ele><time>2026-03-29T09:24:59.078Z</time></trkpt><trkpt lat="43.0010567" lon="12.065935"><ele>607.3333333333334</ele><time>2026-03-29T09:25:01.078Z</time></trkpt><trkpt lat="43.00098" lon="12.0659183"><ele>607.5</ele><time>2026-03-29T09:25:02.077Z</time></trkpt><trkpt lat="43.0008917" lon="12.0658783"><ele>607.6666666666666</ele><time>2026-03-29T09:25:03.078Z</time></trkpt><trkpt lat="43.0008233" lon="12.0658467"><ele>607.8333333333333</ele><time>2026-03-29T09:25:04.078Z</time></trkpt><trkpt lat="43.000765" lon="12.0658133"><ele>608.0</ele><time>2026-03-29T09:25:05.077Z</time></trkpt><trkpt lat="43.0007017" lon="12.065745"><ele>605.5</ele><time>2026-03-29T09:25:07.078Z</time></trkpt><trkpt lat="43.0006148" lon="12.065715"><ele>603.0</ele><time>2026-03-29T09:25:09.078Z</time></trkpt><trkpt lat="43.0004837" lon="12.0656933"><ele>600.5</ele><time>2026-03-29T09:25:11.078Z</time></trkpt><trkpt lat="43.0004135" lon="12.0656547"><ele>598.0</ele><time>2026-03-29T09:25:12.078Z</time></trkpt><trkpt lat="43.0003476" lon="12.0656045"><ele>595.5</ele><time>2026-03-29T09:25:13.078Z</time></trkpt><trkpt lat="43.000281" lon="12.0655548"><ele>593.0</ele><time>2026-03-29T09:25:14.078Z</time></trkpt><trkpt lat="43.0002147" lon="12.0655086"><ele>593.0</ele><time>2026-03-29T09:25:15.078Z</time></trkpt><trkpt lat="43.000148" lon="12.065465"><ele>593.0</ele><time>2026-03-29T09:25:16.078Z</time></trkpt><trkpt lat="43.000077" lon="12.0654258"><ele>593.0</ele><time>2026-03-29T09:25:17.077Z</time></trkpt><trkpt lat="43.0000001" lon="12.0653873"><ele>593.0</ele><time>2026-03-29T09:25:18.078Z</time></trkpt><trkpt lat="42.9999216" lon="12.0653476"><ele>593.0</ele><time>2026-03-29T09:25:19.078Z</time></trkpt><trkpt lat="42.9998417" lon="12.0653051"><ele>593.0</ele><time>2026-03-29T09:25:20.078Z</time></trkpt><trkpt lat="42.9997651" lon="12.0652603"><ele>593.0</ele><time>2026-03-29T09:25:21.077Z</time></trkpt><trkpt lat="42.9996878" lon="12.0652157"><ele>593.0</ele><time>2026-03-29T09:25:22.078Z</time></trkpt><trkpt lat="42.9996139" lon="12.0651684"><ele>593.0</ele><time>2026-03-29T09:25:23.078Z</time></trkpt><trkpt lat="42.9995411" lon="12.0651319"><ele>593.0</ele><time>2026-03-29T09:25:24.077Z</time></trkpt><trkpt lat="42.9994717" lon="12.0651131"><ele>593.0</ele><time>2026-03-29T09:25:25.078Z</time></trkpt><trkpt lat="42.999397" lon="12.0651187"><ele>593.0</ele><time>2026-03-29T09:25:26.078Z</time></trkpt><trkpt lat="42.9993192" lon="12.0651487"><ele>593.0</ele><time>2026-03-29T09:25:27.078Z</time></trkpt><trkpt lat="42.9992429" lon="12.0651906"><ele>593.0</ele><time>2026-03-29T09:25:28.077Z</time></trkpt><trkpt lat="42.9991707" lon="12.0652375"><ele>593.0</ele><time>2026-03-29T09:25:29.078Z</time></trkpt><trkpt lat="42.9991023" lon="12.0652798"><ele>593.0</ele><time>2026-03-29T09:25:30.078Z</time></trkpt><trkpt lat="42.999036" lon="12.0653159"><ele>593.0</ele><time>2026-03-29T09:25:31.077Z</time></trkpt><trkpt lat="42.9989228" lon="12.0653489"><ele>593.0</ele><time>2026-03-29T09:25:33.077Z</time></trkpt><trkpt lat="42.998862" lon="12.0653733"><ele>590.8333333333333</ele><time>2026-03-29T09:25:34.078Z</time></trkpt><trkpt lat="42.9987923" lon="12.0653998"><ele>588.6666666666666</ele><time>2026-03-29T09:25:35.078Z</time></trkpt><trkpt lat="42.9987147" lon="12.0654228"><ele>586.5</ele><time>2026-03-29T09:25:36.077Z</time></trkpt><trkpt lat="42.9986334" lon="12.0654369"><ele>584.3333333333334</ele><time>2026-03-29T09:25:37.077Z</time></trkpt><trkpt lat="42.9985498" lon="12.0654482"><ele>582.1666666666667</ele><time>2026-03-29T09:25:38.077Z</time></trkpt><trkpt lat="42.9984635" lon="12.0654505"><ele>580.0</ele><time>2026-03-29T09:25:39.078Z</time></trkpt><trkpt lat="42.9983772" lon="12.0654371"><ele>577.6666666666667</ele><time>2026-03-29T09:25:40.078Z</time></trkpt><trkpt lat="42.9982916" lon="12.0654181"><ele>575.3333333333334</ele><time>2026-03-29T09:25:41.078Z</time></trkpt><trkpt lat="42.9982111" lon="12.0653981"><ele>573.0</ele><time>2026-03-29T09:25:42.078Z</time></trkpt><trkpt lat="42.9981358" lon="12.0653757"><ele>570.6666666666666</ele><time>2026-03-29T09:25:43.078Z</time></trkpt><trkpt lat="42.9980652" lon="12.06535"><ele>568.3333333333333</ele><time>2026-03-29T09:25:44.078Z</time></trkpt><trkpt lat="42.9979959" lon="12.0653166"><ele>566.0</ele><time>2026-03-29T09:25:45.078Z</time></trkpt><trkpt lat="42.9979215" lon="12.0652775"><ele>566.0</ele><time>2026-03-29T09:25:46.077Z</time></trkpt><trkpt lat="42.9978413" lon="12.0652402"><ele>566.0</ele><time>2026-03-29T09:25:47.078Z</time></trkpt><trkpt lat="42.9977575" lon="12.0652137"><ele>566.0</ele><time>2026-03-29T09:25:48.078Z</time></trkpt><trkpt lat="42.9976782" lon="12.0652034"><ele>566.0</ele><time>2026-03-29T09:25:49.077Z</time></trkpt><trkpt lat="42.997598" lon="12.0652137"><ele>566.0</ele><time>2026-03-29T09:25:50.078Z</time></trkpt><trkpt lat="42.9975137" lon="12.065231"><ele>566.0</ele><time>2026-03-29T09:25:51.077Z</time></trkpt><trkpt lat="42.9974285" lon="12.0652436"><ele>565.5</ele><time>2026-03-29T09:25:52.078Z</time></trkpt><trkpt lat="42.9973446" lon="12.0652475"><ele>565.0</ele><time>2026-03-29T09:25:53.078Z</time></trkpt><trkpt lat="42.997258" lon="12.0652508"><ele>564.5</ele><time>2026-03-29T09:25:54.078Z</time></trkpt><trkpt lat="42.9971737" lon="12.0652591"><ele>564.0</ele><time>2026-03-29T09:25:55.077Z</time></trkpt><trkpt lat="42.9970889" lon="12.0652725"><ele>563.5</ele><time>2026-03-29T09:25:56.078Z</time></trkpt><trkpt lat="42.9970003" lon="12.065276"><ele>563.0</ele><time>2026-03-29T09:25:57.078Z</time></trkpt><trkpt lat="42.9969115" lon="12.0652642"><ele>563.0</ele><time>2026-03-29T09:25:58.077Z</time></trkpt><trkpt lat="42.9968267" lon="12.065227"><ele>563.0</ele><time>2026-03-29T09:25:59.077Z</time></trkpt><trkpt lat="42.996741" lon="12.0651708"><ele>563.0</ele><time>2026-03-29T09:26:00.077Z</time></trkpt><trkpt lat="42.9966527" lon="12.0651156"><ele>563.0</ele><time>2026-03-29T09:26:01.077Z</time></trkpt><trkpt lat="42.9965649" lon="12.0650713"><ele>563.0</ele><time>2026-03-29T09:26:02.078Z</time></trkpt><trkpt lat="42.9964742" lon="12.0650365"><ele>561.4</ele><time>2026-03-29T09:26:03.078Z</time></trkpt><trkpt lat="42.9963856" lon="12.0650058"><ele>559.8</ele><time>2026-03-29T09:26:04.077Z</time></trkpt><trkpt lat="42.9962985" lon="12.0649854"><ele>558.2</ele><time>2026-03-29T09:26:05.078Z</time></trkpt><trkpt lat="42.9962091" lon="12.0649753"><ele>556.6</ele><time>2026-03-29T09:26:06.078Z</time></trkpt><trkpt lat="42.9961117" lon="12.0649761"><ele>555.0</ele><time>2026-03-29T09:26:07.078Z</time></trkpt><trkpt lat="42.9960115" lon="12.0649731"><ele>555.0</ele><time>2026-03-29T09:26:08.077Z</time></trkpt><trkpt lat="42.9959158" lon="12.0649661"><ele>555.0</ele><time>2026-03-29T09:26:09.077Z</time></trkpt><trkpt lat="42.9958223" lon="12.0649578"><ele>555.0</ele><time>2026-03-29T09:26:10.078Z</time></trkpt><trkpt lat="42.995732" lon="12.0649493"><ele>555.0</ele><time>2026-03-29T09:26:11.077Z</time></trkpt><trkpt lat="42.9956437" lon="12.064943"><ele>555.0</ele><time>2026-03-29T09:26:12.078Z</time></trkpt><trkpt lat="42.9955541" lon="12.0649447"><ele>553.3333333333334</ele><time>2026-03-29T09:26:13.077Z</time></trkpt><trkpt lat="42.9954673" lon="12.0649524"><ele>551.6666666666666</ele><time>2026-03-29T09:26:14.077Z</time></trkpt><trkpt lat="42.9953783" lon="12.0649685"><ele>550.0</ele><time>2026-03-29T09:26:15.078Z</time></trkpt><trkpt lat="42.9952979" lon="12.0650036"><ele>548.3333333333333</ele><time>2026-03-29T09:26:16.078Z</time></trkpt><trkpt lat="42.9952138" lon="12.0650422"><ele>546.6666666666666</ele><time>2026-03-29T09:26:17.077Z</time></trkpt><trkpt lat="42.9951246" lon="12.065061"><ele>545.0</ele><time>2026-03-29T09:26:18.078Z</time></trkpt><trkpt lat="42.9950313" lon="12.0650625"><ele>542.6</ele><time>2026-03-29T09:26:19.078Z</time></trkpt><trkpt lat="42.9949353" lon="12.0650469"><ele>540.2</ele><time>2026-03-29T09:26:20.077Z</time></trkpt><trkpt lat="42.99484" lon="12.0650141"><ele>537.8</ele><time>2026-03-29T09:26:21.078Z</time></trkpt><trkpt lat="42.9947453" lon="12.0649615"><ele>535.4</ele><time>2026-03-29T09:26:22.078Z</time></trkpt><trkpt lat="42.9946496" lon="12.0648991"><ele>533.0</ele><time>2026-03-29T09:26:23.078Z</time></trkpt><trkpt lat="42.9945511" lon="12.0648284"><ele>530.5</ele><time>2026-03-29T09:26:24.078Z</time></trkpt><trkpt lat="42.9944519" lon="12.0647567"><ele>528.0</ele><time>2026-03-29T09:26:25.078Z</time></trkpt><trkpt lat="42.9943529" lon="12.064681"><ele>525.5</ele><time>2026-03-29T09:26:26.077Z</time></trkpt><trkpt lat="42.9942543" lon="12.0646078"><ele>523.0</ele><time>2026-03-29T09:26:27.078Z</time></trkpt><trkpt lat="42.9941556" lon="12.0645278"><ele>521.75</ele><time>2026-03-29T09:26:28.077Z</time></trkpt><trkpt lat="42.9940605" lon="12.0644423"><ele>520.5</ele><time>2026-03-29T09:26:29.077Z</time></trkpt><trkpt lat="42.9939632" lon="12.0643563"><ele>519.25</ele><time>2026-03-29T09:26:30.078Z</time></trkpt><trkpt lat="42.9938549" lon="12.0642766"><ele>518.0</ele><time>2026-03-29T09:26:31.078Z</time></trkpt><trkpt lat="42.9937318" lon="12.0641932"><ele>518.0</ele><time>2026-03-29T09:26:32.078Z</time></trkpt><trkpt lat="42.9935828" lon="12.0641191"><ele>518.0</ele><time>2026-03-29T09:26:33.078Z</time></trkpt><trkpt lat="42.9934184" lon="12.0640499"><ele>518.0</ele><time>2026-03-29T09:26:34.078Z</time></trkpt><trkpt lat="42.9932501" lon="12.0639814"><ele>515.3333333333333</ele><time>2026-03-29T09:26:35.077Z</time></trkpt><trkpt lat="42.9930912" lon="12.0639061"><ele>512.6666666666666</ele><time>2026-03-29T09:26:36.077Z</time></trkpt><trkpt lat="42.9929344" lon="12.0638355"><ele>510.0</ele><time>2026-03-29T09:26:37.077Z</time></trkpt><trkpt lat="42.9927765" lon="12.0637838"><ele>510.0</ele><time>2026-03-29T09:26:38.078Z</time></trkpt><trkpt lat="42.9926171" lon="12.0637505"><ele>510.0</ele><time>2026-03-29T09:26:39.078Z</time></trkpt><trkpt lat="42.9924422" lon="12.0637367"><ele>510.0</ele><time>2026-03-29T09:26:40.078Z</time></trkpt><trkpt lat="42.9922675" lon="12.0637387"><ele>512.0</ele><time>2026-03-29T09:26:41.077Z</time></trkpt><trkpt lat="42.9920918" lon="12.0637394"><ele>514.0</ele><time>2026-03-29T09:26:42.078Z</time></trkpt><trkpt lat="42.9919292" lon="12.0637298"><ele>516.0</ele><time>2026-03-29T09:26:43.078Z</time></trkpt><trkpt lat="42.9917813" lon="12.0637152"><ele>517.25</ele><time>2026-03-29T09:26:44.078Z</time></trkpt><trkpt lat="42.9916481" lon="12.0637097"><ele>518.5</ele><time>2026-03-29T09:26:45.078Z</time></trkpt><trkpt lat="42.9915327" lon="12.0636935"><ele>519.75</ele><time>2026-03-29T09:26:46.078Z</time></trkpt><trkpt lat="42.991408" lon="12.0636572"><ele>521.0</ele><time>2026-03-29T09:26:47.078Z</time></trkpt><trkpt lat="42.9912909" lon="12.0635862"><ele>521.0</ele><time>2026-03-29T09:26:48.078Z</time></trkpt><trkpt lat="42.9911715" lon="12.0634802"><ele>521.0</ele><time>2026-03-29T09:26:49.077Z</time></trkpt><trkpt lat="42.9910557" lon="12.0633519"><ele>521.0</ele><time>2026-03-29T09:26:50.077Z</time></trkpt><trkpt lat="42.9909459" lon="12.0632096"><ele>521.0</ele><time>2026-03-29T09:26:51.078Z</time></trkpt><trkpt lat="42.9908466" lon="12.0630444"><ele>517.0</ele><time>2026-03-29T09:26:52.078Z</time></trkpt><trkpt lat="42.9907304" lon="12.0629159"><ele>513.0</ele><time>2026-03-29T09:26:53.078Z</time></trkpt><trkpt lat="42.9906021" lon="12.0627966"><ele>509.0</ele><time>2026-03-29T09:26:54.078Z</time></trkpt><trkpt lat="42.990464" lon="12.0626869"><ele>509.0</ele><time>2026-03-29T09:26:55.078Z</time></trkpt><trkpt lat="42.9903211" lon="12.062584"><ele>509.0</ele><time>2026-03-29T09:26:56.078Z</time></trkpt><trkpt lat="42.9901739" lon="12.0624946"><ele>509.0</ele><time>2026-03-29T09:26:57.078Z</time></trkpt><trkpt lat="42.990023" lon="12.0624269"><ele>507.25</ele><time>2026-03-29T09:26:58.077Z</time></trkpt><trkpt lat="42.9898744" lon="12.0623953"><ele>505.5</ele><time>2026-03-29T09:26:59.078Z</time></trkpt><trkpt lat="42.9897264" lon="12.062389"><ele>503.75</ele><time>2026-03-29T09:27:00.077Z</time></trkpt><trkpt lat="42.9895779" lon="12.0623982"><ele>502.0</ele><time>2026-03-29T09:27:01.078Z</time></trkpt><trkpt lat="42.9894296" lon="12.0624475"><ele>504.33333333333337</ele><time>2026-03-29T09:27:02.077Z</time></trkpt><trkpt lat="42.989279" lon="12.0625273"><ele>506.66666666666663</ele><time>2026-03-29T09:27:03.077Z</time></trkpt><trkpt lat="42.9891097" lon="12.0626325"><ele>509.0</ele><time>2026-03-29T09:27:04.078Z</time></trkpt><trkpt lat="42.9889576" lon="12.0627008"><ele>511.75</ele><time>2026-03-29T09:27:05.078Z</time></trkpt><trkpt lat="42.9888233" lon="12.0627523"><ele>514.5</ele><time>2026-03-29T09:27:06.077Z</time></trkpt><trkpt lat="42.9886949" lon="12.062801"><ele>517.25</ele><time>2026-03-29T09:27:07.077Z</time></trkpt><trkpt lat="42.9885631" lon="12.0628511"><ele>520.0</ele><time>2026-03-29T09:27:08.078Z</time></trkpt><trkpt lat="42.9884262" lon="12.0628989"><ele>522.75</ele><time>2026-03-29T09:27:09.077Z</time></trkpt><trkpt lat="42.9882896" lon="12.0629403"><ele>525.5</ele><time>2026-03-29T09:27:10.077Z</time></trkpt><trkpt lat="42.9881527" lon="12.0629495"><ele>528.25</ele><time>2026-03-29T09:27:11.078Z</time></trkpt><trkpt lat="42.9880153" lon="12.0629579"><ele>531.0</ele><time>2026-03-29T09:27:12.078Z</time></trkpt><trkpt lat="42.9878764" lon="12.0629463"><ele>531.0</ele><time>2026-03-29T09:27:13.078Z</time></trkpt><trkpt lat="42.9877424" lon="12.0629678"><ele>531.0</ele><time>2026-03-29T09:27:14.077Z</time></trkpt><trkpt lat="42.9876151" lon="12.0630095"><ele>531.0</ele><time>2026-03-29T09:27:15.077Z</time></trkpt><trkpt lat="42.9875052" lon="12.0630366"><ele>531.0</ele><time>2026-03-29T09:27:16.078Z</time></trkpt><trkpt lat="42.9874087" lon="12.0630378"><ele>531.0</ele><time>2026-03-29T09:27:17.077Z</time></trkpt><trkpt lat="42.987328" lon="12.0630184"><ele>531.0</ele><time>2026-03-29T09:27:18.078Z</time></trkpt><trkpt lat="42.9872641" lon="12.0629551"><ele>531.0</ele><time>2026-03-29T09:27:19.078Z</time></trkpt><trkpt lat="42.9872115" lon="12.0628678"><ele>531.0</ele><time>2026-03-29T09:27:20.078Z</time></trkpt><trkpt lat="42.9871814" lon="12.0626999"><ele>531.0</ele><time>2026-03-29T09:27:21.077Z</time></trkpt><trkpt lat="42.9871462" lon="12.0625636"><ele>527.8</ele><time>2026-03-29T09:27:22.078Z</time></trkpt><trkpt lat="42.9871083" lon="12.0624367"><ele>524.6</ele><time>2026-03-29T09:27:23.078Z</time></trkpt><trkpt lat="42.98706" lon="12.06234"><ele>521.4</ele><time>2026-03-29T09:27:24.078Z</time></trkpt><trkpt lat="42.9869967" lon="12.0622533"><ele>518.2</ele><time>2026-03-29T09:27:25.078Z</time></trkpt><trkpt lat="42.9869067" lon="12.0621833"><ele>515.0</ele><time>2026-03-29T09:27:26.077Z</time></trkpt><trkpt lat="42.9868083" lon="12.0621333"><ele>515.0</ele><time>2026-03-29T09:27:27.078Z</time></trkpt><trkpt lat="42.9867083" lon="12.0620833"><ele>515.0</ele><time>2026-03-29T09:27:28.078Z</time></trkpt><trkpt lat="42.9866183" lon="12.0620433"><ele>515.0</ele><time>2026-03-29T09:27:29.078Z</time></trkpt><trkpt lat="42.9865383" lon="12.062005"><ele>515.0</ele><time>2026-03-29T09:27:30.078Z</time></trkpt><trkpt lat="42.986455" lon="12.0619817"><ele>515.0</ele><time>2026-03-29T09:27:31.078Z</time></trkpt><trkpt lat="42.98637" lon="12.061965"><ele>514.2</ele><time>2026-03-29T09:27:32.078Z</time></trkpt><trkpt lat="42.98628" lon="12.0619533"><ele>513.4</ele><time>2026-03-29T09:27:33.078Z</time></trkpt><trkpt lat="42.986185" lon="12.06196"><ele>512.6</ele><time>2026-03-29T09:27:34.077Z</time></trkpt><trkpt lat="42.9860833" lon="12.0619783"><ele>511.8</ele><time>2026-03-29T09:27:35.078Z</time></trkpt><trkpt lat="42.9859733" lon="12.0620017"><ele>511.0</ele><time>2026-03-29T09:27:36.078Z</time></trkpt><trkpt lat="42.985865" lon="12.0620233"><ele>508.25</ele><time>2026-03-29T09:27:37.078Z</time></trkpt><trkpt lat="42.9857567" lon="12.0620133"><ele>505.5</ele><time>2026-03-29T09:27:38.078Z</time></trkpt><trkpt lat="42.9856583" lon="12.0619967"><ele>502.75</ele><time>2026-03-29T09:27:39.078Z</time></trkpt><trkpt lat="42.9855433" lon="12.0619867"><ele>500.0</ele><time>2026-03-29T09:27:40.078Z</time></trkpt><trkpt lat="42.9854117" lon="12.06198"><ele>500.0</ele><time>2026-03-29T09:27:41.077Z</time></trkpt><trkpt lat="42.9852817" lon="12.061985"><ele>500.0</ele><time>2026-03-29T09:27:42.078Z</time></trkpt><trkpt lat="42.9851733" lon="12.062015"><ele>500.0</ele><time>2026-03-29T09:27:43.078Z</time></trkpt><trkpt lat="42.9850767" lon="12.0620283"><ele>500.0</ele><time>2026-03-29T09:27:44.078Z</time></trkpt><trkpt lat="42.985" lon="12.0620183"><ele>500.0</ele><time>2026-03-29T09:27:45.077Z</time></trkpt><trkpt lat="42.98494" lon="12.06197"><ele>500.0</ele><time>2026-03-29T09:27:46.078Z</time></trkpt><trkpt lat="42.9849" lon="12.06188"><ele>500.0</ele><time>2026-03-29T09:27:47.077Z</time></trkpt><trkpt lat="42.98486" lon="12.0617633"><ele>500.0</ele><time>2026-03-29T09:27:48.078Z</time></trkpt><trkpt lat="42.9848167" lon="12.0616133"><ele>500.0</ele><time>2026-03-29T09:27:49.077Z</time></trkpt><trkpt lat="42.98477" lon="12.061475"><ele>500.0</ele><time>2026-03-29T09:27:50.078Z</time></trkpt><trkpt lat="42.9847183" lon="12.0613683"><ele>497.49999999999994</ele><time>2026-03-29T09:27:51.078Z</time></trkpt><trkpt lat="42.9846633" lon="12.0612867"><ele>495.0</ele><time>2026-03-29T09:27:52.078Z</time></trkpt><trkpt lat="42.9846033" lon="12.0612217"><ele>492.5</ele><time>2026-03-29T09:27:53.077Z</time></trkpt><trkpt lat="42.9845417" lon="12.0611933"><ele>490.0</ele><time>2026-03-29T09:27:54.078Z</time></trkpt><trkpt lat="42.98447" lon="12.061205"><ele>487.49999999999994</ele><time>2026-03-29T09:27:55.078Z</time></trkpt><trkpt lat="42.9843933" lon="12.0612383"><ele>485.0</ele><time>2026-03-29T09:27:56.077Z</time></trkpt><trkpt lat="42.98431" lon="12.0613017"><ele>485.0</ele><time>2026-03-29T09:27:57.077Z</time></trkpt><trkpt lat="42.98424" lon="12.0613986"><ele>485.0</ele><time>2026-03-29T09:27:58.078Z</time></trkpt><trkpt lat="42.9841612" lon="12.061527"><ele>485.0</ele><time>2026-03-29T09:27:59.077Z</time></trkpt><trkpt lat="42.9840662" lon="12.0616333"><ele>485.0</ele><time>2026-03-29T09:28:00.078Z</time></trkpt><trkpt lat="42.9839382" lon="12.0617462"><ele>486.5</ele><time>2026-03-29T09:28:01.078Z</time></trkpt><trkpt lat="42.9838049" lon="12.0618402"><ele>488.0</ele><time>2026-03-29T09:28:02.078Z</time></trkpt><trkpt lat="42.9836815" lon="12.0619119"><ele>489.5</ele><time>2026-03-29T09:28:03.078Z</time></trkpt><trkpt lat="42.9835631" lon="12.0619451"><ele>491.0</ele><time>2026-03-29T09:28:04.077Z</time></trkpt><trkpt lat="42.9834373" lon="12.0619416"><ele>488.25</ele><time>2026-03-29T09:28:05.078Z</time></trkpt><trkpt lat="42.9833088" lon="12.0619227"><ele>485.5</ele><time>2026-03-29T09:28:06.078Z</time></trkpt><trkpt lat="42.983175" lon="12.0618999"><ele>482.75</ele><time>2026-03-29T09:28:07.078Z</time></trkpt><trkpt lat="42.9830401" lon="12.0619049"><ele>480.0</ele><time>2026-03-29T09:28:08.077Z</time></trkpt><trkpt lat="42.9829114" lon="12.0619219"><ele>480.0</ele><time>2026-03-29T09:28:09.078Z</time></trkpt><trkpt lat="42.9827942" lon="12.0619474"><ele>480.0</ele><time>2026-03-29T09:28:10.078Z</time></trkpt><trkpt lat="42.9826973" lon="12.0619796"><ele>480.0</ele><time>2026-03-29T09:28:11.078Z</time></trkpt><trkpt lat="42.9826271" lon="12.0620184"><ele>480.0</ele><time>2026-03-29T09:28:12.078Z</time></trkpt><trkpt lat="42.9825242" lon="12.0620713"><ele>480.0</ele><time>2026-03-29T09:28:14.078Z</time></trkpt><trkpt lat="42.9823976" lon="12.0620993"><ele>480.0</ele><time>2026-03-29T09:28:16.078Z</time></trkpt><trkpt lat="42.982321" lon="12.0621026"><ele>480.0</ele><time>2026-03-29T09:28:17.078Z</time></trkpt><trkpt lat="42.9822348" lon="12.0621106"><ele>480.0</ele><time>2026-03-29T09:28:18.078Z</time></trkpt><trkpt lat="42.9821277" lon="12.0621283"><ele>480.0</ele><time>2026-03-29T09:28:19.078Z</time></trkpt><trkpt lat="42.9820207" lon="12.0621512"><ele>480.0</ele><time>2026-03-29T09:28:20.078Z</time></trkpt><trkpt lat="42.9819088" lon="12.0621734"><ele>480.0</ele><time>2026-03-29T09:28:21.078Z</time></trkpt><trkpt lat="42.9817985" lon="12.0621869"><ele>480.0</ele><time>2026-03-29T09:28:22.077Z</time></trkpt><trkpt lat="42.9816871" lon="12.0621897"><ele>480.0</ele><time>2026-03-29T09:28:23.078Z</time></trkpt><trkpt lat="42.9815744" lon="12.0621731"><ele>480.0</ele><time>2026-03-29T09:28:24.077Z</time></trkpt><trkpt lat="42.9814595" lon="12.062128"><ele>478.0</ele><time>2026-03-29T09:28:25.078Z</time></trkpt><trkpt lat="42.9813439" lon="12.0620761"><ele>476.0</ele><time>2026-03-29T09:28:26.078Z</time></trkpt><trkpt lat="42.9812259" lon="12.0620318"><ele>474.0</ele><time>2026-03-29T09:28:27.077Z</time></trkpt><trkpt lat="42.9811103" lon="12.0619857"><ele>472.0</ele><time>2026-03-29T09:28:28.078Z</time></trkpt><trkpt lat="42.9810002" lon="12.0619411"><ele>472.0</ele><time>2026-03-29T09:28:29.077Z</time></trkpt><trkpt lat="42.9808909" lon="12.0619107"><ele>472.00000000000006</ele><time>2026-03-29T09:28:30.078Z</time></trkpt><trkpt lat="42.9807933" lon="12.0619067"><ele>472.00000000000006</ele><time>2026-03-29T09:28:31.077Z</time></trkpt><trkpt lat="42.98069" lon="12.061895"><ele>472.0</ele><time>2026-03-29T09:28:32.078Z</time></trkpt><trkpt lat="42.9805933" lon="12.0618717"><ele>472.0</ele><time>2026-03-29T09:28:33.078Z</time></trkpt><trkpt lat="42.9805033" lon="12.0618133"><ele>471.0</ele><time>2026-03-29T09:28:34.077Z</time></trkpt><trkpt lat="42.980415" lon="12.0617283"><ele>470.00000000000006</ele><time>2026-03-29T09:28:35.078Z</time></trkpt><trkpt lat="42.9803183" lon="12.06165"><ele>469.00000000000006</ele><time>2026-03-29T09:28:36.078Z</time></trkpt><trkpt lat="42.9802333" lon="12.0615517"><ele>468.0</ele><time>2026-03-29T09:28:37.077Z</time></trkpt><trkpt lat="42.9801383" lon="12.0614633"><ele>467.0</ele><time>2026-03-29T09:28:38.078Z</time></trkpt><trkpt lat="42.9800533" lon="12.06139"><ele>462.6</ele><time>2026-03-29T09:28:39.077Z</time></trkpt><trkpt lat="42.9799667" lon="12.061315"><ele>458.20000000000005</ele><time>2026-03-29T09:28:40.078Z</time></trkpt><trkpt lat="42.9798767" lon="12.0612833"><ele>453.8</ele><time>2026-03-29T09:28:41.078Z</time></trkpt><trkpt lat="42.979795" lon="12.0612733"><ele>449.4</ele><time>2026-03-29T09:28:42.077Z</time></trkpt><trkpt lat="42.9796983" lon="12.06131"><ele>445.0</ele><time>2026-03-29T09:28:43.077Z</time></trkpt><trkpt lat="42.9796017" lon="12.0613567"><ele>445.0</ele><time>2026-03-29T09:28:44.078Z</time></trkpt><trkpt lat="42.9795017" lon="12.061405"><ele>445.0</ele><time>2026-03-29T09:28:45.078Z</time></trkpt><trkpt lat="42.97941" lon="12.061485"><ele>445.0</ele><time>2026-03-29T09:28:46.077Z</time></trkpt><trkpt lat="42.9793117" lon="12.0616067"><ele>445.0</ele><time>2026-03-29T09:28:47.078Z</time></trkpt><trkpt lat="42.9792233" lon="12.0617483"><ele>444.25</ele><time>2026-03-29T09:28:48.078Z</time></trkpt><trkpt lat="42.9791367" lon="12.0618717"><ele>443.5</ele><time>2026-03-29T09:28:49.078Z</time></trkpt><trkpt lat="42.979045" lon="12.06196"><ele>442.75</ele><time>2026-03-29T09:28:50.078Z</time></trkpt><trkpt lat="42.9789467" lon="12.0620567"><ele>442.0</ele><time>2026-03-29T09:28:51.078Z</time></trkpt><trkpt lat="42.9788517" lon="12.062145"><ele>442.0</ele><time>2026-03-29T09:28:52.078Z</time></trkpt><trkpt lat="42.9787683" lon="12.06223"><ele>442.00000000000006</ele><time>2026-03-29T09:28:53.078Z</time></trkpt><trkpt lat="42.9786867" lon="12.0623067"><ele>442.00000000000006</ele><time>2026-03-29T09:28:54.077Z</time></trkpt><trkpt lat="42.9786083" lon="12.0623633"><ele>442.0</ele><time>2026-03-29T09:28:55.078Z</time></trkpt><trkpt lat="42.9785333" lon="12.0623917"><ele>442.0</ele><time>2026-03-29T09:28:56.077Z</time></trkpt><trkpt lat="42.9784533" lon="12.0623733"><ele>442.0</ele><time>2026-03-29T09:28:57.078Z</time></trkpt><trkpt lat="42.9783817" lon="12.0623067"><ele>442.00000000000006</ele><time>2026-03-29T09:28:58.078Z</time></trkpt><trkpt lat="42.9783117" lon="12.0621817"><ele>442.00000000000006</ele><time>2026-03-29T09:28:59.077Z</time></trkpt><trkpt lat="42.978245" lon="12.06205"><ele>442.0</ele><time>2026-03-29T09:29:00.078Z</time></trkpt><trkpt lat="42.9781633" lon="12.06196"><ele>442.0</ele><time>2026-03-29T09:29:01.078Z</time></trkpt><trkpt lat="42.978055" lon="12.06189"><ele>439.5</ele><time>2026-03-29T09:29:02.078Z</time></trkpt><trkpt lat="42.97792" lon="12.06186"><ele>437.0</ele><time>2026-03-29T09:29:03.077Z</time></trkpt><trkpt lat="42.977775" lon="12.0618533"><ele>434.5</ele><time>2026-03-29T09:29:04.078Z</time></trkpt><trkpt lat="42.9776217" lon="12.06184"><ele>432.0</ele><time>2026-03-29T09:29:05.078Z</time></trkpt><trkpt lat="42.97747" lon="12.0618267"><ele>430.25</ele><time>2026-03-29T09:29:06.078Z</time></trkpt><trkpt lat="42.9773367" lon="12.0618067"><ele>428.5</ele><time>2026-03-29T09:29:07.078Z</time></trkpt><trkpt lat="42.9772217" lon="12.0618033"><ele>426.75</ele><time>2026-03-29T09:29:08.078Z</time></trkpt><trkpt lat="42.97712" lon="12.0617983"><ele>425.0</ele><time>2026-03-29T09:29:09.078Z</time></trkpt><trkpt lat="42.97702" lon="12.0617983"><ele>424.99999999999994</ele><time>2026-03-29T09:29:10.078Z</time></trkpt><trkpt lat="42.9769383" lon="12.0618317"><ele>425.0</ele><time>2026-03-29T09:29:11.078Z</time></trkpt><trkpt lat="42.9768667" lon="12.0618867"><ele>425.0</ele><time>2026-03-29T09:29:12.077Z</time></trkpt><trkpt lat="42.9768083" lon="12.061955"><ele>425.0</ele><time>2026-03-29T09:29:13.077Z</time></trkpt><trkpt lat="42.9767583" lon="12.0620333"><ele>424.99999999999994</ele><time>2026-03-29T09:29:14.077Z</time></trkpt><trkpt lat="42.9767083" lon="12.0621"><ele>425.0</ele><time>2026-03-29T09:29:15.077Z</time></trkpt><trkpt lat="42.976655" lon="12.0621717"><ele>423.3333333333333</ele><time>2026-03-29T09:29:16.077Z</time></trkpt><trkpt lat="42.976595" lon="12.0622583"><ele>421.66666666666663</ele><time>2026-03-29T09:29:17.078Z</time></trkpt><trkpt lat="42.97654" lon="12.062335"><ele>420.0</ele><time>2026-03-29T09:29:18.077Z</time></trkpt><trkpt lat="42.976485" lon="12.0624017"><ele>418.33333333333337</ele><time>2026-03-29T09:29:19.077Z</time></trkpt><trkpt lat="42.976425" lon="12.0624767"><ele>416.6666666666667</ele><time>2026-03-29T09:29:20.078Z</time></trkpt><trkpt lat="42.97636" lon="12.062545"><ele>415.0</ele><time>2026-03-29T09:29:21.077Z</time></trkpt><trkpt lat="42.9762883" lon="12.0625967"><ele>414.4</ele><time>2026-03-29T09:29:22.077Z</time></trkpt><trkpt lat="42.9762167" lon="12.062645"><ele>413.8</ele><time>2026-03-29T09:29:23.077Z</time></trkpt><trkpt lat="42.97614" lon="12.0626717"><ele>413.20000000000005</ele><time>2026-03-29T09:29:24.078Z</time></trkpt><trkpt lat="42.97606" lon="12.06267"><ele>412.6</ele><time>2026-03-29T09:29:25.078Z</time></trkpt><trkpt lat="42.9759467" lon="12.062645"><ele>412.0</ele><time>2026-03-29T09:29:26.078Z</time></trkpt><trkpt lat="42.975825" lon="12.06259"><ele>409.75</ele><time>2026-03-29T09:29:27.078Z</time></trkpt><trkpt lat="42.9757067" lon="12.0625333"><ele>407.5</ele><time>2026-03-29T09:29:28.078Z</time></trkpt><trkpt lat="42.9755933" lon="12.06249"><ele>405.25</ele><time>2026-03-29T09:29:29.078Z</time></trkpt><trkpt lat="42.9754933" lon="12.0624383"><ele>403.0</ele><time>2026-03-29T09:29:30.078Z</time></trkpt><trkpt lat="42.9753967" lon="12.0623817"><ele>402.0</ele><time>2026-03-29T09:29:31.078Z</time></trkpt><trkpt lat="42.9753" lon="12.0623117"><ele>401.0</ele><time>2026-03-29T09:29:32.078Z</time></trkpt><trkpt lat="42.9752033" lon="12.062225"><ele>400.0</ele><time>2026-03-29T09:29:33.077Z</time></trkpt><trkpt lat="42.9751117" lon="12.0621117"><ele>399.0</ele><time>2026-03-29T09:29:34.078Z</time></trkpt><trkpt lat="42.9750217" lon="12.0619717"><ele>398.2</ele><time>2026-03-29T09:29:35.077Z</time></trkpt><trkpt lat="42.9749367" lon="12.0618517"><ele>397.4</ele><time>2026-03-29T09:29:36.078Z</time></trkpt><trkpt lat="42.97487" lon="12.0617367"><ele>396.6</ele><time>2026-03-29T09:29:37.078Z</time></trkpt><trkpt lat="42.974795" lon="12.0616417"><ele>395.8</ele><time>2026-03-29T09:29:38.078Z</time></trkpt><trkpt lat="42.9747133" lon="12.061545"><ele>395.0</ele><time>2026-03-29T09:29:39.077Z</time></trkpt><trkpt lat="42.9746032" lon="12.0614539"><ele>392.5</ele><time>2026-03-29T09:29:40.078Z</time></trkpt><trkpt lat="42.9742929" lon="12.0612122"><ele>390.0</ele><time>2026-03-29T09:29:42.078Z</time></trkpt><trkpt lat="42.9741222" lon="12.0610828"><ele>390.0</ele><time>2026-03-29T09:29:43.077Z</time></trkpt><trkpt lat="42.9739599" lon="12.0609732"><ele>390.0</ele><time>2026-03-29T09:29:44.078Z</time></trkpt><trkpt lat="42.9738198" lon="12.0608864"><ele>390.0</ele><time>2026-03-29T09:29:45.078Z</time></trkpt><trkpt lat="42.9737092" lon="12.06082"><ele>389.1666666666667</ele><time>2026-03-29T09:29:46.078Z</time></trkpt><trkpt lat="42.9736224" lon="12.0607656"><ele>388.33333333333337</ele><time>2026-03-29T09:29:47.078Z</time></trkpt><trkpt lat="42.9735622" lon="12.0607218"><ele>387.5</ele><time>2026-03-29T09:29:48.077Z</time></trkpt><trkpt lat="42.9735384" lon="12.0606417"><ele>386.6666666666667</ele><time>2026-03-29T09:29:51.078Z</time></trkpt><trkpt lat="42.9736061" lon="12.0605665"><ele>385.83333333333337</ele><time>2026-03-29T09:29:53.077Z</time></trkpt><trkpt lat="42.9736615" lon="12.0605198"><ele>385.0</ele><time>2026-03-29T09:29:54.078Z</time></trkpt><trkpt lat="42.9737279" lon="12.060448"><ele>385.0</ele><time>2026-03-29T09:29:55.078Z</time></trkpt><trkpt lat="42.9738097" lon="12.0603432"><ele>385.0</ele><time>2026-03-29T09:29:56.078Z</time></trkpt><trkpt lat="42.9739025" lon="12.0602101"><ele>385.0</ele><time>2026-03-29T09:29:57.078Z</time></trkpt><trkpt lat="42.973996" lon="12.0600602"><ele>385.0</ele><time>2026-03-29T09:29:58.078Z</time></trkpt><trkpt lat="42.9741048" lon="12.059891"><ele>384.5</ele><time>2026-03-29T09:29:59.078Z</time></trkpt><trkpt lat="42.9741871" lon="12.0597557"><ele>384.0</ele><time>2026-03-29T09:30:00.077Z</time></trkpt><trkpt lat="42.9742507" lon="12.0596138"><ele>383.5</ele><time>2026-03-29T09:30:01.078Z</time></trkpt><trkpt lat="42.9742974" lon="12.0594635"><ele>383.0</ele><time>2026-03-29T09:30:02.077Z</time></trkpt><trkpt lat="42.9743641" lon="12.0591486"><ele>383.6666666666667</ele><time>2026-03-29T09:30:04.078Z</time></trkpt><trkpt lat="42.9743736" lon="12.0589725"><ele>384.33333333333337</ele><time>2026-03-29T09:30:05.077Z</time></trkpt><trkpt lat="42.9743365" lon="12.0585735"><ele>385.0</ele><time>2026-03-29T09:30:07.077Z</time></trkpt><trkpt lat="42.9743199" lon="12.0583647"><ele>383.0</ele><time>2026-03-29T09:30:08.078Z</time></trkpt><trkpt lat="42.9743094" lon="12.0581551"><ele>381.0</ele><time>2026-03-29T09:30:09.078Z</time></trkpt><trkpt lat="42.9743053" lon="12.0579437"><ele>379.0</ele><time>2026-03-29T09:30:10.078Z</time></trkpt><trkpt lat="42.9743041" lon="12.0577349"><ele>379.0</ele><time>2026-03-29T09:30:11.078Z</time></trkpt><trkpt lat="42.97431" lon="12.0575293"><ele>379.0</ele><time>2026-03-29T09:30:12.077Z</time></trkpt><trkpt lat="42.9743265" lon="12.0573304"><ele>379.0</ele><time>2026-03-29T09:30:13.078Z</time></trkpt><trkpt lat="42.9743648" lon="12.0571403"><ele>379.0</ele><time>2026-03-29T09:30:14.078Z</time></trkpt><trkpt lat="42.9744271" lon="12.056963"><ele>376.66666666666663</ele><time>2026-03-29T09:30:15.078Z</time></trkpt><trkpt lat="42.9745137" lon="12.0567939"><ele>374.3333333333333</ele><time>2026-03-29T09:30:16.078Z</time></trkpt><trkpt lat="42.9746082" lon="12.0566253"><ele>372.0</ele><time>2026-03-29T09:30:17.078Z</time></trkpt><trkpt lat="42.9747032" lon="12.0564436"><ele>369.0</ele><time>2026-03-29T09:30:18.078Z</time></trkpt><trkpt lat="42.9747852" lon="12.0562489"><ele>366.0</ele><time>2026-03-29T09:30:19.078Z</time></trkpt><trkpt lat="42.9748561" lon="12.056041"><ele>363.0</ele><time>2026-03-29T09:30:20.078Z</time></trkpt><trkpt lat="42.9749198" lon="12.0558288"><ele>361.3333333333333</ele><time>2026-03-29T09:30:21.078Z</time></trkpt><trkpt lat="42.9749757" lon="12.055612"><ele>359.66666666666663</ele><time>2026-03-29T09:30:22.078Z</time></trkpt><trkpt lat="42.975021" lon="12.0553963"><ele>358.0</ele><time>2026-03-29T09:30:23.077Z</time></trkpt><trkpt lat="42.9750675" lon="12.0551913"><ele>358.0</ele><time>2026-03-29T09:30:24.077Z</time></trkpt><trkpt lat="42.9751236" lon="12.0549966"><ele>358.0</ele><time>2026-03-29T09:30:25.077Z</time></trkpt><trkpt lat="42.9751986" lon="12.0548058"><ele>358.0</ele><time>2026-03-29T09:30:26.077Z</time></trkpt><trkpt lat="42.9752914" lon="12.0546264"><ele>356.66666666666663</ele><time>2026-03-29T09:30:27.078Z</time></trkpt><trkpt lat="42.9753923" lon="12.0544554"><ele>355.3333333333333</ele><time>2026-03-29T09:30:28.078Z</time></trkpt><trkpt lat="42.9754916" lon="12.0542896"><ele>354.0</ele><time>2026-03-29T09:30:29.077Z</time></trkpt><trkpt lat="42.9755814" lon="12.0541312"><ele>354.6666666666667</ele><time>2026-03-29T09:30:30.078Z</time></trkpt><trkpt lat="42.9756415" lon="12.0539357"><ele>355.33333333333337</ele><time>2026-03-29T09:30:31.078Z</time></trkpt><trkpt lat="42.9756889" lon="12.0537348"><ele>356.0</ele><time>2026-03-29T09:30:32.078Z</time></trkpt><trkpt lat="42.9757064" lon="12.0535063"><ele>354.0</ele><time>2026-03-29T09:30:33.078Z</time></trkpt><trkpt lat="42.9756866" lon="12.0532341"><ele>352.0</ele><time>2026-03-29T09:30:34.078Z</time></trkpt><trkpt lat="42.9756872" lon="12.0529842"><ele>350.0</ele><time>2026-03-29T09:30:35.078Z</time></trkpt><trkpt lat="42.9756938" lon="12.0527228"><ele>350.0</ele><time>2026-03-29T09:30:36.077Z</time></trkpt><trkpt lat="42.9757147" lon="12.0524643"><ele>350.0</ele><time>2026-03-29T09:30:37.078Z</time></trkpt><trkpt lat="42.9757566" lon="12.0522097"><ele>350.0</ele><time>2026-03-29T09:30:38.077Z</time></trkpt><trkpt lat="42.9758218" lon="12.0519736"><ele>349.33333333333337</ele><time>2026-03-29T09:30:39.078Z</time></trkpt><trkpt lat="42.9759019" lon="12.0517536"><ele>348.6666666666667</ele><time>2026-03-29T09:30:40.078Z</time></trkpt><trkpt lat="42.9760064" lon="12.0515593"><ele>348.0</ele><time>2026-03-29T09:30:41.077Z</time></trkpt><trkpt lat="42.9761301" lon="12.0513945"><ele>344.3333333333333</ele><time>2026-03-29T09:30:42.078Z</time></trkpt><trkpt lat="42.9762854" lon="12.0512677"><ele>340.66666666666663</ele><time>2026-03-29T09:30:43.077Z</time></trkpt><trkpt lat="42.9764201" lon="12.0511316"><ele>337.0</ele><time>2026-03-29T09:30:44.078Z</time></trkpt><trkpt lat="42.9765311" lon="12.0509758"><ele>337.0</ele><time>2026-03-29T09:30:45.077Z</time></trkpt><trkpt lat="42.9766194" lon="12.0508008"><ele>337.0</ele><time>2026-03-29T09:30:46.078Z</time></trkpt><trkpt lat="42.976684" lon="12.0506015"><ele>337.0</ele><time>2026-03-29T09:30:47.078Z</time></trkpt><trkpt lat="42.9767121" lon="12.0503681"><ele>339.66666666666663</ele><time>2026-03-29T09:30:48.078Z</time></trkpt><trkpt lat="42.9767166" lon="12.0501075"><ele>342.3333333333333</ele><time>2026-03-29T09:30:49.078Z</time></trkpt><trkpt lat="42.9767135" lon="12.0498366"><ele>345.0</ele><time>2026-03-29T09:30:50.077Z</time></trkpt><trkpt lat="42.9767142" lon="12.0495669"><ele>345.0</ele><time>2026-03-29T09:30:51.078Z</time></trkpt><trkpt lat="42.9767204" lon="12.0493085"><ele>345.0</ele><time>2026-03-29T09:30:52.078Z</time></trkpt><trkpt lat="42.9767341" lon="12.049065"><ele>345.0</ele><time>2026-03-29T09:30:53.078Z</time></trkpt><trkpt lat="42.9767624" lon="12.0488363"><ele>341.6666666666667</ele><time>2026-03-29T09:30:54.078Z</time></trkpt><trkpt lat="42.976827" lon="12.0486121"><ele>338.33333333333337</ele><time>2026-03-29T09:30:55.077Z</time></trkpt><trkpt lat="42.9769143" lon="12.0484028"><ele>335.0</ele><time>2026-03-29T09:30:56.077Z</time></trkpt><trkpt lat="42.9770376" lon="12.0482091"><ele>332.6666666666667</ele><time>2026-03-29T09:30:57.078Z</time></trkpt><trkpt lat="42.9771753" lon="12.0480126"><ele>330.3333333333333</ele><time>2026-03-29T09:30:58.077Z</time></trkpt><trkpt lat="42.9773284" lon="12.0478184"><ele>328.0</ele><time>2026-03-29T09:30:59.078Z</time></trkpt><trkpt lat="42.9774727" lon="12.0476148"><ele>327.66666666666663</ele><time>2026-03-29T09:31:00.078Z</time></trkpt><trkpt lat="42.977625" lon="12.047418"><ele>327.3333333333333</ele><time>2026-03-29T09:31:01.078Z</time></trkpt><trkpt lat="42.9777965" lon="12.0472544"><ele>327.0</ele><time>2026-03-29T09:31:02.079Z</time></trkpt><trkpt lat="42.9779698" lon="12.0470965"><ele>327.0</ele><time>2026-03-29T09:31:03.078Z</time></trkpt><trkpt lat="42.978142" lon="12.0469497"><ele>327.0</ele><time>2026-03-29T09:31:04.079Z</time></trkpt><trkpt lat="42.9782928" lon="12.0467973"><ele>327.0</ele><time>2026-03-29T09:31:05.078Z</time></trkpt><trkpt lat="42.9784183" lon="12.0466188"><ele>329.3333333333333</ele><time>2026-03-29T09:31:06.079Z</time></trkpt><trkpt lat="42.9785369" lon="12.0464224"><ele>331.66666666666663</ele><time>2026-03-29T09:31:07.079Z</time></trkpt><trkpt lat="42.9786289" lon="12.0461882"><ele>334.0</ele><time>2026-03-29T09:31:08.079Z</time></trkpt><trkpt lat="42.9787101" lon="12.0459251"><ele>332.0</ele><time>2026-03-29T09:31:09.079Z</time></trkpt><trkpt lat="42.9787865" lon="12.0456426"><ele>330.0</ele><time>2026-03-29T09:31:10.079Z</time></trkpt><trkpt lat="42.9788607" lon="12.0453618"><ele>328.0</ele><time>2026-03-29T09:31:11.078Z</time></trkpt><trkpt lat="42.9789247" lon="12.0450862"><ele>327.66666666666663</ele><time>2026-03-29T09:31:12.079Z</time></trkpt><trkpt lat="42.9789624" lon="12.0448156"><ele>327.3333333333333</ele><time>2026-03-29T09:31:13.079Z</time></trkpt><trkpt lat="42.9789887" lon="12.0445539"><ele>327.0</ele><time>2026-03-29T09:31:14.079Z</time></trkpt><trkpt lat="42.978958" lon="12.0442956"><ele>324.6666666666667</ele><time>2026-03-29T09:31:15.079Z</time></trkpt><trkpt lat="42.9789511" lon="12.0440528"><ele>322.33333333333337</ele><time>2026-03-29T09:31:16.079Z</time></trkpt><trkpt lat="42.9789605" lon="12.0438204"><ele>320.0</ele><time>2026-03-29T09:31:17.079Z</time></trkpt><trkpt lat="42.9789829" lon="12.0436077"><ele>320.0</ele><time>2026-03-29T09:31:18.079Z</time></trkpt><trkpt lat="42.9790254" lon="12.0434156"><ele>320.0</ele><time>2026-03-29T09:31:19.079Z</time></trkpt><trkpt lat="42.9791" lon="12.04327"><ele>320.0</ele><time>2026-03-29T09:31:20.079Z</time></trkpt><trkpt lat="42.9791633" lon="12.0430883"><ele>320.0</ele><time>2026-03-29T09:31:21.079Z</time></trkpt><trkpt lat="42.979235" lon="12.042925"><ele>321.25</ele><time>2026-03-29T09:31:22.079Z</time></trkpt><trkpt lat="42.97929" lon="12.04276"><ele>322.5</ele><time>2026-03-29T09:31:23.079Z</time></trkpt><trkpt lat="42.9793517" lon="12.0426"><ele>323.75</ele><time>2026-03-29T09:31:24.078Z</time></trkpt><trkpt lat="42.97942" lon="12.0424333"><ele>325.0</ele><time>2026-03-29T09:31:25.078Z</time></trkpt><trkpt lat="42.9794967" lon="12.0422667"><ele>321.3333333333333</ele><time>2026-03-29T09:31:26.078Z</time></trkpt><trkpt lat="42.9795717" lon="12.04208"><ele>317.6666666666667</ele><time>2026-03-29T09:31:27.079Z</time></trkpt><trkpt lat="42.979665" lon="12.04192"><ele>314.0</ele><time>2026-03-29T09:31:28.079Z</time></trkpt><trkpt lat="42.9797717" lon="12.0417583"><ele>315.0</ele><time>2026-03-29T09:31:29.079Z</time></trkpt><trkpt lat="42.9798767" lon="12.0415967"><ele>316.0</ele><time>2026-03-29T09:31:30.079Z</time></trkpt><trkpt lat="42.97999" lon="12.041445"><ele>317.0</ele><time>2026-03-29T09:31:31.079Z</time></trkpt><trkpt lat="42.9801133" lon="12.0413033"><ele>317.6666666666667</ele><time>2026-03-29T09:31:32.078Z</time></trkpt><trkpt lat="42.9802433" lon="12.04117"><ele>318.3333333333333</ele><time>2026-03-29T09:31:33.079Z</time></trkpt><trkpt lat="42.9803783" lon="12.0410417"><ele>319.0</ele><time>2026-03-29T09:31:34.078Z</time></trkpt><trkpt lat="42.9805133" lon="12.0409117"><ele>318.66666666666663</ele><time>2026-03-29T09:31:35.078Z</time></trkpt><trkpt lat="42.9806467" lon="12.0407783"><ele>318.3333333333333</ele><time>2026-03-29T09:31:36.079Z</time></trkpt><trkpt lat="42.98079" lon="12.0406533"><ele>318.0</ele><time>2026-03-29T09:31:37.079Z</time></trkpt><trkpt lat="42.9809367" lon="12.04053"><ele>317.6666666666667</ele><time>2026-03-29T09:31:38.079Z</time></trkpt><trkpt lat="42.9810833" lon="12.0404067"><ele>317.33333333333337</ele><time>2026-03-29T09:31:39.078Z</time></trkpt><trkpt lat="42.9812167" lon="12.0402767"><ele>317.0</ele><time>2026-03-29T09:31:40.079Z</time></trkpt><trkpt lat="42.98135" lon="12.040135"><ele>317.0</ele><time>2026-03-29T09:31:41.078Z</time></trkpt><trkpt lat="42.9814733" lon="12.0399817"><ele>317.0</ele><time>2026-03-29T09:31:42.079Z</time></trkpt><trkpt lat="42.9816033" lon="12.0398283"><ele>317.0</ele><time>2026-03-29T09:31:43.079Z</time></trkpt><trkpt lat="42.9817267" lon="12.0396633"><ele>315.33333333333337</ele><time>2026-03-29T09:31:44.079Z</time></trkpt><trkpt lat="42.98184" lon="12.039495"><ele>313.6666666666667</ele><time>2026-03-29T09:31:45.079Z</time></trkpt><trkpt lat="42.981945" lon="12.0393283"><ele>312.0</ele><time>2026-03-29T09:31:46.079Z</time></trkpt><trkpt lat="42.9820533" lon="12.039165"><ele>309.75</ele><time>2026-03-29T09:31:47.079Z</time></trkpt><trkpt lat="42.9821533" lon="12.0389983"><ele>307.5</ele><time>2026-03-29T09:31:48.078Z</time></trkpt><trkpt lat="42.982255" lon="12.0388383"><ele>305.25</ele><time>2026-03-29T09:31:49.079Z</time></trkpt><trkpt lat="42.9823467" lon="12.0387067"><ele>303.0</ele><time>2026-03-29T09:31:50.079Z</time></trkpt><trkpt lat="42.9824333" lon="12.0385667"><ele>303.0</ele><time>2026-03-29T09:31:51.079Z</time></trkpt><trkpt lat="42.982505" lon="12.03843"><ele>303.0</ele><time>2026-03-29T09:31:52.079Z</time></trkpt><trkpt lat="42.9825833" lon="12.03831"><ele>303.0</ele><time>2026-03-29T09:31:53.078Z</time></trkpt><trkpt lat="42.9826417" lon="12.038215"><ele>303.0</ele><time>2026-03-29T09:31:54.079Z</time></trkpt><trkpt lat="42.9826783" lon="12.0381383"><ele>303.0</ele><time>2026-03-29T09:31:55.079Z</time></trkpt><trkpt lat="42.982665" lon="12.0379783"><ele>302.8</ele><time>2026-03-29T09:31:57.079Z</time></trkpt><trkpt lat="42.9826283" lon="12.0378967"><ele>302.6</ele><time>2026-03-29T09:31:58.079Z</time></trkpt><trkpt lat="42.9825867" lon="12.03779"><ele>302.4</ele><time>2026-03-29T09:31:59.079Z</time></trkpt><trkpt lat="42.982555" lon="12.037645"><ele>302.2</ele><time>2026-03-29T09:32:00.079Z</time></trkpt><trkpt lat="42.9825283" lon="12.0374533"><ele>302.0</ele><time>2026-03-29T09:32:01.079Z</time></trkpt><trkpt lat="42.98249" lon="12.03727"><ele>301.2</ele><time>2026-03-29T09:32:02.079Z</time></trkpt><trkpt lat="42.9824583" lon="12.0371233"><ele>300.4</ele><time>2026-03-29T09:32:03.079Z</time></trkpt><trkpt lat="42.982425" lon="12.0370217"><ele>299.6</ele><time>2026-03-29T09:32:04.079Z</time></trkpt><trkpt lat="42.9824133" lon="12.036895"><ele>298.8</ele><time>2026-03-29T09:32:06.079Z</time></trkpt><trkpt lat="42.98237" lon="12.03673"><ele>298.0</ele><time>2026-03-29T09:32:08.079Z</time></trkpt><trkpt lat="42.982335" lon="12.03661"><ele>297.75</ele><time>2026-03-29T09:32:09.079Z</time></trkpt><trkpt lat="42.9822883" lon="12.0364733"><ele>297.5</ele><time>2026-03-29T09:32:10.079Z</time></trkpt><trkpt lat="42.9822317" lon="12.0363217"><ele>297.25</ele><time>2026-03-29T09:32:11.079Z</time></trkpt><trkpt lat="42.9821867" lon="12.036165"><ele>297.0</ele><time>2026-03-29T09:32:12.079Z</time></trkpt><trkpt lat="42.98214" lon="12.0360183"><ele>297.0</ele><time>2026-03-29T09:32:13.079Z</time></trkpt><trkpt lat="42.9820833" lon="12.03588"><ele>297.0</ele><time>2026-03-29T09:32:14.079Z</time></trkpt><trkpt lat="42.9820067" lon="12.0357283"><ele>297.0</ele><time>2026-03-29T09:32:15.079Z</time></trkpt><trkpt lat="42.9819367" lon="12.0355667"><ele>297.0</ele><time>2026-03-29T09:32:16.078Z</time></trkpt><trkpt lat="42.9818667" lon="12.0354067"><ele>299.6</ele><time>2026-03-29T09:32:17.079Z</time></trkpt><trkpt lat="42.981805" lon="12.0352567"><ele>302.2</ele><time>2026-03-29T09:32:18.078Z</time></trkpt><trkpt lat="42.9817617" lon="12.0351133"><ele>304.8</ele><time>2026-03-29T09:32:19.079Z</time></trkpt><trkpt lat="42.9817333" lon="12.0349833"><ele>307.4</ele><time>2026-03-29T09:32:20.079Z</time></trkpt><trkpt lat="42.98171" lon="12.03486"><ele>310.0</ele><time>2026-03-29T09:32:21.078Z</time></trkpt><trkpt lat="42.9817" lon="12.0347217"><ele>313.25</ele><time>2026-03-29T09:32:22.079Z</time></trkpt><trkpt lat="42.9817133" lon="12.034575"><ele>316.5</ele><time>2026-03-29T09:32:23.079Z</time></trkpt><trkpt lat="42.98174" lon="12.03441"><ele>319.75</ele><time>2026-03-29T09:32:24.078Z</time></trkpt><trkpt lat="42.9817767" lon="12.034225"><ele>323.0</ele><time>2026-03-29T09:32:25.078Z</time></trkpt><trkpt lat="42.9818217" lon="12.03405"><ele>323.5</ele><time>2026-03-29T09:32:26.079Z</time></trkpt><trkpt lat="42.9818467" lon="12.0338967"><ele>324.0</ele><time>2026-03-29T09:32:27.079Z</time></trkpt><trkpt lat="42.981865" lon="12.0337667"><ele>324.5</ele><time>2026-03-29T09:32:28.079Z</time></trkpt><trkpt lat="42.9818717" lon="12.0336683"><ele>325.0</ele><time>2026-03-29T09:32:29.078Z</time></trkpt><trkpt lat="42.9818633" lon="12.0335683"><ele>325.5</ele><time>2026-03-29T09:32:31.079Z</time></trkpt><trkpt lat="42.9819" lon="12.0334833"><ele>326.0</ele><time>2026-03-29T09:32:38.079Z</time></trkpt><trkpt lat="42.9819733" lon="12.03344"><ele>326.0</ele><time>2026-03-29T09:32:45.079Z</time></trkpt><trkpt lat="42.9820333" lon="12.033375"><ele>326.0</ele><time>2026-03-29T09:33:11.078Z</time></trkpt><trkpt lat="42.9820567" lon="12.0332567"><ele>326.0</ele><time>2026-03-29T09:33:13.078Z</time></trkpt><trkpt lat="42.982055" lon="12.0331633"><ele>326.0</ele><time>2026-03-29T09:33:14.079Z</time></trkpt><trkpt lat="42.9820483" lon="12.033055"><ele>326.0</ele><time>2026-03-29T09:33:15.079Z</time></trkpt><trkpt lat="42.982025" lon="12.0329183"><ele>326.0</ele><time>2026-03-29T09:33:16.079Z</time></trkpt><trkpt lat="42.981985" lon="12.0327667"><ele>326.25</ele><time>2026-03-29T09:33:17.078Z</time></trkpt><trkpt lat="42.9819483" lon="12.032615"><ele>326.5</ele><time>2026-03-29T09:33:18.078Z</time></trkpt><trkpt lat="42.9819217" lon="12.03248"><ele>326.75</ele><time>2026-03-29T09:33:19.079Z</time></trkpt><trkpt lat="42.9819183" lon="12.0323333"><ele>327.0</ele><time>2026-03-29T09:33:20.079Z</time></trkpt><trkpt lat="42.9819183" lon="12.032165"><ele>327.3333333333333</ele><time>2026-03-29T09:33:21.079Z</time></trkpt><trkpt lat="42.98194" lon="12.0319683"><ele>327.66666666666663</ele><time>2026-03-29T09:33:22.078Z</time></trkpt><trkpt lat="42.98197" lon="12.0317433"><ele>328.0</ele><time>2026-03-29T09:33:23.079Z</time></trkpt><trkpt lat="42.9820033" lon="12.0314917"><ele>327.3333333333333</ele><time>2026-03-29T09:33:24.079Z</time></trkpt><trkpt lat="42.9820283" lon="12.0312033"><ele>326.6666666666667</ele><time>2026-03-29T09:33:25.079Z</time></trkpt><trkpt lat="42.98205" lon="12.0309183"><ele>326.0</ele><time>2026-03-29T09:33:26.079Z</time></trkpt><trkpt lat="42.9820717" lon="12.0306483"><ele>323.33333333333337</ele><time>2026-03-29T09:33:27.079Z</time></trkpt><trkpt lat="42.98209" lon="12.0303633"><ele>320.6666666666667</ele><time>2026-03-29T09:33:28.079Z</time></trkpt><trkpt lat="42.9821" lon="12.0300733"><ele>318.0</ele><time>2026-03-29T09:33:29.079Z</time></trkpt><trkpt lat="42.9821167" lon="12.0297867"><ele>314.5</ele><time>2026-03-29T09:33:30.079Z</time></trkpt><trkpt lat="42.982135" lon="12.029465"><ele>311.0</ele><time>2026-03-29T09:33:31.079Z</time></trkpt><trkpt lat="42.9821467" lon="12.0290883"><ele>311.0</ele><time>2026-03-29T09:33:32.079Z</time></trkpt><trkpt lat="42.9821667" lon="12.0287167"><ele>311.0</ele><time>2026-03-29T09:33:33.079Z</time></trkpt><trkpt lat="42.9822033" lon="12.0284233"><ele>311.6666666666667</ele><time>2026-03-29T09:33:34.078Z</time></trkpt><trkpt lat="42.982205" lon="12.0281283"><ele>312.3333333333333</ele><time>2026-03-29T09:33:35.079Z</time></trkpt><trkpt lat="42.9822167" lon="12.0278583"><ele>313.0</ele><time>2026-03-29T09:33:36.079Z</time></trkpt><trkpt lat="42.9822283" lon="12.0276217"><ele>312.66666666666663</ele><time>2026-03-29T09:33:37.079Z</time></trkpt><trkpt lat="42.9822333" lon="12.0274117"><ele>312.3333333333333</ele><time>2026-03-29T09:33:38.079Z</time></trkpt><trkpt lat="42.9822417" lon="12.0272117"><ele>312.0</ele><time>2026-03-29T09:33:39.079Z</time></trkpt><trkpt lat="42.9822517" lon="12.0269983"><ele>312.0</ele><time>2026-03-29T09:33:40.078Z</time></trkpt><trkpt lat="42.9822633" lon="12.0267633"><ele>312.0</ele><time>2026-03-29T09:33:41.078Z</time></trkpt><trkpt lat="42.9822783" lon="12.026505"><ele>312.0</ele><time>2026-03-29T09:33:42.079Z</time></trkpt><trkpt lat="42.9822833" lon="12.0262583"><ele>313.6666666666667</ele><time>2026-03-29T09:33:43.079Z</time></trkpt><trkpt lat="42.9822917" lon="12.026015"><ele>315.33333333333337</ele><time>2026-03-29T09:33:44.079Z</time></trkpt><trkpt lat="42.9823" lon="12.0257883"><ele>317.0</ele><time>2026-03-29T09:33:45.078Z</time></trkpt><trkpt lat="42.98231" lon="12.025575"><ele>317.33333333333337</ele><time>2026-03-29T09:33:46.078Z</time></trkpt><trkpt lat="42.98232" lon="12.0253633"><ele>317.6666666666667</ele><time>2026-03-29T09:33:47.079Z</time></trkpt><trkpt lat="42.9823233" lon="12.0251533"><ele>318.0</ele><time>2026-03-29T09:33:48.079Z</time></trkpt><trkpt lat="42.98232" lon="12.02496"><ele>318.0</ele><time>2026-03-29T09:33:49.078Z</time></trkpt><trkpt lat="42.9823117" lon="12.024795"><ele>318.0</ele><time>2026-03-29T09:33:50.079Z</time></trkpt><trkpt lat="42.9823067" lon="12.0246467"><ele>318.0</ele><time>2026-03-29T09:33:51.079Z</time></trkpt><trkpt lat="42.982295" lon="12.0245167"><ele>318.0</ele><time>2026-03-29T09:33:52.079Z</time></trkpt><trkpt lat="42.9822883" lon="12.0244267"><ele>318.0</ele><time>2026-03-29T09:33:53.079Z</time></trkpt><trkpt lat="42.982225" lon="12.02434"><ele>318.0</ele><time>2026-03-29T09:33:55.079Z</time></trkpt><trkpt lat="42.9820733" lon="12.024365"><ele>318.0</ele><time>2026-03-29T09:33:57.079Z</time></trkpt><trkpt lat="42.981945" lon="12.0243933"><ele>318.0</ele><time>2026-03-29T09:33:58.079Z</time></trkpt><trkpt lat="42.9817867" lon="12.0244233"><ele>318.0</ele><time>2026-03-29T09:33:59.078Z</time></trkpt><trkpt lat="42.9816067" lon="12.0244467"><ele>319.6</ele><time>2026-03-29T09:34:00.079Z</time></trkpt><trkpt lat="42.9814583" lon="12.0244433"><ele>321.20000000000005</ele><time>2026-03-29T09:34:01.079Z</time></trkpt><trkpt lat="42.98135" lon="12.0244383"><ele>322.8</ele><time>2026-03-29T09:34:02.079Z</time></trkpt><trkpt lat="42.9812733" lon="12.0244267"><ele>324.40000000000003</ele><time>2026-03-29T09:34:03.079Z</time></trkpt><trkpt lat="42.9812133" lon="12.0243983"><ele>326.0</ele><time>2026-03-29T09:35:10.079Z</time></trkpt><trkpt lat="42.98113" lon="12.0243317"><ele>326.0</ele><time>2026-03-29T09:35:13.079Z</time></trkpt><trkpt lat="42.9810467" lon="12.0242333"><ele>326.0</ele><time>2026-03-29T09:35:15.079Z</time></trkpt><trkpt lat="42.9809303" lon="12.0241523"><ele>326.0</ele><time>2026-03-29T09:35:17.079Z</time></trkpt><trkpt lat="42.9808566" lon="12.0241226"><ele>326.0</ele><time>2026-03-29T09:35:18.079Z</time></trkpt><trkpt lat="42.9807778" lon="12.0240904"><ele>326.0</ele><time>2026-03-29T09:35:19.079Z</time></trkpt><trkpt lat="42.980692" lon="12.0240505"><ele>330.4</ele><time>2026-03-29T09:35:20.079Z</time></trkpt><trkpt lat="42.9806078" lon="12.0240099"><ele>334.8</ele><time>2026-03-29T09:35:21.079Z</time></trkpt><trkpt lat="42.9805184" lon="12.0239653"><ele>339.2</ele><time>2026-03-29T09:35:22.079Z</time></trkpt><trkpt lat="42.98043" lon="12.023927"><ele>343.59999999999997</ele><time>2026-03-29T09:35:23.079Z</time></trkpt><trkpt lat="42.9803465" lon="12.0238874"><ele>348.0</ele><time>2026-03-29T09:35:24.079Z</time></trkpt><trkpt lat="42.9802609" lon="12.0238313"><ele>348.0</ele><time>2026-03-29T09:35:25.078Z</time></trkpt><trkpt lat="42.9801757" lon="12.0237704"><ele>348.0</ele><time>2026-03-29T09:35:26.079Z</time></trkpt><trkpt lat="42.9800874" lon="12.0237126"><ele>348.0</ele><time>2026-03-29T09:35:27.078Z</time></trkpt><trkpt lat="42.979996" lon="12.0236654"><ele>348.0</ele><time>2026-03-29T09:35:28.078Z</time></trkpt><trkpt lat="42.9799047" lon="12.0236182"><ele>348.0</ele><time>2026-03-29T09:35:29.079Z</time></trkpt><trkpt lat="42.9798129" lon="12.0235687"><ele>350.0</ele><time>2026-03-29T09:35:30.079Z</time></trkpt><trkpt lat="42.9797151" lon="12.0235197"><ele>352.0</ele><time>2026-03-29T09:35:31.079Z</time></trkpt><trkpt lat="42.979613" lon="12.0234658"><ele>354.0</ele><time>2026-03-29T09:35:32.079Z</time></trkpt><trkpt lat="42.9795075" lon="12.0234091"><ele>356.0</ele><time>2026-03-29T09:35:33.079Z</time></trkpt><trkpt lat="42.9793977" lon="12.0233563"><ele>358.0</ele><time>2026-03-29T09:35:34.079Z</time></trkpt><trkpt lat="42.979284" lon="12.0232979"><ele>360.0</ele><time>2026-03-29T09:35:35.078Z</time></trkpt><trkpt lat="42.9791657" lon="12.0232361"><ele>362.0</ele><time>2026-03-29T09:35:36.079Z</time></trkpt><trkpt lat="42.9790429" lon="12.0231743"><ele>364.0</ele><time>2026-03-29T09:35:37.079Z</time></trkpt><trkpt lat="42.9789168" lon="12.0231063"><ele>366.0</ele><time>2026-03-29T09:35:38.079Z</time></trkpt><trkpt lat="42.9787966" lon="12.0230399"><ele>366.0</ele><time>2026-03-29T09:35:39.078Z</time></trkpt><trkpt lat="42.9786972" lon="12.0229938"><ele>366.0</ele><time>2026-03-29T09:35:40.079Z</time></trkpt><trkpt lat="42.9786106" lon="12.0229608"><ele>366.0</ele><time>2026-03-29T09:35:41.078Z</time></trkpt><trkpt lat="42.9785309" lon="12.022923"><ele>366.0</ele><time>2026-03-29T09:35:42.078Z</time></trkpt><trkpt lat="42.9784593" lon="12.0228676"><ele>366.0</ele><time>2026-03-29T09:35:43.079Z</time></trkpt><trkpt lat="42.9783902" lon="12.022805"><ele>366.0</ele><time>2026-03-29T09:35:44.079Z</time></trkpt><trkpt lat="42.9783168" lon="12.0227379"><ele>368.0</ele><time>2026-03-29T09:35:45.079Z</time></trkpt><trkpt lat="42.9782339" lon="12.0226693"><ele>370.0</ele><time>2026-03-29T09:35:46.079Z</time></trkpt><trkpt lat="42.9781494" lon="12.0226085"><ele>372.0</ele><time>2026-03-29T09:35:47.079Z</time></trkpt><trkpt lat="42.978059" lon="12.0225558"><ele>374.0</ele><time>2026-03-29T09:35:48.078Z</time></trkpt><trkpt lat="42.9779654" lon="12.0225235"><ele>376.0</ele><time>2026-03-29T09:35:49.078Z</time></trkpt><trkpt lat="42.9778684" lon="12.0225004"><ele>375.0</ele><time>2026-03-29T09:35:50.079Z</time></trkpt><trkpt lat="42.9777757" lon="12.0224686"><ele>374.0</ele><time>2026-03-29T09:35:51.079Z</time></trkpt><trkpt lat="42.9776844" lon="12.0224183"><ele>373.0</ele><time>2026-03-29T09:35:52.079Z</time></trkpt><trkpt lat="42.977597" lon="12.0223601"><ele>372.0</ele><time>2026-03-29T09:35:53.078Z</time></trkpt><trkpt lat="42.9775145" lon="12.0222957"><ele>371.0</ele><time>2026-03-29T09:35:54.078Z</time></trkpt><trkpt lat="42.9774268" lon="12.0222278"><ele>373.4</ele><time>2026-03-29T09:35:55.079Z</time></trkpt><trkpt lat="42.9773382" lon="12.0221568"><ele>375.8</ele><time>2026-03-29T09:35:56.079Z</time></trkpt><trkpt lat="42.9772485" lon="12.0220929"><ele>378.2</ele><time>2026-03-29T09:35:57.079Z</time></trkpt><trkpt lat="42.977163" lon="12.0220239"><ele>380.59999999999997</ele><time>2026-03-29T09:35:58.079Z</time></trkpt><trkpt lat="42.9770824" lon="12.0219722"><ele>383.0</ele><time>2026-03-29T09:35:59.079Z</time></trkpt><trkpt lat="42.9770045" lon="12.0219259"><ele>383.0</ele><time>2026-03-29T09:36:00.078Z</time></trkpt><trkpt lat="42.9769104" lon="12.0219072"><ele>383.0</ele><time>2026-03-29T09:36:01.079Z</time></trkpt><trkpt lat="42.9768141" lon="12.0219128"><ele>383.0</ele><time>2026-03-29T09:36:02.079Z</time></trkpt><trkpt lat="42.9767317" lon="12.0219352"><ele>383.0</ele><time>2026-03-29T09:36:03.078Z</time></trkpt><trkpt lat="42.9766656" lon="12.021954"><ele>383.0</ele><time>2026-03-29T09:36:04.079Z</time></trkpt><trkpt lat="42.9765666" lon="12.0219841"><ele>383.0</ele><time>2026-03-29T09:36:06.079Z</time></trkpt><trkpt lat="42.9764462" lon="12.0219401"><ele>386.79999999999995</ele><time>2026-03-29T09:36:08.079Z</time></trkpt><trkpt lat="42.9763671" lon="12.0219071"><ele>390.6</ele><time>2026-03-29T09:36:09.079Z</time></trkpt><trkpt lat="42.9762757" lon="12.0218658"><ele>394.4</ele><time>2026-03-29T09:36:10.078Z</time></trkpt><trkpt lat="42.9761764" lon="12.0218259"><ele>398.20000000000005</ele><time>2026-03-29T09:36:11.078Z</time></trkpt><trkpt lat="42.9760838" lon="12.0217927"><ele>402.0</ele><time>2026-03-29T09:36:12.079Z</time></trkpt><trkpt lat="42.9760031" lon="12.0217625"><ele>402.0</ele><time>2026-03-29T09:36:13.079Z</time></trkpt><trkpt lat="42.9759254" lon="12.0217205"><ele>402.0</ele><time>2026-03-29T09:36:14.079Z</time></trkpt><trkpt lat="42.9758473" lon="12.0216726"><ele>402.0</ele><time>2026-03-29T09:36:15.079Z</time></trkpt><trkpt lat="42.9757769" lon="12.0216242"><ele>402.0</ele><time>2026-03-29T09:36:16.079Z</time></trkpt><trkpt lat="42.9757114" lon="12.0215754"><ele>402.0</ele><time>2026-03-29T09:36:17.079Z</time></trkpt><trkpt lat="42.9756404" lon="12.0215445"><ele>402.0</ele><time>2026-03-29T09:36:18.078Z</time></trkpt><trkpt lat="42.9755635" lon="12.0215425"><ele>403.8333333333333</ele><time>2026-03-29T09:36:19.079Z</time></trkpt><trkpt lat="42.9754823" lon="12.0215284"><ele>405.66666666666663</ele><time>2026-03-29T09:36:20.079Z</time></trkpt><trkpt lat="42.9753998" lon="12.0214963"><ele>407.5</ele><time>2026-03-29T09:36:21.079Z</time></trkpt><trkpt lat="42.9753108" lon="12.0214441"><ele>409.3333333333333</ele><time>2026-03-29T09:36:22.079Z</time></trkpt><trkpt lat="42.9752295" lon="12.0214014"><ele>411.16666666666663</ele><time>2026-03-29T09:36:23.079Z</time></trkpt><trkpt lat="42.9751578" lon="12.0213673"><ele>413.0</ele><time>2026-03-29T09:36:24.078Z</time></trkpt><trkpt lat="42.9750702" lon="12.0212904"><ele>413.0</ele><time>2026-03-29T09:36:26.078Z</time></trkpt><trkpt lat="42.975091" lon="12.021199"><ele>413.0</ele><time>2026-03-29T09:36:30.079Z</time></trkpt><trkpt lat="42.9750083" lon="12.02122"><ele>413.0</ele><time>2026-03-29T09:37:02.079Z</time></trkpt><trkpt lat="42.9749183" lon="12.0211817"><ele>413.0</ele><time>2026-03-29T09:37:04.079Z</time></trkpt><trkpt lat="42.9748117" lon="12.02114"><ele>413.0</ele><time>2026-03-29T09:37:06.079Z</time></trkpt><trkpt lat="42.9747017" lon="12.0211067"><ele>414.3333333333333</ele><time>2026-03-29T09:37:08.079Z</time></trkpt><trkpt lat="42.974625" lon="12.021075"><ele>415.66666666666663</ele><time>2026-03-29T09:37:10.079Z</time></trkpt><trkpt lat="42.97454" lon="12.02105"><ele>417.0</ele><time>2026-03-29T09:37:12.079Z</time></trkpt><trkpt lat="42.9744783" lon="12.0209967"><ele>418.33333333333337</ele><time>2026-03-29T09:37:14.078Z</time></trkpt><trkpt lat="42.9744833" lon="12.02089"><ele>419.6666666666667</ele><time>2026-03-29T09:37:17.079Z</time></trkpt><trkpt lat="42.9745267" lon="12.0207383"><ele>421.0</ele><time>2026-03-29T09:37:19.079Z</time></trkpt><trkpt lat="42.9745433" lon="12.0206417"><ele>421.00000000000006</ele><time>2026-03-29T09:37:20.079Z</time></trkpt><trkpt lat="42.974565" lon="12.0205467"><ele>421.0</ele><time>2026-03-29T09:37:21.079Z</time></trkpt><trkpt lat="42.9745783" lon="12.0204467"><ele>421.0</ele><time>2026-03-29T09:37:22.079Z</time></trkpt><trkpt lat="42.9745883" lon="12.0203433"><ele>421.0</ele><time>2026-03-29T09:37:23.079Z</time></trkpt><trkpt lat="42.97459" lon="12.0202383"><ele>421.00000000000006</ele><time>2026-03-29T09:37:24.079Z</time></trkpt><trkpt lat="42.9745883" lon="12.0201167"><ele>421.0</ele><time>2026-03-29T09:37:25.079Z</time></trkpt><trkpt lat="42.9745883" lon="12.0199883"><ele>420.4</ele><time>2026-03-29T09:37:26.078Z</time></trkpt><trkpt lat="42.9745817" lon="12.0198583"><ele>419.8</ele><time>2026-03-29T09:37:27.078Z</time></trkpt><trkpt lat="42.9745733" lon="12.01973"><ele>419.2</ele><time>2026-03-29T09:37:28.079Z</time></trkpt><trkpt lat="42.97456" lon="12.019605"><ele>418.59999999999997</ele><time>2026-03-29T09:37:29.079Z</time></trkpt><trkpt lat="42.9745433" lon="12.0194717"><ele>418.0</ele><time>2026-03-29T09:37:30.079Z</time></trkpt><trkpt lat="42.974525" lon="12.0193367"><ele>418.0</ele><time>2026-03-29T09:37:31.079Z</time></trkpt><trkpt lat="42.9745083" lon="12.01919"><ele>418.0</ele><time>2026-03-29T09:37:32.079Z</time></trkpt><trkpt lat="42.9744933" lon="12.01904"><ele>418.0</ele><time>2026-03-29T09:37:33.079Z</time></trkpt><trkpt lat="42.9744783" lon="12.0188867"><ele>418.0</ele><time>2026-03-29T09:37:34.079Z</time></trkpt><trkpt lat="42.9744617" lon="12.01874"><ele>418.0</ele><time>2026-03-29T09:37:35.079Z</time></trkpt><trkpt lat="42.97444" lon="12.0185883"><ele>417.75</ele><time>2026-03-29T09:37:36.079Z</time></trkpt><trkpt lat="42.9744167" lon="12.01844"><ele>417.5</ele><time>2026-03-29T09:37:37.079Z</time></trkpt><trkpt lat="42.97439" lon="12.0182867"><ele>417.25</ele><time>2026-03-29T09:37:38.079Z</time></trkpt><trkpt lat="42.97436" lon="12.01814"><ele>417.0</ele><time>2026-03-29T09:37:39.078Z</time></trkpt><trkpt lat="42.9743317" lon="12.0179883"><ele>417.0</ele><time>2026-03-29T09:37:40.079Z</time></trkpt><trkpt lat="42.974305" lon="12.0178417"><ele>417.0</ele><time>2026-03-29T09:37:41.079Z</time></trkpt><trkpt lat="42.9742683" lon="12.0177"><ele>417.0</ele><time>2026-03-29T09:37:42.079Z</time></trkpt><trkpt lat="42.9742333" lon="12.0175667"><ele>417.0</ele><time>2026-03-29T09:37:43.078Z</time></trkpt><trkpt lat="42.9742017" lon="12.0174383"><ele>417.0</ele><time>2026-03-29T09:37:44.079Z</time></trkpt><trkpt lat="42.9741683" lon="12.0173333"><ele>420.6</ele><time>2026-03-29T09:37:45.079Z</time></trkpt><trkpt lat="42.9741317" lon="12.017225"><ele>424.20000000000005</ele><time>2026-03-29T09:37:46.079Z</time></trkpt><trkpt lat="42.974085" lon="12.0171317"><ele>427.8</ele><time>2026-03-29T09:37:47.078Z</time></trkpt><trkpt lat="42.97403" lon="12.017035"><ele>431.4</ele><time>2026-03-29T09:37:48.079Z</time></trkpt><trkpt lat="42.9739683" lon="12.0169417"><ele>435.0</ele><time>2026-03-29T09:37:49.078Z</time></trkpt><trkpt lat="42.9738933" lon="12.0168517"><ele>435.0</ele><time>2026-03-29T09:37:50.078Z</time></trkpt><trkpt lat="42.9738217" lon="12.0167383"><ele>435.0</ele><time>2026-03-29T09:37:51.079Z</time></trkpt><trkpt lat="42.9737433" lon="12.0166083"><ele>435.0</ele><time>2026-03-29T09:37:52.078Z</time></trkpt><trkpt lat="42.973675" lon="12.0164817"><ele>435.0</ele><time>2026-03-29T09:37:53.079Z</time></trkpt><trkpt lat="42.9736283" lon="12.0163683"><ele>435.0</ele><time>2026-03-29T09:37:54.079Z</time></trkpt><trkpt lat="42.9735917" lon="12.0162767"><ele>434.42857142857144</ele><time>2026-03-29T09:37:55.079Z</time></trkpt><trkpt lat="42.973565" lon="12.016185"><ele>433.8571428571429</ele><time>2026-03-29T09:37:56.079Z</time></trkpt><trkpt lat="42.9735533" lon="12.0160883"><ele>433.28571428571433</ele><time>2026-03-29T09:37:57.079Z</time></trkpt><trkpt lat="42.973555" lon="12.0160017"><ele>432.7142857142857</ele><time>2026-03-29T09:37:58.078Z</time></trkpt><trkpt lat="42.97357" lon="12.01591"><ele>432.1428571428571</ele><time>2026-03-29T09:37:59.079Z</time></trkpt><trkpt lat="42.9735883" lon="12.0158067"><ele>431.5714285714286</ele><time>2026-03-29T09:38:00.079Z</time></trkpt><trkpt lat="42.9736" lon="12.0157017"><ele>431.0</ele><time>2026-03-29T09:38:01.079Z</time></trkpt><trkpt lat="42.9735967" lon="12.0155833"><ele>430.0</ele><time>2026-03-29T09:38:02.079Z</time></trkpt><trkpt lat="42.973585" lon="12.0154533"><ele>429.0</ele><time>2026-03-29T09:38:03.079Z</time></trkpt><trkpt lat="42.9735667" lon="12.0153167"><ele>428.0</ele><time>2026-03-29T09:38:04.079Z</time></trkpt><trkpt lat="42.97355" lon="12.0151617"><ele>427.0</ele><time>2026-03-29T09:38:05.079Z</time></trkpt><trkpt lat="42.973535" lon="12.0150083"><ele>426.0</ele><time>2026-03-29T09:38:06.079Z</time></trkpt><trkpt lat="42.9735167" lon="12.0148533"><ele>425.4</ele><time>2026-03-29T09:38:07.079Z</time></trkpt><trkpt lat="42.973505" lon="12.0147083"><ele>424.8</ele><time>2026-03-29T09:38:08.079Z</time></trkpt><trkpt lat="42.9734867" lon="12.0145467"><ele>424.2</ele><time>2026-03-29T09:38:09.079Z</time></trkpt><trkpt lat="42.9734683" lon="12.0144017"><ele>423.59999999999997</ele><time>2026-03-29T09:38:10.079Z</time></trkpt><trkpt lat="42.9734467" lon="12.0142567"><ele>423.0</ele><time>2026-03-29T09:38:11.079Z</time></trkpt><trkpt lat="42.97343" lon="12.0141167"><ele>422.0</ele><time>2026-03-29T09:38:12.079Z</time></trkpt><trkpt lat="42.9734133" lon="12.0139883"><ele>421.0</ele><time>2026-03-29T09:38:13.079Z</time></trkpt><trkpt lat="42.973395" lon="12.013865"><ele>420.0</ele><time>2026-03-29T09:38:14.079Z</time></trkpt><trkpt lat="42.9733733" lon="12.013735"><ele>419.0</ele><time>2026-03-29T09:38:15.079Z</time></trkpt><trkpt lat="42.9733467" lon="12.0136133"><ele>418.0</ele><time>2026-03-29T09:38:16.079Z</time></trkpt><trkpt lat="42.973315" lon="12.01349"><ele>420.59999999999997</ele><time>2026-03-29T09:38:17.079Z</time></trkpt><trkpt lat="42.973285" lon="12.0133583"><ele>423.2</ele><time>2026-03-29T09:38:18.079Z</time></trkpt><trkpt lat="42.9732383" lon="12.0132283"><ele>425.8</ele><time>2026-03-29T09:38:19.079Z</time></trkpt><trkpt lat="42.9731933" lon="12.013095"><ele>428.4</ele><time>2026-03-29T09:38:20.078Z</time></trkpt><trkpt lat="42.9731567" lon="12.01295"><ele>431.0</ele><time>2026-03-29T09:38:21.079Z</time></trkpt><trkpt lat="42.97312" lon="12.01283"><ele>431.0</ele><time>2026-03-29T09:38:22.079Z</time></trkpt><trkpt lat="42.9730883" lon="12.0127033"><ele>431.0</ele><time>2026-03-29T09:38:23.079Z</time></trkpt><trkpt lat="42.9730367" lon="12.0126033"><ele>431.0</ele><time>2026-03-29T09:38:24.079Z</time></trkpt><trkpt lat="42.9729833" lon="12.0124917"><ele>431.0</ele><time>2026-03-29T09:38:25.079Z</time></trkpt><trkpt lat="42.97291" lon="12.01237"><ele>431.0</ele><time>2026-03-29T09:38:26.079Z</time></trkpt><trkpt lat="42.9728183" lon="12.0122567"><ele>428.75</ele><time>2026-03-29T09:38:27.079Z</time></trkpt><trkpt lat="42.9727217" lon="12.01214"><ele>426.5</ele><time>2026-03-29T09:38:28.079Z</time></trkpt><trkpt lat="42.97264" lon="12.0120233"><ele>424.25</ele><time>2026-03-29T09:38:29.079Z</time></trkpt><trkpt lat="42.9725733" lon="12.011915"><ele>422.0</ele><time>2026-03-29T09:38:30.078Z</time></trkpt><trkpt lat="42.9725083" lon="12.0118117"><ele>426.6</ele><time>2026-03-29T09:38:31.079Z</time></trkpt><trkpt lat="42.9724533" lon="12.01169"><ele>431.20000000000005</ele><time>2026-03-29T09:38:32.079Z</time></trkpt><trkpt lat="42.9723967" lon="12.0115783"><ele>435.8</ele><time>2026-03-29T09:38:33.079Z</time></trkpt><trkpt lat="42.9723417" lon="12.0114783"><ele>440.4</ele><time>2026-03-29T09:38:34.078Z</time></trkpt><trkpt lat="42.9722883" lon="12.0113833"><ele>445.0</ele><time>2026-03-29T09:38:35.079Z</time></trkpt><trkpt lat="42.9722333" lon="12.0112833"><ele>445.0</ele><time>2026-03-29T09:38:36.078Z</time></trkpt><trkpt lat="42.972185" lon="12.01118"><ele>445.0</ele><time>2026-03-29T09:38:37.079Z</time></trkpt><trkpt lat="42.9721583" lon="12.0110767"><ele>445.0</ele><time>2026-03-29T09:38:38.079Z</time></trkpt><trkpt lat="42.9721333" lon="12.0109667"><ele>445.0</ele><time>2026-03-29T09:38:39.079Z</time></trkpt><trkpt lat="42.972115" lon="12.0108383"><ele>445.0</ele><time>2026-03-29T09:38:40.079Z</time></trkpt><trkpt lat="42.9720983" lon="12.0107033"><ele>445.0</ele><time>2026-03-29T09:38:41.078Z</time></trkpt><trkpt lat="42.972085" lon="12.01057"><ele>445.0</ele><time>2026-03-29T09:38:42.079Z</time></trkpt><trkpt lat="42.9720717" lon="12.010435"><ele>445.0</ele><time>2026-03-29T09:38:43.079Z</time></trkpt><trkpt lat="42.972065" lon="12.010305"><ele>445.0</ele><time>2026-03-29T09:38:44.079Z</time></trkpt><trkpt lat="42.9720617" lon="12.0101683"><ele>445.0</ele><time>2026-03-29T09:38:45.079Z</time></trkpt><trkpt lat="42.9720633" lon="12.010025"><ele>443.4</ele><time>2026-03-29T09:38:46.079Z</time></trkpt><trkpt lat="42.9720633" lon="12.0098867"><ele>441.8</ele><time>2026-03-29T09:38:47.079Z</time></trkpt><trkpt lat="42.9720633" lon="12.0097583"><ele>440.20000000000005</ele><time>2026-03-29T09:38:48.078Z</time></trkpt><trkpt lat="42.9720567" lon="12.0096367"><ele>438.6</ele><time>2026-03-29T09:38:49.079Z</time></trkpt><trkpt lat="42.972045" lon="12.0095167"><ele>437.0</ele><time>2026-03-29T09:38:50.078Z</time></trkpt><trkpt lat="42.972015" lon="12.0093917"><ele>437.0</ele><time>2026-03-29T09:38:51.079Z</time></trkpt><trkpt lat="42.9719833" lon="12.0092617"><ele>437.00000000000006</ele><time>2026-03-29T09:38:52.079Z</time></trkpt><trkpt lat="42.9719383" lon="12.0091267"><ele>437.00000000000006</ele><time>2026-03-29T09:38:53.078Z</time></trkpt><trkpt lat="42.9718917" lon="12.0089933"><ele>437.0</ele><time>2026-03-29T09:38:54.079Z</time></trkpt><trkpt lat="42.9718367" lon="12.0088633"><ele>437.0</ele><time>2026-03-29T09:38:55.078Z</time></trkpt><trkpt lat="42.971785" lon="12.0087317"><ele>436.3333333333333</ele><time>2026-03-29T09:38:56.079Z</time></trkpt><trkpt lat="42.97173" lon="12.0086167"><ele>435.66666666666663</ele><time>2026-03-29T09:38:57.078Z</time></trkpt><trkpt lat="42.9716833" lon="12.0085017"><ele>435.0</ele><time>2026-03-29T09:38:58.079Z</time></trkpt><trkpt lat="42.9716383" lon="12.0083933"><ele>434.33333333333337</ele><time>2026-03-29T09:38:59.079Z</time></trkpt><trkpt lat="42.9716033" lon="12.0082983"><ele>433.6666666666667</ele><time>2026-03-29T09:39:00.079Z</time></trkpt><trkpt lat="42.9715767" lon="12.00821"><ele>433.0</ele><time>2026-03-29T09:39:01.079Z</time></trkpt><trkpt lat="42.9715583" lon="12.0081067"><ele>436.59999999999997</ele><time>2026-03-29T09:39:02.079Z</time></trkpt><trkpt lat="42.9715467" lon="12.0079933"><ele>440.19999999999993</ele><time>2026-03-29T09:39:03.078Z</time></trkpt><trkpt lat="42.971535" lon="12.0078633"><ele>443.8</ele><time>2026-03-29T09:39:04.078Z</time></trkpt><trkpt lat="42.9715283" lon="12.0077233"><ele>447.4</ele><time>2026-03-29T09:39:05.079Z</time></trkpt><trkpt lat="42.9715333" lon="12.007585"><ele>451.0</ele><time>2026-03-29T09:39:06.079Z</time></trkpt><trkpt lat="42.9715367" lon="12.0074417"><ele>451.0</ele><time>2026-03-29T09:39:07.079Z</time></trkpt><trkpt lat="42.97154" lon="12.0072933"><ele>451.0</ele><time>2026-03-29T09:39:08.078Z</time></trkpt><trkpt lat="42.9715517" lon="12.00714"><ele>451.0</ele><time>2026-03-29T09:39:09.079Z</time></trkpt><trkpt lat="42.9715483" lon="12.0069683"><ele>451.0</ele><time>2026-03-29T09:39:10.078Z</time></trkpt><trkpt lat="42.9715617" lon="12.0068"><ele>450.75</ele><time>2026-03-29T09:39:11.079Z</time></trkpt><trkpt lat="42.97158" lon="12.006645"><ele>450.5</ele><time>2026-03-29T09:39:12.078Z</time></trkpt><trkpt lat="42.9715867" lon="12.00649"><ele>450.25</ele><time>2026-03-29T09:39:13.078Z</time></trkpt><trkpt lat="42.97159" lon="12.00633"><ele>450.0</ele><time>2026-03-29T09:39:14.079Z</time></trkpt><trkpt lat="42.9715683" lon="12.0061767"><ele>450.0</ele><time>2026-03-29T09:39:15.079Z</time></trkpt><trkpt lat="42.9715483" lon="12.0060317"><ele>450.0</ele><time>2026-03-29T09:39:16.078Z</time></trkpt><trkpt lat="42.9715417" lon="12.0058967"><ele>450.0</ele><time>2026-03-29T09:39:17.079Z</time></trkpt><trkpt lat="42.9715483" lon="12.005755"><ele>450.0</ele><time>2026-03-29T09:39:18.079Z</time></trkpt><trkpt lat="42.9715633" lon="12.0056133"><ele>450.0</ele><time>2026-03-29T09:39:19.078Z</time></trkpt><trkpt lat="42.971575" lon="12.0054583"><ele>451.2</ele><time>2026-03-29T09:39:20.079Z</time></trkpt><trkpt lat="42.971585" lon="12.0053133"><ele>452.4</ele><time>2026-03-29T09:39:21.079Z</time></trkpt><trkpt lat="42.971585" lon="12.0051683"><ele>453.6</ele><time>2026-03-29T09:39:22.079Z</time></trkpt><trkpt lat="42.9715817" lon="12.005035"><ele>454.8</ele><time>2026-03-29T09:39:23.078Z</time></trkpt><trkpt lat="42.97159" lon="12.0049033"><ele>456.0</ele><time>2026-03-29T09:39:24.078Z</time></trkpt><trkpt lat="42.9715983" lon="12.0047683"><ele>457.0</ele><time>2026-03-29T09:39:25.079Z</time></trkpt><trkpt lat="42.971605" lon="12.0046417"><ele>458.0</ele><time>2026-03-29T09:39:26.079Z</time></trkpt><trkpt lat="42.9715967" lon="12.0045333"><ele>459.0</ele><time>2026-03-29T09:39:27.078Z</time></trkpt><trkpt lat="42.97158" lon="12.0044417"><ele>460.0</ele><time>2026-03-29T09:39:28.079Z</time></trkpt><trkpt lat="42.9715633" lon="12.00427"><ele>461.0</ele><time>2026-03-29T09:39:30.079Z</time></trkpt><trkpt lat="42.9715467" lon="12.0041833"><ele>462.0</ele><time>2026-03-29T09:39:31.079Z</time></trkpt><trkpt lat="42.9715183" lon="12.004105"><ele>462.57142857142856</ele><time>2026-03-29T09:39:32.079Z</time></trkpt><trkpt lat="42.9714767" lon="12.0040167"><ele>463.1428571428571</ele><time>2026-03-29T09:39:33.078Z</time></trkpt><trkpt lat="42.97143" lon="12.003935"><ele>463.7142857142857</ele><time>2026-03-29T09:39:34.079Z</time></trkpt><trkpt lat="42.9713967" lon="12.0038483"><ele>464.2857142857143</ele><time>2026-03-29T09:39:35.079Z</time></trkpt><trkpt lat="42.97137" lon="12.0037617"><ele>464.85714285714283</ele><time>2026-03-29T09:39:36.079Z</time></trkpt><trkpt lat="42.971355" lon="12.003665"><ele>465.42857142857144</ele><time>2026-03-29T09:39:37.078Z</time></trkpt><trkpt lat="42.971335" lon="12.0035583"><ele>466.0</ele><time>2026-03-29T09:39:38.078Z</time></trkpt><trkpt lat="42.9713267" lon="12.0034483"><ele>466.00000000000006</ele><time>2026-03-29T09:39:39.078Z</time></trkpt><trkpt lat="42.97132" lon="12.0033333"><ele>466.0</ele><time>2026-03-29T09:39:40.078Z</time></trkpt><trkpt lat="42.9713017" lon="12.0032167"><ele>466.0</ele><time>2026-03-29T09:39:41.079Z</time></trkpt><trkpt lat="42.971285" lon="12.0031067"><ele>466.0</ele><time>2026-03-29T09:39:42.079Z</time></trkpt><trkpt lat="42.9712483" lon="12.0029917"><ele>466.00000000000006</ele><time>2026-03-29T09:39:43.079Z</time></trkpt><trkpt lat="42.9712167" lon="12.0028617"><ele>466.0</ele><time>2026-03-29T09:39:44.078Z</time></trkpt><trkpt lat="42.9711917" lon="12.00272"><ele>466.8</ele><time>2026-03-29T09:39:45.079Z</time></trkpt><trkpt lat="42.9711583" lon="12.00259"><ele>467.6</ele><time>2026-03-29T09:39:46.079Z</time></trkpt><trkpt lat="42.971125" lon="12.0024467"><ele>468.4</ele><time>2026-03-29T09:39:47.078Z</time></trkpt><trkpt lat="42.971095" lon="12.002315"><ele>469.2</ele><time>2026-03-29T09:39:48.078Z</time></trkpt><trkpt lat="42.9710667" lon="12.002205"><ele>470.0</ele><time>2026-03-29T09:39:49.079Z</time></trkpt><trkpt lat="42.9710533" lon="12.0021083"><ele>469.99999999999994</ele><time>2026-03-29T09:39:50.079Z</time></trkpt><trkpt lat="42.97104" lon="12.0020217"><ele>470.0</ele><time>2026-03-29T09:39:51.079Z</time></trkpt><trkpt lat="42.971065" lon="12.001855"><ele>470.0</ele><time>2026-03-29T09:39:53.079Z</time></trkpt><trkpt lat="42.9710883" lon="12.0017583"><ele>470.0</ele><time>2026-03-29T09:39:54.079Z</time></trkpt><trkpt lat="42.9711067" lon="12.00166"><ele>469.99999999999994</ele><time>2026-03-29T09:39:55.078Z</time></trkpt><trkpt lat="42.9711317" lon="12.001555"><ele>470.0</ele><time>2026-03-29T09:39:56.079Z</time></trkpt><trkpt lat="42.971155" lon="12.001455"><ele>470.66666666666663</ele><time>2026-03-29T09:39:57.079Z</time></trkpt><trkpt lat="42.971175" lon="12.0013517"><ele>471.3333333333333</ele><time>2026-03-29T09:39:58.079Z</time></trkpt><trkpt lat="42.9712" lon="12.0012383"><ele>472.0</ele><time>2026-03-29T09:39:59.079Z</time></trkpt><trkpt lat="42.9712233" lon="12.0011383"><ele>472.66666666666663</ele><time>2026-03-29T09:40:00.079Z</time></trkpt><trkpt lat="42.971245" lon="12.0010417"><ele>473.3333333333333</ele><time>2026-03-29T09:40:01.079Z</time></trkpt><trkpt lat="42.97127" lon="12.0009417"><ele>474.0</ele><time>2026-03-29T09:40:02.079Z</time></trkpt><trkpt lat="42.9712917" lon="12.0008433"><ele>472.6666666666667</ele><time>2026-03-29T09:40:03.079Z</time></trkpt><trkpt lat="42.9713083" lon="12.0007567"><ele>471.33333333333337</ele><time>2026-03-29T09:40:04.079Z</time></trkpt><trkpt lat="42.9713367" lon="12.0006717"><ele>470.0</ele><time>2026-03-29T09:40:05.079Z</time></trkpt><trkpt lat="42.9713667" lon="12.0005283"><ele>468.6666666666667</ele><time>2026-03-29T09:40:07.079Z</time></trkpt><trkpt lat="42.9713417" lon="12.00044"><ele>467.33333333333337</ele><time>2026-03-29T09:40:09.079Z</time></trkpt><trkpt lat="42.971255" lon="12.0003367"><ele>466.0</ele><time>2026-03-29T09:40:11.079Z</time></trkpt><trkpt lat="42.9711967" lon="12.00027"><ele>466.0</ele><time>2026-03-29T09:40:12.078Z</time></trkpt><trkpt lat="42.97112" lon="12.0001917"><ele>466.0</ele><time>2026-03-29T09:40:13.079Z</time></trkpt><trkpt lat="42.9710433" lon="12.000115"><ele>466.0</ele><time>2026-03-29T09:40:14.079Z</time></trkpt><trkpt lat="42.9709717" lon="12.0000383"><ele>466.0</ele><time>2026-03-29T09:40:15.079Z</time></trkpt><trkpt lat="42.9709133" lon="11.9999783"><ele>466.0</ele><time>2026-03-29T09:40:16.078Z</time></trkpt><trkpt lat="42.9708333" lon="11.9999"><ele>466.0</ele><time>2026-03-29T09:40:18.079Z</time></trkpt><trkpt lat="42.9707283" lon="11.99984"><ele>466.0</ele><time>2026-03-29T09:40:20.078Z</time></trkpt><trkpt lat="42.9706517" lon="11.9998167"><ele>466.0</ele><time>2026-03-29T09:40:21.079Z</time></trkpt><trkpt lat="42.9705583" lon="11.999785"><ele>466.0</ele><time>2026-03-29T09:40:22.078Z</time></trkpt><trkpt lat="42.9704633" lon="11.9997483"><ele>466.0</ele><time>2026-03-29T09:40:23.078Z</time></trkpt><trkpt lat="42.970365" lon="11.999705"><ele>466.0</ele><time>2026-03-29T09:40:24.079Z</time></trkpt><trkpt lat="42.9702717" lon="11.9996583"><ele>466.0</ele><time>2026-03-29T09:40:25.079Z</time></trkpt><trkpt lat="42.9701733" lon="11.9996117"><ele>466.0</ele><time>2026-03-29T09:40:26.079Z</time></trkpt><trkpt lat="42.9700817" lon="11.999545"><ele>466.0</ele><time>2026-03-29T09:40:27.079Z</time></trkpt><trkpt lat="42.969985" lon="11.9994683"><ele>466.0</ele><time>2026-03-29T09:40:28.079Z</time></trkpt><trkpt lat="42.969895" lon="11.9993867"><ele>466.25</ele><time>2026-03-29T09:40:29.079Z</time></trkpt><trkpt lat="42.9698067" lon="11.999295"><ele>466.5</ele><time>2026-03-29T09:40:30.079Z</time></trkpt><trkpt lat="42.9697117" lon="11.9991883"><ele>466.75</ele><time>2026-03-29T09:40:31.079Z</time></trkpt><trkpt lat="42.969615" lon="11.9990833"><ele>467.0</ele><time>2026-03-29T09:40:32.078Z</time></trkpt><trkpt lat="42.9695133" lon="11.99898"><ele>467.0</ele><time>2026-03-29T09:40:33.079Z</time></trkpt><trkpt lat="42.969415" lon="11.9988667"><ele>467.0</ele><time>2026-03-29T09:40:34.078Z</time></trkpt><trkpt lat="42.9693033" lon="11.9987767"><ele>467.0</ele><time>2026-03-29T09:40:35.079Z</time></trkpt><trkpt lat="42.9692033" lon="11.9987033"><ele>467.0</ele><time>2026-03-29T09:40:36.079Z</time></trkpt><trkpt lat="42.9690983" lon="11.9986283"><ele>466.0</ele><time>2026-03-29T09:40:37.079Z</time></trkpt><trkpt lat="42.9689833" lon="11.998575"><ele>465.0</ele><time>2026-03-29T09:40:38.079Z</time></trkpt><trkpt lat="42.96887" lon="11.9985283"><ele>464.0</ele><time>2026-03-29T09:40:39.08Z</time></trkpt><trkpt lat="42.9687517" lon="11.9984867"><ele>463.0</ele><time>2026-03-29T09:40:40.079Z</time></trkpt><trkpt lat="42.9686333" lon="11.998445"><ele>463.0</ele><time>2026-03-29T09:40:41.079Z</time></trkpt><trkpt lat="42.9685183" lon="11.9984083"><ele>463.0</ele><time>2026-03-29T09:40:42.079Z</time></trkpt><trkpt lat="42.9683983" lon="11.99838"><ele>463.0</ele><time>2026-03-29T09:40:43.08Z</time></trkpt><trkpt lat="42.968275" lon="11.9983467"><ele>463.0</ele><time>2026-03-29T09:40:44.08Z</time></trkpt><trkpt lat="42.9681617" lon="11.9982933"><ele>465.0</ele><time>2026-03-29T09:40:45.079Z</time></trkpt><trkpt lat="42.9680333" lon="11.9982567"><ele>467.0</ele><time>2026-03-29T09:40:46.079Z</time></trkpt><trkpt lat="42.9679067" lon="11.99822"><ele>469.0</ele><time>2026-03-29T09:40:47.079Z</time></trkpt><trkpt lat="42.96778" lon="11.9981817"><ele>471.0</ele><time>2026-03-29T09:40:48.08Z</time></trkpt><trkpt lat="42.9676583" lon="11.998135"><ele>471.0</ele><time>2026-03-29T09:40:49.08Z</time></trkpt><trkpt lat="42.9675283" lon="11.9980967"><ele>471.0</ele><time>2026-03-29T09:40:50.08Z</time></trkpt><trkpt lat="42.9674017" lon="11.998075"><ele>471.0</ele><time>2026-03-29T09:40:51.08Z</time></trkpt><trkpt lat="42.9672733" lon="11.9980517"><ele>471.0</ele><time>2026-03-29T09:40:52.079Z</time></trkpt><trkpt lat="42.9671417" lon="11.9980267"><ele>471.5</ele><time>2026-03-29T09:40:53.079Z</time></trkpt><trkpt lat="42.9669983" lon="11.9979983"><ele>472.0</ele><time>2026-03-29T09:40:54.08Z</time></trkpt><trkpt lat="42.96686" lon="11.99797"><ele>472.5</ele><time>2026-03-29T09:40:55.08Z</time></trkpt><trkpt lat="42.9667267" lon="11.9979417"><ele>473.0</ele><time>2026-03-29T09:40:56.079Z</time></trkpt><trkpt lat="42.96659" lon="11.9979117"><ele>474.75</ele><time>2026-03-29T09:40:57.08Z</time></trkpt><trkpt lat="42.9664617" lon="11.9978867"><ele>476.5</ele><time>2026-03-29T09:40:58.079Z</time></trkpt><trkpt lat="42.9663283" lon="11.9978767"><ele>478.25</ele><time>2026-03-29T09:40:59.08Z</time></trkpt><trkpt lat="42.9661917" lon="11.997885"><ele>480.0</ele><time>2026-03-29T09:41:00.08Z</time></trkpt><trkpt lat="42.96605" lon="11.9979117"><ele>480.0</ele><time>2026-03-29T09:41:01.08Z</time></trkpt><trkpt lat="42.965915" lon="11.9979467"><ele>480.0</ele><time>2026-03-29T09:41:02.08Z</time></trkpt><trkpt lat="42.9657817" lon="11.9979833"><ele>480.0</ele><time>2026-03-29T09:41:03.08Z</time></trkpt><trkpt lat="42.965655" lon="11.998025"><ele>480.0</ele><time>2026-03-29T09:41:04.08Z</time></trkpt><trkpt lat="42.9655333" lon="11.99808"><ele>480.75</ele><time>2026-03-29T09:41:05.08Z</time></trkpt><trkpt lat="42.9654167" lon="11.998135"><ele>481.5</ele><time>2026-03-29T09:41:06.08Z</time></trkpt><trkpt lat="42.9653133" lon="11.9981817"><ele>482.25</ele><time>2026-03-29T09:41:07.079Z</time></trkpt><trkpt lat="42.9652033" lon="11.9982267"><ele>483.0</ele><time>2026-03-29T09:41:08.08Z</time></trkpt><trkpt lat="42.965095" lon="11.998275"><ele>482.0</ele><time>2026-03-29T09:41:09.079Z</time></trkpt><trkpt lat="42.9649867" lon="11.9983083"><ele>481.0</ele><time>2026-03-29T09:41:10.08Z</time></trkpt><trkpt lat="42.96488" lon="11.99832"><ele>480.0</ele><time>2026-03-29T09:41:11.08Z</time></trkpt><trkpt lat="42.9647633" lon="11.9983133"><ele>479.0</ele><time>2026-03-29T09:41:12.08Z</time></trkpt><trkpt lat="42.9646467" lon="11.9982817"><ele>479.0</ele><time>2026-03-29T09:41:13.08Z</time></trkpt><trkpt lat="42.9645417" lon="11.9982533"><ele>479.0</ele><time>2026-03-29T09:41:14.08Z</time></trkpt><trkpt lat="42.96444" lon="11.9982267"><ele>479.0</ele><time>2026-03-29T09:41:15.08Z</time></trkpt><trkpt lat="42.9643517" lon="11.9981983"><ele>479.0</ele><time>2026-03-29T09:41:16.08Z</time></trkpt><trkpt lat="42.9642633" lon="11.998155"><ele>479.0</ele><time>2026-03-29T09:41:17.08Z</time></trkpt><trkpt lat="42.964185" lon="11.99813"><ele>479.16666666666663</ele><time>2026-03-29T09:41:18.079Z</time></trkpt><trkpt lat="42.9641083" lon="11.998095"><ele>479.3333333333333</ele><time>2026-03-29T09:41:19.08Z</time></trkpt><trkpt lat="42.9640217" lon="11.9980667"><ele>479.5</ele><time>2026-03-29T09:41:20.08Z</time></trkpt><trkpt lat="42.9639367" lon="11.9980333"><ele>479.66666666666663</ele><time>2026-03-29T09:41:21.079Z</time></trkpt><trkpt lat="42.96385" lon="11.997995"><ele>479.8333333333333</ele><time>2026-03-29T09:41:22.08Z</time></trkpt><trkpt lat="42.9637617" lon="11.997955"><ele>480.0</ele><time>2026-03-29T09:41:23.08Z</time></trkpt><trkpt lat="42.96367" lon="11.9979183"><ele>480.0</ele><time>2026-03-29T09:41:24.08Z</time></trkpt><trkpt lat="42.96358" lon="11.99788"><ele>480.0</ele><time>2026-03-29T09:41:25.079Z</time></trkpt><trkpt lat="42.9634867" lon="11.9978317"><ele>480.0</ele><time>2026-03-29T09:41:26.079Z</time></trkpt><trkpt lat="42.9633917" lon="11.997785"><ele>480.0</ele><time>2026-03-29T09:41:27.08Z</time></trkpt><trkpt lat="42.9632917" lon="11.99774"><ele>480.0</ele><time>2026-03-29T09:41:28.08Z</time></trkpt><trkpt lat="42.9631883" lon="11.9976933"><ele>479.8</ele><time>2026-03-29T09:41:29.08Z</time></trkpt><trkpt lat="42.9630833" lon="11.99765"><ele>479.6</ele><time>2026-03-29T09:41:30.079Z</time></trkpt><trkpt lat="42.9629767" lon="11.9975983"><ele>479.4</ele><time>2026-03-29T09:41:31.08Z</time></trkpt><trkpt lat="42.9628717" lon="11.997545"><ele>479.2</ele><time>2026-03-29T09:41:32.08Z</time></trkpt><trkpt lat="42.9627683" lon="11.9974967"><ele>479.0</ele><time>2026-03-29T09:41:33.08Z</time></trkpt><trkpt lat="42.9626867" lon="11.9974567"><ele>485.0</ele><time>2026-03-29T09:41:34.079Z</time></trkpt><trkpt lat="42.96262" lon="11.997425"><ele>485.0</ele><time>2026-03-29T09:41:35.08Z</time></trkpt><trkpt lat="42.9625383" lon="11.9974033"><ele>485.0</ele><time>2026-03-29T09:41:37.08Z</time></trkpt><trkpt lat="42.9624967" lon="11.9974967"><ele>480.0</ele><time>2026-03-29T09:41:40.08Z</time></trkpt><trkpt lat="42.96244" lon="11.9975517"><ele>474.0</ele><time>2026-03-29T09:41:43.08Z</time></trkpt><trkpt lat="42.9623633" lon="11.9975367"><ele>474.0</ele><time>2026-03-29T09:41:46.079Z</time></trkpt><trkpt lat="42.9622983" lon="11.9975283"><ele>474.0</ele><time>2026-03-29T09:41:49.08Z</time></trkpt></trkseg><trkseg><trkpt lat="42.9623517" lon="11.9975783"><ele>474.0</ele><time>2026-03-29T09:59:05.07Z</time></trkpt><trkpt lat="42.9624583" lon="11.9976083"><ele>474.0</ele><time>2026-03-29T09:59:08.07Z</time></trkpt><trkpt lat="42.9625217" lon="11.997545"><ele>474.0</ele><time>2026-03-29T09:59:10.07Z</time></trkpt><trkpt lat="42.9625667" lon="11.9974833"><ele>474.0</ele><time>2026-03-29T09:59:14.07Z</time></trkpt><trkpt lat="42.9625083" lon="11.99739"><ele>474.0</ele><time>2026-03-29T09:59:16.07Z</time></trkpt><trkpt lat="42.9623883" lon="11.99733"><ele>475.0</ele><time>2026-03-29T09:59:18.07Z</time></trkpt><trkpt lat="42.9623117" lon="11.9973083"><ele>476.0</ele><time>2026-03-29T09:59:19.07Z</time></trkpt><trkpt lat="42.962235" lon="11.9972783"><ele>477.0</ele><time>2026-03-29T09:59:20.07Z</time></trkpt><trkpt lat="42.962155" lon="11.9972417"><ele>478.0</ele><time>2026-03-29T09:59:21.07Z</time></trkpt><trkpt lat="42.96207" lon="11.9972017"><ele>479.0</ele><time>2026-03-29T09:59:22.07Z</time></trkpt><trkpt lat="42.961985" lon="11.9971633"><ele>480.0</ele><time>2026-03-29T09:59:23.069Z</time></trkpt><trkpt lat="42.96191" lon="11.9971367"><ele>480.0</ele><time>2026-03-29T09:59:24.07Z</time></trkpt><trkpt lat="42.9618433" lon="11.9971"><ele>480.0</ele><time>2026-03-29T09:59:25.07Z</time></trkpt><trkpt lat="42.9617817" lon="11.9970633"><ele>480.0</ele><time>2026-03-29T09:59:26.069Z</time></trkpt><trkpt lat="42.9616767" lon="11.9970033"><ele>480.0</ele><time>2026-03-29T09:59:28.07Z</time></trkpt><trkpt lat="42.9615583" lon="11.9970017"><ele>480.0</ele><time>2026-03-29T09:59:39.07Z</time></trkpt><trkpt lat="42.96146" lon="11.9971333"><ele>480.2</ele><time>2026-03-29T09:59:41.069Z</time></trkpt><trkpt lat="42.9613933" lon="11.9972317"><ele>480.4</ele><time>2026-03-29T09:59:42.07Z</time></trkpt><trkpt lat="42.9613283" lon="11.9973333"><ele>480.6</ele><time>2026-03-29T09:59:43.069Z</time></trkpt><trkpt lat="42.9612717" lon="11.997435"><ele>480.8</ele><time>2026-03-29T09:59:44.07Z</time></trkpt><trkpt lat="42.9612083" lon="11.9975417"><ele>481.0</ele><time>2026-03-29T09:59:45.069Z</time></trkpt><trkpt lat="42.9611433" lon="11.9976417"><ele>480.0</ele><time>2026-03-29T09:59:46.07Z</time></trkpt><trkpt lat="42.9610733" lon="11.9977533"><ele>479.0</ele><time>2026-03-29T09:59:47.07Z</time></trkpt><trkpt lat="42.9610017" lon="11.997875"><ele>478.0</ele><time>2026-03-29T09:59:48.07Z</time></trkpt><trkpt lat="42.9609283" lon="11.998"><ele>477.0</ele><time>2026-03-29T09:59:49.07Z</time></trkpt><trkpt lat="42.960865" lon="11.998125"><ele>478.40000000000003</ele><time>2026-03-29T09:59:50.069Z</time></trkpt><trkpt lat="42.9608017" lon="11.9982567"><ele>479.80000000000007</ele><time>2026-03-29T09:59:51.07Z</time></trkpt><trkpt lat="42.9607367" lon="11.9983867"><ele>481.2</ele><time>2026-03-29T09:59:52.069Z</time></trkpt><trkpt lat="42.96068" lon="11.9985"><ele>482.6</ele><time>2026-03-29T09:59:53.069Z</time></trkpt><trkpt lat="42.9606233" lon="11.9986117"><ele>484.0</ele><time>2026-03-29T09:59:54.07Z</time></trkpt><trkpt lat="42.9605583" lon="11.9987267"><ele>484.0</ele><time>2026-03-29T09:59:55.07Z</time></trkpt><trkpt lat="42.9604917" lon="11.9988383"><ele>484.0</ele><time>2026-03-29T09:59:56.07Z</time></trkpt><trkpt lat="42.96042" lon="11.99895"><ele>484.0</ele><time>2026-03-29T09:59:57.069Z</time></trkpt><trkpt lat="42.96035" lon="11.9990667"><ele>484.0</ele><time>2026-03-29T09:59:58.07Z</time></trkpt><trkpt lat="42.9602783" lon="11.9991767"><ele>484.0</ele><time>2026-03-29T09:59:59.069Z</time></trkpt><trkpt lat="42.9602" lon="11.9992883"><ele>485.25</ele><time>2026-03-29T10:00:00.07Z</time></trkpt><trkpt lat="42.9601217" lon="11.9994133"><ele>486.5</ele><time>2026-03-29T10:00:01.07Z</time></trkpt><trkpt lat="42.960045" lon="11.9995283"><ele>487.75</ele><time>2026-03-29T10:00:02.07Z</time></trkpt><trkpt lat="42.9599667" lon="11.9996567"><ele>489.0</ele><time>2026-03-29T10:00:03.07Z</time></trkpt><trkpt lat="42.959885" lon="11.9997717"><ele>489.25</ele><time>2026-03-29T10:00:04.07Z</time></trkpt><trkpt lat="42.9598033" lon="11.999885"><ele>489.5</ele><time>2026-03-29T10:00:05.069Z</time></trkpt><trkpt lat="42.9597183" lon="12.000005"><ele>489.75</ele><time>2026-03-29T10:00:06.07Z</time></trkpt><trkpt lat="42.9596317" lon="12.0001233"><ele>490.0</ele><time>2026-03-29T10:00:07.07Z</time></trkpt><trkpt lat="42.9595483" lon="12.0002383"><ele>490.0</ele><time>2026-03-29T10:00:08.07Z</time></trkpt><trkpt lat="42.9594633" lon="12.000345"><ele>490.0</ele><time>2026-03-29T10:00:09.07Z</time></trkpt><trkpt lat="42.9593833" lon="12.0004533"><ele>490.0</ele><time>2026-03-29T10:00:10.07Z</time></trkpt><trkpt lat="42.9593117" lon="12.000555"><ele>490.0</ele><time>2026-03-29T10:00:11.07Z</time></trkpt><trkpt lat="42.9592267" lon="12.000655"><ele>490.0</ele><time>2026-03-29T10:00:12.07Z</time></trkpt><trkpt lat="42.959125" lon="12.0007533"><ele>490.25</ele><time>2026-03-29T10:00:13.07Z</time></trkpt><trkpt lat="42.9590133" lon="12.0008317"><ele>490.5</ele><time>2026-03-29T10:00:14.069Z</time></trkpt><trkpt lat="42.958905" lon="12.0009083"><ele>490.75</ele><time>2026-03-29T10:00:15.069Z</time></trkpt><trkpt lat="42.9587933" lon="12.0009617"><ele>491.0</ele><time>2026-03-29T10:00:16.069Z</time></trkpt><trkpt lat="42.9586817" lon="12.0010067"><ele>489.0</ele><time>2026-03-29T10:00:17.069Z</time></trkpt><trkpt lat="42.9585617" lon="12.0010483"><ele>487.0</ele><time>2026-03-29T10:00:18.07Z</time></trkpt><trkpt lat="42.9584383" lon="12.0010833"><ele>485.0</ele><time>2026-03-29T10:00:19.07Z</time></trkpt><trkpt lat="42.9583133" lon="12.0011067"><ele>483.0</ele><time>2026-03-29T10:00:20.07Z</time></trkpt><trkpt lat="42.9581867" lon="12.0011183"><ele>483.0</ele><time>2026-03-29T10:00:21.07Z</time></trkpt><trkpt lat="42.958065" lon="12.0011417"><ele>483.0</ele><time>2026-03-29T10:00:22.07Z</time></trkpt><trkpt lat="42.9579367" lon="12.00117"><ele>483.0</ele><time>2026-03-29T10:00:23.069Z</time></trkpt><trkpt lat="42.95782" lon="12.001205"><ele>483.0</ele><time>2026-03-29T10:00:24.069Z</time></trkpt><trkpt lat="42.9577117" lon="12.0012517"><ele>483.0</ele><time>2026-03-29T10:00:25.069Z</time></trkpt><trkpt lat="42.957605" lon="12.0013083"><ele>483.0</ele><time>2026-03-29T10:00:26.069Z</time></trkpt><trkpt lat="42.9575" lon="12.0013767"><ele>483.0</ele><time>2026-03-29T10:00:27.07Z</time></trkpt><trkpt lat="42.9574017" lon="12.001465"><ele>483.0</ele><time>2026-03-29T10:00:28.07Z</time></trkpt><trkpt lat="42.9573117" lon="12.0015483"><ele>482.59999999999997</ele><time>2026-03-29T10:00:29.07Z</time></trkpt><trkpt lat="42.9572233" lon="12.0016333"><ele>482.19999999999993</ele><time>2026-03-29T10:00:30.07Z</time></trkpt><trkpt lat="42.9571333" lon="12.0017317"><ele>481.8</ele><time>2026-03-29T10:00:31.07Z</time></trkpt><trkpt lat="42.957045" lon="12.0018333"><ele>481.4</ele><time>2026-03-29T10:00:32.07Z</time></trkpt><trkpt lat="42.95697" lon="12.001925"><ele>481.0</ele><time>2026-03-29T10:00:33.069Z</time></trkpt><trkpt lat="42.9569017" lon="12.0019917"><ele>481.00000000000006</ele><time>2026-03-29T10:00:34.07Z</time></trkpt><trkpt lat="42.9568417" lon="12.00204"><ele>481.0</ele><time>2026-03-29T10:00:35.07Z</time></trkpt><trkpt lat="42.956735" lon="12.00205"><ele>481.0</ele><time>2026-03-29T10:00:37.07Z</time></trkpt><trkpt lat="42.9566717" lon="12.0020333"><ele>481.0</ele><time>2026-03-29T10:00:38.07Z</time></trkpt><trkpt lat="42.9565433" lon="12.002005"><ele>481.00000000000006</ele><time>2026-03-29T10:00:40.07Z</time></trkpt><trkpt lat="42.9564767" lon="12.0019517"><ele>481.0</ele><time>2026-03-29T10:00:41.07Z</time></trkpt><trkpt lat="42.956415" lon="12.00187"><ele>481.50000000000006</ele><time>2026-03-29T10:00:42.07Z</time></trkpt><trkpt lat="42.9563367" lon="12.001785"><ele>482.0</ele><time>2026-03-29T10:00:43.069Z</time></trkpt><trkpt lat="42.9562667" lon="12.0017067"><ele>482.5</ele><time>2026-03-29T10:00:44.07Z</time></trkpt><trkpt lat="42.9562" lon="12.00166"><ele>483.0</ele><time>2026-03-29T10:00:45.069Z</time></trkpt><trkpt lat="42.9561217" lon="12.00164"><ele>483.50000000000006</ele><time>2026-03-29T10:00:46.069Z</time></trkpt><trkpt lat="42.956045" lon="12.0016383"><ele>484.0</ele><time>2026-03-29T10:00:47.07Z</time></trkpt><trkpt lat="42.955945" lon="12.001695"><ele>485.0</ele><time>2026-03-29T10:00:48.07Z</time></trkpt><trkpt lat="42.9558433" lon="12.0017933"><ele>486.0</ele><time>2026-03-29T10:00:49.07Z</time></trkpt><trkpt lat="42.955745" lon="12.0018967"><ele>487.0</ele><time>2026-03-29T10:00:50.069Z</time></trkpt><trkpt lat="42.9556533" lon="12.002"><ele>488.0</ele><time>2026-03-29T10:00:51.069Z</time></trkpt><trkpt lat="42.9555683" lon="12.0021067"><ele>488.0</ele><time>2026-03-29T10:00:52.07Z</time></trkpt><trkpt lat="42.9554783" lon="12.0022233"><ele>488.0</ele><time>2026-03-29T10:00:53.069Z</time></trkpt><trkpt lat="42.955395" lon="12.0023533"><ele>488.0</ele><time>2026-03-29T10:00:54.07Z</time></trkpt><trkpt lat="42.955305" lon="12.0024717"><ele>488.0</ele><time>2026-03-29T10:00:55.07Z</time></trkpt><trkpt lat="42.955215" lon="12.0025883"><ele>486.25</ele><time>2026-03-29T10:00:56.069Z</time></trkpt><trkpt lat="42.955125" lon="12.0027083"><ele>484.5</ele><time>2026-03-29T10:00:57.069Z</time></trkpt><trkpt lat="42.9550383" lon="12.0028317"><ele>482.75</ele><time>2026-03-29T10:00:58.07Z</time></trkpt><trkpt lat="42.9549533" lon="12.0029567"><ele>481.0</ele><time>2026-03-29T10:00:59.069Z</time></trkpt><trkpt lat="42.9548633" lon="12.0030617"><ele>481.0</ele><time>2026-03-29T10:01:00.069Z</time></trkpt><trkpt lat="42.95478" lon="12.0031517"><ele>481.0</ele><time>2026-03-29T10:01:01.069Z</time></trkpt><trkpt lat="42.9546883" lon="12.0032117"><ele>481.0</ele><time>2026-03-29T10:01:02.07Z</time></trkpt><trkpt lat="42.9545767" lon="12.00322"><ele>481.0</ele><time>2026-03-29T10:01:03.069Z</time></trkpt><trkpt lat="42.9544783" lon="12.0031867"><ele>481.0</ele><time>2026-03-29T10:01:04.07Z</time></trkpt><trkpt lat="42.95438" lon="12.003135"><ele>481.0</ele><time>2026-03-29T10:01:05.069Z</time></trkpt><trkpt lat="42.9542817" lon="12.0030767"><ele>481.0</ele><time>2026-03-29T10:01:06.07Z</time></trkpt><trkpt lat="42.9541567" lon="12.0030233"><ele>481.0</ele><time>2026-03-29T10:01:07.07Z</time></trkpt><trkpt lat="42.95402" lon="12.0030033"><ele>481.0</ele><time>2026-03-29T10:01:08.07Z</time></trkpt><trkpt lat="42.9538817" lon="12.003"><ele>479.75</ele><time>2026-03-29T10:01:09.07Z</time></trkpt><trkpt lat="42.95374" lon="12.0030117"><ele>478.5</ele><time>2026-03-29T10:01:10.07Z</time></trkpt><trkpt lat="42.9536033" lon="12.003025"><ele>477.25</ele><time>2026-03-29T10:01:11.07Z</time></trkpt><trkpt lat="42.9534517" lon="12.0030533"><ele>476.0</ele><time>2026-03-29T10:01:12.069Z</time></trkpt><trkpt lat="42.953335" lon="12.0030367"><ele>476.0</ele><time>2026-03-29T10:01:13.07Z</time></trkpt><trkpt lat="42.9532317" lon="12.002965"><ele>476.0</ele><time>2026-03-29T10:01:14.07Z</time></trkpt><trkpt lat="42.9531117" lon="12.0029233"><ele>476.0</ele><time>2026-03-29T10:01:15.07Z</time></trkpt><trkpt lat="42.9530033" lon="12.0028483"><ele>476.0</ele><time>2026-03-29T10:01:16.07Z</time></trkpt><trkpt lat="42.9528917" lon="12.0027817"><ele>476.0</ele><time>2026-03-29T10:01:17.07Z</time></trkpt><trkpt lat="42.9527967" lon="12.00268"><ele>476.0</ele><time>2026-03-29T10:01:18.069Z</time></trkpt><trkpt lat="42.9527133" lon="12.002565"><ele>476.0</ele><time>2026-03-29T10:01:19.07Z</time></trkpt><trkpt lat="42.9526483" lon="12.0024133"><ele>476.0</ele><time>2026-03-29T10:01:20.069Z</time></trkpt><trkpt lat="42.95261" lon="12.0022383"><ele>474.0</ele><time>2026-03-29T10:01:21.069Z</time></trkpt><trkpt lat="42.9525833" lon="12.00207"><ele>472.0</ele><time>2026-03-29T10:01:22.07Z</time></trkpt><trkpt lat="42.9525617" lon="12.001915"><ele>470.0</ele><time>2026-03-29T10:01:23.07Z</time></trkpt><trkpt lat="42.9525333" lon="12.0017667"><ele>468.0</ele><time>2026-03-29T10:01:24.069Z</time></trkpt><trkpt lat="42.9524933" lon="12.0016383"><ele>468.0</ele><time>2026-03-29T10:01:25.07Z</time></trkpt><trkpt lat="42.95243" lon="12.0015233"><ele>467.99999999999994</ele><time>2026-03-29T10:01:26.069Z</time></trkpt><trkpt lat="42.952355" lon="12.0014367"><ele>467.99999999999994</ele><time>2026-03-29T10:01:27.07Z</time></trkpt><trkpt lat="42.9522633" lon="12.00135"><ele>468.0</ele><time>2026-03-29T10:01:28.069Z</time></trkpt><trkpt lat="42.9521633" lon="12.0012683"><ele>468.0</ele><time>2026-03-29T10:01:29.069Z</time></trkpt><trkpt lat="42.95206" lon="12.0011933"><ele>468.0</ele><time>2026-03-29T10:01:30.07Z</time></trkpt><trkpt lat="42.95197" lon="12.00113"><ele>467.99999999999994</ele><time>2026-03-29T10:01:31.07Z</time></trkpt><trkpt lat="42.95187" lon="12.0010667"><ele>467.99999999999994</ele><time>2026-03-29T10:01:32.069Z</time></trkpt><trkpt lat="42.951765" lon="12.0010183"><ele>468.0</ele><time>2026-03-29T10:01:33.07Z</time></trkpt><trkpt lat="42.95167" lon="12.0009683"><ele>468.0</ele><time>2026-03-29T10:01:34.07Z</time></trkpt><trkpt lat="42.9515733" lon="12.0009333"><ele>470.3333333333333</ele><time>2026-03-29T10:01:35.07Z</time></trkpt><trkpt lat="42.9514867" lon="12.0008983"><ele>472.66666666666663</ele><time>2026-03-29T10:01:36.069Z</time></trkpt><trkpt lat="42.9514083" lon="12.000865"><ele>475.0</ele><time>2026-03-29T10:01:37.07Z</time></trkpt><trkpt lat="42.95134" lon="12.0008517"><ele>477.3333333333333</ele><time>2026-03-29T10:01:38.07Z</time></trkpt><trkpt lat="42.9512533" lon="12.0008967"><ele>479.66666666666663</ele><time>2026-03-29T10:01:40.069Z</time></trkpt><trkpt lat="42.9512317" lon="12.00099"><ele>482.0</ele><time>2026-03-29T10:01:41.069Z</time></trkpt><trkpt lat="42.9512217" lon="12.00109"><ele>482.0</ele><time>2026-03-29T10:01:42.07Z</time></trkpt><trkpt lat="42.9512233" lon="12.0012183"><ele>482.00000000000006</ele><time>2026-03-29T10:01:43.07Z</time></trkpt><trkpt lat="42.9512267" lon="12.001355"><ele>482.00000000000006</ele><time>2026-03-29T10:01:44.069Z</time></trkpt><trkpt lat="42.9512133" lon="12.001495"><ele>482.0</ele><time>2026-03-29T10:01:45.069Z</time></trkpt><trkpt lat="42.9512067" lon="12.0016317"><ele>482.0</ele><time>2026-03-29T10:01:46.07Z</time></trkpt><trkpt lat="42.9512033" lon="12.0017667"><ele>486.0</ele><time>2026-03-29T10:01:47.07Z</time></trkpt><trkpt lat="42.9512167" lon="12.0019083"><ele>490.0</ele><time>2026-03-29T10:01:48.069Z</time></trkpt><trkpt lat="42.9512433" lon="12.0020517"><ele>494.0</ele><time>2026-03-29T10:01:49.07Z</time></trkpt><trkpt lat="42.951305" lon="12.002185"><ele>498.0</ele><time>2026-03-29T10:01:50.069Z</time></trkpt><trkpt lat="42.9513833" lon="12.0023217"><ele>498.0</ele><time>2026-03-29T10:01:51.07Z</time></trkpt><trkpt lat="42.95146" lon="12.0024517"><ele>498.0</ele><time>2026-03-29T10:01:52.069Z</time></trkpt><trkpt lat="42.951515" lon="12.002605"><ele>498.0</ele><time>2026-03-29T10:01:53.07Z</time></trkpt><trkpt lat="42.9515533" lon="12.0027783"><ele>498.0</ele><time>2026-03-29T10:01:54.07Z</time></trkpt><trkpt lat="42.95157" lon="12.0029517"><ele>497.75</ele><time>2026-03-29T10:01:55.07Z</time></trkpt><trkpt lat="42.95157" lon="12.0031283"><ele>497.5</ele><time>2026-03-29T10:01:56.069Z</time></trkpt><trkpt lat="42.9515617" lon="12.0033167"><ele>497.25</ele><time>2026-03-29T10:01:57.07Z</time></trkpt><trkpt lat="42.9515367" lon="12.003485"><ele>497.0</ele><time>2026-03-29T10:01:58.069Z</time></trkpt><trkpt lat="42.951505" lon="12.0036367"><ele>497.0</ele><time>2026-03-29T10:01:59.069Z</time></trkpt><trkpt lat="42.9514517" lon="12.0037683"><ele>497.00000000000006</ele><time>2026-03-29T10:02:00.07Z</time></trkpt><trkpt lat="42.9513733" lon="12.0038733"><ele>497.00000000000006</ele><time>2026-03-29T10:02:01.069Z</time></trkpt><trkpt lat="42.9512817" lon="12.0039533"><ele>497.0</ele><time>2026-03-29T10:02:02.069Z</time></trkpt><trkpt lat="42.9511767" lon="12.0040133"><ele>497.0</ele><time>2026-03-29T10:02:03.07Z</time></trkpt><trkpt lat="42.95107" lon="12.0040583"><ele>497.0</ele><time>2026-03-29T10:02:04.07Z</time></trkpt><trkpt lat="42.9509783" lon="12.004095"><ele>497.00000000000006</ele><time>2026-03-29T10:02:05.07Z</time></trkpt><trkpt lat="42.95089" lon="12.0041367"><ele>497.00000000000006</ele><time>2026-03-29T10:02:06.07Z</time></trkpt><trkpt lat="42.9507867" lon="12.00419"><ele>497.0</ele><time>2026-03-29T10:02:07.069Z</time></trkpt><trkpt lat="42.9506833" lon="12.0042467"><ele>497.0</ele><time>2026-03-29T10:02:08.069Z</time></trkpt><trkpt lat="42.95058" lon="12.0042917"><ele>496.16666666666663</ele><time>2026-03-29T10:02:09.07Z</time></trkpt><trkpt lat="42.9504867" lon="12.0043317"><ele>495.3333333333333</ele><time>2026-03-29T10:02:10.07Z</time></trkpt><trkpt lat="42.9503983" lon="12.0043683"><ele>494.5</ele><time>2026-03-29T10:02:11.069Z</time></trkpt><trkpt lat="42.9503067" lon="12.004395"><ele>493.66666666666663</ele><time>2026-03-29T10:02:12.069Z</time></trkpt><trkpt lat="42.9502367" lon="12.0044133"><ele>492.8333333333333</ele><time>2026-03-29T10:02:13.07Z</time></trkpt><trkpt lat="42.950165" lon="12.004415"><ele>492.0</ele><time>2026-03-29T10:02:14.069Z</time></trkpt><trkpt lat="42.9500967" lon="12.0044067"><ele>491.3333333333333</ele><time>2026-03-29T10:02:15.07Z</time></trkpt><trkpt lat="42.950025" lon="12.0043917"><ele>490.66666666666663</ele><time>2026-03-29T10:02:16.07Z</time></trkpt><trkpt lat="42.9499483" lon="12.004375"><ele>490.0</ele><time>2026-03-29T10:02:17.07Z</time></trkpt><trkpt lat="42.9498683" lon="12.0043483"><ele>489.3333333333333</ele><time>2026-03-29T10:02:18.07Z</time></trkpt><trkpt lat="42.949785" lon="12.0043183"><ele>488.66666666666663</ele><time>2026-03-29T10:02:19.07Z</time></trkpt><trkpt lat="42.9497083" lon="12.00428"><ele>488.0</ele><time>2026-03-29T10:02:20.07Z</time></trkpt><trkpt lat="42.9496267" lon="12.004245"><ele>487.99999999999994</ele><time>2026-03-29T10:02:21.069Z</time></trkpt><trkpt lat="42.9495467" lon="12.0042133"><ele>488.0</ele><time>2026-03-29T10:02:22.069Z</time></trkpt><trkpt lat="42.9494633" lon="12.0041867"><ele>488.0</ele><time>2026-03-29T10:02:23.07Z</time></trkpt><trkpt lat="42.94938" lon="12.0041683"><ele>488.0</ele><time>2026-03-29T10:02:24.07Z</time></trkpt><trkpt lat="42.9492883" lon="12.00417"><ele>487.99999999999994</ele><time>2026-03-29T10:02:25.069Z</time></trkpt><trkpt lat="42.9491967" lon="12.0041883"><ele>488.0</ele><time>2026-03-29T10:02:26.07Z</time></trkpt><trkpt lat="42.9491" lon="12.0042283"><ele>485.59999999999997</ele><time>2026-03-29T10:02:27.07Z</time></trkpt><trkpt lat="42.949" lon="12.00427"><ele>483.19999999999993</ele><time>2026-03-29T10:02:28.07Z</time></trkpt><trkpt lat="42.948895" lon="12.0043033"><ele>480.8</ele><time>2026-03-29T10:02:29.069Z</time></trkpt><trkpt lat="42.9487883" lon="12.0043167"><ele>478.4</ele><time>2026-03-29T10:02:30.069Z</time></trkpt><trkpt lat="42.9486867" lon="12.0043083"><ele>476.0</ele><time>2026-03-29T10:02:31.07Z</time></trkpt><trkpt lat="42.9485867" lon="12.0042817"><ele>476.0</ele><time>2026-03-29T10:02:32.07Z</time></trkpt><trkpt lat="42.94849" lon="12.004255"><ele>476.0</ele><time>2026-03-29T10:02:33.07Z</time></trkpt><trkpt lat="42.9484033" lon="12.0042333"><ele>476.0</ele><time>2026-03-29T10:02:34.07Z</time></trkpt><trkpt lat="42.948315" lon="12.0042367"><ele>476.0</ele><time>2026-03-29T10:02:35.07Z</time></trkpt><trkpt lat="42.94822" lon="12.0042633"><ele>476.0</ele><time>2026-03-29T10:02:36.07Z</time></trkpt><trkpt lat="42.9481083" lon="12.004325"><ele>473.4</ele><time>2026-03-29T10:02:37.07Z</time></trkpt><trkpt lat="42.9479967" lon="12.0043883"><ele>470.8</ele><time>2026-03-29T10:02:38.07Z</time></trkpt><trkpt lat="42.9478967" lon="12.0044533"><ele>468.19999999999993</ele><time>2026-03-29T10:02:39.07Z</time></trkpt><trkpt lat="42.9477967" lon="12.0045083"><ele>465.59999999999997</ele><time>2026-03-29T10:02:40.07Z</time></trkpt><trkpt lat="42.94769" lon="12.0045433"><ele>463.0</ele><time>2026-03-29T10:02:41.07Z</time></trkpt><trkpt lat="42.9475883" lon="12.004545"><ele>461.2</ele><time>2026-03-29T10:02:42.07Z</time></trkpt><trkpt lat="42.9474917" lon="12.004515"><ele>459.4</ele><time>2026-03-29T10:02:43.069Z</time></trkpt><trkpt lat="42.9474033" lon="12.0044583"><ele>457.59999999999997</ele><time>2026-03-29T10:02:44.07Z</time></trkpt><trkpt lat="42.94733" lon="12.004375"><ele>455.79999999999995</ele><time>2026-03-29T10:02:45.069Z</time></trkpt><trkpt lat="42.9472617" lon="12.00428"><ele>454.0</ele><time>2026-03-29T10:02:46.068Z</time></trkpt><trkpt lat="42.9472083" lon="12.00418"><ele>451.7142857142857</ele><time>2026-03-29T10:02:47.069Z</time></trkpt><trkpt lat="42.947165" lon="12.0040883"><ele>449.42857142857144</ele><time>2026-03-29T10:02:48.07Z</time></trkpt><trkpt lat="42.947125" lon="12.00401"><ele>447.14285714285717</ele><time>2026-03-29T10:02:49.07Z</time></trkpt><trkpt lat="42.947085" lon="12.0039283"><ele>444.8571428571429</ele><time>2026-03-29T10:02:50.07Z</time></trkpt><trkpt lat="42.9470483" lon="12.00384"><ele>442.57142857142856</ele><time>2026-03-29T10:02:51.07Z</time></trkpt><trkpt lat="42.94702" lon="12.0037483"><ele>440.28571428571433</ele><time>2026-03-29T10:02:52.069Z</time></trkpt><trkpt lat="42.9470017" lon="12.00366"><ele>438.0</ele><time>2026-03-29T10:02:53.069Z</time></trkpt><trkpt lat="42.94694" lon="12.0035217"><ele>438.0</ele><time>2026-03-29T10:02:55.069Z</time></trkpt><trkpt lat="42.94684" lon="12.003425"><ele>437.99999999999994</ele><time>2026-03-29T10:02:57.069Z</time></trkpt><trkpt lat="42.946725" lon="12.003385"><ele>437.99999999999994</ele><time>2026-03-29T10:02:59.07Z</time></trkpt><trkpt lat="42.946655" lon="12.0034067"><ele>438.0</ele><time>2026-03-29T10:03:00.07Z</time></trkpt><trkpt lat="42.94654" lon="12.0034817"><ele>438.0</ele><time>2026-03-29T10:03:02.07Z</time></trkpt><trkpt lat="42.9464817" lon="12.003545"><ele>437.2</ele><time>2026-03-29T10:03:03.07Z</time></trkpt><trkpt lat="42.9464083" lon="12.0036317"><ele>436.4</ele><time>2026-03-29T10:03:04.07Z</time></trkpt><trkpt lat="42.9463317" lon="12.00373"><ele>435.59999999999997</ele><time>2026-03-29T10:03:05.07Z</time></trkpt><trkpt lat="42.9462567" lon="12.0038317"><ele>434.79999999999995</ele><time>2026-03-29T10:03:06.069Z</time></trkpt><trkpt lat="42.94618" lon="12.0039283"><ele>434.0</ele><time>2026-03-29T10:03:07.07Z</time></trkpt><trkpt lat="42.9461117" lon="12.0040183"><ele>433.99999999999994</ele><time>2026-03-29T10:03:08.07Z</time></trkpt><trkpt lat="42.94605" lon="12.004115"><ele>434.0</ele><time>2026-03-29T10:03:09.07Z</time></trkpt><trkpt lat="42.9460083" lon="12.0042083"><ele>434.0</ele><time>2026-03-29T10:03:10.07Z</time></trkpt><trkpt lat="42.9459867" lon="12.00429"><ele>434.0</ele><time>2026-03-29T10:03:11.069Z</time></trkpt><trkpt lat="42.9459817" lon="12.0043867"><ele>433.99999999999994</ele><time>2026-03-29T10:03:12.07Z</time></trkpt><trkpt lat="42.9459917" lon="12.0045"><ele>434.0</ele><time>2026-03-29T10:03:13.07Z</time></trkpt><trkpt lat="42.946005" lon="12.0046383"><ele>439.0</ele><time>2026-03-29T10:03:14.07Z</time></trkpt><trkpt lat="42.9460167" lon="12.0047867"><ele>444.0</ele><time>2026-03-29T10:03:15.069Z</time></trkpt><trkpt lat="42.946025" lon="12.0049467"><ele>449.0</ele><time>2026-03-29T10:03:16.07Z</time></trkpt><trkpt lat="42.9460317" lon="12.0051017"><ele>454.0</ele><time>2026-03-29T10:03:17.07Z</time></trkpt><trkpt lat="42.9460267" lon="12.0052567"><ele>454.6666666666667</ele><time>2026-03-29T10:03:18.07Z</time></trkpt><trkpt lat="42.9460233" lon="12.0053983"><ele>455.33333333333337</ele><time>2026-03-29T10:03:19.07Z</time></trkpt><trkpt lat="42.9460183" lon="12.0055233"><ele>456.0</ele><time>2026-03-29T10:03:20.07Z</time></trkpt><trkpt lat="42.9460083" lon="12.0056383"><ele>456.66666666666663</ele><time>2026-03-29T10:03:21.07Z</time></trkpt><trkpt lat="42.945995" lon="12.00574"><ele>457.3333333333333</ele><time>2026-03-29T10:03:22.07Z</time></trkpt><trkpt lat="42.9459633" lon="12.00583"><ele>458.0</ele><time>2026-03-29T10:03:23.069Z</time></trkpt><trkpt lat="42.9458533" lon="12.005885"><ele>457.99999999999994</ele><time>2026-03-29T10:03:25.07Z</time></trkpt><trkpt lat="42.94578" lon="12.0058583"><ele>458.0</ele><time>2026-03-29T10:03:26.07Z</time></trkpt><trkpt lat="42.9457017" lon="12.0057933"><ele>458.0</ele><time>2026-03-29T10:03:27.07Z</time></trkpt><trkpt lat="42.9456317" lon="12.005735"><ele>458.0</ele><time>2026-03-29T10:03:28.07Z</time></trkpt><trkpt lat="42.94558" lon="12.0056633"><ele>457.99999999999994</ele><time>2026-03-29T10:03:29.07Z</time></trkpt><trkpt lat="42.9455483" lon="12.00557"><ele>458.0</ele><time>2026-03-29T10:03:30.069Z</time></trkpt><trkpt lat="42.9455167" lon="12.0054783"><ele>453.2</ele><time>2026-03-29T10:03:31.07Z</time></trkpt><trkpt lat="42.94547" lon="12.00539"><ele>448.4</ele><time>2026-03-29T10:03:32.07Z</time></trkpt><trkpt lat="42.9454117" lon="12.0053083"><ele>443.59999999999997</ele><time>2026-03-29T10:03:33.07Z</time></trkpt><trkpt lat="42.9453317" lon="12.0052333"><ele>438.79999999999995</ele><time>2026-03-29T10:03:34.07Z</time></trkpt><trkpt lat="42.9452383" lon="12.005165"><ele>434.0</ele><time>2026-03-29T10:03:35.07Z</time></trkpt><trkpt lat="42.9451317" lon="12.0051117"><ele>432.5</ele><time>2026-03-29T10:03:36.069Z</time></trkpt><trkpt lat="42.9450233" lon="12.0050567"><ele>431.0</ele><time>2026-03-29T10:03:37.07Z</time></trkpt><trkpt lat="42.94491" lon="12.0049983"><ele>429.5</ele><time>2026-03-29T10:03:38.069Z</time></trkpt><trkpt lat="42.944805" lon="12.004935"><ele>428.0</ele><time>2026-03-29T10:03:39.069Z</time></trkpt><trkpt lat="42.9447033" lon="12.0048733"><ele>424.59999999999997</ele><time>2026-03-29T10:03:40.07Z</time></trkpt><trkpt lat="42.9446083" lon="12.0047883"><ele>421.19999999999993</ele><time>2026-03-29T10:03:41.069Z</time></trkpt><trkpt lat="42.9445067" lon="12.00472"><ele>417.8</ele><time>2026-03-29T10:03:42.07Z</time></trkpt><trkpt lat="42.9444217" lon="12.0046533"><ele>414.4</ele><time>2026-03-29T10:03:43.07Z</time></trkpt><trkpt lat="42.9443367" lon="12.0045767"><ele>411.0</ele><time>2026-03-29T10:03:44.07Z</time></trkpt><trkpt lat="42.9442417" lon="12.004495"><ele>410.0</ele><time>2026-03-29T10:03:45.069Z</time></trkpt><trkpt lat="42.9441583" lon="12.0044033"><ele>409.0</ele><time>2026-03-29T10:03:46.07Z</time></trkpt><trkpt lat="42.9440883" lon="12.004305"><ele>408.0</ele><time>2026-03-29T10:03:47.07Z</time></trkpt><trkpt lat="42.94403" lon="12.0042017"><ele>407.0</ele><time>2026-03-29T10:03:48.07Z</time></trkpt><trkpt lat="42.9439733" lon="12.0041017"><ele>406.0</ele><time>2026-03-29T10:03:49.07Z</time></trkpt><trkpt lat="42.94392" lon="12.003985"><ele>406.0</ele><time>2026-03-29T10:03:50.07Z</time></trkpt><trkpt lat="42.943865" lon="12.0038533"><ele>406.0</ele><time>2026-03-29T10:03:51.07Z</time></trkpt><trkpt lat="42.9438083" lon="12.0037183"><ele>406.0</ele><time>2026-03-29T10:03:52.069Z</time></trkpt><trkpt lat="42.9437533" lon="12.0035867"><ele>406.0</ele><time>2026-03-29T10:03:53.07Z</time></trkpt><trkpt lat="42.9436967" lon="12.0034667"><ele>406.0</ele><time>2026-03-29T10:03:54.069Z</time></trkpt><trkpt lat="42.9436367" lon="12.0033533"><ele>407.25</ele><time>2026-03-29T10:03:55.069Z</time></trkpt><trkpt lat="42.9435717" lon="12.0032433"><ele>408.5</ele><time>2026-03-29T10:03:56.069Z</time></trkpt><trkpt lat="42.9434933" lon="12.0031267"><ele>409.75</ele><time>2026-03-29T10:03:57.07Z</time></trkpt><trkpt lat="42.9434083" lon="12.0030067"><ele>411.0</ele><time>2026-03-29T10:03:58.07Z</time></trkpt><trkpt lat="42.943325" lon="12.0028917"><ele>411.0</ele><time>2026-03-29T10:03:59.07Z</time></trkpt><trkpt lat="42.94324" lon="12.0027933"><ele>411.0</ele><time>2026-03-29T10:04:00.069Z</time></trkpt><trkpt lat="42.9431533" lon="12.0027133"><ele>411.0</ele><time>2026-03-29T10:04:01.069Z</time></trkpt><trkpt lat="42.943065" lon="12.0026383"><ele>411.0</ele><time>2026-03-29T10:04:02.07Z</time></trkpt><trkpt lat="42.942975" lon="12.002565"><ele>411.0</ele><time>2026-03-29T10:04:03.07Z</time></trkpt><trkpt lat="42.94287" lon="12.0025083"><ele>411.20000000000005</ele><time>2026-03-29T10:04:04.07Z</time></trkpt><trkpt lat="42.9427617" lon="12.0024567"><ele>411.40000000000003</ele><time>2026-03-29T10:04:05.069Z</time></trkpt><trkpt lat="42.94266" lon="12.00242"><ele>411.6</ele><time>2026-03-29T10:04:06.07Z</time></trkpt><trkpt lat="42.94256" lon="12.0023867"><ele>411.8</ele><time>2026-03-29T10:04:07.069Z</time></trkpt><trkpt lat="42.9424583" lon="12.0023717"><ele>412.0</ele><time>2026-03-29T10:04:08.069Z</time></trkpt><trkpt lat="42.94235" lon="12.0023717"><ele>412.0</ele><time>2026-03-29T10:04:09.07Z</time></trkpt><trkpt lat="42.9422267" lon="12.0023783"><ele>412.0</ele><time>2026-03-29T10:04:10.069Z</time></trkpt><trkpt lat="42.9421033" lon="12.002385"><ele>412.0</ele><time>2026-03-29T10:04:11.07Z</time></trkpt><trkpt lat="42.9419867" lon="12.00238"><ele>412.0</ele><time>2026-03-29T10:04:12.07Z</time></trkpt><trkpt lat="42.9418833" lon="12.002355"><ele>412.0</ele><time>2026-03-29T10:04:13.069Z</time></trkpt><trkpt lat="42.9417967" lon="12.0023217"><ele>412.0</ele><time>2026-03-29T10:04:14.07Z</time></trkpt><trkpt lat="42.94172" lon="12.0022733"><ele>412.0</ele><time>2026-03-29T10:04:15.07Z</time></trkpt><trkpt lat="42.94165" lon="12.0022033"><ele>412.0</ele><time>2026-03-29T10:04:16.07Z</time></trkpt><trkpt lat="42.94157" lon="12.002115"><ele>412.0</ele><time>2026-03-29T10:04:17.069Z</time></trkpt><trkpt lat="42.9414767" lon="12.00201"><ele>411.5</ele><time>2026-03-29T10:04:18.069Z</time></trkpt><trkpt lat="42.94136" lon="12.0019"><ele>411.0</ele><time>2026-03-29T10:04:19.07Z</time></trkpt><trkpt lat="42.9412467" lon="12.0018083"><ele>410.5</ele><time>2026-03-29T10:04:20.07Z</time></trkpt><trkpt lat="42.9411333" lon="12.0017083"><ele>410.0</ele><time>2026-03-29T10:04:21.07Z</time></trkpt><trkpt lat="42.9410333" lon="12.0016233"><ele>407.8</ele><time>2026-03-29T10:04:22.069Z</time></trkpt><trkpt lat="42.9409467" lon="12.0015333"><ele>405.6</ele><time>2026-03-29T10:04:23.069Z</time></trkpt><trkpt lat="42.9408817" lon="12.0014333"><ele>403.4</ele><time>2026-03-29T10:04:24.069Z</time></trkpt><trkpt lat="42.9408233" lon="12.001335"><ele>401.2</ele><time>2026-03-29T10:04:25.07Z</time></trkpt><trkpt lat="42.9407483" lon="12.0012483"><ele>399.0</ele><time>2026-03-29T10:04:26.07Z</time></trkpt><trkpt lat="42.9406533" lon="12.0011533"><ele>399.0</ele><time>2026-03-29T10:04:27.069Z</time></trkpt><trkpt lat="42.9405417" lon="12.001065"><ele>399.0</ele><time>2026-03-29T10:04:28.07Z</time></trkpt><trkpt lat="42.9404317" lon="12.0009867"><ele>399.0</ele><time>2026-03-29T10:04:29.07Z</time></trkpt><trkpt lat="42.94033" lon="12.0009017"><ele>399.0</ele><time>2026-03-29T10:04:30.07Z</time></trkpt><trkpt lat="42.9402417" lon="12.000825"><ele>397.4</ele><time>2026-03-29T10:04:31.07Z</time></trkpt><trkpt lat="42.9401583" lon="12.0007583"><ele>395.79999999999995</ele><time>2026-03-29T10:04:32.069Z</time></trkpt><trkpt lat="42.9400767" lon="12.0007"><ele>394.20000000000005</ele><time>2026-03-29T10:04:33.07Z</time></trkpt><trkpt lat="42.93998" lon="12.0006633"><ele>392.6</ele><time>2026-03-29T10:04:34.07Z</time></trkpt><trkpt lat="42.9398733" lon="12.0006417"><ele>391.0</ele><time>2026-03-29T10:04:35.07Z</time></trkpt><trkpt lat="42.939745" lon="12.0006267"><ele>389.5</ele><time>2026-03-29T10:04:36.07Z</time></trkpt><trkpt lat="42.9396067" lon="12.000615"><ele>388.0</ele><time>2026-03-29T10:04:37.069Z</time></trkpt><trkpt lat="42.9394717" lon="12.0005933"><ele>386.5</ele><time>2026-03-29T10:04:38.07Z</time></trkpt><trkpt lat="42.9393467" lon="12.0005733"><ele>385.0</ele><time>2026-03-29T10:04:39.069Z</time></trkpt><trkpt lat="42.9392283" lon="12.00055"><ele>384.4</ele><time>2026-03-29T10:04:40.07Z</time></trkpt><trkpt lat="42.9391183" lon="12.0005333"><ele>383.8</ele><time>2026-03-29T10:04:41.069Z</time></trkpt><trkpt lat="42.9390133" lon="12.0005183"><ele>383.20000000000005</ele><time>2026-03-29T10:04:42.07Z</time></trkpt><trkpt lat="42.9389083" lon="12.000495"><ele>382.6</ele><time>2026-03-29T10:04:43.069Z</time></trkpt><trkpt lat="42.9388183" lon="12.0004583"><ele>382.0</ele><time>2026-03-29T10:04:44.07Z</time></trkpt><trkpt lat="42.9387367" lon="12.0004033"><ele>382.0</ele><time>2026-03-29T10:04:45.07Z</time></trkpt><trkpt lat="42.9386583" lon="12.0003283"><ele>382.0</ele><time>2026-03-29T10:04:46.07Z</time></trkpt><trkpt lat="42.9385833" lon="12.0002433"><ele>382.0</ele><time>2026-03-29T10:04:47.069Z</time></trkpt><trkpt lat="42.93852" lon="12.000165"><ele>382.0</ele><time>2026-03-29T10:04:48.069Z</time></trkpt><trkpt lat="42.93848" lon="12.0000717"><ele>382.0</ele><time>2026-03-29T10:04:49.069Z</time></trkpt><trkpt lat="42.9384633" lon="11.9999683"><ele>382.0</ele><time>2026-03-29T10:04:50.07Z</time></trkpt><trkpt lat="42.938455" lon="11.9998683"><ele>382.0</ele><time>2026-03-29T10:04:51.07Z</time></trkpt><trkpt lat="42.938455" lon="11.99977"><ele>382.0</ele><time>2026-03-29T10:04:52.069Z</time></trkpt><trkpt lat="42.938455" lon="11.9996767"><ele>382.0</ele><time>2026-03-29T10:04:53.07Z</time></trkpt><trkpt lat="42.9384517" lon="11.99959"><ele>382.0</ele><time>2026-03-29T10:04:54.07Z</time></trkpt><trkpt lat="42.9384433" lon="11.9994233"><ele>382.0</ele><time>2026-03-29T10:04:56.07Z</time></trkpt><trkpt lat="42.9384367" lon="11.99927"><ele>382.0</ele><time>2026-03-29T10:04:58.07Z</time></trkpt><trkpt lat="42.9384267" lon="11.999115"><ele>382.8571428571429</ele><time>2026-03-29T10:05:00.07Z</time></trkpt><trkpt lat="42.9384133" lon="11.99903"><ele>383.71428571428567</ele><time>2026-03-29T10:05:01.07Z</time></trkpt><trkpt lat="42.93839" lon="11.998945"><ele>384.57142857142856</ele><time>2026-03-29T10:05:02.07Z</time></trkpt><trkpt lat="42.9383733" lon="11.9988467"><ele>385.42857142857144</ele><time>2026-03-29T10:05:03.069Z</time></trkpt><trkpt lat="42.9383483" lon="11.9987467"><ele>386.28571428571433</ele><time>2026-03-29T10:05:04.07Z</time></trkpt><trkpt lat="42.938325" lon="11.9986433"><ele>387.1428571428571</ele><time>2026-03-29T10:05:05.07Z</time></trkpt><trkpt lat="42.9383" lon="11.9985533"><ele>388.0</ele><time>2026-03-29T10:05:06.069Z</time></trkpt><trkpt lat="42.9382683" lon="11.9984683"><ele>388.00000000000006</ele><time>2026-03-29T10:05:07.07Z</time></trkpt><trkpt lat="42.93822" lon="11.9984067"><ele>388.0</ele><time>2026-03-29T10:05:08.07Z</time></trkpt><trkpt lat="42.9381583" lon="11.9983433"><ele>388.0</ele><time>2026-03-29T10:05:09.07Z</time></trkpt><trkpt lat="42.938075" lon="11.9982917"><ele>388.0</ele><time>2026-03-29T10:05:10.07Z</time></trkpt><trkpt lat="42.93799" lon="11.9982317"><ele>388.00000000000006</ele><time>2026-03-29T10:05:11.07Z</time></trkpt><trkpt lat="42.937905" lon="11.9981767"><ele>388.0</ele><time>2026-03-29T10:05:12.071Z</time></trkpt><trkpt lat="42.9378217" lon="11.9981183"><ele>386.57142857142856</ele><time>2026-03-29T10:05:13.071Z</time></trkpt><trkpt lat="42.93774" lon="11.9980567"><ele>385.14285714285717</ele><time>2026-03-29T10:05:14.071Z</time></trkpt><trkpt lat="42.9376733" lon="11.9979983"><ele>383.7142857142857</ele><time>2026-03-29T10:05:15.071Z</time></trkpt><trkpt lat="42.93761" lon="11.99794"><ele>382.2857142857143</ele><time>2026-03-29T10:05:16.071Z</time></trkpt><trkpt lat="42.9375533" lon="11.9978867"><ele>380.8571428571429</ele><time>2026-03-29T10:05:17.071Z</time></trkpt><trkpt lat="42.9375" lon="11.9978367"><ele>379.42857142857144</ele><time>2026-03-29T10:05:18.071Z</time></trkpt><trkpt lat="42.93746" lon="11.997765"><ele>378.0</ele><time>2026-03-29T10:05:19.071Z</time></trkpt><trkpt lat="42.9374083" lon="11.997675"><ele>376.4</ele><time>2026-03-29T10:05:20.071Z</time></trkpt><trkpt lat="42.937355" lon="11.9975667"><ele>374.79999999999995</ele><time>2026-03-29T10:05:21.07Z</time></trkpt><trkpt lat="42.9373083" lon="11.997445"><ele>373.2</ele><time>2026-03-29T10:05:22.07Z</time></trkpt><trkpt lat="42.9372583" lon="11.997335"><ele>371.6</ele><time>2026-03-29T10:05:23.07Z</time></trkpt><trkpt lat="42.9372083" lon="11.9972283"><ele>370.0</ele><time>2026-03-29T10:05:24.071Z</time></trkpt><trkpt lat="42.937155" lon="11.9971317"><ele>370.0</ele><time>2026-03-29T10:05:25.071Z</time></trkpt><trkpt lat="42.9371" lon="11.9970433"><ele>370.0</ele><time>2026-03-29T10:05:26.071Z</time></trkpt><trkpt lat="42.9370433" lon="11.9969583"><ele>370.0</ele><time>2026-03-29T10:05:27.071Z</time></trkpt><trkpt lat="42.9369817" lon="11.9968883"><ele>370.0</ele><time>2026-03-29T10:05:28.071Z</time></trkpt><trkpt lat="42.93692" lon="11.9968317"><ele>370.0</ele><time>2026-03-29T10:05:29.071Z</time></trkpt><trkpt lat="42.9368567" lon="11.996785"><ele>370.0</ele><time>2026-03-29T10:05:30.071Z</time></trkpt><trkpt lat="42.9367867" lon="11.9967567"><ele>368.5</ele><time>2026-03-29T10:05:31.07Z</time></trkpt><trkpt lat="42.9367067" lon="11.9967517"><ele>367.0</ele><time>2026-03-29T10:05:32.071Z</time></trkpt><trkpt lat="42.9366217" lon="11.996755"><ele>365.5</ele><time>2026-03-29T10:05:33.071Z</time></trkpt><trkpt lat="42.9365333" lon="11.9967533"><ele>364.0</ele><time>2026-03-29T10:05:34.07Z</time></trkpt><trkpt lat="42.9364433" lon="11.99674"><ele>362.5</ele><time>2026-03-29T10:05:35.071Z</time></trkpt><trkpt lat="42.936355" lon="11.9967"><ele>361.0</ele><time>2026-03-29T10:05:36.071Z</time></trkpt><trkpt lat="42.9362567" lon="11.996655"><ele>360.0</ele><time>2026-03-29T10:05:37.07Z</time></trkpt><trkpt lat="42.93615" lon="11.9966083"><ele>359.0</ele><time>2026-03-29T10:05:38.07Z</time></trkpt><trkpt lat="42.93605" lon="11.9965417"><ele>358.0</ele><time>2026-03-29T10:05:39.071Z</time></trkpt><trkpt lat="42.935955" lon="11.9964817"><ele>357.0</ele><time>2026-03-29T10:05:40.071Z</time></trkpt><trkpt lat="42.9358717" lon="11.9964033"><ele>356.0</ele><time>2026-03-29T10:05:41.071Z</time></trkpt><trkpt lat="42.9357867" lon="11.9963367"><ele>354.83333333333337</ele><time>2026-03-29T10:05:42.071Z</time></trkpt><trkpt lat="42.9357133" lon="11.996275"><ele>353.6666666666667</ele><time>2026-03-29T10:05:43.07Z</time></trkpt><trkpt lat="42.9356533" lon="11.996205"><ele>352.5</ele><time>2026-03-29T10:05:44.071Z</time></trkpt><trkpt lat="42.9356017" lon="11.9961233"><ele>351.3333333333333</ele><time>2026-03-29T10:05:45.071Z</time></trkpt><trkpt lat="42.935555" lon="11.9960167"><ele>350.16666666666663</ele><time>2026-03-29T10:05:46.07Z</time></trkpt><trkpt lat="42.935515" lon="11.9959017"><ele>349.0</ele><time>2026-03-29T10:05:47.071Z</time></trkpt><trkpt lat="42.9354733" lon="11.9957817"><ele>348.4</ele><time>2026-03-29T10:05:48.071Z</time></trkpt><trkpt lat="42.93543" lon="11.9956683"><ele>347.79999999999995</ele><time>2026-03-29T10:05:49.071Z</time></trkpt><trkpt lat="42.9353933" lon="11.9955517"><ele>347.20000000000005</ele><time>2026-03-29T10:05:50.071Z</time></trkpt><trkpt lat="42.9353717" lon="11.9954067"><ele>346.6</ele><time>2026-03-29T10:05:51.071Z</time></trkpt><trkpt lat="42.9353267" lon="11.9952933"><ele>346.0</ele><time>2026-03-29T10:05:52.071Z</time></trkpt><trkpt lat="42.935275" lon="11.9951983"><ele>346.0</ele><time>2026-03-29T10:05:53.071Z</time></trkpt><trkpt lat="42.9352217" lon="11.9951133"><ele>346.0</ele><time>2026-03-29T10:05:54.07Z</time></trkpt><trkpt lat="42.935185" lon="11.9950233"><ele>346.0</ele><time>2026-03-29T10:05:55.07Z</time></trkpt><trkpt lat="42.9351417" lon="11.99496"><ele>346.0</ele><time>2026-03-29T10:05:56.071Z</time></trkpt><trkpt lat="42.935065" lon="11.9948483"><ele>346.0</ele><time>2026-03-29T10:05:58.071Z</time></trkpt><trkpt lat="42.9350017" lon="11.9947767"><ele>346.0</ele><time>2026-03-29T10:06:00.071Z</time></trkpt><trkpt lat="42.9349467" lon="11.9946767"><ele>343.6</ele><time>2026-03-29T10:06:02.071Z</time></trkpt><trkpt lat="42.9348933" lon="11.9945517"><ele>341.20000000000005</ele><time>2026-03-29T10:06:04.071Z</time></trkpt><trkpt lat="42.934865" lon="11.9944267"><ele>338.79999999999995</ele><time>2026-03-29T10:06:06.071Z</time></trkpt><trkpt lat="42.93488" lon="11.994255"><ele>336.4</ele><time>2026-03-29T10:06:08.071Z</time></trkpt><trkpt lat="42.934905" lon="11.9941533"><ele>334.0</ele><time>2026-03-29T10:06:09.071Z</time></trkpt><trkpt lat="42.9349333" lon="11.9940517"><ele>333.5</ele><time>2026-03-29T10:06:10.071Z</time></trkpt><trkpt lat="42.9349617" lon="11.99395"><ele>333.0</ele><time>2026-03-29T10:06:11.071Z</time></trkpt><trkpt lat="42.9349883" lon="11.9938467"><ele>332.5</ele><time>2026-03-29T10:06:12.071Z</time></trkpt><trkpt lat="42.9350083" lon="11.993745"><ele>332.0</ele><time>2026-03-29T10:06:13.07Z</time></trkpt><trkpt lat="42.93503" lon="11.9936483"><ele>331.5</ele><time>2026-03-29T10:06:14.071Z</time></trkpt><trkpt lat="42.93504" lon="11.9935517"><ele>331.0</ele><time>2026-03-29T10:06:15.071Z</time></trkpt><trkpt lat="42.935045" lon="11.9934483"><ele>331.0</ele><time>2026-03-29T10:06:16.071Z</time></trkpt><trkpt lat="42.9350483" lon="11.993345"><ele>331.0</ele><time>2026-03-29T10:06:17.07Z</time></trkpt><trkpt lat="42.9350433" lon="11.993245"><ele>331.0</ele><time>2026-03-29T10:06:18.071Z</time></trkpt><trkpt lat="42.9350367" lon="11.9931483"><ele>331.0</ele><time>2026-03-29T10:06:19.071Z</time></trkpt><trkpt lat="42.9350217" lon="11.99305"><ele>331.0</ele><time>2026-03-29T10:06:20.071Z</time></trkpt><trkpt lat="42.9349967" lon="11.992955"><ele>331.0</ele><time>2026-03-29T10:06:21.071Z</time></trkpt><trkpt lat="42.9349617" lon="11.9928567"><ele>331.0</ele><time>2026-03-29T10:06:22.071Z</time></trkpt><trkpt lat="42.934915" lon="11.9927617"><ele>331.0</ele><time>2026-03-29T10:06:23.07Z</time></trkpt><trkpt lat="42.9348633" lon="11.992675"><ele>331.0</ele><time>2026-03-29T10:06:24.071Z</time></trkpt><trkpt lat="42.9348" lon="11.992595"><ele>331.0</ele><time>2026-03-29T10:06:25.07Z</time></trkpt><trkpt lat="42.9347283" lon="11.9925217"><ele>331.0</ele><time>2026-03-29T10:06:26.071Z</time></trkpt><trkpt lat="42.9346467" lon="11.992445"><ele>331.0</ele><time>2026-03-29T10:06:27.071Z</time></trkpt><trkpt lat="42.9345367" lon="11.9923733"><ele>329.75</ele><time>2026-03-29T10:06:28.07Z</time></trkpt><trkpt lat="42.93441" lon="11.9922867"><ele>328.5</ele><time>2026-03-29T10:06:29.071Z</time></trkpt><trkpt lat="42.9342817" lon="11.9922067"><ele>327.25</ele><time>2026-03-29T10:06:30.071Z</time></trkpt><trkpt lat="42.9341633" lon="11.99213"><ele>326.0</ele><time>2026-03-29T10:06:31.071Z</time></trkpt><trkpt lat="42.9340483" lon="11.9920483"><ele>329.5</ele><time>2026-03-29T10:06:32.071Z</time></trkpt><trkpt lat="42.9339317" lon="11.991965"><ele>333.0</ele><time>2026-03-29T10:06:33.07Z</time></trkpt><trkpt lat="42.9338133" lon="11.9918767"><ele>336.5</ele><time>2026-03-29T10:06:34.07Z</time></trkpt><trkpt lat="42.9336933" lon="11.99179"><ele>340.0</ele><time>2026-03-29T10:06:35.071Z</time></trkpt><trkpt lat="42.9335683" lon="11.991705"><ele>338.0</ele><time>2026-03-29T10:06:36.071Z</time></trkpt><trkpt lat="42.9334267" lon="11.991625"><ele>336.0</ele><time>2026-03-29T10:06:37.071Z</time></trkpt><trkpt lat="42.9332767" lon="11.9915567"><ele>334.0</ele><time>2026-03-29T10:06:38.07Z</time></trkpt><trkpt lat="42.9331233" lon="11.991485"><ele>334.0</ele><time>2026-03-29T10:06:39.071Z</time></trkpt><trkpt lat="42.9329717" lon="11.9914267"><ele>334.0</ele><time>2026-03-29T10:06:40.07Z</time></trkpt><trkpt lat="42.9328217" lon="11.991365"><ele>334.0</ele><time>2026-03-29T10:06:41.071Z</time></trkpt><trkpt lat="42.9326767" lon="11.9913083"><ele>334.25</ele><time>2026-03-29T10:06:42.07Z</time></trkpt><trkpt lat="42.9325367" lon="11.9912667"><ele>334.5</ele><time>2026-03-29T10:06:43.071Z</time></trkpt><trkpt lat="42.9324067" lon="11.9912333"><ele>334.75</ele><time>2026-03-29T10:06:44.07Z</time></trkpt><trkpt lat="42.932275" lon="11.9912017"><ele>335.0</ele><time>2026-03-29T10:06:45.071Z</time></trkpt><trkpt lat="42.93215" lon="11.9911667"><ele>335.0</ele><time>2026-03-29T10:06:46.071Z</time></trkpt><trkpt lat="42.9320367" lon="11.9911183"><ele>335.0</ele><time>2026-03-29T10:06:47.071Z</time></trkpt><trkpt lat="42.9319217" lon="11.9910517"><ele>335.0</ele><time>2026-03-29T10:06:48.071Z</time></trkpt><trkpt lat="42.93182" lon="11.9909633"><ele>335.0</ele><time>2026-03-29T10:06:49.071Z</time></trkpt><trkpt lat="42.931715" lon="11.990825"><ele>334.0</ele><time>2026-03-29T10:06:50.07Z</time></trkpt><trkpt lat="42.9316183" lon="11.9906333"><ele>333.0</ele><time>2026-03-29T10:06:51.071Z</time></trkpt><trkpt lat="42.931535" lon="11.990435"><ele>332.0</ele><time>2026-03-29T10:06:52.071Z</time></trkpt><trkpt lat="42.9314783" lon="11.9902617"><ele>332.0</ele><time>2026-03-29T10:06:53.07Z</time></trkpt><trkpt lat="42.9314383" lon="11.990095"><ele>332.0</ele><time>2026-03-29T10:06:54.071Z</time></trkpt><trkpt lat="42.9314" lon="11.9899217"><ele>332.0</ele><time>2026-03-29T10:06:55.07Z</time></trkpt><trkpt lat="42.9313617" lon="11.989745"><ele>332.0</ele><time>2026-03-29T10:06:56.07Z</time></trkpt><trkpt lat="42.9313183" lon="11.9895617"><ele>331.5</ele><time>2026-03-29T10:06:57.07Z</time></trkpt><trkpt lat="42.9312783" lon="11.98939"><ele>331.0</ele><time>2026-03-29T10:06:58.07Z</time></trkpt><trkpt lat="42.9312433" lon="11.98923"><ele>330.5</ele><time>2026-03-29T10:06:59.071Z</time></trkpt><trkpt lat="42.93121" lon="11.9890783"><ele>330.0</ele><time>2026-03-29T10:07:00.071Z</time></trkpt><trkpt lat="42.9311683" lon="11.988935"><ele>329.5</ele><time>2026-03-29T10:07:01.071Z</time></trkpt><trkpt lat="42.931125" lon="11.9887833"><ele>329.0</ele><time>2026-03-29T10:07:02.071Z</time></trkpt><trkpt lat="42.93109" lon="11.9886283"><ele>328.5</ele><time>2026-03-29T10:07:03.071Z</time></trkpt><trkpt lat="42.9310583" lon="11.9884617"><ele>328.0</ele><time>2026-03-29T10:07:04.071Z</time></trkpt><trkpt lat="42.9310283" lon="11.98829"><ele>328.25</ele><time>2026-03-29T10:07:05.071Z</time></trkpt><trkpt lat="42.9309933" lon="11.9881217"><ele>328.5</ele><time>2026-03-29T10:07:06.071Z</time></trkpt><trkpt lat="42.9309567" lon="11.9879617"><ele>328.75</ele><time>2026-03-29T10:07:07.07Z</time></trkpt><trkpt lat="42.93092" lon="11.9878"><ele>329.0</ele><time>2026-03-29T10:07:08.07Z</time></trkpt><trkpt lat="42.930875" lon="11.98764"><ele>326.5</ele><time>2026-03-29T10:07:09.071Z</time></trkpt><trkpt lat="42.9308217" lon="11.9874883"><ele>324.0</ele><time>2026-03-29T10:07:10.071Z</time></trkpt><trkpt lat="42.9307467" lon="11.98736"><ele>321.5</ele><time>2026-03-29T10:07:11.07Z</time></trkpt><trkpt lat="42.9306733" lon="11.987245"><ele>319.0</ele><time>2026-03-29T10:07:12.071Z</time></trkpt><trkpt lat="42.930595" lon="11.987125"><ele>319.0</ele><time>2026-03-29T10:07:13.071Z</time></trkpt><trkpt lat="42.9305133" lon="11.9869967"><ele>319.0</ele><time>2026-03-29T10:07:14.07Z</time></trkpt><trkpt lat="42.93042" lon="11.9868917"><ele>319.0</ele><time>2026-03-29T10:07:15.071Z</time></trkpt><trkpt lat="42.930315" lon="11.9867867"><ele>319.0</ele><time>2026-03-29T10:07:16.071Z</time></trkpt><trkpt lat="42.9302017" lon="11.9866867"><ele>318.66666666666663</ele><time>2026-03-29T10:07:17.07Z</time></trkpt><trkpt lat="42.9300833" lon="11.986575"><ele>318.3333333333333</ele><time>2026-03-29T10:07:18.071Z</time></trkpt><trkpt lat="42.9299567" lon="11.9864317"><ele>318.0</ele><time>2026-03-29T10:07:19.071Z</time></trkpt><trkpt lat="42.92984" lon="11.9862767"><ele>318.0</ele><time>2026-03-29T10:07:20.07Z</time></trkpt><trkpt lat="42.9297333" lon="11.98614"><ele>318.0</ele><time>2026-03-29T10:07:21.071Z</time></trkpt><trkpt lat="42.929635" lon="11.9860233"><ele>318.0</ele><time>2026-03-29T10:07:22.071Z</time></trkpt><trkpt lat="42.9295133" lon="11.985915"><ele>318.0</ele><time>2026-03-29T10:07:23.071Z</time></trkpt><trkpt lat="42.9294067" lon="11.9858233"><ele>316.6</ele><time>2026-03-29T10:07:24.071Z</time></trkpt><trkpt lat="42.9293133" lon="11.98574"><ele>315.20000000000005</ele><time>2026-03-29T10:07:25.071Z</time></trkpt><trkpt lat="42.9292217" lon="11.985655"><ele>313.8</ele><time>2026-03-29T10:07:26.071Z</time></trkpt><trkpt lat="42.9291267" lon="11.985585"><ele>312.40000000000003</ele><time>2026-03-29T10:07:27.07Z</time></trkpt><trkpt lat="42.9290217" lon="11.9855483"><ele>311.0</ele><time>2026-03-29T10:07:28.07Z</time></trkpt><trkpt lat="42.928915" lon="11.9855233"><ele>310.6</ele><time>2026-03-29T10:07:29.071Z</time></trkpt><trkpt lat="42.9288067" lon="11.9855267"><ele>310.20000000000005</ele><time>2026-03-29T10:07:30.071Z</time></trkpt><trkpt lat="42.92868" lon="11.9855633"><ele>309.79999999999995</ele><time>2026-03-29T10:07:31.071Z</time></trkpt><trkpt lat="42.9285767" lon="11.9855883"><ele>309.4</ele><time>2026-03-29T10:07:32.071Z</time></trkpt><trkpt lat="42.92849" lon="11.985605"><ele>309.0</ele><time>2026-03-29T10:07:33.071Z</time></trkpt><trkpt lat="42.92841" lon="11.985595"><ele>307.4</ele><time>2026-03-29T10:07:34.071Z</time></trkpt><trkpt lat="42.9283383" lon="11.98555"><ele>305.79999999999995</ele><time>2026-03-29T10:07:35.071Z</time></trkpt><trkpt lat="42.928325" lon="11.985445"><ele>304.20000000000005</ele><time>2026-03-29T10:07:36.07Z</time></trkpt><trkpt lat="42.9283283" lon="11.985315"><ele>302.6</ele><time>2026-03-29T10:07:37.07Z</time></trkpt><trkpt lat="42.9283483" lon="11.985145"><ele>301.0</ele><time>2026-03-29T10:07:38.071Z</time></trkpt><trkpt lat="42.9283783" lon="11.9849483"><ele>303.0</ele><time>2026-03-29T10:07:39.071Z</time></trkpt><trkpt lat="42.9284017" lon="11.9847517"><ele>305.0</ele><time>2026-03-29T10:07:40.07Z</time></trkpt><trkpt lat="42.92842" lon="11.9845717"><ele>307.0</ele><time>2026-03-29T10:07:41.07Z</time></trkpt><trkpt lat="42.92843" lon="11.9844083"><ele>309.0</ele><time>2026-03-29T10:07:42.071Z</time></trkpt><trkpt lat="42.9284317" lon="11.984255"><ele>306.8</ele><time>2026-03-29T10:07:43.07Z</time></trkpt><trkpt lat="42.9284117" lon="11.9841083"><ele>304.59999999999997</ele><time>2026-03-29T10:07:44.07Z</time></trkpt><trkpt lat="42.92839" lon="11.983975"><ele>302.4</ele><time>2026-03-29T10:07:45.071Z</time></trkpt><trkpt lat="42.92836" lon="11.9838367"><ele>300.2</ele><time>2026-03-29T10:07:46.071Z</time></trkpt><trkpt lat="42.9283317" lon="11.9837"><ele>298.0</ele><time>2026-03-29T10:07:47.071Z</time></trkpt><trkpt lat="42.9283033" lon="11.98357"><ele>297.16666666666663</ele><time>2026-03-29T10:07:48.07Z</time></trkpt><trkpt lat="42.9282817" lon="11.9834483"><ele>296.3333333333333</ele><time>2026-03-29T10:07:49.07Z</time></trkpt><trkpt lat="42.92826" lon="11.9833283"><ele>295.5</ele><time>2026-03-29T10:07:50.071Z</time></trkpt><trkpt lat="42.9282433" lon="11.9832167"><ele>294.6666666666667</ele><time>2026-03-29T10:07:51.071Z</time></trkpt><trkpt lat="42.9282283" lon="11.9831167"><ele>293.83333333333337</ele><time>2026-03-29T10:07:52.07Z</time></trkpt><trkpt lat="42.92822" lon="11.9830167"><ele>293.0</ele><time>2026-03-29T10:07:53.071Z</time></trkpt><trkpt lat="42.9282217" lon="11.98292"><ele>291.99999999999994</ele><time>2026-03-29T10:07:54.07Z</time></trkpt><trkpt lat="42.9282267" lon="11.9828217"><ele>291.0</ele><time>2026-03-29T10:07:55.071Z</time></trkpt><trkpt lat="42.9282333" lon="11.9827183"><ele>290.0</ele><time>2026-03-29T10:07:56.071Z</time></trkpt><trkpt lat="42.9282383" lon="11.982625"><ele>289.0</ele><time>2026-03-29T10:07:57.071Z</time></trkpt><trkpt lat="42.9282317" lon="11.98253"><ele>288.0</ele><time>2026-03-29T10:07:58.07Z</time></trkpt><trkpt lat="42.9282167" lon="11.9824367"><ele>286.99999999999994</ele><time>2026-03-29T10:07:59.071Z</time></trkpt><trkpt lat="42.9281883" lon="11.9823417"><ele>286.0</ele><time>2026-03-29T10:08:00.071Z</time></trkpt><trkpt lat="42.9281317" lon="11.9822583"><ele>284.6</ele><time>2026-03-29T10:08:01.071Z</time></trkpt><trkpt lat="42.928055" lon="11.9821733"><ele>283.20000000000005</ele><time>2026-03-29T10:08:02.07Z</time></trkpt><trkpt lat="42.927965" lon="11.9820967"><ele>281.79999999999995</ele><time>2026-03-29T10:08:03.071Z</time></trkpt><trkpt lat="42.9278633" lon="11.9820083"><ele>280.4</ele><time>2026-03-29T10:08:04.071Z</time></trkpt><trkpt lat="42.9277567" lon="11.9819217"><ele>279.0</ele><time>2026-03-29T10:08:05.07Z</time></trkpt><trkpt lat="42.9276633" lon="11.98183"><ele>279.0</ele><time>2026-03-29T10:08:06.07Z</time></trkpt><trkpt lat="42.9275733" lon="11.9817417"><ele>279.0</ele><time>2026-03-29T10:08:07.07Z</time></trkpt><trkpt lat="42.92749" lon="11.981635"><ele>279.0</ele><time>2026-03-29T10:08:08.071Z</time></trkpt><trkpt lat="42.927425" lon="11.9815233"><ele>279.0</ele><time>2026-03-29T10:08:09.071Z</time></trkpt><trkpt lat="42.9273733" lon="11.9813983"><ele>279.0</ele><time>2026-03-29T10:08:10.071Z</time></trkpt><trkpt lat="42.927325" lon="11.98126"><ele>276.25</ele><time>2026-03-29T10:08:11.071Z</time></trkpt><trkpt lat="42.92729" lon="11.9811133"><ele>273.5</ele><time>2026-03-29T10:08:12.07Z</time></trkpt><trkpt lat="42.9272683" lon="11.9809533"><ele>270.75</ele><time>2026-03-29T10:08:13.071Z</time></trkpt><trkpt lat="42.92724" lon="11.9807917"><ele>268.0</ele><time>2026-03-29T10:08:14.071Z</time></trkpt><trkpt lat="42.9272133" lon="11.9806483"><ele>266.4</ele><time>2026-03-29T10:08:15.071Z</time></trkpt><trkpt lat="42.9271933" lon="11.9804967"><ele>264.8</ele><time>2026-03-29T10:08:16.07Z</time></trkpt><trkpt lat="42.927185" lon="11.9803417"><ele>263.2</ele><time>2026-03-29T10:08:17.07Z</time></trkpt><trkpt lat="42.9271717" lon="11.9801867"><ele>261.6</ele><time>2026-03-29T10:08:18.071Z</time></trkpt><trkpt lat="42.92716" lon="11.98005"><ele>260.0</ele><time>2026-03-29T10:08:19.071Z</time></trkpt><trkpt lat="42.9271483" lon="11.9799183"><ele>259.6</ele><time>2026-03-29T10:08:20.071Z</time></trkpt><trkpt lat="42.92713" lon="11.9797833"><ele>259.2</ele><time>2026-03-29T10:08:21.071Z</time></trkpt><trkpt lat="42.9271133" lon="11.9796517"><ele>258.8</ele><time>2026-03-29T10:08:22.07Z</time></trkpt><trkpt lat="42.9271" lon="11.979515"><ele>258.4</ele><time>2026-03-29T10:08:23.071Z</time></trkpt><trkpt lat="42.9270767" lon="11.9793817"><ele>258.0</ele><time>2026-03-29T10:08:24.071Z</time></trkpt><trkpt lat="42.9270417" lon="11.97926"><ele>256.75</ele><time>2026-03-29T10:08:25.071Z</time></trkpt><trkpt lat="42.9269917" lon="11.9791317"><ele>255.5</ele><time>2026-03-29T10:08:26.071Z</time></trkpt><trkpt lat="42.9269317" lon="11.9789967"><ele>254.25</ele><time>2026-03-29T10:08:27.071Z</time></trkpt><trkpt lat="42.9268633" lon="11.97886"><ele>253.0</ele><time>2026-03-29T10:08:28.07Z</time></trkpt><trkpt lat="42.9267983" lon="11.978705"><ele>252.75</ele><time>2026-03-29T10:08:29.071Z</time></trkpt><trkpt lat="42.9267233" lon="11.9785517"><ele>252.5</ele><time>2026-03-29T10:08:30.071Z</time></trkpt><trkpt lat="42.9266583" lon="11.9784033"><ele>252.25</ele><time>2026-03-29T10:08:31.071Z</time></trkpt><trkpt lat="42.926595" lon="11.9782717"><ele>252.0</ele><time>2026-03-29T10:08:32.071Z</time></trkpt><trkpt lat="42.9265383" lon="11.97815"><ele>251.66666666666666</ele><time>2026-03-29T10:08:33.07Z</time></trkpt><trkpt lat="42.926495" lon="11.9780533"><ele>251.33333333333331</ele><time>2026-03-29T10:08:34.07Z</time></trkpt><trkpt lat="42.9264633" lon="11.9779267"><ele>251.0</ele><time>2026-03-29T10:08:36.071Z</time></trkpt><trkpt lat="42.92652" lon="11.9778083"><ele>250.66666666666666</ele><time>2026-03-29T10:08:39.071Z</time></trkpt><trkpt lat="42.926585" lon="11.9777817"><ele>250.33333333333331</ele><time>2026-03-29T10:08:40.071Z</time></trkpt><trkpt lat="42.92667" lon="11.9777567"><ele>250.0</ele><time>2026-03-29T10:08:41.071Z</time></trkpt><trkpt lat="42.9268033" lon="11.9777217"><ele>250.0</ele><time>2026-03-29T10:08:42.071Z</time></trkpt><trkpt lat="42.9269683" lon="11.977675"><ele>250.0</ele><time>2026-03-29T10:08:43.071Z</time></trkpt><trkpt lat="42.9271733" lon="11.9776167"><ele>250.0</ele><time>2026-03-29T10:08:44.07Z</time></trkpt><trkpt lat="42.9274117" lon="11.9775333"><ele>251.0</ele><time>2026-03-29T10:08:45.071Z</time></trkpt><trkpt lat="42.9276467" lon="11.9774383"><ele>252.0</ele><time>2026-03-29T10:08:46.071Z</time></trkpt><trkpt lat="42.927855" lon="11.977345"><ele>252.0</ele><time>2026-03-29T10:08:47.071Z</time></trkpt><trkpt lat="42.9280483" lon="11.97725"><ele>252.0</ele><time>2026-03-29T10:08:48.071Z</time></trkpt><trkpt lat="42.9282183" lon="11.9771417"><ele>252.0</ele><time>2026-03-29T10:08:49.07Z</time></trkpt><trkpt lat="42.9283617" lon="11.9770383"><ele>251.5</ele><time>2026-03-29T10:08:50.071Z</time></trkpt><trkpt lat="42.92849" lon="11.9769333"><ele>251.0</ele><time>2026-03-29T10:08:51.071Z</time></trkpt><trkpt lat="42.928605" lon="11.9768483"><ele>250.5</ele><time>2026-03-29T10:08:52.071Z</time></trkpt><trkpt lat="42.928705" lon="11.9767617"><ele>250.0</ele><time>2026-03-29T10:08:53.071Z</time></trkpt><trkpt lat="42.928795" lon="11.976675"><ele>250.0</ele><time>2026-03-29T10:08:54.071Z</time></trkpt><trkpt lat="42.9288917" lon="11.9765867"><ele>250.0</ele><time>2026-03-29T10:08:55.07Z</time></trkpt><trkpt lat="42.9289867" lon="11.97649"><ele>250.0</ele><time>2026-03-29T10:08:56.071Z</time></trkpt><trkpt lat="42.9290933" lon="11.976385"><ele>250.0</ele><time>2026-03-29T10:08:57.071Z</time></trkpt><trkpt lat="42.9292083" lon="11.9762967"><ele>251.5</ele><time>2026-03-29T10:08:58.071Z</time></trkpt><trkpt lat="42.9293233" lon="11.9762117"><ele>253.0</ele><time>2026-03-29T10:08:59.071Z</time></trkpt><trkpt lat="42.92944" lon="11.9761383"><ele>254.5</ele><time>2026-03-29T10:09:00.071Z</time></trkpt><trkpt lat="42.929565" lon="11.9760733"><ele>256.0</ele><time>2026-03-29T10:09:01.071Z</time></trkpt><trkpt lat="42.929685" lon="11.976025"><ele>256.0</ele><time>2026-03-29T10:09:02.071Z</time></trkpt><trkpt lat="42.9298033" lon="11.97598"><ele>256.0</ele><time>2026-03-29T10:09:03.071Z</time></trkpt><trkpt lat="42.9299233" lon="11.975935"><ele>256.0</ele><time>2026-03-29T10:09:04.071Z</time></trkpt><trkpt lat="42.9300483" lon="11.9758967"><ele>256.0</ele><time>2026-03-29T10:09:05.07Z</time></trkpt><trkpt lat="42.9301767" lon="11.9758567"><ele>254.5</ele><time>2026-03-29T10:09:06.071Z</time></trkpt><trkpt lat="42.9303067" lon="11.975815"><ele>253.0</ele><time>2026-03-29T10:09:07.071Z</time></trkpt><trkpt lat="42.9304367" lon="11.9757733"><ele>251.5</ele><time>2026-03-29T10:09:08.071Z</time></trkpt><trkpt lat="42.930565" lon="11.9757283"><ele>250.0</ele><time>2026-03-29T10:09:09.07Z</time></trkpt><trkpt lat="42.93069" lon="11.9756817"><ele>250.0</ele><time>2026-03-29T10:09:10.07Z</time></trkpt><trkpt lat="42.9308183" lon="11.9756333"><ele>250.0</ele><time>2026-03-29T10:09:11.071Z</time></trkpt><trkpt lat="42.930945" lon="11.975595"><ele>250.0</ele><time>2026-03-29T10:09:12.071Z</time></trkpt><trkpt lat="42.931075" lon="11.9755517"><ele>250.0</ele><time>2026-03-29T10:09:13.071Z</time></trkpt><trkpt lat="42.931205" lon="11.975505"><ele>250.6</ele><time>2026-03-29T10:09:14.07Z</time></trkpt><trkpt lat="42.931325" lon="11.9754567"><ele>251.2</ele><time>2026-03-29T10:09:15.07Z</time></trkpt><trkpt lat="42.9314367" lon="11.975405"><ele>251.8</ele><time>2026-03-29T10:09:16.071Z</time></trkpt><trkpt lat="42.9315433" lon="11.975355"><ele>252.4</ele><time>2026-03-29T10:09:17.07Z</time></trkpt><trkpt lat="42.9316317" lon="11.9753267"><ele>253.0</ele><time>2026-03-29T10:09:18.071Z</time></trkpt><trkpt lat="42.9317083" lon="11.975305"><ele>252.66666666666666</ele><time>2026-03-29T10:09:19.071Z</time></trkpt><trkpt lat="42.9317783" lon="11.975315"><ele>252.33333333333331</ele><time>2026-03-29T10:09:20.071Z</time></trkpt><trkpt lat="42.931855" lon="11.9752333"><ele>252.0</ele><time>2026-03-29T10:09:22.071Z</time></trkpt><trkpt lat="42.9318417" lon="11.9751367"><ele>251.66666666666669</ele><time>2026-03-29T10:09:24.071Z</time></trkpt><trkpt lat="42.93175" lon="11.9750333"><ele>251.33333333333334</ele><time>2026-03-29T10:09:26.07Z</time></trkpt><trkpt lat="42.9316933" lon="11.9749567"><ele>251.0</ele><time>2026-03-29T10:09:27.071Z</time></trkpt><trkpt lat="42.9316333" lon="11.9748583"><ele>250.75</ele><time>2026-03-29T10:09:28.07Z</time></trkpt><trkpt lat="42.9315583" lon="11.9747467"><ele>250.5</ele><time>2026-03-29T10:09:29.071Z</time></trkpt><trkpt lat="42.931485" lon="11.9746383"><ele>250.25</ele><time>2026-03-29T10:09:30.07Z</time></trkpt><trkpt lat="42.9314033" lon="11.97452"><ele>250.0</ele><time>2026-03-29T10:09:31.071Z</time></trkpt><trkpt lat="42.9313183" lon="11.9743883"><ele>250.0</ele><time>2026-03-29T10:09:32.071Z</time></trkpt><trkpt lat="42.9312217" lon="11.9742517"><ele>250.0</ele><time>2026-03-29T10:09:33.07Z</time></trkpt><trkpt lat="42.9311233" lon="11.974105"><ele>250.0</ele><time>2026-03-29T10:09:34.071Z</time></trkpt><trkpt lat="42.9310367" lon="11.9739467"><ele>250.0</ele><time>2026-03-29T10:09:35.071Z</time></trkpt><trkpt lat="42.9309583" lon="11.97379"><ele>249.5</ele><time>2026-03-29T10:09:36.07Z</time></trkpt><trkpt lat="42.9308867" lon="11.973625"><ele>249.0</ele><time>2026-03-29T10:09:37.07Z</time></trkpt><trkpt lat="42.9308283" lon="11.9734517"><ele>248.5</ele><time>2026-03-29T10:09:38.07Z</time></trkpt><trkpt lat="42.9307783" lon="11.973265"><ele>248.0</ele><time>2026-03-29T10:09:39.07Z</time></trkpt><trkpt lat="42.9307367" lon="11.9730633"><ele>247.33333333333334</ele><time>2026-03-29T10:09:40.07Z</time></trkpt><trkpt lat="42.9307133" lon="11.9728517"><ele>246.66666666666669</ele><time>2026-03-29T10:09:41.071Z</time></trkpt><trkpt lat="42.9307183" lon="11.972635"><ele>246.0</ele><time>2026-03-29T10:09:42.071Z</time></trkpt><trkpt lat="42.930745" lon="11.9724167"><ele>246.33333333333331</ele><time>2026-03-29T10:09:43.071Z</time></trkpt><trkpt lat="42.9307983" lon="11.9721883"><ele>246.66666666666666</ele><time>2026-03-29T10:09:44.071Z</time></trkpt><trkpt lat="42.9308717" lon="11.97197"><ele>247.0</ele><time>2026-03-29T10:09:45.071Z</time></trkpt><trkpt lat="42.9309567" lon="11.9717683"><ele>246.66666666666666</ele><time>2026-03-29T10:09:46.071Z</time></trkpt><trkpt lat="42.9310583" lon="11.9715983"><ele>246.33333333333331</ele><time>2026-03-29T10:09:47.071Z</time></trkpt><trkpt lat="42.9311767" lon="11.9714383"><ele>246.0</ele><time>2026-03-29T10:09:48.071Z</time></trkpt><trkpt lat="42.931305" lon="11.9712983"><ele>246.0</ele><time>2026-03-29T10:09:49.071Z</time></trkpt><trkpt lat="42.9314333" lon="11.9711617"><ele>246.0</ele><time>2026-03-29T10:09:50.071Z</time></trkpt><trkpt lat="42.9315617" lon="11.9710283"><ele>246.0</ele><time>2026-03-29T10:09:51.071Z</time></trkpt><trkpt lat="42.9316783" lon="11.9708817"><ele>245.33333333333331</ele><time>2026-03-29T10:09:52.071Z</time></trkpt><trkpt lat="42.9317667" lon="11.97071"><ele>244.66666666666666</ele><time>2026-03-29T10:09:53.071Z</time></trkpt><trkpt lat="42.9318317" lon="11.9705267"><ele>244.0</ele><time>2026-03-29T10:09:54.071Z</time></trkpt><trkpt lat="42.9318617" lon="11.9703067"><ele>244.0</ele><time>2026-03-29T10:09:55.07Z</time></trkpt><trkpt lat="42.9318683" lon="11.9700683"><ele>244.0</ele><time>2026-03-29T10:09:56.071Z</time></trkpt><trkpt lat="42.9318517" lon="11.9698017"><ele>244.0</ele><time>2026-03-29T10:09:57.071Z</time></trkpt><trkpt lat="42.9318283" lon="11.969525"><ele>244.33333333333331</ele><time>2026-03-29T10:09:58.071Z</time></trkpt><trkpt lat="42.9318083" lon="11.9692567"><ele>244.66666666666669</ele><time>2026-03-29T10:09:59.07Z</time></trkpt><trkpt lat="42.9317917" lon="11.9690167"><ele>245.0</ele><time>2026-03-29T10:10:00.071Z</time></trkpt><trkpt lat="42.9317817" lon="11.9687783"><ele>245.0</ele><time>2026-03-29T10:10:01.071Z</time></trkpt><trkpt lat="42.9317767" lon="11.9685533"><ele>245.0</ele><time>2026-03-29T10:10:02.071Z</time></trkpt><trkpt lat="42.9317667" lon="11.9683367"><ele>245.0</ele><time>2026-03-29T10:10:03.07Z</time></trkpt><trkpt lat="42.9317567" lon="11.9681317"><ele>245.0</ele><time>2026-03-29T10:10:04.071Z</time></trkpt><trkpt lat="42.931745" lon="11.9679183"><ele>245.0</ele><time>2026-03-29T10:10:05.07Z</time></trkpt><trkpt lat="42.93174" lon="11.9677017"><ele>245.0</ele><time>2026-03-29T10:10:06.071Z</time></trkpt><trkpt lat="42.93173" lon="11.9674967"><ele>245.0</ele><time>2026-03-29T10:10:07.071Z</time></trkpt><trkpt lat="42.931715" lon="11.9672817"><ele>245.0</ele><time>2026-03-29T10:10:08.071Z</time></trkpt><trkpt lat="42.93169" lon="11.967065"><ele>245.0</ele><time>2026-03-29T10:10:09.071Z</time></trkpt><trkpt lat="42.9316483" lon="11.9668517"><ele>245.0</ele><time>2026-03-29T10:10:10.071Z</time></trkpt><trkpt lat="42.9315883" lon="11.9666417"><ele>245.0</ele><time>2026-03-29T10:10:11.071Z</time></trkpt><trkpt lat="42.9315083" lon="11.9664283"><ele>245.0</ele><time>2026-03-29T10:10:12.071Z</time></trkpt><trkpt lat="42.9314067" lon="11.9662167"><ele>245.0</ele><time>2026-03-29T10:10:13.071Z</time></trkpt><trkpt lat="42.9312883" lon="11.9660083"><ele>245.0</ele><time>2026-03-29T10:10:14.071Z</time></trkpt><trkpt lat="42.931165" lon="11.9658167"><ele>245.0</ele><time>2026-03-29T10:10:15.07Z</time></trkpt><trkpt lat="42.9310367" lon="11.9656233"><ele>244.66666666666669</ele><time>2026-03-29T10:10:16.071Z</time></trkpt><trkpt lat="42.93091" lon="11.9654317"><ele>244.33333333333331</ele><time>2026-03-29T10:10:17.071Z</time></trkpt><trkpt lat="42.9307867" lon="11.9652433"><ele>244.0</ele><time>2026-03-29T10:10:18.071Z</time></trkpt><trkpt lat="42.9306667" lon="11.965055"><ele>244.0</ele><time>2026-03-29T10:10:19.071Z</time></trkpt><trkpt lat="42.9305483" lon="11.964865"><ele>244.0</ele><time>2026-03-29T10:10:20.07Z</time></trkpt><trkpt lat="42.9304317" lon="11.9646733"><ele>244.0</ele><time>2026-03-29T10:10:21.071Z</time></trkpt><trkpt lat="42.9303167" lon="11.9644833"><ele>244.0</ele><time>2026-03-29T10:10:22.07Z</time></trkpt><trkpt lat="42.9302017" lon="11.9642967"><ele>244.0</ele><time>2026-03-29T10:10:23.071Z</time></trkpt><trkpt lat="42.9300833" lon="11.9641067"><ele>244.0</ele><time>2026-03-29T10:10:24.07Z</time></trkpt><trkpt lat="42.9299617" lon="11.9639167"><ele>244.33333333333331</ele><time>2026-03-29T10:10:25.071Z</time></trkpt><trkpt lat="42.9298467" lon="11.96373"><ele>244.66666666666669</ele><time>2026-03-29T10:10:26.071Z</time></trkpt><trkpt lat="42.929715" lon="11.9635633"><ele>245.0</ele><time>2026-03-29T10:10:27.071Z</time></trkpt><trkpt lat="42.9295833" lon="11.9634017"><ele>244.33333333333334</ele><time>2026-03-29T10:10:28.07Z</time></trkpt><trkpt lat="42.9294467" lon="11.9632417"><ele>243.66666666666669</ele><time>2026-03-29T10:10:29.071Z</time></trkpt><trkpt lat="42.9293083" lon="11.9630867"><ele>243.0</ele><time>2026-03-29T10:10:30.071Z</time></trkpt><trkpt lat="42.9291683" lon="11.9629317"><ele>243.0</ele><time>2026-03-29T10:10:31.071Z</time></trkpt><trkpt lat="42.92902" lon="11.9627767"><ele>243.0</ele><time>2026-03-29T10:10:32.071Z</time></trkpt><trkpt lat="42.9288767" lon="11.9626283"><ele>243.0</ele><time>2026-03-29T10:10:33.07Z</time></trkpt><trkpt lat="42.9287317" lon="11.9624833"><ele>243.0</ele><time>2026-03-29T10:10:34.07Z</time></trkpt><trkpt lat="42.9285883" lon="11.962335"><ele>243.0</ele><time>2026-03-29T10:10:35.071Z</time></trkpt><trkpt lat="42.9284483" lon="11.9621817"><ele>243.0</ele><time>2026-03-29T10:10:36.07Z</time></trkpt><trkpt lat="42.9283133" lon="11.9620367"><ele>242.66666666666669</ele><time>2026-03-29T10:10:37.071Z</time></trkpt><trkpt lat="42.92817" lon="11.9618933"><ele>242.33333333333334</ele><time>2026-03-29T10:10:38.07Z</time></trkpt><trkpt lat="42.928025" lon="11.961755"><ele>242.0</ele><time>2026-03-29T10:10:39.07Z</time></trkpt><trkpt lat="42.9278917" lon="11.9616067"><ele>242.0</ele><time>2026-03-29T10:10:40.07Z</time></trkpt><trkpt lat="42.9277733" lon="11.9614417"><ele>242.0</ele><time>2026-03-29T10:10:41.071Z</time></trkpt><trkpt lat="42.9276717" lon="11.9612583"><ele>242.0</ele><time>2026-03-29T10:10:42.071Z</time></trkpt><trkpt lat="42.9275767" lon="11.9610583"><ele>243.0</ele><time>2026-03-29T10:10:43.071Z</time></trkpt><trkpt lat="42.927505" lon="11.96086"><ele>244.0</ele><time>2026-03-29T10:10:44.07Z</time></trkpt><trkpt lat="42.9274317" lon="11.960675"><ele>245.0</ele><time>2026-03-29T10:10:45.07Z</time></trkpt><trkpt lat="42.927365" lon="11.9604933"><ele>245.0</ele><time>2026-03-29T10:10:46.071Z</time></trkpt><trkpt lat="42.9272933" lon="11.9603383"><ele>245.0</ele><time>2026-03-29T10:10:47.071Z</time></trkpt><trkpt lat="42.927205" lon="11.9602"><ele>245.0</ele><time>2026-03-29T10:10:48.071Z</time></trkpt><trkpt lat="42.9271017" lon="11.9601033"><ele>245.0</ele><time>2026-03-29T10:10:49.071Z</time></trkpt><trkpt lat="42.926985" lon="11.9600617"><ele>245.0</ele><time>2026-03-29T10:10:50.071Z</time></trkpt><trkpt lat="42.92686" lon="11.9600683"><ele>245.0</ele><time>2026-03-29T10:10:51.071Z</time></trkpt><trkpt lat="42.9267183" lon="11.960105"><ele>245.0</ele><time>2026-03-29T10:10:52.07Z</time></trkpt><trkpt lat="42.92657" lon="11.960175"><ele>245.0</ele><time>2026-03-29T10:10:53.07Z</time></trkpt><trkpt lat="42.9264033" lon="11.96027"><ele>244.33333333333334</ele><time>2026-03-29T10:10:54.071Z</time></trkpt><trkpt lat="42.926235" lon="11.96038"><ele>243.66666666666669</ele><time>2026-03-29T10:10:55.071Z</time></trkpt><trkpt lat="42.9260717" lon="11.9604717"><ele>243.0</ele><time>2026-03-29T10:10:56.07Z</time></trkpt><trkpt lat="42.925915" lon="11.96053"><ele>242.75</ele><time>2026-03-29T10:10:57.071Z</time></trkpt><trkpt lat="42.9257683" lon="11.9605483"><ele>242.5</ele><time>2026-03-29T10:10:58.071Z</time></trkpt><trkpt lat="42.9256183" lon="11.96054"><ele>242.25</ele><time>2026-03-29T10:10:59.071Z</time></trkpt><trkpt lat="42.92547" lon="11.9605033"><ele>242.0</ele><time>2026-03-29T10:11:00.07Z</time></trkpt><trkpt lat="42.9253267" lon="11.9604083"><ele>242.0</ele><time>2026-03-29T10:11:01.07Z</time></trkpt><trkpt lat="42.925185" lon="11.960285"><ele>242.0</ele><time>2026-03-29T10:11:02.071Z</time></trkpt><trkpt lat="42.925045" lon="11.9601233"><ele>242.0</ele><time>2026-03-29T10:11:03.071Z</time></trkpt><trkpt lat="42.9249033" lon="11.9599333"><ele>242.0</ele><time>2026-03-29T10:11:04.071Z</time></trkpt><trkpt lat="42.92475" lon="11.9597117"><ele>242.0</ele><time>2026-03-29T10:11:05.07Z</time></trkpt><trkpt lat="42.9245883" lon="11.959445"><ele>242.0</ele><time>2026-03-29T10:11:06.071Z</time></trkpt><trkpt lat="42.9244017" lon="11.9591283"><ele>242.0</ele><time>2026-03-29T10:11:07.071Z</time></trkpt><trkpt lat="42.92418" lon="11.95877"><ele>242.0</ele><time>2026-03-29T10:11:08.071Z</time></trkpt><trkpt lat="42.9239367" lon="11.958375"><ele>242.0</ele><time>2026-03-29T10:11:09.071Z</time></trkpt><trkpt lat="42.9237083" lon="11.958005"><ele>244.0</ele><time>2026-03-29T10:11:10.07Z</time></trkpt><trkpt lat="42.923505" lon="11.9576717"><ele>246.0</ele><time>2026-03-29T10:11:11.071Z</time></trkpt><trkpt lat="42.9233217" lon="11.957375"><ele>246.0</ele><time>2026-03-29T10:11:12.071Z</time></trkpt><trkpt lat="42.92316" lon="11.957105"><ele>246.0</ele><time>2026-03-29T10:11:13.071Z</time></trkpt><trkpt lat="42.92301" lon="11.9568517"><ele>247.0</ele><time>2026-03-29T10:11:14.07Z</time></trkpt><trkpt lat="42.9228733" lon="11.9565983"><ele>248.0</ele><time>2026-03-29T10:11:15.071Z</time></trkpt><trkpt lat="42.9227433" lon="11.956335"><ele>248.0</ele><time>2026-03-29T10:11:16.071Z</time></trkpt><trkpt lat="42.9225967" lon="11.9560433"><ele>248.0</ele><time>2026-03-29T10:11:17.071Z</time></trkpt><trkpt lat="42.9224267" lon="11.9557083"><ele>245.5</ele><time>2026-03-29T10:11:18.071Z</time></trkpt><trkpt lat="42.9222267" lon="11.9553083"><ele>243.0</ele><time>2026-03-29T10:11:19.071Z</time></trkpt><trkpt lat="42.9220083" lon="11.9548683"><ele>243.0</ele><time>2026-03-29T10:11:20.071Z</time></trkpt><trkpt lat="42.921765" lon="11.9543917"><ele>243.0</ele><time>2026-03-29T10:11:21.07Z</time></trkpt><trkpt lat="42.9215267" lon="11.9539117"><ele>243.0</ele><time>2026-03-29T10:11:22.071Z</time></trkpt><trkpt lat="42.921315" lon="11.9534867"><ele>243.0</ele><time>2026-03-29T10:11:23.07Z</time></trkpt><trkpt lat="42.9211267" lon="11.9531083"><ele>243.0</ele><time>2026-03-29T10:11:24.071Z</time></trkpt><trkpt lat="42.9209533" lon="11.9527733"><ele>243.0</ele><time>2026-03-29T10:11:25.071Z</time></trkpt><trkpt lat="42.920795" lon="11.952465"><ele>245.5</ele><time>2026-03-29T10:11:26.07Z</time></trkpt><trkpt lat="42.920655" lon="11.95218"><ele>248.0</ele><time>2026-03-29T10:11:27.07Z</time></trkpt><trkpt lat="42.9205267" lon="11.9519167"><ele>247.0</ele><time>2026-03-29T10:11:28.071Z</time></trkpt><trkpt lat="42.9204017" lon="11.9516717"><ele>246.0</ele><time>2026-03-29T10:11:29.071Z</time></trkpt><trkpt lat="42.92028" lon="11.9514333"><ele>245.0</ele><time>2026-03-29T10:11:30.071Z</time></trkpt><trkpt lat="42.9201683" lon="11.951195"><ele>245.0</ele><time>2026-03-29T10:11:31.07Z</time></trkpt><trkpt lat="42.9200533" lon="11.9509683"><ele>245.0</ele><time>2026-03-29T10:11:32.07Z</time></trkpt><trkpt lat="42.91994" lon="11.9507417"><ele>245.0</ele><time>2026-03-29T10:11:33.07Z</time></trkpt><trkpt lat="42.9198217" lon="11.9505033"><ele>245.0</ele><time>2026-03-29T10:11:34.071Z</time></trkpt><trkpt lat="42.9197017" lon="11.9502633"><ele>245.0</ele><time>2026-03-29T10:11:35.07Z</time></trkpt><trkpt lat="42.9195817" lon="11.9500183"><ele>245.0</ele><time>2026-03-29T10:11:36.071Z</time></trkpt><trkpt lat="42.9194567" lon="11.94977"><ele>245.33333333333334</ele><time>2026-03-29T10:11:37.07Z</time></trkpt><trkpt lat="42.9193333" lon="11.9495183"><ele>245.66666666666669</ele><time>2026-03-29T10:11:38.07Z</time></trkpt><trkpt lat="42.9192067" lon="11.94927"><ele>246.0</ele><time>2026-03-29T10:11:39.071Z</time></trkpt><trkpt lat="42.9190833" lon="11.9490283"><ele>246.0</ele><time>2026-03-29T10:11:40.071Z</time></trkpt><trkpt lat="42.9189583" lon="11.9487833"><ele>246.0</ele><time>2026-03-29T10:11:41.07Z</time></trkpt><trkpt lat="42.9188367" lon="11.9485367"><ele>246.0</ele><time>2026-03-29T10:11:42.071Z</time></trkpt><trkpt lat="42.9187117" lon="11.9483033"><ele>246.33333333333331</ele><time>2026-03-29T10:11:43.071Z</time></trkpt><trkpt lat="42.9185917" lon="11.948055"><ele>246.66666666666666</ele><time>2026-03-29T10:11:44.071Z</time></trkpt><trkpt lat="42.9184667" lon="11.9478183"><ele>247.0</ele><time>2026-03-29T10:11:45.07Z</time></trkpt><trkpt lat="42.91834" lon="11.947575"><ele>249.33333333333331</ele><time>2026-03-29T10:11:46.071Z</time></trkpt><trkpt lat="42.918225" lon="11.94733"><ele>251.66666666666669</ele><time>2026-03-29T10:11:47.071Z</time></trkpt><trkpt lat="42.9181" lon="11.9470917"><ele>254.0</ele><time>2026-03-29T10:11:48.071Z</time></trkpt><trkpt lat="42.9179767" lon="11.94685"><ele>253.66666666666669</ele><time>2026-03-29T10:11:49.071Z</time></trkpt><trkpt lat="42.917845" lon="11.9466117"><ele>253.33333333333331</ele><time>2026-03-29T10:11:50.071Z</time></trkpt><trkpt lat="42.917715" lon="11.9463717"><ele>253.0</ele><time>2026-03-29T10:11:51.071Z</time></trkpt><trkpt lat="42.9175867" lon="11.9461367"><ele>257.66666666666663</ele><time>2026-03-29T10:11:52.07Z</time></trkpt><trkpt lat="42.9174633" lon="11.9459267"><ele>262.3333333333333</ele><time>2026-03-29T10:11:53.07Z</time></trkpt><trkpt lat="42.9173533" lon="11.9457467"><ele>267.0</ele><time>2026-03-29T10:11:54.071Z</time></trkpt><trkpt lat="42.917255" lon="11.945595"><ele>267.0</ele><time>2026-03-29T10:11:55.071Z</time></trkpt><trkpt lat="42.9171617" lon="11.9454683"><ele>267.0</ele><time>2026-03-29T10:11:56.071Z</time></trkpt><trkpt lat="42.9170817" lon="11.9453533"><ele>267.0</ele><time>2026-03-29T10:11:57.071Z</time></trkpt><trkpt lat="42.9170067" lon="11.9452417"><ele>267.0</ele><time>2026-03-29T10:11:58.071Z</time></trkpt><trkpt lat="42.91694" lon="11.9451417"><ele>266.0</ele><time>2026-03-29T10:11:59.071Z</time></trkpt><trkpt lat="42.9168817" lon="11.945045"><ele>265.0</ele><time>2026-03-29T10:12:00.071Z</time></trkpt><trkpt lat="42.9168233" lon="11.94496"><ele>264.0</ele><time>2026-03-29T10:12:01.07Z</time></trkpt><trkpt lat="42.9167767" lon="11.9448867"><ele>263.0</ele><time>2026-03-29T10:12:02.071Z</time></trkpt><trkpt lat="42.9167067" lon="11.9447783"><ele>262.0</ele><time>2026-03-29T10:12:04.071Z</time></trkpt><trkpt lat="42.916675" lon="11.9447"><ele>261.0</ele><time>2026-03-29T10:12:06.071Z</time></trkpt><trkpt lat="42.916605" lon="11.9447033"><ele>261.0</ele><time>2026-03-29T10:12:10.071Z</time></trkpt><trkpt lat="42.9166817" lon="11.94482"><ele>261.0</ele><time>2026-03-29T10:12:13.071Z</time></trkpt><trkpt lat="42.91674" lon="11.9449083"><ele>261.0</ele><time>2026-03-29T10:12:14.07Z</time></trkpt><trkpt lat="42.916815" lon="11.94501"><ele>261.0</ele><time>2026-03-29T10:12:15.07Z</time></trkpt><trkpt lat="42.9169067" lon="11.94514"><ele>261.0</ele><time>2026-03-29T10:12:16.07Z</time></trkpt><trkpt lat="42.917015" lon="11.94529"><ele>263.0</ele><time>2026-03-29T10:12:17.07Z</time></trkpt><trkpt lat="42.9171267" lon="11.94544"><ele>265.0</ele><time>2026-03-29T10:12:18.071Z</time></trkpt><trkpt lat="42.917235" lon="11.945595"><ele>267.0</ele><time>2026-03-29T10:12:19.07Z</time></trkpt><trkpt lat="42.91735" lon="11.945765"><ele>268.5</ele><time>2026-03-29T10:12:20.071Z</time></trkpt><trkpt lat="42.917465" lon="11.94595"><ele>270.0</ele><time>2026-03-29T10:12:21.071Z</time></trkpt><trkpt lat="42.9176883" lon="11.946355"><ele>264.6666666666667</ele><time>2026-03-29T10:12:23.071Z</time></trkpt><trkpt lat="42.9178017" lon="11.946565"><ele>259.33333333333337</ele><time>2026-03-29T10:12:24.071Z</time></trkpt><trkpt lat="42.9179083" lon="11.9467817"><ele>254.0</ele><time>2026-03-29T10:12:25.07Z</time></trkpt><trkpt lat="42.9180133" lon="11.946995"><ele>254.0</ele><time>2026-03-29T10:12:26.07Z</time></trkpt><trkpt lat="42.9181217" lon="11.947205"><ele>254.0</ele><time>2026-03-29T10:12:27.071Z</time></trkpt><trkpt lat="42.9182317" lon="11.9474167"><ele>254.0</ele><time>2026-03-29T10:12:28.071Z</time></trkpt><trkpt lat="42.9183383" lon="11.94762"><ele>251.66666666666669</ele><time>2026-03-29T10:12:29.071Z</time></trkpt><trkpt lat="42.9184367" lon="11.9478183"><ele>249.33333333333331</ele><time>2026-03-29T10:12:30.071Z</time></trkpt><trkpt lat="42.91853" lon="11.948015"><ele>247.0</ele><time>2026-03-29T10:12:31.071Z</time></trkpt><trkpt lat="42.91862" lon="11.9482"><ele>247.0</ele><time>2026-03-29T10:12:32.071Z</time></trkpt><trkpt lat="42.9187083" lon="11.9483733"><ele>247.0</ele><time>2026-03-29T10:12:33.07Z</time></trkpt><trkpt lat="42.9187933" lon="11.9485267"><ele>247.0</ele><time>2026-03-29T10:12:34.07Z</time></trkpt><trkpt lat="42.9188617" lon="11.9486683"><ele>247.0</ele><time>2026-03-29T10:12:35.071Z</time></trkpt><trkpt lat="42.918915" lon="11.9487867"><ele>246.83333333333331</ele><time>2026-03-29T10:12:36.071Z</time></trkpt><trkpt lat="42.91896" lon="11.9488717"><ele>246.66666666666666</ele><time>2026-03-29T10:12:37.071Z</time></trkpt><trkpt lat="42.9190117" lon="11.9489283"><ele>246.5</ele><time>2026-03-29T10:12:38.071Z</time></trkpt><trkpt lat="42.919095" lon="11.94894"><ele>246.33333333333331</ele><time>2026-03-29T10:12:40.071Z</time></trkpt><trkpt lat="42.9191467" lon="11.9488883"><ele>246.16666666666666</ele><time>2026-03-29T10:12:41.071Z</time></trkpt><trkpt lat="42.9192117" lon="11.9488217"><ele>246.0</ele><time>2026-03-29T10:12:42.071Z</time></trkpt><trkpt lat="42.9192933" lon="11.94874"><ele>246.0</ele><time>2026-03-29T10:12:43.07Z</time></trkpt><trkpt lat="42.919395" lon="11.94865"><ele>246.0</ele><time>2026-03-29T10:12:44.07Z</time></trkpt><trkpt lat="42.9195167" lon="11.948555"><ele>246.0</ele><time>2026-03-29T10:12:45.072Z</time></trkpt><trkpt lat="42.91978" lon="11.9484"><ele>246.5</ele><time>2026-03-29T10:12:47.071Z</time></trkpt><trkpt lat="42.9198933" lon="11.9483467"><ele>247.0</ele><time>2026-03-29T10:12:48.072Z</time></trkpt><trkpt lat="42.9199983" lon="11.94828"><ele>247.5</ele><time>2026-03-29T10:12:49.072Z</time></trkpt><trkpt lat="42.920105" lon="11.9481783"><ele>248.0</ele><time>2026-03-29T10:12:50.072Z</time></trkpt><trkpt lat="42.9202233" lon="11.9480283"><ele>248.66666666666669</ele><time>2026-03-29T10:12:51.072Z</time></trkpt><trkpt lat="42.9203467" lon="11.9478467"><ele>249.33333333333331</ele><time>2026-03-29T10:12:52.072Z</time></trkpt><trkpt lat="42.92047" lon="11.9476883"><ele>250.0</ele><time>2026-03-29T10:12:53.072Z</time></trkpt><trkpt lat="42.9205767" lon="11.9475617"><ele>251.25</ele><time>2026-03-29T10:12:54.072Z</time></trkpt><trkpt lat="42.92068" lon="11.9474617"><ele>252.5</ele><time>2026-03-29T10:12:55.071Z</time></trkpt><trkpt lat="42.9207817" lon="11.9473683"><ele>253.75</ele><time>2026-03-29T10:12:56.072Z</time></trkpt><trkpt lat="42.9208783" lon="11.9473033"><ele>255.0</ele><time>2026-03-29T10:12:57.071Z</time></trkpt><trkpt lat="42.9209717" lon="11.9472567"><ele>255.0</ele><time>2026-03-29T10:12:58.072Z</time></trkpt><trkpt lat="42.921055" lon="11.9472183"><ele>255.0</ele><time>2026-03-29T10:12:59.072Z</time></trkpt><trkpt lat="42.9211317" lon="11.947185"><ele>255.0</ele><time>2026-03-29T10:13:00.071Z</time></trkpt><trkpt lat="42.9211917" lon="11.9471583"><ele>255.0</ele><time>2026-03-29T10:13:01.072Z</time></trkpt><trkpt lat="42.9212667" lon="11.9470933"><ele>255.0</ele><time>2026-03-29T10:13:03.071Z</time></trkpt><trkpt lat="42.9213333" lon="11.9469717"><ele>255.0</ele><time>2026-03-29T10:13:05.072Z</time></trkpt><trkpt lat="42.921375" lon="11.9468783"><ele>255.0</ele><time>2026-03-29T10:13:06.071Z</time></trkpt><trkpt lat="42.9214267" lon="11.946765"><ele>255.0</ele><time>2026-03-29T10:13:07.072Z</time></trkpt><trkpt lat="42.92149" lon="11.9466417"><ele>255.0</ele><time>2026-03-29T10:13:08.072Z</time></trkpt><trkpt lat="42.9215533" lon="11.946515"><ele>255.0</ele><time>2026-03-29T10:13:09.072Z</time></trkpt><trkpt lat="42.9216067" lon="11.9463917"><ele>255.0</ele><time>2026-03-29T10:13:10.072Z</time></trkpt><trkpt lat="42.921655" lon="11.9462567"><ele>256.4</ele><time>2026-03-29T10:13:11.072Z</time></trkpt><trkpt lat="42.9217083" lon="11.9461117"><ele>257.8</ele><time>2026-03-29T10:13:12.072Z</time></trkpt><trkpt lat="42.921765" lon="11.9459867"><ele>259.2</ele><time>2026-03-29T10:13:13.072Z</time></trkpt><trkpt lat="42.9218167" lon="11.9458883"><ele>260.6</ele><time>2026-03-29T10:13:14.072Z</time></trkpt><trkpt lat="42.9218683" lon="11.9458133"><ele>262.0</ele><time>2026-03-29T10:13:15.072Z</time></trkpt><trkpt lat="42.9219467" lon="11.9457067"><ele>264.6</ele><time>2026-03-29T10:13:17.071Z</time></trkpt><trkpt lat="42.9220133" lon="11.9455617"><ele>267.2</ele><time>2026-03-29T10:13:19.071Z</time></trkpt><trkpt lat="42.922045" lon="11.9454567"><ele>269.8</ele><time>2026-03-29T10:13:20.071Z</time></trkpt><trkpt lat="42.9220833" lon="11.9453433"><ele>272.4</ele><time>2026-03-29T10:13:21.071Z</time></trkpt><trkpt lat="42.922135" lon="11.94524"><ele>275.0</ele><time>2026-03-29T10:13:22.072Z</time></trkpt><trkpt lat="42.9222017" lon="11.9451433"><ele>276.6</ele><time>2026-03-29T10:13:23.072Z</time></trkpt><trkpt lat="42.9222867" lon="11.9450367"><ele>278.2</ele><time>2026-03-29T10:13:24.072Z</time></trkpt><trkpt lat="42.92237" lon="11.9449267"><ele>279.8</ele><time>2026-03-29T10:13:25.071Z</time></trkpt><trkpt lat="42.92245" lon="11.9448233"><ele>281.4</ele><time>2026-03-29T10:13:26.072Z</time></trkpt><trkpt lat="42.92251" lon="11.94473"><ele>283.0</ele><time>2026-03-29T10:13:27.072Z</time></trkpt><trkpt lat="42.9225517" lon="11.94465"><ele>283.0</ele><time>2026-03-29T10:13:28.072Z</time></trkpt><trkpt lat="42.9225883" lon="11.94452"><ele>283.0</ele><time>2026-03-29T10:13:30.071Z</time></trkpt><trkpt lat="42.92256" lon="11.94442"><ele>283.0</ele><time>2026-03-29T10:13:32.072Z</time></trkpt><trkpt lat="42.9225" lon="11.9443283"><ele>283.0</ele><time>2026-03-29T10:13:34.072Z</time></trkpt><trkpt lat="42.9224483" lon="11.944215"><ele>283.0</ele><time>2026-03-29T10:13:36.072Z</time></trkpt><trkpt lat="42.9223967" lon="11.9440483"><ele>283.66666666666663</ele><time>2026-03-29T10:13:38.071Z</time></trkpt><trkpt lat="42.9223717" lon="11.9439417"><ele>284.3333333333333</ele><time>2026-03-29T10:13:39.071Z</time></trkpt><trkpt lat="42.9223483" lon="11.9438483"><ele>285.0</ele><time>2026-03-29T10:13:40.071Z</time></trkpt><trkpt lat="42.922325" lon="11.9437667"><ele>285.6666666666667</ele><time>2026-03-29T10:13:41.071Z</time></trkpt><trkpt lat="42.9222633" lon="11.94362"><ele>286.33333333333337</ele><time>2026-03-29T10:13:43.071Z</time></trkpt><trkpt lat="42.9222217" lon="11.9435417"><ele>287.0</ele><time>2026-03-29T10:13:44.072Z</time></trkpt><trkpt lat="42.9221617" lon="11.9434567"><ele>287.0</ele><time>2026-03-29T10:13:45.072Z</time></trkpt><trkpt lat="42.922095" lon="11.9433683"><ele>287.0</ele><time>2026-03-29T10:13:46.072Z</time></trkpt><trkpt lat="42.9220233" lon="11.9432717"><ele>287.0</ele><time>2026-03-29T10:13:47.071Z</time></trkpt><trkpt lat="42.92196" lon="11.9431717"><ele>287.0</ele><time>2026-03-29T10:13:48.072Z</time></trkpt><trkpt lat="42.9218933" lon="11.9430667"><ele>287.0</ele><time>2026-03-29T10:13:49.071Z</time></trkpt><trkpt lat="42.9218367" lon="11.9429683"><ele>287.0</ele><time>2026-03-29T10:13:50.071Z</time></trkpt><trkpt lat="42.9217833" lon="11.9428817"><ele>287.0</ele><time>2026-03-29T10:13:51.072Z</time></trkpt><trkpt lat="42.9216517" lon="11.94273"><ele>287.0</ele><time>2026-03-29T10:13:53.071Z</time></trkpt><trkpt lat="42.92158" lon="11.9426617"><ele>287.0</ele><time>2026-03-29T10:13:54.071Z</time></trkpt><trkpt lat="42.9214983" lon="11.9426117"><ele>287.0</ele><time>2026-03-29T10:13:55.072Z</time></trkpt><trkpt lat="42.9214167" lon="11.94257"><ele>286.8</ele><time>2026-03-29T10:13:56.072Z</time></trkpt><trkpt lat="42.921325" lon="11.9425433"><ele>286.6</ele><time>2026-03-29T10:13:57.071Z</time></trkpt><trkpt lat="42.9212283" lon="11.9425133"><ele>286.40000000000003</ele><time>2026-03-29T10:13:58.072Z</time></trkpt><trkpt lat="42.92114" lon="11.9424483"><ele>286.2</ele><time>2026-03-29T10:13:59.072Z</time></trkpt><trkpt lat="42.92106" lon="11.942355"><ele>286.0</ele><time>2026-03-29T10:14:00.072Z</time></trkpt><trkpt lat="42.9209867" lon="11.94225"><ele>286.0</ele><time>2026-03-29T10:14:01.072Z</time></trkpt><trkpt lat="42.92092" lon="11.9421433"><ele>286.0</ele><time>2026-03-29T10:14:02.071Z</time></trkpt><trkpt lat="42.92073" lon="11.9419217"><ele>286.0</ele><time>2026-03-29T10:14:04.072Z</time></trkpt><trkpt lat="42.920635" lon="11.9418283"><ele>285.5</ele><time>2026-03-29T10:14:05.072Z</time></trkpt><trkpt lat="42.9205317" lon="11.9417567"><ele>285.0</ele><time>2026-03-29T10:14:06.072Z</time></trkpt><trkpt lat="42.9204267" lon="11.9416783"><ele>284.5</ele><time>2026-03-29T10:14:07.071Z</time></trkpt><trkpt lat="42.92032" lon="11.9416067"><ele>284.0</ele><time>2026-03-29T10:14:08.072Z</time></trkpt><trkpt lat="42.9202233" lon="11.9415317"><ele>284.0</ele><time>2026-03-29T10:14:09.072Z</time></trkpt><trkpt lat="42.920155" lon="11.9414517"><ele>284.0</ele><time>2026-03-29T10:14:10.072Z</time></trkpt><trkpt lat="42.9201067" lon="11.9413683"><ele>284.0</ele><time>2026-03-29T10:14:11.072Z</time></trkpt><trkpt lat="42.9200617" lon="11.941235"><ele>284.0</ele><time>2026-03-29T10:14:13.072Z</time></trkpt><trkpt lat="42.9200083" lon="11.9410967"><ele>284.0</ele><time>2026-03-29T10:14:15.072Z</time></trkpt><trkpt lat="42.9199317" lon="11.9409733"><ele>283.6666666666667</ele><time>2026-03-29T10:14:17.072Z</time></trkpt><trkpt lat="42.9198833" lon="11.9409183"><ele>283.33333333333337</ele><time>2026-03-29T10:14:18.072Z</time></trkpt><trkpt lat="42.9198" lon="11.9408267"><ele>283.0</ele><time>2026-03-29T10:14:20.072Z</time></trkpt><trkpt lat="42.9197467" lon="11.9407267"><ele>282.6666666666667</ele><time>2026-03-29T10:14:22.071Z</time></trkpt><trkpt lat="42.9197267" lon="11.9406217"><ele>282.3333333333333</ele><time>2026-03-29T10:14:24.072Z</time></trkpt><trkpt lat="42.9197067" lon="11.9405383"><ele>282.0</ele><time>2026-03-29T10:14:27.072Z</time></trkpt><trkpt lat="42.919665" lon="11.9404717"><ele>294.0</ele><time>2026-03-29T10:14:29.072Z</time></trkpt></trkseg><trkseg><trkpt lat="42.9196283" lon="11.94039"><ele>294.0</ele><time>2026-03-29T11:38:18.067Z</time></trkpt><trkpt lat="42.91954" lon="11.9402883"><ele>294.0</ele><time>2026-03-29T11:38:20.068Z</time></trkpt><trkpt lat="42.919485" lon="11.94023"><ele>294.0</ele><time>2026-03-29T11:38:21.067Z</time></trkpt><trkpt lat="42.9194233" lon="11.9401783"><ele>294.0</ele><time>2026-03-29T11:38:22.068Z</time></trkpt><trkpt lat="42.9193567" lon="11.9401367"><ele>294.0</ele><time>2026-03-29T11:38:23.068Z</time></trkpt><trkpt lat="42.919285" lon="11.9401"><ele>294.0</ele><time>2026-03-29T11:38:24.067Z</time></trkpt><trkpt lat="42.919205" lon="11.94006"><ele>293.42857142857144</ele><time>2026-03-29T11:38:25.068Z</time></trkpt><trkpt lat="42.9191333" lon="11.9400217"><ele>292.8571428571429</ele><time>2026-03-29T11:38:26.068Z</time></trkpt><trkpt lat="42.9190667" lon="11.9399817"><ele>292.2857142857143</ele><time>2026-03-29T11:38:27.068Z</time></trkpt><trkpt lat="42.91901" lon="11.9399417"><ele>291.7142857142857</ele><time>2026-03-29T11:38:28.068Z</time></trkpt><trkpt lat="42.9189567" lon="11.9398917"><ele>291.14285714285717</ele><time>2026-03-29T11:38:29.068Z</time></trkpt><trkpt lat="42.9189017" lon="11.939835"><ele>290.57142857142856</ele><time>2026-03-29T11:38:30.068Z</time></trkpt><trkpt lat="42.9188417" lon="11.9397583"><ele>290.0</ele><time>2026-03-29T11:38:31.068Z</time></trkpt><trkpt lat="42.9187833" lon="11.9396883"><ele>290.0</ele><time>2026-03-29T11:38:32.068Z</time></trkpt><trkpt lat="42.91872" lon="11.939615"><ele>290.0</ele><time>2026-03-29T11:38:33.067Z</time></trkpt><trkpt lat="42.9186483" lon="11.93955"><ele>290.0</ele><time>2026-03-29T11:38:34.068Z</time></trkpt><trkpt lat="42.9185683" lon="11.9394783"><ele>290.0</ele><time>2026-03-29T11:38:35.067Z</time></trkpt><trkpt lat="42.918485" lon="11.9394083"><ele>290.0</ele><time>2026-03-29T11:38:36.068Z</time></trkpt><trkpt lat="42.9183967" lon="11.9393333"><ele>289.75</ele><time>2026-03-29T11:38:37.068Z</time></trkpt><trkpt lat="42.918315" lon="11.9392517"><ele>289.5</ele><time>2026-03-29T11:38:38.068Z</time></trkpt><trkpt lat="42.9181583" lon="11.93907"><ele>289.25</ele><time>2026-03-29T11:38:40.067Z</time></trkpt><trkpt lat="42.9180733" lon="11.9389767"><ele>289.0</ele><time>2026-03-29T11:38:41.068Z</time></trkpt><trkpt lat="42.9179833" lon="11.93889"><ele>289.0</ele><time>2026-03-29T11:38:42.068Z</time></trkpt><trkpt lat="42.917885" lon="11.9388117"><ele>289.0</ele><time>2026-03-29T11:38:43.068Z</time></trkpt><trkpt lat="42.9177933" lon="11.9387433"><ele>289.0</ele><time>2026-03-29T11:38:44.068Z</time></trkpt><trkpt lat="42.9176917" lon="11.9386833"><ele>289.0</ele><time>2026-03-29T11:38:45.068Z</time></trkpt><trkpt lat="42.9175917" lon="11.93863"><ele>289.0</ele><time>2026-03-29T11:38:46.068Z</time></trkpt><trkpt lat="42.9174833" lon="11.9385917"><ele>289.2</ele><time>2026-03-29T11:38:47.068Z</time></trkpt><trkpt lat="42.9173717" lon="11.9385533"><ele>289.4</ele><time>2026-03-29T11:38:48.067Z</time></trkpt><trkpt lat="42.917275" lon="11.9385167"><ele>289.6</ele><time>2026-03-29T11:38:49.067Z</time></trkpt><trkpt lat="42.91717" lon="11.93847"><ele>289.8</ele><time>2026-03-29T11:38:50.068Z</time></trkpt><trkpt lat="42.9170667" lon="11.9384267"><ele>290.0</ele><time>2026-03-29T11:38:51.067Z</time></trkpt><trkpt lat="42.916975" lon="11.9383683"><ele>291.5</ele><time>2026-03-29T11:38:52.067Z</time></trkpt><trkpt lat="42.916805" lon="11.93822"><ele>293.0</ele><time>2026-03-29T11:38:54.068Z</time></trkpt><trkpt lat="42.9167367" lon="11.9381233"><ele>294.5</ele><time>2026-03-29T11:38:55.068Z</time></trkpt><trkpt lat="42.9166633" lon="11.9380233"><ele>296.0</ele><time>2026-03-29T11:38:56.068Z</time></trkpt><trkpt lat="42.9165917" lon="11.9379167"><ele>296.0</ele><time>2026-03-29T11:38:57.068Z</time></trkpt><trkpt lat="42.9165317" lon="11.937805"><ele>296.0</ele><time>2026-03-29T11:38:58.068Z</time></trkpt><trkpt lat="42.9164683" lon="11.93771"><ele>296.0</ele><time>2026-03-29T11:38:59.068Z</time></trkpt><trkpt lat="42.916405" lon="11.937635"><ele>296.0</ele><time>2026-03-29T11:39:00.068Z</time></trkpt><trkpt lat="42.9163433" lon="11.9375767"><ele>296.0</ele><time>2026-03-29T11:39:01.068Z</time></trkpt><trkpt lat="42.9162683" lon="11.9375383"><ele>296.0</ele><time>2026-03-29T11:39:02.067Z</time></trkpt><trkpt lat="42.9161767" lon="11.937525"><ele>297.6666666666667</ele><time>2026-03-29T11:39:03.067Z</time></trkpt><trkpt lat="42.916065" lon="11.93754"><ele>299.3333333333333</ele><time>2026-03-29T11:39:04.067Z</time></trkpt><trkpt lat="42.9157783" lon="11.937625"><ele>301.0</ele><time>2026-03-29T11:39:06.068Z</time></trkpt><trkpt lat="42.9156183" lon="11.9376833"><ele>301.5</ele><time>2026-03-29T11:39:07.067Z</time></trkpt><trkpt lat="42.9154783" lon="11.9377383"><ele>302.0</ele><time>2026-03-29T11:39:08.068Z</time></trkpt><trkpt lat="42.91535" lon="11.93778"><ele>302.5</ele><time>2026-03-29T11:39:09.067Z</time></trkpt><trkpt lat="42.9152367" lon="11.937795"><ele>303.0</ele><time>2026-03-29T11:39:10.068Z</time></trkpt><trkpt lat="42.9151233" lon="11.937775"><ele>302.75</ele><time>2026-03-29T11:39:11.068Z</time></trkpt><trkpt lat="42.9150133" lon="11.9377333"><ele>302.5</ele><time>2026-03-29T11:39:12.068Z</time></trkpt><trkpt lat="42.9149067" lon="11.9376733"><ele>302.25</ele><time>2026-03-29T11:39:13.068Z</time></trkpt><trkpt lat="42.9148033" lon="11.9376"><ele>302.0</ele><time>2026-03-29T11:39:14.068Z</time></trkpt><trkpt lat="42.9147117" lon="11.9375267"><ele>302.0</ele><time>2026-03-29T11:39:15.068Z</time></trkpt><trkpt lat="42.9146117" lon="11.93747"><ele>302.0</ele><time>2026-03-29T11:39:16.067Z</time></trkpt><trkpt lat="42.9145083" lon="11.9374133"><ele>302.0</ele><time>2026-03-29T11:39:17.068Z</time></trkpt><trkpt lat="42.9144117" lon="11.93734"><ele>302.0</ele><time>2026-03-29T11:39:18.068Z</time></trkpt><trkpt lat="42.91431" lon="11.93725"><ele>303.25</ele><time>2026-03-29T11:39:19.068Z</time></trkpt><trkpt lat="42.9142067" lon="11.937145"><ele>304.5</ele><time>2026-03-29T11:39:20.067Z</time></trkpt><trkpt lat="42.9141083" lon="11.9370217"><ele>305.75</ele><time>2026-03-29T11:39:21.067Z</time></trkpt><trkpt lat="42.914015" lon="11.93692"><ele>307.0</ele><time>2026-03-29T11:39:22.067Z</time></trkpt><trkpt lat="42.9139083" lon="11.936835"><ele>307.0</ele><time>2026-03-29T11:39:23.068Z</time></trkpt><trkpt lat="42.913795" lon="11.93676"><ele>307.0</ele><time>2026-03-29T11:39:24.068Z</time></trkpt><trkpt lat="42.9136917" lon="11.9366717"><ele>307.0</ele><time>2026-03-29T11:39:25.068Z</time></trkpt><trkpt lat="42.9135817" lon="11.9365817"><ele>307.0</ele><time>2026-03-29T11:39:26.068Z</time></trkpt><trkpt lat="42.9134767" lon="11.93649"><ele>307.25</ele><time>2026-03-29T11:39:27.068Z</time></trkpt><trkpt lat="42.9133767" lon="11.9363933"><ele>307.5</ele><time>2026-03-29T11:39:28.068Z</time></trkpt><trkpt lat="42.91328" lon="11.9363033"><ele>307.75</ele><time>2026-03-29T11:39:29.068Z</time></trkpt><trkpt lat="42.9131733" lon="11.93621"><ele>308.0</ele><time>2026-03-29T11:39:30.068Z</time></trkpt><trkpt lat="42.9130667" lon="11.936125"><ele>308.0</ele><time>2026-03-29T11:39:31.068Z</time></trkpt><trkpt lat="42.9129717" lon="11.9360367"><ele>308.0</ele><time>2026-03-29T11:39:32.068Z</time></trkpt><trkpt lat="42.9128767" lon="11.9359417"><ele>308.0</ele><time>2026-03-29T11:39:33.068Z</time></trkpt><trkpt lat="42.9127783" lon="11.9358517"><ele>308.0</ele><time>2026-03-29T11:39:34.068Z</time></trkpt><trkpt lat="42.912675" lon="11.93577"><ele>307.8</ele><time>2026-03-29T11:39:35.068Z</time></trkpt><trkpt lat="42.9125883" lon="11.9356867"><ele>307.6</ele><time>2026-03-29T11:39:36.067Z</time></trkpt><trkpt lat="42.9125" lon="11.93561"><ele>307.4</ele><time>2026-03-29T11:39:37.068Z</time></trkpt><trkpt lat="42.9124217" lon="11.93553"><ele>307.2</ele><time>2026-03-29T11:39:38.068Z</time></trkpt><trkpt lat="42.912345" lon="11.935455"><ele>307.0</ele><time>2026-03-29T11:39:39.068Z</time></trkpt><trkpt lat="42.9122583" lon="11.9353883"><ele>307.0</ele><time>2026-03-29T11:39:40.068Z</time></trkpt><trkpt lat="42.912195" lon="11.9353383"><ele>307.0</ele><time>2026-03-29T11:39:41.067Z</time></trkpt><trkpt lat="42.9121067" lon="11.9352883"><ele>307.0</ele><time>2026-03-29T11:39:43.068Z</time></trkpt><trkpt lat="42.9120383" lon="11.93526"><ele>307.0</ele><time>2026-03-29T11:39:46.068Z</time></trkpt><trkpt lat="42.9119783" lon="11.9351467"><ele>307.0</ele><time>2026-03-29T11:39:48.068Z</time></trkpt><trkpt lat="42.9119133" lon="11.9349867"><ele>306.8333333333333</ele><time>2026-03-29T11:39:50.068Z</time></trkpt><trkpt lat="42.9118767" lon="11.9349017"><ele>306.66666666666663</ele><time>2026-03-29T11:39:51.068Z</time></trkpt><trkpt lat="42.9118217" lon="11.9348183"><ele>306.5</ele><time>2026-03-29T11:39:52.068Z</time></trkpt><trkpt lat="42.911765" lon="11.93473"><ele>306.3333333333333</ele><time>2026-03-29T11:39:53.068Z</time></trkpt><trkpt lat="42.9117033" lon="11.9346467"><ele>306.1666666666667</ele><time>2026-03-29T11:39:54.067Z</time></trkpt><trkpt lat="42.91164" lon="11.93456"><ele>306.0</ele><time>2026-03-29T11:39:55.068Z</time></trkpt><trkpt lat="42.911555" lon="11.93448"><ele>306.0</ele><time>2026-03-29T11:39:56.068Z</time></trkpt><trkpt lat="42.9114683" lon="11.9344083"><ele>306.0</ele><time>2026-03-29T11:39:57.068Z</time></trkpt><trkpt lat="42.9113717" lon="11.93434"><ele>306.0</ele><time>2026-03-29T11:39:58.067Z</time></trkpt><trkpt lat="42.9112683" lon="11.9342817"><ele>306.0</ele><time>2026-03-29T11:39:59.067Z</time></trkpt><trkpt lat="42.911165" lon="11.9342267"><ele>306.0</ele><time>2026-03-29T11:40:00.068Z</time></trkpt><trkpt lat="42.9110633" lon="11.9341717"><ele>307.5</ele><time>2026-03-29T11:40:01.068Z</time></trkpt><trkpt lat="42.9109583" lon="11.9341167"><ele>309.0</ele><time>2026-03-29T11:40:02.068Z</time></trkpt><trkpt lat="42.9108483" lon="11.934055"><ele>310.5</ele><time>2026-03-29T11:40:03.068Z</time></trkpt><trkpt lat="42.9107333" lon="11.934"><ele>312.0</ele><time>2026-03-29T11:40:04.068Z</time></trkpt><trkpt lat="42.9106233" lon="11.9339433"><ele>312.5</ele><time>2026-03-29T11:40:05.067Z</time></trkpt><trkpt lat="42.91051" lon="11.93389"><ele>313.0</ele><time>2026-03-29T11:40:06.068Z</time></trkpt><trkpt lat="42.9103967" lon="11.93383"><ele>313.5</ele><time>2026-03-29T11:40:07.068Z</time></trkpt><trkpt lat="42.91028" lon="11.9337683"><ele>314.0</ele><time>2026-03-29T11:40:08.068Z</time></trkpt><trkpt lat="42.91016" lon="11.9337067"><ele>315.25</ele><time>2026-03-29T11:40:09.067Z</time></trkpt><trkpt lat="42.9100417" lon="11.93364"><ele>316.5</ele><time>2026-03-29T11:40:10.068Z</time></trkpt><trkpt lat="42.909925" lon="11.93357"><ele>317.75</ele><time>2026-03-29T11:40:11.068Z</time></trkpt><trkpt lat="42.9098067" lon="11.9335117"><ele>319.0</ele><time>2026-03-29T11:40:12.067Z</time></trkpt><trkpt lat="42.9096933" lon="11.9334467"><ele>318.5</ele><time>2026-03-29T11:40:13.068Z</time></trkpt><trkpt lat="42.9095767" lon="11.9333767"><ele>318.0</ele><time>2026-03-29T11:40:14.068Z</time></trkpt><trkpt lat="42.9094667" lon="11.9332917"><ele>317.5</ele><time>2026-03-29T11:40:15.068Z</time></trkpt><trkpt lat="42.9093683" lon="11.9332167"><ele>317.0</ele><time>2026-03-29T11:40:16.068Z</time></trkpt><trkpt lat="42.90927" lon="11.93313"><ele>319.0</ele><time>2026-03-29T11:40:17.068Z</time></trkpt><trkpt lat="42.909175" lon="11.9330383"><ele>321.0</ele><time>2026-03-29T11:40:18.067Z</time></trkpt><trkpt lat="42.909085" lon="11.932955"><ele>323.0</ele><time>2026-03-29T11:40:19.068Z</time></trkpt><trkpt lat="42.90898" lon="11.93289"><ele>325.0</ele><time>2026-03-29T11:40:20.068Z</time></trkpt><trkpt lat="42.9088767" lon="11.9328183"><ele>325.0</ele><time>2026-03-29T11:40:21.068Z</time></trkpt><trkpt lat="42.9087717" lon="11.932755"><ele>325.0</ele><time>2026-03-29T11:40:22.067Z</time></trkpt><trkpt lat="42.90866" lon="11.9326983"><ele>325.0</ele><time>2026-03-29T11:40:23.068Z</time></trkpt><trkpt lat="42.90855" lon="11.9326383"><ele>325.0</ele><time>2026-03-29T11:40:24.067Z</time></trkpt><trkpt lat="42.90843" lon="11.932575"><ele>326.25</ele><time>2026-03-29T11:40:25.068Z</time></trkpt><trkpt lat="42.9083117" lon="11.9325167"><ele>327.5</ele><time>2026-03-29T11:40:26.067Z</time></trkpt><trkpt lat="42.90819" lon="11.9324533"><ele>328.75</ele><time>2026-03-29T11:40:27.068Z</time></trkpt><trkpt lat="42.9080683" lon="11.9323967"><ele>330.0</ele><time>2026-03-29T11:40:28.067Z</time></trkpt><trkpt lat="42.9079417" lon="11.9323417"><ele>330.0</ele><time>2026-03-29T11:40:29.068Z</time></trkpt><trkpt lat="42.9078183" lon="11.93228"><ele>330.0</ele><time>2026-03-29T11:40:30.067Z</time></trkpt><trkpt lat="42.9076933" lon="11.932215"><ele>330.0</ele><time>2026-03-29T11:40:31.068Z</time></trkpt><trkpt lat="42.9075667" lon="11.93215"><ele>330.0</ele><time>2026-03-29T11:40:32.068Z</time></trkpt><trkpt lat="42.90744" lon="11.9320917"><ele>328.75</ele><time>2026-03-29T11:40:33.067Z</time></trkpt><trkpt lat="42.9073217" lon="11.9320333"><ele>327.5</ele><time>2026-03-29T11:40:34.068Z</time></trkpt><trkpt lat="42.907205" lon="11.93197"><ele>326.25</ele><time>2026-03-29T11:40:35.068Z</time></trkpt><trkpt lat="42.9070833" lon="11.9319133"><ele>325.0</ele><time>2026-03-29T11:40:36.068Z</time></trkpt><trkpt lat="42.9069617" lon="11.9318667"><ele>325.0</ele><time>2026-03-29T11:40:37.068Z</time></trkpt><trkpt lat="42.906835" lon="11.9318283"><ele>325.0</ele><time>2026-03-29T11:40:38.068Z</time></trkpt><trkpt lat="42.9067083" lon="11.9317983"><ele>325.0</ele><time>2026-03-29T11:40:39.068Z</time></trkpt><trkpt lat="42.9065833" lon="11.9317833"><ele>325.0</ele><time>2026-03-29T11:40:40.068Z</time></trkpt><trkpt lat="42.9064533" lon="11.93178"><ele>326.25</ele><time>2026-03-29T11:40:41.068Z</time></trkpt><trkpt lat="42.90633" lon="11.93178"><ele>327.5</ele><time>2026-03-29T11:40:42.067Z</time></trkpt><trkpt lat="42.9062" lon="11.93178"><ele>328.75</ele><time>2026-03-29T11:40:43.068Z</time></trkpt><trkpt lat="42.90607" lon="11.9317733"><ele>330.0</ele><time>2026-03-29T11:40:44.068Z</time></trkpt><trkpt lat="42.9059433" lon="11.93175"><ele>333.75</ele><time>2026-03-29T11:40:45.068Z</time></trkpt><trkpt lat="42.9058267" lon="11.9317167"><ele>337.5</ele><time>2026-03-29T11:40:46.068Z</time></trkpt><trkpt lat="42.9057133" lon="11.9316617"><ele>341.25</ele><time>2026-03-29T11:40:47.067Z</time></trkpt><trkpt lat="42.9056133" lon="11.931585"><ele>345.0</ele><time>2026-03-29T11:40:48.068Z</time></trkpt><trkpt lat="42.9055267" lon="11.9315067"><ele>345.0</ele><time>2026-03-29T11:40:49.067Z</time></trkpt><trkpt lat="42.905455" lon="11.931395"><ele>345.0</ele><time>2026-03-29T11:40:50.067Z</time></trkpt><trkpt lat="42.9053883" lon="11.9312567"><ele>345.0</ele><time>2026-03-29T11:40:51.067Z</time></trkpt><trkpt lat="42.905335" lon="11.931125"><ele>345.0</ele><time>2026-03-29T11:40:52.068Z</time></trkpt><trkpt lat="42.905295" lon="11.9310183"><ele>345.0</ele><time>2026-03-29T11:40:53.067Z</time></trkpt><trkpt lat="42.9052667" lon="11.930925"><ele>345.1666666666667</ele><time>2026-03-29T11:40:54.068Z</time></trkpt><trkpt lat="42.9051983" lon="11.930825"><ele>345.3333333333333</ele><time>2026-03-29T11:40:56.068Z</time></trkpt><trkpt lat="42.9050967" lon="11.93086"><ele>345.5</ele><time>2026-03-29T11:40:58.068Z</time></trkpt><trkpt lat="42.905035" lon="11.9309083"><ele>345.66666666666663</ele><time>2026-03-29T11:40:59.068Z</time></trkpt><trkpt lat="42.9049683" lon="11.9309867"><ele>345.8333333333333</ele><time>2026-03-29T11:41:00.068Z</time></trkpt><trkpt lat="42.90491" lon="11.93107"><ele>346.0</ele><time>2026-03-29T11:41:01.068Z</time></trkpt><trkpt lat="42.9048483" lon="11.9311583"><ele>347.6</ele><time>2026-03-29T11:41:02.067Z</time></trkpt><trkpt lat="42.9047817" lon="11.93124"><ele>349.20000000000005</ele><time>2026-03-29T11:41:03.068Z</time></trkpt><trkpt lat="42.9047" lon="11.9313033"><ele>350.79999999999995</ele><time>2026-03-29T11:41:04.068Z</time></trkpt><trkpt lat="42.9046067" lon="11.9313417"><ele>352.4</ele><time>2026-03-29T11:41:05.068Z</time></trkpt><trkpt lat="42.904505" lon="11.9313567"><ele>354.0</ele><time>2026-03-29T11:41:06.068Z</time></trkpt><trkpt lat="42.9044017" lon="11.9313383"><ele>354.0</ele><time>2026-03-29T11:41:07.068Z</time></trkpt><trkpt lat="42.9042933" lon="11.9312933"><ele>354.0</ele><time>2026-03-29T11:41:08.068Z</time></trkpt><trkpt lat="42.9041767" lon="11.9312267"><ele>354.0</ele><time>2026-03-29T11:41:09.068Z</time></trkpt><trkpt lat="42.9040617" lon="11.9311367"><ele>354.0</ele><time>2026-03-29T11:41:10.068Z</time></trkpt><trkpt lat="42.9039483" lon="11.93104"><ele>352.5</ele><time>2026-03-29T11:41:11.068Z</time></trkpt><trkpt lat="42.9038367" lon="11.9309367"><ele>351.0</ele><time>2026-03-29T11:41:12.068Z</time></trkpt><trkpt lat="42.9037333" lon="11.9308383"><ele>349.5</ele><time>2026-03-29T11:41:13.068Z</time></trkpt><trkpt lat="42.9036317" lon="11.93075"><ele>348.0</ele><time>2026-03-29T11:41:14.068Z</time></trkpt><trkpt lat="42.9035283" lon="11.9306733"><ele>348.0</ele><time>2026-03-29T11:41:15.068Z</time></trkpt><trkpt lat="42.90342" lon="11.9305983"><ele>348.0</ele><time>2026-03-29T11:41:16.068Z</time></trkpt><trkpt lat="42.90332" lon="11.9305117"><ele>348.0</ele><time>2026-03-29T11:41:17.068Z</time></trkpt><trkpt lat="42.9032217" lon="11.9304333"><ele>348.0</ele><time>2026-03-29T11:41:18.068Z</time></trkpt><trkpt lat="42.9031367" lon="11.9303417"><ele>347.6666666666667</ele><time>2026-03-29T11:41:19.068Z</time></trkpt><trkpt lat="42.9030767" lon="11.9302567"><ele>347.3333333333333</ele><time>2026-03-29T11:41:20.068Z</time></trkpt><trkpt lat="42.9030367" lon="11.9301833"><ele>347.0</ele><time>2026-03-29T11:41:21.068Z</time></trkpt><trkpt lat="42.9030083" lon="11.9300917"><ele>346.66666666666663</ele><time>2026-03-29T11:41:22.068Z</time></trkpt><trkpt lat="42.902995" lon="11.9299833"><ele>346.3333333333333</ele><time>2026-03-29T11:41:23.068Z</time></trkpt><trkpt lat="42.90299" lon="11.929845"><ele>346.0</ele><time>2026-03-29T11:41:24.067Z</time></trkpt><trkpt lat="42.902985" lon="11.92971"><ele>346.0</ele><time>2026-03-29T11:41:25.067Z</time></trkpt><trkpt lat="42.9029867" lon="11.929585"><ele>346.0</ele><time>2026-03-29T11:41:26.068Z</time></trkpt><trkpt lat="42.9029833" lon="11.9294667"><ele>346.0</ele><time>2026-03-29T11:41:27.068Z</time></trkpt><trkpt lat="42.9029883" lon="11.9293567"><ele>346.0</ele><time>2026-03-29T11:41:28.068Z</time></trkpt><trkpt lat="42.9030067" lon="11.9292467"><ele>346.0</ele><time>2026-03-29T11:41:29.067Z</time></trkpt><trkpt lat="42.90303" lon="11.9291383"><ele>346.0</ele><time>2026-03-29T11:41:30.068Z</time></trkpt><trkpt lat="42.9030783" lon="11.9290217"><ele>346.8</ele><time>2026-03-29T11:41:31.068Z</time></trkpt><trkpt lat="42.9031333" lon="11.9289"><ele>347.6</ele><time>2026-03-29T11:41:32.068Z</time></trkpt><trkpt lat="42.9031983" lon="11.928795"><ele>348.4</ele><time>2026-03-29T11:41:33.068Z</time></trkpt><trkpt lat="42.9032633" lon="11.9286867"><ele>349.2</ele><time>2026-03-29T11:41:34.068Z</time></trkpt><trkpt lat="42.9033267" lon="11.92857"><ele>350.0</ele><time>2026-03-29T11:41:35.067Z</time></trkpt><trkpt lat="42.9034017" lon="11.92845"><ele>351.25</ele><time>2026-03-29T11:41:36.068Z</time></trkpt><trkpt lat="42.9034517" lon="11.928305"><ele>352.5</ele><time>2026-03-29T11:41:37.068Z</time></trkpt><trkpt lat="42.9034983" lon="11.9281517"><ele>353.75</ele><time>2026-03-29T11:41:38.068Z</time></trkpt><trkpt lat="42.9035333" lon="11.9279967"><ele>355.0</ele><time>2026-03-29T11:41:39.067Z</time></trkpt><trkpt lat="42.903565" lon="11.92785"><ele>355.0</ele><time>2026-03-29T11:41:40.067Z</time></trkpt><trkpt lat="42.9035917" lon="11.9276933"><ele>355.0</ele><time>2026-03-29T11:41:41.067Z</time></trkpt><trkpt lat="42.9036233" lon="11.9275367"><ele>355.0</ele><time>2026-03-29T11:41:42.067Z</time></trkpt><trkpt lat="42.90365" lon="11.9273867"><ele>355.0</ele><time>2026-03-29T11:41:43.067Z</time></trkpt><trkpt lat="42.9036617" lon="11.9272367"><ele>354.4</ele><time>2026-03-29T11:41:44.068Z</time></trkpt><trkpt lat="42.90369" lon="11.9270967"><ele>353.8</ele><time>2026-03-29T11:41:45.067Z</time></trkpt><trkpt lat="42.9037267" lon="11.9269667"><ele>353.20000000000005</ele><time>2026-03-29T11:41:46.067Z</time></trkpt><trkpt lat="42.903755" lon="11.9268483"><ele>352.6</ele><time>2026-03-29T11:41:47.068Z</time></trkpt><trkpt lat="42.90376" lon="11.9267417"><ele>352.0</ele><time>2026-03-29T11:41:48.067Z</time></trkpt><trkpt lat="42.9037583" lon="11.9266417"><ele>351.20000000000005</ele><time>2026-03-29T11:41:49.068Z</time></trkpt><trkpt lat="42.9037567" lon="11.9264867"><ele>350.4</ele><time>2026-03-29T11:41:51.068Z</time></trkpt><trkpt lat="42.9037733" lon="11.9264"><ele>349.6</ele><time>2026-03-29T11:41:52.067Z</time></trkpt><trkpt lat="42.90381" lon="11.9262967"><ele>348.79999999999995</ele><time>2026-03-29T11:41:53.068Z</time></trkpt><trkpt lat="42.9038617" lon="11.926185"><ele>348.0</ele><time>2026-03-29T11:41:54.068Z</time></trkpt><trkpt lat="42.9039217" lon="11.9260667"><ele>348.0</ele><time>2026-03-29T11:41:55.068Z</time></trkpt><trkpt lat="42.9039883" lon="11.9259333"><ele>348.0</ele><time>2026-03-29T11:41:56.068Z</time></trkpt><trkpt lat="42.9040383" lon="11.9257833"><ele>348.0</ele><time>2026-03-29T11:41:57.068Z</time></trkpt><trkpt lat="42.9040767" lon="11.9256367"><ele>348.0</ele><time>2026-03-29T11:41:58.068Z</time></trkpt><trkpt lat="42.9041133" lon="11.9254983"><ele>347.79999999999995</ele><time>2026-03-29T11:41:59.068Z</time></trkpt><trkpt lat="42.9041467" lon="11.925355"><ele>347.6</ele><time>2026-03-29T11:42:00.068Z</time></trkpt><trkpt lat="42.9041567" lon="11.9252067"><ele>347.4</ele><time>2026-03-29T11:42:01.068Z</time></trkpt><trkpt lat="42.9041567" lon="11.9250567"><ele>347.20000000000005</ele><time>2026-03-29T11:42:02.068Z</time></trkpt><trkpt lat="42.9041433" lon="11.9249117"><ele>347.0</ele><time>2026-03-29T11:42:03.068Z</time></trkpt><trkpt lat="42.9041383" lon="11.9247917"><ele>346.5</ele><time>2026-03-29T11:42:04.068Z</time></trkpt><trkpt lat="42.9041467" lon="11.9246883"><ele>346.0</ele><time>2026-03-29T11:42:05.068Z</time></trkpt><trkpt lat="42.9041633" lon="11.9245933"><ele>345.5</ele><time>2026-03-29T11:42:06.068Z</time></trkpt><trkpt lat="42.9042" lon="11.9244983"><ele>345.0</ele><time>2026-03-29T11:42:07.067Z</time></trkpt><trkpt lat="42.9042417" lon="11.92441"><ele>344.5</ele><time>2026-03-29T11:42:08.068Z</time></trkpt><trkpt lat="42.9043" lon="11.9243267"><ele>344.0</ele><time>2026-03-29T11:42:09.068Z</time></trkpt><trkpt lat="42.9043567" lon="11.924245"><ele>346.6</ele><time>2026-03-29T11:42:10.068Z</time></trkpt><trkpt lat="42.9044133" lon="11.9241567"><ele>349.2</ele><time>2026-03-29T11:42:11.068Z</time></trkpt><trkpt lat="42.904465" lon="11.92406"><ele>351.8</ele><time>2026-03-29T11:42:12.068Z</time></trkpt><trkpt lat="42.904495" lon="11.9239417"><ele>354.40000000000003</ele><time>2026-03-29T11:42:13.067Z</time></trkpt><trkpt lat="42.9045267" lon="11.92382"><ele>357.0</ele><time>2026-03-29T11:42:14.068Z</time></trkpt><trkpt lat="42.9045533" lon="11.9237"><ele>357.0</ele><time>2026-03-29T11:42:15.068Z</time></trkpt><trkpt lat="42.9045883" lon="11.923575"><ele>357.0</ele><time>2026-03-29T11:42:16.067Z</time></trkpt><trkpt lat="42.9046233" lon="11.923445"><ele>357.0</ele><time>2026-03-29T11:42:17.067Z</time></trkpt><trkpt lat="42.904665" lon="11.9233233"><ele>357.0</ele><time>2026-03-29T11:42:18.067Z</time></trkpt><trkpt lat="42.904695" lon="11.9231833"><ele>357.0</ele><time>2026-03-29T11:42:19.068Z</time></trkpt><trkpt lat="42.9047067" lon="11.9230367"><ele>356.40000000000003</ele><time>2026-03-29T11:42:20.068Z</time></trkpt><trkpt lat="42.9047117" lon="11.922885"><ele>355.8</ele><time>2026-03-29T11:42:21.067Z</time></trkpt><trkpt lat="42.904715" lon="11.9227317"><ele>355.2</ele><time>2026-03-29T11:42:22.068Z</time></trkpt><trkpt lat="42.9047067" lon="11.922585"><ele>354.6</ele><time>2026-03-29T11:42:23.068Z</time></trkpt><trkpt lat="42.9047183" lon="11.92244"><ele>354.0</ele><time>2026-03-29T11:42:24.067Z</time></trkpt><trkpt lat="42.9047217" lon="11.922305"><ele>353.2</ele><time>2026-03-29T11:42:25.067Z</time></trkpt><trkpt lat="42.9047217" lon="11.9221667"><ele>352.4</ele><time>2026-03-29T11:42:26.068Z</time></trkpt><trkpt lat="42.9047217" lon="11.9220367"><ele>351.6</ele><time>2026-03-29T11:42:27.067Z</time></trkpt><trkpt lat="42.9047067" lon="11.921905"><ele>350.8</ele><time>2026-03-29T11:42:28.068Z</time></trkpt><trkpt lat="42.9046633" lon="11.9217767"><ele>350.0</ele><time>2026-03-29T11:42:29.067Z</time></trkpt><trkpt lat="42.9046083" lon="11.9216283"><ele>349.75</ele><time>2026-03-29T11:42:30.068Z</time></trkpt><trkpt lat="42.9045583" lon="11.9214767"><ele>349.5</ele><time>2026-03-29T11:42:31.068Z</time></trkpt><trkpt lat="42.90451" lon="11.9213217"><ele>349.25</ele><time>2026-03-29T11:42:32.068Z</time></trkpt><trkpt lat="42.904495" lon="11.9211633"><ele>349.0</ele><time>2026-03-29T11:42:33.068Z</time></trkpt><trkpt lat="42.9044717" lon="11.9210283"><ele>349.75</ele><time>2026-03-29T11:42:34.067Z</time></trkpt><trkpt lat="42.9044683" lon="11.9208717"><ele>350.5</ele><time>2026-03-29T11:42:35.068Z</time></trkpt><trkpt lat="42.90447" lon="11.9207117"><ele>351.25</ele><time>2026-03-29T11:42:36.068Z</time></trkpt><trkpt lat="42.9044683" lon="11.9205583"><ele>352.0</ele><time>2026-03-29T11:42:37.068Z</time></trkpt><trkpt lat="42.9044667" lon="11.92041"><ele>352.0</ele><time>2026-03-29T11:42:38.067Z</time></trkpt><trkpt lat="42.9044733" lon="11.92027"><ele>352.0</ele><time>2026-03-29T11:42:39.068Z</time></trkpt><trkpt lat="42.9044833" lon="11.9201417"><ele>352.0</ele><time>2026-03-29T11:42:40.068Z</time></trkpt><trkpt lat="42.9045033" lon="11.92002"><ele>352.0</ele><time>2026-03-29T11:42:41.068Z</time></trkpt><trkpt lat="42.9045383" lon="11.9198917"><ele>352.0</ele><time>2026-03-29T11:42:42.067Z</time></trkpt><trkpt lat="42.90458" lon="11.9197617"><ele>352.40000000000003</ele><time>2026-03-29T11:42:43.068Z</time></trkpt><trkpt lat="42.9046283" lon="11.91962"><ele>352.8</ele><time>2026-03-29T11:42:44.068Z</time></trkpt><trkpt lat="42.904665" lon="11.91947"><ele>353.2</ele><time>2026-03-29T11:42:45.067Z</time></trkpt><trkpt lat="42.9047017" lon="11.9193267"><ele>353.6</ele><time>2026-03-29T11:42:46.068Z</time></trkpt><trkpt lat="42.9047433" lon="11.919205"><ele>354.0</ele><time>2026-03-29T11:42:47.067Z</time></trkpt><trkpt lat="42.904805" lon="11.9191067"><ele>354.0</ele><time>2026-03-29T11:42:48.068Z</time></trkpt><trkpt lat="42.9048617" lon="11.9190083"><ele>354.0</ele><time>2026-03-29T11:42:49.068Z</time></trkpt><trkpt lat="42.904945" lon="11.9189"><ele>354.0</ele><time>2026-03-29T11:42:50.068Z</time></trkpt><trkpt lat="42.9049967" lon="11.9187767"><ele>354.0</ele><time>2026-03-29T11:42:51.068Z</time></trkpt><trkpt lat="42.9050483" lon="11.9186183"><ele>354.0</ele><time>2026-03-29T11:42:52.068Z</time></trkpt><trkpt lat="42.9050967" lon="11.918425"><ele>358.0</ele><time>2026-03-29T11:42:53.068Z</time></trkpt><trkpt lat="42.905135" lon="11.918225"><ele>362.0</ele><time>2026-03-29T11:42:54.068Z</time></trkpt><trkpt lat="42.905135" lon="11.918"><ele>366.0</ele><time>2026-03-29T11:42:55.068Z</time></trkpt><trkpt lat="42.9051267" lon="11.9177733"><ele>366.0</ele><time>2026-03-29T11:42:56.068Z</time></trkpt><trkpt lat="42.9051333" lon="11.9175783"><ele>366.0</ele><time>2026-03-29T11:42:57.068Z</time></trkpt><trkpt lat="42.905135" lon="11.9174"><ele>366.0</ele><time>2026-03-29T11:42:58.068Z</time></trkpt><trkpt lat="42.9051267" lon="11.9172583"><ele>366.0</ele><time>2026-03-29T11:42:59.068Z</time></trkpt><trkpt lat="42.905105" lon="11.9171383"><ele>365.5</ele><time>2026-03-29T11:43:00.068Z</time></trkpt><trkpt lat="42.9050783" lon="11.9170017"><ele>365.0</ele><time>2026-03-29T11:43:01.067Z</time></trkpt><trkpt lat="42.905045" lon="11.916845"><ele>364.5</ele><time>2026-03-29T11:43:02.067Z</time></trkpt><trkpt lat="42.904995" lon="11.9166667"><ele>364.0</ele><time>2026-03-29T11:43:03.068Z</time></trkpt><trkpt lat="42.9049383" lon="11.9164967"><ele>364.0</ele><time>2026-03-29T11:43:04.068Z</time></trkpt><trkpt lat="42.9048767" lon="11.9163483"><ele>364.0</ele><time>2026-03-29T11:43:05.068Z</time></trkpt><trkpt lat="42.9047883" lon="11.9161983"><ele>364.0</ele><time>2026-03-29T11:43:06.068Z</time></trkpt><trkpt lat="42.9047117" lon="11.916055"><ele>364.0</ele><time>2026-03-29T11:43:07.067Z</time></trkpt><trkpt lat="42.90464" lon="11.915935"><ele>363.79999999999995</ele><time>2026-03-29T11:43:08.068Z</time></trkpt><trkpt lat="42.904575" lon="11.9158283"><ele>363.59999999999997</ele><time>2026-03-29T11:43:09.068Z</time></trkpt><trkpt lat="42.9045267" lon="11.9157217"><ele>363.4</ele><time>2026-03-29T11:43:10.068Z</time></trkpt><trkpt lat="42.904485" lon="11.9156133"><ele>363.2</ele><time>2026-03-29T11:43:11.067Z</time></trkpt><trkpt lat="42.904465" lon="11.915525"><ele>363.0</ele><time>2026-03-29T11:43:12.068Z</time></trkpt><trkpt lat="42.9044067" lon="11.9154133"><ele>363.0</ele><time>2026-03-29T11:43:24.068Z</time></trkpt><trkpt lat="42.9043617" lon="11.9153233"><ele>363.0</ele><time>2026-03-29T11:43:26.067Z</time></trkpt><trkpt lat="42.90433" lon="11.915175"><ele>363.0</ele><time>2026-03-29T11:43:28.068Z</time></trkpt><trkpt lat="42.9042933" lon="11.9149983"><ele>363.0</ele><time>2026-03-29T11:43:30.068Z</time></trkpt><trkpt lat="42.904275" lon="11.9148983"><ele>363.0</ele><time>2026-03-29T11:43:31.068Z</time></trkpt><trkpt lat="42.904255" lon="11.9147967"><ele>363.6666666666667</ele><time>2026-03-29T11:43:32.068Z</time></trkpt><trkpt lat="42.9042483" lon="11.9146883"><ele>364.3333333333333</ele><time>2026-03-29T11:43:33.068Z</time></trkpt><trkpt lat="42.9042433" lon="11.91458"><ele>365.0</ele><time>2026-03-29T11:43:34.067Z</time></trkpt><trkpt lat="42.9042467" lon="11.9144667"><ele>365.66666666666663</ele><time>2026-03-29T11:43:35.068Z</time></trkpt><trkpt lat="42.904255" lon="11.9143467"><ele>366.3333333333333</ele><time>2026-03-29T11:43:36.067Z</time></trkpt><trkpt lat="42.9042583" lon="11.914225"><ele>367.0</ele><time>2026-03-29T11:43:37.068Z</time></trkpt><trkpt lat="42.9042567" lon="11.91409"><ele>367.6</ele><time>2026-03-29T11:43:38.068Z</time></trkpt><trkpt lat="42.9042667" lon="11.9139517"><ele>368.20000000000005</ele><time>2026-03-29T11:43:39.068Z</time></trkpt><trkpt lat="42.9042817" lon="11.91381"><ele>368.8</ele><time>2026-03-29T11:43:40.067Z</time></trkpt><trkpt lat="42.9043017" lon="11.913665"><ele>369.4</ele><time>2026-03-29T11:43:41.068Z</time></trkpt><trkpt lat="42.904315" lon="11.9135417"><ele>370.0</ele><time>2026-03-29T11:43:42.067Z</time></trkpt><trkpt lat="42.9043383" lon="11.9134467"><ele>371.16666666666663</ele><time>2026-03-29T11:43:43.068Z</time></trkpt><trkpt lat="42.9043633" lon="11.913345"><ele>372.3333333333333</ele><time>2026-03-29T11:43:44.068Z</time></trkpt><trkpt lat="42.9044" lon="11.9132483"><ele>373.5</ele><time>2026-03-29T11:43:45.068Z</time></trkpt><trkpt lat="42.90445" lon="11.913155"><ele>374.6666666666667</ele><time>2026-03-29T11:43:46.068Z</time></trkpt><trkpt lat="42.904495" lon="11.9130767"><ele>375.83333333333337</ele><time>2026-03-29T11:43:47.067Z</time></trkpt><trkpt lat="42.9045717" lon="11.9130017"><ele>377.0</ele><time>2026-03-29T11:43:48.068Z</time></trkpt><trkpt lat="42.9046283" lon="11.91293"><ele>377.0</ele><time>2026-03-29T11:43:49.068Z</time></trkpt><trkpt lat="42.9046767" lon="11.9128517"><ele>377.0</ele><time>2026-03-29T11:43:50.068Z</time></trkpt><trkpt lat="42.9047" lon="11.912755"><ele>377.0</ele><time>2026-03-29T11:43:51.068Z</time></trkpt><trkpt lat="42.904715" lon="11.912645"><ele>377.0</ele><time>2026-03-29T11:43:52.068Z</time></trkpt><trkpt lat="42.9047233" lon="11.912535"><ele>377.0</ele><time>2026-03-29T11:43:53.068Z</time></trkpt><trkpt lat="42.9047383" lon="11.9124183"><ele>377.0</ele><time>2026-03-29T11:43:54.068Z</time></trkpt><trkpt lat="42.9047633" lon="11.912315"><ele>378.1666666666667</ele><time>2026-03-29T11:43:55.068Z</time></trkpt><trkpt lat="42.904795" lon="11.9122083"><ele>379.33333333333337</ele><time>2026-03-29T11:43:56.068Z</time></trkpt><trkpt lat="42.9048333" lon="11.912105"><ele>380.5</ele><time>2026-03-29T11:43:57.068Z</time></trkpt><trkpt lat="42.904875" lon="11.9120067"><ele>381.6666666666667</ele><time>2026-03-29T11:43:58.067Z</time></trkpt><trkpt lat="42.9049217" lon="11.9119217"><ele>382.8333333333333</ele><time>2026-03-29T11:43:59.068Z</time></trkpt><trkpt lat="42.90496" lon="11.9118467"><ele>384.0</ele><time>2026-03-29T11:44:00.067Z</time></trkpt><trkpt lat="42.90501" lon="11.9116917"><ele>384.5</ele><time>2026-03-29T11:44:02.068Z</time></trkpt><trkpt lat="42.9050233" lon="11.9115967"><ele>385.0</ele><time>2026-03-29T11:44:03.068Z</time></trkpt><trkpt lat="42.9050467" lon="11.9115083"><ele>385.5</ele><time>2026-03-29T11:44:04.067Z</time></trkpt><trkpt lat="42.90511" lon="11.9113867"><ele>386.0</ele><time>2026-03-29T11:44:06.068Z</time></trkpt><trkpt lat="42.9051433" lon="11.911485"><ele>386.5</ele><time>2026-03-29T11:44:08.067Z</time></trkpt><trkpt lat="42.90514" lon="11.9116033"><ele>387.0</ele><time>2026-03-29T11:44:09.068Z</time></trkpt><trkpt lat="42.9051167" lon="11.91173"><ele>386.5</ele><time>2026-03-29T11:44:10.068Z</time></trkpt><trkpt lat="42.9051133" lon="11.91185"><ele>386.0</ele><time>2026-03-29T11:44:11.068Z</time></trkpt><trkpt lat="42.9051017" lon="11.9119583"><ele>385.5</ele><time>2026-03-29T11:44:12.068Z</time></trkpt><trkpt lat="42.90508" lon="11.9120667"><ele>385.0</ele><time>2026-03-29T11:44:13.068Z</time></trkpt><trkpt lat="42.9050533" lon="11.912165"><ele>384.5</ele><time>2026-03-29T11:44:14.068Z</time></trkpt><trkpt lat="42.905045" lon="11.9122567"><ele>384.0</ele><time>2026-03-29T11:44:15.068Z</time></trkpt><trkpt lat="42.9050483" lon="11.9123467"><ele>386.25</ele><time>2026-03-29T11:44:16.068Z</time></trkpt><trkpt lat="42.9051267" lon="11.9124333"><ele>388.5</ele><time>2026-03-29T11:44:18.068Z</time></trkpt><trkpt lat="42.90522" lon="11.9123917"><ele>390.75</ele><time>2026-03-29T11:44:20.067Z</time></trkpt><trkpt lat="42.9052867" lon="11.9121583"><ele>393.0</ele><time>2026-03-29T11:44:22.068Z</time></trkpt><trkpt lat="42.9053233" lon="11.91203"><ele>393.0</ele><time>2026-03-29T11:44:23.068Z</time></trkpt><trkpt lat="42.90535" lon="11.91191"><ele>393.0</ele><time>2026-03-29T11:44:24.067Z</time></trkpt><trkpt lat="42.905365" lon="11.91182"><ele>393.0</ele><time>2026-03-29T11:44:25.068Z</time></trkpt><trkpt lat="42.9053733" lon="11.9116717"><ele>393.0</ele><time>2026-03-29T11:44:27.068Z</time></trkpt><trkpt lat="42.9053783" lon="11.9115133"><ele>393.0</ele><time>2026-03-29T11:44:29.068Z</time></trkpt><trkpt lat="42.905375" lon="11.9113617"><ele>394.3333333333333</ele><time>2026-03-29T11:44:31.068Z</time></trkpt><trkpt lat="42.9053817" lon="11.9112"><ele>395.66666666666663</ele><time>2026-03-29T11:44:33.068Z</time></trkpt><trkpt lat="42.90539" lon="11.9111067"><ele>397.0</ele><time>2026-03-29T11:44:34.068Z</time></trkpt><trkpt lat="42.905405" lon="11.911015"><ele>398.3333333333333</ele><time>2026-03-29T11:44:35.068Z</time></trkpt><trkpt lat="42.9054083" lon="11.9109133"><ele>399.66666666666663</ele><time>2026-03-29T11:44:36.068Z</time></trkpt><trkpt lat="42.9054283" lon="11.910775"><ele>401.0</ele><time>2026-03-29T11:44:38.067Z</time></trkpt><trkpt lat="42.9054417" lon="11.9106817"><ele>403.4</ele><time>2026-03-29T11:44:40.068Z</time></trkpt><trkpt lat="42.905435" lon="11.910565"><ele>405.8</ele><time>2026-03-29T11:44:42.067Z</time></trkpt><trkpt lat="42.9053917" lon="11.9104033"><ele>408.2</ele><time>2026-03-29T11:44:44.068Z</time></trkpt><trkpt lat="42.90537" lon="11.910295"><ele>410.59999999999997</ele><time>2026-03-29T11:44:45.068Z</time></trkpt><trkpt lat="42.9053517" lon="11.910175"><ele>413.0</ele><time>2026-03-29T11:44:46.068Z</time></trkpt><trkpt lat="42.9053317" lon="11.9100533"><ele>415.59999999999997</ele><time>2026-03-29T11:44:47.068Z</time></trkpt><trkpt lat="42.9053" lon="11.9099317"><ele>418.2</ele><time>2026-03-29T11:44:48.068Z</time></trkpt><trkpt lat="42.9052633" lon="11.9098033"><ele>420.8</ele><time>2026-03-29T11:44:49.068Z</time></trkpt><trkpt lat="42.905225" lon="11.90967"><ele>423.4</ele><time>2026-03-29T11:44:50.068Z</time></trkpt><trkpt lat="42.9051933" lon="11.9095267"><ele>426.0</ele><time>2026-03-29T11:44:51.068Z</time></trkpt><trkpt lat="42.9051617" lon="11.9093833"><ele>428.5</ele><time>2026-03-29T11:44:52.068Z</time></trkpt><trkpt lat="42.9051467" lon="11.909235"><ele>431.0</ele><time>2026-03-29T11:44:53.068Z</time></trkpt><trkpt lat="42.9051333" lon="11.909075"><ele>433.5</ele><time>2026-03-29T11:44:54.068Z</time></trkpt><trkpt lat="42.9051267" lon="11.908915"><ele>436.0</ele><time>2026-03-29T11:44:55.068Z</time></trkpt><trkpt lat="42.90513" lon="11.90875"><ele>436.0</ele><time>2026-03-29T11:44:56.068Z</time></trkpt><trkpt lat="42.9051417" lon="11.9085867"><ele>436.0</ele><time>2026-03-29T11:44:57.067Z</time></trkpt><trkpt lat="42.9051633" lon="11.9084267"><ele>436.0</ele><time>2026-03-29T11:44:58.067Z</time></trkpt><trkpt lat="42.905195" lon="11.9082583"><ele>436.0</ele><time>2026-03-29T11:44:59.068Z</time></trkpt><trkpt lat="42.9052433" lon="11.9080983"><ele>437.0</ele><time>2026-03-29T11:45:00.068Z</time></trkpt><trkpt lat="42.9052783" lon="11.9079483"><ele>438.0</ele><time>2026-03-29T11:45:01.067Z</time></trkpt><trkpt lat="42.9052967" lon="11.907785"><ele>439.0</ele><time>2026-03-29T11:45:02.068Z</time></trkpt><trkpt lat="42.905275" lon="11.9076317"><ele>440.0</ele><time>2026-03-29T11:45:03.068Z</time></trkpt><trkpt lat="42.9052183" lon="11.9074883"><ele>441.0</ele><time>2026-03-29T11:45:04.067Z</time></trkpt><trkpt lat="42.9051417" lon="11.9073467"><ele>442.0</ele><time>2026-03-29T11:45:05.068Z</time></trkpt><trkpt lat="42.9050633" lon="11.9072083"><ele>443.0</ele><time>2026-03-29T11:45:06.068Z</time></trkpt><trkpt lat="42.9049733" lon="11.9070583"><ele>444.0</ele><time>2026-03-29T11:45:07.067Z</time></trkpt><trkpt lat="42.9048933" lon="11.9068967"><ele>441.5</ele><time>2026-03-29T11:45:08.068Z</time></trkpt><trkpt lat="42.9048283" lon="11.9067233"><ele>439.0</ele><time>2026-03-29T11:45:09.068Z</time></trkpt><trkpt lat="42.90478" lon="11.9065417"><ele>436.5</ele><time>2026-03-29T11:45:10.068Z</time></trkpt><trkpt lat="42.9047433" lon="11.906345"><ele>434.0</ele><time>2026-03-29T11:45:11.068Z</time></trkpt><trkpt lat="42.9046983" lon="11.9061617"><ele>434.0</ele><time>2026-03-29T11:45:12.068Z</time></trkpt><trkpt lat="42.9046317" lon="11.9059883"><ele>434.0</ele><time>2026-03-29T11:45:13.068Z</time></trkpt><trkpt lat="42.9045617" lon="11.90582"><ele>434.0</ele><time>2026-03-29T11:45:14.068Z</time></trkpt><trkpt lat="42.9044783" lon="11.9056533"><ele>434.0</ele><time>2026-03-29T11:45:15.068Z</time></trkpt><trkpt lat="42.9044017" lon="11.9054867"><ele>431.25</ele><time>2026-03-29T11:45:16.068Z</time></trkpt><trkpt lat="42.9043133" lon="11.905335"><ele>428.5</ele><time>2026-03-29T11:45:17.068Z</time></trkpt><trkpt lat="42.9042567" lon="11.90518"><ele>425.75</ele><time>2026-03-29T11:45:18.068Z</time></trkpt><trkpt lat="42.9042217" lon="11.9050083"><ele>423.0</ele><time>2026-03-29T11:45:19.067Z</time></trkpt><trkpt lat="42.9042017" lon="11.904815"><ele>423.0</ele><time>2026-03-29T11:45:20.067Z</time></trkpt><trkpt lat="42.90418" lon="11.9046017"><ele>423.0</ele><time>2026-03-29T11:45:21.068Z</time></trkpt><trkpt lat="42.9041533" lon="11.9044033"><ele>423.0</ele><time>2026-03-29T11:45:22.068Z</time></trkpt><trkpt lat="42.904135" lon="11.9042117"><ele>423.0</ele><time>2026-03-29T11:45:23.068Z</time></trkpt><trkpt lat="42.9041283" lon="11.904045"><ele>425.5</ele><time>2026-03-29T11:45:24.068Z</time></trkpt><trkpt lat="42.9041233" lon="11.9038883"><ele>428.0</ele><time>2026-03-29T11:45:25.068Z</time></trkpt><trkpt lat="42.9041483" lon="11.9037367"><ele>430.5</ele><time>2026-03-29T11:45:26.068Z</time></trkpt><trkpt lat="42.9042083" lon="11.903595"><ele>433.0</ele><time>2026-03-29T11:45:27.068Z</time></trkpt><trkpt lat="42.904285" lon="11.9034533"><ele>439.6666666666667</ele><time>2026-03-29T11:45:28.068Z</time></trkpt><trkpt lat="42.9043817" lon="11.9033"><ele>446.33333333333337</ele><time>2026-03-29T11:45:29.067Z</time></trkpt><trkpt lat="42.9045" lon="11.9031417"><ele>453.0</ele><time>2026-03-29T11:45:30.068Z</time></trkpt><trkpt lat="42.9046317" lon="11.902975"><ele>453.0</ele><time>2026-03-29T11:45:31.067Z</time></trkpt><trkpt lat="42.9047667" lon="11.902815"><ele>453.0</ele><time>2026-03-29T11:45:32.068Z</time></trkpt><trkpt lat="42.9048983" lon="11.9026467"><ele>453.0</ele><time>2026-03-29T11:45:33.068Z</time></trkpt><trkpt lat="42.9050183" lon="11.9024833"><ele>455.0</ele><time>2026-03-29T11:45:34.068Z</time></trkpt><trkpt lat="42.9051267" lon="11.9023367"><ele>457.0</ele><time>2026-03-29T11:45:35.067Z</time></trkpt><trkpt lat="42.9052383" lon="11.9022133"><ele>459.0</ele><time>2026-03-29T11:45:36.068Z</time></trkpt><trkpt lat="42.9053117" lon="11.90208"><ele>461.0</ele><time>2026-03-29T11:45:37.068Z</time></trkpt><trkpt lat="42.9053633" lon="11.9019383"><ele>461.0</ele><time>2026-03-29T11:45:38.068Z</time></trkpt><trkpt lat="42.9053817" lon="11.901795"><ele>461.0</ele><time>2026-03-29T11:45:39.068Z</time></trkpt><trkpt lat="42.905345" lon="11.901645"><ele>461.0</ele><time>2026-03-29T11:45:40.068Z</time></trkpt><trkpt lat="42.905265" lon="11.901545"><ele>461.0</ele><time>2026-03-29T11:45:41.068Z</time></trkpt><trkpt lat="42.9051733" lon="11.90147"><ele>461.0</ele><time>2026-03-29T11:45:42.067Z</time></trkpt><trkpt lat="42.9050617" lon="11.9014267"><ele>454.3333333333333</ele><time>2026-03-29T11:45:43.068Z</time></trkpt><trkpt lat="42.904915" lon="11.9014267"><ele>447.66666666666663</ele><time>2026-03-29T11:45:44.068Z</time></trkpt><trkpt lat="42.9047617" lon="11.901455"><ele>441.0</ele><time>2026-03-29T11:45:45.067Z</time></trkpt><trkpt lat="42.9046" lon="11.9015017"><ele>441.0</ele><time>2026-03-29T11:45:46.067Z</time></trkpt><trkpt lat="42.90444" lon="11.9015417"><ele>441.0</ele><time>2026-03-29T11:45:47.068Z</time></trkpt><trkpt lat="42.904295" lon="11.901555"><ele>441.0</ele><time>2026-03-29T11:45:48.068Z</time></trkpt><trkpt lat="42.904155" lon="11.901535"><ele>441.0</ele><time>2026-03-29T11:45:49.068Z</time></trkpt><trkpt lat="42.9040217" lon="11.90145"><ele>439.0</ele><time>2026-03-29T11:45:50.068Z</time></trkpt><trkpt lat="42.9039033" lon="11.90132"><ele>437.0</ele><time>2026-03-29T11:45:51.067Z</time></trkpt><trkpt lat="42.903825" lon="11.90115"><ele>435.0</ele><time>2026-03-29T11:45:52.068Z</time></trkpt><trkpt lat="42.903775" lon="11.9009383"><ele>440.33333333333337</ele><time>2026-03-29T11:45:53.067Z</time></trkpt><trkpt lat="42.9037433" lon="11.9007117"><ele>445.6666666666667</ele><time>2026-03-29T11:45:54.068Z</time></trkpt><trkpt lat="42.9037133" lon="11.900495"><ele>451.0</ele><time>2026-03-29T11:45:55.068Z</time></trkpt><trkpt lat="42.903655" lon="11.9003"><ele>451.0</ele><time>2026-03-29T11:45:56.068Z</time></trkpt><trkpt lat="42.9035633" lon="11.9001317"><ele>451.0</ele><time>2026-03-29T11:45:57.067Z</time></trkpt><trkpt lat="42.9034433" lon="11.9000083"><ele>451.0</ele><time>2026-03-29T11:45:58.067Z</time></trkpt><trkpt lat="42.9032917" lon="11.899895"><ele>449.0</ele><time>2026-03-29T11:45:59.068Z</time></trkpt><trkpt lat="42.90313" lon="11.8998017"><ele>447.0</ele><time>2026-03-29T11:46:00.068Z</time></trkpt><trkpt lat="42.9029667" lon="11.8997017"><ele>445.0</ele><time>2026-03-29T11:46:01.068Z</time></trkpt><trkpt lat="42.9028217" lon="11.8995833"><ele>445.0</ele><time>2026-03-29T11:46:02.067Z</time></trkpt><trkpt lat="42.9027067" lon="11.89943"><ele>445.0</ele><time>2026-03-29T11:46:03.068Z</time></trkpt><trkpt lat="42.9026133" lon="11.8992533"><ele>445.0</ele><time>2026-03-29T11:46:04.068Z</time></trkpt><trkpt lat="42.902525" lon="11.8990417"><ele>445.0</ele><time>2026-03-29T11:46:05.068Z</time></trkpt><trkpt lat="42.9024367" lon="11.898795"><ele>445.0</ele><time>2026-03-29T11:46:06.068Z</time></trkpt><trkpt lat="42.9023417" lon="11.8985667"><ele>445.0</ele><time>2026-03-29T11:46:07.068Z</time></trkpt><trkpt lat="42.9022267" lon="11.898375"><ele>447.6666666666667</ele><time>2026-03-29T11:46:08.068Z</time></trkpt><trkpt lat="42.9020967" lon="11.8982017"><ele>450.33333333333337</ele><time>2026-03-29T11:46:09.068Z</time></trkpt><trkpt lat="42.9019433" lon="11.8980417"><ele>453.0</ele><time>2026-03-29T11:46:10.068Z</time></trkpt><trkpt lat="42.9017867" lon="11.8979117"><ele>450.0</ele><time>2026-03-29T11:46:11.068Z</time></trkpt><trkpt lat="42.9016283" lon="11.897815"><ele>447.0</ele><time>2026-03-29T11:46:12.067Z</time></trkpt><trkpt lat="42.901465" lon="11.8977267"><ele>444.0</ele><time>2026-03-29T11:46:13.068Z</time></trkpt><trkpt lat="42.90131" lon="11.8976333"><ele>446.5</ele><time>2026-03-29T11:46:14.068Z</time></trkpt><trkpt lat="42.90117" lon="11.8975317"><ele>449.0</ele><time>2026-03-29T11:46:15.068Z</time></trkpt><trkpt lat="42.90106" lon="11.8973967"><ele>451.5</ele><time>2026-03-29T11:46:16.068Z</time></trkpt><trkpt lat="42.90099" lon="11.8972433"><ele>454.0</ele><time>2026-03-29T11:46:17.068Z</time></trkpt><trkpt lat="42.9009717" lon="11.8970633"><ele>454.0</ele><time>2026-03-29T11:46:18.068Z</time></trkpt><trkpt lat="42.90098" lon="11.8968317"><ele>454.0</ele><time>2026-03-29T11:46:19.068Z</time></trkpt><trkpt lat="42.900995" lon="11.8965783"><ele>454.0</ele><time>2026-03-29T11:46:20.067Z</time></trkpt><trkpt lat="42.9010333" lon="11.8963367"><ele>455.75</ele><time>2026-03-29T11:46:21.068Z</time></trkpt><trkpt lat="42.9010633" lon="11.89612"><ele>457.5</ele><time>2026-03-29T11:46:22.067Z</time></trkpt><trkpt lat="42.90109" lon="11.895925"><ele>459.25</ele><time>2026-03-29T11:46:23.068Z</time></trkpt><trkpt lat="42.9011017" lon="11.8957367"><ele>461.0</ele><time>2026-03-29T11:46:24.067Z</time></trkpt><trkpt lat="42.9010983" lon="11.8955767"><ele>461.0</ele><time>2026-03-29T11:46:25.068Z</time></trkpt><trkpt lat="42.9010433" lon="11.8954383"><ele>461.0</ele><time>2026-03-29T11:46:26.067Z</time></trkpt><trkpt lat="42.9009483" lon="11.895345"><ele>461.0</ele><time>2026-03-29T11:46:27.068Z</time></trkpt><trkpt lat="42.900825" lon="11.89529"><ele>461.0</ele><time>2026-03-29T11:46:28.068Z</time></trkpt><trkpt lat="42.9006617" lon="11.8952317"><ele>459.3333333333333</ele><time>2026-03-29T11:46:29.068Z</time></trkpt><trkpt lat="42.9004883" lon="11.895145"><ele>457.66666666666663</ele><time>2026-03-29T11:46:30.067Z</time></trkpt><trkpt lat="42.9003217" lon="11.8950333"><ele>456.0</ele><time>2026-03-29T11:46:31.068Z</time></trkpt><trkpt lat="42.90015" lon="11.8949517"><ele>456.33333333333337</ele><time>2026-03-29T11:46:32.068Z</time></trkpt><trkpt lat="42.8999817" lon="11.8948767"><ele>456.6666666666667</ele><time>2026-03-29T11:46:33.068Z</time></trkpt><trkpt lat="42.8997883" lon="11.8948117"><ele>457.0</ele><time>2026-03-29T11:46:34.068Z</time></trkpt><trkpt lat="42.89959" lon="11.8947067"><ele>457.0</ele><time>2026-03-29T11:46:35.068Z</time></trkpt><trkpt lat="42.8993783" lon="11.8945817"><ele>457.0</ele><time>2026-03-29T11:46:36.068Z</time></trkpt><trkpt lat="42.8991633" lon="11.8944333"><ele>456.6666666666667</ele><time>2026-03-29T11:46:37.067Z</time></trkpt><trkpt lat="42.89896" lon="11.8942917"><ele>456.33333333333337</ele><time>2026-03-29T11:46:38.068Z</time></trkpt><trkpt lat="42.8987833" lon="11.8941683"><ele>456.0</ele><time>2026-03-29T11:46:39.068Z</time></trkpt><trkpt lat="42.898615" lon="11.89405"><ele>460.33333333333337</ele><time>2026-03-29T11:46:40.068Z</time></trkpt><trkpt lat="42.8984583" lon="11.893915"><ele>464.6666666666667</ele><time>2026-03-29T11:46:41.068Z</time></trkpt><trkpt lat="42.8983167" lon="11.89377"><ele>469.0</ele><time>2026-03-29T11:46:42.067Z</time></trkpt><trkpt lat="42.898185" lon="11.8936333"><ele>469.0</ele><time>2026-03-29T11:46:43.068Z</time></trkpt><trkpt lat="42.898075" lon="11.8934667"><ele>469.0</ele><time>2026-03-29T11:46:44.068Z</time></trkpt><trkpt lat="42.8979767" lon="11.8932517"><ele>469.0</ele><time>2026-03-29T11:46:45.068Z</time></trkpt><trkpt lat="42.8978817" lon="11.8930167"><ele>475.33333333333337</ele><time>2026-03-29T11:46:46.068Z</time></trkpt><trkpt lat="42.89778" lon="11.8927817"><ele>481.66666666666663</ele><time>2026-03-29T11:46:47.067Z</time></trkpt><trkpt lat="42.8977017" lon="11.892555"><ele>488.0</ele><time>2026-03-29T11:46:48.068Z</time></trkpt><trkpt lat="42.8976533" lon="11.8923267"><ele>489.0</ele><time>2026-03-29T11:46:49.068Z</time></trkpt><trkpt lat="42.897635" lon="11.8921133"><ele>490.0</ele><time>2026-03-29T11:46:50.068Z</time></trkpt><trkpt lat="42.897605" lon="11.8918933"><ele>491.0</ele><time>2026-03-29T11:46:51.068Z</time></trkpt><trkpt lat="42.897555" lon="11.8917033"><ele>491.0</ele><time>2026-03-29T11:46:52.067Z</time></trkpt><trkpt lat="42.8974867" lon="11.8915117"><ele>491.0</ele><time>2026-03-29T11:46:53.068Z</time></trkpt><trkpt lat="42.8974333" lon="11.8913383"><ele>491.0</ele><time>2026-03-29T11:46:54.068Z</time></trkpt><trkpt lat="42.8974017" lon="11.8911517"><ele>491.0</ele><time>2026-03-29T11:46:55.068Z</time></trkpt><trkpt lat="42.8973883" lon="11.89097"><ele>492.5</ele><time>2026-03-29T11:46:56.068Z</time></trkpt><trkpt lat="42.897405" lon="11.8907767"><ele>494.0</ele><time>2026-03-29T11:46:57.068Z</time></trkpt><trkpt lat="42.8974483" lon="11.8905967"><ele>495.5</ele><time>2026-03-29T11:46:58.068Z</time></trkpt><trkpt lat="42.8974967" lon="11.8904433"><ele>497.0</ele><time>2026-03-29T11:46:59.068Z</time></trkpt><trkpt lat="42.8975283" lon="11.8903"><ele>497.0</ele><time>2026-03-29T11:47:00.068Z</time></trkpt><trkpt lat="42.8975233" lon="11.8901483"><ele>497.0</ele><time>2026-03-29T11:47:01.068Z</time></trkpt><trkpt lat="42.89745" lon="11.8899933"><ele>497.0</ele><time>2026-03-29T11:47:02.067Z</time></trkpt><trkpt lat="42.8973367" lon="11.8898283"><ele>497.0</ele><time>2026-03-29T11:47:03.067Z</time></trkpt><trkpt lat="42.8972167" lon="11.889665"><ele>498.5</ele><time>2026-03-29T11:47:04.068Z</time></trkpt><trkpt lat="42.8970817" lon="11.8895367"><ele>500.0</ele><time>2026-03-29T11:47:05.068Z</time></trkpt><trkpt lat="42.8969517" lon="11.8894483"><ele>501.5</ele><time>2026-03-29T11:47:06.068Z</time></trkpt><trkpt lat="42.8968333" lon="11.8893883"><ele>503.0</ele><time>2026-03-29T11:47:07.068Z</time></trkpt><trkpt lat="42.8967117" lon="11.88934"><ele>502.59999999999997</ele><time>2026-03-29T11:47:08.068Z</time></trkpt><trkpt lat="42.896625" lon="11.889245"><ele>502.19999999999993</ele><time>2026-03-29T11:47:09.068Z</time></trkpt><trkpt lat="42.8965817" lon="11.8891233"><ele>501.8</ele><time>2026-03-29T11:47:10.068Z</time></trkpt><trkpt lat="42.8965933" lon="11.8889783"><ele>501.4</ele><time>2026-03-29T11:47:11.068Z</time></trkpt><trkpt lat="42.89664" lon="11.8888233"><ele>501.0</ele><time>2026-03-29T11:47:12.068Z</time></trkpt><trkpt lat="42.89672" lon="11.8886667"><ele>504.25</ele><time>2026-03-29T11:47:13.068Z</time></trkpt><trkpt lat="42.8968217" lon="11.8885017"><ele>507.5</ele><time>2026-03-29T11:47:14.068Z</time></trkpt><trkpt lat="42.8969317" lon="11.8883683"><ele>510.75</ele><time>2026-03-29T11:47:15.067Z</time></trkpt><trkpt lat="42.8970117" lon="11.888255"><ele>514.0</ele><time>2026-03-29T11:47:16.067Z</time></trkpt><trkpt lat="42.8970933" lon="11.8881267"><ele>514.8</ele><time>2026-03-29T11:47:17.068Z</time></trkpt><trkpt lat="42.897145" lon="11.887975"><ele>515.5999999999999</ele><time>2026-03-29T11:47:18.068Z</time></trkpt><trkpt lat="42.897145" lon="11.8878467"><ele>516.4</ele><time>2026-03-29T11:47:19.067Z</time></trkpt><trkpt lat="42.89708" lon="11.8877383"><ele>517.1999999999999</ele><time>2026-03-29T11:47:20.068Z</time></trkpt><trkpt lat="42.8969917" lon="11.887665"><ele>518.0</ele><time>2026-03-29T11:47:21.067Z</time></trkpt><trkpt lat="42.8968667" lon="11.88764"><ele>517.75</ele><time>2026-03-29T11:47:22.067Z</time></trkpt><trkpt lat="42.89673" lon="11.88765"><ele>517.5</ele><time>2026-03-29T11:47:23.068Z</time></trkpt><trkpt lat="42.8965933" lon="11.8876683"><ele>517.25</ele><time>2026-03-29T11:47:24.068Z</time></trkpt><trkpt lat="42.89646" lon="11.8876433"><ele>517.0</ele><time>2026-03-29T11:47:25.068Z</time></trkpt><trkpt lat="42.8963533" lon="11.887545"><ele>517.0</ele><time>2026-03-29T11:47:26.067Z</time></trkpt><trkpt lat="42.8962733" lon="11.8873967"><ele>517.0</ele><time>2026-03-29T11:47:27.068Z</time></trkpt><trkpt lat="42.896215" lon="11.887205"><ele>517.0</ele><time>2026-03-29T11:47:28.068Z</time></trkpt><trkpt lat="42.89615" lon="11.8869917"><ele>517.0</ele><time>2026-03-29T11:47:29.068Z</time></trkpt><trkpt lat="42.8960717" lon="11.8867767"><ele>517.0</ele><time>2026-03-29T11:47:30.068Z</time></trkpt><trkpt lat="42.89598" lon="11.8865933"><ele>517.0</ele><time>2026-03-29T11:47:31.068Z</time></trkpt><trkpt lat="42.8958817" lon="11.8864533"><ele>517.0</ele><time>2026-03-29T11:47:32.068Z</time></trkpt><trkpt lat="42.89579" lon="11.88635"><ele>517.0</ele><time>2026-03-29T11:47:33.068Z</time></trkpt><trkpt lat="42.8957217" lon="11.88627"><ele>517.0</ele><time>2026-03-29T11:47:34.067Z</time></trkpt><trkpt lat="42.8956717" lon="11.8862017"><ele>517.0</ele><time>2026-03-29T11:47:35.067Z</time></trkpt><trkpt lat="42.8956733" lon="11.8861033"><ele>517.0</ele><time>2026-03-29T11:47:37.068Z</time></trkpt><trkpt lat="42.89574" lon="11.8860917"><ele>517.0</ele><time>2026-03-29T11:47:39.067Z</time></trkpt><trkpt lat="42.89584" lon="11.8860733"><ele>517.0</ele><time>2026-03-29T11:47:41.068Z</time></trkpt><trkpt lat="42.8959083" lon="11.886065"><ele>517.0</ele><time>2026-03-29T11:47:42.067Z</time></trkpt><trkpt lat="42.8959817" lon="11.8860517"><ele>517.0</ele><time>2026-03-29T11:47:43.068Z</time></trkpt><trkpt lat="42.8960567" lon="11.88604"><ele>517.0</ele><time>2026-03-29T11:47:44.067Z</time></trkpt><trkpt lat="42.8961367" lon="11.8860183"><ele>517.0</ele><time>2026-03-29T11:47:45.067Z</time></trkpt><trkpt lat="42.8962" lon="11.8859817"><ele>517.0</ele><time>2026-03-29T11:47:46.067Z</time></trkpt><trkpt lat="42.8962567" lon="11.885855"><ele>522.0</ele><time>2026-03-29T11:47:48.068Z</time></trkpt><trkpt lat="42.8962802" lon="11.8857394"><ele>527.0</ele><time>2026-03-29T11:47:50.068Z</time></trkpt><trkpt lat="42.896273" lon="11.8856295"><ele>532.0</ele><time>2026-03-29T11:47:52.068Z</time></trkpt><trkpt lat="42.8962446" lon="11.8855166"><ele>537.0</ele><time>2026-03-29T11:47:54.067Z</time></trkpt><trkpt lat="42.8962929" lon="11.8854275"><ele>542.0</ele><time>2026-03-29T11:47:56.067Z</time></trkpt><trkpt lat="42.896423" lon="11.8854215"><ele>542.0</ele><time>2026-03-29T11:47:58.068Z</time></trkpt><trkpt lat="42.8965074" lon="11.8854109"><ele>542.0</ele><time>2026-03-29T11:47:59.068Z</time></trkpt><trkpt lat="42.8965941" lon="11.8853669"><ele>542.0</ele><time>2026-03-29T11:48:00.068Z</time></trkpt><trkpt lat="42.8966845" lon="11.8852837"><ele>542.0</ele><time>2026-03-29T11:48:01.067Z</time></trkpt><trkpt lat="42.8967924" lon="11.8851463"><ele>542.0</ele><time>2026-03-29T11:48:02.068Z</time></trkpt><trkpt lat="42.8969181" lon="11.8849398"><ele>548.6666666666666</ele><time>2026-03-29T11:48:03.067Z</time></trkpt><trkpt lat="42.8970327" lon="11.8847108"><ele>555.3333333333334</ele><time>2026-03-29T11:48:04.068Z</time></trkpt><trkpt lat="42.8971258" lon="11.8845105"><ele>562.0</ele><time>2026-03-29T11:48:05.068Z</time></trkpt><trkpt lat="42.8971974" lon="11.8843443"><ele>562.0</ele><time>2026-03-29T11:48:06.068Z</time></trkpt><trkpt lat="42.8972562" lon="11.8842117"><ele>562.0</ele><time>2026-03-29T11:48:07.068Z</time></trkpt><trkpt lat="42.8973058" lon="11.8841289"><ele>562.0</ele><time>2026-03-29T11:48:08.067Z</time></trkpt><trkpt lat="42.8973776" lon="11.8840656"><ele>562.0</ele><time>2026-03-29T11:48:10.068Z</time></trkpt><trkpt lat="42.8974572" lon="11.8841408"><ele>562.0</ele><time>2026-03-29T11:48:12.068Z</time></trkpt><trkpt lat="42.897511" lon="11.8842127"><ele>562.0</ele><time>2026-03-29T11:48:13.067Z</time></trkpt><trkpt lat="42.8975682" lon="11.8842945"><ele>564.6666666666667</ele><time>2026-03-29T11:48:14.067Z</time></trkpt><trkpt lat="42.8976296" lon="11.8843805"><ele>567.3333333333334</ele><time>2026-03-29T11:48:15.068Z</time></trkpt><trkpt lat="42.8976842" lon="11.8844757"><ele>570.0</ele><time>2026-03-29T11:48:16.068Z</time></trkpt><trkpt lat="42.8977254" lon="11.8845836"><ele>572.6666666666666</ele><time>2026-03-29T11:48:17.067Z</time></trkpt><trkpt lat="42.8977777" lon="11.8846856"><ele>575.3333333333333</ele><time>2026-03-29T11:48:18.068Z</time></trkpt><trkpt lat="42.8978302" lon="11.8847863"><ele>578.0</ele><time>2026-03-29T11:48:19.067Z</time></trkpt><trkpt lat="42.8978844" lon="11.8848792"><ele>578.0</ele><time>2026-03-29T11:48:20.068Z</time></trkpt><trkpt lat="42.8979432" lon="11.884961"><ele>578.0</ele><time>2026-03-29T11:48:21.068Z</time></trkpt><trkpt lat="42.8980094" lon="11.8850263"><ele>578.0</ele><time>2026-03-29T11:48:22.067Z</time></trkpt><trkpt lat="42.8980764" lon="11.8850765"><ele>578.0</ele><time>2026-03-29T11:48:23.068Z</time></trkpt><trkpt lat="42.8981461" lon="11.8851042"><ele>578.0</ele><time>2026-03-29T11:48:24.067Z</time></trkpt><trkpt lat="42.8982214" lon="11.8851007"><ele>578.0</ele><time>2026-03-29T11:48:25.068Z</time></trkpt><trkpt lat="42.8982971" lon="11.885082"><ele>578.0</ele><time>2026-03-29T11:48:26.068Z</time></trkpt><trkpt lat="42.8983733" lon="11.8850587"><ele>578.0</ele><time>2026-03-29T11:48:27.067Z</time></trkpt><trkpt lat="42.8984528" lon="11.8850353"><ele>578.0</ele><time>2026-03-29T11:48:28.068Z</time></trkpt><trkpt lat="42.8985429" lon="11.8850104"><ele>578.0</ele><time>2026-03-29T11:48:29.068Z</time></trkpt><trkpt lat="42.8986302" lon="11.8849818"><ele>578.0</ele><time>2026-03-29T11:48:30.067Z</time></trkpt><trkpt lat="42.8987208" lon="11.884946"><ele>578.0</ele><time>2026-03-29T11:48:31.068Z</time></trkpt><trkpt lat="42.8987954" lon="11.884914"><ele>578.8333333333333</ele><time>2026-03-29T11:48:32.068Z</time></trkpt><trkpt lat="42.8988565" lon="11.8848754"><ele>579.6666666666666</ele><time>2026-03-29T11:48:33.068Z</time></trkpt><trkpt lat="42.8989187" lon="11.8847636"><ele>580.5</ele><time>2026-03-29T11:48:35.068Z</time></trkpt><trkpt lat="42.8989367" lon="11.8846085"><ele>581.3333333333334</ele><time>2026-03-29T11:48:37.068Z</time></trkpt><trkpt lat="42.8989442" lon="11.884514"><ele>582.1666666666667</ele><time>2026-03-29T11:48:38.067Z</time></trkpt><trkpt lat="42.8989572" lon="11.8844219"><ele>583.0</ele><time>2026-03-29T11:48:39.068Z</time></trkpt><trkpt lat="42.89902" lon="11.8842767"><ele>587.0</ele><time>2026-03-29T11:48:41.068Z</time></trkpt><trkpt lat="42.8991057" lon="11.8841707"><ele>591.0</ele><time>2026-03-29T11:48:43.068Z</time></trkpt><trkpt lat="42.8991684" lon="11.8840894"><ele>595.0</ele><time>2026-03-29T11:48:45.068Z</time></trkpt><trkpt lat="42.8991746" lon="11.8839995"><ele>599.0</ele><time>2026-03-29T11:48:48.069Z</time></trkpt><trkpt lat="42.8991151" lon="11.8839415"><ele>603.0</ele><time>2026-03-29T11:48:50.069Z</time></trkpt><trkpt lat="42.8990047" lon="11.883895"><ele>603.0</ele><time>2026-03-29T11:48:52.068Z</time></trkpt><trkpt lat="42.8989392" lon="11.8838516"><ele>603.0</ele><time>2026-03-29T11:48:53.068Z</time></trkpt><trkpt lat="42.898892" lon="11.883789"><ele>603.0</ele><time>2026-03-29T11:48:54.069Z</time></trkpt><trkpt lat="42.8988574" lon="11.8837092"><ele>603.0</ele><time>2026-03-29T11:48:55.069Z</time></trkpt><trkpt lat="42.8988182" lon="11.8836211"><ele>603.0</ele><time>2026-03-29T11:48:56.069Z</time></trkpt><trkpt lat="42.898792" lon="11.8835348"><ele>603.0</ele><time>2026-03-29T11:48:57.068Z</time></trkpt><trkpt lat="42.898768" lon="11.8834436"><ele>603.0</ele><time>2026-03-29T11:48:58.069Z</time></trkpt><trkpt lat="42.8987415" lon="11.883355"><ele>605.4285714285714</ele><time>2026-03-29T11:48:59.069Z</time></trkpt><trkpt lat="42.8987157" lon="11.8832693"><ele>607.8571428571428</ele><time>2026-03-29T11:49:00.069Z</time></trkpt><trkpt lat="42.8986825" lon="11.8831809"><ele>610.2857142857142</ele><time>2026-03-29T11:49:01.068Z</time></trkpt><trkpt lat="42.8986524" lon="11.883102"><ele>612.7142857142858</ele><time>2026-03-29T11:49:02.069Z</time></trkpt><trkpt lat="42.8986283" lon="11.8830102"><ele>615.1428571428571</ele><time>2026-03-29T11:49:03.069Z</time></trkpt><trkpt lat="42.8986112" lon="11.8829232"><ele>617.5714285714286</ele><time>2026-03-29T11:49:04.069Z</time></trkpt><trkpt lat="42.8985924" lon="11.8828367"><ele>620.0</ele><time>2026-03-29T11:49:05.069Z</time></trkpt><trkpt lat="42.8985226" lon="11.8827335"><ele>618.4</ele><time>2026-03-29T11:49:07.069Z</time></trkpt><trkpt lat="42.898395" lon="11.8826962"><ele>616.8</ele><time>2026-03-29T11:49:09.068Z</time></trkpt><trkpt lat="42.8983114" lon="11.8826718"><ele>615.2</ele><time>2026-03-29T11:49:10.068Z</time></trkpt><trkpt lat="42.8982231" lon="11.8826349"><ele>613.6</ele><time>2026-03-29T11:49:11.069Z</time></trkpt><trkpt lat="42.8981252" lon="11.8825967"><ele>612.0</ele><time>2026-03-29T11:49:12.069Z</time></trkpt><trkpt lat="42.8980125" lon="11.8825578"><ele>612.0</ele><time>2026-03-29T11:49:13.069Z</time></trkpt><trkpt lat="42.8978845" lon="11.882519"><ele>612.0</ele><time>2026-03-29T11:49:14.069Z</time></trkpt><trkpt lat="42.8977644" lon="11.8824656"><ele>612.0</ele><time>2026-03-29T11:49:15.069Z</time></trkpt><trkpt lat="42.8976562" lon="11.8823906"><ele>612.0</ele><time>2026-03-29T11:49:16.069Z</time></trkpt><trkpt lat="42.8975587" lon="11.8822942"><ele>607.75</ele><time>2026-03-29T11:49:17.069Z</time></trkpt><trkpt lat="42.8974811" lon="11.8821842"><ele>603.5</ele><time>2026-03-29T11:49:18.069Z</time></trkpt><trkpt lat="42.8974123" lon="11.8820624"><ele>599.25</ele><time>2026-03-29T11:49:19.069Z</time></trkpt><trkpt lat="42.8973388" lon="11.8819254"><ele>595.0</ele><time>2026-03-29T11:49:20.069Z</time></trkpt><trkpt lat="42.8972611" lon="11.8817766"><ele>602.0</ele><time>2026-03-29T11:49:21.069Z</time></trkpt><trkpt lat="42.8971796" lon="11.8816266"><ele>609.0</ele><time>2026-03-29T11:49:22.068Z</time></trkpt><trkpt lat="42.8970958" lon="11.8815014"><ele>616.0</ele><time>2026-03-29T11:49:23.068Z</time></trkpt><trkpt lat="42.8970186" lon="11.8814009"><ele>623.0</ele><time>2026-03-29T11:49:24.069Z</time></trkpt><trkpt lat="42.8969651" lon="11.8813092"><ele>623.0</ele><time>2026-03-29T11:49:25.068Z</time></trkpt><trkpt lat="42.8969148" lon="11.8812285"><ele>623.0</ele><time>2026-03-29T11:49:26.069Z</time></trkpt><trkpt lat="42.8968721" lon="11.8811341"><ele>623.0</ele><time>2026-03-29T11:49:27.069Z</time></trkpt><trkpt lat="42.8968251" lon="11.8810211"><ele>623.0</ele><time>2026-03-29T11:49:28.069Z</time></trkpt><trkpt lat="42.8967789" lon="11.8808899"><ele>623.0</ele><time>2026-03-29T11:49:29.068Z</time></trkpt><trkpt lat="42.8967247" lon="11.8807475"><ele>623.0</ele><time>2026-03-29T11:49:30.069Z</time></trkpt><trkpt lat="42.8966641" lon="11.8806177"><ele>623.0</ele><time>2026-03-29T11:49:31.068Z</time></trkpt><trkpt lat="42.8966076" lon="11.8805148"><ele>623.0</ele><time>2026-03-29T11:49:32.069Z</time></trkpt><trkpt lat="42.8965423" lon="11.8804285"><ele>623.0</ele><time>2026-03-29T11:49:33.069Z</time></trkpt><trkpt lat="42.8964688" lon="11.8803621"><ele>623.0</ele><time>2026-03-29T11:49:34.069Z</time></trkpt><trkpt lat="42.896396" lon="11.8803177"><ele>623.0</ele><time>2026-03-29T11:49:35.068Z</time></trkpt><trkpt lat="42.8963044" lon="11.8802904"><ele>623.0</ele><time>2026-03-29T11:49:36.069Z</time></trkpt><trkpt lat="42.8962077" lon="11.8802824"><ele>623.0</ele><time>2026-03-29T11:49:37.069Z</time></trkpt><trkpt lat="42.8961082" lon="11.8803003"><ele>623.0</ele><time>2026-03-29T11:49:38.069Z</time></trkpt><trkpt lat="42.8960251" lon="11.880329"><ele>623.0</ele><time>2026-03-29T11:49:39.068Z</time></trkpt><trkpt lat="42.8959603" lon="11.8803545"><ele>623.0</ele><time>2026-03-29T11:49:40.069Z</time></trkpt><trkpt lat="42.8958366" lon="11.8803499"><ele>623.8</ele><time>2026-03-29T11:49:42.068Z</time></trkpt><trkpt lat="42.8957747" lon="11.8803012"><ele>624.5999999999999</ele><time>2026-03-29T11:49:43.069Z</time></trkpt><trkpt lat="42.8956983" lon="11.8802303"><ele>625.4000000000001</ele><time>2026-03-29T11:49:44.069Z</time></trkpt><trkpt lat="42.8955979" lon="11.8801449"><ele>626.2</ele><time>2026-03-29T11:49:45.069Z</time></trkpt><trkpt lat="42.8954912" lon="11.8800508"><ele>627.0</ele><time>2026-03-29T11:49:46.068Z</time></trkpt><trkpt lat="42.8953892" lon="11.8799583"><ele>627.0</ele><time>2026-03-29T11:49:47.069Z</time></trkpt><trkpt lat="42.8953051" lon="11.8798563"><ele>627.0</ele><time>2026-03-29T11:49:48.069Z</time></trkpt><trkpt lat="42.8952327" lon="11.8797561"><ele>627.0</ele><time>2026-03-29T11:49:49.069Z</time></trkpt><trkpt lat="42.8951604" lon="11.8796794"><ele>627.0</ele><time>2026-03-29T11:49:50.069Z</time></trkpt><trkpt lat="42.8950774" lon="11.8796163"><ele>627.0</ele><time>2026-03-29T11:49:51.069Z</time></trkpt><trkpt lat="42.8949671" lon="11.879567"><ele>625.5</ele><time>2026-03-29T11:49:52.069Z</time></trkpt><trkpt lat="42.8948431" lon="11.8795209"><ele>624.0</ele><time>2026-03-29T11:49:53.068Z</time></trkpt><trkpt lat="42.894725" lon="11.8794812"><ele>622.5</ele><time>2026-03-29T11:49:54.069Z</time></trkpt><trkpt lat="42.8946144" lon="11.8794476"><ele>621.0</ele><time>2026-03-29T11:49:55.069Z</time></trkpt><trkpt lat="42.8945035" lon="11.8794408"><ele>621.0</ele><time>2026-03-29T11:49:56.069Z</time></trkpt><trkpt lat="42.8943805" lon="11.8794583"><ele>621.0</ele><time>2026-03-29T11:49:57.069Z</time></trkpt><trkpt lat="42.8942462" lon="11.8794952"><ele>621.0</ele><time>2026-03-29T11:49:58.069Z</time></trkpt><trkpt lat="42.894111" lon="11.8795287"><ele>621.0</ele><time>2026-03-29T11:49:59.069Z</time></trkpt><trkpt lat="42.8939914" lon="11.8795623"><ele>622.8</ele><time>2026-03-29T11:50:00.069Z</time></trkpt><trkpt lat="42.8938888" lon="11.8795951"><ele>624.6</ele><time>2026-03-29T11:50:01.069Z</time></trkpt><trkpt lat="42.8937957" lon="11.8796398"><ele>626.4</ele><time>2026-03-29T11:50:02.069Z</time></trkpt><trkpt lat="42.8936951" lon="11.8796951"><ele>628.2</ele><time>2026-03-29T11:50:03.069Z</time></trkpt><trkpt lat="42.8935808" lon="11.8797424"><ele>630.0</ele><time>2026-03-29T11:50:04.069Z</time></trkpt><trkpt lat="42.8934635" lon="11.8797659"><ele>630.0</ele><time>2026-03-29T11:50:05.069Z</time></trkpt><trkpt lat="42.8933442" lon="11.8797628"><ele>630.0</ele><time>2026-03-29T11:50:06.069Z</time></trkpt><trkpt lat="42.8932249" lon="11.8797324"><ele>630.0</ele><time>2026-03-29T11:50:07.069Z</time></trkpt><trkpt lat="42.8931245" lon="11.8796892"><ele>630.0</ele><time>2026-03-29T11:50:08.069Z</time></trkpt><trkpt lat="42.8930371" lon="11.879634"><ele>630.0</ele><time>2026-03-29T11:50:09.068Z</time></trkpt><trkpt lat="42.8929633" lon="11.8795667"><ele>630.0</ele><time>2026-03-29T11:50:10.068Z</time></trkpt><trkpt lat="42.8928833" lon="11.879495"><ele>630.0</ele><time>2026-03-29T11:50:11.068Z</time></trkpt><trkpt lat="42.892815" lon="11.8794333"><ele>630.0</ele><time>2026-03-29T11:50:12.069Z</time></trkpt><trkpt lat="42.8927433" lon="11.8793683"><ele>630.0</ele><time>2026-03-29T11:50:13.069Z</time></trkpt><trkpt lat="42.8926717" lon="11.8792983"><ele>630.0</ele><time>2026-03-29T11:50:14.069Z</time></trkpt><trkpt lat="42.892595" lon="11.8792333"><ele>630.0</ele><time>2026-03-29T11:50:15.069Z</time></trkpt><trkpt lat="42.8925233" lon="11.8791667"><ele>628.0</ele><time>2026-03-29T11:50:16.068Z</time></trkpt><trkpt lat="42.8924467" lon="11.879095"><ele>626.0</ele><time>2026-03-29T11:50:17.068Z</time></trkpt><trkpt lat="42.8923667" lon="11.8790167"><ele>624.0</ele><time>2026-03-29T11:50:18.069Z</time></trkpt><trkpt lat="42.8922833" lon="11.8789233"><ele>622.0</ele><time>2026-03-29T11:50:19.068Z</time></trkpt><trkpt lat="42.892215" lon="11.8788117"><ele>620.0</ele><time>2026-03-29T11:50:20.068Z</time></trkpt><trkpt lat="42.8921483" lon="11.87871"><ele>620.0</ele><time>2026-03-29T11:50:21.069Z</time></trkpt><trkpt lat="42.8920767" lon="11.8786333"><ele>620.0</ele><time>2026-03-29T11:50:22.069Z</time></trkpt><trkpt lat="42.892" lon="11.8785717"><ele>620.0</ele><time>2026-03-29T11:50:23.069Z</time></trkpt><trkpt lat="42.891915" lon="11.8785133"><ele>620.0</ele><time>2026-03-29T11:50:24.068Z</time></trkpt><trkpt lat="42.8918267" lon="11.87847"><ele>620.0</ele><time>2026-03-29T11:50:25.068Z</time></trkpt><trkpt lat="42.891715" lon="11.8784417"><ele>615.5</ele><time>2026-03-29T11:50:26.069Z</time></trkpt><trkpt lat="42.8915767" lon="11.8784517"><ele>611.0</ele><time>2026-03-29T11:50:27.069Z</time></trkpt><trkpt lat="42.8914333" lon="11.8784733"><ele>606.5</ele><time>2026-03-29T11:50:28.069Z</time></trkpt><trkpt lat="42.8913017" lon="11.8784683"><ele>602.0</ele><time>2026-03-29T11:50:29.069Z</time></trkpt><trkpt lat="42.8911817" lon="11.878445"><ele>602.0</ele><time>2026-03-29T11:50:30.069Z</time></trkpt><trkpt lat="42.8910667" lon="11.87843"><ele>602.0</ele><time>2026-03-29T11:50:31.069Z</time></trkpt><trkpt lat="42.8909567" lon="11.878435"><ele>602.0</ele><time>2026-03-29T11:50:32.069Z</time></trkpt><trkpt lat="42.8908217" lon="11.878485"><ele>602.0</ele><time>2026-03-29T11:50:33.068Z</time></trkpt><trkpt lat="42.890695" lon="11.8785283"><ele>602.0</ele><time>2026-03-29T11:50:34.069Z</time></trkpt><trkpt lat="42.8905767" lon="11.8785467"><ele>602.0</ele><time>2026-03-29T11:50:35.068Z</time></trkpt><trkpt lat="42.89046" lon="11.8785283"><ele>602.0</ele><time>2026-03-29T11:50:36.069Z</time></trkpt><trkpt lat="42.8903317" lon="11.8784867"><ele>602.0</ele><time>2026-03-29T11:50:37.068Z</time></trkpt><trkpt lat="42.8902033" lon="11.8784517"><ele>604.0</ele><time>2026-03-29T11:50:38.069Z</time></trkpt><trkpt lat="42.8900667" lon="11.8784283"><ele>606.0</ele><time>2026-03-29T11:50:39.069Z</time></trkpt><trkpt lat="42.889905" lon="11.8784367"><ele>608.0</ele><time>2026-03-29T11:50:40.069Z</time></trkpt><trkpt lat="42.8897317" lon="11.87842"><ele>611.25</ele><time>2026-03-29T11:50:41.068Z</time></trkpt><trkpt lat="42.8895667" lon="11.87842"><ele>614.5</ele><time>2026-03-29T11:50:42.069Z</time></trkpt><trkpt lat="42.88943" lon="11.8784"><ele>617.75</ele><time>2026-03-29T11:50:43.069Z</time></trkpt><trkpt lat="42.8893033" lon="11.8784217"><ele>621.0</ele><time>2026-03-29T11:50:44.069Z</time></trkpt><trkpt lat="42.88919" lon="11.878425"><ele>621.75</ele><time>2026-03-29T11:50:45.069Z</time></trkpt><trkpt lat="42.889085" lon="11.8784317"><ele>622.5</ele><time>2026-03-29T11:50:46.068Z</time></trkpt><trkpt lat="42.888975" lon="11.878445"><ele>623.25</ele><time>2026-03-29T11:50:47.069Z</time></trkpt><trkpt lat="42.8888567" lon="11.8784467"><ele>624.0</ele><time>2026-03-29T11:50:48.068Z</time></trkpt><trkpt lat="42.8887367" lon="11.8784383"><ele>622.0</ele><time>2026-03-29T11:50:49.069Z</time></trkpt><trkpt lat="42.8886067" lon="11.878485"><ele>620.0</ele><time>2026-03-29T11:50:50.069Z</time></trkpt><trkpt lat="42.8884783" lon="11.8785233"><ele>618.0</ele><time>2026-03-29T11:50:51.069Z</time></trkpt><trkpt lat="42.8883367" lon="11.87857"><ele>616.0</ele><time>2026-03-29T11:50:52.068Z</time></trkpt><trkpt lat="42.8882033" lon="11.878605"><ele>616.0</ele><time>2026-03-29T11:50:53.069Z</time></trkpt><trkpt lat="42.8880883" lon="11.878615"><ele>616.0</ele><time>2026-03-29T11:50:54.069Z</time></trkpt><trkpt lat="42.8879767" lon="11.878585"><ele>616.0</ele><time>2026-03-29T11:50:55.069Z</time></trkpt><trkpt lat="42.8878617" lon="11.8785483"><ele>616.0</ele><time>2026-03-29T11:50:56.068Z</time></trkpt><trkpt lat="42.8877417" lon="11.87851"><ele>616.0</ele><time>2026-03-29T11:50:57.069Z</time></trkpt><trkpt lat="42.8876067" lon="11.8784967"><ele>616.0</ele><time>2026-03-29T11:50:58.069Z</time></trkpt><trkpt lat="42.8874617" lon="11.8785133"><ele>616.0</ele><time>2026-03-29T11:50:59.068Z</time></trkpt><trkpt lat="42.887295" lon="11.8785683"><ele>615.6666666666667</ele><time>2026-03-29T11:51:00.069Z</time></trkpt><trkpt lat="42.88711" lon="11.8786383"><ele>615.3333333333334</ele><time>2026-03-29T11:51:01.069Z</time></trkpt><trkpt lat="42.8869117" lon="11.8786867"><ele>615.0</ele><time>2026-03-29T11:51:02.068Z</time></trkpt><trkpt lat="42.8867133" lon="11.87874"><ele>617.0</ele><time>2026-03-29T11:51:03.069Z</time></trkpt><trkpt lat="42.886515" lon="11.8788017"><ele>619.0</ele><time>2026-03-29T11:51:04.069Z</time></trkpt><trkpt lat="42.8863367" lon="11.8788667"><ele>621.0</ele><time>2026-03-29T11:51:05.069Z</time></trkpt><trkpt lat="42.8861917" lon="11.8789167"><ele>621.0</ele><time>2026-03-29T11:51:06.069Z</time></trkpt><trkpt lat="42.8860717" lon="11.878945"><ele>621.0</ele><time>2026-03-29T11:51:07.068Z</time></trkpt><trkpt lat="42.8859683" lon="11.878985"><ele>621.0</ele><time>2026-03-29T11:51:08.068Z</time></trkpt><trkpt lat="42.885865" lon="11.879055"><ele>621.0</ele><time>2026-03-29T11:51:09.069Z</time></trkpt><trkpt lat="42.8857717" lon="11.8791417"><ele>621.0</ele><time>2026-03-29T11:51:10.069Z</time></trkpt><trkpt lat="42.8856767" lon="11.879225"><ele>621.0</ele><time>2026-03-29T11:51:11.069Z</time></trkpt><trkpt lat="42.8855917" lon="11.87928"><ele>621.0</ele><time>2026-03-29T11:51:12.069Z</time></trkpt><trkpt lat="42.8855033" lon="11.8793183"><ele>621.0</ele><time>2026-03-29T11:51:13.069Z</time></trkpt><trkpt lat="42.8854067" lon="11.879355"><ele>621.0</ele><time>2026-03-29T11:51:14.069Z</time></trkpt><trkpt lat="42.8853067" lon="11.8793817"><ele>621.0</ele><time>2026-03-29T11:51:15.068Z</time></trkpt><trkpt lat="42.8852067" lon="11.8793817"><ele>621.0</ele><time>2026-03-29T11:51:16.068Z</time></trkpt><trkpt lat="42.8850867" lon="11.879365"><ele>621.0</ele><time>2026-03-29T11:51:17.069Z</time></trkpt><trkpt lat="42.8849467" lon="11.8793333"><ele>621.0</ele><time>2026-03-29T11:51:18.069Z</time></trkpt><trkpt lat="42.8848083" lon="11.8792833"><ele>624.6666666666666</ele><time>2026-03-29T11:51:19.068Z</time></trkpt><trkpt lat="42.8846717" lon="11.87924"><ele>628.3333333333333</ele><time>2026-03-29T11:51:20.069Z</time></trkpt><trkpt lat="42.8845117" lon="11.8792133"><ele>632.0</ele><time>2026-03-29T11:51:21.069Z</time></trkpt><trkpt lat="42.8843333" lon="11.8792"><ele>630.0</ele><time>2026-03-29T11:51:22.069Z</time></trkpt><trkpt lat="42.8841617" lon="11.879185"><ele>628.0</ele><time>2026-03-29T11:51:23.069Z</time></trkpt><trkpt lat="42.884" lon="11.87918"><ele>626.0</ele><time>2026-03-29T11:51:24.069Z</time></trkpt><trkpt lat="42.8838517" lon="11.8791733"><ele>626.0</ele><time>2026-03-29T11:51:25.069Z</time></trkpt><trkpt lat="42.883705" lon="11.8791633"><ele>626.0</ele><time>2026-03-29T11:51:26.069Z</time></trkpt><trkpt lat="42.8835767" lon="11.8791417"><ele>626.0</ele><time>2026-03-29T11:51:27.068Z</time></trkpt><trkpt lat="42.88347" lon="11.879115"><ele>626.0</ele><time>2026-03-29T11:51:28.069Z</time></trkpt><trkpt lat="42.8833767" lon="11.87909"><ele>624.1666666666666</ele><time>2026-03-29T11:51:29.069Z</time></trkpt><trkpt lat="42.8833083" lon="11.8790533"><ele>622.3333333333333</ele><time>2026-03-29T11:51:30.069Z</time></trkpt><trkpt lat="42.8832617" lon="11.878985"><ele>620.5</ele><time>2026-03-29T11:51:31.069Z</time></trkpt><trkpt lat="42.8832267" lon="11.87891"><ele>618.6666666666666</ele><time>2026-03-29T11:51:32.068Z</time></trkpt><trkpt lat="42.8832083" lon="11.8788117"><ele>616.8333333333334</ele><time>2026-03-29T11:51:33.069Z</time></trkpt><trkpt lat="42.8831983" lon="11.8786883"><ele>615.0</ele><time>2026-03-29T11:51:34.068Z</time></trkpt><trkpt lat="42.8831567" lon="11.878575"><ele>615.0</ele><time>2026-03-29T11:51:35.068Z</time></trkpt><trkpt lat="42.883115" lon="11.8784683"><ele>615.0</ele><time>2026-03-29T11:51:36.069Z</time></trkpt><trkpt lat="42.88306" lon="11.8783883"><ele>615.0</ele><time>2026-03-29T11:51:37.068Z</time></trkpt><trkpt lat="42.8829917" lon="11.87833"><ele>615.0</ele><time>2026-03-29T11:51:38.069Z</time></trkpt><trkpt lat="42.8828917" lon="11.878295"><ele>615.0</ele><time>2026-03-29T11:51:39.069Z</time></trkpt><trkpt lat="42.8827617" lon="11.8783"><ele>616.75</ele><time>2026-03-29T11:51:40.069Z</time></trkpt><trkpt lat="42.8826167" lon="11.8783317"><ele>618.5</ele><time>2026-03-29T11:51:41.069Z</time></trkpt><trkpt lat="42.8824667" lon="11.8783683"><ele>620.25</ele><time>2026-03-29T11:51:42.069Z</time></trkpt><trkpt lat="42.88232" lon="11.8784067"><ele>622.0</ele><time>2026-03-29T11:51:43.069Z</time></trkpt><trkpt lat="42.8821717" lon="11.878445"><ele>618.3333333333334</ele><time>2026-03-29T11:51:44.068Z</time></trkpt><trkpt lat="42.88201" lon="11.878475"><ele>614.6666666666666</ele><time>2026-03-29T11:51:45.069Z</time></trkpt><trkpt lat="42.8818533" lon="11.8784983"><ele>611.0</ele><time>2026-03-29T11:51:46.069Z</time></trkpt><trkpt lat="42.8817117" lon="11.87852"><ele>611.0</ele><time>2026-03-29T11:51:47.068Z</time></trkpt><trkpt lat="42.8815767" lon="11.878545"><ele>611.0</ele><time>2026-03-29T11:51:48.069Z</time></trkpt><trkpt lat="42.8814467" lon="11.8785383"><ele>611.0</ele><time>2026-03-29T11:51:49.068Z</time></trkpt><trkpt lat="42.88133" lon="11.878515"><ele>611.0</ele><time>2026-03-29T11:51:50.069Z</time></trkpt><trkpt lat="42.8812267" lon="11.8784833"><ele>614.4</ele><time>2026-03-29T11:51:51.069Z</time></trkpt><trkpt lat="42.8811433" lon="11.878425"><ele>617.8</ele><time>2026-03-29T11:51:52.069Z</time></trkpt><trkpt lat="42.8810583" lon="11.8783417"><ele>621.1999999999999</ele><time>2026-03-29T11:51:53.069Z</time></trkpt><trkpt lat="42.8809567" lon="11.8782433"><ele>624.6</ele><time>2026-03-29T11:51:54.069Z</time></trkpt><trkpt lat="42.8808533" lon="11.8781683"><ele>628.0</ele><time>2026-03-29T11:51:55.069Z</time></trkpt><trkpt lat="42.8807533" lon="11.8781267"><ele>628.0</ele><time>2026-03-29T11:51:56.069Z</time></trkpt><trkpt lat="42.880625" lon="11.8780917"><ele>628.0</ele><time>2026-03-29T11:51:57.068Z</time></trkpt><trkpt lat="42.8804667" lon="11.878045"><ele>628.0</ele><time>2026-03-29T11:51:58.069Z</time></trkpt><trkpt lat="42.8803" lon="11.878005"><ele>628.0</ele><time>2026-03-29T11:51:59.069Z</time></trkpt><trkpt lat="42.8801583" lon="11.87796"><ele>628.0</ele><time>2026-03-29T11:52:00.068Z</time></trkpt><trkpt lat="42.8800333" lon="11.8779083"><ele>628.0</ele><time>2026-03-29T11:52:01.068Z</time></trkpt><trkpt lat="42.8799217" lon="11.8778283"><ele>628.0</ele><time>2026-03-29T11:52:02.069Z</time></trkpt><trkpt lat="42.8797967" lon="11.8777317"><ele>628.75</ele><time>2026-03-29T11:52:03.069Z</time></trkpt><trkpt lat="42.879665" lon="11.8776383"><ele>629.5</ele><time>2026-03-29T11:52:04.069Z</time></trkpt><trkpt lat="42.8795367" lon="11.8775467"><ele>630.25</ele><time>2026-03-29T11:52:05.069Z</time></trkpt><trkpt lat="42.8794167" lon="11.8774567"><ele>631.0</ele><time>2026-03-29T11:52:06.069Z</time></trkpt><trkpt lat="42.87929" lon="11.87739"><ele>629.2</ele><time>2026-03-29T11:52:07.069Z</time></trkpt><trkpt lat="42.87918" lon="11.8773217"><ele>627.4000000000001</ele><time>2026-03-29T11:52:08.069Z</time></trkpt><trkpt lat="42.879085" lon="11.8772567"><ele>625.6</ele><time>2026-03-29T11:52:09.069Z</time></trkpt><trkpt lat="42.878995" lon="11.877185"><ele>623.8000000000001</ele><time>2026-03-29T11:52:10.069Z</time></trkpt><trkpt lat="42.8789083" lon="11.8771283"><ele>622.0</ele><time>2026-03-29T11:52:11.068Z</time></trkpt><trkpt lat="42.8788383" lon="11.8770617"><ele>622.0</ele><time>2026-03-29T11:52:12.069Z</time></trkpt><trkpt lat="42.8787767" lon="11.8769833"><ele>622.0</ele><time>2026-03-29T11:52:13.069Z</time></trkpt><trkpt lat="42.87871" lon="11.8768867"><ele>622.0</ele><time>2026-03-29T11:52:14.069Z</time></trkpt><trkpt lat="42.8786533" lon="11.8767717"><ele>622.0</ele><time>2026-03-29T11:52:15.069Z</time></trkpt><trkpt lat="42.8785967" lon="11.8766517"><ele>622.0</ele><time>2026-03-29T11:52:16.069Z</time></trkpt><trkpt lat="42.8785483" lon="11.876545"><ele>621.6666666666667</ele><time>2026-03-29T11:52:17.069Z</time></trkpt><trkpt lat="42.8785067" lon="11.876455"><ele>621.3333333333334</ele><time>2026-03-29T11:52:18.069Z</time></trkpt><trkpt lat="42.8784617" lon="11.8763917"><ele>621.0</ele><time>2026-03-29T11:52:19.069Z</time></trkpt><trkpt lat="42.8784033" lon="11.87633"><ele>620.6666666666666</ele><time>2026-03-29T11:52:20.069Z</time></trkpt><trkpt lat="42.878335" lon="11.8762717"><ele>620.3333333333333</ele><time>2026-03-29T11:52:21.069Z</time></trkpt><trkpt lat="42.878255" lon="11.8762167"><ele>620.0</ele><time>2026-03-29T11:52:22.069Z</time></trkpt><trkpt lat="42.8781833" lon="11.87615"><ele>619.0</ele><time>2026-03-29T11:52:23.069Z</time></trkpt><trkpt lat="42.878105" lon="11.87609"><ele>618.0</ele><time>2026-03-29T11:52:24.069Z</time></trkpt><trkpt lat="42.8780217" lon="11.87604"><ele>617.0</ele><time>2026-03-29T11:52:25.069Z</time></trkpt><trkpt lat="42.8779367" lon="11.8760067"><ele>616.0</ele><time>2026-03-29T11:52:26.069Z</time></trkpt><trkpt lat="42.877842" lon="11.8759761"><ele>615.0</ele><time>2026-03-29T11:52:27.069Z</time></trkpt><trkpt lat="42.8777403" lon="11.8759422"><ele>613.8</ele><time>2026-03-29T11:52:28.069Z</time></trkpt><trkpt lat="42.8776402" lon="11.8759089"><ele>612.6</ele><time>2026-03-29T11:52:29.068Z</time></trkpt><trkpt lat="42.877539" lon="11.8758686"><ele>611.4</ele><time>2026-03-29T11:52:30.069Z</time></trkpt><trkpt lat="42.8774435" lon="11.8758415"><ele>610.2</ele><time>2026-03-29T11:52:31.069Z</time></trkpt><trkpt lat="42.8773537" lon="11.8758163"><ele>609.0</ele><time>2026-03-29T11:52:32.069Z</time></trkpt><trkpt lat="42.8772766" lon="11.8757947"><ele>607.5</ele><time>2026-03-29T11:52:33.069Z</time></trkpt><trkpt lat="42.8772145" lon="11.8757708"><ele>606.0</ele><time>2026-03-29T11:52:34.069Z</time></trkpt><trkpt lat="42.8771231" lon="11.875735"><ele>604.5</ele><time>2026-03-29T11:52:36.068Z</time></trkpt><trkpt lat="42.8770567" lon="11.8757154"><ele>603.0</ele><time>2026-03-29T11:52:37.069Z</time></trkpt><trkpt lat="42.8769773" lon="11.8756954"><ele>601.5</ele><time>2026-03-29T11:52:38.069Z</time></trkpt><trkpt lat="42.8768842" lon="11.875669"><ele>600.0</ele><time>2026-03-29T11:52:39.069Z</time></trkpt><trkpt lat="42.8767832" lon="11.8756361"><ele>599.0</ele><time>2026-03-29T11:52:40.069Z</time></trkpt><trkpt lat="42.8766804" lon="11.8755991"><ele>598.0</ele><time>2026-03-29T11:52:41.069Z</time></trkpt><trkpt lat="42.8765731" lon="11.8755627"><ele>597.0</ele><time>2026-03-29T11:52:42.069Z</time></trkpt><trkpt lat="42.8764649" lon="11.8755223"><ele>596.0</ele><time>2026-03-29T11:52:43.068Z</time></trkpt><trkpt lat="42.8763497" lon="11.8754814"><ele>595.0</ele><time>2026-03-29T11:52:44.069Z</time></trkpt><trkpt lat="42.8762268" lon="11.8754414"><ele>595.0</ele><time>2026-03-29T11:52:45.068Z</time></trkpt><trkpt lat="42.8760991" lon="11.8754025"><ele>595.0</ele><time>2026-03-29T11:52:46.068Z</time></trkpt><trkpt lat="42.8759673" lon="11.8753679"><ele>595.0</ele><time>2026-03-29T11:52:47.069Z</time></trkpt><trkpt lat="42.8758326" lon="11.8753363"><ele>595.0</ele><time>2026-03-29T11:52:48.069Z</time></trkpt><trkpt lat="42.8756914" lon="11.875319"><ele>593.5</ele><time>2026-03-29T11:52:49.069Z</time></trkpt><trkpt lat="42.8755419" lon="11.8753188"><ele>592.0</ele><time>2026-03-29T11:52:50.069Z</time></trkpt><trkpt lat="42.8753913" lon="11.8753363"><ele>590.5</ele><time>2026-03-29T11:52:51.069Z</time></trkpt><trkpt lat="42.875247" lon="11.8753635"><ele>589.0</ele><time>2026-03-29T11:52:52.068Z</time></trkpt><trkpt lat="42.8751152" lon="11.8753938"><ele>588.0</ele><time>2026-03-29T11:52:53.069Z</time></trkpt><trkpt lat="42.8749894" lon="11.8754335"><ele>587.0</ele><time>2026-03-29T11:52:54.068Z</time></trkpt><trkpt lat="42.8748704" lon="11.8754974"><ele>586.0</ele><time>2026-03-29T11:52:55.069Z</time></trkpt><trkpt lat="42.8747624" lon="11.8755827"><ele>585.0</ele><time>2026-03-29T11:52:56.069Z</time></trkpt><trkpt lat="42.874676" lon="11.8756882"><ele>585.0</ele><time>2026-03-29T11:52:57.069Z</time></trkpt><trkpt lat="42.8745871" lon="11.8757984"><ele>585.0</ele><time>2026-03-29T11:52:58.068Z</time></trkpt><trkpt lat="42.8744912" lon="11.875885"><ele>585.0</ele><time>2026-03-29T11:52:59.068Z</time></trkpt><trkpt lat="42.87439" lon="11.87593"><ele>585.0</ele><time>2026-03-29T11:53:00.068Z</time></trkpt><trkpt lat="42.8742783" lon="11.8759283"><ele>583.5</ele><time>2026-03-29T11:53:01.069Z</time></trkpt><trkpt lat="42.8741567" lon="11.87589"><ele>582.0</ele><time>2026-03-29T11:53:02.069Z</time></trkpt><trkpt lat="42.8740367" lon="11.875865"><ele>580.5</ele><time>2026-03-29T11:53:03.069Z</time></trkpt><trkpt lat="42.873925" lon="11.8758383"><ele>579.0</ele><time>2026-03-29T11:53:04.069Z</time></trkpt><trkpt lat="42.8738333" lon="11.8758067"><ele>579.0</ele><time>2026-03-29T11:53:05.069Z</time></trkpt><trkpt lat="42.873765" lon="11.8757867"><ele>579.0</ele><time>2026-03-29T11:53:06.069Z</time></trkpt><trkpt lat="42.873675" lon="11.8757383"><ele>579.0</ele><time>2026-03-29T11:53:08.069Z</time></trkpt><trkpt lat="42.8736717" lon="11.8756117"><ele>579.0</ele><time>2026-03-29T11:53:11.068Z</time></trkpt><trkpt lat="42.873705" lon="11.875535"><ele>579.0</ele><time>2026-03-29T11:53:12.069Z</time></trkpt><trkpt lat="42.87375" lon="11.8754383"><ele>579.0</ele><time>2026-03-29T11:53:13.069Z</time></trkpt><trkpt lat="42.8737967" lon="11.87533"><ele>579.0</ele><time>2026-03-29T11:53:14.068Z</time></trkpt><trkpt lat="42.87385" lon="11.8752083"><ele>579.0</ele><time>2026-03-29T11:53:15.069Z</time></trkpt><trkpt lat="42.8738983" lon="11.87507"><ele>579.0</ele><time>2026-03-29T11:53:16.068Z</time></trkpt><trkpt lat="42.8739483" lon="11.8749183"><ele>579.0</ele><time>2026-03-29T11:53:17.069Z</time></trkpt><trkpt lat="42.874" lon="11.87477"><ele>575.75</ele><time>2026-03-29T11:53:18.069Z</time></trkpt><trkpt lat="42.8740467" lon="11.87461"><ele>572.5</ele><time>2026-03-29T11:53:19.068Z</time></trkpt><trkpt lat="42.874095" lon="11.874445"><ele>569.25</ele><time>2026-03-29T11:53:20.069Z</time></trkpt><trkpt lat="42.8741483" lon="11.8742767"><ele>566.0</ele><time>2026-03-29T11:53:21.069Z</time></trkpt><trkpt lat="42.8742033" lon="11.8740983"><ele>566.5</ele><time>2026-03-29T11:53:22.068Z</time></trkpt><trkpt lat="42.8742433" lon="11.8739167"><ele>567.0</ele><time>2026-03-29T11:53:23.069Z</time></trkpt><trkpt lat="42.8742667" lon="11.8737233"><ele>567.5</ele><time>2026-03-29T11:53:24.069Z</time></trkpt><trkpt lat="42.8742733" lon="11.8735217"><ele>568.0</ele><time>2026-03-29T11:53:25.068Z</time></trkpt><trkpt lat="42.8742667" lon="11.8733117"><ele>565.6666666666667</ele><time>2026-03-29T11:53:26.069Z</time></trkpt><trkpt lat="42.8742417" lon="11.873105"><ele>563.3333333333334</ele><time>2026-03-29T11:53:27.069Z</time></trkpt><trkpt lat="42.8742017" lon="11.872895"><ele>561.0</ele><time>2026-03-29T11:53:28.069Z</time></trkpt><trkpt lat="42.8741417" lon="11.87269"><ele>563.3333333333334</ele><time>2026-03-29T11:53:29.069Z</time></trkpt><trkpt lat="42.8740717" lon="11.8724783"><ele>565.6666666666667</ele><time>2026-03-29T11:53:30.069Z</time></trkpt><trkpt lat="42.8740017" lon="11.872265"><ele>568.0</ele><time>2026-03-29T11:53:31.069Z</time></trkpt><trkpt lat="42.87395" lon="11.872035"><ele>568.0</ele><time>2026-03-29T11:53:32.068Z</time></trkpt><trkpt lat="42.8739233" lon="11.871785"><ele>568.0</ele><time>2026-03-29T11:53:33.069Z</time></trkpt><trkpt lat="42.873895" lon="11.8715133"><ele>568.0</ele><time>2026-03-29T11:53:34.069Z</time></trkpt><trkpt lat="42.873875" lon="11.871225"><ele>571.0</ele><time>2026-03-29T11:53:35.069Z</time></trkpt><trkpt lat="42.8738567" lon="11.8709333"><ele>574.0</ele><time>2026-03-29T11:53:36.068Z</time></trkpt><trkpt lat="42.87384" lon="11.8706617"><ele>577.0</ele><time>2026-03-29T11:53:37.069Z</time></trkpt><trkpt lat="42.8738183" lon="11.8704067"><ele>577.0</ele><time>2026-03-29T11:53:38.069Z</time></trkpt><trkpt lat="42.8737967" lon="11.8701583"><ele>577.0</ele><time>2026-03-29T11:53:39.068Z</time></trkpt><trkpt lat="42.8737617" lon="11.8699017"><ele>577.0</ele><time>2026-03-29T11:53:40.068Z</time></trkpt><trkpt lat="42.8737167" lon="11.869645"><ele>576.0</ele><time>2026-03-29T11:53:41.069Z</time></trkpt><trkpt lat="42.8736383" lon="11.869395"><ele>575.0</ele><time>2026-03-29T11:53:42.068Z</time></trkpt><trkpt lat="42.873535" lon="11.8691417"><ele>574.0</ele><time>2026-03-29T11:53:43.069Z</time></trkpt><trkpt lat="42.8734117" lon="11.8688867"><ele>572.3333333333334</ele><time>2026-03-29T11:53:44.068Z</time></trkpt><trkpt lat="42.8732867" lon="11.8686467"><ele>570.6666666666666</ele><time>2026-03-29T11:53:45.068Z</time></trkpt><trkpt lat="42.8731717" lon="11.8684083"><ele>569.0</ele><time>2026-03-29T11:53:46.068Z</time></trkpt><trkpt lat="42.8730933" lon="11.8681717"><ele>569.0</ele><time>2026-03-29T11:53:47.069Z</time></trkpt><trkpt lat="42.8730533" lon="11.8679133"><ele>569.0</ele><time>2026-03-29T11:53:48.069Z</time></trkpt><trkpt lat="42.873035" lon="11.8676383"><ele>569.0</ele><time>2026-03-29T11:53:49.069Z</time></trkpt><trkpt lat="42.8730217" lon="11.86737"><ele>568.3333333333333</ele><time>2026-03-29T11:53:50.069Z</time></trkpt><trkpt lat="42.8729967" lon="11.86712"><ele>567.6666666666666</ele><time>2026-03-29T11:53:51.069Z</time></trkpt><trkpt lat="42.8729533" lon="11.86689"><ele>567.0</ele><time>2026-03-29T11:53:52.068Z</time></trkpt><trkpt lat="42.872885" lon="11.8666883"><ele>566.0</ele><time>2026-03-29T11:53:53.069Z</time></trkpt><trkpt lat="42.87278" lon="11.8665"><ele>565.0</ele><time>2026-03-29T11:53:54.069Z</time></trkpt><trkpt lat="42.87264" lon="11.8663133"><ele>564.0</ele><time>2026-03-29T11:53:55.069Z</time></trkpt><trkpt lat="42.8724867" lon="11.8661267"><ele>564.0</ele><time>2026-03-29T11:53:56.069Z</time></trkpt><trkpt lat="42.87234" lon="11.86595"><ele>564.0</ele><time>2026-03-29T11:53:57.069Z</time></trkpt><trkpt lat="42.872205" lon="11.86577"><ele>564.0</ele><time>2026-03-29T11:53:58.068Z</time></trkpt><trkpt lat="42.8720967" lon="11.865585"><ele>565.0</ele><time>2026-03-29T11:53:59.068Z</time></trkpt><trkpt lat="42.8720033" lon="11.8653633"><ele>566.0</ele><time>2026-03-29T11:54:00.069Z</time></trkpt><trkpt lat="42.8719217" lon="11.8650967"><ele>567.0</ele><time>2026-03-29T11:54:01.069Z</time></trkpt><trkpt lat="42.87184" lon="11.8648"><ele>565.5</ele><time>2026-03-29T11:54:02.068Z</time></trkpt><trkpt lat="42.8717417" lon="11.86448"><ele>564.0</ele><time>2026-03-29T11:54:03.069Z</time></trkpt><trkpt lat="42.8716117" lon="11.8641583"><ele>567.0</ele><time>2026-03-29T11:54:04.069Z</time></trkpt><trkpt lat="42.8714667" lon="11.8638633"><ele>570.0</ele><time>2026-03-29T11:54:05.069Z</time></trkpt><trkpt lat="42.87133" lon="11.8636017"><ele>570.0</ele><time>2026-03-29T11:54:06.069Z</time></trkpt><trkpt lat="42.8712067" lon="11.8633683"><ele>570.0</ele><time>2026-03-29T11:54:07.069Z</time></trkpt><trkpt lat="42.8710917" lon="11.8631367"><ele>570.0</ele><time>2026-03-29T11:54:08.069Z</time></trkpt><trkpt lat="42.8709667" lon="11.8629183"><ele>569.6666666666666</ele><time>2026-03-29T11:54:09.069Z</time></trkpt><trkpt lat="42.87083" lon="11.8627283"><ele>569.3333333333333</ele><time>2026-03-29T11:54:10.069Z</time></trkpt><trkpt lat="42.8706533" lon="11.8625817"><ele>569.0</ele><time>2026-03-29T11:54:11.068Z</time></trkpt><trkpt lat="42.87046" lon="11.8624517"><ele>569.3333333333333</ele><time>2026-03-29T11:54:12.069Z</time></trkpt><trkpt lat="42.8702817" lon="11.8623317"><ele>569.6666666666666</ele><time>2026-03-29T11:54:13.069Z</time></trkpt><trkpt lat="42.8701067" lon="11.8621883"><ele>570.0</ele><time>2026-03-29T11:54:14.068Z</time></trkpt><trkpt lat="42.8699433" lon="11.8620183"><ele>570.0</ele><time>2026-03-29T11:54:15.069Z</time></trkpt><trkpt lat="42.8697933" lon="11.86183"><ele>570.0</ele><time>2026-03-29T11:54:16.069Z</time></trkpt><trkpt lat="42.86966" lon="11.861605"><ele>570.0</ele><time>2026-03-29T11:54:17.069Z</time></trkpt><trkpt lat="42.86953" lon="11.861355"><ele>574.3333333333334</ele><time>2026-03-29T11:54:18.069Z</time></trkpt><trkpt lat="42.8694283" lon="11.8611133"><ele>578.6666666666667</ele><time>2026-03-29T11:54:19.068Z</time></trkpt><trkpt lat="42.8693567" lon="11.8608767"><ele>583.0</ele><time>2026-03-29T11:54:20.069Z</time></trkpt><trkpt lat="42.8693383" lon="11.8606533"><ele>583.0</ele><time>2026-03-29T11:54:21.068Z</time></trkpt><trkpt lat="42.8693583" lon="11.8604417"><ele>583.0</ele><time>2026-03-29T11:54:22.069Z</time></trkpt><trkpt lat="42.86943" lon="11.8602083"><ele>583.0</ele><time>2026-03-29T11:54:23.069Z</time></trkpt><trkpt lat="42.869525" lon="11.8599833"><ele>583.0</ele><time>2026-03-29T11:54:24.068Z</time></trkpt><trkpt lat="42.869645" lon="11.8597333"><ele>583.0</ele><time>2026-03-29T11:54:25.069Z</time></trkpt><trkpt lat="42.8697733" lon="11.8594667"><ele>581.3333333333334</ele><time>2026-03-29T11:54:26.069Z</time></trkpt><trkpt lat="42.869895" lon="11.8592067"><ele>579.6666666666666</ele><time>2026-03-29T11:54:27.069Z</time></trkpt><trkpt lat="42.870005" lon="11.85896"><ele>578.0</ele><time>2026-03-29T11:54:28.069Z</time></trkpt><trkpt lat="42.8701117" lon="11.8587267"><ele>573.6666666666666</ele><time>2026-03-29T11:54:29.069Z</time></trkpt><trkpt lat="42.8702117" lon="11.8585033"><ele>569.3333333333334</ele><time>2026-03-29T11:54:30.069Z</time></trkpt><trkpt lat="42.8703033" lon="11.8582817"><ele>565.0</ele><time>2026-03-29T11:54:31.069Z</time></trkpt><trkpt lat="42.8703717" lon="11.8580533"><ele>565.0</ele><time>2026-03-29T11:54:32.069Z</time></trkpt><trkpt lat="42.8703983" lon="11.8578017"><ele>565.0</ele><time>2026-03-29T11:54:33.069Z</time></trkpt><trkpt lat="42.87041" lon="11.85753"><ele>565.0</ele><time>2026-03-29T11:54:34.069Z</time></trkpt><trkpt lat="42.8704133" lon="11.857255"><ele>566.0</ele><time>2026-03-29T11:54:35.069Z</time></trkpt><trkpt lat="42.8704167" lon="11.8569833"><ele>567.0</ele><time>2026-03-29T11:54:36.068Z</time></trkpt><trkpt lat="42.8704233" lon="11.8567217"><ele>568.0</ele><time>2026-03-29T11:54:37.069Z</time></trkpt><trkpt lat="42.8704083" lon="11.8564767"><ele>568.3333333333334</ele><time>2026-03-29T11:54:38.069Z</time></trkpt><trkpt lat="42.8703733" lon="11.8562333"><ele>568.6666666666666</ele><time>2026-03-29T11:54:39.069Z</time></trkpt><trkpt lat="42.870315" lon="11.8559833"><ele>569.0</ele><time>2026-03-29T11:54:40.069Z</time></trkpt><trkpt lat="42.8702533" lon="11.85574"><ele>569.0</ele><time>2026-03-29T11:54:41.068Z</time></trkpt><trkpt lat="42.870185" lon="11.85551"><ele>569.0</ele><time>2026-03-29T11:54:42.068Z</time></trkpt><trkpt lat="42.8701217" lon="11.855275"><ele>569.0</ele><time>2026-03-29T11:54:43.069Z</time></trkpt><trkpt lat="42.8700617" lon="11.8550283"><ele>569.6666666666666</ele><time>2026-03-29T11:54:44.069Z</time></trkpt><trkpt lat="42.87003" lon="11.85477"><ele>570.3333333333334</ele><time>2026-03-29T11:54:45.069Z</time></trkpt><trkpt lat="42.8700167" lon="11.8545033"><ele>571.0</ele><time>2026-03-29T11:54:46.069Z</time></trkpt><trkpt lat="42.8700117" lon="11.8542317"><ele>569.6666666666667</ele><time>2026-03-29T11:54:47.069Z</time></trkpt><trkpt lat="42.8700133" lon="11.85397"><ele>568.3333333333334</ele><time>2026-03-29T11:54:48.068Z</time></trkpt><trkpt lat="42.86999" lon="11.85373"><ele>567.0</ele><time>2026-03-29T11:54:49.069Z</time></trkpt><trkpt lat="42.869935" lon="11.8535083"><ele>565.3333333333334</ele><time>2026-03-29T11:54:50.069Z</time></trkpt><trkpt lat="42.8698433" lon="11.8532967"><ele>563.6666666666667</ele><time>2026-03-29T11:54:51.069Z</time></trkpt><trkpt lat="42.86973" lon="11.8530767"><ele>562.0</ele><time>2026-03-29T11:54:52.068Z</time></trkpt><trkpt lat="42.8696117" lon="11.8528667"><ele>562.0</ele><time>2026-03-29T11:54:53.069Z</time></trkpt><trkpt lat="42.86951" lon="11.8526333"><ele>562.0</ele><time>2026-03-29T11:54:54.068Z</time></trkpt><trkpt lat="42.869445" lon="11.8523783"><ele>562.0</ele><time>2026-03-29T11:54:55.069Z</time></trkpt><trkpt lat="42.8694317" lon="11.8521217"><ele>560.0</ele><time>2026-03-29T11:54:56.069Z</time></trkpt><trkpt lat="42.86945" lon="11.8518617"><ele>558.0</ele><time>2026-03-29T11:54:57.068Z</time></trkpt><trkpt lat="42.8695" lon="11.8515833"><ele>556.0</ele><time>2026-03-29T11:54:58.069Z</time></trkpt><trkpt lat="42.8695683" lon="11.8512817"><ele>551.5</ele><time>2026-03-29T11:54:59.069Z</time></trkpt><trkpt lat="42.869635" lon="11.8509717"><ele>547.0</ele><time>2026-03-29T11:55:00.069Z</time></trkpt><trkpt lat="42.869685" lon="11.8506683"><ele>546.3333333333334</ele><time>2026-03-29T11:55:01.068Z</time></trkpt><trkpt lat="42.8697167" lon="11.8503733"><ele>545.6666666666666</ele><time>2026-03-29T11:55:02.069Z</time></trkpt><trkpt lat="42.8697383" lon="11.8500883"><ele>545.0</ele><time>2026-03-29T11:55:03.069Z</time></trkpt><trkpt lat="42.8697517" lon="11.8498183"><ele>545.0</ele><time>2026-03-29T11:55:04.069Z</time></trkpt><trkpt lat="42.869755" lon="11.8495583"><ele>545.0</ele><time>2026-03-29T11:55:05.068Z</time></trkpt><trkpt lat="42.8697383" lon="11.8493083"><ele>545.0</ele><time>2026-03-29T11:55:06.069Z</time></trkpt><trkpt lat="42.869695" lon="11.8490533"><ele>545.0</ele><time>2026-03-29T11:55:07.069Z</time></trkpt><trkpt lat="42.8696083" lon="11.8487983"><ele>545.0</ele><time>2026-03-29T11:55:08.069Z</time></trkpt><trkpt lat="42.8694983" lon="11.848535"><ele>545.0</ele><time>2026-03-29T11:55:09.069Z</time></trkpt><trkpt lat="42.86936" lon="11.8482733"><ele>540.5</ele><time>2026-03-29T11:55:10.069Z</time></trkpt><trkpt lat="42.8692217" lon="11.848"><ele>536.0</ele><time>2026-03-29T11:55:11.069Z</time></trkpt><trkpt lat="42.869085" lon="11.8477317"><ele>537.0</ele><time>2026-03-29T11:55:12.069Z</time></trkpt><trkpt lat="42.8689567" lon="11.8474733"><ele>538.0</ele><time>2026-03-29T11:55:13.069Z</time></trkpt><trkpt lat="42.8688367" lon="11.8472217"><ele>539.0</ele><time>2026-03-29T11:55:14.069Z</time></trkpt><trkpt lat="42.86873" lon="11.84697"><ele>537.0</ele><time>2026-03-29T11:55:15.068Z</time></trkpt><trkpt lat="42.8686467" lon="11.8467017"><ele>535.0</ele><time>2026-03-29T11:55:16.068Z</time></trkpt><trkpt lat="42.86859" lon="11.8464183"><ele>533.0</ele><time>2026-03-29T11:55:17.068Z</time></trkpt><trkpt lat="42.868555" lon="11.846125"><ele>530.3333333333333</ele><time>2026-03-29T11:55:18.068Z</time></trkpt><trkpt lat="42.868515" lon="11.8458383"><ele>527.6666666666666</ele><time>2026-03-29T11:55:19.069Z</time></trkpt><trkpt lat="42.868475" lon="11.8455483"><ele>525.0</ele><time>2026-03-29T11:55:20.068Z</time></trkpt><trkpt lat="42.8684" lon="11.8452733"><ele>521.5</ele><time>2026-03-29T11:55:21.069Z</time></trkpt><trkpt lat="42.8683033" lon="11.8450033"><ele>518.0</ele><time>2026-03-29T11:55:22.069Z</time></trkpt><trkpt lat="42.8681883" lon="11.8447317"><ele>518.0</ele><time>2026-03-29T11:55:23.069Z</time></trkpt><trkpt lat="42.8680633" lon="11.8444983"><ele>518.0</ele><time>2026-03-29T11:55:24.068Z</time></trkpt><trkpt lat="42.867925" lon="11.844285"><ele>518.0</ele><time>2026-03-29T11:55:25.068Z</time></trkpt><trkpt lat="42.8677617" lon="11.8441217"><ele>519.0</ele><time>2026-03-29T11:55:26.068Z</time></trkpt><trkpt lat="42.8675883" lon="11.8439967"><ele>520.0</ele><time>2026-03-29T11:55:27.069Z</time></trkpt><trkpt lat="42.8674133" lon="11.8439117"><ele>521.0</ele><time>2026-03-29T11:55:28.069Z</time></trkpt><trkpt lat="42.86723" lon="11.8438483"><ele>521.0</ele><time>2026-03-29T11:55:29.068Z</time></trkpt><trkpt lat="42.8670467" lon="11.8438017"><ele>521.0</ele><time>2026-03-29T11:55:30.068Z</time></trkpt><trkpt lat="42.8668917" lon="11.84373"><ele>521.0</ele><time>2026-03-29T11:55:31.069Z</time></trkpt><trkpt lat="42.866755" lon="11.84363"><ele>521.0</ele><time>2026-03-29T11:55:32.069Z</time></trkpt><trkpt lat="42.8666467" lon="11.8434933"><ele>521.0</ele><time>2026-03-29T11:55:33.068Z</time></trkpt><trkpt lat="42.8665717" lon="11.8433283"><ele>521.0</ele><time>2026-03-29T11:55:34.069Z</time></trkpt><trkpt lat="42.8665267" lon="11.8431183"><ele>518.6666666666666</ele><time>2026-03-29T11:55:35.068Z</time></trkpt><trkpt lat="42.8665067" lon="11.8428717"><ele>516.3333333333334</ele><time>2026-03-29T11:55:36.069Z</time></trkpt><trkpt lat="42.8665133" lon="11.8425867"><ele>514.0</ele><time>2026-03-29T11:55:37.069Z</time></trkpt><trkpt lat="42.8665183" lon="11.842265"><ele>509.0</ele><time>2026-03-29T11:55:38.069Z</time></trkpt><trkpt lat="42.8665233" lon="11.84195"><ele>504.0</ele><time>2026-03-29T11:55:39.069Z</time></trkpt><trkpt lat="42.8665267" lon="11.8416367"><ele>504.0</ele><time>2026-03-29T11:55:40.069Z</time></trkpt><trkpt lat="42.8664967" lon="11.8413467"><ele>504.0</ele><time>2026-03-29T11:55:41.068Z</time></trkpt><trkpt lat="42.86646" lon="11.8410617"><ele>504.0</ele><time>2026-03-29T11:55:42.069Z</time></trkpt><trkpt lat="42.8664067" lon="11.8407817"><ele>504.0</ele><time>2026-03-29T11:55:43.068Z</time></trkpt><trkpt lat="42.8663467" lon="11.84051"><ele>504.0</ele><time>2026-03-29T11:55:44.069Z</time></trkpt><trkpt lat="42.8662817" lon="11.840245"><ele>504.0</ele><time>2026-03-29T11:55:45.069Z</time></trkpt><trkpt lat="42.8662167" lon="11.8399817"><ele>505.33333333333337</ele><time>2026-03-29T11:55:46.069Z</time></trkpt><trkpt lat="42.8661467" lon="11.8397283"><ele>506.6666666666667</ele><time>2026-03-29T11:55:47.069Z</time></trkpt><trkpt lat="42.86608" lon="11.8394683"><ele>508.0</ele><time>2026-03-29T11:55:48.069Z</time></trkpt><trkpt lat="42.86602" lon="11.8392033"><ele>508.6666666666667</ele><time>2026-03-29T11:55:49.068Z</time></trkpt><trkpt lat="42.8659667" lon="11.8389383"><ele>509.33333333333337</ele><time>2026-03-29T11:55:50.069Z</time></trkpt><trkpt lat="42.86591" lon="11.8386633"><ele>510.0</ele><time>2026-03-29T11:55:51.068Z</time></trkpt><trkpt lat="42.8658517" lon="11.8384"><ele>513.3333333333334</ele><time>2026-03-29T11:55:52.069Z</time></trkpt><trkpt lat="42.865795" lon="11.838135"><ele>516.6666666666667</ele><time>2026-03-29T11:55:53.069Z</time></trkpt><trkpt lat="42.8657383" lon="11.83787"><ele>520.0</ele><time>2026-03-29T11:55:54.069Z</time></trkpt><trkpt lat="42.8656833" lon="11.837605"><ele>521.3333333333334</ele><time>2026-03-29T11:55:55.068Z</time></trkpt><trkpt lat="42.8656333" lon="11.8373417"><ele>522.6666666666666</ele><time>2026-03-29T11:55:56.068Z</time></trkpt><trkpt lat="42.8655917" lon="11.837075"><ele>524.0</ele><time>2026-03-29T11:55:57.069Z</time></trkpt><trkpt lat="42.865555" lon="11.8368033"><ele>523.6666666666666</ele><time>2026-03-29T11:55:58.069Z</time></trkpt><trkpt lat="42.8655183" lon="11.83653"><ele>523.3333333333334</ele><time>2026-03-29T11:55:59.069Z</time></trkpt><trkpt lat="42.8654867" lon="11.8362633"><ele>523.0</ele><time>2026-03-29T11:56:00.069Z</time></trkpt><trkpt lat="42.8654583" lon="11.8360133"><ele>522.3333333333334</ele><time>2026-03-29T11:56:01.069Z</time></trkpt><trkpt lat="42.8654333" lon="11.8357817"><ele>521.6666666666666</ele><time>2026-03-29T11:56:02.069Z</time></trkpt><trkpt lat="42.8654083" lon="11.835575"><ele>521.0</ele><time>2026-03-29T11:56:03.069Z</time></trkpt><trkpt lat="42.865385" lon="11.83539"><ele>521.0</ele><time>2026-03-29T11:56:04.069Z</time></trkpt><trkpt lat="42.8653717" lon="11.8352217"><ele>521.0</ele><time>2026-03-29T11:56:05.069Z</time></trkpt><trkpt lat="42.8653683" lon="11.83506"><ele>521.0</ele><time>2026-03-29T11:56:06.069Z</time></trkpt><trkpt lat="42.86539" lon="11.8349133"><ele>521.0</ele><time>2026-03-29T11:56:07.069Z</time></trkpt><trkpt lat="42.8654317" lon="11.8347883"><ele>520.25</ele><time>2026-03-29T11:56:08.068Z</time></trkpt><trkpt lat="42.865485" lon="11.834665"><ele>519.5</ele><time>2026-03-29T11:56:09.069Z</time></trkpt><trkpt lat="42.8655383" lon="11.8345283"><ele>518.75</ele><time>2026-03-29T11:56:10.069Z</time></trkpt><trkpt lat="42.86558" lon="11.83437"><ele>518.0</ele><time>2026-03-29T11:56:11.069Z</time></trkpt><trkpt lat="42.8656067" lon="11.8341767"><ele>517.0</ele><time>2026-03-29T11:56:12.068Z</time></trkpt><trkpt lat="42.8656217" lon="11.8339583"><ele>516.0</ele><time>2026-03-29T11:56:13.069Z</time></trkpt><trkpt lat="42.8656317" lon="11.8337133"><ele>515.0</ele><time>2026-03-29T11:56:14.069Z</time></trkpt><trkpt lat="42.8656433" lon="11.83346"><ele>515.0</ele><time>2026-03-29T11:56:15.069Z</time></trkpt><trkpt lat="42.8656633" lon="11.83321"><ele>515.0</ele><time>2026-03-29T11:56:16.069Z</time></trkpt><trkpt lat="42.86568" lon="11.83297"><ele>515.0</ele><time>2026-03-29T11:56:17.069Z</time></trkpt><trkpt lat="42.8656667" lon="11.8327517"><ele>515.6666666666666</ele><time>2026-03-29T11:56:18.068Z</time></trkpt><trkpt lat="42.8656417" lon="11.832555"><ele>516.3333333333334</ele><time>2026-03-29T11:56:19.069Z</time></trkpt><trkpt lat="42.8655933" lon="11.83236"><ele>517.0</ele><time>2026-03-29T11:56:20.069Z</time></trkpt><trkpt lat="42.8655183" lon="11.8321683"><ele>517.0</ele><time>2026-03-29T11:56:21.069Z</time></trkpt><trkpt lat="42.8654283" lon="11.8319617"><ele>517.0</ele><time>2026-03-29T11:56:22.069Z</time></trkpt><trkpt lat="42.865325" lon="11.8317433"><ele>517.0</ele><time>2026-03-29T11:56:23.069Z</time></trkpt><trkpt lat="42.8652117" lon="11.8315167"><ele>515.3333333333334</ele><time>2026-03-29T11:56:24.069Z</time></trkpt><trkpt lat="42.8650833" lon="11.8313167"><ele>513.6666666666666</ele><time>2026-03-29T11:56:25.069Z</time></trkpt><trkpt lat="42.8649383" lon="11.831145"><ele>512.0</ele><time>2026-03-29T11:56:26.069Z</time></trkpt><trkpt lat="42.8647917" lon="11.8310067"><ele>512.0</ele><time>2026-03-29T11:56:27.068Z</time></trkpt><trkpt lat="42.864655" lon="11.8308967"><ele>512.0</ele><time>2026-03-29T11:56:28.069Z</time></trkpt><trkpt lat="42.8645317" lon="11.8308017"><ele>512.0</ele><time>2026-03-29T11:56:29.069Z</time></trkpt><trkpt lat="42.86443" lon="11.8307083"><ele>512.0</ele><time>2026-03-29T11:56:30.068Z</time></trkpt><trkpt lat="42.86434" lon="11.8306083"><ele>514.0</ele><time>2026-03-29T11:56:31.069Z</time></trkpt><trkpt lat="42.86427" lon="11.83048"><ele>516.0</ele><time>2026-03-29T11:56:32.069Z</time></trkpt><trkpt lat="42.8642167" lon="11.8303183"><ele>518.0</ele><time>2026-03-29T11:56:33.069Z</time></trkpt><trkpt lat="42.8641633" lon="11.8301283"><ele>520.0</ele><time>2026-03-29T11:56:34.069Z</time></trkpt><trkpt lat="42.8641033" lon="11.82992"><ele>521.0</ele><time>2026-03-29T11:56:35.068Z</time></trkpt><trkpt lat="42.8640367" lon="11.8296917"><ele>522.0</ele><time>2026-03-29T11:56:36.068Z</time></trkpt><trkpt lat="42.86396" lon="11.8294483"><ele>523.0</ele><time>2026-03-29T11:56:37.069Z</time></trkpt><trkpt lat="42.8638883" lon="11.8291917"><ele>523.6666666666667</ele><time>2026-03-29T11:56:38.068Z</time></trkpt><trkpt lat="42.8638283" lon="11.8289433"><ele>524.3333333333334</ele><time>2026-03-29T11:56:39.069Z</time></trkpt><trkpt lat="42.8637767" lon="11.8287083"><ele>525.0</ele><time>2026-03-29T11:56:40.069Z</time></trkpt><trkpt lat="42.8637317" lon="11.8284733"><ele>527.6666666666666</ele><time>2026-03-29T11:56:41.069Z</time></trkpt><trkpt lat="42.863695" lon="11.8282483"><ele>530.3333333333333</ele><time>2026-03-29T11:56:42.069Z</time></trkpt><trkpt lat="42.86367" lon="11.8280317"><ele>533.0</ele><time>2026-03-29T11:56:43.069Z</time></trkpt><trkpt lat="42.8636517" lon="11.827835"><ele>533.0</ele><time>2026-03-29T11:56:44.069Z</time></trkpt><trkpt lat="42.8636167" lon="11.827665"><ele>533.0</ele><time>2026-03-29T11:56:45.069Z</time></trkpt><trkpt lat="42.863585" lon="11.8275017"><ele>533.0</ele><time>2026-03-29T11:56:46.069Z</time></trkpt><trkpt lat="42.8635433" lon="11.82736"><ele>533.0</ele><time>2026-03-29T11:56:47.069Z</time></trkpt><trkpt lat="42.863505" lon="11.827225"><ele>534.4</ele><time>2026-03-29T11:56:48.069Z</time></trkpt><trkpt lat="42.86349" lon="11.8270883"><ele>535.8</ele><time>2026-03-29T11:56:49.069Z</time></trkpt><trkpt lat="42.8634867" lon="11.8269467"><ele>537.2</ele><time>2026-03-29T11:56:50.069Z</time></trkpt><trkpt lat="42.8634817" lon="11.8268"><ele>538.6</ele><time>2026-03-29T11:56:51.068Z</time></trkpt><trkpt lat="42.863485" lon="11.8266483"><ele>540.0</ele><time>2026-03-29T11:56:52.069Z</time></trkpt><trkpt lat="42.8634967" lon="11.826485"><ele>539.0</ele><time>2026-03-29T11:56:53.069Z</time></trkpt><trkpt lat="42.8634967" lon="11.8263333"><ele>538.0</ele><time>2026-03-29T11:56:54.069Z</time></trkpt><trkpt lat="42.86348" lon="11.8261867"><ele>537.0</ele><time>2026-03-29T11:56:55.069Z</time></trkpt><trkpt lat="42.8634333" lon="11.8260467"><ele>536.0</ele><time>2026-03-29T11:56:56.069Z</time></trkpt><trkpt lat="42.8633667" lon="11.825915"><ele>536.0</ele><time>2026-03-29T11:56:57.069Z</time></trkpt><trkpt lat="42.8632833" lon="11.8257983"><ele>536.0</ele><time>2026-03-29T11:56:58.069Z</time></trkpt><trkpt lat="42.8631867" lon="11.8256967"><ele>536.0</ele><time>2026-03-29T11:56:59.068Z</time></trkpt><trkpt lat="42.863085" lon="11.8256"><ele>536.0</ele><time>2026-03-29T11:57:00.069Z</time></trkpt><trkpt lat="42.8629833" lon="11.8254983"><ele>536.0</ele><time>2026-03-29T11:57:01.068Z</time></trkpt><trkpt lat="42.8628833" lon="11.8253833"><ele>536.0</ele><time>2026-03-29T11:57:02.069Z</time></trkpt><trkpt lat="42.8627883" lon="11.8252717"><ele>536.0</ele><time>2026-03-29T11:57:03.069Z</time></trkpt><trkpt lat="42.8626917" lon="11.8251567"><ele>536.0</ele><time>2026-03-29T11:57:04.069Z</time></trkpt><trkpt lat="42.8625983" lon="11.82504"><ele>535.75</ele><time>2026-03-29T11:57:05.068Z</time></trkpt><trkpt lat="42.8625133" lon="11.8249217"><ele>535.5</ele><time>2026-03-29T11:57:06.068Z</time></trkpt><trkpt lat="42.8624383" lon="11.8248017"><ele>535.25</ele><time>2026-03-29T11:57:07.068Z</time></trkpt><trkpt lat="42.8623683" lon="11.8246783"><ele>535.0</ele><time>2026-03-29T11:57:08.068Z</time></trkpt><trkpt lat="42.8623033" lon="11.8245517"><ele>535.0</ele><time>2026-03-29T11:57:09.069Z</time></trkpt><trkpt lat="42.8622517" lon="11.824415"><ele>535.0</ele><time>2026-03-29T11:57:10.068Z</time></trkpt><trkpt lat="42.862205" lon="11.82427"><ele>535.0</ele><time>2026-03-29T11:57:11.068Z</time></trkpt><trkpt lat="42.8621783" lon="11.8241183"><ele>535.0</ele><time>2026-03-29T11:57:12.068Z</time></trkpt><trkpt lat="42.862175" lon="11.823975"><ele>535.0</ele><time>2026-03-29T11:57:13.069Z</time></trkpt><trkpt lat="42.8621767" lon="11.8238267"><ele>537.0</ele><time>2026-03-29T11:57:14.069Z</time></trkpt><trkpt lat="42.8621883" lon="11.8236867"><ele>539.0</ele><time>2026-03-29T11:57:15.069Z</time></trkpt><trkpt lat="42.8622067" lon="11.8235667"><ele>541.0</ele><time>2026-03-29T11:57:16.069Z</time></trkpt><trkpt lat="42.8622233" lon="11.8234517"><ele>543.0</ele><time>2026-03-29T11:57:17.069Z</time></trkpt><trkpt lat="42.8622467" lon="11.82333"><ele>545.0</ele><time>2026-03-29T11:57:18.069Z</time></trkpt><trkpt lat="42.8622567" lon="11.823205"><ele>546.5</ele><time>2026-03-29T11:57:19.068Z</time></trkpt><trkpt lat="42.8622567" lon="11.8230767"><ele>548.0</ele><time>2026-03-29T11:57:20.068Z</time></trkpt><trkpt lat="42.862255" lon="11.8229483"><ele>549.5</ele><time>2026-03-29T11:57:21.069Z</time></trkpt><trkpt lat="42.8622583" lon="11.8228233"><ele>551.0</ele><time>2026-03-29T11:57:22.069Z</time></trkpt><trkpt lat="42.8622633" lon="11.8227033"><ele>552.5</ele><time>2026-03-29T11:57:23.068Z</time></trkpt><trkpt lat="42.8622633" lon="11.822595"><ele>554.0</ele><time>2026-03-29T11:57:24.069Z</time></trkpt><trkpt lat="42.8622633" lon="11.822495"><ele>554.6666666666666</ele><time>2026-03-29T11:57:25.068Z</time></trkpt><trkpt lat="42.8622683" lon="11.822405"><ele>555.3333333333333</ele><time>2026-03-29T11:57:26.068Z</time></trkpt><trkpt lat="42.862275" lon="11.8222717"><ele>556.0</ele><time>2026-03-29T11:57:28.069Z</time></trkpt><trkpt lat="42.862225" lon="11.8222017"><ele>556.6666666666666</ele><time>2026-03-29T11:57:31.069Z</time></trkpt><trkpt lat="42.8621533" lon="11.8222667"><ele>557.3333333333334</ele><time>2026-03-29T11:57:37.068Z</time></trkpt><trkpt lat="42.8620583" lon="11.8222733"><ele>558.0</ele><time>2026-03-29T11:57:39.068Z</time></trkpt><trkpt lat="42.861995" lon="11.8222417"><ele>558.0</ele><time>2026-03-29T11:57:40.068Z</time></trkpt><trkpt lat="42.8619317" lon="11.8222033"><ele>558.0</ele><time>2026-03-29T11:57:41.069Z</time></trkpt><trkpt lat="42.8618683" lon="11.8221633"><ele>558.0</ele><time>2026-03-29T11:57:42.069Z</time></trkpt><trkpt lat="42.8617983" lon="11.8221233"><ele>558.0</ele><time>2026-03-29T11:57:43.068Z</time></trkpt><trkpt lat="42.8617283" lon="11.8220767"><ele>558.0</ele><time>2026-03-29T11:57:44.068Z</time></trkpt><trkpt lat="42.861655" lon="11.8220233"><ele>558.0</ele><time>2026-03-29T11:57:45.068Z</time></trkpt><trkpt lat="42.861585" lon="11.821975"><ele>556.0</ele><time>2026-03-29T11:57:46.068Z</time></trkpt><trkpt lat="42.8615167" lon="11.8219267"><ele>554.0</ele><time>2026-03-29T11:57:47.068Z</time></trkpt><trkpt lat="42.8614467" lon="11.8218833"><ele>552.0</ele><time>2026-03-29T11:57:48.068Z</time></trkpt><trkpt lat="42.86138" lon="11.8218433"><ele>550.0</ele><time>2026-03-29T11:57:49.069Z</time></trkpt><trkpt lat="42.8613117" lon="11.82182"><ele>548.0</ele><time>2026-03-29T11:57:50.069Z</time></trkpt><trkpt lat="42.8612367" lon="11.821825"><ele>546.0</ele><time>2026-03-29T11:57:51.069Z</time></trkpt><trkpt lat="42.8611583" lon="11.8218433"><ele>546.0</ele><time>2026-03-29T11:57:52.069Z</time></trkpt><trkpt lat="42.8610883" lon="11.8218317"><ele>546.0</ele><time>2026-03-29T11:57:53.068Z</time></trkpt><trkpt lat="42.8610167" lon="11.821815"><ele>546.0</ele><time>2026-03-29T11:57:54.069Z</time></trkpt><trkpt lat="42.86095" lon="11.8217883"><ele>546.0</ele><time>2026-03-29T11:57:55.069Z</time></trkpt><trkpt lat="42.8608917" lon="11.8217467"><ele>546.0</ele><time>2026-03-29T11:57:56.069Z</time></trkpt><trkpt lat="42.8608383" lon="11.8216917"><ele>546.0</ele><time>2026-03-29T11:57:57.068Z</time></trkpt><trkpt lat="42.8607783" lon="11.8216233"><ele>546.0</ele><time>2026-03-29T11:57:58.069Z</time></trkpt><trkpt lat="42.8607217" lon="11.8215417"><ele>545.5</ele><time>2026-03-29T11:57:59.069Z</time></trkpt><trkpt lat="42.8606617" lon="11.8214567"><ele>545.0</ele><time>2026-03-29T11:58:00.069Z</time></trkpt><trkpt lat="42.8606117" lon="11.821345"><ele>544.5</ele><time>2026-03-29T11:58:01.068Z</time></trkpt><trkpt lat="42.8605583" lon="11.8212383"><ele>544.0</ele><time>2026-03-29T11:58:02.069Z</time></trkpt><trkpt lat="42.8605183" lon="11.8211267"><ele>543.5</ele><time>2026-03-29T11:58:03.069Z</time></trkpt><trkpt lat="42.8604983" lon="11.82102"><ele>543.0</ele><time>2026-03-29T11:58:04.068Z</time></trkpt><trkpt lat="42.8604933" lon="11.8209017"><ele>545.0</ele><time>2026-03-29T11:58:05.068Z</time></trkpt><trkpt lat="42.8605017" lon="11.8207833"><ele>547.0</ele><time>2026-03-29T11:58:06.069Z</time></trkpt><trkpt lat="42.8605267" lon="11.8206733"><ele>549.0</ele><time>2026-03-29T11:58:07.069Z</time></trkpt><trkpt lat="42.860545" lon="11.8205567"><ele>551.0</ele><time>2026-03-29T11:58:08.068Z</time></trkpt><trkpt lat="42.860555" lon="11.82043"><ele>553.0</ele><time>2026-03-29T11:58:09.069Z</time></trkpt><trkpt lat="42.8605467" lon="11.820305"><ele>555.0</ele><time>2026-03-29T11:58:10.069Z</time></trkpt><trkpt lat="42.8605217" lon="11.8201867"><ele>557.0</ele><time>2026-03-29T11:58:11.068Z</time></trkpt><trkpt lat="42.860485" lon="11.820065"><ele>559.0</ele><time>2026-03-29T11:58:12.069Z</time></trkpt><trkpt lat="42.8604483" lon="11.8199417"><ele>561.0</ele><time>2026-03-29T11:58:13.069Z</time></trkpt><trkpt lat="42.8604167" lon="11.8198133"><ele>563.0</ele><time>2026-03-29T11:58:14.068Z</time></trkpt><trkpt lat="42.860385" lon="11.8197067"><ele>565.0</ele><time>2026-03-29T11:58:15.068Z</time></trkpt><trkpt lat="42.860355" lon="11.8196233"><ele>567.0</ele><time>2026-03-29T11:58:16.069Z</time></trkpt><trkpt lat="42.860315" lon="11.8195567"><ele>567.0</ele><time>2026-03-29T11:58:17.068Z</time></trkpt><trkpt lat="42.8602417" lon="11.8194633"><ele>567.0</ele><time>2026-03-29T11:58:19.069Z</time></trkpt><trkpt lat="42.86015" lon="11.81938"><ele>567.0</ele><time>2026-03-29T11:58:21.069Z</time></trkpt><trkpt lat="42.8600983" lon="11.81933"><ele>567.0</ele><time>2026-03-29T11:58:22.069Z</time></trkpt><trkpt lat="42.8600417" lon="11.8192883"><ele>567.0</ele><time>2026-03-29T11:58:23.069Z</time></trkpt><trkpt lat="42.8599183" lon="11.8192517"><ele>565.0</ele><time>2026-03-29T11:58:25.069Z</time></trkpt><trkpt lat="42.8598433" lon="11.819245"><ele>563.0</ele><time>2026-03-29T11:58:26.069Z</time></trkpt><trkpt lat="42.859765" lon="11.8192283"><ele>561.0</ele><time>2026-03-29T11:58:27.069Z</time></trkpt><trkpt lat="42.8596833" lon="11.8191983"><ele>559.0</ele><time>2026-03-29T11:58:28.068Z</time></trkpt><trkpt lat="42.8595917" lon="11.819185"><ele>557.0</ele><time>2026-03-29T11:58:29.068Z</time></trkpt><trkpt lat="42.8595083" lon="11.8191683"><ele>555.0</ele><time>2026-03-29T11:58:30.069Z</time></trkpt><trkpt lat="42.85943" lon="11.8191467"><ele>555.0000000000001</ele><time>2026-03-29T11:58:31.068Z</time></trkpt><trkpt lat="42.85936" lon="11.8191233"><ele>555.0</ele><time>2026-03-29T11:58:32.069Z</time></trkpt><trkpt lat="42.8592867" lon="11.8191133"><ele>555.0</ele><time>2026-03-29T11:58:33.069Z</time></trkpt><trkpt lat="42.8592183" lon="11.8191033"><ele>555.0</ele><time>2026-03-29T11:58:34.069Z</time></trkpt><trkpt lat="42.85915" lon="11.819085"><ele>555.0</ele><time>2026-03-29T11:58:35.069Z</time></trkpt><trkpt lat="42.85908" lon="11.819065"><ele>555.0000000000001</ele><time>2026-03-29T11:58:36.069Z</time></trkpt><trkpt lat="42.8590183" lon="11.8190317"><ele>555.0</ele><time>2026-03-29T11:58:37.069Z</time></trkpt><trkpt lat="42.8589633" lon="11.8189767"><ele>552.5</ele><time>2026-03-29T11:58:38.068Z</time></trkpt><trkpt lat="42.85892" lon="11.818895"><ele>550.0</ele><time>2026-03-29T11:58:39.069Z</time></trkpt><trkpt lat="42.8588667" lon="11.81881"><ele>547.5</ele><time>2026-03-29T11:58:40.068Z</time></trkpt><trkpt lat="42.85881" lon="11.81873"><ele>545.0</ele><time>2026-03-29T11:58:41.069Z</time></trkpt><trkpt lat="42.85875" lon="11.8186483"><ele>542.5</ele><time>2026-03-29T11:58:42.068Z</time></trkpt><trkpt lat="42.8586883" lon="11.8185733"><ele>540.0</ele><time>2026-03-29T11:58:43.069Z</time></trkpt><trkpt lat="42.858625" lon="11.818505"><ele>540.6666666666666</ele><time>2026-03-29T11:58:44.068Z</time></trkpt><trkpt lat="42.8585583" lon="11.81844"><ele>541.3333333333334</ele><time>2026-03-29T11:58:45.069Z</time></trkpt><trkpt lat="42.8584917" lon="11.8183817"><ele>542.0</ele><time>2026-03-29T11:58:46.069Z</time></trkpt><trkpt lat="42.8584133" lon="11.8183283"><ele>542.6666666666667</ele><time>2026-03-29T11:58:47.068Z</time></trkpt><trkpt lat="42.8583367" lon="11.81828"><ele>543.3333333333334</ele><time>2026-03-29T11:58:48.069Z</time></trkpt><trkpt lat="42.8582617" lon="11.818235"><ele>544.0</ele><time>2026-03-29T11:58:49.068Z</time></trkpt><trkpt lat="42.858185" lon="11.818195"><ele>541.8333333333334</ele><time>2026-03-29T11:58:50.068Z</time></trkpt><trkpt lat="42.85811" lon="11.8181583"><ele>539.6666666666667</ele><time>2026-03-29T11:58:51.068Z</time></trkpt><trkpt lat="42.858035" lon="11.8181183"><ele>537.5</ele><time>2026-03-29T11:58:52.069Z</time></trkpt><trkpt lat="42.8579683" lon="11.8180667"><ele>535.3333333333334</ele><time>2026-03-29T11:58:53.069Z</time></trkpt><trkpt lat="42.8579017" lon="11.818005"><ele>533.1666666666666</ele><time>2026-03-29T11:58:54.068Z</time></trkpt><trkpt lat="42.857825" lon="11.8179467"><ele>531.0</ele><time>2026-03-29T11:58:55.069Z</time></trkpt><trkpt lat="42.8577483" lon="11.817885"><ele>531.0</ele><time>2026-03-29T11:58:56.069Z</time></trkpt><trkpt lat="42.85767" lon="11.8178383"><ele>531.0</ele><time>2026-03-29T11:58:57.069Z</time></trkpt><trkpt lat="42.8575867" lon="11.8177917"><ele>531.0</ele><time>2026-03-29T11:58:58.069Z</time></trkpt><trkpt lat="42.8575017" lon="11.8177467"><ele>531.0</ele><time>2026-03-29T11:58:59.069Z</time></trkpt><trkpt lat="42.85742" lon="11.817705"><ele>531.0</ele><time>2026-03-29T11:59:00.069Z</time></trkpt><trkpt lat="42.8573333" lon="11.8176867"><ele>531.0</ele><time>2026-03-29T11:59:01.069Z</time></trkpt><trkpt lat="42.8572517" lon="11.8176667"><ele>528.6666666666666</ele><time>2026-03-29T11:59:02.068Z</time></trkpt><trkpt lat="42.85717" lon="11.8176583"><ele>526.3333333333334</ele><time>2026-03-29T11:59:03.068Z</time></trkpt><trkpt lat="42.8570883" lon="11.817655"><ele>524.0</ele><time>2026-03-29T11:59:04.069Z</time></trkpt><trkpt lat="42.8570067" lon="11.8176483"><ele>521.6666666666667</ele><time>2026-03-29T11:59:05.069Z</time></trkpt><trkpt lat="42.8569267" lon="11.8176383"><ele>519.3333333333334</ele><time>2026-03-29T11:59:06.069Z</time></trkpt><trkpt lat="42.8568533" lon="11.8176267"><ele>517.0</ele><time>2026-03-29T11:59:07.069Z</time></trkpt><trkpt lat="42.8567717" lon="11.8176167"><ele>516.3333333333334</ele><time>2026-03-29T11:59:08.069Z</time></trkpt><trkpt lat="42.85669" lon="11.8176017"><ele>515.6666666666667</ele><time>2026-03-29T11:59:09.069Z</time></trkpt><trkpt lat="42.8566117" lon="11.81759"><ele>515.0</ele><time>2026-03-29T11:59:10.069Z</time></trkpt><trkpt lat="42.8565267" lon="11.8175867"><ele>514.3333333333334</ele><time>2026-03-29T11:59:11.068Z</time></trkpt><trkpt lat="42.856445" lon="11.8175717"><ele>513.6666666666666</ele><time>2026-03-29T11:59:12.068Z</time></trkpt><trkpt lat="42.8563617" lon="11.8175567"><ele>513.0</ele><time>2026-03-29T11:59:13.068Z</time></trkpt><trkpt lat="42.8562883" lon="11.8175433"><ele>513.0</ele><time>2026-03-29T11:59:14.069Z</time></trkpt><trkpt lat="42.85622" lon="11.8175083"><ele>513.0</ele><time>2026-03-29T11:59:15.068Z</time></trkpt><trkpt lat="42.8561567" lon="11.8174683"><ele>513.0</ele><time>2026-03-29T11:59:16.069Z</time></trkpt><trkpt lat="42.856105" lon="11.8174"><ele>513.0</ele><time>2026-03-29T11:59:17.069Z</time></trkpt><trkpt lat="42.85605" lon="11.8173367"><ele>513.0</ele><time>2026-03-29T11:59:18.069Z</time></trkpt><trkpt lat="42.8559833" lon="11.8172667"><ele>513.0</ele><time>2026-03-29T11:59:19.068Z</time></trkpt><trkpt lat="42.85591" lon="11.8171967"><ele>515.6</ele><time>2026-03-29T11:59:20.068Z</time></trkpt><trkpt lat="42.855845" lon="11.8171233"><ele>518.1999999999999</ele><time>2026-03-29T11:59:21.069Z</time></trkpt><trkpt lat="42.8557683" lon="11.8170567"><ele>520.8</ele><time>2026-03-29T11:59:22.069Z</time></trkpt><trkpt lat="42.8556833" lon="11.8169967"><ele>523.4</ele><time>2026-03-29T11:59:23.068Z</time></trkpt><trkpt lat="42.8555933" lon="11.81695"><ele>526.0</ele><time>2026-03-29T11:59:24.068Z</time></trkpt><trkpt lat="42.8554983" lon="11.8169"><ele>526.0</ele><time>2026-03-29T11:59:25.069Z</time></trkpt><trkpt lat="42.8553983" lon="11.8168367"><ele>526.0</ele><time>2026-03-29T11:59:26.069Z</time></trkpt><trkpt lat="42.8552967" lon="11.816755"><ele>526.0</ele><time>2026-03-29T11:59:27.069Z</time></trkpt><trkpt lat="42.85521" lon="11.816665"><ele>526.0</ele><time>2026-03-29T11:59:28.069Z</time></trkpt><trkpt lat="42.855135" lon="11.81656"><ele>526.0</ele><time>2026-03-29T11:59:29.069Z</time></trkpt><trkpt lat="42.8550733" lon="11.816455"><ele>523.5</ele><time>2026-03-29T11:59:30.069Z</time></trkpt><trkpt lat="42.85502" lon="11.8163533"><ele>521.0</ele><time>2026-03-29T11:59:31.069Z</time></trkpt><trkpt lat="42.85497" lon="11.81626"><ele>518.5</ele><time>2026-03-29T11:59:32.069Z</time></trkpt><trkpt lat="42.8549117" lon="11.816165"><ele>516.0</ele><time>2026-03-29T11:59:33.069Z</time></trkpt><trkpt lat="42.854855" lon="11.8160933"><ele>513.5</ele><time>2026-03-29T11:59:34.069Z</time></trkpt><trkpt lat="42.8547833" lon="11.8160367"><ele>511.0</ele><time>2026-03-29T11:59:35.069Z</time></trkpt><trkpt lat="42.8547083" lon="11.8159967"><ele>511.00000000000006</ele><time>2026-03-29T11:59:36.068Z</time></trkpt><trkpt lat="42.85463" lon="11.8159817"><ele>511.0</ele><time>2026-03-29T11:59:37.069Z</time></trkpt><trkpt lat="42.8545437" lon="11.8159869"><ele>511.0</ele><time>2026-03-29T11:59:38.069Z</time></trkpt><trkpt lat="42.8544569" lon="11.8160162"><ele>511.0</ele><time>2026-03-29T11:59:39.069Z</time></trkpt><trkpt lat="42.8543731" lon="11.8160553"><ele>511.00000000000006</ele><time>2026-03-29T11:59:40.069Z</time></trkpt><trkpt lat="42.8542903" lon="11.8160866"><ele>511.0</ele><time>2026-03-29T11:59:41.069Z</time></trkpt><trkpt lat="42.8542087" lon="11.8161024"><ele>508.0</ele><time>2026-03-29T11:59:42.069Z</time></trkpt><trkpt lat="42.8541319" lon="11.816086"><ele>505.0</ele><time>2026-03-29T11:59:43.068Z</time></trkpt><trkpt lat="42.8540623" lon="11.816041"><ele>502.0</ele><time>2026-03-29T11:59:44.067Z</time></trkpt><trkpt lat="42.8539933" lon="11.815955"><ele>499.0</ele><time>2026-03-29T11:59:45.069Z</time></trkpt><trkpt lat="42.8539207" lon="11.8158508"><ele>496.0</ele><time>2026-03-29T11:59:46.07Z</time></trkpt><trkpt lat="42.853843" lon="11.8157421"><ele>494.20000000000005</ele><time>2026-03-29T11:59:47.07Z</time></trkpt><trkpt lat="42.853769" lon="11.815636"><ele>492.40000000000003</ele><time>2026-03-29T11:59:48.069Z</time></trkpt><trkpt lat="42.8536959" lon="11.815532"><ele>490.6</ele><time>2026-03-29T11:59:49.07Z</time></trkpt><trkpt lat="42.8536245" lon="11.8154268"><ele>488.8</ele><time>2026-03-29T11:59:50.07Z</time></trkpt><trkpt lat="42.8535516" lon="11.8153269"><ele>487.0</ele><time>2026-03-29T11:59:51.07Z</time></trkpt><trkpt lat="42.8534824" lon="11.8152238"><ele>485.8</ele><time>2026-03-29T11:59:52.069Z</time></trkpt><trkpt lat="42.853413" lon="11.8151173"><ele>484.6</ele><time>2026-03-29T11:59:53.07Z</time></trkpt><trkpt lat="42.8533458" lon="11.815012"><ele>483.40000000000003</ele><time>2026-03-29T11:59:54.07Z</time></trkpt><trkpt lat="42.853275" lon="11.8149037"><ele>482.20000000000005</ele><time>2026-03-29T11:59:55.07Z</time></trkpt><trkpt lat="42.8532045" lon="11.8147987"><ele>481.0</ele><time>2026-03-29T11:59:56.07Z</time></trkpt><trkpt lat="42.8531413" lon="11.8147004"><ele>481.0</ele><time>2026-03-29T11:59:57.07Z</time></trkpt><trkpt lat="42.8530862" lon="11.8145999"><ele>481.0</ele><time>2026-03-29T11:59:58.07Z</time></trkpt><trkpt lat="42.8530299" lon="11.8144885"><ele>481.0</ele><time>2026-03-29T11:59:59.069Z</time></trkpt><trkpt lat="42.8529734" lon="11.8143732"><ele>481.0</ele><time>2026-03-29T12:00:00.07Z</time></trkpt><trkpt lat="42.8529181" lon="11.8142631"><ele>481.0</ele><time>2026-03-29T12:00:01.07Z</time></trkpt><trkpt lat="42.8528626" lon="11.8141592"><ele>480.50000000000006</ele><time>2026-03-29T12:00:02.069Z</time></trkpt><trkpt lat="42.8528009" lon="11.8140647"><ele>480.0</ele><time>2026-03-29T12:00:03.07Z</time></trkpt><trkpt lat="42.8527356" lon="11.8139878"><ele>479.5</ele><time>2026-03-29T12:00:04.07Z</time></trkpt><trkpt lat="42.8526656" lon="11.8139292"><ele>479.0</ele><time>2026-03-29T12:00:05.069Z</time></trkpt><trkpt lat="42.8525857" lon="11.8138873"><ele>478.50000000000006</ele><time>2026-03-29T12:00:06.07Z</time></trkpt><trkpt lat="42.8524958" lon="11.8138564"><ele>478.0</ele><time>2026-03-29T12:00:07.07Z</time></trkpt><trkpt lat="42.8523961" lon="11.8138361"><ele>481.79999999999995</ele><time>2026-03-29T12:00:08.069Z</time></trkpt><trkpt lat="42.8522883" lon="11.8138305"><ele>485.59999999999997</ele><time>2026-03-29T12:00:09.069Z</time></trkpt><trkpt lat="42.8521781" lon="11.8138352"><ele>489.40000000000003</ele><time>2026-03-29T12:00:10.07Z</time></trkpt><trkpt lat="42.852076" lon="11.8138466"><ele>493.20000000000005</ele><time>2026-03-29T12:00:11.07Z</time></trkpt><trkpt lat="42.85198" lon="11.8138525"><ele>497.0</ele><time>2026-03-29T12:00:12.07Z</time></trkpt><trkpt lat="42.8518839" lon="11.8138399"><ele>497.25</ele><time>2026-03-29T12:00:13.07Z</time></trkpt><trkpt lat="42.8517896" lon="11.8137986"><ele>497.5</ele><time>2026-03-29T12:00:14.069Z</time></trkpt><trkpt lat="42.8516848" lon="11.8137168"><ele>497.75</ele><time>2026-03-29T12:00:15.069Z</time></trkpt><trkpt lat="42.8515777" lon="11.813604"><ele>498.0</ele><time>2026-03-29T12:00:16.07Z</time></trkpt><trkpt lat="42.851471" lon="11.8134784"><ele>498.75</ele><time>2026-03-29T12:00:17.069Z</time></trkpt><trkpt lat="42.8513567" lon="11.8133646"><ele>499.5</ele><time>2026-03-29T12:00:18.07Z</time></trkpt><trkpt lat="42.8512339" lon="11.8132597"><ele>500.25</ele><time>2026-03-29T12:00:19.069Z</time></trkpt><trkpt lat="42.8511054" lon="11.8131357"><ele>501.0</ele><time>2026-03-29T12:00:20.07Z</time></trkpt><trkpt lat="42.8509739" lon="11.8130334"><ele>502.0</ele><time>2026-03-29T12:00:21.069Z</time></trkpt><trkpt lat="42.850844" lon="11.8129643"><ele>503.0</ele><time>2026-03-29T12:00:22.069Z</time></trkpt><trkpt lat="42.850721" lon="11.812911"><ele>504.0</ele><time>2026-03-29T12:00:23.07Z</time></trkpt><trkpt lat="42.8506023" lon="11.8128781"><ele>505.0</ele><time>2026-03-29T12:00:24.07Z</time></trkpt><trkpt lat="42.850488" lon="11.8128706"><ele>505.0</ele><time>2026-03-29T12:00:25.069Z</time></trkpt><trkpt lat="42.8503815" lon="11.8128993"><ele>505.0</ele><time>2026-03-29T12:00:26.07Z</time></trkpt><trkpt lat="42.8502826" lon="11.8129651"><ele>505.0</ele><time>2026-03-29T12:00:27.07Z</time></trkpt><trkpt lat="42.8501827" lon="11.8130523"><ele>505.0</ele><time>2026-03-29T12:00:28.07Z</time></trkpt><trkpt lat="42.8500724" lon="11.8131348"><ele>503.75</ele><time>2026-03-29T12:00:29.07Z</time></trkpt><trkpt lat="42.8499567" lon="11.8131828"><ele>502.5</ele><time>2026-03-29T12:00:30.07Z</time></trkpt><trkpt lat="42.8498388" lon="11.8131685"><ele>501.25</ele><time>2026-03-29T12:00:31.07Z</time></trkpt><trkpt lat="42.849714" lon="11.8131108"><ele>500.0</ele><time>2026-03-29T12:00:32.069Z</time></trkpt><trkpt lat="42.8496008" lon="11.813028"><ele>500.0</ele><time>2026-03-29T12:00:33.069Z</time></trkpt><trkpt lat="42.8494785" lon="11.812925"><ele>500.0</ele><time>2026-03-29T12:00:34.069Z</time></trkpt><trkpt lat="42.8493559" lon="11.8127952"><ele>500.0</ele><time>2026-03-29T12:00:35.07Z</time></trkpt><trkpt lat="42.849239" lon="11.8126629"><ele>500.0</ele><time>2026-03-29T12:00:36.07Z</time></trkpt><trkpt lat="42.8491393" lon="11.8125305"><ele>500.0</ele><time>2026-03-29T12:00:37.07Z</time></trkpt><trkpt lat="42.8490487" lon="11.8124037"><ele>500.0</ele><time>2026-03-29T12:00:38.07Z</time></trkpt><trkpt lat="42.8489847" lon="11.8122752"><ele>500.0</ele><time>2026-03-29T12:00:39.07Z</time></trkpt><trkpt lat="42.8489466" lon="11.8121443"><ele>500.0</ele><time>2026-03-29T12:00:40.07Z</time></trkpt><trkpt lat="42.8489107" lon="11.8120214"><ele>500.0</ele><time>2026-03-29T12:00:41.069Z</time></trkpt><trkpt lat="42.848856" lon="11.8118917"><ele>500.0</ele><time>2026-03-29T12:00:42.069Z</time></trkpt><trkpt lat="42.8487856" lon="11.8117606"><ele>500.0</ele><time>2026-03-29T12:00:43.069Z</time></trkpt><trkpt lat="42.8487169" lon="11.8116265"><ele>500.0</ele><time>2026-03-29T12:00:44.07Z</time></trkpt><trkpt lat="42.8486611" lon="11.8115023"><ele>499.8</ele><time>2026-03-29T12:00:45.07Z</time></trkpt><trkpt lat="42.8486153" lon="11.8113867"><ele>499.6</ele><time>2026-03-29T12:00:46.07Z</time></trkpt><trkpt lat="42.8485725" lon="11.8112768"><ele>499.4</ele><time>2026-03-29T12:00:47.069Z</time></trkpt><trkpt lat="42.8485189" lon="11.8111757"><ele>499.2</ele><time>2026-03-29T12:00:48.069Z</time></trkpt><trkpt lat="42.848458" lon="11.8110826"><ele>499.0</ele><time>2026-03-29T12:00:49.07Z</time></trkpt><trkpt lat="42.8483779" lon="11.8110083"><ele>497.2</ele><time>2026-03-29T12:00:50.07Z</time></trkpt><trkpt lat="42.8482918" lon="11.810956"><ele>495.4</ele><time>2026-03-29T12:00:51.07Z</time></trkpt><trkpt lat="42.8481887" lon="11.8109161"><ele>493.6</ele><time>2026-03-29T12:00:52.069Z</time></trkpt><trkpt lat="42.8480954" lon="11.8108641"><ele>491.8</ele><time>2026-03-29T12:00:53.07Z</time></trkpt><trkpt lat="42.8480119" lon="11.8107822"><ele>490.0</ele><time>2026-03-29T12:00:54.07Z</time></trkpt><trkpt lat="42.8479447" lon="11.8106809"><ele>490.0</ele><time>2026-03-29T12:00:55.069Z</time></trkpt><trkpt lat="42.847881" lon="11.8105623"><ele>490.0</ele><time>2026-03-29T12:00:56.07Z</time></trkpt><trkpt lat="42.8478035" lon="11.8104338"><ele>490.0</ele><time>2026-03-29T12:00:57.07Z</time></trkpt><trkpt lat="42.8477198" lon="11.8103141"><ele>490.0</ele><time>2026-03-29T12:00:58.07Z</time></trkpt><trkpt lat="42.8476326" lon="11.8102041"><ele>488.0</ele><time>2026-03-29T12:00:59.07Z</time></trkpt><trkpt lat="42.8475455" lon="11.8101024"><ele>486.0</ele><time>2026-03-29T12:01:00.07Z</time></trkpt><trkpt lat="42.8474594" lon="11.8100063"><ele>484.0</ele><time>2026-03-29T12:01:01.07Z</time></trkpt><trkpt lat="42.8473686" lon="11.8099107"><ele>482.0</ele><time>2026-03-29T12:01:02.07Z</time></trkpt><trkpt lat="42.8472707" lon="11.8098226"><ele>482.0</ele><time>2026-03-29T12:01:03.07Z</time></trkpt><trkpt lat="42.8471647" lon="11.8097344"><ele>482.0</ele><time>2026-03-29T12:01:04.069Z</time></trkpt><trkpt lat="42.8470547" lon="11.8096401"><ele>482.0</ele><time>2026-03-29T12:01:05.069Z</time></trkpt><trkpt lat="42.8469517" lon="11.8095508"><ele>482.0</ele><time>2026-03-29T12:01:06.07Z</time></trkpt><trkpt lat="42.8468512" lon="11.8094673"><ele>481.0</ele><time>2026-03-29T12:01:07.07Z</time></trkpt><trkpt lat="42.8467605" lon="11.809402"><ele>480.0</ele><time>2026-03-29T12:01:08.069Z</time></trkpt><trkpt lat="42.8466556" lon="11.8093213"><ele>479.0</ele><time>2026-03-29T12:01:09.069Z</time></trkpt><trkpt lat="42.8465493" lon="11.8092445"><ele>478.0</ele><time>2026-03-29T12:01:10.07Z</time></trkpt><trkpt lat="42.8464466" lon="11.809165"><ele>477.5</ele><time>2026-03-29T12:01:11.07Z</time></trkpt><trkpt lat="42.8463462" lon="11.8090795"><ele>477.0</ele><time>2026-03-29T12:01:12.07Z</time></trkpt><trkpt lat="42.8462418" lon="11.8089916"><ele>476.5</ele><time>2026-03-29T12:01:13.069Z</time></trkpt><trkpt lat="42.8461497" lon="11.8089049"><ele>476.0</ele><time>2026-03-29T12:01:14.07Z</time></trkpt><trkpt lat="42.8460581" lon="11.8088322"><ele>476.0</ele><time>2026-03-29T12:01:15.069Z</time></trkpt><trkpt lat="42.845969" lon="11.8087691"><ele>476.0</ele><time>2026-03-29T12:01:16.069Z</time></trkpt><trkpt lat="42.8458787" lon="11.8087291"><ele>476.0</ele><time>2026-03-29T12:01:17.07Z</time></trkpt><trkpt lat="42.845775" lon="11.80872"><ele>476.0</ele><time>2026-03-29T12:01:18.07Z</time></trkpt><trkpt lat="42.8456633" lon="11.8087067"><ele>476.0</ele><time>2026-03-29T12:01:19.07Z</time></trkpt><trkpt lat="42.845555" lon="11.80869"><ele>477.25</ele><time>2026-03-29T12:01:20.07Z</time></trkpt><trkpt lat="42.84543" lon="11.808665"><ele>478.5</ele><time>2026-03-29T12:01:21.07Z</time></trkpt><trkpt lat="42.8453083" lon="11.80864"><ele>479.75</ele><time>2026-03-29T12:01:22.07Z</time></trkpt><trkpt lat="42.8451983" lon="11.8086117"><ele>481.0</ele><time>2026-03-29T12:01:23.069Z</time></trkpt><trkpt lat="42.8450883" lon="11.8085617"><ele>481.0</ele><time>2026-03-29T12:01:24.069Z</time></trkpt><trkpt lat="42.8449867" lon="11.8085117"><ele>481.0</ele><time>2026-03-29T12:01:25.07Z</time></trkpt><trkpt lat="42.8448917" lon="11.808445"><ele>481.0</ele><time>2026-03-29T12:01:26.069Z</time></trkpt><trkpt lat="42.8448017" lon="11.8083467"><ele>481.0</ele><time>2026-03-29T12:01:27.07Z</time></trkpt><trkpt lat="42.844715" lon="11.8082167"><ele>479.75</ele><time>2026-03-29T12:01:28.07Z</time></trkpt><trkpt lat="42.8446433" lon="11.8080583"><ele>478.5</ele><time>2026-03-29T12:01:29.07Z</time></trkpt><trkpt lat="42.8445817" lon="11.8078983"><ele>477.25</ele><time>2026-03-29T12:01:30.07Z</time></trkpt><trkpt lat="42.8445167" lon="11.8077467"><ele>476.0</ele><time>2026-03-29T12:01:31.069Z</time></trkpt><trkpt lat="42.8444567" lon="11.8076167"><ele>475.8</ele><time>2026-03-29T12:01:32.07Z</time></trkpt><trkpt lat="42.8443983" lon="11.8075017"><ele>475.6</ele><time>2026-03-29T12:01:33.07Z</time></trkpt><trkpt lat="42.8443333" lon="11.807405"><ele>475.4</ele><time>2026-03-29T12:01:34.07Z</time></trkpt><trkpt lat="42.84426" lon="11.80731"><ele>475.2</ele><time>2026-03-29T12:01:35.07Z</time></trkpt><trkpt lat="42.8441767" lon="11.807205"><ele>475.0</ele><time>2026-03-29T12:01:36.07Z</time></trkpt><trkpt lat="42.8440917" lon="11.80709"><ele>475.0</ele><time>2026-03-29T12:01:37.07Z</time></trkpt><trkpt lat="42.8440017" lon="11.8069783"><ele>475.0</ele><time>2026-03-29T12:01:38.069Z</time></trkpt><trkpt lat="42.84392" lon="11.80687"><ele>475.0</ele><time>2026-03-29T12:01:39.07Z</time></trkpt><trkpt lat="42.8438367" lon="11.8067517"><ele>475.0</ele><time>2026-03-29T12:01:40.07Z</time></trkpt><trkpt lat="42.84375" lon="11.8066333"><ele>473.0</ele><time>2026-03-29T12:01:41.07Z</time></trkpt><trkpt lat="42.843665" lon="11.8065067"><ele>471.0</ele><time>2026-03-29T12:01:42.069Z</time></trkpt><trkpt lat="42.84359" lon="11.8063717"><ele>469.0</ele><time>2026-03-29T12:01:43.07Z</time></trkpt><trkpt lat="42.843505" lon="11.806235"><ele>467.0</ele><time>2026-03-29T12:01:44.069Z</time></trkpt><trkpt lat="42.843425" lon="11.8060833"><ele>466.0</ele><time>2026-03-29T12:01:45.07Z</time></trkpt><trkpt lat="42.84335" lon="11.8059233"><ele>465.0</ele><time>2026-03-29T12:01:46.069Z</time></trkpt><trkpt lat="42.8432767" lon="11.805765"><ele>464.0</ele><time>2026-03-29T12:01:47.07Z</time></trkpt><trkpt lat="42.843195" lon="11.8056067"><ele>463.0</ele><time>2026-03-29T12:01:48.07Z</time></trkpt><trkpt lat="42.8431117" lon="11.8054417"><ele>463.0</ele><time>2026-03-29T12:01:49.07Z</time></trkpt><trkpt lat="42.8430233" lon="11.8052717"><ele>463.0</ele><time>2026-03-29T12:01:50.07Z</time></trkpt><trkpt lat="42.842935" lon="11.8051017"><ele>463.0</ele><time>2026-03-29T12:01:51.069Z</time></trkpt><trkpt lat="42.8428517" lon="11.80493"><ele>461.75</ele><time>2026-03-29T12:01:52.07Z</time></trkpt><trkpt lat="42.8427717" lon="11.804765"><ele>460.5</ele><time>2026-03-29T12:01:53.07Z</time></trkpt><trkpt lat="42.84269" lon="11.8045933"><ele>459.25</ele><time>2026-03-29T12:01:54.069Z</time></trkpt><trkpt lat="42.8425983" lon="11.8044333"><ele>458.0</ele><time>2026-03-29T12:01:55.069Z</time></trkpt><trkpt lat="42.84252" lon="11.80428"><ele>458.0</ele><time>2026-03-29T12:01:56.07Z</time></trkpt><trkpt lat="42.8424333" lon="11.804125"><ele>458.0</ele><time>2026-03-29T12:01:57.07Z</time></trkpt><trkpt lat="42.8423517" lon="11.8039717"><ele>458.0</ele><time>2026-03-29T12:01:58.07Z</time></trkpt><trkpt lat="42.8422667" lon="11.8037983"><ele>458.0</ele><time>2026-03-29T12:01:59.07Z</time></trkpt><trkpt lat="42.8421867" lon="11.8036317"><ele>458.25</ele><time>2026-03-29T12:02:00.069Z</time></trkpt><trkpt lat="42.84211" lon="11.803475"><ele>458.5</ele><time>2026-03-29T12:02:01.07Z</time></trkpt><trkpt lat="42.8420417" lon="11.8033267"><ele>458.75</ele><time>2026-03-29T12:02:02.07Z</time></trkpt><trkpt lat="42.8419683" lon="11.80319"><ele>459.0</ele><time>2026-03-29T12:02:03.07Z</time></trkpt><trkpt lat="42.84189" lon="11.8030533"><ele>456.25</ele><time>2026-03-29T12:02:04.07Z</time></trkpt><trkpt lat="42.8417983" lon="11.8029267"><ele>453.5</ele><time>2026-03-29T12:02:05.07Z</time></trkpt><trkpt lat="42.84169" lon="11.8028083"><ele>450.75</ele><time>2026-03-29T12:02:06.07Z</time></trkpt><trkpt lat="42.8415883" lon="11.80271"><ele>448.0</ele><time>2026-03-29T12:02:07.069Z</time></trkpt><trkpt lat="42.841495" lon="11.8026267"><ele>448.0</ele><time>2026-03-29T12:02:08.069Z</time></trkpt><trkpt lat="42.841395" lon="11.8025617"><ele>447.99999999999994</ele><time>2026-03-29T12:02:09.07Z</time></trkpt><trkpt lat="42.841295" lon="11.80252"><ele>447.99999999999994</ele><time>2026-03-29T12:02:10.069Z</time></trkpt><trkpt lat="42.8411983" lon="11.8024983"><ele>448.0</ele><time>2026-03-29T12:02:11.069Z</time></trkpt><trkpt lat="42.84109" lon="11.802515"><ele>448.0</ele><time>2026-03-29T12:02:12.07Z</time></trkpt><trkpt lat="42.84097" lon="11.8025617"><ele>448.33333333333337</ele><time>2026-03-29T12:02:13.07Z</time></trkpt><trkpt lat="42.84084" lon="11.802615"><ele>448.66666666666663</ele><time>2026-03-29T12:02:14.07Z</time></trkpt><trkpt lat="42.840685" lon="11.8026783"><ele>449.0</ele><time>2026-03-29T12:02:15.07Z</time></trkpt><trkpt lat="42.8404967" lon="11.8027633"><ele>447.66666666666663</ele><time>2026-03-29T12:02:16.07Z</time></trkpt><trkpt lat="42.8402883" lon="11.8028417"><ele>446.33333333333337</ele><time>2026-03-29T12:02:17.07Z</time></trkpt><trkpt lat="42.8400667" lon="11.8029233"><ele>445.0</ele><time>2026-03-29T12:02:18.07Z</time></trkpt><trkpt lat="42.839835" lon="11.8030033"><ele>444.6666666666667</ele><time>2026-03-29T12:02:19.07Z</time></trkpt><trkpt lat="42.8396167" lon="11.803095"><ele>444.33333333333337</ele><time>2026-03-29T12:02:20.069Z</time></trkpt><trkpt lat="42.83942" lon="11.8031733"><ele>444.0</ele><time>2026-03-29T12:02:21.07Z</time></trkpt><trkpt lat="42.8392517" lon="11.803245"><ele>445.66666666666663</ele><time>2026-03-29T12:02:22.07Z</time></trkpt><trkpt lat="42.8390933" lon="11.803315"><ele>447.3333333333333</ele><time>2026-03-29T12:02:23.07Z</time></trkpt><trkpt lat="42.8389417" lon="11.8033633"><ele>449.0</ele><time>2026-03-29T12:02:24.069Z</time></trkpt><trkpt lat="42.838815" lon="11.8033867"><ele>449.0</ele><time>2026-03-29T12:02:25.07Z</time></trkpt><trkpt lat="42.8386917" lon="11.8033733"><ele>449.0</ele><time>2026-03-29T12:02:26.07Z</time></trkpt><trkpt lat="42.8385917" lon="11.8033117"><ele>449.0</ele><time>2026-03-29T12:02:27.069Z</time></trkpt><trkpt lat="42.838485" lon="11.8032117"><ele>449.0</ele><time>2026-03-29T12:02:28.07Z</time></trkpt><trkpt lat="42.8383667" lon="11.8030667"><ele>449.3333333333333</ele><time>2026-03-29T12:02:29.07Z</time></trkpt><trkpt lat="42.8382317" lon="11.8028783"><ele>449.66666666666663</ele><time>2026-03-29T12:02:30.069Z</time></trkpt><trkpt lat="42.8380917" lon="11.8026917"><ele>450.0</ele><time>2026-03-29T12:02:31.07Z</time></trkpt><trkpt lat="42.8379567" lon="11.8025183"><ele>450.0</ele><time>2026-03-29T12:02:32.069Z</time></trkpt><trkpt lat="42.8378233" lon="11.80236"><ele>450.0</ele><time>2026-03-29T12:02:33.07Z</time></trkpt><trkpt lat="42.8377033" lon="11.8022017"><ele>450.0</ele><time>2026-03-29T12:02:34.07Z</time></trkpt><trkpt lat="42.83758" lon="11.80203"><ele>448.0</ele><time>2026-03-29T12:02:35.07Z</time></trkpt><trkpt lat="42.837455" lon="11.8018567"><ele>446.0</ele><time>2026-03-29T12:02:36.07Z</time></trkpt><trkpt lat="42.837345" lon="11.8016667"><ele>444.0</ele><time>2026-03-29T12:02:37.07Z</time></trkpt><trkpt lat="42.83723" lon="11.8014517"><ele>442.66666666666663</ele><time>2026-03-29T12:02:38.07Z</time></trkpt><trkpt lat="42.8371183" lon="11.801225"><ele>441.3333333333333</ele><time>2026-03-29T12:02:39.069Z</time></trkpt><trkpt lat="42.8370083" lon="11.8010117"><ele>440.0</ele><time>2026-03-29T12:02:40.07Z</time></trkpt><trkpt lat="42.8368833" lon="11.8007833"><ele>437.3333333333333</ele><time>2026-03-29T12:02:41.069Z</time></trkpt><trkpt lat="42.836755" lon="11.8005533"><ele>434.66666666666663</ele><time>2026-03-29T12:02:42.07Z</time></trkpt><trkpt lat="42.8366217" lon="11.80031"><ele>432.0</ele><time>2026-03-29T12:02:43.07Z</time></trkpt><trkpt lat="42.836475" lon="11.80005"><ele>430.5</ele><time>2026-03-29T12:02:44.07Z</time></trkpt><trkpt lat="42.8363267" lon="11.799775"><ele>429.0</ele><time>2026-03-29T12:02:45.069Z</time></trkpt><trkpt lat="42.836185" lon="11.7995333"><ele>431.0</ele><time>2026-03-29T12:02:46.069Z</time></trkpt><trkpt lat="42.8360517" lon="11.79932"><ele>433.0</ele><time>2026-03-29T12:02:47.07Z</time></trkpt><trkpt lat="42.8359367" lon="11.7991167"><ele>435.0</ele><time>2026-03-29T12:02:48.07Z</time></trkpt><trkpt lat="42.835825" lon="11.79892"><ele>435.0</ele><time>2026-03-29T12:02:49.07Z</time></trkpt><trkpt lat="42.83571" lon="11.7987467"><ele>435.0</ele><time>2026-03-29T12:02:50.069Z</time></trkpt><trkpt lat="42.8356183" lon="11.7985717"><ele>435.0</ele><time>2026-03-29T12:02:51.069Z</time></trkpt><trkpt lat="42.8355633" lon="11.79841"><ele>434.75</ele><time>2026-03-29T12:02:52.069Z</time></trkpt><trkpt lat="42.83551" lon="11.7982533"><ele>434.5</ele><time>2026-03-29T12:02:53.07Z</time></trkpt><trkpt lat="42.8354633" lon="11.7980867"><ele>434.25</ele><time>2026-03-29T12:02:54.069Z</time></trkpt><trkpt lat="42.83545" lon="11.797915"><ele>434.0</ele><time>2026-03-29T12:02:55.07Z</time></trkpt><trkpt lat="42.83543" lon="11.797695"><ele>433.3333333333333</ele><time>2026-03-29T12:02:56.07Z</time></trkpt><trkpt lat="42.8354083" lon="11.7974217"><ele>432.66666666666663</ele><time>2026-03-29T12:02:57.07Z</time></trkpt><trkpt lat="42.8353917" lon="11.7971167"><ele>432.0</ele><time>2026-03-29T12:02:58.07Z</time></trkpt><trkpt lat="42.8353633" lon="11.79682"><ele>431.33333333333337</ele><time>2026-03-29T12:02:59.069Z</time></trkpt><trkpt lat="42.8353417" lon="11.796545"><ele>430.6666666666667</ele><time>2026-03-29T12:03:00.07Z</time></trkpt><trkpt lat="42.8353283" lon="11.7963017"><ele>430.0</ele><time>2026-03-29T12:03:01.069Z</time></trkpt><trkpt lat="42.8353133" lon="11.7960683"><ele>430.25</ele><time>2026-03-29T12:03:02.07Z</time></trkpt><trkpt lat="42.8353" lon="11.795865"><ele>430.5</ele><time>2026-03-29T12:03:03.07Z</time></trkpt><trkpt lat="42.83528" lon="11.7956733"><ele>430.75</ele><time>2026-03-29T12:03:04.07Z</time></trkpt><trkpt lat="42.8352483" lon="11.795475"><ele>431.0</ele><time>2026-03-29T12:03:05.07Z</time></trkpt><trkpt lat="42.8352" lon="11.7952733"><ele>431.75</ele><time>2026-03-29T12:03:06.069Z</time></trkpt><trkpt lat="42.8351517" lon="11.7950767"><ele>432.5</ele><time>2026-03-29T12:03:07.07Z</time></trkpt><trkpt lat="42.835095" lon="11.794895"><ele>433.25</ele><time>2026-03-29T12:03:08.07Z</time></trkpt><trkpt lat="42.83504" lon="11.7947233"><ele>434.0</ele><time>2026-03-29T12:03:09.07Z</time></trkpt><trkpt lat="42.834985" lon="11.79456"><ele>433.75</ele><time>2026-03-29T12:03:10.07Z</time></trkpt><trkpt lat="42.8349233" lon="11.7944033"><ele>433.5</ele><time>2026-03-29T12:03:11.07Z</time></trkpt><trkpt lat="42.8348517" lon="11.7942617"><ele>433.25</ele><time>2026-03-29T12:03:12.07Z</time></trkpt><trkpt lat="42.8347617" lon="11.79412"><ele>433.0</ele><time>2026-03-29T12:03:13.07Z</time></trkpt><trkpt lat="42.8346433" lon="11.7939733"><ele>433.0</ele><time>2026-03-29T12:03:14.07Z</time></trkpt><trkpt lat="42.83451" lon="11.793825"><ele>433.0</ele><time>2026-03-29T12:03:15.07Z</time></trkpt><trkpt lat="42.8343667" lon="11.7936783"><ele>433.0</ele><time>2026-03-29T12:03:16.069Z</time></trkpt><trkpt lat="42.834225" lon="11.7935367"><ele>428.33333333333337</ele><time>2026-03-29T12:03:17.07Z</time></trkpt><trkpt lat="42.8340933" lon="11.7933967"><ele>423.66666666666663</ele><time>2026-03-29T12:03:18.07Z</time></trkpt><trkpt lat="42.8339683" lon="11.7932317"><ele>419.0</ele><time>2026-03-29T12:03:19.07Z</time></trkpt><trkpt lat="42.8338417" lon="11.7930567"><ele>419.0</ele><time>2026-03-29T12:03:20.07Z</time></trkpt><trkpt lat="42.8337333" lon="11.79289"><ele>419.0</ele><time>2026-03-29T12:03:21.069Z</time></trkpt><trkpt lat="42.833625" lon="11.792735"><ele>419.0</ele><time>2026-03-29T12:03:22.07Z</time></trkpt><trkpt lat="42.8335383" lon="11.79259"><ele>418.75</ele><time>2026-03-29T12:03:23.07Z</time></trkpt><trkpt lat="42.8334417" lon="11.79245"><ele>418.5</ele><time>2026-03-29T12:03:24.07Z</time></trkpt><trkpt lat="42.833345" lon="11.7923117"><ele>418.25</ele><time>2026-03-29T12:03:25.07Z</time></trkpt><trkpt lat="42.8332533" lon="11.7922033"><ele>418.0</ele><time>2026-03-29T12:03:26.07Z</time></trkpt><trkpt lat="42.8331567" lon="11.792105"><ele>418.0</ele><time>2026-03-29T12:03:27.07Z</time></trkpt><trkpt lat="42.8330567" lon="11.792025"><ele>418.0</ele><time>2026-03-29T12:03:28.07Z</time></trkpt><trkpt lat="42.832955" lon="11.7919667"><ele>418.0</ele><time>2026-03-29T12:03:29.07Z</time></trkpt><trkpt lat="42.83284" lon="11.7919333"><ele>418.0</ele><time>2026-03-29T12:03:30.07Z</time></trkpt><trkpt lat="42.8327217" lon="11.791925"><ele>417.5</ele><time>2026-03-29T12:03:31.07Z</time></trkpt><trkpt lat="42.8325967" lon="11.7919517"><ele>417.0</ele><time>2026-03-29T12:03:32.07Z</time></trkpt><trkpt lat="42.8324583" lon="11.7919967"><ele>416.5</ele><time>2026-03-29T12:03:33.069Z</time></trkpt><trkpt lat="42.8323267" lon="11.7920733"><ele>416.0</ele><time>2026-03-29T12:03:34.07Z</time></trkpt><trkpt lat="42.8322" lon="11.7921417"><ele>416.0</ele><time>2026-03-29T12:03:35.07Z</time></trkpt><trkpt lat="42.83209" lon="11.7922183"><ele>416.0</ele><time>2026-03-29T12:03:36.07Z</time></trkpt><trkpt lat="42.832" lon="11.7923067"><ele>416.0</ele><time>2026-03-29T12:03:37.07Z</time></trkpt><trkpt lat="42.8319283" lon="11.7924133"><ele>416.0</ele><time>2026-03-29T12:03:38.07Z</time></trkpt><trkpt lat="42.8318683" lon="11.792535"><ele>416.0</ele><time>2026-03-29T12:03:39.07Z</time></trkpt><trkpt lat="42.831825" lon="11.7926983"><ele>412.25</ele><time>2026-03-29T12:03:40.07Z</time></trkpt><trkpt lat="42.8317733" lon="11.7928817"><ele>408.5</ele><time>2026-03-29T12:03:41.07Z</time></trkpt><trkpt lat="42.8317317" lon="11.793065"><ele>404.75</ele><time>2026-03-29T12:03:42.07Z</time></trkpt><trkpt lat="42.8316867" lon="11.7932217"><ele>401.0</ele><time>2026-03-29T12:03:43.07Z</time></trkpt><trkpt lat="42.8316217" lon="11.79335"><ele>401.0</ele><time>2026-03-29T12:03:44.069Z</time></trkpt><trkpt lat="42.8315483" lon="11.793465"><ele>401.0</ele><time>2026-03-29T12:03:45.069Z</time></trkpt><trkpt lat="42.8314567" lon="11.7935467"><ele>401.0</ele><time>2026-03-29T12:03:46.07Z</time></trkpt><trkpt lat="42.8313483" lon="11.793585"><ele>401.0</ele><time>2026-03-29T12:03:47.07Z</time></trkpt><trkpt lat="42.831215" lon="11.7935933"><ele>398.66666666666663</ele><time>2026-03-29T12:03:48.07Z</time></trkpt><trkpt lat="42.8310467" lon="11.7935917"><ele>396.33333333333337</ele><time>2026-03-29T12:03:49.07Z</time></trkpt><trkpt lat="42.83085" lon="11.793585"><ele>394.0</ele><time>2026-03-29T12:03:50.07Z</time></trkpt><trkpt lat="42.8306367" lon="11.79357"><ele>394.0</ele><time>2026-03-29T12:03:51.07Z</time></trkpt><trkpt lat="42.8304017" lon="11.79356"><ele>394.0</ele><time>2026-03-29T12:03:52.07Z</time></trkpt><trkpt lat="42.8301683" lon="11.7935517"><ele>392.33333333333337</ele><time>2026-03-29T12:03:53.069Z</time></trkpt><trkpt lat="42.8299483" lon="11.7935433"><ele>390.66666666666663</ele><time>2026-03-29T12:03:54.07Z</time></trkpt><trkpt lat="42.8297517" lon="11.7935333"><ele>389.0</ele><time>2026-03-29T12:03:55.07Z</time></trkpt><trkpt lat="42.8295683" lon="11.79352"><ele>389.0</ele><time>2026-03-29T12:03:56.069Z</time></trkpt><trkpt lat="42.829385" lon="11.7935167"><ele>389.0</ele><time>2026-03-29T12:03:57.07Z</time></trkpt><trkpt lat="42.829215" lon="11.7935333"><ele>389.0</ele><time>2026-03-29T12:03:58.07Z</time></trkpt><trkpt lat="42.82905" lon="11.7935683"><ele>387.66666666666663</ele><time>2026-03-29T12:03:59.069Z</time></trkpt><trkpt lat="42.8288833" lon="11.79363"><ele>386.33333333333337</ele><time>2026-03-29T12:04:00.069Z</time></trkpt><trkpt lat="42.828715" lon="11.79371"><ele>385.0</ele><time>2026-03-29T12:04:01.069Z</time></trkpt><trkpt lat="42.82856" lon="11.79381"><ele>387.33333333333337</ele><time>2026-03-29T12:04:02.07Z</time></trkpt><trkpt lat="42.8284133" lon="11.7939183"><ele>389.66666666666663</ele><time>2026-03-29T12:04:03.069Z</time></trkpt><trkpt lat="42.8282733" lon="11.7939933"><ele>392.0</ele><time>2026-03-29T12:04:04.07Z</time></trkpt><trkpt lat="42.8281383" lon="11.7940567"><ele>392.0</ele><time>2026-03-29T12:04:05.07Z</time></trkpt><trkpt lat="42.8280133" lon="11.794085"><ele>392.0</ele><time>2026-03-29T12:04:06.07Z</time></trkpt><trkpt lat="42.82787" lon="11.7940983"><ele>392.0</ele><time>2026-03-29T12:04:07.07Z</time></trkpt><trkpt lat="42.8277233" lon="11.7941"><ele>392.0</ele><time>2026-03-29T12:04:08.07Z</time></trkpt><trkpt lat="42.827575" lon="11.7940883"><ele>392.66666666666663</ele><time>2026-03-29T12:04:09.07Z</time></trkpt><trkpt lat="42.8274317" lon="11.7940333"><ele>393.33333333333337</ele><time>2026-03-29T12:04:10.07Z</time></trkpt><trkpt lat="42.8272917" lon="11.793965"><ele>394.0</ele><time>2026-03-29T12:04:11.07Z</time></trkpt><trkpt lat="42.8271433" lon="11.79389"><ele>394.0</ele><time>2026-03-29T12:04:12.07Z</time></trkpt><trkpt lat="42.82699" lon="11.79381"><ele>394.0</ele><time>2026-03-29T12:04:13.07Z</time></trkpt><trkpt lat="42.8268467" lon="11.7937317"><ele>394.0</ele><time>2026-03-29T12:04:14.07Z</time></trkpt><trkpt lat="42.8267133" lon="11.79367"><ele>393.25</ele><time>2026-03-29T12:04:15.07Z</time></trkpt><trkpt lat="42.8265917" lon="11.7935933"><ele>392.5</ele><time>2026-03-29T12:04:16.07Z</time></trkpt><trkpt lat="42.82647" lon="11.7935233"><ele>391.75</ele><time>2026-03-29T12:04:17.07Z</time></trkpt><trkpt lat="42.826355" lon="11.7934767"><ele>391.0</ele><time>2026-03-29T12:04:18.07Z</time></trkpt><trkpt lat="42.8262467" lon="11.793465"><ele>391.0</ele><time>2026-03-29T12:04:19.07Z</time></trkpt><trkpt lat="42.8261367" lon="11.7935"><ele>391.0</ele><time>2026-03-29T12:04:20.07Z</time></trkpt><trkpt lat="42.8260267" lon="11.7935733"><ele>391.0</ele><time>2026-03-29T12:04:21.069Z</time></trkpt><trkpt lat="42.825925" lon="11.79368"><ele>391.0</ele><time>2026-03-29T12:04:22.07Z</time></trkpt><trkpt lat="42.825805" lon="11.7938333"><ele>386.33333333333337</ele><time>2026-03-29T12:04:23.07Z</time></trkpt><trkpt lat="42.8256733" lon="11.794025"><ele>381.6666666666667</ele><time>2026-03-29T12:04:24.07Z</time></trkpt><trkpt lat="42.8255383" lon="11.7941983"><ele>377.0</ele><time>2026-03-29T12:04:25.07Z</time></trkpt><trkpt lat="42.825405" lon="11.7943633"><ele>375.0</ele><time>2026-03-29T12:04:26.07Z</time></trkpt><trkpt lat="42.825295" lon="11.7945017"><ele>373.0</ele><time>2026-03-29T12:04:27.07Z</time></trkpt><trkpt lat="42.82519" lon="11.7946117"><ele>371.0</ele><time>2026-03-29T12:04:28.07Z</time></trkpt><trkpt lat="42.8250933" lon="11.79471"><ele>369.0</ele><time>2026-03-29T12:04:29.07Z</time></trkpt><trkpt lat="42.8249783" lon="11.794775"><ele>369.0</ele><time>2026-03-29T12:04:30.07Z</time></trkpt><trkpt lat="42.8248433" lon="11.7948167"><ele>369.0</ele><time>2026-03-29T12:04:31.07Z</time></trkpt><trkpt lat="42.824675" lon="11.7948483"><ele>369.0</ele><time>2026-03-29T12:04:32.07Z</time></trkpt><trkpt lat="42.8244883" lon="11.7948733"><ele>367.0</ele><time>2026-03-29T12:04:33.07Z</time></trkpt><trkpt lat="42.8242883" lon="11.7949"><ele>365.0</ele><time>2026-03-29T12:04:34.07Z</time></trkpt><trkpt lat="42.824085" lon="11.7949383"><ele>363.0</ele><time>2026-03-29T12:04:35.07Z</time></trkpt><trkpt lat="42.8238767" lon="11.7949783"><ele>363.0</ele><time>2026-03-29T12:04:36.069Z</time></trkpt><trkpt lat="42.8236833" lon="11.7950067"><ele>363.0</ele><time>2026-03-29T12:04:37.07Z</time></trkpt><trkpt lat="42.8235067" lon="11.7950167"><ele>363.0</ele><time>2026-03-29T12:04:38.07Z</time></trkpt><trkpt lat="42.8233317" lon="11.7950467"><ele>361.5</ele><time>2026-03-29T12:04:39.07Z</time></trkpt><trkpt lat="42.8231617" lon="11.7950733"><ele>360.0</ele><time>2026-03-29T12:04:40.07Z</time></trkpt><trkpt lat="42.8230367" lon="11.7950933"><ele>358.5</ele><time>2026-03-29T12:04:41.07Z</time></trkpt><trkpt lat="42.8228967" lon="11.7951183"><ele>357.0</ele><time>2026-03-29T12:04:42.07Z</time></trkpt><trkpt lat="42.82277" lon="11.7951517"><ele>356.0</ele><time>2026-03-29T12:04:43.069Z</time></trkpt><trkpt lat="42.8226533" lon="11.7952167"><ele>355.0</ele><time>2026-03-29T12:04:44.07Z</time></trkpt><trkpt lat="42.8225567" lon="11.7952883"><ele>354.0</ele><time>2026-03-29T12:04:45.069Z</time></trkpt><trkpt lat="42.8224667" lon="11.795385"><ele>353.0</ele><time>2026-03-29T12:04:46.07Z</time></trkpt><trkpt lat="42.822385" lon="11.7954983"><ele>352.0</ele><time>2026-03-29T12:04:47.07Z</time></trkpt><trkpt lat="42.8222983" lon="11.795635"><ele>351.0</ele><time>2026-03-29T12:04:48.07Z</time></trkpt><trkpt lat="42.82219" lon="11.795795"><ele>350.0</ele><time>2026-03-29T12:04:49.07Z</time></trkpt><trkpt lat="42.8220783" lon="11.7959733"><ele>348.0</ele><time>2026-03-29T12:04:50.07Z</time></trkpt><trkpt lat="42.82197" lon="11.7961483"><ele>346.0</ele><time>2026-03-29T12:04:51.07Z</time></trkpt><trkpt lat="42.8218633" lon="11.79632"><ele>344.0</ele><time>2026-03-29T12:04:52.07Z</time></trkpt><trkpt lat="42.8217583" lon="11.79648"><ele>344.0</ele><time>2026-03-29T12:04:53.07Z</time></trkpt><trkpt lat="42.8216383" lon="11.7966417"><ele>344.0</ele><time>2026-03-29T12:04:54.07Z</time></trkpt><trkpt lat="42.82151" lon="11.7968067"><ele>344.0</ele><time>2026-03-29T12:04:55.07Z</time></trkpt><trkpt lat="42.8213633" lon="11.796985"><ele>341.33333333333337</ele><time>2026-03-29T12:04:56.07Z</time></trkpt><trkpt lat="42.8212" lon="11.7971567"><ele>338.6666666666667</ele><time>2026-03-29T12:04:57.07Z</time></trkpt><trkpt lat="42.8210483" lon="11.7973167"><ele>336.0</ele><time>2026-03-29T12:04:58.07Z</time></trkpt><trkpt lat="42.820905" lon="11.7974767"><ele>336.0</ele><time>2026-03-29T12:04:59.069Z</time></trkpt><trkpt lat="42.820775" lon="11.7976183"><ele>336.0</ele><time>2026-03-29T12:05:00.069Z</time></trkpt><trkpt lat="42.8206533" lon="11.7977517"><ele>336.0</ele><time>2026-03-29T12:05:01.07Z</time></trkpt><trkpt lat="42.820525" lon="11.7978717"><ele>334.5</ele><time>2026-03-29T12:05:02.07Z</time></trkpt><trkpt lat="42.8204" lon="11.7979883"><ele>333.0</ele><time>2026-03-29T12:05:03.069Z</time></trkpt><trkpt lat="42.8202867" lon="11.7981033"><ele>331.5</ele><time>2026-03-29T12:05:04.069Z</time></trkpt><trkpt lat="42.820185" lon="11.7982"><ele>330.0</ele><time>2026-03-29T12:05:05.07Z</time></trkpt><trkpt lat="42.820095" lon="11.798295"><ele>330.0</ele><time>2026-03-29T12:05:06.07Z</time></trkpt><trkpt lat="42.82001" lon="11.7983733"><ele>330.0</ele><time>2026-03-29T12:05:07.069Z</time></trkpt><trkpt lat="42.81994" lon="11.7984333"><ele>330.0</ele><time>2026-03-29T12:05:08.07Z</time></trkpt><trkpt lat="42.8198733" lon="11.7984767"><ele>330.0</ele><time>2026-03-29T12:05:09.069Z</time></trkpt><trkpt lat="42.8197683" lon="11.79854"><ele>330.0</ele><time>2026-03-29T12:05:11.07Z</time></trkpt><trkpt lat="42.8196883" lon="11.798545"><ele>330.0</ele><time>2026-03-29T12:05:13.07Z</time></trkpt><trkpt lat="42.8195983" lon="11.7984767"><ele>330.0</ele><time>2026-03-29T12:05:15.069Z</time></trkpt><trkpt lat="42.81955" lon="11.7984017"><ele>330.0</ele><time>2026-03-29T12:05:16.07Z</time></trkpt><trkpt lat="42.8195017" lon="11.7983"><ele>330.0</ele><time>2026-03-29T12:05:17.07Z</time></trkpt><trkpt lat="42.8194633" lon="11.7981583"><ele>330.0</ele><time>2026-03-29T12:05:18.069Z</time></trkpt><trkpt lat="42.8194417" lon="11.798005"><ele>330.0</ele><time>2026-03-29T12:05:19.07Z</time></trkpt><trkpt lat="42.81945" lon="11.7978383"><ele>330.0</ele><time>2026-03-29T12:05:20.07Z</time></trkpt><trkpt lat="42.8194817" lon="11.7976683"><ele>330.0</ele><time>2026-03-29T12:05:21.07Z</time></trkpt><trkpt lat="42.8195467" lon="11.7975017"><ele>330.0</ele><time>2026-03-29T12:05:22.07Z</time></trkpt><trkpt lat="42.8196367" lon="11.79733"><ele>329.3333333333333</ele><time>2026-03-29T12:05:23.07Z</time></trkpt><trkpt lat="42.81974" lon="11.7971683"><ele>328.66666666666663</ele><time>2026-03-29T12:05:24.07Z</time></trkpt><trkpt lat="42.81984" lon="11.797"><ele>328.0</ele><time>2026-03-29T12:05:25.07Z</time></trkpt><trkpt lat="42.81994" lon="11.7968033"><ele>330.3333333333333</ele><time>2026-03-29T12:05:26.07Z</time></trkpt><trkpt lat="42.820035" lon="11.7966033"><ele>332.6666666666667</ele><time>2026-03-29T12:05:27.07Z</time></trkpt><trkpt lat="42.8201283" lon="11.7963967"><ele>335.0</ele><time>2026-03-29T12:05:28.069Z</time></trkpt><trkpt lat="42.8202133" lon="11.7961833"><ele>330.33333333333337</ele><time>2026-03-29T12:05:29.07Z</time></trkpt><trkpt lat="42.82029" lon="11.7959717"><ele>325.6666666666667</ele><time>2026-03-29T12:05:30.069Z</time></trkpt><trkpt lat="42.8203683" lon="11.7957433"><ele>321.0</ele><time>2026-03-29T12:05:31.07Z</time></trkpt><trkpt lat="42.8204467" lon="11.7955267"><ele>321.0</ele><time>2026-03-29T12:05:32.07Z</time></trkpt><trkpt lat="42.8205267" lon="11.7953083"><ele>321.0</ele><time>2026-03-29T12:05:33.07Z</time></trkpt><trkpt lat="42.8206" lon="11.79508"><ele>321.0</ele><time>2026-03-29T12:05:34.07Z</time></trkpt><trkpt lat="42.8206783" lon="11.794845"><ele>318.0</ele><time>2026-03-29T12:05:35.07Z</time></trkpt><trkpt lat="42.820755" lon="11.7946133"><ele>315.0</ele><time>2026-03-29T12:05:36.07Z</time></trkpt><trkpt lat="42.8208317" lon="11.7943883"><ele>312.0</ele><time>2026-03-29T12:05:37.07Z</time></trkpt><trkpt lat="42.8209067" lon="11.7941617"><ele>312.3333333333333</ele><time>2026-03-29T12:05:38.069Z</time></trkpt><trkpt lat="42.82099" lon="11.793935"><ele>312.66666666666663</ele><time>2026-03-29T12:05:39.069Z</time></trkpt><trkpt lat="42.8210767" lon="11.7937033"><ele>313.0</ele><time>2026-03-29T12:05:40.069Z</time></trkpt><trkpt lat="42.8211733" lon="11.7934767"><ele>313.0</ele><time>2026-03-29T12:05:41.069Z</time></trkpt><trkpt lat="42.8212767" lon="11.79325"><ele>313.0</ele><time>2026-03-29T12:05:42.069Z</time></trkpt><trkpt lat="42.8213833" lon="11.7930317"><ele>313.0</ele><time>2026-03-29T12:05:43.07Z</time></trkpt><trkpt lat="42.82149" lon="11.7928167"><ele>313.3333333333333</ele><time>2026-03-29T12:05:44.069Z</time></trkpt><trkpt lat="42.8216017" lon="11.7925967"><ele>313.6666666666667</ele><time>2026-03-29T12:05:45.07Z</time></trkpt><trkpt lat="42.8217083" lon="11.7923833"><ele>314.0</ele><time>2026-03-29T12:05:46.069Z</time></trkpt><trkpt lat="42.8218183" lon="11.792165"><ele>314.0</ele><time>2026-03-29T12:05:47.07Z</time></trkpt><trkpt lat="42.8219183" lon="11.79195"><ele>314.0</ele><time>2026-03-29T12:05:48.07Z</time></trkpt><trkpt lat="42.8220167" lon="11.7917517"><ele>314.0</ele><time>2026-03-29T12:05:49.07Z</time></trkpt><trkpt lat="42.822105" lon="11.7915567"><ele>311.33333333333337</ele><time>2026-03-29T12:05:50.07Z</time></trkpt><trkpt lat="42.8221717" lon="11.79137"><ele>308.6666666666667</ele><time>2026-03-29T12:05:51.07Z</time></trkpt><trkpt lat="42.8222133" lon="11.79116"><ele>306.0</ele><time>2026-03-29T12:05:52.07Z</time></trkpt><trkpt lat="42.82224" lon="11.790945"><ele>303.6666666666667</ele><time>2026-03-29T12:05:53.07Z</time></trkpt><trkpt lat="42.8222633" lon="11.7907383"><ele>301.33333333333337</ele><time>2026-03-29T12:05:54.07Z</time></trkpt><trkpt lat="42.82229" lon="11.79053"><ele>299.0</ele><time>2026-03-29T12:05:55.07Z</time></trkpt><trkpt lat="42.822325" lon="11.7903383"><ele>298.25</ele><time>2026-03-29T12:05:56.07Z</time></trkpt><trkpt lat="42.822355" lon="11.7901633"><ele>297.5</ele><time>2026-03-29T12:05:57.069Z</time></trkpt><trkpt lat="42.8223933" lon="11.790005"><ele>296.75</ele><time>2026-03-29T12:05:58.07Z</time></trkpt><trkpt lat="42.8224317" lon="11.7898467"><ele>296.0</ele><time>2026-03-29T12:05:59.07Z</time></trkpt><trkpt lat="42.8224667" lon="11.7896983"><ele>296.0</ele><time>2026-03-29T12:06:00.07Z</time></trkpt><trkpt lat="42.8225183" lon="11.7895267"><ele>296.0</ele><time>2026-03-29T12:06:01.069Z</time></trkpt><trkpt lat="42.822595" lon="11.7893517"><ele>296.0</ele><time>2026-03-29T12:06:02.07Z</time></trkpt><trkpt lat="42.82269" lon="11.7891367"><ele>298.0</ele><time>2026-03-29T12:06:03.07Z</time></trkpt><trkpt lat="42.8228267" lon="11.7888883"><ele>300.0</ele><time>2026-03-29T12:06:04.07Z</time></trkpt><trkpt lat="42.822985" lon="11.78861"><ele>298.0</ele><time>2026-03-29T12:06:05.07Z</time></trkpt><trkpt lat="42.823155" lon="11.7883133"><ele>296.0</ele><time>2026-03-29T12:06:06.069Z</time></trkpt><trkpt lat="42.823315" lon="11.78803"><ele>296.0</ele><time>2026-03-29T12:06:07.07Z</time></trkpt><trkpt lat="42.8234683" lon="11.7877633"><ele>296.0</ele><time>2026-03-29T12:06:08.069Z</time></trkpt><trkpt lat="42.8236083" lon="11.787515"><ele>296.33333333333337</ele><time>2026-03-29T12:06:09.069Z</time></trkpt><trkpt lat="42.8237417" lon="11.787275"><ele>296.6666666666667</ele><time>2026-03-29T12:06:10.069Z</time></trkpt><trkpt lat="42.82387" lon="11.7870333"><ele>297.0</ele><time>2026-03-29T12:06:11.069Z</time></trkpt><trkpt lat="42.8240017" lon="11.7867833"><ele>296.0</ele><time>2026-03-29T12:06:12.069Z</time></trkpt><trkpt lat="42.8241217" lon="11.7865267"><ele>295.0</ele><time>2026-03-29T12:06:13.07Z</time></trkpt><trkpt lat="42.8242333" lon="11.7862567"><ele>299.5</ele><time>2026-03-29T12:06:14.069Z</time></trkpt><trkpt lat="42.8243367" lon="11.78597"><ele>304.0</ele><time>2026-03-29T12:06:15.07Z</time></trkpt><trkpt lat="42.8244217" lon="11.7856583"><ele>304.0</ele><time>2026-03-29T12:06:16.07Z</time></trkpt><trkpt lat="42.8244917" lon="11.78534"><ele>304.0</ele><time>2026-03-29T12:06:17.07Z</time></trkpt><trkpt lat="42.8245483" lon="11.7850317"><ele>304.3333333333333</ele><time>2026-03-29T12:06:18.07Z</time></trkpt><trkpt lat="42.824595" lon="11.7847367"><ele>304.6666666666667</ele><time>2026-03-29T12:06:19.07Z</time></trkpt><trkpt lat="42.8246367" lon="11.7844567"><ele>305.0</ele><time>2026-03-29T12:06:20.07Z</time></trkpt><trkpt lat="42.8246817" lon="11.7841667"><ele>305.0</ele><time>2026-03-29T12:06:21.07Z</time></trkpt><trkpt lat="42.8247283" lon="11.783885"><ele>305.0</ele><time>2026-03-29T12:06:22.069Z</time></trkpt><trkpt lat="42.8247783" lon="11.7836133"><ele>305.0</ele><time>2026-03-29T12:06:23.069Z</time></trkpt><trkpt lat="42.8248283" lon="11.783345"><ele>303.6666666666667</ele><time>2026-03-29T12:06:24.07Z</time></trkpt><trkpt lat="42.8248733" lon="11.7830783"><ele>302.3333333333333</ele><time>2026-03-29T12:06:25.07Z</time></trkpt><trkpt lat="42.8249217" lon="11.7828183"><ele>301.0</ele><time>2026-03-29T12:06:26.07Z</time></trkpt><trkpt lat="42.8249683" lon="11.7825617"><ele>299.3333333333333</ele><time>2026-03-29T12:06:27.07Z</time></trkpt><trkpt lat="42.8250067" lon="11.7823067"><ele>297.6666666666667</ele><time>2026-03-29T12:06:28.07Z</time></trkpt><trkpt lat="42.8250433" lon="11.78205"><ele>296.0</ele><time>2026-03-29T12:06:29.07Z</time></trkpt><trkpt lat="42.825075" lon="11.78179"><ele>295.6666666666667</ele><time>2026-03-29T12:06:30.069Z</time></trkpt><trkpt lat="42.8251" lon="11.78154"><ele>295.3333333333333</ele><time>2026-03-29T12:06:31.069Z</time></trkpt><trkpt lat="42.8251283" lon="11.78129"><ele>295.0</ele><time>2026-03-29T12:06:32.07Z</time></trkpt><trkpt lat="42.8251383" lon="11.78105"><ele>295.0</ele><time>2026-03-29T12:06:33.07Z</time></trkpt><trkpt lat="42.82515" lon="11.78081"><ele>295.0</ele><time>2026-03-29T12:06:34.07Z</time></trkpt><trkpt lat="42.8251617" lon="11.78058"><ele>295.0</ele><time>2026-03-29T12:06:35.07Z</time></trkpt><trkpt lat="42.82518" lon="11.7803517"><ele>295.0</ele><time>2026-03-29T12:06:36.069Z</time></trkpt><trkpt lat="42.8252017" lon="11.7801283"><ele>295.0</ele><time>2026-03-29T12:06:37.069Z</time></trkpt><trkpt lat="42.82524" lon="11.7799017"><ele>295.0</ele><time>2026-03-29T12:06:38.07Z</time></trkpt><trkpt lat="42.8252833" lon="11.779685"><ele>295.0</ele><time>2026-03-29T12:06:39.069Z</time></trkpt><trkpt lat="42.825335" lon="11.77948"><ele>295.0</ele><time>2026-03-29T12:06:40.07Z</time></trkpt><trkpt lat="42.82537" lon="11.7792567"><ele>295.0</ele><time>2026-03-29T12:06:41.07Z</time></trkpt><trkpt lat="42.825395" lon="11.7790217"><ele>294.66666666666663</ele><time>2026-03-29T12:06:42.069Z</time></trkpt><trkpt lat="42.825415" lon="11.7787883"><ele>294.3333333333333</ele><time>2026-03-29T12:06:43.069Z</time></trkpt><trkpt lat="42.825425" lon="11.7785817"><ele>294.0</ele><time>2026-03-29T12:06:44.07Z</time></trkpt><trkpt lat="42.82544" lon="11.7783883"><ele>293.75</ele><time>2026-03-29T12:06:45.07Z</time></trkpt><trkpt lat="42.8254633" lon="11.7781933"><ele>293.5</ele><time>2026-03-29T12:06:46.07Z</time></trkpt><trkpt lat="42.8254867" lon="11.777995"><ele>293.25</ele><time>2026-03-29T12:06:47.07Z</time></trkpt><trkpt lat="42.825495" lon="11.7777933"><ele>293.0</ele><time>2026-03-29T12:06:48.069Z</time></trkpt><trkpt lat="42.825495" lon="11.777595"><ele>293.75</ele><time>2026-03-29T12:06:49.07Z</time></trkpt><trkpt lat="42.825465" lon="11.7773983"><ele>294.5</ele><time>2026-03-29T12:06:50.07Z</time></trkpt><trkpt lat="42.8254333" lon="11.7772133"><ele>295.25</ele><time>2026-03-29T12:06:51.07Z</time></trkpt><trkpt lat="42.8253933" lon="11.77703"><ele>296.0</ele><time>2026-03-29T12:06:52.07Z</time></trkpt><trkpt lat="42.8253467" lon="11.7768467"><ele>295.5</ele><time>2026-03-29T12:06:53.069Z</time></trkpt><trkpt lat="42.82531" lon="11.7766633"><ele>295.0</ele><time>2026-03-29T12:06:54.07Z</time></trkpt><trkpt lat="42.82525" lon="11.77649"><ele>294.5</ele><time>2026-03-29T12:06:55.07Z</time></trkpt><trkpt lat="42.8251917" lon="11.7763067"><ele>294.0</ele><time>2026-03-29T12:06:56.069Z</time></trkpt><trkpt lat="42.825135" lon="11.7761183"><ele>295.0</ele><time>2026-03-29T12:06:57.07Z</time></trkpt><trkpt lat="42.8250817" lon="11.77593"><ele>296.0</ele><time>2026-03-29T12:06:58.07Z</time></trkpt><trkpt lat="42.8250267" lon="11.7757383"><ele>297.0</ele><time>2026-03-29T12:06:59.07Z</time></trkpt><trkpt lat="42.8249683" lon="11.7755483"><ele>297.0</ele><time>2026-03-29T12:07:00.07Z</time></trkpt><trkpt lat="42.8249133" lon="11.7753617"><ele>297.0</ele><time>2026-03-29T12:07:01.07Z</time></trkpt><trkpt lat="42.8248533" lon="11.7751617"><ele>297.0</ele><time>2026-03-29T12:07:02.07Z</time></trkpt><trkpt lat="42.8247917" lon="11.7749667"><ele>297.6666666666667</ele><time>2026-03-29T12:07:03.07Z</time></trkpt><trkpt lat="42.82473" lon="11.7747733"><ele>298.33333333333337</ele><time>2026-03-29T12:07:04.07Z</time></trkpt><trkpt lat="42.8246683" lon="11.7745767"><ele>299.0</ele><time>2026-03-29T12:07:05.07Z</time></trkpt><trkpt lat="42.82461" lon="11.7743983"><ele>300.0</ele><time>2026-03-29T12:07:06.069Z</time></trkpt><trkpt lat="42.8245617" lon="11.7742283"><ele>301.0</ele><time>2026-03-29T12:07:07.07Z</time></trkpt><trkpt lat="42.8245117" lon="11.7740683"><ele>302.0</ele><time>2026-03-29T12:07:08.07Z</time></trkpt><trkpt lat="42.824465" lon="11.7739117"><ele>303.0</ele><time>2026-03-29T12:07:09.069Z</time></trkpt><trkpt lat="42.82442" lon="11.7737633"><ele>303.0</ele><time>2026-03-29T12:07:10.07Z</time></trkpt><trkpt lat="42.8243867" lon="11.773635"><ele>303.0</ele><time>2026-03-29T12:07:11.069Z</time></trkpt><trkpt lat="42.8243617" lon="11.773535"><ele>303.0</ele><time>2026-03-29T12:07:12.069Z</time></trkpt><trkpt lat="42.824335" lon="11.7734267"><ele>303.0</ele><time>2026-03-29T12:07:13.07Z</time></trkpt><trkpt lat="42.8243017" lon="11.7733167"><ele>303.0</ele><time>2026-03-29T12:07:14.07Z</time></trkpt><trkpt lat="42.82426" lon="11.7731883"><ele>301.25</ele><time>2026-03-29T12:07:15.07Z</time></trkpt><trkpt lat="42.824215" lon="11.7730417"><ele>299.5</ele><time>2026-03-29T12:07:16.07Z</time></trkpt><trkpt lat="42.8241667" lon="11.772885"><ele>297.75</ele><time>2026-03-29T12:07:17.07Z</time></trkpt><trkpt lat="42.8241117" lon="11.77272"><ele>296.0</ele><time>2026-03-29T12:07:18.07Z</time></trkpt><trkpt lat="42.8240583" lon="11.7725517"><ele>296.0</ele><time>2026-03-29T12:07:19.07Z</time></trkpt><trkpt lat="42.824" lon="11.7723767"><ele>296.0</ele><time>2026-03-29T12:07:20.069Z</time></trkpt><trkpt lat="42.8239417" lon="11.7722017"><ele>296.0</ele><time>2026-03-29T12:07:21.07Z</time></trkpt><trkpt lat="42.823885" lon="11.7720133"><ele>296.0</ele><time>2026-03-29T12:07:22.069Z</time></trkpt><trkpt lat="42.8238333" lon="11.7718117"><ele>296.33333333333337</ele><time>2026-03-29T12:07:23.069Z</time></trkpt><trkpt lat="42.8237967" lon="11.7715967"><ele>296.6666666666667</ele><time>2026-03-29T12:07:24.069Z</time></trkpt><trkpt lat="42.82376" lon="11.7713767"><ele>297.0</ele><time>2026-03-29T12:07:25.07Z</time></trkpt><trkpt lat="42.8237317" lon="11.7711433"><ele>296.6666666666667</ele><time>2026-03-29T12:07:26.07Z</time></trkpt><trkpt lat="42.823705" lon="11.770905"><ele>296.33333333333337</ele><time>2026-03-29T12:07:27.07Z</time></trkpt><trkpt lat="42.8236917" lon="11.770665"><ele>296.0</ele><time>2026-03-29T12:07:28.07Z</time></trkpt><trkpt lat="42.8236917" lon="11.7704217"><ele>297.0</ele><time>2026-03-29T12:07:29.07Z</time></trkpt><trkpt lat="42.8237017" lon="11.7701783"><ele>298.0</ele><time>2026-03-29T12:07:30.069Z</time></trkpt><trkpt lat="42.8237167" lon="11.76993"><ele>299.0</ele><time>2026-03-29T12:07:31.07Z</time></trkpt><trkpt lat="42.8237517" lon="11.76969"><ele>299.0</ele><time>2026-03-29T12:07:32.07Z</time></trkpt><trkpt lat="42.8237883" lon="11.7694567"><ele>299.0</ele><time>2026-03-29T12:07:33.07Z</time></trkpt><trkpt lat="42.8238417" lon="11.7692267"><ele>299.0</ele><time>2026-03-29T12:07:34.07Z</time></trkpt><trkpt lat="42.8239033" lon="11.76899"><ele>299.0</ele><time>2026-03-29T12:07:35.069Z</time></trkpt><trkpt lat="42.8239717" lon="11.7687667"><ele>299.0</ele><time>2026-03-29T12:07:36.07Z</time></trkpt><trkpt lat="42.8240467" lon="11.7685483"><ele>299.0</ele><time>2026-03-29T12:07:37.07Z</time></trkpt><trkpt lat="42.8241367" lon="11.768325"><ele>299.0</ele><time>2026-03-29T12:07:38.07Z</time></trkpt><trkpt lat="42.82423" lon="11.76811"><ele>299.0</ele><time>2026-03-29T12:07:39.069Z</time></trkpt><trkpt lat="42.8243367" lon="11.7679017"><ele>299.0</ele><time>2026-03-29T12:07:40.07Z</time></trkpt><trkpt lat="42.8244533" lon="11.7677017"><ele>299.6666666666667</ele><time>2026-03-29T12:07:41.069Z</time></trkpt><trkpt lat="42.8245767" lon="11.767515"><ele>300.3333333333333</ele><time>2026-03-29T12:07:42.069Z</time></trkpt><trkpt lat="42.8247117" lon="11.7673283"><ele>301.0</ele><time>2026-03-29T12:07:43.07Z</time></trkpt><trkpt lat="42.8248417" lon="11.7671517"><ele>301.0</ele><time>2026-03-29T12:07:44.07Z</time></trkpt><trkpt lat="42.82498" lon="11.76697"><ele>301.0</ele><time>2026-03-29T12:07:45.07Z</time></trkpt><trkpt lat="42.825115" lon="11.7667917"><ele>301.0</ele><time>2026-03-29T12:07:46.07Z</time></trkpt><trkpt lat="42.8252483" lon="11.7666133"><ele>302.0</ele><time>2026-03-29T12:07:47.07Z</time></trkpt><trkpt lat="42.825385" lon="11.7664333"><ele>303.0</ele><time>2026-03-29T12:07:48.07Z</time></trkpt><trkpt lat="42.8255217" lon="11.7662583"><ele>304.0</ele><time>2026-03-29T12:07:49.07Z</time></trkpt><trkpt lat="42.825655" lon="11.766085"><ele>304.66666666666663</ele><time>2026-03-29T12:07:50.069Z</time></trkpt><trkpt lat="42.825795" lon="11.7659133"><ele>305.3333333333333</ele><time>2026-03-29T12:07:51.07Z</time></trkpt><trkpt lat="42.8259333" lon="11.7657317"><ele>306.0</ele><time>2026-03-29T12:07:52.07Z</time></trkpt><trkpt lat="42.826075" lon="11.7655617"><ele>306.0</ele><time>2026-03-29T12:07:53.069Z</time></trkpt><trkpt lat="42.82621" lon="11.765385"><ele>306.0</ele><time>2026-03-29T12:07:54.07Z</time></trkpt><trkpt lat="42.8263433" lon="11.7652083"><ele>306.0</ele><time>2026-03-29T12:07:55.069Z</time></trkpt><trkpt lat="42.826475" lon="11.7650283"><ele>307.0</ele><time>2026-03-29T12:07:56.07Z</time></trkpt><trkpt lat="42.8266167" lon="11.764845"><ele>308.0</ele><time>2026-03-29T12:07:57.07Z</time></trkpt><trkpt lat="42.8267567" lon="11.7646617"><ele>309.0</ele><time>2026-03-29T12:07:58.07Z</time></trkpt><trkpt lat="42.8269017" lon="11.76448"><ele>307.6666666666667</ele><time>2026-03-29T12:07:59.07Z</time></trkpt><trkpt lat="42.82704" lon="11.7642917"><ele>306.33333333333337</ele><time>2026-03-29T12:08:00.069Z</time></trkpt><trkpt lat="42.827185" lon="11.7641067"><ele>305.0</ele><time>2026-03-29T12:08:01.069Z</time></trkpt><trkpt lat="42.8273267" lon="11.763915"><ele>305.0</ele><time>2026-03-29T12:08:02.069Z</time></trkpt><trkpt lat="42.8274717" lon="11.7637233"><ele>305.0</ele><time>2026-03-29T12:08:03.069Z</time></trkpt><trkpt lat="42.8276183" lon="11.76353"><ele>305.0</ele><time>2026-03-29T12:08:04.07Z</time></trkpt><trkpt lat="42.8277583" lon="11.763335"><ele>306.0</ele><time>2026-03-29T12:08:05.069Z</time></trkpt><trkpt lat="42.8278967" lon="11.7631483"><ele>307.0</ele><time>2026-03-29T12:08:06.07Z</time></trkpt><trkpt lat="42.8280467" lon="11.7629733"><ele>308.0</ele><time>2026-03-29T12:08:07.069Z</time></trkpt><trkpt lat="42.828205" lon="11.762805"><ele>307.6666666666667</ele><time>2026-03-29T12:08:08.07Z</time></trkpt><trkpt lat="42.8283683" lon="11.7626417"><ele>307.3333333333333</ele><time>2026-03-29T12:08:09.07Z</time></trkpt><trkpt lat="42.8285367" lon="11.7624983"><ele>307.0</ele><time>2026-03-29T12:08:10.07Z</time></trkpt><trkpt lat="42.8286967" lon="11.76234"><ele>307.0</ele><time>2026-03-29T12:08:11.07Z</time></trkpt><trkpt lat="42.8288633" lon="11.7621917"><ele>307.0</ele><time>2026-03-29T12:08:12.07Z</time></trkpt><trkpt lat="42.829025" lon="11.76204"><ele>307.0</ele><time>2026-03-29T12:08:13.07Z</time></trkpt><trkpt lat="42.8291917" lon="11.7618933"><ele>307.66666666666663</ele><time>2026-03-29T12:08:14.07Z</time></trkpt><trkpt lat="42.8293617" lon="11.7617417"><ele>308.3333333333333</ele><time>2026-03-29T12:08:15.07Z</time></trkpt><trkpt lat="42.829525" lon="11.7615833"><ele>309.0</ele><time>2026-03-29T12:08:16.07Z</time></trkpt><trkpt lat="42.8296933" lon="11.7614317"><ele>309.0</ele><time>2026-03-29T12:08:17.07Z</time></trkpt><trkpt lat="42.82986" lon="11.761275"><ele>309.0</ele><time>2026-03-29T12:08:18.07Z</time></trkpt><trkpt lat="42.8300217" lon="11.761125"><ele>309.0</ele><time>2026-03-29T12:08:19.07Z</time></trkpt><trkpt lat="42.8301817" lon="11.76098"><ele>310.6666666666667</ele><time>2026-03-29T12:08:20.07Z</time></trkpt><trkpt lat="42.8303517" lon="11.7608383"><ele>312.33333333333337</ele><time>2026-03-29T12:08:21.07Z</time></trkpt><trkpt lat="42.8305233" lon="11.7606933"><ele>314.0</ele><time>2026-03-29T12:08:22.07Z</time></trkpt><trkpt lat="42.830695" lon="11.76054"><ele>314.0</ele><time>2026-03-29T12:08:23.069Z</time></trkpt><trkpt lat="42.8308583" lon="11.7603833"><ele>314.0</ele><time>2026-03-29T12:08:24.069Z</time></trkpt><trkpt lat="42.8310233" lon="11.7602283"><ele>314.0</ele><time>2026-03-29T12:08:25.069Z</time></trkpt><trkpt lat="42.8311983" lon="11.7600717"><ele>314.0</ele><time>2026-03-29T12:08:26.07Z</time></trkpt><trkpt lat="42.8313733" lon="11.7599167"><ele>314.0</ele><time>2026-03-29T12:08:27.07Z</time></trkpt><trkpt lat="42.8315467" lon="11.7597567"><ele>314.0</ele><time>2026-03-29T12:08:28.07Z</time></trkpt><trkpt lat="42.8317217" lon="11.7596067"><ele>315.0</ele><time>2026-03-29T12:08:29.069Z</time></trkpt><trkpt lat="42.8318917" lon="11.759455"><ele>316.0</ele><time>2026-03-29T12:08:30.07Z</time></trkpt><trkpt lat="42.832045" lon="11.7593017"><ele>317.0</ele><time>2026-03-29T12:08:31.069Z</time></trkpt><trkpt lat="42.8322033" lon="11.7591533"><ele>317.33333333333337</ele><time>2026-03-29T12:08:32.07Z</time></trkpt><trkpt lat="42.8323617" lon="11.7590117"><ele>317.6666666666667</ele><time>2026-03-29T12:08:33.07Z</time></trkpt><trkpt lat="42.8325267" lon="11.7588617"><ele>318.0</ele><time>2026-03-29T12:08:34.07Z</time></trkpt><trkpt lat="42.8326933" lon="11.758705"><ele>318.3333333333333</ele><time>2026-03-29T12:08:35.07Z</time></trkpt><trkpt lat="42.832855" lon="11.75856"><ele>318.66666666666663</ele><time>2026-03-29T12:08:36.07Z</time></trkpt><trkpt lat="42.8330133" lon="11.7584117"><ele>319.0</ele><time>2026-03-29T12:08:37.069Z</time></trkpt><trkpt lat="42.833175" lon="11.7582683"><ele>319.0</ele><time>2026-03-29T12:08:38.07Z</time></trkpt><trkpt lat="42.833335" lon="11.7581267"><ele>319.0</ele><time>2026-03-29T12:08:39.07Z</time></trkpt><trkpt lat="42.8334967" lon="11.757985"><ele>319.0</ele><time>2026-03-29T12:08:40.07Z</time></trkpt><trkpt lat="42.8336567" lon="11.7578383"><ele>319.0</ele><time>2026-03-29T12:08:41.069Z</time></trkpt><trkpt lat="42.8338167" lon="11.7576883"><ele>319.0</ele><time>2026-03-29T12:08:42.07Z</time></trkpt><trkpt lat="42.833975" lon="11.7575383"><ele>319.0</ele><time>2026-03-29T12:08:43.069Z</time></trkpt><trkpt lat="42.83413" lon="11.7573867"><ele>319.0</ele><time>2026-03-29T12:08:44.07Z</time></trkpt><trkpt lat="42.834285" lon="11.7572417"><ele>319.0</ele><time>2026-03-29T12:08:45.069Z</time></trkpt><trkpt lat="42.834445" lon="11.7571033"><ele>319.0</ele><time>2026-03-29T12:08:46.07Z</time></trkpt><trkpt lat="42.8346117" lon="11.756975"><ele>319.3333333333333</ele><time>2026-03-29T12:08:47.069Z</time></trkpt><trkpt lat="42.8347833" lon="11.7568633"><ele>319.6666666666667</ele><time>2026-03-29T12:08:48.07Z</time></trkpt><trkpt lat="42.8349467" lon="11.7567583"><ele>320.0</ele><time>2026-03-29T12:08:49.07Z</time></trkpt><trkpt lat="42.8351117" lon="11.756685"><ele>320.33333333333337</ele><time>2026-03-29T12:08:50.069Z</time></trkpt><trkpt lat="42.835285" lon="11.7566"><ele>320.6666666666667</ele><time>2026-03-29T12:08:51.07Z</time></trkpt><trkpt lat="42.8354633" lon="11.7565183"><ele>321.0</ele><time>2026-03-29T12:08:52.07Z</time></trkpt><trkpt lat="42.83564" lon="11.756435"><ele>321.0</ele><time>2026-03-29T12:08:53.069Z</time></trkpt><trkpt lat="42.83582" lon="11.7563533"><ele>321.0</ele><time>2026-03-29T12:08:54.069Z</time></trkpt><trkpt lat="42.8359917" lon="11.7562667"><ele>321.0</ele><time>2026-03-29T12:08:55.07Z</time></trkpt><trkpt lat="42.8361583" lon="11.75618"><ele>321.3333333333333</ele><time>2026-03-29T12:08:56.069Z</time></trkpt><trkpt lat="42.8363333" lon="11.7561017"><ele>321.66666666666663</ele><time>2026-03-29T12:08:57.069Z</time></trkpt><trkpt lat="42.8365017" lon="11.75602"><ele>322.0</ele><time>2026-03-29T12:08:58.07Z</time></trkpt><trkpt lat="42.836665" lon="11.7559383"><ele>321.66666666666663</ele><time>2026-03-29T12:08:59.07Z</time></trkpt><trkpt lat="42.8368267" lon="11.7558617"><ele>321.3333333333333</ele><time>2026-03-29T12:09:00.069Z</time></trkpt><trkpt lat="42.8369833" lon="11.7557783"><ele>321.0</ele><time>2026-03-29T12:09:01.069Z</time></trkpt><trkpt lat="42.8371367" lon="11.7556917"><ele>321.0</ele><time>2026-03-29T12:09:02.07Z</time></trkpt><trkpt lat="42.8372967" lon="11.7556133"><ele>321.0</ele><time>2026-03-29T12:09:03.07Z</time></trkpt><trkpt lat="42.8374533" lon="11.75553"><ele>321.0</ele><time>2026-03-29T12:09:04.07Z</time></trkpt><trkpt lat="42.8375967" lon="11.7554617"><ele>321.75</ele><time>2026-03-29T12:09:05.069Z</time></trkpt><trkpt lat="42.8377383" lon="11.7553933"><ele>322.5</ele><time>2026-03-29T12:09:06.07Z</time></trkpt><trkpt lat="42.83786" lon="11.7553417"><ele>323.25</ele><time>2026-03-29T12:09:07.07Z</time></trkpt><trkpt lat="42.8379683" lon="11.75528"><ele>324.0</ele><time>2026-03-29T12:09:08.07Z</time></trkpt><trkpt lat="42.8380667" lon="11.75523"><ele>323.0</ele><time>2026-03-29T12:09:09.07Z</time></trkpt><trkpt lat="42.838155" lon="11.755185"><ele>322.0</ele><time>2026-03-29T12:09:10.069Z</time></trkpt><trkpt lat="42.8382333" lon="11.75515"><ele>321.0</ele><time>2026-03-29T12:09:11.07Z</time></trkpt><trkpt lat="42.838295" lon="11.7551133"><ele>320.0</ele><time>2026-03-29T12:09:12.07Z</time></trkpt><trkpt lat="42.838385" lon="11.7550017"><ele>319.0</ele><time>2026-03-29T12:09:14.07Z</time></trkpt><trkpt lat="42.8384117" lon="11.75484"><ele>319.0</ele><time>2026-03-29T12:09:16.07Z</time></trkpt><trkpt lat="42.8384033" lon="11.7547517"><ele>319.0</ele><time>2026-03-29T12:09:17.07Z</time></trkpt><trkpt lat="42.8383833" lon="11.7546533"><ele>319.0</ele><time>2026-03-29T12:09:18.07Z</time></trkpt><trkpt lat="42.8383733" lon="11.7545517"><ele>319.0</ele><time>2026-03-29T12:09:19.069Z</time></trkpt><trkpt lat="42.8383867" lon="11.75444"><ele>319.0</ele><time>2026-03-29T12:09:20.07Z</time></trkpt><trkpt lat="42.8384217" lon="11.7543333"><ele>319.0</ele><time>2026-03-29T12:09:21.069Z</time></trkpt><trkpt lat="42.8384833" lon="11.7542567"><ele>319.0</ele><time>2026-03-29T12:09:22.07Z</time></trkpt><trkpt lat="42.83858" lon="11.754205"><ele>319.0</ele><time>2026-03-29T12:09:23.07Z</time></trkpt><trkpt lat="42.8386833" lon="11.7541683"><ele>319.0</ele><time>2026-03-29T12:09:24.07Z</time></trkpt><trkpt lat="42.83879" lon="11.754145"><ele>319.0</ele><time>2026-03-29T12:09:25.069Z</time></trkpt><trkpt lat="42.838905" lon="11.75412"><ele>319.0</ele><time>2026-03-29T12:09:26.069Z</time></trkpt><trkpt lat="42.8390233" lon="11.7540883"><ele>319.0</ele><time>2026-03-29T12:09:27.07Z</time></trkpt><trkpt lat="42.8391433" lon="11.7540667"><ele>319.0</ele><time>2026-03-29T12:09:28.07Z</time></trkpt><trkpt lat="42.8392683" lon="11.75403"><ele>319.0</ele><time>2026-03-29T12:09:29.069Z</time></trkpt><trkpt lat="42.8394033" lon="11.7539967"><ele>319.0</ele><time>2026-03-29T12:09:30.069Z</time></trkpt><trkpt lat="42.8395383" lon="11.75396"><ele>319.5</ele><time>2026-03-29T12:09:31.07Z</time></trkpt><trkpt lat="42.8396783" lon="11.7539283"><ele>320.0</ele><time>2026-03-29T12:09:32.069Z</time></trkpt><trkpt lat="42.83982" lon="11.7538933"><ele>320.5</ele><time>2026-03-29T12:09:33.07Z</time></trkpt><trkpt lat="42.8399667" lon="11.7538567"><ele>321.0</ele><time>2026-03-29T12:09:34.07Z</time></trkpt><trkpt lat="42.8401033" lon="11.7538183"><ele>321.0</ele><time>2026-03-29T12:09:35.07Z</time></trkpt><trkpt lat="42.8402483" lon="11.7537717"><ele>321.0</ele><time>2026-03-29T12:09:36.069Z</time></trkpt><trkpt lat="42.8403917" lon="11.7537283"><ele>321.0</ele><time>2026-03-29T12:09:37.069Z</time></trkpt><trkpt lat="42.840545" lon="11.75369"><ele>321.0</ele><time>2026-03-29T12:09:38.07Z</time></trkpt><trkpt lat="42.8406967" lon="11.7536633"><ele>321.0</ele><time>2026-03-29T12:09:39.07Z</time></trkpt><trkpt lat="42.8408483" lon="11.7536433"><ele>321.0</ele><time>2026-03-29T12:09:40.07Z</time></trkpt><trkpt lat="42.8409983" lon="11.75363"><ele>321.0</ele><time>2026-03-29T12:09:41.07Z</time></trkpt><trkpt lat="42.84115" lon="11.7536183"><ele>321.0</ele><time>2026-03-29T12:09:42.07Z</time></trkpt><trkpt lat="42.841305" lon="11.7536067"><ele>321.0</ele><time>2026-03-29T12:09:43.07Z</time></trkpt><trkpt lat="42.84146" lon="11.75359"><ele>321.0</ele><time>2026-03-29T12:09:44.07Z</time></trkpt><trkpt lat="42.8416067" lon="11.7535717"><ele>321.0</ele><time>2026-03-29T12:09:45.07Z</time></trkpt><trkpt lat="42.8417633" lon="11.7535667"><ele>321.0</ele><time>2026-03-29T12:09:46.07Z</time></trkpt><trkpt lat="42.841925" lon="11.75356"><ele>321.3333333333333</ele><time>2026-03-29T12:09:47.069Z</time></trkpt><trkpt lat="42.8420883" lon="11.7535533"><ele>321.66666666666663</ele><time>2026-03-29T12:09:48.069Z</time></trkpt><trkpt lat="42.8422433" lon="11.7535567"><ele>322.0</ele><time>2026-03-29T12:09:49.07Z</time></trkpt><trkpt lat="42.84239" lon="11.7535317"><ele>322.0</ele><time>2026-03-29T12:09:50.07Z</time></trkpt><trkpt lat="42.84254" lon="11.7535283"><ele>322.0</ele><time>2026-03-29T12:09:51.07Z</time></trkpt><trkpt lat="42.8426933" lon="11.7535133"><ele>322.0</ele><time>2026-03-29T12:09:52.069Z</time></trkpt><trkpt lat="42.842855" lon="11.7535117"><ele>322.0</ele><time>2026-03-29T12:09:53.069Z</time></trkpt><trkpt lat="42.843015" lon="11.7535117"><ele>322.0</ele><time>2026-03-29T12:09:54.07Z</time></trkpt><trkpt lat="42.8431767" lon="11.75351"><ele>322.0</ele><time>2026-03-29T12:09:55.07Z</time></trkpt><trkpt lat="42.843345" lon="11.7535067"><ele>322.66666666666663</ele><time>2026-03-29T12:09:56.07Z</time></trkpt><trkpt lat="42.843505" lon="11.7534967"><ele>323.3333333333333</ele><time>2026-03-29T12:09:57.07Z</time></trkpt><trkpt lat="42.8436667" lon="11.75349"><ele>324.0</ele><time>2026-03-29T12:09:58.07Z</time></trkpt><trkpt lat="42.8438283" lon="11.7534783"><ele>324.0</ele><time>2026-03-29T12:09:59.07Z</time></trkpt><trkpt lat="42.8439867" lon="11.7534717"><ele>324.0</ele><time>2026-03-29T12:10:00.07Z</time></trkpt><trkpt lat="42.8441467" lon="11.7534633"><ele>324.0</ele><time>2026-03-29T12:10:01.07Z</time></trkpt><trkpt lat="42.8443067" lon="11.7534617"><ele>324.25</ele><time>2026-03-29T12:10:02.07Z</time></trkpt><trkpt lat="42.8444583" lon="11.7534617"><ele>324.5</ele><time>2026-03-29T12:10:03.07Z</time></trkpt><trkpt lat="42.8446" lon="11.7534583"><ele>324.75</ele><time>2026-03-29T12:10:04.069Z</time></trkpt><trkpt lat="42.8447283" lon="11.75345"><ele>325.0</ele><time>2026-03-29T12:10:05.07Z</time></trkpt><trkpt lat="42.844835" lon="11.7534333"><ele>325.0</ele><time>2026-03-29T12:10:06.069Z</time></trkpt><trkpt lat="42.8449317" lon="11.7534067"><ele>325.0</ele><time>2026-03-29T12:10:07.069Z</time></trkpt><trkpt lat="42.84501" lon="11.7533783"><ele>325.0</ele><time>2026-03-29T12:10:08.07Z</time></trkpt><trkpt lat="42.8450917" lon="11.75329"><ele>325.0</ele><time>2026-03-29T12:10:10.069Z</time></trkpt><trkpt lat="42.84505" lon="11.7532017"><ele>325.0</ele><time>2026-03-29T12:10:13.07Z</time></trkpt><trkpt lat="42.84493" lon="11.7532417"><ele>325.0</ele><time>2026-03-29T12:10:15.07Z</time></trkpt><trkpt lat="42.8448417" lon="11.7532817"><ele>325.0</ele><time>2026-03-29T12:10:16.069Z</time></trkpt><trkpt lat="42.844735" lon="11.7533233"><ele>325.0</ele><time>2026-03-29T12:10:17.07Z</time></trkpt><trkpt lat="42.8446117" lon="11.75336"><ele>325.0</ele><time>2026-03-29T12:10:18.069Z</time></trkpt><trkpt lat="42.844485" lon="11.7533833"><ele>325.0</ele><time>2026-03-29T12:10:19.07Z</time></trkpt><trkpt lat="42.8443683" lon="11.753405"><ele>325.0</ele><time>2026-03-29T12:10:20.07Z</time></trkpt><trkpt lat="42.8442633" lon="11.7534117"><ele>325.0</ele><time>2026-03-29T12:10:21.07Z</time></trkpt><trkpt lat="42.84418" lon="11.75341"><ele>325.0</ele><time>2026-03-29T12:10:22.07Z</time></trkpt><trkpt lat="42.8440817" lon="11.7533483"><ele>325.0</ele><time>2026-03-29T12:10:24.07Z</time></trkpt><trkpt lat="42.84405" lon="11.7531867"><ele>324.8</ele><time>2026-03-29T12:10:26.069Z</time></trkpt><trkpt lat="42.8440217" lon="11.75307"><ele>324.6</ele><time>2026-03-29T12:10:27.07Z</time></trkpt><trkpt lat="42.8439917" lon="11.7529383"><ele>324.4</ele><time>2026-03-29T12:10:28.07Z</time></trkpt><trkpt lat="42.8439517" lon="11.752795"><ele>324.2</ele><time>2026-03-29T12:10:29.07Z</time></trkpt><trkpt lat="42.8439117" lon="11.7526167"><ele>324.0</ele><time>2026-03-29T12:10:30.07Z</time></trkpt><trkpt lat="42.8438633" lon="11.752445"><ele>324.0</ele><time>2026-03-29T12:10:31.069Z</time></trkpt><trkpt lat="42.8438117" lon="11.7522633"><ele>324.0</ele><time>2026-03-29T12:10:32.07Z</time></trkpt><trkpt lat="42.8437617" lon="11.7520983"><ele>324.0</ele><time>2026-03-29T12:10:33.069Z</time></trkpt><trkpt lat="42.8437" lon="11.7519217"><ele>324.0</ele><time>2026-03-29T12:10:34.07Z</time></trkpt><trkpt lat="42.8436383" lon="11.75174"><ele>323.75</ele><time>2026-03-29T12:10:35.069Z</time></trkpt><trkpt lat="42.84358" lon="11.7515583"><ele>323.5</ele><time>2026-03-29T12:10:36.07Z</time></trkpt><trkpt lat="42.84351" lon="11.7513783"><ele>323.25</ele><time>2026-03-29T12:10:37.07Z</time></trkpt><trkpt lat="42.8434333" lon="11.7512133"><ele>323.0</ele><time>2026-03-29T12:10:38.069Z</time></trkpt><trkpt lat="42.8433683" lon="11.751045"><ele>322.4</ele><time>2026-03-29T12:10:39.07Z</time></trkpt><trkpt lat="42.843305" lon="11.7508967"><ele>321.79999999999995</ele><time>2026-03-29T12:10:40.07Z</time></trkpt><trkpt lat="42.84324" lon="11.75079"><ele>321.2</ele><time>2026-03-29T12:10:41.07Z</time></trkpt><trkpt lat="42.8431917" lon="11.7506917"><ele>320.6</ele><time>2026-03-29T12:10:42.07Z</time></trkpt><trkpt lat="42.8431483" lon="11.750595"><ele>320.0</ele><time>2026-03-29T12:10:43.07Z</time></trkpt><trkpt lat="42.8431067" lon="11.750465"><ele>320.0</ele><time>2026-03-29T12:10:44.07Z</time></trkpt><trkpt lat="42.84306" lon="11.7503367"><ele>320.0</ele><time>2026-03-29T12:10:45.069Z</time></trkpt><trkpt lat="42.8430233" lon="11.75019"><ele>320.0</ele><time>2026-03-29T12:10:46.07Z</time></trkpt><trkpt lat="42.8429817" lon="11.7500267"><ele>320.0</ele><time>2026-03-29T12:10:47.069Z</time></trkpt><trkpt lat="42.84294" lon="11.74986"><ele>320.6</ele><time>2026-03-29T12:10:48.07Z</time></trkpt><trkpt lat="42.8429183" lon="11.7497067"><ele>321.2</ele><time>2026-03-29T12:10:49.07Z</time></trkpt><trkpt lat="42.8429" lon="11.7495683"><ele>321.79999999999995</ele><time>2026-03-29T12:10:50.07Z</time></trkpt><trkpt lat="42.842915" lon="11.7494367"><ele>322.4</ele><time>2026-03-29T12:10:51.07Z</time></trkpt><trkpt lat="42.84294" lon="11.7492917"><ele>323.0</ele><time>2026-03-29T12:10:52.07Z</time></trkpt><trkpt lat="42.8429867" lon="11.7491267"><ele>325.0</ele><time>2026-03-29T12:10:53.07Z</time></trkpt><trkpt lat="42.8430533" lon="11.7489383"><ele>327.0</ele><time>2026-03-29T12:10:54.069Z</time></trkpt><trkpt lat="42.8431267" lon="11.7487617"><ele>329.0</ele><time>2026-03-29T12:10:55.07Z</time></trkpt><trkpt lat="42.8431767" lon="11.7485833"><ele>331.0</ele><time>2026-03-29T12:10:56.07Z</time></trkpt><trkpt lat="42.84322" lon="11.7484333"><ele>332.16666666666663</ele><time>2026-03-29T12:10:57.07Z</time></trkpt><trkpt lat="42.8432517" lon="11.74831"><ele>333.3333333333333</ele><time>2026-03-29T12:10:58.07Z</time></trkpt><trkpt lat="42.843295" lon="11.74822"><ele>334.5</ele><time>2026-03-29T12:10:59.07Z</time></trkpt><trkpt lat="42.8433367" lon="11.7481467"><ele>335.6666666666667</ele><time>2026-03-29T12:11:00.069Z</time></trkpt><trkpt lat="42.8434017" lon="11.7481183"><ele>336.83333333333337</ele><time>2026-03-29T12:11:01.07Z</time></trkpt><trkpt lat="42.8434817" lon="11.748135"><ele>338.0</ele><time>2026-03-29T12:11:02.07Z</time></trkpt><trkpt lat="42.843555" lon="11.748205"><ele>339.4</ele><time>2026-03-29T12:11:03.07Z</time></trkpt><trkpt lat="42.8436367" lon="11.748305"><ele>340.79999999999995</ele><time>2026-03-29T12:11:04.069Z</time></trkpt><trkpt lat="42.8437167" lon="11.7484233"><ele>342.2</ele><time>2026-03-29T12:11:05.07Z</time></trkpt><trkpt lat="42.8437933" lon="11.7485233"><ele>343.6</ele><time>2026-03-29T12:11:06.069Z</time></trkpt><trkpt lat="42.8438667" lon="11.7485883"><ele>345.0</ele><time>2026-03-29T12:11:07.069Z</time></trkpt><trkpt lat="42.8439383" lon="11.748615"><ele>345.0</ele><time>2026-03-29T12:11:08.07Z</time></trkpt><trkpt lat="42.84401" lon="11.74861"><ele>345.0</ele><time>2026-03-29T12:11:09.07Z</time></trkpt><trkpt lat="42.8440867" lon="11.748545"><ele>345.0</ele><time>2026-03-29T12:11:10.07Z</time></trkpt><trkpt lat="42.8441633" lon="11.7484533"><ele>345.0</ele><time>2026-03-29T12:11:11.069Z</time></trkpt><trkpt lat="42.8442367" lon="11.7483217"><ele>345.0</ele><time>2026-03-29T12:11:12.07Z</time></trkpt><trkpt lat="42.844305" lon="11.7481467"><ele>342.6666666666667</ele><time>2026-03-29T12:11:13.07Z</time></trkpt><trkpt lat="42.8443917" lon="11.7479633"><ele>340.33333333333337</ele><time>2026-03-29T12:11:14.07Z</time></trkpt><trkpt lat="42.8444817" lon="11.7477867"><ele>338.0</ele><time>2026-03-29T12:11:15.069Z</time></trkpt><trkpt lat="42.8445783" lon="11.7476233"><ele>342.0</ele><time>2026-03-29T12:11:16.07Z</time></trkpt><trkpt lat="42.8446733" lon="11.74748"><ele>346.0</ele><time>2026-03-29T12:11:17.07Z</time></trkpt><trkpt lat="42.844755" lon="11.7473483"><ele>350.0</ele><time>2026-03-29T12:11:18.07Z</time></trkpt><trkpt lat="42.8448217" lon="11.74723"><ele>354.0</ele><time>2026-03-29T12:11:19.069Z</time></trkpt><trkpt lat="42.8448817" lon="11.7471017"><ele>354.0</ele><time>2026-03-29T12:11:20.069Z</time></trkpt><trkpt lat="42.8449167" lon="11.7469733"><ele>354.0</ele><time>2026-03-29T12:11:21.07Z</time></trkpt><trkpt lat="42.844925" lon="11.74683"><ele>354.0</ele><time>2026-03-29T12:11:22.07Z</time></trkpt><trkpt lat="42.8449067" lon="11.746655"><ele>354.0</ele><time>2026-03-29T12:11:23.07Z</time></trkpt><trkpt lat="42.8448767" lon="11.74645"><ele>356.0</ele><time>2026-03-29T12:11:24.07Z</time></trkpt><trkpt lat="42.84485" lon="11.74623"><ele>358.0</ele><time>2026-03-29T12:11:25.07Z</time></trkpt><trkpt lat="42.8448267" lon="11.7460383"><ele>360.0</ele><time>2026-03-29T12:11:26.07Z</time></trkpt><trkpt lat="42.84482" lon="11.7458367"><ele>361.3333333333333</ele><time>2026-03-29T12:11:27.07Z</time></trkpt><trkpt lat="42.84483" lon="11.7456333"><ele>362.66666666666663</ele><time>2026-03-29T12:11:28.069Z</time></trkpt><trkpt lat="42.8448667" lon="11.7454383"><ele>364.0</ele><time>2026-03-29T12:11:29.07Z</time></trkpt><trkpt lat="42.8449133" lon="11.7452317"><ele>366.0</ele><time>2026-03-29T12:11:30.069Z</time></trkpt><trkpt lat="42.8449667" lon="11.7450183"><ele>368.0</ele><time>2026-03-29T12:11:31.07Z</time></trkpt><trkpt lat="42.8450183" lon="11.7447917"><ele>370.0</ele><time>2026-03-29T12:11:32.069Z</time></trkpt><trkpt lat="42.8450683" lon="11.7445833"><ele>370.0</ele><time>2026-03-29T12:11:33.07Z</time></trkpt><trkpt lat="42.8451117" lon="11.7443867"><ele>370.0</ele><time>2026-03-29T12:11:34.07Z</time></trkpt><trkpt lat="42.8451533" lon="11.744195"><ele>370.0</ele><time>2026-03-29T12:11:35.07Z</time></trkpt><trkpt lat="42.8452067" lon="11.7440317"><ele>370.0</ele><time>2026-03-29T12:11:36.07Z</time></trkpt><trkpt lat="42.8452583" lon="11.743895"><ele>370.5</ele><time>2026-03-29T12:11:37.07Z</time></trkpt><trkpt lat="42.84534" lon="11.74377"><ele>371.0</ele><time>2026-03-29T12:11:38.07Z</time></trkpt><trkpt lat="42.84543" lon="11.74365"><ele>371.5</ele><time>2026-03-29T12:11:39.07Z</time></trkpt><trkpt lat="42.84554" lon="11.7435417"><ele>372.0</ele><time>2026-03-29T12:11:40.07Z</time></trkpt><trkpt lat="42.8456667" lon="11.7434433"><ele>375.25</ele><time>2026-03-29T12:11:41.069Z</time></trkpt><trkpt lat="42.845795" lon="11.7433633"><ele>378.5</ele><time>2026-03-29T12:11:42.07Z</time></trkpt><trkpt lat="42.8459083" lon="11.7433"><ele>381.75</ele><time>2026-03-29T12:11:43.07Z</time></trkpt><trkpt lat="42.8460117" lon="11.74326"><ele>385.0</ele><time>2026-03-29T12:11:44.07Z</time></trkpt><trkpt lat="42.846115" lon="11.743235"><ele>385.25</ele><time>2026-03-29T12:11:45.07Z</time></trkpt><trkpt lat="42.846225" lon="11.743225"><ele>385.5</ele><time>2026-03-29T12:11:46.07Z</time></trkpt><trkpt lat="42.8463433" lon="11.7432383"><ele>385.75</ele><time>2026-03-29T12:11:47.07Z</time></trkpt><trkpt lat="42.8464717" lon="11.743265"><ele>386.0</ele><time>2026-03-29T12:11:48.07Z</time></trkpt><trkpt lat="42.8466033" lon="11.74329"><ele>386.0</ele><time>2026-03-29T12:11:49.069Z</time></trkpt><trkpt lat="42.84673" lon="11.7433133"><ele>386.0</ele><time>2026-03-29T12:11:50.07Z</time></trkpt><trkpt lat="42.8468533" lon="11.7433317"><ele>386.0</ele><time>2026-03-29T12:11:51.07Z</time></trkpt><trkpt lat="42.8469783" lon="11.743345"><ele>386.0</ele><time>2026-03-29T12:11:52.069Z</time></trkpt><trkpt lat="42.8470917" lon="11.74335"><ele>387.5</ele><time>2026-03-29T12:11:53.069Z</time></trkpt><trkpt lat="42.84721" lon="11.7433667"><ele>389.0</ele><time>2026-03-29T12:11:54.069Z</time></trkpt><trkpt lat="42.8473367" lon="11.7433883"><ele>390.5</ele><time>2026-03-29T12:11:55.07Z</time></trkpt><trkpt lat="42.847465" lon="11.743395"><ele>392.0</ele><time>2026-03-29T12:11:56.07Z</time></trkpt><trkpt lat="42.8475983" lon="11.7433867"><ele>395.0</ele><time>2026-03-29T12:11:57.07Z</time></trkpt><trkpt lat="42.847735" lon="11.7433667"><ele>398.0</ele><time>2026-03-29T12:11:58.069Z</time></trkpt><trkpt lat="42.84788" lon="11.74333"><ele>401.0</ele><time>2026-03-29T12:11:59.07Z</time></trkpt><trkpt lat="42.8480433" lon="11.7432783"><ele>401.0</ele><time>2026-03-29T12:12:00.069Z</time></trkpt><trkpt lat="42.8482133" lon="11.743195"><ele>401.0</ele><time>2026-03-29T12:12:01.07Z</time></trkpt><trkpt lat="42.8483933" lon="11.7431083"><ele>401.0</ele><time>2026-03-29T12:12:02.069Z</time></trkpt><trkpt lat="42.8485633" lon="11.74301"><ele>399.75</ele><time>2026-03-29T12:12:03.07Z</time></trkpt><trkpt lat="42.848705" lon="11.7429317"><ele>398.5</ele><time>2026-03-29T12:12:04.07Z</time></trkpt><trkpt lat="42.8488317" lon="11.7428633"><ele>397.25</ele><time>2026-03-29T12:12:05.07Z</time></trkpt><trkpt lat="42.848945" lon="11.7427967"><ele>396.0</ele><time>2026-03-29T12:12:06.07Z</time></trkpt><trkpt lat="42.849055" lon="11.7427267"><ele>397.0</ele><time>2026-03-29T12:12:07.07Z</time></trkpt><trkpt lat="42.8491567" lon="11.7426267"><ele>398.0</ele><time>2026-03-29T12:12:08.069Z</time></trkpt><trkpt lat="42.8492633" lon="11.742505"><ele>399.0</ele><time>2026-03-29T12:12:09.069Z</time></trkpt><trkpt lat="42.8493683" lon="11.74236"><ele>400.0</ele><time>2026-03-29T12:12:10.07Z</time></trkpt><trkpt lat="42.849485" lon="11.7421917"><ele>400.0</ele><time>2026-03-29T12:12:11.07Z</time></trkpt><trkpt lat="42.8495917" lon="11.7420033"><ele>400.0</ele><time>2026-03-29T12:12:12.07Z</time></trkpt><trkpt lat="42.8497017" lon="11.7418183"><ele>400.0</ele><time>2026-03-29T12:12:13.07Z</time></trkpt><trkpt lat="42.8498017" lon="11.7416517"><ele>400.0</ele><time>2026-03-29T12:12:14.07Z</time></trkpt><trkpt lat="42.84991" lon="11.74151"><ele>400.0</ele><time>2026-03-29T12:12:15.069Z</time></trkpt><trkpt lat="42.8500033" lon="11.74137"><ele>400.0</ele><time>2026-03-29T12:12:16.07Z</time></trkpt><trkpt lat="42.85012" lon="11.741255"><ele>400.0</ele><time>2026-03-29T12:12:17.069Z</time></trkpt><trkpt lat="42.8502483" lon="11.74115"><ele>403.0</ele><time>2026-03-29T12:12:18.069Z</time></trkpt><trkpt lat="42.8504033" lon="11.741035"><ele>406.0</ele><time>2026-03-29T12:12:19.069Z</time></trkpt><trkpt lat="42.8505317" lon="11.7409367"><ele>409.0</ele><time>2026-03-29T12:12:20.07Z</time></trkpt><trkpt lat="42.8506533" lon="11.7408633"><ele>409.0</ele><time>2026-03-29T12:12:21.069Z</time></trkpt><trkpt lat="42.8507467" lon="11.7407967"><ele>409.0</ele><time>2026-03-29T12:12:22.07Z</time></trkpt><trkpt lat="42.8508283" lon="11.7407167"><ele>409.0</ele><time>2026-03-29T12:12:23.07Z</time></trkpt><trkpt lat="42.85089" lon="11.7406"><ele>409.0</ele><time>2026-03-29T12:12:24.069Z</time></trkpt><trkpt lat="42.8509417" lon="11.740465"><ele>409.0</ele><time>2026-03-29T12:12:25.07Z</time></trkpt><trkpt lat="42.8509633" lon="11.7402917"><ele>408.0</ele><time>2026-03-29T12:12:26.069Z</time></trkpt><trkpt lat="42.8509883" lon="11.740105"><ele>407.0</ele><time>2026-03-29T12:12:27.07Z</time></trkpt><trkpt lat="42.851035" lon="11.7399417"><ele>406.0</ele><time>2026-03-29T12:12:28.07Z</time></trkpt><trkpt lat="42.8511017" lon="11.739795"><ele>405.0</ele><time>2026-03-29T12:12:29.07Z</time></trkpt><trkpt lat="42.8511683" lon="11.739665"><ele>405.0</ele><time>2026-03-29T12:12:30.07Z</time></trkpt><trkpt lat="42.8512283" lon="11.739545"><ele>405.0</ele><time>2026-03-29T12:12:31.069Z</time></trkpt><trkpt lat="42.8512817" lon="11.73942"><ele>405.0</ele><time>2026-03-29T12:12:32.07Z</time></trkpt><trkpt lat="42.85133" lon="11.7392967"><ele>405.0</ele><time>2026-03-29T12:12:33.07Z</time></trkpt><trkpt lat="42.8513567" lon="11.7391733"><ele>405.0</ele><time>2026-03-29T12:12:34.07Z</time></trkpt><trkpt lat="42.8513517" lon="11.7390633"><ele>404.6</ele><time>2026-03-29T12:12:35.069Z</time></trkpt><trkpt lat="42.851335" lon="11.73897"><ele>404.2</ele><time>2026-03-29T12:12:36.07Z</time></trkpt><trkpt lat="42.8512733" lon="11.7388433"><ele>403.79999999999995</ele><time>2026-03-29T12:12:38.07Z</time></trkpt><trkpt lat="42.8512015" lon="11.7387755"><ele>403.4</ele><time>2026-03-29T12:12:40.07Z</time></trkpt><trkpt lat="42.8511063" lon="11.7386735"><ele>403.0</ele><time>2026-03-29T12:12:42.07Z</time></trkpt><trkpt lat="42.8510421" lon="11.7386148"><ele>403.5</ele><time>2026-03-29T12:12:43.07Z</time></trkpt><trkpt lat="42.8509611" lon="11.7385494"><ele>404.0</ele><time>2026-03-29T12:12:44.069Z</time></trkpt><trkpt lat="42.8508552" lon="11.7384607"><ele>404.5</ele><time>2026-03-29T12:12:45.07Z</time></trkpt><trkpt lat="42.850746" lon="11.7383564"><ele>405.0</ele><time>2026-03-29T12:12:46.069Z</time></trkpt><trkpt lat="42.8506338" lon="11.738259"><ele>405.2</ele><time>2026-03-29T12:12:47.069Z</time></trkpt><trkpt lat="42.8505449" lon="11.7381678"><ele>405.4</ele><time>2026-03-29T12:12:48.069Z</time></trkpt><trkpt lat="42.850477" lon="11.7380757"><ele>405.6</ele><time>2026-03-29T12:12:49.069Z</time></trkpt><trkpt lat="42.8504273" lon="11.7379743"><ele>405.8</ele><time>2026-03-29T12:12:50.07Z</time></trkpt><trkpt lat="42.8503945" lon="11.7378829"><ele>406.0</ele><time>2026-03-29T12:12:51.069Z</time></trkpt><trkpt lat="42.850373" lon="11.7377337"><ele>408.33333333333337</ele><time>2026-03-29T12:12:53.07Z</time></trkpt><trkpt lat="42.8504072" lon="11.7375838"><ele>410.6666666666667</ele><time>2026-03-29T12:12:55.07Z</time></trkpt><trkpt lat="42.8504543" lon="11.7375162"><ele>413.0</ele><time>2026-03-29T12:12:56.069Z</time></trkpt><trkpt lat="42.8505187" lon="11.7374622"><ele>415.33333333333337</ele><time>2026-03-29T12:12:57.069Z</time></trkpt><trkpt lat="42.8505955" lon="11.7374274"><ele>417.6666666666667</ele><time>2026-03-29T12:12:58.07Z</time></trkpt><trkpt lat="42.8506785" lon="11.7374027"><ele>420.0</ele><time>2026-03-29T12:12:59.07Z</time></trkpt><trkpt lat="42.8507694" lon="11.7373716"><ele>420.0</ele><time>2026-03-29T12:13:00.07Z</time></trkpt><trkpt lat="42.8508637" lon="11.7373191"><ele>420.0</ele><time>2026-03-29T12:13:01.07Z</time></trkpt><trkpt lat="42.8509541" lon="11.7372385"><ele>420.0</ele><time>2026-03-29T12:13:02.07Z</time></trkpt><trkpt lat="42.8510423" lon="11.7371497"><ele>420.0</ele><time>2026-03-29T12:13:03.069Z</time></trkpt><trkpt lat="42.8511248" lon="11.7370672"><ele>420.0</ele><time>2026-03-29T12:13:04.07Z</time></trkpt><trkpt lat="42.8512044" lon="11.7369945"><ele>419.4</ele><time>2026-03-29T12:13:05.07Z</time></trkpt><trkpt lat="42.8512866" lon="11.7369234"><ele>418.8</ele><time>2026-03-29T12:13:06.07Z</time></trkpt><trkpt lat="42.8513598" lon="11.7368437"><ele>418.20000000000005</ele><time>2026-03-29T12:13:07.069Z</time></trkpt><trkpt lat="42.8514298" lon="11.7367534"><ele>417.6</ele><time>2026-03-29T12:13:08.07Z</time></trkpt><trkpt lat="42.8515043" lon="11.7366494"><ele>417.0</ele><time>2026-03-29T12:13:09.07Z</time></trkpt><trkpt lat="42.8515852" lon="11.7365421"><ele>419.25</ele><time>2026-03-29T12:13:10.07Z</time></trkpt><trkpt lat="42.8516807" lon="11.7364495"><ele>421.5</ele><time>2026-03-29T12:13:11.07Z</time></trkpt><trkpt lat="42.851785" lon="11.7363883"><ele>423.75</ele><time>2026-03-29T12:13:12.069Z</time></trkpt><trkpt lat="42.8518999" lon="11.7363531"><ele>426.0</ele><time>2026-03-29T12:13:13.07Z</time></trkpt><trkpt lat="42.8520118" lon="11.7363349"><ele>426.0</ele><time>2026-03-29T12:13:14.07Z</time></trkpt><trkpt lat="42.8521213" lon="11.7363217"><ele>426.0</ele><time>2026-03-29T12:13:15.07Z</time></trkpt><trkpt lat="42.8522228" lon="11.7362988"><ele>426.0</ele><time>2026-03-29T12:13:16.07Z</time></trkpt><trkpt lat="42.8523088" lon="11.7362696"><ele>426.0</ele><time>2026-03-29T12:13:17.07Z</time></trkpt><trkpt lat="42.8523774" lon="11.7362345"><ele>426.0</ele><time>2026-03-29T12:13:18.07Z</time></trkpt><trkpt lat="42.8524462" lon="11.7361899"><ele>426.0</ele><time>2026-03-29T12:13:19.069Z</time></trkpt><trkpt lat="42.8525109" lon="11.7361399"><ele>426.0</ele><time>2026-03-29T12:13:20.07Z</time></trkpt><trkpt lat="42.8525683" lon="11.7360882"><ele>426.0</ele><time>2026-03-29T12:13:21.07Z</time></trkpt><trkpt lat="42.8526533" lon="11.7359812"><ele>426.0</ele><time>2026-03-29T12:13:23.069Z</time></trkpt><trkpt lat="42.8527093" lon="11.7359031"><ele>426.0</ele><time>2026-03-29T12:13:25.07Z</time></trkpt><trkpt lat="42.852775" lon="11.7358567"><ele>426.0</ele><time>2026-03-29T12:13:28.069Z</time></trkpt><trkpt lat="42.852865" lon="11.735835"><ele>428.6</ele><time>2026-03-29T12:13:32.07Z</time></trkpt><trkpt lat="42.8529267" lon="11.7358167"><ele>431.20000000000005</ele><time>2026-03-29T12:13:34.069Z</time></trkpt><trkpt lat="42.853035" lon="11.7358"><ele>433.79999999999995</ele><time>2026-03-29T12:13:43.07Z</time></trkpt><trkpt lat="42.85314" lon="11.7357617"><ele>436.4</ele><time>2026-03-29T12:13:45.07Z</time></trkpt><trkpt lat="42.85325" lon="11.7357133"><ele>439.0</ele><time>2026-03-29T12:13:47.069Z</time></trkpt><trkpt lat="42.853365" lon="11.7356567"><ele>439.0</ele><time>2026-03-29T12:13:49.07Z</time></trkpt><trkpt lat="42.85343" lon="11.7356217"><ele>439.0</ele><time>2026-03-29T12:13:50.07Z</time></trkpt><trkpt lat="42.8534933" lon="11.7355883"><ele>439.0</ele><time>2026-03-29T12:13:51.069Z</time></trkpt><trkpt lat="42.8535617" lon="11.7355533"><ele>439.0</ele><time>2026-03-29T12:13:52.07Z</time></trkpt><trkpt lat="42.8536317" lon="11.73552"><ele>439.0</ele><time>2026-03-29T12:13:53.07Z</time></trkpt><trkpt lat="42.8537017" lon="11.7354783"><ele>439.0</ele><time>2026-03-29T12:13:54.07Z</time></trkpt><trkpt lat="42.8537767" lon="11.735425"><ele>439.0</ele><time>2026-03-29T12:13:55.07Z</time></trkpt><trkpt lat="42.8538533" lon="11.7353617"><ele>440.7142857142857</ele><time>2026-03-29T12:13:56.069Z</time></trkpt><trkpt lat="42.85392" lon="11.7353"><ele>442.42857142857144</ele><time>2026-03-29T12:13:57.069Z</time></trkpt><trkpt lat="42.8539717" lon="11.7352433"><ele>444.1428571428571</ele><time>2026-03-29T12:13:58.07Z</time></trkpt><trkpt lat="42.8540217" lon="11.73517"><ele>445.8571428571429</ele><time>2026-03-29T12:13:59.07Z</time></trkpt><trkpt lat="42.8540733" lon="11.7351067"><ele>447.5714285714286</ele><time>2026-03-29T12:14:00.07Z</time></trkpt><trkpt lat="42.8541267" lon="11.7350533"><ele>449.2857142857143</ele><time>2026-03-29T12:14:01.07Z</time></trkpt><trkpt lat="42.8541833" lon="11.735"><ele>451.0</ele><time>2026-03-29T12:14:02.07Z</time></trkpt><trkpt lat="42.8542417" lon="11.7349533"><ele>452.71428571428567</ele><time>2026-03-29T12:14:03.07Z</time></trkpt><trkpt lat="42.85431" lon="11.73492"><ele>454.42857142857144</ele><time>2026-03-29T12:14:04.07Z</time></trkpt><trkpt lat="42.854375" lon="11.734895"><ele>456.1428571428571</ele><time>2026-03-29T12:14:05.07Z</time></trkpt><trkpt lat="42.8544417" lon="11.7348683"><ele>457.85714285714283</ele><time>2026-03-29T12:14:06.07Z</time></trkpt><trkpt lat="42.8545" lon="11.7348333"><ele>459.57142857142856</ele><time>2026-03-29T12:14:07.07Z</time></trkpt><trkpt lat="42.8545633" lon="11.7347967"><ele>461.2857142857143</ele><time>2026-03-29T12:14:08.069Z</time></trkpt><trkpt lat="42.8546333" lon="11.734775"><ele>463.0</ele><time>2026-03-29T12:14:09.069Z</time></trkpt><trkpt lat="42.8547717" lon="11.7347917"><ele>463.00000000000006</ele><time>2026-03-29T12:14:11.069Z</time></trkpt><trkpt lat="42.8548417" lon="11.7348367"><ele>463.0</ele><time>2026-03-29T12:14:12.07Z</time></trkpt><trkpt lat="42.8549183" lon="11.7348817"><ele>463.0</ele><time>2026-03-29T12:14:13.07Z</time></trkpt><trkpt lat="42.8549883" lon="11.7349283"><ele>463.0</ele><time>2026-03-29T12:14:14.07Z</time></trkpt><trkpt lat="42.8550617" lon="11.73496"><ele>463.00000000000006</ele><time>2026-03-29T12:14:15.07Z</time></trkpt><trkpt lat="42.8551233" lon="11.73498"><ele>463.0</ele><time>2026-03-29T12:14:16.07Z</time></trkpt><trkpt lat="42.8552117" lon="11.7349383"><ele>463.6666666666667</ele><time>2026-03-29T12:14:18.07Z</time></trkpt><trkpt lat="42.8552517" lon="11.7348417"><ele>464.33333333333337</ele><time>2026-03-29T12:14:20.069Z</time></trkpt><trkpt lat="42.855275" lon="11.7347567"><ele>465.0</ele><time>2026-03-29T12:14:21.07Z</time></trkpt><trkpt lat="42.8552817" lon="11.73466"><ele>465.66666666666663</ele><time>2026-03-29T12:14:22.07Z</time></trkpt><trkpt lat="42.8553" lon="11.7345767"><ele>466.3333333333333</ele><time>2026-03-29T12:14:23.07Z</time></trkpt><trkpt lat="42.855375" lon="11.73447"><ele>467.0</ele><time>2026-03-29T12:14:25.07Z</time></trkpt><trkpt lat="42.8554833" lon="11.7344183"><ele>466.99999999999994</ele><time>2026-03-29T12:14:27.07Z</time></trkpt><trkpt lat="42.8556067" lon="11.7344167"><ele>467.0</ele><time>2026-03-29T12:14:29.07Z</time></trkpt><trkpt lat="42.85567" lon="11.7344217"><ele>467.0</ele><time>2026-03-29T12:14:30.07Z</time></trkpt><trkpt lat="42.85574" lon="11.7344217"><ele>467.0</ele><time>2026-03-29T12:14:31.07Z</time></trkpt><trkpt lat="42.855815" lon="11.7344083"><ele>466.99999999999994</ele><time>2026-03-29T12:14:32.07Z</time></trkpt><trkpt lat="42.8558867" lon="11.7343883"><ele>467.0</ele><time>2026-03-29T12:14:33.07Z</time></trkpt><trkpt lat="42.8559717" lon="11.7343667"><ele>470.66666666666663</ele><time>2026-03-29T12:14:34.07Z</time></trkpt><trkpt lat="42.856055" lon="11.7343617"><ele>474.3333333333333</ele><time>2026-03-29T12:14:35.07Z</time></trkpt><trkpt lat="42.8561367" lon="11.734365"><ele>478.0</ele><time>2026-03-29T12:14:36.071Z</time></trkpt><trkpt lat="42.8562167" lon="11.734365"><ele>481.66666666666663</ele><time>2026-03-29T12:14:37.071Z</time></trkpt><trkpt lat="42.8562917" lon="11.7343633"><ele>485.3333333333333</ele><time>2026-03-29T12:14:38.071Z</time></trkpt><trkpt lat="42.85636" lon="11.7343633"><ele>489.0</ele><time>2026-03-29T12:14:39.071Z</time></trkpt><trkpt lat="42.8564267" lon="11.7343467"><ele>489.0</ele><time>2026-03-29T12:14:40.071Z</time></trkpt><trkpt lat="42.8564983" lon="11.7343283"><ele>489.00000000000006</ele><time>2026-03-29T12:14:41.071Z</time></trkpt><trkpt lat="42.85657" lon="11.7343117"><ele>489.0</ele><time>2026-03-29T12:14:42.07Z</time></trkpt><trkpt lat="42.85664" lon="11.734285"><ele>489.0</ele><time>2026-03-29T12:14:43.071Z</time></trkpt><trkpt lat="42.8566983" lon="11.7342517"><ele>489.00000000000006</ele><time>2026-03-29T12:14:44.07Z</time></trkpt><trkpt lat="42.85676" lon="11.7342067"><ele>489.0</ele><time>2026-03-29T12:14:45.071Z</time></trkpt><trkpt lat="42.856825" lon="11.7341667"><ele>489.0</ele><time>2026-03-29T12:14:46.071Z</time></trkpt><trkpt lat="42.85689" lon="11.7341283"><ele>489.1666666666667</ele><time>2026-03-29T12:14:47.071Z</time></trkpt><trkpt lat="42.8569567" lon="11.734095"><ele>489.33333333333337</ele><time>2026-03-29T12:14:48.071Z</time></trkpt><trkpt lat="42.8570317" lon="11.7340633"><ele>489.5</ele><time>2026-03-29T12:14:49.071Z</time></trkpt><trkpt lat="42.8571" lon="11.7340117"><ele>489.6666666666667</ele><time>2026-03-29T12:14:50.07Z</time></trkpt><trkpt lat="42.8571617" lon="11.7339617"><ele>489.83333333333337</ele><time>2026-03-29T12:14:51.071Z</time></trkpt><trkpt lat="42.8572217" lon="11.733895"><ele>490.0</ele><time>2026-03-29T12:14:52.07Z</time></trkpt><trkpt lat="42.8572917" lon="11.7338083"><ele>490.00000000000006</ele><time>2026-03-29T12:14:53.071Z</time></trkpt><trkpt lat="42.8573633" lon="11.73372"><ele>490.0</ele><time>2026-03-29T12:14:54.07Z</time></trkpt><trkpt lat="42.8574283" lon="11.7336283"><ele>490.0</ele><time>2026-03-29T12:14:55.071Z</time></trkpt><trkpt lat="42.8574933" lon="11.7335383"><ele>490.0</ele><time>2026-03-29T12:14:56.07Z</time></trkpt><trkpt lat="42.8575433" lon="11.73345"><ele>490.00000000000006</ele><time>2026-03-29T12:14:57.071Z</time></trkpt><trkpt lat="42.8575967" lon="11.7333717"><ele>490.0</ele><time>2026-03-29T12:14:58.071Z</time></trkpt><trkpt lat="42.8576583" lon="11.7332917"><ele>490.6666666666667</ele><time>2026-03-29T12:14:59.071Z</time></trkpt><trkpt lat="42.857715" lon="11.7332133"><ele>491.33333333333337</ele><time>2026-03-29T12:15:00.071Z</time></trkpt><trkpt lat="42.857775" lon="11.7331317"><ele>492.0</ele><time>2026-03-29T12:15:01.071Z</time></trkpt><trkpt lat="42.8578383" lon="11.733045"><ele>492.66666666666663</ele><time>2026-03-29T12:15:02.071Z</time></trkpt><trkpt lat="42.8579" lon="11.7329683"><ele>493.3333333333333</ele><time>2026-03-29T12:15:03.071Z</time></trkpt><trkpt lat="42.8579517" lon="11.7329"><ele>494.0</ele><time>2026-03-29T12:15:04.071Z</time></trkpt><trkpt lat="42.8579983" lon="11.732835"><ele>493.99999999999994</ele><time>2026-03-29T12:15:05.071Z</time></trkpt><trkpt lat="42.8580483" lon="11.7327633"><ele>494.0</ele><time>2026-03-29T12:15:06.071Z</time></trkpt><trkpt lat="42.8580933" lon="11.7326983"><ele>494.0</ele><time>2026-03-29T12:15:07.07Z</time></trkpt><trkpt lat="42.8581383" lon="11.7326367"><ele>494.0</ele><time>2026-03-29T12:15:08.071Z</time></trkpt><trkpt lat="42.8582367" lon="11.732525"><ele>493.99999999999994</ele><time>2026-03-29T12:15:10.071Z</time></trkpt><trkpt lat="42.8583083" lon="11.732475"><ele>494.0</ele><time>2026-03-29T12:15:11.071Z</time></trkpt><trkpt lat="42.85839" lon="11.7324283"><ele>493.79999999999995</ele><time>2026-03-29T12:15:12.07Z</time></trkpt><trkpt lat="42.8584717" lon="11.732395"><ele>493.59999999999997</ele><time>2026-03-29T12:15:13.071Z</time></trkpt><trkpt lat="42.8585433" lon="11.7323733"><ele>493.4</ele><time>2026-03-29T12:15:14.071Z</time></trkpt><trkpt lat="42.85861" lon="11.7323617"><ele>493.2</ele><time>2026-03-29T12:15:15.071Z</time></trkpt><trkpt lat="42.8587167" lon="11.73234"><ele>493.0</ele><time>2026-03-29T12:15:17.071Z</time></trkpt><trkpt lat="42.858825" lon="11.7322367"><ele>493.0</ele><time>2026-03-29T12:15:19.071Z</time></trkpt><trkpt lat="42.85889" lon="11.732145"><ele>492.99999999999994</ele><time>2026-03-29T12:15:20.071Z</time></trkpt><trkpt lat="42.85895" lon="11.7320383"><ele>492.99999999999994</ele><time>2026-03-29T12:15:21.071Z</time></trkpt><trkpt lat="42.85902" lon="11.731905"><ele>493.0</ele><time>2026-03-29T12:15:22.071Z</time></trkpt><trkpt lat="42.8590883" lon="11.73177"><ele>493.0</ele><time>2026-03-29T12:15:23.071Z</time></trkpt><trkpt lat="42.8591517" lon="11.7316467"><ele>492.4</ele><time>2026-03-29T12:15:24.071Z</time></trkpt><trkpt lat="42.8592217" lon="11.7315283"><ele>491.79999999999995</ele><time>2026-03-29T12:15:25.07Z</time></trkpt><trkpt lat="42.8592833" lon="11.7314133"><ele>491.2</ele><time>2026-03-29T12:15:26.07Z</time></trkpt><trkpt lat="42.8593517" lon="11.7312917"><ele>490.6</ele><time>2026-03-29T12:15:27.07Z</time></trkpt><trkpt lat="42.859425" lon="11.731175"><ele>490.0</ele><time>2026-03-29T12:15:28.071Z</time></trkpt><trkpt lat="42.8594983" lon="11.7310717"><ele>492.4</ele><time>2026-03-29T12:15:29.07Z</time></trkpt><trkpt lat="42.859575" lon="11.7309633"><ele>494.8</ele><time>2026-03-29T12:15:30.07Z</time></trkpt><trkpt lat="42.859655" lon="11.7308517"><ele>497.20000000000005</ele><time>2026-03-29T12:15:31.071Z</time></trkpt><trkpt lat="42.8597417" lon="11.7307567"><ele>499.6</ele><time>2026-03-29T12:15:32.07Z</time></trkpt><trkpt lat="42.85983" lon="11.7306633"><ele>502.0</ele><time>2026-03-29T12:15:33.071Z</time></trkpt><trkpt lat="42.8599167" lon="11.7305733"><ele>502.0</ele><time>2026-03-29T12:15:34.07Z</time></trkpt><trkpt lat="42.8599983" lon="11.7304917"><ele>502.00000000000006</ele><time>2026-03-29T12:15:35.071Z</time></trkpt><trkpt lat="42.8600833" lon="11.7304017"><ele>502.00000000000006</ele><time>2026-03-29T12:15:36.071Z</time></trkpt><trkpt lat="42.8601633" lon="11.7303133"><ele>502.0</ele><time>2026-03-29T12:15:37.071Z</time></trkpt><trkpt lat="42.8602483" lon="11.730235"><ele>502.0</ele><time>2026-03-29T12:15:38.07Z</time></trkpt><trkpt lat="42.8603333" lon="11.7301517"><ele>502.0</ele><time>2026-03-29T12:15:39.071Z</time></trkpt><trkpt lat="42.8604183" lon="11.73007"><ele>502.00000000000006</ele><time>2026-03-29T12:15:40.07Z</time></trkpt><trkpt lat="42.860505" lon="11.7299867"><ele>502.00000000000006</ele><time>2026-03-29T12:15:41.07Z</time></trkpt><trkpt lat="42.8605767" lon="11.7299"><ele>502.0</ele><time>2026-03-29T12:15:42.071Z</time></trkpt><trkpt lat="42.860635" lon="11.729815"><ele>502.0</ele><time>2026-03-29T12:15:43.071Z</time></trkpt><trkpt lat="42.8606767" lon="11.7297367"><ele>502.0</ele><time>2026-03-29T12:15:44.07Z</time></trkpt><trkpt lat="42.860705" lon="11.7296383"><ele>502.00000000000006</ele><time>2026-03-29T12:15:45.071Z</time></trkpt><trkpt lat="42.8607233" lon="11.72953"><ele>502.00000000000006</ele><time>2026-03-29T12:15:46.071Z</time></trkpt><trkpt lat="42.860735" lon="11.72941"><ele>502.0</ele><time>2026-03-29T12:15:47.07Z</time></trkpt><trkpt lat="42.86074" lon="11.72926"><ele>502.0</ele><time>2026-03-29T12:15:48.071Z</time></trkpt><trkpt lat="42.860765" lon="11.7291067"><ele>501.6</ele><time>2026-03-29T12:15:49.071Z</time></trkpt><trkpt lat="42.86081" lon="11.7289667"><ele>501.20000000000005</ele><time>2026-03-29T12:15:50.071Z</time></trkpt><trkpt lat="42.8608583" lon="11.7288383"><ele>500.8</ele><time>2026-03-29T12:15:51.07Z</time></trkpt><trkpt lat="42.8609233" lon="11.728715"><ele>500.4</ele><time>2026-03-29T12:15:52.071Z</time></trkpt><trkpt lat="42.8610017" lon="11.7286033"><ele>500.0</ele><time>2026-03-29T12:15:53.071Z</time></trkpt><trkpt lat="42.861085" lon="11.7285033"><ele>503.25</ele><time>2026-03-29T12:15:54.07Z</time></trkpt><trkpt lat="42.8611817" lon="11.728405"><ele>506.5</ele><time>2026-03-29T12:15:55.07Z</time></trkpt><trkpt lat="42.861285" lon="11.728305"><ele>509.75</ele><time>2026-03-29T12:15:56.071Z</time></trkpt><trkpt lat="42.8614" lon="11.7282017"><ele>513.0</ele><time>2026-03-29T12:15:57.07Z</time></trkpt><trkpt lat="42.86153" lon="11.7280833"><ele>513.0</ele><time>2026-03-29T12:15:58.07Z</time></trkpt><trkpt lat="42.8616683" lon="11.7279483"><ele>513.0</ele><time>2026-03-29T12:15:59.071Z</time></trkpt><trkpt lat="42.86179" lon="11.7278333"><ele>513.0</ele><time>2026-03-29T12:16:00.071Z</time></trkpt><trkpt lat="42.86189" lon="11.7277317"><ele>513.0</ele><time>2026-03-29T12:16:01.071Z</time></trkpt><trkpt lat="42.861995" lon="11.7276367"><ele>514.25</ele><time>2026-03-29T12:16:02.071Z</time></trkpt><trkpt lat="42.86211" lon="11.7275433"><ele>515.5</ele><time>2026-03-29T12:16:03.071Z</time></trkpt><trkpt lat="42.8622117" lon="11.727455"><ele>516.75</ele><time>2026-03-29T12:16:04.071Z</time></trkpt><trkpt lat="42.86232" lon="11.7273583"><ele>518.0</ele><time>2026-03-29T12:16:05.071Z</time></trkpt><trkpt lat="42.8624417" lon="11.727255"><ele>518.0</ele><time>2026-03-29T12:16:06.07Z</time></trkpt><trkpt lat="42.8625583" lon="11.7271567"><ele>518.0</ele><time>2026-03-29T12:16:07.071Z</time></trkpt><trkpt lat="42.8626817" lon="11.727065"><ele>518.0</ele><time>2026-03-29T12:16:08.071Z</time></trkpt><trkpt lat="42.86281" lon="11.72697"><ele>518.0</ele><time>2026-03-29T12:16:09.071Z</time></trkpt><trkpt lat="42.8629367" lon="11.7268817"><ele>519.5</ele><time>2026-03-29T12:16:10.071Z</time></trkpt><trkpt lat="42.8630533" lon="11.7267833"><ele>521.0</ele><time>2026-03-29T12:16:11.071Z</time></trkpt><trkpt lat="42.8631717" lon="11.7266733"><ele>522.5</ele><time>2026-03-29T12:16:12.071Z</time></trkpt><trkpt lat="42.86329" lon="11.726555"><ele>524.0</ele><time>2026-03-29T12:16:13.071Z</time></trkpt><trkpt lat="42.8634033" lon="11.726445"><ele>523.5</ele><time>2026-03-29T12:16:14.071Z</time></trkpt><trkpt lat="42.8635283" lon="11.7263367"><ele>523.0</ele><time>2026-03-29T12:16:15.071Z</time></trkpt><trkpt lat="42.86365" lon="11.7262333"><ele>522.5</ele><time>2026-03-29T12:16:16.07Z</time></trkpt><trkpt lat="42.863765" lon="11.72614"><ele>522.0</ele><time>2026-03-29T12:16:17.07Z</time></trkpt><trkpt lat="42.8638683" lon="11.7260317"><ele>522.0</ele><time>2026-03-29T12:16:18.071Z</time></trkpt><trkpt lat="42.86396" lon="11.7259433"><ele>522.0</ele><time>2026-03-29T12:16:19.071Z</time></trkpt><trkpt lat="42.8640533" lon="11.72586"><ele>522.0</ele><time>2026-03-29T12:16:20.07Z</time></trkpt><trkpt lat="42.8641367" lon="11.72579"><ele>522.0</ele><time>2026-03-29T12:16:21.071Z</time></trkpt><trkpt lat="42.8642217" lon="11.725735"><ele>522.0</ele><time>2026-03-29T12:16:22.071Z</time></trkpt><trkpt lat="42.8643083" lon="11.725685"><ele>520.0</ele><time>2026-03-29T12:16:23.071Z</time></trkpt><trkpt lat="42.8643883" lon="11.7256317"><ele>518.0</ele><time>2026-03-29T12:16:24.071Z</time></trkpt><trkpt lat="42.86446" lon="11.7255783"><ele>516.0</ele><time>2026-03-29T12:16:25.07Z</time></trkpt><trkpt lat="42.86453" lon="11.7255233"><ele>514.0</ele><time>2026-03-29T12:16:26.071Z</time></trkpt><trkpt lat="42.8646" lon="11.725475"><ele>512.0</ele><time>2026-03-29T12:16:27.071Z</time></trkpt><trkpt lat="42.8646683" lon="11.725415"><ele>510.0</ele><time>2026-03-29T12:16:28.071Z</time></trkpt><trkpt lat="42.8647317" lon="11.7253367"><ele>510.0</ele><time>2026-03-29T12:16:29.071Z</time></trkpt><trkpt lat="42.8647883" lon="11.7252383"><ele>510.0</ele><time>2026-03-29T12:16:30.07Z</time></trkpt><trkpt lat="42.8648417" lon="11.7251167"><ele>510.0</ele><time>2026-03-29T12:16:31.071Z</time></trkpt><trkpt lat="42.8648967" lon="11.7249733"><ele>510.0</ele><time>2026-03-29T12:16:32.071Z</time></trkpt><trkpt lat="42.8649667" lon="11.724825"><ele>510.0</ele><time>2026-03-29T12:16:33.071Z</time></trkpt><trkpt lat="42.865035" lon="11.7246733"><ele>508.8</ele><time>2026-03-29T12:16:34.071Z</time></trkpt><trkpt lat="42.8650967" lon="11.72453"><ele>507.6</ele><time>2026-03-29T12:16:35.071Z</time></trkpt><trkpt lat="42.8651483" lon="11.7244133"><ele>506.4</ele><time>2026-03-29T12:16:36.071Z</time></trkpt><trkpt lat="42.8652033" lon="11.72429"><ele>505.2</ele><time>2026-03-29T12:16:37.071Z</time></trkpt><trkpt lat="42.8652633" lon="11.7241667"><ele>504.0</ele><time>2026-03-29T12:16:38.07Z</time></trkpt><trkpt lat="42.8653467" lon="11.7240583"><ele>508.0</ele><time>2026-03-29T12:16:39.07Z</time></trkpt><trkpt lat="42.865435" lon="11.7239383"><ele>512.0</ele><time>2026-03-29T12:16:40.071Z</time></trkpt><trkpt lat="42.8655467" lon="11.7238217"><ele>516.0</ele><time>2026-03-29T12:16:41.071Z</time></trkpt><trkpt lat="42.8656567" lon="11.7237133"><ele>520.0</ele><time>2026-03-29T12:16:42.071Z</time></trkpt><trkpt lat="42.865775" lon="11.7236433"><ele>521.0</ele><time>2026-03-29T12:16:43.071Z</time></trkpt><trkpt lat="42.8658817" lon="11.7235517"><ele>522.0</ele><time>2026-03-29T12:16:44.07Z</time></trkpt><trkpt lat="42.86596" lon="11.723465"><ele>523.0</ele><time>2026-03-29T12:16:45.071Z</time></trkpt><trkpt lat="42.8660267" lon="11.723375"><ele>524.0</ele><time>2026-03-29T12:16:46.071Z</time></trkpt><trkpt lat="42.8661" lon="11.7232617"><ele>525.0</ele><time>2026-03-29T12:16:47.07Z</time></trkpt><trkpt lat="42.8661683" lon="11.7231333"><ele>525.0</ele><time>2026-03-29T12:16:48.07Z</time></trkpt><trkpt lat="42.8662417" lon="11.7229733"><ele>525.0</ele><time>2026-03-29T12:16:49.071Z</time></trkpt><trkpt lat="42.86631" lon="11.7227917"><ele>525.0</ele><time>2026-03-29T12:16:50.071Z</time></trkpt><trkpt lat="42.8663883" lon="11.7225983"><ele>529.0</ele><time>2026-03-29T12:16:51.071Z</time></trkpt><trkpt lat="42.866465" lon="11.7223917"><ele>533.0</ele><time>2026-03-29T12:16:52.071Z</time></trkpt><trkpt lat="42.86655" lon="11.7221667"><ele>537.0</ele><time>2026-03-29T12:16:53.071Z</time></trkpt><trkpt lat="42.8666467" lon="11.72196"><ele>535.25</ele><time>2026-03-29T12:16:54.071Z</time></trkpt><trkpt lat="42.8667267" lon="11.7217767"><ele>533.5</ele><time>2026-03-29T12:16:55.071Z</time></trkpt><trkpt lat="42.8667883" lon="11.7216233"><ele>531.75</ele><time>2026-03-29T12:16:56.07Z</time></trkpt><trkpt lat="42.86685" lon="11.721465"><ele>530.0</ele><time>2026-03-29T12:16:57.07Z</time></trkpt><trkpt lat="42.8669" lon="11.7212917"><ele>530.0</ele><time>2026-03-29T12:16:58.071Z</time></trkpt><trkpt lat="42.8669467" lon="11.7211217"><ele>530.0</ele><time>2026-03-29T12:16:59.071Z</time></trkpt><trkpt lat="42.8669867" lon="11.7209633"><ele>530.0</ele><time>2026-03-29T12:17:00.071Z</time></trkpt><trkpt lat="42.8670133" lon="11.7208167"><ele>530.0</ele><time>2026-03-29T12:17:01.071Z</time></trkpt><trkpt lat="42.8670417" lon="11.72068"><ele>532.2</ele><time>2026-03-29T12:17:02.071Z</time></trkpt><trkpt lat="42.8670417" lon="11.7205467"><ele>534.4</ele><time>2026-03-29T12:17:03.071Z</time></trkpt><trkpt lat="42.8670233" lon="11.72041"><ele>536.6</ele><time>2026-03-29T12:17:04.071Z</time></trkpt><trkpt lat="42.8669883" lon="11.7202633"><ele>538.8</ele><time>2026-03-29T12:17:05.071Z</time></trkpt><trkpt lat="42.8669483" lon="11.7201083"><ele>541.0</ele><time>2026-03-29T12:17:06.071Z</time></trkpt><trkpt lat="42.8669" lon="11.71995"><ele>544.4</ele><time>2026-03-29T12:17:07.071Z</time></trkpt><trkpt lat="42.8668583" lon="11.71981"><ele>547.8</ele><time>2026-03-29T12:17:08.071Z</time></trkpt><trkpt lat="42.8668383" lon="11.7196733"><ele>551.1999999999999</ele><time>2026-03-29T12:17:09.071Z</time></trkpt><trkpt lat="42.866835" lon="11.7195458"><ele>554.6</ele><time>2026-03-29T12:17:10.071Z</time></trkpt><trkpt lat="42.8668469" lon="11.719422"><ele>558.0</ele><time>2026-03-29T12:17:11.07Z</time></trkpt><trkpt lat="42.8668878" lon="11.7193175"><ele>559.6</ele><time>2026-03-29T12:17:12.07Z</time></trkpt><trkpt lat="42.8669462" lon="11.7192264"><ele>561.1999999999999</ele><time>2026-03-29T12:17:13.071Z</time></trkpt><trkpt lat="42.8670226" lon="11.7191313"><ele>562.8</ele><time>2026-03-29T12:17:14.071Z</time></trkpt><trkpt lat="42.867105" lon="11.7190177"><ele>564.4</ele><time>2026-03-29T12:17:15.071Z</time></trkpt><trkpt lat="42.8671736" lon="11.7188801"><ele>566.0</ele><time>2026-03-29T12:17:16.07Z</time></trkpt><trkpt lat="42.8672328" lon="11.7187173"><ele>566.0</ele><time>2026-03-29T12:17:17.07Z</time></trkpt><trkpt lat="42.8672977" lon="11.7185335"><ele>566.0</ele><time>2026-03-29T12:17:18.071Z</time></trkpt><trkpt lat="42.86737" lon="11.7183547"><ele>566.0</ele><time>2026-03-29T12:17:19.071Z</time></trkpt><trkpt lat="42.8674584" lon="11.718186"><ele>566.0</ele><time>2026-03-29T12:17:20.07Z</time></trkpt><trkpt lat="42.8675547" lon="11.7180389"><ele>566.0</ele><time>2026-03-29T12:17:21.071Z</time></trkpt><trkpt lat="42.8676477" lon="11.717904"><ele>566.0</ele><time>2026-03-29T12:17:22.071Z</time></trkpt><trkpt lat="42.8677426" lon="11.7177786"><ele>566.0</ele><time>2026-03-29T12:17:23.071Z</time></trkpt><trkpt lat="42.8678353" lon="11.7176551"><ele>569.0</ele><time>2026-03-29T12:17:24.071Z</time></trkpt><trkpt lat="42.8679351" lon="11.7175285"><ele>572.0</ele><time>2026-03-29T12:17:25.071Z</time></trkpt><trkpt lat="42.8680349" lon="11.7173932"><ele>575.0</ele><time>2026-03-29T12:17:26.07Z</time></trkpt><trkpt lat="42.8681364" lon="11.717262"><ele>578.0</ele><time>2026-03-29T12:17:27.071Z</time></trkpt><trkpt lat="42.8682379" lon="11.7171381"><ele>578.0</ele><time>2026-03-29T12:17:28.07Z</time></trkpt><trkpt lat="42.8683441" lon="11.717034"><ele>578.0</ele><time>2026-03-29T12:17:29.071Z</time></trkpt><trkpt lat="42.8684559" lon="11.7169503"><ele>578.0</ele><time>2026-03-29T12:17:30.071Z</time></trkpt><trkpt lat="42.8685646" lon="11.7168638"><ele>578.0</ele><time>2026-03-29T12:17:31.07Z</time></trkpt><trkpt lat="42.8686645" lon="11.7167565"><ele>580.25</ele><time>2026-03-29T12:17:32.071Z</time></trkpt><trkpt lat="42.8687597" lon="11.7166185"><ele>582.5</ele><time>2026-03-29T12:17:33.071Z</time></trkpt><trkpt lat="42.8688518" lon="11.7164476"><ele>584.75</ele><time>2026-03-29T12:17:34.07Z</time></trkpt><trkpt lat="42.8689332" lon="11.7162913"><ele>587.0</ele><time>2026-03-29T12:17:35.07Z</time></trkpt><trkpt lat="42.8690194" lon="11.716144"><ele>584.0</ele><time>2026-03-29T12:17:36.071Z</time></trkpt><trkpt lat="42.869118" lon="11.7159964"><ele>581.0</ele><time>2026-03-29T12:17:37.071Z</time></trkpt><trkpt lat="42.8692249" lon="11.7158401"><ele>578.0</ele><time>2026-03-29T12:17:38.07Z</time></trkpt><trkpt lat="42.8693298" lon="11.7156902"><ele>581.25</ele><time>2026-03-29T12:17:39.07Z</time></trkpt><trkpt lat="42.869424" lon="11.7155382"><ele>584.5</ele><time>2026-03-29T12:17:40.071Z</time></trkpt><trkpt lat="42.8695101" lon="11.7153793"><ele>587.75</ele><time>2026-03-29T12:17:41.071Z</time></trkpt><trkpt lat="42.8695789" lon="11.7152258"><ele>591.0</ele><time>2026-03-29T12:17:42.07Z</time></trkpt><trkpt lat="42.8696441" lon="11.7150768"><ele>591.0</ele><time>2026-03-29T12:17:43.071Z</time></trkpt><trkpt lat="42.8697303" lon="11.7149387"><ele>591.0</ele><time>2026-03-29T12:17:44.071Z</time></trkpt><trkpt lat="42.869841" lon="11.7147979"><ele>591.0</ele><time>2026-03-29T12:17:45.071Z</time></trkpt><trkpt lat="42.8699584" lon="11.71466"><ele>591.0</ele><time>2026-03-29T12:17:46.071Z</time></trkpt><trkpt lat="42.8700773" lon="11.7145354"><ele>589.25</ele><time>2026-03-29T12:17:47.071Z</time></trkpt><trkpt lat="42.8701999" lon="11.7144385"><ele>587.5</ele><time>2026-03-29T12:17:48.07Z</time></trkpt><trkpt lat="42.8703178" lon="11.714377"><ele>585.75</ele><time>2026-03-29T12:17:49.071Z</time></trkpt><trkpt lat="42.8704317" lon="11.7143279"><ele>584.0</ele><time>2026-03-29T12:17:50.071Z</time></trkpt><trkpt lat="42.8705353" lon="11.7142806"><ele>584.0</ele><time>2026-03-29T12:17:51.071Z</time></trkpt><trkpt lat="42.8706349" lon="11.7142612"><ele>584.0</ele><time>2026-03-29T12:17:52.07Z</time></trkpt><trkpt lat="42.8707459" lon="11.7142635"><ele>584.0</ele><time>2026-03-29T12:17:53.071Z</time></trkpt><trkpt lat="42.870874" lon="11.7142654"><ele>584.0</ele><time>2026-03-29T12:17:54.071Z</time></trkpt><trkpt lat="42.8710056" lon="11.7142519"><ele>587.75</ele><time>2026-03-29T12:17:55.07Z</time></trkpt><trkpt lat="42.8711319" lon="11.7142068"><ele>591.5</ele><time>2026-03-29T12:17:56.071Z</time></trkpt><trkpt lat="42.8712476" lon="11.7141373"><ele>595.25</ele><time>2026-03-29T12:17:57.071Z</time></trkpt><trkpt lat="42.871351" lon="11.7140465"><ele>599.0</ele><time>2026-03-29T12:17:58.071Z</time></trkpt><trkpt lat="42.871435" lon="11.7139415"><ele>599.0</ele><time>2026-03-29T12:17:59.071Z</time></trkpt><trkpt lat="42.8715054" lon="11.7138196"><ele>599.0</ele><time>2026-03-29T12:18:00.07Z</time></trkpt><trkpt lat="42.8715801" lon="11.7136801"><ele>599.0</ele><time>2026-03-29T12:18:01.071Z</time></trkpt><trkpt lat="42.8716652" lon="11.7135463"><ele>599.0</ele><time>2026-03-29T12:18:02.071Z</time></trkpt><trkpt lat="42.8717651" lon="11.7134256"><ele>600.5</ele><time>2026-03-29T12:18:03.07Z</time></trkpt><trkpt lat="42.8718767" lon="11.7133337"><ele>602.0</ele><time>2026-03-29T12:18:04.071Z</time></trkpt><trkpt lat="42.8720044" lon="11.7132587"><ele>603.5</ele><time>2026-03-29T12:18:05.07Z</time></trkpt><trkpt lat="42.8721331" lon="11.7132032"><ele>605.0</ele><time>2026-03-29T12:18:06.071Z</time></trkpt><trkpt lat="42.8722574" lon="11.7131503"><ele>605.0</ele><time>2026-03-29T12:18:07.071Z</time></trkpt><trkpt lat="42.8723699" lon="11.7130888"><ele>605.0</ele><time>2026-03-29T12:18:08.071Z</time></trkpt><trkpt lat="42.8724661" lon="11.7130197"><ele>605.0</ele><time>2026-03-29T12:18:09.071Z</time></trkpt><trkpt lat="42.8725393" lon="11.712933"><ele>605.0</ele><time>2026-03-29T12:18:10.071Z</time></trkpt><trkpt lat="42.8725904" lon="11.7128219"><ele>605.0</ele><time>2026-03-29T12:18:11.071Z</time></trkpt><trkpt lat="42.8726269" lon="11.7126925"><ele>606.6</ele><time>2026-03-29T12:18:12.071Z</time></trkpt><trkpt lat="42.8726652" lon="11.7125532"><ele>608.2</ele><time>2026-03-29T12:18:13.071Z</time></trkpt><trkpt lat="42.8727111" lon="11.7124281"><ele>609.8</ele><time>2026-03-29T12:18:14.07Z</time></trkpt><trkpt lat="42.8727789" lon="11.7123144"><ele>611.4</ele><time>2026-03-29T12:18:15.071Z</time></trkpt><trkpt lat="42.87287" lon="11.712201"><ele>613.0</ele><time>2026-03-29T12:18:16.071Z</time></trkpt><trkpt lat="42.8729854" lon="11.7120718"><ele>613.0</ele><time>2026-03-29T12:18:17.071Z</time></trkpt><trkpt lat="42.8731067" lon="11.7119397"><ele>613.0</ele><time>2026-03-29T12:18:18.071Z</time></trkpt><trkpt lat="42.8732221" lon="11.7118221"><ele>613.0</ele><time>2026-03-29T12:18:19.07Z</time></trkpt><trkpt lat="42.8733409" lon="11.7117113"><ele>613.0</ele><time>2026-03-29T12:18:20.071Z</time></trkpt><trkpt lat="42.873462" lon="11.711607"><ele>613.25</ele><time>2026-03-29T12:18:21.071Z</time></trkpt><trkpt lat="42.8735859" lon="11.7115165"><ele>613.5</ele><time>2026-03-29T12:18:22.07Z</time></trkpt><trkpt lat="42.8737128" lon="11.7114386"><ele>613.75</ele><time>2026-03-29T12:18:23.071Z</time></trkpt><trkpt lat="42.873836" lon="11.7113761"><ele>614.0</ele><time>2026-03-29T12:18:24.07Z</time></trkpt><trkpt lat="42.873951" lon="11.7113067"><ele>614.0</ele><time>2026-03-29T12:18:25.07Z</time></trkpt><trkpt lat="42.8740581" lon="11.7112122"><ele>614.0</ele><time>2026-03-29T12:18:26.07Z</time></trkpt><trkpt lat="42.874162" lon="11.7110865"><ele>614.0</ele><time>2026-03-29T12:18:27.07Z</time></trkpt><trkpt lat="42.874266" lon="11.7109482"><ele>614.0</ele><time>2026-03-29T12:18:28.071Z</time></trkpt><trkpt lat="42.8743591" lon="11.7108182"><ele>613.75</ele><time>2026-03-29T12:18:29.071Z</time></trkpt><trkpt lat="42.8744518" lon="11.7107098"><ele>613.5</ele><time>2026-03-29T12:18:30.071Z</time></trkpt><trkpt lat="42.8745501" lon="11.7106192"><ele>613.25</ele><time>2026-03-29T12:18:31.071Z</time></trkpt><trkpt lat="42.8746665" lon="11.710533"><ele>613.0</ele><time>2026-03-29T12:18:32.071Z</time></trkpt><trkpt lat="42.87479" lon="11.7104535"><ele>613.0</ele><time>2026-03-29T12:18:33.071Z</time></trkpt><trkpt lat="42.8749134" lon="11.710379"><ele>613.0</ele><time>2026-03-29T12:18:34.071Z</time></trkpt><trkpt lat="42.8750382" lon="11.7103214"><ele>613.0</ele><time>2026-03-29T12:18:35.07Z</time></trkpt><trkpt lat="42.875159" lon="11.71029"><ele>613.0</ele><time>2026-03-29T12:18:36.071Z</time></trkpt><trkpt lat="42.8752914" lon="11.710283"><ele>613.6666666666667</ele><time>2026-03-29T12:18:37.071Z</time></trkpt><trkpt lat="42.8754463" lon="11.7102866"><ele>614.3333333333334</ele><time>2026-03-29T12:18:38.071Z</time></trkpt><trkpt lat="42.8756039" lon="11.7102848"><ele>615.0</ele><time>2026-03-29T12:18:39.071Z</time></trkpt><trkpt lat="42.8757489" lon="11.7102687"><ele>615.0</ele><time>2026-03-29T12:18:40.07Z</time></trkpt><trkpt lat="42.8758728" lon="11.7102458"><ele>615.0</ele><time>2026-03-29T12:18:41.071Z</time></trkpt><trkpt lat="42.8759813" lon="11.7102283"><ele>615.0</ele><time>2026-03-29T12:18:42.071Z</time></trkpt><trkpt lat="42.8760843" lon="11.7102212"><ele>615.0</ele><time>2026-03-29T12:18:43.07Z</time></trkpt><trkpt lat="42.8761763" lon="11.7102197"><ele>615.0</ele><time>2026-03-29T12:18:44.071Z</time></trkpt><trkpt lat="42.8762615" lon="11.7102234"><ele>615.8</ele><time>2026-03-29T12:18:45.071Z</time></trkpt><trkpt lat="42.8763511" lon="11.7102316"><ele>616.6</ele><time>2026-03-29T12:18:46.071Z</time></trkpt><trkpt lat="42.8764438" lon="11.7102443"><ele>617.4</ele><time>2026-03-29T12:18:47.071Z</time></trkpt><trkpt lat="42.8765388" lon="11.7102555"><ele>618.2</ele><time>2026-03-29T12:18:48.071Z</time></trkpt><trkpt lat="42.876638" lon="11.7102579"><ele>619.0</ele><time>2026-03-29T12:18:49.071Z</time></trkpt><trkpt lat="42.8767423" lon="11.7102461"><ele>617.8333333333334</ele><time>2026-03-29T12:18:50.071Z</time></trkpt><trkpt lat="42.87684" lon="11.7102233"><ele>616.6666666666667</ele><time>2026-03-29T12:18:51.071Z</time></trkpt><trkpt lat="42.8769233" lon="11.7101917"><ele>615.5</ele><time>2026-03-29T12:18:52.071Z</time></trkpt><trkpt lat="42.876995" lon="11.7101517"><ele>614.3333333333334</ele><time>2026-03-29T12:18:53.071Z</time></trkpt><trkpt lat="42.8770583" lon="11.71012"><ele>613.1666666666666</ele><time>2026-03-29T12:18:54.071Z</time></trkpt><trkpt lat="42.877165" lon="11.7100667"><ele>612.0</ele><time>2026-03-29T12:18:56.071Z</time></trkpt><trkpt lat="42.877285" lon="11.710005"><ele>612.0</ele><time>2026-03-29T12:18:58.071Z</time></trkpt><trkpt lat="42.8773483" lon="11.709965"><ele>612.0</ele><time>2026-03-29T12:18:59.07Z</time></trkpt><trkpt lat="42.8774183" lon="11.709915"><ele>612.0</ele><time>2026-03-29T12:19:00.07Z</time></trkpt><trkpt lat="42.8774883" lon="11.7098417"><ele>612.0</ele><time>2026-03-29T12:19:01.071Z</time></trkpt><trkpt lat="42.8775633" lon="11.7097567"><ele>612.0</ele><time>2026-03-29T12:19:02.071Z</time></trkpt><trkpt lat="42.8776483" lon="11.7096617"><ele>612.0</ele><time>2026-03-29T12:19:03.071Z</time></trkpt><trkpt lat="42.8777317" lon="11.70957"><ele>611.5</ele><time>2026-03-29T12:19:04.071Z</time></trkpt><trkpt lat="42.87782" lon="11.7094883"><ele>611.0</ele><time>2026-03-29T12:19:05.071Z</time></trkpt><trkpt lat="42.877905" lon="11.7094017"><ele>610.5</ele><time>2026-03-29T12:19:06.07Z</time></trkpt><trkpt lat="42.8780017" lon="11.7093083"><ele>610.0</ele><time>2026-03-29T12:19:07.07Z</time></trkpt><trkpt lat="42.8781067" lon="11.7092083"><ele>610.0</ele><time>2026-03-29T12:19:08.071Z</time></trkpt><trkpt lat="42.878215" lon="11.709115"><ele>610.0</ele><time>2026-03-29T12:19:09.071Z</time></trkpt><trkpt lat="42.8783233" lon="11.70903"><ele>610.0</ele><time>2026-03-29T12:19:10.071Z</time></trkpt><trkpt lat="42.8784283" lon="11.708945"><ele>610.0</ele><time>2026-03-29T12:19:11.071Z</time></trkpt><trkpt lat="42.8785183" lon="11.7088617"><ele>608.75</ele><time>2026-03-29T12:19:12.071Z</time></trkpt><trkpt lat="42.8786" lon="11.7087833"><ele>607.5</ele><time>2026-03-29T12:19:13.071Z</time></trkpt><trkpt lat="42.878685" lon="11.7086867"><ele>606.25</ele><time>2026-03-29T12:19:14.071Z</time></trkpt><trkpt lat="42.8787683" lon="11.70856"><ele>605.0</ele><time>2026-03-29T12:19:15.07Z</time></trkpt><trkpt lat="42.8788633" lon="11.7084033"><ele>605.0</ele><time>2026-03-29T12:19:16.071Z</time></trkpt><trkpt lat="42.8789567" lon="11.7082283"><ele>605.0</ele><time>2026-03-29T12:19:17.071Z</time></trkpt><trkpt lat="42.8790283" lon="11.7080633"><ele>605.0</ele><time>2026-03-29T12:19:18.07Z</time></trkpt><trkpt lat="42.87909" lon="11.7079233"><ele>605.0</ele><time>2026-03-29T12:19:19.071Z</time></trkpt><trkpt lat="42.8791433" lon="11.7078"><ele>605.0</ele><time>2026-03-29T12:19:20.071Z</time></trkpt><trkpt lat="42.8791833" lon="11.7076967"><ele>605.0</ele><time>2026-03-29T12:19:21.07Z</time></trkpt><trkpt lat="42.8792217" lon="11.7076233"><ele>605.0</ele><time>2026-03-29T12:19:22.071Z</time></trkpt><trkpt lat="42.8792583" lon="11.7075533"><ele>605.0</ele><time>2026-03-29T12:19:23.07Z</time></trkpt><trkpt lat="42.8793083" lon="11.707465"><ele>605.0</ele><time>2026-03-29T12:19:24.07Z</time></trkpt><trkpt lat="42.8793583" lon="11.7073501"><ele>605.0</ele><time>2026-03-29T12:19:25.071Z</time></trkpt><trkpt lat="42.8794124" lon="11.7072131"><ele>605.0</ele><time>2026-03-29T12:19:26.07Z</time></trkpt><trkpt lat="42.879467" lon="11.707054"><ele>605.0</ele><time>2026-03-29T12:19:27.071Z</time></trkpt><trkpt lat="42.8795441" lon="11.7068653"><ele>605.0</ele><time>2026-03-29T12:19:28.07Z</time></trkpt><trkpt lat="42.8796484" lon="11.7066181"><ele>607.5</ele><time>2026-03-29T12:19:29.071Z</time></trkpt><trkpt lat="42.87977" lon="11.7063341"><ele>610.0</ele><time>2026-03-29T12:19:30.07Z</time></trkpt><trkpt lat="42.8798949" lon="11.7060494"><ele>608.6666666666667</ele><time>2026-03-29T12:19:31.07Z</time></trkpt><trkpt lat="42.8799985" lon="11.7058026"><ele>607.3333333333334</ele><time>2026-03-29T12:19:32.071Z</time></trkpt><trkpt lat="42.8801001" lon="11.7055908"><ele>606.0</ele><time>2026-03-29T12:19:33.071Z</time></trkpt><trkpt lat="42.8801876" lon="11.7054015"><ele>608.25</ele><time>2026-03-29T12:19:34.071Z</time></trkpt><trkpt lat="42.8802676" lon="11.7052286"><ele>610.5</ele><time>2026-03-29T12:19:35.071Z</time></trkpt><trkpt lat="42.8803428" lon="11.7050609"><ele>612.75</ele><time>2026-03-29T12:19:36.071Z</time></trkpt><trkpt lat="42.8804149" lon="11.7048966"><ele>615.0</ele><time>2026-03-29T12:19:37.07Z</time></trkpt><trkpt lat="42.8804865" lon="11.704736"><ele>615.0</ele><time>2026-03-29T12:19:38.071Z</time></trkpt><trkpt lat="42.8805619" lon="11.7045767"><ele>615.0</ele><time>2026-03-29T12:19:39.071Z</time></trkpt><trkpt lat="42.8806394" lon="11.70441"><ele>615.0</ele><time>2026-03-29T12:19:40.071Z</time></trkpt><trkpt lat="42.8807201" lon="11.7042406"><ele>615.0</ele><time>2026-03-29T12:19:41.071Z</time></trkpt><trkpt lat="42.8807976" lon="11.7040748"><ele>614.75</ele><time>2026-03-29T12:19:42.071Z</time></trkpt><trkpt lat="42.8808704" lon="11.70391"><ele>614.5</ele><time>2026-03-29T12:19:43.071Z</time></trkpt><trkpt lat="42.8809314" lon="11.7037419"><ele>614.25</ele><time>2026-03-29T12:19:44.071Z</time></trkpt><trkpt lat="42.8809784" lon="11.7035653"><ele>614.0</ele><time>2026-03-29T12:19:45.071Z</time></trkpt><trkpt lat="42.8810135" lon="11.7033691"><ele>614.0</ele><time>2026-03-29T12:19:46.071Z</time></trkpt><trkpt lat="42.8810343" lon="11.7031491"><ele>614.0</ele><time>2026-03-29T12:19:47.07Z</time></trkpt><trkpt lat="42.8810537" lon="11.7029138"><ele>614.0</ele><time>2026-03-29T12:19:48.071Z</time></trkpt><trkpt lat="42.8810835" lon="11.7026719"><ele>614.0</ele><time>2026-03-29T12:19:49.071Z</time></trkpt><trkpt lat="42.8811125" lon="11.7024206"><ele>614.0</ele><time>2026-03-29T12:19:50.071Z</time></trkpt><trkpt lat="42.8811371" lon="11.7021686"><ele>614.0</ele><time>2026-03-29T12:19:51.071Z</time></trkpt><trkpt lat="42.8811548" lon="11.7019076"><ele>615.0</ele><time>2026-03-29T12:19:52.071Z</time></trkpt><trkpt lat="42.8811715" lon="11.7016411"><ele>616.0</ele><time>2026-03-29T12:19:53.07Z</time></trkpt><trkpt lat="42.8811781" lon="11.7013756"><ele>617.0</ele><time>2026-03-29T12:19:54.07Z</time></trkpt><trkpt lat="42.8811739" lon="11.7011169"><ele>616.0</ele><time>2026-03-29T12:19:55.071Z</time></trkpt><trkpt lat="42.8811702" lon="11.7008641"><ele>615.0</ele><time>2026-03-29T12:19:56.071Z</time></trkpt><trkpt lat="42.8811671" lon="11.7006366"><ele>614.0</ele><time>2026-03-29T12:19:57.071Z</time></trkpt><trkpt lat="42.8811733" lon="11.700435"><ele>612.0</ele><time>2026-03-29T12:19:58.071Z</time></trkpt><trkpt lat="42.8811717" lon="11.7002217"><ele>610.0</ele><time>2026-03-29T12:19:59.07Z</time></trkpt><trkpt lat="42.88116" lon="11.70001"><ele>608.0</ele><time>2026-03-29T12:20:00.071Z</time></trkpt><trkpt lat="42.8811367" lon="11.699815"><ele>608.0</ele><time>2026-03-29T12:20:01.071Z</time></trkpt><trkpt lat="42.8811117" lon="11.6996317"><ele>608.0</ele><time>2026-03-29T12:20:02.071Z</time></trkpt><trkpt lat="42.8810767" lon="11.6994633"><ele>608.0</ele><time>2026-03-29T12:20:03.071Z</time></trkpt><trkpt lat="42.88105" lon="11.6993083"><ele>608.0</ele><time>2026-03-29T12:20:04.07Z</time></trkpt><trkpt lat="42.8810183" lon="11.6991667"><ele>606.8333333333333</ele><time>2026-03-29T12:20:05.071Z</time></trkpt><trkpt lat="42.8809883" lon="11.6990333"><ele>605.6666666666666</ele><time>2026-03-29T12:20:06.07Z</time></trkpt><trkpt lat="42.880965" lon="11.6989267"><ele>604.5</ele><time>2026-03-29T12:20:07.071Z</time></trkpt><trkpt lat="42.8809517" lon="11.6988417"><ele>603.3333333333334</ele><time>2026-03-29T12:20:08.071Z</time></trkpt><trkpt lat="42.8809267" lon="11.6987383"><ele>602.1666666666667</ele><time>2026-03-29T12:20:29.071Z</time></trkpt><trkpt lat="42.8808917" lon="11.6986067"><ele>601.0</ele><time>2026-03-29T12:20:31.07Z</time></trkpt><trkpt lat="42.880875" lon="11.6985133"><ele>603.5</ele><time>2026-03-29T12:20:32.07Z</time></trkpt><trkpt lat="42.88085" lon="11.698415"><ele>606.0</ele><time>2026-03-29T12:20:33.071Z</time></trkpt><trkpt lat="42.8808267" lon="11.6983033"><ele>608.5</ele><time>2026-03-29T12:20:34.071Z</time></trkpt><trkpt lat="42.880805" lon="11.698185"><ele>611.0</ele><time>2026-03-29T12:20:35.071Z</time></trkpt><trkpt lat="42.8807833" lon="11.698065"><ele>613.5</ele><time>2026-03-29T12:20:36.071Z</time></trkpt><trkpt lat="42.8807533" lon="11.69795"><ele>616.0</ele><time>2026-03-29T12:20:37.071Z</time></trkpt><trkpt lat="42.8807133" lon="11.6978367"><ele>615.2</ele><time>2026-03-29T12:20:38.071Z</time></trkpt><trkpt lat="42.8806533" lon="11.69774"><ele>614.4000000000001</ele><time>2026-03-29T12:20:39.071Z</time></trkpt><trkpt lat="42.8805783" lon="11.697665"><ele>613.6</ele><time>2026-03-29T12:20:40.07Z</time></trkpt><trkpt lat="42.88049" lon="11.6976133"><ele>612.8000000000001</ele><time>2026-03-29T12:20:41.071Z</time></trkpt><trkpt lat="42.8803967" lon="11.6976217"><ele>612.0</ele><time>2026-03-29T12:20:42.07Z</time></trkpt><trkpt lat="42.8802767" lon="11.6976767"><ele>613.0</ele><time>2026-03-29T12:20:43.071Z</time></trkpt><trkpt lat="42.8801583" lon="11.6977617"><ele>614.0</ele><time>2026-03-29T12:20:44.071Z</time></trkpt><trkpt lat="42.8800367" lon="11.6978533"><ele>615.0</ele><time>2026-03-29T12:20:45.07Z</time></trkpt><trkpt lat="42.8799067" lon="11.6979283"><ele>616.0</ele><time>2026-03-29T12:20:46.071Z</time></trkpt><trkpt lat="42.8797667" lon="11.697975"><ele>616.6666666666667</ele><time>2026-03-29T12:20:47.071Z</time></trkpt><trkpt lat="42.879615" lon="11.6979833"><ele>617.3333333333334</ele><time>2026-03-29T12:20:48.071Z</time></trkpt><trkpt lat="42.8794583" lon="11.69798"><ele>618.0</ele><time>2026-03-29T12:20:49.071Z</time></trkpt><trkpt lat="42.879285" lon="11.6979583"><ele>619.6666666666666</ele><time>2026-03-29T12:20:50.07Z</time></trkpt><trkpt lat="42.87912" lon="11.69793"><ele>621.3333333333333</ele><time>2026-03-29T12:20:51.07Z</time></trkpt><trkpt lat="42.878975" lon="11.6978933"><ele>623.0</ele><time>2026-03-29T12:20:52.071Z</time></trkpt><trkpt lat="42.8788433" lon="11.6978433"><ele>623.0</ele><time>2026-03-29T12:20:53.071Z</time></trkpt><trkpt lat="42.8787417" lon="11.69778"><ele>623.0</ele><time>2026-03-29T12:20:54.07Z</time></trkpt><trkpt lat="42.8786733" lon="11.697695"><ele>623.0</ele><time>2026-03-29T12:20:55.07Z</time></trkpt><trkpt lat="42.8786483" lon="11.6975867"><ele>623.0</ele><time>2026-03-29T12:20:56.071Z</time></trkpt><trkpt lat="42.8786633" lon="11.697475"><ele>623.0</ele><time>2026-03-29T12:20:57.071Z</time></trkpt><trkpt lat="42.8786967" lon="11.6973567"><ele>626.5</ele><time>2026-03-29T12:20:58.07Z</time></trkpt><trkpt lat="42.878765" lon="11.69723"><ele>630.0</ele><time>2026-03-29T12:20:59.07Z</time></trkpt><trkpt lat="42.8788517" lon="11.6971017"><ele>633.5</ele><time>2026-03-29T12:21:00.07Z</time></trkpt><trkpt lat="42.8789333" lon="11.6969817"><ele>637.0</ele><time>2026-03-29T12:21:01.071Z</time></trkpt><trkpt lat="42.879" lon="11.6968733"><ele>638.8333333333334</ele><time>2026-03-29T12:21:02.071Z</time></trkpt><trkpt lat="42.8790483" lon="11.6967783"><ele>640.6666666666667</ele><time>2026-03-29T12:21:03.071Z</time></trkpt><trkpt lat="42.8790733" lon="11.6966833"><ele>642.5</ele><time>2026-03-29T12:21:04.071Z</time></trkpt><trkpt lat="42.8790617" lon="11.696595"><ele>644.3333333333334</ele><time>2026-03-29T12:21:05.071Z</time></trkpt><trkpt lat="42.879025" lon="11.6965183"><ele>646.1666666666666</ele><time>2026-03-29T12:21:06.071Z</time></trkpt><trkpt lat="42.878955" lon="11.6964533"><ele>648.0</ele><time>2026-03-29T12:21:07.071Z</time></trkpt><trkpt lat="42.8788433" lon="11.6964067"><ele>648.0</ele><time>2026-03-29T12:21:08.07Z</time></trkpt><trkpt lat="42.8787167" lon="11.6963567"><ele>648.0</ele><time>2026-03-29T12:21:09.07Z</time></trkpt><trkpt lat="42.878585" lon="11.6963133"><ele>648.0</ele><time>2026-03-29T12:21:10.071Z</time></trkpt><trkpt lat="42.87847" lon="11.6962717"><ele>648.0</ele><time>2026-03-29T12:21:11.07Z</time></trkpt><trkpt lat="42.8783867" lon="11.6961983"><ele>648.3333333333334</ele><time>2026-03-29T12:21:12.071Z</time></trkpt><trkpt lat="42.87833" lon="11.69611"><ele>648.6666666666666</ele><time>2026-03-29T12:21:13.07Z</time></trkpt><trkpt lat="42.8783267" lon="11.6960167"><ele>649.0</ele><time>2026-03-29T12:21:14.071Z</time></trkpt><trkpt lat="42.87836" lon="11.6959267"><ele>649.3333333333333</ele><time>2026-03-29T12:21:15.071Z</time></trkpt><trkpt lat="42.8784217" lon="11.6958717"><ele>649.6666666666666</ele><time>2026-03-29T12:21:16.07Z</time></trkpt><trkpt lat="42.87849" lon="11.6958217"><ele>650.0</ele><time>2026-03-29T12:21:17.071Z</time></trkpt><trkpt lat="42.87856" lon="11.69576"><ele>650.1666666666666</ele><time>2026-03-29T12:21:18.07Z</time></trkpt><trkpt lat="42.878615" lon="11.6956783"><ele>650.3333333333333</ele><time>2026-03-29T12:21:19.071Z</time></trkpt><trkpt lat="42.87865" lon="11.6955767"><ele>650.5</ele><time>2026-03-29T12:21:20.071Z</time></trkpt><trkpt lat="42.8786467" lon="11.695465"><ele>650.6666666666666</ele><time>2026-03-29T12:21:21.071Z</time></trkpt><trkpt lat="42.8786" lon="11.69534"><ele>650.8333333333334</ele><time>2026-03-29T12:21:22.07Z</time></trkpt><trkpt lat="42.878535" lon="11.6952417"><ele>651.0</ele><time>2026-03-29T12:21:23.071Z</time></trkpt><trkpt lat="42.8784533" lon="11.695175"><ele>655.5</ele><time>2026-03-29T12:21:24.07Z</time></trkpt><trkpt lat="42.8783517" lon="11.6951417"><ele>660.0</ele><time>2026-03-29T12:21:25.07Z</time></trkpt><trkpt lat="42.87822" lon="11.6951467"><ele>664.5</ele><time>2026-03-29T12:21:26.071Z</time></trkpt><trkpt lat="42.8780583" lon="11.6951783"><ele>669.0</ele><time>2026-03-29T12:21:27.07Z</time></trkpt><trkpt lat="42.8778983" lon="11.6951983"><ele>669.0</ele><time>2026-03-29T12:21:28.071Z</time></trkpt><trkpt lat="42.8777683" lon="11.6952067"><ele>669.0</ele><time>2026-03-29T12:21:29.071Z</time></trkpt><trkpt lat="42.8776817" lon="11.6951817"><ele>669.0</ele><time>2026-03-29T12:21:30.07Z</time></trkpt><trkpt lat="42.8776233" lon="11.69512"><ele>669.0</ele><time>2026-03-29T12:21:31.071Z</time></trkpt><trkpt lat="42.8776367" lon="11.695035"><ele>669.0</ele><time>2026-03-29T12:21:32.071Z</time></trkpt><trkpt lat="42.8776767" lon="11.69495"><ele>669.0</ele><time>2026-03-29T12:21:33.071Z</time></trkpt><trkpt lat="42.8777283" lon="11.694855"><ele>669.0</ele><time>2026-03-29T12:21:34.071Z</time></trkpt><trkpt lat="42.87778" lon="11.6947417"><ele>669.0</ele><time>2026-03-29T12:21:35.071Z</time></trkpt><trkpt lat="42.877815" lon="11.6946217"><ele>669.0</ele><time>2026-03-29T12:21:36.071Z</time></trkpt><trkpt lat="42.8778083" lon="11.6945117"><ele>669.0</ele><time>2026-03-29T12:21:37.071Z</time></trkpt><trkpt lat="42.8777717" lon="11.69442"><ele>669.0</ele><time>2026-03-29T12:21:38.07Z</time></trkpt><trkpt lat="42.8777083" lon="11.6943433"><ele>669.0</ele><time>2026-03-29T12:21:39.071Z</time></trkpt><trkpt lat="42.877625" lon="11.6942633"><ele>674.0</ele><time>2026-03-29T12:21:40.071Z</time></trkpt><trkpt lat="42.8775533" lon="11.6941533"><ele>679.0</ele><time>2026-03-29T12:21:41.071Z</time></trkpt><trkpt lat="42.8775033" lon="11.6940017"><ele>684.0</ele><time>2026-03-29T12:21:42.071Z</time></trkpt><trkpt lat="42.8774583" lon="11.69382"><ele>689.0</ele><time>2026-03-29T12:21:43.071Z</time></trkpt><trkpt lat="42.8773967" lon="11.6936433"><ele>690.75</ele><time>2026-03-29T12:21:44.071Z</time></trkpt><trkpt lat="42.877335" lon="11.6934683"><ele>692.5</ele><time>2026-03-29T12:21:45.071Z</time></trkpt><trkpt lat="42.8772783" lon="11.6932783"><ele>694.25</ele><time>2026-03-29T12:21:46.071Z</time></trkpt><trkpt lat="42.8772033" lon="11.693095"><ele>696.0</ele><time>2026-03-29T12:21:47.07Z</time></trkpt><trkpt lat="42.8771167" lon="11.6929283"><ele>696.0</ele><time>2026-03-29T12:21:48.071Z</time></trkpt><trkpt lat="42.87703" lon="11.6927933"><ele>696.0</ele><time>2026-03-29T12:21:49.071Z</time></trkpt><trkpt lat="42.8769483" lon="11.69268"><ele>696.0</ele><time>2026-03-29T12:21:50.071Z</time></trkpt><trkpt lat="42.8768933" lon="11.6925533"><ele>696.0</ele><time>2026-03-29T12:21:51.071Z</time></trkpt><trkpt lat="42.8768783" lon="11.6924117"><ele>697.6666666666666</ele><time>2026-03-29T12:21:52.071Z</time></trkpt><trkpt lat="42.8768717" lon="11.69228"><ele>699.3333333333334</ele><time>2026-03-29T12:21:53.071Z</time></trkpt><trkpt lat="42.87685" lon="11.6921767"><ele>701.0</ele><time>2026-03-29T12:21:54.071Z</time></trkpt><trkpt lat="42.8767983" lon="11.6921167"><ele>702.6666666666667</ele><time>2026-03-29T12:21:55.071Z</time></trkpt><trkpt lat="42.8767233" lon="11.6921267"><ele>704.3333333333334</ele><time>2026-03-29T12:21:56.071Z</time></trkpt><trkpt lat="42.8766283" lon="11.69218"><ele>706.0</ele><time>2026-03-29T12:21:57.07Z</time></trkpt><trkpt lat="42.8765183" lon="11.6922667"><ele>707.5999999999999</ele><time>2026-03-29T12:21:58.071Z</time></trkpt><trkpt lat="42.8764083" lon="11.692345"><ele>709.2</ele><time>2026-03-29T12:21:59.07Z</time></trkpt><trkpt lat="42.8763067" lon="11.6923817"><ele>710.8</ele><time>2026-03-29T12:22:00.071Z</time></trkpt><trkpt lat="42.8762317" lon="11.6923533"><ele>712.4000000000001</ele><time>2026-03-29T12:22:01.071Z</time></trkpt><trkpt lat="42.8761767" lon="11.6923"><ele>714.0</ele><time>2026-03-29T12:22:02.07Z</time></trkpt><trkpt lat="42.8761533" lon="11.69213"><ele>714.0</ele><time>2026-03-29T12:22:04.071Z</time></trkpt><trkpt lat="42.87618" lon="11.69202"><ele>714.0</ele><time>2026-03-29T12:22:05.071Z</time></trkpt><trkpt lat="42.8762167" lon="11.6918817"><ele>714.0</ele><time>2026-03-29T12:22:06.07Z</time></trkpt><trkpt lat="42.8762317" lon="11.6917217"><ele>714.0</ele><time>2026-03-29T12:22:07.07Z</time></trkpt><trkpt lat="42.8762217" lon="11.6915467"><ele>714.0</ele><time>2026-03-29T12:22:08.071Z</time></trkpt><trkpt lat="42.87621" lon="11.6913767"><ele>717.25</ele><time>2026-03-29T12:22:09.07Z</time></trkpt><trkpt lat="42.8761833" lon="11.6912"><ele>720.5</ele><time>2026-03-29T12:22:10.071Z</time></trkpt><trkpt lat="42.8761583" lon="11.6910283"><ele>723.75</ele><time>2026-03-29T12:22:11.071Z</time></trkpt><trkpt lat="42.8761317" lon="11.6908617"><ele>727.0</ele><time>2026-03-29T12:22:12.071Z</time></trkpt><trkpt lat="42.87611" lon="11.6907017"><ele>728.2</ele><time>2026-03-29T12:22:13.07Z</time></trkpt><trkpt lat="42.8760933" lon="11.690545"><ele>729.4000000000001</ele><time>2026-03-29T12:22:14.071Z</time></trkpt><trkpt lat="42.87609" lon="11.690395"><ele>730.5999999999999</ele><time>2026-03-29T12:22:15.071Z</time></trkpt><trkpt lat="42.8761117" lon="11.6902517"><ele>731.8</ele><time>2026-03-29T12:22:16.071Z</time></trkpt><trkpt lat="42.87615" lon="11.690115"><ele>733.0</ele><time>2026-03-29T12:22:17.071Z</time></trkpt><trkpt lat="42.876195" lon="11.6899767"><ele>734.25</ele><time>2026-03-29T12:22:18.071Z</time></trkpt><trkpt lat="42.876235" lon="11.6898283"><ele>735.5</ele><time>2026-03-29T12:22:19.071Z</time></trkpt><trkpt lat="42.8762733" lon="11.6896833"><ele>736.75</ele><time>2026-03-29T12:22:20.071Z</time></trkpt><trkpt lat="42.8763167" lon="11.6895217"><ele>738.0</ele><time>2026-03-29T12:22:21.071Z</time></trkpt><trkpt lat="42.8763683" lon="11.68936"><ele>740.75</ele><time>2026-03-29T12:22:22.071Z</time></trkpt><trkpt lat="42.8764233" lon="11.6892117"><ele>743.5</ele><time>2026-03-29T12:22:23.071Z</time></trkpt><trkpt lat="42.8764667" lon="11.6890667"><ele>746.25</ele><time>2026-03-29T12:22:24.071Z</time></trkpt><trkpt lat="42.8765033" lon="11.6889133"><ele>749.0</ele><time>2026-03-29T12:22:25.07Z</time></trkpt><trkpt lat="42.876525" lon="11.6887417"><ele>751.0</ele><time>2026-03-29T12:22:26.07Z</time></trkpt><trkpt lat="42.876545" lon="11.688555"><ele>753.0</ele><time>2026-03-29T12:22:27.071Z</time></trkpt><trkpt lat="42.8765633" lon="11.688365"><ele>755.0</ele><time>2026-03-29T12:22:28.07Z</time></trkpt><trkpt lat="42.8765767" lon="11.6881767"><ele>757.0</ele><time>2026-03-29T12:22:29.071Z</time></trkpt><trkpt lat="42.8765983" lon="11.688"><ele>757.0</ele><time>2026-03-29T12:22:30.07Z</time></trkpt><trkpt lat="42.87663" lon="11.6878383"><ele>757.0</ele><time>2026-03-29T12:22:31.071Z</time></trkpt><trkpt lat="42.87669" lon="11.6876917"><ele>757.0</ele><time>2026-03-29T12:22:32.071Z</time></trkpt><trkpt lat="42.8767467" lon="11.6875533"><ele>757.0</ele><time>2026-03-29T12:22:33.071Z</time></trkpt><trkpt lat="42.8767933" lon="11.6874383"><ele>758.4000000000001</ele><time>2026-03-29T12:22:34.071Z</time></trkpt><trkpt lat="42.8768133" lon="11.6873367"><ele>759.8000000000001</ele><time>2026-03-29T12:22:35.071Z</time></trkpt><trkpt lat="42.876815" lon="11.687225"><ele>761.2</ele><time>2026-03-29T12:22:36.071Z</time></trkpt><trkpt lat="42.87678" lon="11.68712"><ele>762.6</ele><time>2026-03-29T12:22:37.071Z</time></trkpt><trkpt lat="42.8767333" lon="11.687"><ele>764.0</ele><time>2026-03-29T12:22:38.071Z</time></trkpt><trkpt lat="42.8766667" lon="11.6868833"><ele>766.5</ele><time>2026-03-29T12:22:39.071Z</time></trkpt><trkpt lat="42.8765833" lon="11.6867683"><ele>769.0</ele><time>2026-03-29T12:22:40.071Z</time></trkpt><trkpt lat="42.876515" lon="11.68663"><ele>771.5</ele><time>2026-03-29T12:22:41.071Z</time></trkpt><trkpt lat="42.8764467" lon="11.6864767"><ele>774.0</ele><time>2026-03-29T12:22:42.071Z</time></trkpt><trkpt lat="42.8763733" lon="11.6863267"><ele>774.0</ele><time>2026-03-29T12:22:43.071Z</time></trkpt><trkpt lat="42.8763067" lon="11.686205"><ele>774.0</ele><time>2026-03-29T12:22:44.071Z</time></trkpt><trkpt lat="42.8762517" lon="11.686085"><ele>774.0</ele><time>2026-03-29T12:22:45.071Z</time></trkpt><trkpt lat="42.8762283" lon="11.685965"><ele>774.0</ele><time>2026-03-29T12:22:46.07Z</time></trkpt><trkpt lat="42.8762217" lon="11.6858183"><ele>774.0</ele><time>2026-03-29T12:22:47.071Z</time></trkpt><trkpt lat="42.87622" lon="11.6856567"><ele>776.25</ele><time>2026-03-29T12:22:48.07Z</time></trkpt><trkpt lat="42.8762233" lon="11.6854917"><ele>778.5</ele><time>2026-03-29T12:22:49.071Z</time></trkpt><trkpt lat="42.8762183" lon="11.6853217"><ele>780.75</ele><time>2026-03-29T12:22:50.071Z</time></trkpt><trkpt lat="42.8762167" lon="11.685155"><ele>783.0</ele><time>2026-03-29T12:22:51.071Z</time></trkpt><trkpt lat="42.8762183" lon="11.6849983"><ele>783.5999999999999</ele><time>2026-03-29T12:22:52.071Z</time></trkpt><trkpt lat="42.87621" lon="11.6848467"><ele>784.1999999999999</ele><time>2026-03-29T12:22:53.071Z</time></trkpt><trkpt lat="42.8762" lon="11.6846967"><ele>784.8</ele><time>2026-03-29T12:22:54.071Z</time></trkpt><trkpt lat="42.8762067" lon="11.68455"><ele>785.4</ele><time>2026-03-29T12:22:55.071Z</time></trkpt><trkpt lat="42.8762167" lon="11.68441"><ele>786.0</ele><time>2026-03-29T12:22:56.07Z</time></trkpt><trkpt lat="42.8762467" lon="11.6842817"><ele>786.1666666666666</ele><time>2026-03-29T12:22:57.07Z</time></trkpt><trkpt lat="42.8762983" lon="11.6841783"><ele>786.3333333333333</ele><time>2026-03-29T12:22:58.071Z</time></trkpt><trkpt lat="42.8763517" lon="11.6840883"><ele>786.5</ele><time>2026-03-29T12:22:59.071Z</time></trkpt><trkpt lat="42.876405" lon="11.6839933"><ele>786.6666666666666</ele><time>2026-03-29T12:23:00.07Z</time></trkpt><trkpt lat="42.8764533" lon="11.68391"><ele>786.8333333333333</ele><time>2026-03-29T12:23:01.071Z</time></trkpt><trkpt lat="42.8764867" lon="11.6838283"><ele>787.0</ele><time>2026-03-29T12:23:02.07Z</time></trkpt><trkpt lat="42.87652" lon="11.6837417"><ele>787.0</ele><time>2026-03-29T12:23:03.071Z</time></trkpt><trkpt lat="42.8765583" lon="11.683665"><ele>787.0</ele><time>2026-03-29T12:23:04.071Z</time></trkpt><trkpt lat="42.8766" lon="11.6835867"><ele>787.0</ele><time>2026-03-29T12:23:05.071Z</time></trkpt><trkpt lat="42.8766417" lon="11.6835083"><ele>787.0</ele><time>2026-03-29T12:23:06.071Z</time></trkpt><trkpt lat="42.8766817" lon="11.683435"><ele>787.0</ele><time>2026-03-29T12:23:07.071Z</time></trkpt><trkpt lat="42.87671" lon="11.6833367"><ele>787.0</ele><time>2026-03-29T12:23:08.07Z</time></trkpt><trkpt lat="42.8767483" lon="11.6832367"><ele>787.0</ele><time>2026-03-29T12:23:09.071Z</time></trkpt><trkpt lat="42.876795" lon="11.68314"><ele>787.1428571428571</ele><time>2026-03-29T12:23:10.07Z</time></trkpt><trkpt lat="42.87683" lon="11.6830467"><ele>787.2857142857142</ele><time>2026-03-29T12:23:11.071Z</time></trkpt><trkpt lat="42.87686" lon="11.6829567"><ele>787.4285714285714</ele><time>2026-03-29T12:23:12.071Z</time></trkpt><trkpt lat="42.8768933" lon="11.6828733"><ele>787.5714285714286</ele><time>2026-03-29T12:23:13.071Z</time></trkpt><trkpt lat="42.8769217" lon="11.6827867"><ele>787.7142857142858</ele><time>2026-03-29T12:23:14.071Z</time></trkpt><trkpt lat="42.8769517" lon="11.682705"><ele>787.8571428571429</ele><time>2026-03-29T12:23:15.071Z</time></trkpt><trkpt lat="42.8769817" lon="11.682625"><ele>788.0</ele><time>2026-03-29T12:23:16.071Z</time></trkpt><trkpt lat="42.877015" lon="11.682545"><ele>788.0000000000001</ele><time>2026-03-29T12:23:17.071Z</time></trkpt><trkpt lat="42.8770467" lon="11.6824683"><ele>788.0</ele><time>2026-03-29T12:23:18.07Z</time></trkpt><trkpt lat="42.877075" lon="11.68239"><ele>788.0</ele><time>2026-03-29T12:23:19.07Z</time></trkpt><trkpt lat="42.8771067" lon="11.682315"><ele>788.0</ele><time>2026-03-29T12:23:20.07Z</time></trkpt><trkpt lat="42.87716" lon="11.6821817"><ele>788.0000000000001</ele><time>2026-03-29T12:23:22.071Z</time></trkpt><trkpt lat="42.8771917" lon="11.682085"><ele>788.0</ele><time>2026-03-29T12:23:24.071Z</time></trkpt><trkpt lat="42.877205" lon="11.681985"><ele>789.5000000000001</ele><time>2026-03-29T12:23:26.07Z</time></trkpt><trkpt lat="42.8772333" lon="11.681835"><ele>791.0</ele><time>2026-03-29T12:23:28.07Z</time></trkpt><trkpt lat="42.87725" lon="11.6817517"><ele>792.5</ele><time>2026-03-29T12:23:29.071Z</time></trkpt><trkpt lat="42.8772667" lon="11.6816633"><ele>794.0</ele><time>2026-03-29T12:23:30.071Z</time></trkpt><trkpt lat="42.8772783" lon="11.68157"><ele>795.5000000000001</ele><time>2026-03-29T12:23:31.071Z</time></trkpt><trkpt lat="42.877295" lon="11.6814783"><ele>797.0</ele><time>2026-03-29T12:23:32.071Z</time></trkpt><trkpt lat="42.8773217" lon="11.6813833"><ele>797.0000000000001</ele><time>2026-03-29T12:23:33.071Z</time></trkpt><trkpt lat="42.8773583" lon="11.6812883"><ele>797.0</ele><time>2026-03-29T12:23:34.071Z</time></trkpt><trkpt lat="42.8773833" lon="11.6811883"><ele>797.0</ele><time>2026-03-29T12:23:35.071Z</time></trkpt><trkpt lat="42.877415" lon="11.6810767"><ele>797.0</ele><time>2026-03-29T12:23:36.07Z</time></trkpt><trkpt lat="42.8774467" lon="11.6809733"><ele>797.0000000000001</ele><time>2026-03-29T12:23:37.071Z</time></trkpt><trkpt lat="42.8774733" lon="11.6808733"><ele>797.0</ele><time>2026-03-29T12:23:38.07Z</time></trkpt><trkpt lat="42.8774967" lon="11.6807783"><ele>798.0</ele><time>2026-03-29T12:23:39.071Z</time></trkpt><trkpt lat="42.87751" lon="11.6806883"><ele>799.0</ele><time>2026-03-29T12:23:40.071Z</time></trkpt><trkpt lat="42.8775117" lon="11.6805883"><ele>800.0</ele><time>2026-03-29T12:23:41.071Z</time></trkpt><trkpt lat="42.877505" lon="11.680485"><ele>801.0</ele><time>2026-03-29T12:23:42.071Z</time></trkpt><trkpt lat="42.8774867" lon="11.6803867"><ele>802.0</ele><time>2026-03-29T12:23:43.07Z</time></trkpt><trkpt lat="42.8774633" lon="11.68029"><ele>803.0</ele><time>2026-03-29T12:23:44.071Z</time></trkpt><trkpt lat="42.8774317" lon="11.6802033"><ele>804.0</ele><time>2026-03-29T12:23:45.071Z</time></trkpt><trkpt lat="42.8773867" lon="11.6800433"><ele>804.5</ele><time>2026-03-29T12:23:47.07Z</time></trkpt><trkpt lat="42.8773633" lon="11.6799533"><ele>805.0</ele><time>2026-03-29T12:23:48.071Z</time></trkpt><trkpt lat="42.8773433" lon="11.6798533"><ele>805.5</ele><time>2026-03-29T12:23:49.07Z</time></trkpt><trkpt lat="42.8773267" lon="11.679745"><ele>806.0</ele><time>2026-03-29T12:23:50.07Z</time></trkpt><trkpt lat="42.8773267" lon="11.679635"><ele>806.5</ele><time>2026-03-29T12:23:51.071Z</time></trkpt><trkpt lat="42.8773167" lon="11.6795283"><ele>807.0</ele><time>2026-03-29T12:23:52.071Z</time></trkpt><trkpt lat="42.8773283" lon="11.6794217"><ele>807.8</ele><time>2026-03-29T12:23:53.071Z</time></trkpt><trkpt lat="42.8773433" lon="11.6793267"><ele>808.6</ele><time>2026-03-29T12:23:54.07Z</time></trkpt><trkpt lat="42.8773783" lon="11.6791833"><ele>809.4</ele><time>2026-03-29T12:23:56.071Z</time></trkpt><trkpt lat="42.87745" lon="11.679085"><ele>810.1999999999999</ele><time>2026-03-29T12:23:58.071Z</time></trkpt><trkpt lat="42.8775317" lon="11.6790067"><ele>811.0</ele><time>2026-03-29T12:24:00.07Z</time></trkpt><trkpt lat="42.8776367" lon="11.6789633"><ele>811.0</ele><time>2026-03-29T12:24:02.071Z</time></trkpt><trkpt lat="42.877745" lon="11.6788967"><ele>811.0</ele><time>2026-03-29T12:24:04.071Z</time></trkpt><trkpt lat="42.8778567" lon="11.6788433"><ele>811.0</ele><time>2026-03-29T12:24:06.07Z</time></trkpt><trkpt lat="42.8779583" lon="11.6787667"><ele>811.0</ele><time>2026-03-29T12:24:08.071Z</time></trkpt><trkpt lat="42.87802" lon="11.6786617"><ele>811.0</ele><time>2026-03-29T12:24:10.07Z</time></trkpt><trkpt lat="42.8779983" lon="11.6785333"><ele>811.0</ele><time>2026-03-29T12:24:13.071Z</time></trkpt><trkpt lat="42.877975" lon="11.67841"><ele>811.0</ele><time>2026-03-29T12:24:15.071Z</time></trkpt><trkpt lat="42.8779567" lon="11.6782383"><ele>811.0</ele><time>2026-03-29T12:24:17.071Z</time></trkpt><trkpt lat="42.8779433" lon="11.6781417"><ele>811.0</ele><time>2026-03-29T12:24:18.07Z</time></trkpt><trkpt lat="42.8779483" lon="11.6780383"><ele>810.9999999999999</ele><time>2026-03-29T12:24:19.071Z</time></trkpt><trkpt lat="42.8779567" lon="11.6779283"><ele>811.0</ele><time>2026-03-29T12:24:20.071Z</time></trkpt><trkpt lat="42.87798" lon="11.6778183"><ele>811.0</ele><time>2026-03-29T12:24:21.071Z</time></trkpt><trkpt lat="42.8780033" lon="11.6777067"><ele>811.0</ele><time>2026-03-29T12:24:22.071Z</time></trkpt><trkpt lat="42.8780417" lon="11.6775833"><ele>810.9999999999999</ele><time>2026-03-29T12:24:23.071Z</time></trkpt><trkpt lat="42.8780917" lon="11.677465"><ele>811.0</ele><time>2026-03-29T12:24:24.071Z</time></trkpt><trkpt lat="42.8781567" lon="11.6773667"><ele>811.8</ele><time>2026-03-29T12:24:25.07Z</time></trkpt><trkpt lat="42.8782333" lon="11.67728"><ele>812.5999999999999</ele><time>2026-03-29T12:24:26.071Z</time></trkpt><trkpt lat="42.8783033" lon="11.6771917"><ele>813.4</ele><time>2026-03-29T12:24:27.071Z</time></trkpt><trkpt lat="42.878375" lon="11.6770983"><ele>814.2</ele><time>2026-03-29T12:24:28.071Z</time></trkpt><trkpt lat="42.8784483" lon="11.6770067"><ele>815.0</ele><time>2026-03-29T12:24:29.071Z</time></trkpt><trkpt lat="42.8785133" lon="11.67691"><ele>815.2</ele><time>2026-03-29T12:24:30.071Z</time></trkpt><trkpt lat="42.878585" lon="11.67682"><ele>815.4</ele><time>2026-03-29T12:24:31.071Z</time></trkpt><trkpt lat="42.8786567" lon="11.6767217"><ele>815.5999999999999</ele><time>2026-03-29T12:24:32.071Z</time></trkpt><trkpt lat="42.8787233" lon="11.6766183"><ele>815.8</ele><time>2026-03-29T12:24:33.07Z</time></trkpt><trkpt lat="42.87879" lon="11.676535"><ele>816.0</ele><time>2026-03-29T12:24:34.071Z</time></trkpt><trkpt lat="42.878855" lon="11.6764567"><ele>816.0</ele><time>2026-03-29T12:24:35.071Z</time></trkpt><trkpt lat="42.8789133" lon="11.6763833"><ele>816.0</ele><time>2026-03-29T12:24:36.071Z</time></trkpt><trkpt lat="42.8789683" lon="11.676315"><ele>816.0</ele><time>2026-03-29T12:24:37.071Z</time></trkpt><trkpt lat="42.8790217" lon="11.6762433"><ele>816.0</ele><time>2026-03-29T12:24:38.071Z</time></trkpt><trkpt lat="42.8790667" lon="11.6761667"><ele>816.0</ele><time>2026-03-29T12:24:39.071Z</time></trkpt><trkpt lat="42.87911" lon="11.6760883"><ele>816.0</ele><time>2026-03-29T12:24:40.071Z</time></trkpt><trkpt lat="42.8791567" lon="11.6760183"><ele>816.0</ele><time>2026-03-29T12:24:41.071Z</time></trkpt><trkpt lat="42.8791967" lon="11.6759367"><ele>816.5</ele><time>2026-03-29T12:24:42.071Z</time></trkpt><trkpt lat="42.8792433" lon="11.67586"><ele>817.0</ele><time>2026-03-29T12:24:43.071Z</time></trkpt><trkpt lat="42.8792933" lon="11.6757717"><ele>817.5</ele><time>2026-03-29T12:24:44.07Z</time></trkpt><trkpt lat="42.8793433" lon="11.6756883"><ele>818.0</ele><time>2026-03-29T12:24:45.071Z</time></trkpt><trkpt lat="42.8794017" lon="11.675615"><ele>818.5</ele><time>2026-03-29T12:24:46.071Z</time></trkpt><trkpt lat="42.8794583" lon="11.67554"><ele>819.0</ele><time>2026-03-29T12:24:47.071Z</time></trkpt><trkpt lat="42.8795167" lon="11.6754633"><ele>819.3333333333334</ele><time>2026-03-29T12:24:48.071Z</time></trkpt><trkpt lat="42.8795767" lon="11.675375"><ele>819.6666666666667</ele><time>2026-03-29T12:24:49.07Z</time></trkpt><trkpt lat="42.879635" lon="11.675295"><ele>820.0</ele><time>2026-03-29T12:24:50.07Z</time></trkpt><trkpt lat="42.8796933" lon="11.6752083"><ele>820.3333333333334</ele><time>2026-03-29T12:24:51.07Z</time></trkpt><trkpt lat="42.8797567" lon="11.675125"><ele>820.6666666666667</ele><time>2026-03-29T12:24:52.071Z</time></trkpt><trkpt lat="42.8798333" lon="11.6750417"><ele>821.0</ele><time>2026-03-29T12:24:53.07Z</time></trkpt><trkpt lat="42.8798983" lon="11.6749483"><ele>821.4</ele><time>2026-03-29T12:24:54.07Z</time></trkpt><trkpt lat="42.8799633" lon="11.674855"><ele>821.8</ele><time>2026-03-29T12:24:55.07Z</time></trkpt><trkpt lat="42.8800383" lon="11.67477"><ele>822.1999999999999</ele><time>2026-03-29T12:24:56.071Z</time></trkpt><trkpt lat="42.8801083" lon="11.6746833"><ele>822.5999999999999</ele><time>2026-03-29T12:24:57.071Z</time></trkpt><trkpt lat="42.88018" lon="11.6746033"><ele>823.0</ele><time>2026-03-29T12:24:58.071Z</time></trkpt><trkpt lat="42.8802583" lon="11.6745317"><ele>823.5999999999999</ele><time>2026-03-29T12:24:59.071Z</time></trkpt><trkpt lat="42.8803383" lon="11.6744667"><ele>824.1999999999999</ele><time>2026-03-29T12:25:00.071Z</time></trkpt><trkpt lat="42.880425" lon="11.6744183"><ele>824.8</ele><time>2026-03-29T12:25:01.07Z</time></trkpt><trkpt lat="42.880515" lon="11.6743817"><ele>825.4</ele><time>2026-03-29T12:25:02.071Z</time></trkpt><trkpt lat="42.8806067" lon="11.6743367"><ele>826.0</ele><time>2026-03-29T12:25:03.071Z</time></trkpt><trkpt lat="42.8807067" lon="11.6743017"><ele>826.3333333333333</ele><time>2026-03-29T12:25:04.071Z</time></trkpt><trkpt lat="42.8807967" lon="11.6742733"><ele>826.6666666666666</ele><time>2026-03-29T12:25:05.07Z</time></trkpt><trkpt lat="42.8808733" lon="11.6742517"><ele>827.0</ele><time>2026-03-29T12:25:06.071Z</time></trkpt><trkpt lat="42.880945" lon="11.6742283"><ele>827.3333333333333</ele><time>2026-03-29T12:25:07.07Z</time></trkpt><trkpt lat="42.881025" lon="11.6742017"><ele>827.6666666666666</ele><time>2026-03-29T12:25:08.071Z</time></trkpt><trkpt lat="42.881105" lon="11.6741783"><ele>828.0</ele><time>2026-03-29T12:25:09.071Z</time></trkpt><trkpt lat="42.8811833" lon="11.6741567"><ele>828.5</ele><time>2026-03-29T12:25:10.071Z</time></trkpt><trkpt lat="42.8812633" lon="11.6741233"><ele>829.0</ele><time>2026-03-29T12:25:11.071Z</time></trkpt><trkpt lat="42.8813433" lon="11.6740933"><ele>829.5</ele><time>2026-03-29T12:25:12.071Z</time></trkpt><trkpt lat="42.8814267" lon="11.6740667"><ele>830.0</ele><time>2026-03-29T12:25:13.071Z</time></trkpt><trkpt lat="42.881505" lon="11.6740333"><ele>830.5</ele><time>2026-03-29T12:25:14.071Z</time></trkpt><trkpt lat="42.88158" lon="11.67398"><ele>831.0</ele><time>2026-03-29T12:25:15.07Z</time></trkpt><trkpt lat="42.8816517" lon="11.67392"><ele>831.0</ele><time>2026-03-29T12:25:16.071Z</time></trkpt><trkpt lat="42.8817267" lon="11.6738433"><ele>831.0</ele><time>2026-03-29T12:25:17.071Z</time></trkpt><trkpt lat="42.881805" lon="11.6737483"><ele>831.0</ele><time>2026-03-29T12:25:18.07Z</time></trkpt><trkpt lat="42.881875" lon="11.6736617"><ele>831.0</ele><time>2026-03-29T12:25:19.071Z</time></trkpt><trkpt lat="42.8819483" lon="11.6735783"><ele>831.0</ele><time>2026-03-29T12:25:20.071Z</time></trkpt><trkpt lat="42.8820167" lon="11.673495"><ele>831.4</ele><time>2026-03-29T12:25:21.071Z</time></trkpt><trkpt lat="42.882085" lon="11.6734117"><ele>831.8</ele><time>2026-03-29T12:25:22.071Z</time></trkpt><trkpt lat="42.882155" lon="11.67333"><ele>832.1999999999999</ele><time>2026-03-29T12:25:23.071Z</time></trkpt><trkpt lat="42.8822267" lon="11.6732383"><ele>832.5999999999999</ele><time>2026-03-29T12:25:24.071Z</time></trkpt><trkpt lat="42.8822983" lon="11.6731517"><ele>833.0</ele><time>2026-03-29T12:25:25.071Z</time></trkpt><trkpt lat="42.8823617" lon="11.67305"><ele>833.0</ele><time>2026-03-29T12:25:26.07Z</time></trkpt><trkpt lat="42.8824283" lon="11.6729533"><ele>833.0</ele><time>2026-03-29T12:25:27.071Z</time></trkpt><trkpt lat="42.8824967" lon="11.6728517"><ele>833.0</ele><time>2026-03-29T12:25:28.071Z</time></trkpt><trkpt lat="42.882565" lon="11.6727567"><ele>833.0</ele><time>2026-03-29T12:25:29.071Z</time></trkpt><trkpt lat="42.8826417" lon="11.6726717"><ele>833.0</ele><time>2026-03-29T12:25:30.071Z</time></trkpt><trkpt lat="42.88271" lon="11.6725867"><ele>834.4</ele><time>2026-03-29T12:25:31.071Z</time></trkpt><trkpt lat="42.8827733" lon="11.6724917"><ele>835.8</ele><time>2026-03-29T12:25:32.071Z</time></trkpt><trkpt lat="42.8828467" lon="11.6723917"><ele>837.2</ele><time>2026-03-29T12:25:33.071Z</time></trkpt><trkpt lat="42.8829233" lon="11.6723033"><ele>838.6</ele><time>2026-03-29T12:25:34.071Z</time></trkpt><trkpt lat="42.8829983" lon="11.6722233"><ele>840.0</ele><time>2026-03-29T12:25:35.071Z</time></trkpt><trkpt lat="42.883075" lon="11.67214"><ele>840.0</ele><time>2026-03-29T12:25:36.071Z</time></trkpt><trkpt lat="42.8831483" lon="11.67204"><ele>840.0</ele><time>2026-03-29T12:25:37.071Z</time></trkpt><trkpt lat="42.8832217" lon="11.6719533"><ele>840.0</ele><time>2026-03-29T12:25:38.07Z</time></trkpt><trkpt lat="42.8832967" lon="11.6718567"><ele>840.0</ele><time>2026-03-29T12:25:39.071Z</time></trkpt><trkpt lat="42.8833717" lon="11.6717633"><ele>840.0</ele><time>2026-03-29T12:25:40.071Z</time></trkpt><trkpt lat="42.883445" lon="11.6716617"><ele>841.2</ele><time>2026-03-29T12:25:41.071Z</time></trkpt><trkpt lat="42.8835183" lon="11.6715667"><ele>842.4</ele><time>2026-03-29T12:25:42.071Z</time></trkpt><trkpt lat="42.8836" lon="11.6714733"><ele>843.5999999999999</ele><time>2026-03-29T12:25:43.07Z</time></trkpt><trkpt lat="42.8836783" lon="11.6713733"><ele>844.8</ele><time>2026-03-29T12:25:44.07Z</time></trkpt><trkpt lat="42.8837533" lon="11.671275"><ele>846.0</ele><time>2026-03-29T12:25:45.071Z</time></trkpt><trkpt lat="42.88382" lon="11.6711633"><ele>846.5999999999999</ele><time>2026-03-29T12:25:46.071Z</time></trkpt><trkpt lat="42.8838983" lon="11.6710683"><ele>847.2</ele><time>2026-03-29T12:25:47.071Z</time></trkpt><trkpt lat="42.8839733" lon="11.6709717"><ele>847.8</ele><time>2026-03-29T12:25:48.07Z</time></trkpt><trkpt lat="42.8840333" lon="11.67087"><ele>848.4000000000001</ele><time>2026-03-29T12:25:49.071Z</time></trkpt><trkpt lat="42.8840867" lon="11.6707583"><ele>849.0</ele><time>2026-03-29T12:25:50.071Z</time></trkpt><trkpt lat="42.8841367" lon="11.670635"><ele>849.0</ele><time>2026-03-29T12:25:51.071Z</time></trkpt><trkpt lat="42.88418" lon="11.6705067"><ele>849.0</ele><time>2026-03-29T12:25:52.071Z</time></trkpt><trkpt lat="42.8842283" lon="11.6703883"><ele>849.0</ele><time>2026-03-29T12:25:53.071Z</time></trkpt><trkpt lat="42.8842933" lon="11.6702883"><ele>849.0</ele><time>2026-03-29T12:25:54.07Z</time></trkpt><trkpt lat="42.8843733" lon="11.6702117"><ele>849.0</ele><time>2026-03-29T12:25:55.071Z</time></trkpt><trkpt lat="42.884455" lon="11.6701517"><ele>850.8000000000001</ele><time>2026-03-29T12:25:56.071Z</time></trkpt><trkpt lat="42.8845433" lon="11.6701217"><ele>852.6</ele><time>2026-03-29T12:25:57.07Z</time></trkpt><trkpt lat="42.8846467" lon="11.670105"><ele>854.4</ele><time>2026-03-29T12:25:58.071Z</time></trkpt><trkpt lat="42.88475" lon="11.6700983"><ele>856.2</ele><time>2026-03-29T12:25:59.071Z</time></trkpt><trkpt lat="42.8848567" lon="11.6700917"><ele>858.0</ele><time>2026-03-29T12:26:00.07Z</time></trkpt><trkpt lat="42.8849667" lon="11.67007"><ele>858.0</ele><time>2026-03-29T12:26:01.071Z</time></trkpt><trkpt lat="42.8850767" lon="11.6700467"><ele>858.0</ele><time>2026-03-29T12:26:02.071Z</time></trkpt><trkpt lat="42.8851933" lon="11.670035"><ele>858.0</ele><time>2026-03-29T12:26:03.07Z</time></trkpt><trkpt lat="42.8853183" lon="11.6700367"><ele>858.0</ele><time>2026-03-29T12:26:04.071Z</time></trkpt><trkpt lat="42.8854433" lon="11.67003"><ele>858.2</ele><time>2026-03-29T12:26:05.071Z</time></trkpt><trkpt lat="42.8855517" lon="11.670015"><ele>858.4</ele><time>2026-03-29T12:26:06.071Z</time></trkpt><trkpt lat="42.88566" lon="11.6699867"><ele>858.6000000000001</ele><time>2026-03-29T12:26:07.07Z</time></trkpt><trkpt lat="42.8857617" lon="11.6699467"><ele>858.8000000000001</ele><time>2026-03-29T12:26:08.071Z</time></trkpt><trkpt lat="42.8858633" lon="11.669895"><ele>859.0</ele><time>2026-03-29T12:26:09.071Z</time></trkpt><trkpt lat="42.8859583" lon="11.6698183"><ele>857.0</ele><time>2026-03-29T12:26:10.071Z</time></trkpt><trkpt lat="42.8860383" lon="11.66973"><ele>855.0000000000001</ele><time>2026-03-29T12:26:11.071Z</time></trkpt><trkpt lat="42.88611" lon="11.6696217"><ele>853.0</ele><time>2026-03-29T12:26:12.071Z</time></trkpt><trkpt lat="42.886155" lon="11.6694783"><ele>851.0</ele><time>2026-03-29T12:26:13.071Z</time></trkpt><trkpt lat="42.886195" lon="11.66932"><ele>849.0</ele><time>2026-03-29T12:26:14.071Z</time></trkpt><trkpt lat="42.8862217" lon="11.6691517"><ele>849.0</ele><time>2026-03-29T12:26:15.07Z</time></trkpt><trkpt lat="42.8862633" lon="11.6689733"><ele>849.0</ele><time>2026-03-29T12:26:16.071Z</time></trkpt><trkpt lat="42.8863017" lon="11.6688033"><ele>849.0</ele><time>2026-03-29T12:26:17.07Z</time></trkpt><trkpt lat="42.8863383" lon="11.6686417"><ele>849.0</ele><time>2026-03-29T12:26:18.071Z</time></trkpt><trkpt lat="42.8863933" lon="11.6684917"><ele>852.25</ele><time>2026-03-29T12:26:19.07Z</time></trkpt><trkpt lat="42.8864617" lon="11.6683583"><ele>855.5</ele><time>2026-03-29T12:26:20.071Z</time></trkpt><trkpt lat="42.886535" lon="11.668225"><ele>858.75</ele><time>2026-03-29T12:26:21.071Z</time></trkpt><trkpt lat="42.8866133" lon="11.6681017"><ele>862.0</ele><time>2026-03-29T12:26:22.071Z</time></trkpt><trkpt lat="42.8866867" lon="11.6679783"><ele>861.0</ele><time>2026-03-29T12:26:23.071Z</time></trkpt><trkpt lat="42.8867667" lon="11.6678567"><ele>860.0</ele><time>2026-03-29T12:26:24.07Z</time></trkpt><trkpt lat="42.886845" lon="11.6677433"><ele>859.0</ele><time>2026-03-29T12:26:25.07Z</time></trkpt><trkpt lat="42.8869333" lon="11.6676367"><ele>858.0</ele><time>2026-03-29T12:26:26.07Z</time></trkpt><trkpt lat="42.8870333" lon="11.667555"><ele>858.0</ele><time>2026-03-29T12:26:27.071Z</time></trkpt><trkpt lat="42.887135" lon="11.6674833"><ele>858.0</ele><time>2026-03-29T12:26:28.07Z</time></trkpt><trkpt lat="42.8872283" lon="11.667405"><ele>858.0</ele><time>2026-03-29T12:26:29.071Z</time></trkpt><trkpt lat="42.8873233" lon="11.667335"><ele>858.0</ele><time>2026-03-29T12:26:30.07Z</time></trkpt><trkpt lat="42.8874167" lon="11.6672683"><ele>858.0</ele><time>2026-03-29T12:26:31.071Z</time></trkpt><trkpt lat="42.8875017" lon="11.6672"><ele>858.0</ele><time>2026-03-29T12:26:32.071Z</time></trkpt><trkpt lat="42.8875917" lon="11.6671233"><ele>858.0</ele><time>2026-03-29T12:26:33.07Z</time></trkpt><trkpt lat="42.8876867" lon="11.6670633"><ele>858.0</ele><time>2026-03-29T12:26:34.071Z</time></trkpt><trkpt lat="42.8877833" lon="11.6670133"><ele>858.0</ele><time>2026-03-29T12:26:35.071Z</time></trkpt><trkpt lat="42.8878883" lon="11.6669733"><ele>858.0</ele><time>2026-03-29T12:26:36.071Z</time></trkpt><trkpt lat="42.888" lon="11.66695"><ele>859.5999999999999</ele><time>2026-03-29T12:26:37.07Z</time></trkpt><trkpt lat="42.8881083" lon="11.66694"><ele>861.1999999999999</ele><time>2026-03-29T12:26:38.071Z</time></trkpt><trkpt lat="42.888215" lon="11.66693"><ele>862.8</ele><time>2026-03-29T12:26:39.071Z</time></trkpt><trkpt lat="42.8883217" lon="11.6669117"><ele>864.4</ele><time>2026-03-29T12:26:40.071Z</time></trkpt><trkpt lat="42.8884217" lon="11.6668817"><ele>866.0</ele><time>2026-03-29T12:26:41.07Z</time></trkpt><trkpt lat="42.8885233" lon="11.6668483"><ele>866.0</ele><time>2026-03-29T12:26:42.071Z</time></trkpt><trkpt lat="42.8886333" lon="11.66679"><ele>866.0</ele><time>2026-03-29T12:26:43.071Z</time></trkpt><trkpt lat="42.88874" lon="11.6667283"><ele>866.0</ele><time>2026-03-29T12:26:44.071Z</time></trkpt><trkpt lat="42.888845" lon="11.66667"><ele>866.0</ele><time>2026-03-29T12:26:45.07Z</time></trkpt><trkpt lat="42.88894" lon="11.666595"><ele>866.0</ele><time>2026-03-29T12:26:46.071Z</time></trkpt><trkpt lat="42.889015" lon="11.6665017"><ele>865.9999999999999</ele><time>2026-03-29T12:26:47.071Z</time></trkpt><trkpt lat="42.8890833" lon="11.6663883"><ele>865.9999999999999</ele><time>2026-03-29T12:26:48.071Z</time></trkpt><trkpt lat="42.8891567" lon="11.6662683"><ele>866.0</ele><time>2026-03-29T12:26:49.071Z</time></trkpt><trkpt lat="42.8892367" lon="11.666185"><ele>866.0</ele><time>2026-03-29T12:26:50.07Z</time></trkpt><trkpt lat="42.8893267" lon="11.6661183"><ele>866.0</ele><time>2026-03-29T12:26:51.071Z</time></trkpt><trkpt lat="42.8894283" lon="11.6660733"><ele>866.0</ele><time>2026-03-29T12:26:52.071Z</time></trkpt><trkpt lat="42.8895433" lon="11.6660633"><ele>866.0</ele><time>2026-03-29T12:26:53.071Z</time></trkpt><trkpt lat="42.88966" lon="11.6660733"><ele>866.0</ele><time>2026-03-29T12:26:54.071Z</time></trkpt><trkpt lat="42.8897767" lon="11.6661183"><ele>866.0</ele><time>2026-03-29T12:26:55.071Z</time></trkpt><trkpt lat="42.889895" lon="11.66617"><ele>866.0</ele><time>2026-03-29T12:26:56.07Z</time></trkpt><trkpt lat="42.8900183" lon="11.666235"><ele>866.0</ele><time>2026-03-29T12:26:57.071Z</time></trkpt><trkpt lat="42.8901483" lon="11.666305"><ele>866.0</ele><time>2026-03-29T12:26:58.07Z</time></trkpt><trkpt lat="42.8902817" lon="11.6663733"><ele>867.0</ele><time>2026-03-29T12:26:59.07Z</time></trkpt><trkpt lat="42.890415" lon="11.666445"><ele>868.0</ele><time>2026-03-29T12:27:00.07Z</time></trkpt><trkpt lat="42.8905433" lon="11.6665117"><ele>869.0</ele><time>2026-03-29T12:27:01.071Z</time></trkpt><trkpt lat="42.8906733" lon="11.6665817"><ele>870.0</ele><time>2026-03-29T12:27:02.071Z</time></trkpt><trkpt lat="42.8908083" lon="11.6666567"><ele>871.3333333333333</ele><time>2026-03-29T12:27:03.07Z</time></trkpt><trkpt lat="42.8909483" lon="11.6667333"><ele>872.6666666666666</ele><time>2026-03-29T12:27:04.071Z</time></trkpt><trkpt lat="42.891095" lon="11.666805"><ele>874.0</ele><time>2026-03-29T12:27:05.071Z</time></trkpt><trkpt lat="42.8912417" lon="11.6668867"><ele>871.3333333333333</ele><time>2026-03-29T12:27:06.07Z</time></trkpt><trkpt lat="42.89139" lon="11.6669733"><ele>868.6666666666667</ele><time>2026-03-29T12:27:07.07Z</time></trkpt><trkpt lat="42.8915433" lon="11.6670533"><ele>866.0</ele><time>2026-03-29T12:27:08.071Z</time></trkpt><trkpt lat="42.8916967" lon="11.6671333"><ele>867.0</ele><time>2026-03-29T12:27:09.072Z</time></trkpt><trkpt lat="42.8918533" lon="11.667215"><ele>868.0</ele><time>2026-03-29T12:27:10.072Z</time></trkpt><trkpt lat="42.8920133" lon="11.6673083"><ele>869.0</ele><time>2026-03-29T12:27:11.072Z</time></trkpt><trkpt lat="42.8921767" lon="11.6673933"><ele>869.0</ele><time>2026-03-29T12:27:12.072Z</time></trkpt><trkpt lat="42.8923433" lon="11.6674733"><ele>869.0</ele><time>2026-03-29T12:27:13.071Z</time></trkpt><trkpt lat="42.8925117" lon="11.6675533"><ele>869.0</ele><time>2026-03-29T12:27:14.072Z</time></trkpt><trkpt lat="42.8926883" lon="11.6676317"><ele>869.6666666666667</ele><time>2026-03-29T12:27:15.072Z</time></trkpt><trkpt lat="42.8928667" lon="11.6677117"><ele>870.3333333333333</ele><time>2026-03-29T12:27:16.072Z</time></trkpt><trkpt lat="42.8930517" lon="11.6677867"><ele>871.0</ele><time>2026-03-29T12:27:17.071Z</time></trkpt><trkpt lat="42.89323" lon="11.6678633"><ele>869.0</ele><time>2026-03-29T12:27:18.072Z</time></trkpt><trkpt lat="42.89341" lon="11.6679417"><ele>867.0</ele><time>2026-03-29T12:27:19.071Z</time></trkpt><trkpt lat="42.8935883" lon="11.6680267"><ele>865.0</ele><time>2026-03-29T12:27:20.072Z</time></trkpt><trkpt lat="42.893765" lon="11.6681083"><ele>865.0</ele><time>2026-03-29T12:27:21.071Z</time></trkpt><trkpt lat="42.89394" lon="11.6681867"><ele>865.0</ele><time>2026-03-29T12:27:22.072Z</time></trkpt><trkpt lat="42.89412" lon="11.6682633"><ele>865.0</ele><time>2026-03-29T12:27:23.072Z</time></trkpt><trkpt lat="42.8943017" lon="11.6683317"><ele>866.0</ele><time>2026-03-29T12:27:24.072Z</time></trkpt><trkpt lat="42.8944767" lon="11.6684117"><ele>867.0</ele><time>2026-03-29T12:27:25.072Z</time></trkpt><trkpt lat="42.8946433" lon="11.6684783"><ele>868.0</ele><time>2026-03-29T12:27:26.072Z</time></trkpt><trkpt lat="42.8947983" lon="11.6685367"><ele>868.0</ele><time>2026-03-29T12:27:27.072Z</time></trkpt><trkpt lat="42.89494" lon="11.6685733"><ele>868.0</ele><time>2026-03-29T12:27:28.071Z</time></trkpt><trkpt lat="42.89509" lon="11.668575"><ele>868.0</ele><time>2026-03-29T12:27:29.071Z</time></trkpt><trkpt lat="42.8952433" lon="11.6685567"><ele>868.0</ele><time>2026-03-29T12:27:30.072Z</time></trkpt><trkpt lat="42.8954083" lon="11.668505"><ele>868.0</ele><time>2026-03-29T12:27:31.071Z</time></trkpt><trkpt lat="42.8955733" lon="11.6684433"><ele>868.0</ele><time>2026-03-29T12:27:32.072Z</time></trkpt><trkpt lat="42.8957333" lon="11.6683867"><ele>868.0</ele><time>2026-03-29T12:27:33.071Z</time></trkpt><trkpt lat="42.895885" lon="11.66833"><ele>868.25</ele><time>2026-03-29T12:27:34.072Z</time></trkpt><trkpt lat="42.8960317" lon="11.6683033"><ele>868.5</ele><time>2026-03-29T12:27:35.072Z</time></trkpt><trkpt lat="42.8961767" lon="11.6683083"><ele>868.75</ele><time>2026-03-29T12:27:36.072Z</time></trkpt><trkpt lat="42.8963267" lon="11.6683217"><ele>869.0</ele><time>2026-03-29T12:27:37.072Z</time></trkpt><trkpt lat="42.89649" lon="11.6683517"><ele>869.0</ele><time>2026-03-29T12:27:38.071Z</time></trkpt><trkpt lat="42.8966633" lon="11.6683867"><ele>869.0</ele><time>2026-03-29T12:27:39.071Z</time></trkpt><trkpt lat="42.8968467" lon="11.66842"><ele>869.0</ele><time>2026-03-29T12:27:40.072Z</time></trkpt><trkpt lat="42.897045" lon="11.6684633"><ele>871.3333333333334</ele><time>2026-03-29T12:27:41.072Z</time></trkpt><trkpt lat="42.89723" lon="11.6684933"><ele>873.6666666666667</ele><time>2026-03-29T12:27:42.071Z</time></trkpt><trkpt lat="42.8974133" lon="11.6685367"><ele>876.0</ele><time>2026-03-29T12:27:43.072Z</time></trkpt><trkpt lat="42.897585" lon="11.6685733"><ele>874.6666666666667</ele><time>2026-03-29T12:27:44.072Z</time></trkpt><trkpt lat="42.8977483" lon="11.6686167"><ele>873.3333333333334</ele><time>2026-03-29T12:27:45.072Z</time></trkpt><trkpt lat="42.897915" lon="11.6686483"><ele>872.0</ele><time>2026-03-29T12:27:46.072Z</time></trkpt><trkpt lat="42.8980733" lon="11.66866"><ele>872.0</ele><time>2026-03-29T12:27:47.071Z</time></trkpt><trkpt lat="42.8982217" lon="11.6686333"><ele>872.0</ele><time>2026-03-29T12:27:48.072Z</time></trkpt><trkpt lat="42.89835" lon="11.66857"><ele>872.0</ele><time>2026-03-29T12:27:49.071Z</time></trkpt><trkpt lat="42.8984667" lon="11.6684533"><ele>872.0</ele><time>2026-03-29T12:27:50.072Z</time></trkpt><trkpt lat="42.8986" lon="11.6683233"><ele>872.3333333333334</ele><time>2026-03-29T12:27:51.072Z</time></trkpt><trkpt lat="42.8987383" lon="11.66819"><ele>872.6666666666667</ele><time>2026-03-29T12:27:52.071Z</time></trkpt><trkpt lat="42.8988783" lon="11.6680583"><ele>873.0</ele><time>2026-03-29T12:27:53.072Z</time></trkpt><trkpt lat="42.8990217" lon="11.6679233"><ele>873.0</ele><time>2026-03-29T12:27:54.072Z</time></trkpt><trkpt lat="42.8991633" lon="11.6677867"><ele>873.0</ele><time>2026-03-29T12:27:55.072Z</time></trkpt><trkpt lat="42.8992967" lon="11.6676567"><ele>873.0</ele><time>2026-03-29T12:27:56.072Z</time></trkpt><trkpt lat="42.8994267" lon="11.6675367"><ele>873.0</ele><time>2026-03-29T12:27:57.071Z</time></trkpt><trkpt lat="42.8995317" lon="11.6674217"><ele>873.0</ele><time>2026-03-29T12:27:58.072Z</time></trkpt><trkpt lat="42.8996433" lon="11.66733"><ele>873.0</ele><time>2026-03-29T12:27:59.072Z</time></trkpt><trkpt lat="42.899745" lon="11.6672717"><ele>873.0</ele><time>2026-03-29T12:28:00.071Z</time></trkpt><trkpt lat="42.899845" lon="11.6672433"><ele>873.0</ele><time>2026-03-29T12:28:01.072Z</time></trkpt><trkpt lat="42.8999483" lon="11.6672333"><ele>873.0</ele><time>2026-03-29T12:28:02.072Z</time></trkpt><trkpt lat="42.90005" lon="11.6672417"><ele>873.0</ele><time>2026-03-29T12:28:03.072Z</time></trkpt><trkpt lat="42.9001433" lon="11.6672667"><ele>873.0</ele><time>2026-03-29T12:28:04.072Z</time></trkpt><trkpt lat="42.900235" lon="11.66729"><ele>873.0</ele><time>2026-03-29T12:28:05.072Z</time></trkpt><trkpt lat="42.90032" lon="11.667285"><ele>873.4</ele><time>2026-03-29T12:28:06.072Z</time></trkpt><trkpt lat="42.9003983" lon="11.667245"><ele>873.8</ele><time>2026-03-29T12:28:07.072Z</time></trkpt><trkpt lat="42.900475" lon="11.6671833"><ele>874.2</ele><time>2026-03-29T12:28:08.072Z</time></trkpt><trkpt lat="42.9005667" lon="11.6671083"><ele>874.6</ele><time>2026-03-29T12:28:09.072Z</time></trkpt><trkpt lat="42.900675" lon="11.667045"><ele>875.0</ele><time>2026-03-29T12:28:10.072Z</time></trkpt><trkpt lat="42.9007833" lon="11.6669583"><ele>876.25</ele><time>2026-03-29T12:28:11.072Z</time></trkpt><trkpt lat="42.9009033" lon="11.6668833"><ele>877.5</ele><time>2026-03-29T12:28:12.072Z</time></trkpt><trkpt lat="42.9010383" lon="11.66682"><ele>878.75</ele><time>2026-03-29T12:28:13.072Z</time></trkpt><trkpt lat="42.9011883" lon="11.666775"><ele>880.0</ele><time>2026-03-29T12:28:14.072Z</time></trkpt><trkpt lat="42.901345" lon="11.6667667"><ele>882.3333333333333</ele><time>2026-03-29T12:28:15.072Z</time></trkpt><trkpt lat="42.901505" lon="11.6667867"><ele>884.6666666666667</ele><time>2026-03-29T12:28:16.072Z</time></trkpt><trkpt lat="42.9016817" lon="11.6668267"><ele>887.0</ele><time>2026-03-29T12:28:17.072Z</time></trkpt><trkpt lat="42.9018467" lon="11.6668383"><ele>891.0</ele><time>2026-03-29T12:28:18.072Z</time></trkpt><trkpt lat="42.9020017" lon="11.666835"><ele>895.0</ele><time>2026-03-29T12:28:19.072Z</time></trkpt><trkpt lat="42.9021317" lon="11.6668017"><ele>899.0</ele><time>2026-03-29T12:28:20.072Z</time></trkpt><trkpt lat="42.90226" lon="11.6667417"><ele>903.0</ele><time>2026-03-29T12:28:21.071Z</time></trkpt><trkpt lat="42.9023667" lon="11.666645"><ele>903.0</ele><time>2026-03-29T12:28:22.072Z</time></trkpt><trkpt lat="42.9024383" lon="11.666515"><ele>903.0</ele><time>2026-03-29T12:28:23.072Z</time></trkpt><trkpt lat="42.9025017" lon="11.6663783"><ele>903.0</ele><time>2026-03-29T12:28:24.072Z</time></trkpt><trkpt lat="42.9025283" lon="11.6661933"><ele>903.0</ele><time>2026-03-29T12:28:25.072Z</time></trkpt><trkpt lat="42.9025317" lon="11.6660083"><ele>902.75</ele><time>2026-03-29T12:28:26.071Z</time></trkpt><trkpt lat="42.9025167" lon="11.6658383"><ele>902.5</ele><time>2026-03-29T12:28:27.071Z</time></trkpt><trkpt lat="42.9024633" lon="11.665655"><ele>902.25</ele><time>2026-03-29T12:28:28.072Z</time></trkpt><trkpt lat="42.9023967" lon="11.6654833"><ele>902.0</ele><time>2026-03-29T12:28:29.072Z</time></trkpt><trkpt lat="42.9023317" lon="11.6653317"><ele>903.6</ele><time>2026-03-29T12:28:30.072Z</time></trkpt><trkpt lat="42.9022617" lon="11.6652017"><ele>905.2</ele><time>2026-03-29T12:28:31.071Z</time></trkpt><trkpt lat="42.9022" lon="11.665085"><ele>906.8</ele><time>2026-03-29T12:28:32.072Z</time></trkpt><trkpt lat="42.9021417" lon="11.6649667"><ele>908.4</ele><time>2026-03-29T12:28:33.072Z</time></trkpt><trkpt lat="42.902085" lon="11.66485"><ele>910.0</ele><time>2026-03-29T12:28:34.072Z</time></trkpt><trkpt lat="42.902025" lon="11.66473"><ele>910.0</ele><time>2026-03-29T12:28:35.071Z</time></trkpt><trkpt lat="42.9019633" lon="11.6645933"><ele>910.0</ele><time>2026-03-29T12:28:36.072Z</time></trkpt><trkpt lat="42.9019033" lon="11.6644433"><ele>910.0</ele><time>2026-03-29T12:28:37.072Z</time></trkpt><trkpt lat="42.9018433" lon="11.6642717"><ele>910.0</ele><time>2026-03-29T12:28:38.072Z</time></trkpt><trkpt lat="42.9017917" lon="11.6640883"><ele>909.0</ele><time>2026-03-29T12:28:39.071Z</time></trkpt><trkpt lat="42.901735" lon="11.66389"><ele>908.0</ele><time>2026-03-29T12:28:40.072Z</time></trkpt><trkpt lat="42.9016783" lon="11.6636783"><ele>907.0</ele><time>2026-03-29T12:28:41.072Z</time></trkpt><trkpt lat="42.9016283" lon="11.66347"><ele>910.0</ele><time>2026-03-29T12:28:42.071Z</time></trkpt><trkpt lat="42.901595" lon="11.663275"><ele>913.0</ele><time>2026-03-29T12:28:43.072Z</time></trkpt><trkpt lat="42.9015817" lon="11.6630833"><ele>916.0</ele><time>2026-03-29T12:28:44.072Z</time></trkpt><trkpt lat="42.901595" lon="11.6629067"><ele>919.0</ele><time>2026-03-29T12:28:45.072Z</time></trkpt><trkpt lat="42.9016433" lon="11.6627367"><ele>920.0</ele><time>2026-03-29T12:28:46.072Z</time></trkpt><trkpt lat="42.9017267" lon="11.6625883"><ele>921.0</ele><time>2026-03-29T12:28:47.072Z</time></trkpt><trkpt lat="42.90183" lon="11.66247"><ele>922.0</ele><time>2026-03-29T12:28:48.071Z</time></trkpt><trkpt lat="42.9019533" lon="11.6623983"><ele>923.0</ele><time>2026-03-29T12:28:49.072Z</time></trkpt><trkpt lat="42.9020967" lon="11.6623833"><ele>927.3333333333334</ele><time>2026-03-29T12:28:50.072Z</time></trkpt><trkpt lat="42.9022367" lon="11.662405"><ele>931.6666666666667</ele><time>2026-03-29T12:28:51.071Z</time></trkpt><trkpt lat="42.9023783" lon="11.6624733"><ele>936.0</ele><time>2026-03-29T12:28:52.072Z</time></trkpt><trkpt lat="42.9025367" lon="11.6625567"><ele>937.6666666666667</ele><time>2026-03-29T12:28:53.072Z</time></trkpt><trkpt lat="42.9026933" lon="11.66266"><ele>939.3333333333334</ele><time>2026-03-29T12:28:54.071Z</time></trkpt><trkpt lat="42.9028633" lon="11.662745"><ele>941.0</ele><time>2026-03-29T12:28:55.072Z</time></trkpt><trkpt lat="42.90303" lon="11.6628133"><ele>941.0</ele><time>2026-03-29T12:28:56.071Z</time></trkpt><trkpt lat="42.9031967" lon="11.6628567"><ele>941.0</ele><time>2026-03-29T12:28:57.072Z</time></trkpt><trkpt lat="42.90336" lon="11.66286"><ele>941.0</ele><time>2026-03-29T12:28:58.071Z</time></trkpt><trkpt lat="42.90352" lon="11.662855"><ele>941.6666666666667</ele><time>2026-03-29T12:28:59.071Z</time></trkpt><trkpt lat="42.9036767" lon="11.6628067"><ele>942.3333333333333</ele><time>2026-03-29T12:29:00.072Z</time></trkpt><trkpt lat="42.9038317" lon="11.662745"><ele>943.0</ele><time>2026-03-29T12:29:01.072Z</time></trkpt><trkpt lat="42.9039833" lon="11.6626817"><ele>945.0</ele><time>2026-03-29T12:29:02.071Z</time></trkpt><trkpt lat="42.90413" lon="11.6626217"><ele>947.0</ele><time>2026-03-29T12:29:03.072Z</time></trkpt><trkpt lat="42.904275" lon="11.662575"><ele>949.0</ele><time>2026-03-29T12:29:04.072Z</time></trkpt><trkpt lat="42.904425" lon="11.6625433"><ele>950.75</ele><time>2026-03-29T12:29:05.072Z</time></trkpt><trkpt lat="42.9045683" lon="11.6625433"><ele>952.5</ele><time>2026-03-29T12:29:06.072Z</time></trkpt><trkpt lat="42.9047133" lon="11.662565"><ele>954.25</ele><time>2026-03-29T12:29:07.072Z</time></trkpt><trkpt lat="42.9048617" lon="11.662595"><ele>956.0</ele><time>2026-03-29T12:29:08.071Z</time></trkpt><trkpt lat="42.9050017" lon="11.6625983"><ele>956.75</ele><time>2026-03-29T12:29:09.072Z</time></trkpt><trkpt lat="42.9051233" lon="11.6625833"><ele>957.5</ele><time>2026-03-29T12:29:10.072Z</time></trkpt><trkpt lat="42.9052567" lon="11.6625233"><ele>958.25</ele><time>2026-03-29T12:29:11.072Z</time></trkpt><trkpt lat="42.905395" lon="11.6624533"><ele>959.0</ele><time>2026-03-29T12:29:12.072Z</time></trkpt><trkpt lat="42.90554" lon="11.6623733"><ele>959.0</ele><time>2026-03-29T12:29:13.072Z</time></trkpt><trkpt lat="42.90569" lon="11.662285"><ele>959.0</ele><time>2026-03-29T12:29:14.072Z</time></trkpt><trkpt lat="42.9058467" lon="11.6621933"><ele>959.0</ele><time>2026-03-29T12:29:15.071Z</time></trkpt><trkpt lat="42.9060017" lon="11.662095"><ele>961.0</ele><time>2026-03-29T12:29:16.072Z</time></trkpt><trkpt lat="42.9061533" lon="11.662"><ele>963.0</ele><time>2026-03-29T12:29:17.072Z</time></trkpt><trkpt lat="42.9063033" lon="11.6618983"><ele>965.0</ele><time>2026-03-29T12:29:18.072Z</time></trkpt><trkpt lat="42.906455" lon="11.661805"><ele>966.6666666666667</ele><time>2026-03-29T12:29:19.072Z</time></trkpt><trkpt lat="42.9065983" lon="11.661685"><ele>968.3333333333333</ele><time>2026-03-29T12:29:20.071Z</time></trkpt><trkpt lat="42.9067383" lon="11.6615567"><ele>970.0</ele><time>2026-03-29T12:29:21.071Z</time></trkpt><trkpt lat="42.9068833" lon="11.661435"><ele>971.6666666666666</ele><time>2026-03-29T12:29:22.072Z</time></trkpt><trkpt lat="42.90703" lon="11.6613117"><ele>973.3333333333333</ele><time>2026-03-29T12:29:23.072Z</time></trkpt><trkpt lat="42.9071733" lon="11.6611883"><ele>975.0</ele><time>2026-03-29T12:29:24.072Z</time></trkpt><trkpt lat="42.9073183" lon="11.6610767"><ele>977.6666666666667</ele><time>2026-03-29T12:29:25.072Z</time></trkpt><trkpt lat="42.907465" lon="11.6609683"><ele>980.3333333333334</ele><time>2026-03-29T12:29:26.072Z</time></trkpt><trkpt lat="42.9076167" lon="11.6608683"><ele>983.0</ele><time>2026-03-29T12:29:27.072Z</time></trkpt><trkpt lat="42.9077833" lon="11.66079"><ele>984.6666666666667</ele><time>2026-03-29T12:29:28.072Z</time></trkpt><trkpt lat="42.9079517" lon="11.6607283"><ele>986.3333333333333</ele><time>2026-03-29T12:29:29.072Z</time></trkpt><trkpt lat="42.9081217" lon="11.6606717"><ele>988.0</ele><time>2026-03-29T12:29:30.072Z</time></trkpt><trkpt lat="42.9082867" lon="11.660615"><ele>989.3333333333333</ele><time>2026-03-29T12:29:31.071Z</time></trkpt><trkpt lat="42.9084533" lon="11.6605633"><ele>990.6666666666667</ele><time>2026-03-29T12:29:32.072Z</time></trkpt><trkpt lat="42.908625" lon="11.6605083"><ele>992.0</ele><time>2026-03-29T12:29:33.072Z</time></trkpt><trkpt lat="42.90879" lon="11.6604733"><ele>992.0</ele><time>2026-03-29T12:29:34.072Z</time></trkpt><trkpt lat="42.9089583" lon="11.6604383"><ele>992.0</ele><time>2026-03-29T12:29:35.072Z</time></trkpt><trkpt lat="42.9091117" lon="11.6603867"><ele>992.0</ele><time>2026-03-29T12:29:36.071Z</time></trkpt><trkpt lat="42.9092583" lon="11.660325"><ele>997.0</ele><time>2026-03-29T12:29:37.072Z</time></trkpt><trkpt lat="42.9093917" lon="11.6602217"><ele>1002.0</ele><time>2026-03-29T12:29:38.072Z</time></trkpt><trkpt lat="42.90951" lon="11.6601017"><ele>1007.0</ele><time>2026-03-29T12:29:39.072Z</time></trkpt><trkpt lat="42.909635" lon="11.6599783"><ele>1007.0</ele><time>2026-03-29T12:29:40.072Z</time></trkpt><trkpt lat="42.9097633" lon="11.6598483"><ele>1007.0</ele><time>2026-03-29T12:29:41.071Z</time></trkpt><trkpt lat="42.9099033" lon="11.65973"><ele>1007.0</ele><time>2026-03-29T12:29:42.071Z</time></trkpt><trkpt lat="42.9100533" lon="11.6596267"><ele>1007.6666666666667</ele><time>2026-03-29T12:29:43.071Z</time></trkpt><trkpt lat="42.9102083" lon="11.659535"><ele>1008.3333333333333</ele><time>2026-03-29T12:29:44.071Z</time></trkpt><trkpt lat="42.910355" lon="11.6594283"><ele>1009.0</ele><time>2026-03-29T12:29:45.072Z</time></trkpt><trkpt lat="42.9104767" lon="11.6593083"><ele>1013.3333333333333</ele><time>2026-03-29T12:29:46.072Z</time></trkpt><trkpt lat="42.9105883" lon="11.65917"><ele>1017.6666666666667</ele><time>2026-03-29T12:29:47.072Z</time></trkpt><trkpt lat="42.9106867" lon="11.6590083"><ele>1022.0</ele><time>2026-03-29T12:29:48.072Z</time></trkpt><trkpt lat="42.9107583" lon="11.6588317"><ele>1022.0</ele><time>2026-03-29T12:29:49.071Z</time></trkpt><trkpt lat="42.910815" lon="11.6586617"><ele>1022.0</ele><time>2026-03-29T12:29:50.071Z</time></trkpt><trkpt lat="42.9108683" lon="11.6585217"><ele>1022.0</ele><time>2026-03-29T12:29:51.072Z</time></trkpt><trkpt lat="42.9109267" lon="11.65841"><ele>1022.0</ele><time>2026-03-29T12:29:52.072Z</time></trkpt><trkpt lat="42.9109967" lon="11.6583433"><ele>1022.0</ele><time>2026-03-29T12:29:53.071Z</time></trkpt><trkpt lat="42.9110833" lon="11.658315"><ele>1026.0</ele><time>2026-03-29T12:29:54.072Z</time></trkpt><trkpt lat="42.91118" lon="11.6583083"><ele>1030.0</ele><time>2026-03-29T12:29:55.072Z</time></trkpt><trkpt lat="42.9113067" lon="11.6583117"><ele>1034.0</ele><time>2026-03-29T12:29:56.071Z</time></trkpt><trkpt lat="42.9114517" lon="11.6582967"><ele>1038.0</ele><time>2026-03-29T12:29:57.071Z</time></trkpt><trkpt lat="42.9116017" lon="11.6582783"><ele>1039.5</ele><time>2026-03-29T12:29:58.072Z</time></trkpt><trkpt lat="42.9117617" lon="11.658265"><ele>1041.0</ele><time>2026-03-29T12:29:59.072Z</time></trkpt><trkpt lat="42.911905" lon="11.6582417"><ele>1042.5</ele><time>2026-03-29T12:30:00.072Z</time></trkpt><trkpt lat="42.9120333" lon="11.6582133"><ele>1044.0</ele><time>2026-03-29T12:30:01.071Z</time></trkpt><trkpt lat="42.9121333" lon="11.6581533"><ele>1044.0</ele><time>2026-03-29T12:30:02.072Z</time></trkpt><trkpt lat="42.9122033" lon="11.6580583"><ele>1044.0</ele><time>2026-03-29T12:30:03.072Z</time></trkpt><trkpt lat="42.9122767" lon="11.65792"><ele>1044.0</ele><time>2026-03-29T12:30:04.072Z</time></trkpt><trkpt lat="42.9123533" lon="11.6577617"><ele>1044.0</ele><time>2026-03-29T12:30:05.072Z</time></trkpt><trkpt lat="42.9124433" lon="11.65763"><ele>1046.5</ele><time>2026-03-29T12:30:06.072Z</time></trkpt><trkpt lat="42.91256" lon="11.6575417"><ele>1049.0</ele><time>2026-03-29T12:30:07.072Z</time></trkpt><trkpt lat="42.9126933" lon="11.6574917"><ele>1051.5</ele><time>2026-03-29T12:30:08.072Z</time></trkpt><trkpt lat="42.9128417" lon="11.6574633"><ele>1054.0</ele><time>2026-03-29T12:30:09.071Z</time></trkpt><trkpt lat="42.9129933" lon="11.6574417"><ele>1056.75</ele><time>2026-03-29T12:30:10.072Z</time></trkpt><trkpt lat="42.9131333" lon="11.6574517"><ele>1059.5</ele><time>2026-03-29T12:30:11.072Z</time></trkpt><trkpt lat="42.9132517" lon="11.657515"><ele>1062.25</ele><time>2026-03-29T12:30:12.072Z</time></trkpt><trkpt lat="42.9133583" lon="11.6576233"><ele>1065.0</ele><time>2026-03-29T12:30:13.072Z</time></trkpt><trkpt lat="42.913465" lon="11.6577533"><ele>1066.0</ele><time>2026-03-29T12:30:14.072Z</time></trkpt><trkpt lat="42.913565" lon="11.6578833"><ele>1067.0</ele><time>2026-03-29T12:30:15.071Z</time></trkpt><trkpt lat="42.9136583" lon="11.65798"><ele>1068.0</ele><time>2026-03-29T12:30:16.072Z</time></trkpt><trkpt lat="42.91376" lon="11.6580417"><ele>1069.0</ele><time>2026-03-29T12:30:17.071Z</time></trkpt><trkpt lat="42.91389" lon="11.6580583"><ele>1069.0</ele><time>2026-03-29T12:30:18.072Z</time></trkpt><trkpt lat="42.9140217" lon="11.658035"><ele>1069.0</ele><time>2026-03-29T12:30:19.072Z</time></trkpt><trkpt lat="42.91416" lon="11.6579717"><ele>1069.0</ele><time>2026-03-29T12:30:20.071Z</time></trkpt><trkpt lat="42.914305" lon="11.657895"><ele>1069.0</ele><time>2026-03-29T12:30:21.072Z</time></trkpt><trkpt lat="42.9144533" lon="11.657825"><ele>1077.3333333333333</ele><time>2026-03-29T12:30:22.071Z</time></trkpt><trkpt lat="42.914605" lon="11.6577617"><ele>1085.6666666666667</ele><time>2026-03-29T12:30:23.072Z</time></trkpt><trkpt lat="42.9147717" lon="11.65772"><ele>1094.0</ele><time>2026-03-29T12:30:24.071Z</time></trkpt><trkpt lat="42.9149383" lon="11.6576967"><ele>1094.3333333333335</ele><time>2026-03-29T12:30:25.072Z</time></trkpt><trkpt lat="42.9150983" lon="11.6576833"><ele>1094.6666666666667</ele><time>2026-03-29T12:30:26.072Z</time></trkpt><trkpt lat="42.9152533" lon="11.65767"><ele>1095.0</ele><time>2026-03-29T12:30:27.072Z</time></trkpt><trkpt lat="42.91541" lon="11.6576467"><ele>1095.0</ele><time>2026-03-29T12:30:28.072Z</time></trkpt><trkpt lat="42.9155683" lon="11.6576033"><ele>1095.0</ele><time>2026-03-29T12:30:29.072Z</time></trkpt><trkpt lat="42.9157367" lon="11.6575883"><ele>1095.0</ele><time>2026-03-29T12:30:30.071Z</time></trkpt><trkpt lat="42.9159167" lon="11.657605"><ele>1095.6666666666667</ele><time>2026-03-29T12:30:31.072Z</time></trkpt><trkpt lat="42.9160817" lon="11.6576033"><ele>1096.3333333333335</ele><time>2026-03-29T12:30:32.071Z</time></trkpt><trkpt lat="42.9162317" lon="11.6575783"><ele>1097.0</ele><time>2026-03-29T12:30:33.071Z</time></trkpt><trkpt lat="42.9163783" lon="11.65751"><ele>1097.0</ele><time>2026-03-29T12:30:34.072Z</time></trkpt><trkpt lat="42.91652" lon="11.657405"><ele>1097.0</ele><time>2026-03-29T12:30:35.071Z</time></trkpt><trkpt lat="42.9166633" lon="11.6573267"><ele>1097.0</ele><time>2026-03-29T12:30:36.072Z</time></trkpt><trkpt lat="42.916815" lon="11.6572867"><ele>1099.0</ele><time>2026-03-29T12:30:37.072Z</time></trkpt><trkpt lat="42.916975" lon="11.65726"><ele>1101.0</ele><time>2026-03-29T12:30:38.072Z</time></trkpt><trkpt lat="42.9171233" lon="11.65725"><ele>1103.0</ele><time>2026-03-29T12:30:39.072Z</time></trkpt><trkpt lat="42.917265" lon="11.6572617"><ele>1103.0</ele><time>2026-03-29T12:30:40.071Z</time></trkpt><trkpt lat="42.9174067" lon="11.6572933"><ele>1103.0</ele><time>2026-03-29T12:30:41.071Z</time></trkpt><trkpt lat="42.91755" lon="11.65732"><ele>1103.0</ele><time>2026-03-29T12:30:42.072Z</time></trkpt><trkpt lat="42.9176917" lon="11.6573533"><ele>1103.0</ele><time>2026-03-29T12:30:43.072Z</time></trkpt><trkpt lat="42.91783" lon="11.6573717"><ele>1104.25</ele><time>2026-03-29T12:30:44.072Z</time></trkpt><trkpt lat="42.91796" lon="11.6573717"><ele>1105.5</ele><time>2026-03-29T12:30:45.072Z</time></trkpt><trkpt lat="42.91807" lon="11.657405"><ele>1106.75</ele><time>2026-03-29T12:30:46.072Z</time></trkpt><trkpt lat="42.9181633" lon="11.657475"><ele>1108.0</ele><time>2026-03-29T12:30:47.071Z</time></trkpt><trkpt lat="42.9182333" lon="11.6575883"><ele>1108.0</ele><time>2026-03-29T12:30:48.071Z</time></trkpt><trkpt lat="42.9182833" lon="11.6577417"><ele>1108.0</ele><time>2026-03-29T12:30:49.072Z</time></trkpt><trkpt lat="42.91831" lon="11.657925"><ele>1108.0</ele><time>2026-03-29T12:30:50.071Z</time></trkpt><trkpt lat="42.9183267" lon="11.6581233"><ele>1108.0</ele><time>2026-03-29T12:30:51.072Z</time></trkpt><trkpt lat="42.9183483" lon="11.6583217"><ele>1107.75</ele><time>2026-03-29T12:30:52.071Z</time></trkpt><trkpt lat="42.918395" lon="11.6585"><ele>1107.5</ele><time>2026-03-29T12:30:53.072Z</time></trkpt><trkpt lat="42.91845" lon="11.6586717"><ele>1107.25</ele><time>2026-03-29T12:30:54.072Z</time></trkpt><trkpt lat="42.918515" lon="11.6588317"><ele>1107.0</ele><time>2026-03-29T12:30:55.071Z</time></trkpt><trkpt lat="42.91859" lon="11.65899"><ele>1107.0</ele><time>2026-03-29T12:30:56.071Z</time></trkpt><trkpt lat="42.91866" lon="11.659145"><ele>1107.0</ele><time>2026-03-29T12:30:57.071Z</time></trkpt><trkpt lat="42.9187367" lon="11.6592983"><ele>1107.0</ele><time>2026-03-29T12:30:58.072Z</time></trkpt><trkpt lat="42.9188033" lon="11.6594317"><ele>1107.0</ele><time>2026-03-29T12:30:59.071Z</time></trkpt><trkpt lat="42.918865" lon="11.6595483"><ele>1106.6</ele><time>2026-03-29T12:31:00.071Z</time></trkpt><trkpt lat="42.9189317" lon="11.6596367"><ele>1106.2</ele><time>2026-03-29T12:31:01.072Z</time></trkpt><trkpt lat="42.9189883" lon="11.65971"><ele>1105.8</ele><time>2026-03-29T12:31:02.072Z</time></trkpt><trkpt lat="42.9190533" lon="11.659805"><ele>1105.4</ele><time>2026-03-29T12:31:04.072Z</time></trkpt><trkpt lat="42.919115" lon="11.6598983"><ele>1105.0</ele><time>2026-03-29T12:31:06.072Z</time></trkpt><trkpt lat="42.9192083" lon="11.6599517"><ele>1106.0</ele><time>2026-03-29T12:31:08.072Z</time></trkpt><trkpt lat="42.919325" lon="11.66001"><ele>1107.0</ele><time>2026-03-29T12:31:10.072Z</time></trkpt><trkpt lat="42.919385" lon="11.6600367"><ele>1108.0</ele><time>2026-03-29T12:31:11.072Z</time></trkpt><trkpt lat="42.91951" lon="11.6600883"><ele>1109.0</ele><time>2026-03-29T12:31:13.071Z</time></trkpt><trkpt lat="42.919575" lon="11.66012"><ele>1110.0</ele><time>2026-03-29T12:31:14.072Z</time></trkpt><trkpt lat="42.91965" lon="11.6601567"><ele>1110.0</ele><time>2026-03-29T12:31:15.072Z</time></trkpt><trkpt lat="42.9197233" lon="11.6601767"><ele>1110.0</ele><time>2026-03-29T12:31:16.072Z</time></trkpt><trkpt lat="42.9198533" lon="11.6601883"><ele>1110.0</ele><time>2026-03-29T12:31:18.072Z</time></trkpt><trkpt lat="42.9199317" lon="11.6601833"><ele>1110.0</ele><time>2026-03-29T12:31:19.072Z</time></trkpt><trkpt lat="42.92" lon="11.6601817"><ele>1110.0</ele><time>2026-03-29T12:31:20.072Z</time></trkpt><trkpt lat="42.9200667" lon="11.6601867"><ele>1110.0</ele><time>2026-03-29T12:31:21.072Z</time></trkpt><trkpt lat="42.9201317" lon="11.6602217"><ele>1109.6666666666667</ele><time>2026-03-29T12:31:22.071Z</time></trkpt><trkpt lat="42.9201967" lon="11.66026"><ele>1109.3333333333333</ele><time>2026-03-29T12:31:23.072Z</time></trkpt><trkpt lat="42.9202467" lon="11.6603167"><ele>1109.0</ele><time>2026-03-29T12:31:24.071Z</time></trkpt><trkpt lat="42.9203183" lon="11.660445"><ele>1108.6666666666665</ele><time>2026-03-29T12:31:26.072Z</time></trkpt><trkpt lat="42.9203617" lon="11.66052"><ele>1108.3333333333333</ele><time>2026-03-29T12:31:27.071Z</time></trkpt><trkpt lat="42.92042" lon="11.6605867"><ele>1108.0</ele><time>2026-03-29T12:31:28.072Z</time></trkpt><trkpt lat="42.9205033" lon="11.6606567"><ele>1108.8</ele><time>2026-03-29T12:31:29.072Z</time></trkpt><trkpt lat="42.9205833" lon="11.6607233"><ele>1109.6</ele><time>2026-03-29T12:31:30.072Z</time></trkpt><trkpt lat="42.9206717" lon="11.66078"><ele>1110.4</ele><time>2026-03-29T12:31:31.071Z</time></trkpt><trkpt lat="42.920755" lon="11.6608233"><ele>1111.2</ele><time>2026-03-29T12:31:32.072Z</time></trkpt><trkpt lat="42.920835" lon="11.6608733"><ele>1112.0</ele><time>2026-03-29T12:31:33.072Z</time></trkpt><trkpt lat="42.9210067" lon="11.66096"><ele>1109.6</ele><time>2026-03-29T12:31:35.071Z</time></trkpt><trkpt lat="42.921095" lon="11.6609883"><ele>1107.2</ele><time>2026-03-29T12:31:36.072Z</time></trkpt><trkpt lat="42.9211883" lon="11.661025"><ele>1104.8</ele><time>2026-03-29T12:31:37.072Z</time></trkpt><trkpt lat="42.92128" lon="11.6610483"><ele>1102.4</ele><time>2026-03-29T12:31:38.072Z</time></trkpt><trkpt lat="42.921375" lon="11.661065"><ele>1100.0</ele><time>2026-03-29T12:31:39.071Z</time></trkpt><trkpt lat="42.9214733" lon="11.661095"><ele>1100.8333333333335</ele><time>2026-03-29T12:31:40.072Z</time></trkpt><trkpt lat="42.921565" lon="11.6611233"><ele>1101.6666666666667</ele><time>2026-03-29T12:31:41.072Z</time></trkpt><trkpt lat="42.9216517" lon="11.6611417"><ele>1102.5</ele><time>2026-03-29T12:31:42.071Z</time></trkpt><trkpt lat="42.9217367" lon="11.661175"><ele>1103.3333333333333</ele><time>2026-03-29T12:31:43.071Z</time></trkpt><trkpt lat="42.92182" lon="11.661195"><ele>1104.1666666666665</ele><time>2026-03-29T12:31:44.072Z</time></trkpt><trkpt lat="42.921895" lon="11.6612"><ele>1105.0</ele><time>2026-03-29T12:31:45.072Z</time></trkpt><trkpt lat="42.921965" lon="11.6611933"><ele>1105.2</ele><time>2026-03-29T12:31:46.072Z</time></trkpt><trkpt lat="42.9220783" lon="11.6611767"><ele>1105.4</ele><time>2026-03-29T12:31:48.072Z</time></trkpt><trkpt lat="42.9221583" lon="11.66114"><ele>1105.6</ele><time>2026-03-29T12:31:50.072Z</time></trkpt><trkpt lat="42.9222467" lon="11.661145"><ele>1105.8</ele><time>2026-03-29T12:31:53.072Z</time></trkpt><trkpt lat="42.9223567" lon="11.6611517"><ele>1106.0</ele><time>2026-03-29T12:31:56.072Z</time></trkpt><trkpt lat="42.9224217" lon="11.661145"><ele>1106.0</ele><time>2026-03-29T12:31:58.071Z</time></trkpt><trkpt lat="42.9225192" lon="11.6611597"><ele>1106.0</ele><time>2026-03-29T12:32:02.072Z</time></trkpt><trkpt lat="42.9225947" lon="11.6611415"><ele>1106.0</ele><time>2026-03-29T12:32:05.106Z</time></trkpt><trkpt lat="42.922694" lon="11.6611204"><ele>1106.0</ele><time>2026-03-29T12:32:08.072Z</time></trkpt><trkpt lat="42.9227736" lon="11.6611077"><ele>1106.0</ele><time>2026-03-29T12:32:10.072Z</time></trkpt><trkpt lat="42.9228472" lon="11.6610828"><ele>1106.0</ele><time>2026-03-29T12:32:12.003Z</time></trkpt><trkpt lat="42.9229218" lon="11.6610436"><ele>1102.3999999999999</ele><time>2026-03-29T12:32:14.135Z</time></trkpt><trkpt lat="42.9230033" lon="11.6609928"><ele>1098.8</ele><time>2026-03-29T12:32:16.126Z</time></trkpt><trkpt lat="42.9230863" lon="11.6609367"><ele>1095.1999999999998</ele><time>2026-03-29T12:32:18.072Z</time></trkpt><trkpt lat="42.9231626" lon="11.6608727"><ele>1091.6</ele><time>2026-03-29T12:32:20.072Z</time></trkpt><trkpt lat="42.9232412" lon="11.6608083"><ele>1088.0</ele><time>2026-03-29T12:32:22.072Z</time></trkpt><trkpt lat="42.9233162" lon="11.6607435"><ele>1088.0</ele><time>2026-03-29T12:32:24.072Z</time></trkpt><trkpt lat="42.9233958" lon="11.6606796"><ele>1088.0</ele><time>2026-03-29T12:32:26.071Z</time></trkpt><trkpt lat="42.9234669" lon="11.6606437"><ele>1088.0</ele><time>2026-03-29T12:32:28.072Z</time></trkpt><trkpt lat="42.9235325" lon="11.6606096"><ele>1088.0</ele><time>2026-03-29T12:32:30.072Z</time></trkpt><trkpt lat="42.923594" lon="11.6605496"><ele>1088.0</ele><time>2026-03-29T12:32:32.072Z</time></trkpt><trkpt lat="42.9236181" lon="11.6604507"><ele>1088.0</ele><time>2026-03-29T12:32:34.072Z</time></trkpt><trkpt lat="42.9236059" lon="11.6603621"><ele>1085.1666666666667</ele><time>2026-03-29T12:32:36.071Z</time></trkpt><trkpt lat="42.9236023" lon="11.660236"><ele>1082.3333333333335</ele><time>2026-03-29T12:32:39.072Z</time></trkpt><trkpt lat="42.9236594" lon="11.6601552"><ele>1079.5</ele><time>2026-03-29T12:32:42.072Z</time></trkpt><trkpt lat="42.9237571" lon="11.6601195"><ele>1076.6666666666667</ele><time>2026-03-29T12:32:45.072Z</time></trkpt><trkpt lat="42.9238319" lon="11.6600769"><ele>1073.8333333333333</ele><time>2026-03-29T12:32:47.071Z</time></trkpt><trkpt lat="42.9238983" lon="11.6600412"><ele>1071.0</ele><time>2026-03-29T12:32:49.072Z</time></trkpt><trkpt lat="42.9239665" lon="11.6600244"><ele>1071.0</ele><time>2026-03-29T12:32:51.072Z</time></trkpt><trkpt lat="42.9240541" lon="11.6600019"><ele>1071.0</ele><time>2026-03-29T12:32:54.071Z</time></trkpt><trkpt lat="42.9241183" lon="11.6599931"><ele>1071.0</ele><time>2026-03-29T12:32:56.072Z</time></trkpt><trkpt lat="42.924191" lon="11.6599823"><ele>1071.0</ele><time>2026-03-29T12:32:59.13Z</time></trkpt><trkpt lat="42.9242565" lon="11.6599848"><ele>1071.0</ele><time>2026-03-29T12:33:01.129Z</time></trkpt><trkpt lat="42.9243234" lon="11.6599807"><ele>1071.0</ele><time>2026-03-29T12:33:03.147Z</time></trkpt><trkpt lat="42.9243925" lon="11.659983"><ele>1071.0</ele><time>2026-03-29T12:33:05.118Z</time></trkpt><trkpt lat="42.9244708" lon="11.6599897"><ele>1069.2</ele><time>2026-03-29T12:33:08.072Z</time></trkpt><trkpt lat="42.9245345" lon="11.6599715"><ele>1067.3999999999999</ele><time>2026-03-29T12:33:23.072Z</time></trkpt><trkpt lat="42.9246316" lon="11.6599283"><ele>1065.6</ele><time>2026-03-29T12:33:25.072Z</time></trkpt><trkpt lat="42.9247225" lon="11.6598821"><ele>1063.8</ele><time>2026-03-29T12:33:27.071Z</time></trkpt><trkpt lat="42.924795" lon="11.6598219"><ele>1062.0</ele><time>2026-03-29T12:33:29.072Z</time></trkpt><trkpt lat="42.9248967" lon="11.6597503"><ele>1062.0</ele><time>2026-03-29T12:33:31.071Z</time></trkpt><trkpt lat="42.9249748" lon="11.6596896"><ele>1062.0</ele><time>2026-03-29T12:33:32.072Z</time></trkpt><trkpt lat="42.9250583" lon="11.6596222"><ele>1062.0</ele><time>2026-03-29T12:33:33.072Z</time></trkpt><trkpt lat="42.9251365" lon="11.6595625"><ele>1062.0</ele><time>2026-03-29T12:33:34.072Z</time></trkpt><trkpt lat="42.9252019" lon="11.6595123"><ele>1062.0</ele><time>2026-03-29T12:33:35.071Z</time></trkpt><trkpt lat="42.9252586" lon="11.6594625"><ele>1062.0</ele><time>2026-03-29T12:33:36.072Z</time></trkpt><trkpt lat="42.9253667" lon="11.6593786"><ele>1060.1666666666667</ele><time>2026-03-29T12:33:38.072Z</time></trkpt><trkpt lat="42.9254253" lon="11.6593252"><ele>1058.3333333333333</ele><time>2026-03-29T12:33:39.072Z</time></trkpt><trkpt lat="42.9254786" lon="11.6592745"><ele>1056.5</ele><time>2026-03-29T12:33:40.071Z</time></trkpt><trkpt lat="42.9255804" lon="11.6592045"><ele>1054.6666666666665</ele><time>2026-03-29T12:33:42.072Z</time></trkpt><trkpt lat="42.9256483" lon="11.6591633"><ele>1052.8333333333333</ele><time>2026-03-29T12:33:44.072Z</time></trkpt><trkpt lat="42.9257133" lon="11.6591033"><ele>1051.0</ele><time>2026-03-29T12:33:48.072Z</time></trkpt><trkpt lat="42.92581" lon="11.65902"><ele>1051.0</ele><time>2026-03-29T12:35:10.073Z</time></trkpt><trkpt lat="42.925885" lon="11.658965"><ele>1051.0</ele><time>2026-03-29T12:35:13.073Z</time></trkpt><trkpt lat="42.92596" lon="11.658935"><ele>1051.0</ele><time>2026-03-29T12:35:16.073Z</time></trkpt><trkpt lat="42.92604" lon="11.658875"><ele>1051.0</ele><time>2026-03-29T12:35:19.073Z</time></trkpt><trkpt lat="42.9260917" lon="11.6588133"><ele>1051.0</ele><time>2026-03-29T12:35:21.073Z</time></trkpt><trkpt lat="42.92615" lon="11.6587433"><ele>1051.0</ele><time>2026-03-29T12:35:23.073Z</time></trkpt><trkpt lat="42.9261917" lon="11.6586683"><ele>1049.0</ele><time>2026-03-29T12:35:25.073Z</time></trkpt><trkpt lat="42.9262417" lon="11.6585833"><ele>1047.0</ele><time>2026-03-29T12:35:27.073Z</time></trkpt><trkpt lat="42.92629" lon="11.6585017"><ele>1045.0</ele><time>2026-03-29T12:35:29.073Z</time></trkpt><trkpt lat="42.9263417" lon="11.6583983"><ele>1043.0</ele><time>2026-03-29T12:35:32.073Z</time></trkpt><trkpt lat="42.9264" lon="11.6583067"><ele>1041.0</ele><time>2026-03-29T12:35:35.072Z</time></trkpt><trkpt lat="42.92646" lon="11.6582617"><ele>1039.0</ele><time>2026-03-29T12:35:37.072Z</time></trkpt><trkpt lat="42.9265367" lon="11.65821"><ele>1039.0</ele><time>2026-03-29T12:35:39.072Z</time></trkpt><trkpt lat="42.9266317" lon="11.658145"><ele>1039.0</ele><time>2026-03-29T12:35:41.073Z</time></trkpt><trkpt lat="42.9267117" lon="11.6580717"><ele>1039.0</ele><time>2026-03-29T12:35:43.073Z</time></trkpt><trkpt lat="42.9267617" lon="11.657995"><ele>1039.0</ele><time>2026-03-29T12:35:45.073Z</time></trkpt><trkpt lat="42.926805" lon="11.657875"><ele>1039.0</ele><time>2026-03-29T12:35:48.073Z</time></trkpt><trkpt lat="42.9268183" lon="11.6577833"><ele>1039.0</ele><time>2026-03-29T12:35:50.073Z</time></trkpt><trkpt lat="42.9268167" lon="11.657695"><ele>1037.2857142857142</ele><time>2026-03-29T12:35:52.073Z</time></trkpt><trkpt lat="42.9268033" lon="11.657585"><ele>1035.5714285714284</ele><time>2026-03-29T12:35:54.073Z</time></trkpt><trkpt lat="42.9267717" lon="11.6575017"><ele>1033.857142857143</ele><time>2026-03-29T12:35:56.073Z</time></trkpt><trkpt lat="42.92673" lon="11.6574267"><ele>1032.142857142857</ele><time>2026-03-29T12:35:58.073Z</time></trkpt><trkpt lat="42.92667" lon="11.6573683"><ele>1030.4285714285716</ele><time>2026-03-29T12:36:00.072Z</time></trkpt><trkpt lat="42.9266217" lon="11.65731"><ele>1028.7142857142858</ele><time>2026-03-29T12:36:02.073Z</time></trkpt><trkpt lat="42.926575" lon="11.657225"><ele>1027.0</ele><time>2026-03-29T12:36:05.073Z</time></trkpt><trkpt lat="42.9265833" lon="11.6571267"><ele>1027.0</ele><time>2026-03-29T12:36:07.073Z</time></trkpt><trkpt lat="42.9266017" lon="11.6570083"><ele>1027.0</ele><time>2026-03-29T12:36:09.073Z</time></trkpt><trkpt lat="42.9266683" lon="11.65688"><ele>1027.0</ele><time>2026-03-29T12:36:11.073Z</time></trkpt><trkpt lat="42.9267567" lon="11.6567467"><ele>1027.0</ele><time>2026-03-29T12:36:13.073Z</time></trkpt><trkpt lat="42.9268017" lon="11.6566133"><ele>1027.0</ele><time>2026-03-29T12:36:15.073Z</time></trkpt><trkpt lat="42.9268333" lon="11.6564717"><ele>1022.8333333333333</ele><time>2026-03-29T12:36:17.073Z</time></trkpt><trkpt lat="42.9268567" lon="11.65633"><ele>1018.6666666666666</ele><time>2026-03-29T12:36:19.072Z</time></trkpt><trkpt lat="42.9268633" lon="11.656205"><ele>1014.5</ele><time>2026-03-29T12:36:21.073Z</time></trkpt><trkpt lat="42.926845" lon="11.6561"><ele>1010.3333333333333</ele><time>2026-03-29T12:36:23.073Z</time></trkpt><trkpt lat="42.9268133" lon="11.656005"><ele>1006.1666666666666</ele><time>2026-03-29T12:36:25.073Z</time></trkpt><trkpt lat="42.9267733" lon="11.6558883"><ele>1002.0</ele><time>2026-03-29T12:36:27.073Z</time></trkpt><trkpt lat="42.9267283" lon="11.6557633"><ele>1001.2857142857143</ele><time>2026-03-29T12:36:29.072Z</time></trkpt><trkpt lat="42.92669" lon="11.6556467"><ele>1000.5714285714284</ele><time>2026-03-29T12:36:31.072Z</time></trkpt><trkpt lat="42.9266633" lon="11.6555617"><ele>999.8571428571428</ele><time>2026-03-29T12:36:33.073Z</time></trkpt><trkpt lat="42.9266283" lon="11.65548"><ele>999.1428571428571</ele><time>2026-03-29T12:36:35.073Z</time></trkpt><trkpt lat="42.9266" lon="11.6553917"><ele>998.4285714285713</ele><time>2026-03-29T12:36:37.072Z</time></trkpt><trkpt lat="42.9265733" lon="11.6553117"><ele>997.7142857142856</ele><time>2026-03-29T12:36:39.073Z</time></trkpt><trkpt lat="42.926545" lon="11.6552083"><ele>996.9999999999999</ele><time>2026-03-29T12:36:42.072Z</time></trkpt><trkpt lat="42.926555" lon="11.6551133"><ele>995.1666666666666</ele><time>2026-03-29T12:36:44.073Z</time></trkpt><trkpt lat="42.9266283" lon="11.6549683"><ele>993.3333333333333</ele><time>2026-03-29T12:36:46.073Z</time></trkpt><trkpt lat="42.9266783" lon="11.6548867"><ele>991.5</ele><time>2026-03-29T12:36:47.072Z</time></trkpt><trkpt lat="42.9267283" lon="11.6548"><ele>989.6666666666667</ele><time>2026-03-29T12:36:48.072Z</time></trkpt><trkpt lat="42.926775" lon="11.6547133"><ele>987.8333333333334</ele><time>2026-03-29T12:36:49.072Z</time></trkpt><trkpt lat="42.9268267" lon="11.654635"><ele>986.0</ele><time>2026-03-29T12:36:50.072Z</time></trkpt><trkpt lat="42.9268967" lon="11.6545483"><ele>985.0</ele><time>2026-03-29T12:36:52.073Z</time></trkpt><trkpt lat="42.9269517" lon="11.654615"><ele>983.9999999999999</ele><time>2026-03-29T12:36:56.073Z</time></trkpt><trkpt lat="42.926965" lon="11.6547383"><ele>982.9999999999999</ele><time>2026-03-29T12:36:58.073Z</time></trkpt><trkpt lat="42.92706" lon="11.6548733"><ele>982.0</ele><time>2026-03-29T12:37:00.073Z</time></trkpt><trkpt lat="42.9271633" lon="11.6549683"><ele>981.0</ele><time>2026-03-29T12:37:01.073Z</time></trkpt><trkpt lat="42.9272783" lon="11.655065"><ele>981.0</ele><time>2026-03-29T12:37:02.072Z</time></trkpt><trkpt lat="42.9273833" lon="11.6551667"><ele>980.9999999999999</ele><time>2026-03-29T12:37:03.073Z</time></trkpt><trkpt lat="42.9274717" lon="11.6552517"><ele>980.9999999999999</ele><time>2026-03-29T12:37:04.073Z</time></trkpt><trkpt lat="42.9275417" lon="11.6553367"><ele>981.0</ele><time>2026-03-29T12:37:05.073Z</time></trkpt><trkpt lat="42.9276" lon="11.65541"><ele>981.0</ele><time>2026-03-29T12:37:06.073Z</time></trkpt><trkpt lat="42.927665" lon="11.6554967"><ele>981.4</ele><time>2026-03-29T12:37:07.072Z</time></trkpt><trkpt lat="42.9277367" lon="11.6555817"><ele>981.8</ele><time>2026-03-29T12:37:08.073Z</time></trkpt><trkpt lat="42.92782" lon="11.6556583"><ele>982.1999999999999</ele><time>2026-03-29T12:37:09.073Z</time></trkpt><trkpt lat="42.9279167" lon="11.6557333"><ele>982.5999999999999</ele><time>2026-03-29T12:37:10.072Z</time></trkpt><trkpt lat="42.9280033" lon="11.655805"><ele>983.0</ele><time>2026-03-29T12:37:11.073Z</time></trkpt><trkpt lat="42.928095" lon="11.65588"><ele>983.0</ele><time>2026-03-29T12:37:12.073Z</time></trkpt><trkpt lat="42.9281783" lon="11.6559567"><ele>983.0</ele><time>2026-03-29T12:37:13.073Z</time></trkpt><trkpt lat="42.9282517" lon="11.6560483"><ele>983.0</ele><time>2026-03-29T12:37:14.073Z</time></trkpt><trkpt lat="42.9283183" lon="11.6561383"><ele>983.0</ele><time>2026-03-29T12:37:15.072Z</time></trkpt><trkpt lat="42.9283733" lon="11.6562267"><ele>983.0</ele><time>2026-03-29T12:37:16.073Z</time></trkpt><trkpt lat="42.9284183" lon="11.6563033"><ele>981.8333333333334</ele><time>2026-03-29T12:37:17.073Z</time></trkpt><trkpt lat="42.9284533" lon="11.6563817"><ele>980.6666666666667</ele><time>2026-03-29T12:37:18.073Z</time></trkpt><trkpt lat="42.9284783" lon="11.656465"><ele>979.5</ele><time>2026-03-29T12:37:19.073Z</time></trkpt><trkpt lat="42.92849" lon="11.6565767"><ele>978.3333333333333</ele><time>2026-03-29T12:37:20.072Z</time></trkpt><trkpt lat="42.9284817" lon="11.6566833"><ele>977.1666666666666</ele><time>2026-03-29T12:37:21.072Z</time></trkpt><trkpt lat="42.928485" lon="11.6567917"><ele>976.0</ele><time>2026-03-29T12:37:22.072Z</time></trkpt><trkpt lat="42.9285017" lon="11.6569017"><ele>978.6666666666666</ele><time>2026-03-29T12:37:23.073Z</time></trkpt><trkpt lat="42.9285283" lon="11.6570133"><ele>981.3333333333333</ele><time>2026-03-29T12:37:24.073Z</time></trkpt><trkpt lat="42.928565" lon="11.6570967"><ele>984.0</ele><time>2026-03-29T12:37:25.072Z</time></trkpt><trkpt lat="42.9286133" lon="11.6571667"><ele>986.6666666666667</ele><time>2026-03-29T12:37:26.072Z</time></trkpt><trkpt lat="42.928665" lon="11.6572283"><ele>989.3333333333334</ele><time>2026-03-29T12:37:27.073Z</time></trkpt><trkpt lat="42.9287633" lon="11.6572833"><ele>992.0</ele><time>2026-03-29T12:37:28.072Z</time></trkpt><trkpt lat="42.9288817" lon="11.657325"><ele>992.0</ele><time>2026-03-29T12:37:29.073Z</time></trkpt><trkpt lat="42.9290083" lon="11.6573433"><ele>992.0</ele><time>2026-03-29T12:37:30.072Z</time></trkpt><trkpt lat="42.929135" lon="11.657345"><ele>992.0</ele><time>2026-03-29T12:37:31.073Z</time></trkpt><trkpt lat="42.92927" lon="11.657335"><ele>992.0</ele><time>2026-03-29T12:37:32.072Z</time></trkpt><trkpt lat="42.929395" lon="11.6573183"><ele>990.5</ele><time>2026-03-29T12:37:33.072Z</time></trkpt><trkpt lat="42.9295267" lon="11.6572917"><ele>989.0</ele><time>2026-03-29T12:37:34.073Z</time></trkpt><trkpt lat="42.929635" lon="11.65727"><ele>987.5</ele><time>2026-03-29T12:37:35.073Z</time></trkpt><trkpt lat="42.9297533" lon="11.6572467"><ele>986.0</ele><time>2026-03-29T12:37:36.073Z</time></trkpt><trkpt lat="42.929855" lon="11.6572417"><ele>986.0</ele><time>2026-03-29T12:37:37.073Z</time></trkpt><trkpt lat="42.9299467" lon="11.657245"><ele>985.9999999999999</ele><time>2026-03-29T12:37:38.072Z</time></trkpt><trkpt lat="42.9300283" lon="11.6572583"><ele>985.9999999999999</ele><time>2026-03-29T12:37:39.072Z</time></trkpt><trkpt lat="42.9301133" lon="11.6572817"><ele>986.0</ele><time>2026-03-29T12:37:40.072Z</time></trkpt><trkpt lat="42.9302067" lon="11.6573067"><ele>986.0</ele><time>2026-03-29T12:37:41.073Z</time></trkpt><trkpt lat="42.930305" lon="11.6573267"><ele>984.5999999999999</ele><time>2026-03-29T12:37:42.073Z</time></trkpt><trkpt lat="42.9304167" lon="11.6573433"><ele>983.1999999999999</ele><time>2026-03-29T12:37:43.072Z</time></trkpt><trkpt lat="42.9305283" lon="11.6573617"><ele>981.8000000000001</ele><time>2026-03-29T12:37:44.072Z</time></trkpt><trkpt lat="42.9306383" lon="11.65738"><ele>980.4000000000001</ele><time>2026-03-29T12:37:45.073Z</time></trkpt><trkpt lat="42.9307467" lon="11.6574017"><ele>979.0</ele><time>2026-03-29T12:37:46.072Z</time></trkpt><trkpt lat="42.9308483" lon="11.657415"><ele>978.1666666666666</ele><time>2026-03-29T12:37:47.073Z</time></trkpt><trkpt lat="42.93095" lon="11.6574267"><ele>977.3333333333333</ele><time>2026-03-29T12:37:48.073Z</time></trkpt><trkpt lat="42.9310367" lon="11.65743"><ele>976.5</ele><time>2026-03-29T12:37:49.073Z</time></trkpt><trkpt lat="42.9311217" lon="11.657425"><ele>975.6666666666667</ele><time>2026-03-29T12:37:50.073Z</time></trkpt><trkpt lat="42.931205" lon="11.6574183"><ele>974.8333333333334</ele><time>2026-03-29T12:37:51.072Z</time></trkpt><trkpt lat="42.9312933" lon="11.6574033"><ele>974.0</ele><time>2026-03-29T12:37:52.073Z</time></trkpt><trkpt lat="42.931385" lon="11.6573967"><ele>974.0</ele><time>2026-03-29T12:37:53.072Z</time></trkpt><trkpt lat="42.93149" lon="11.6573933"><ele>974.0000000000001</ele><time>2026-03-29T12:37:54.073Z</time></trkpt><trkpt lat="42.931585" lon="11.6573767"><ele>974.0000000000001</ele><time>2026-03-29T12:37:55.073Z</time></trkpt><trkpt lat="42.9316783" lon="11.65735"><ele>974.0</ele><time>2026-03-29T12:37:56.072Z</time></trkpt><trkpt lat="42.93178" lon="11.6573133"><ele>974.0</ele><time>2026-03-29T12:37:57.073Z</time></trkpt><trkpt lat="42.931885" lon="11.657265"><ele>973.4000000000001</ele><time>2026-03-29T12:37:58.073Z</time></trkpt><trkpt lat="42.931995" lon="11.657215"><ele>972.8000000000001</ele><time>2026-03-29T12:37:59.072Z</time></trkpt><trkpt lat="42.932105" lon="11.6571683"><ele>972.1999999999999</ele><time>2026-03-29T12:38:00.073Z</time></trkpt><trkpt lat="42.932215" lon="11.6571317"><ele>971.5999999999999</ele><time>2026-03-29T12:38:01.073Z</time></trkpt><trkpt lat="42.9323117" lon="11.6570983"><ele>971.0</ele><time>2026-03-29T12:38:02.072Z</time></trkpt><trkpt lat="42.93239" lon="11.6570667"><ele>971.0</ele><time>2026-03-29T12:38:03.072Z</time></trkpt><trkpt lat="42.9324717" lon="11.65702"><ele>970.9999999999999</ele><time>2026-03-29T12:38:04.072Z</time></trkpt><trkpt lat="42.93255" lon="11.6569767"><ele>970.9999999999999</ele><time>2026-03-29T12:38:05.072Z</time></trkpt><trkpt lat="42.932635" lon="11.656935"><ele>971.0</ele><time>2026-03-29T12:38:06.073Z</time></trkpt><trkpt lat="42.9327217" lon="11.6569"><ele>971.0</ele><time>2026-03-29T12:38:07.073Z</time></trkpt><trkpt lat="42.9328183" lon="11.656875"><ele>970.4</ele><time>2026-03-29T12:38:08.073Z</time></trkpt><trkpt lat="42.9329067" lon="11.6568533"><ele>969.8</ele><time>2026-03-29T12:38:09.073Z</time></trkpt><trkpt lat="42.9330033" lon="11.656835"><ele>969.1999999999999</ele><time>2026-03-29T12:38:10.072Z</time></trkpt><trkpt lat="42.9331" lon="11.6568317"><ele>968.5999999999999</ele><time>2026-03-29T12:38:11.072Z</time></trkpt><trkpt lat="42.9332" lon="11.6568317"><ele>968.0</ele><time>2026-03-29T12:38:12.072Z</time></trkpt><trkpt lat="42.9332983" lon="11.656825"><ele>968.0</ele><time>2026-03-29T12:38:13.073Z</time></trkpt><trkpt lat="42.9333967" lon="11.6568333"><ele>968.0</ele><time>2026-03-29T12:38:14.073Z</time></trkpt><trkpt lat="42.9335017" lon="11.6568633"><ele>968.0</ele><time>2026-03-29T12:38:15.073Z</time></trkpt><trkpt lat="42.9336217" lon="11.6568867"><ele>968.0</ele><time>2026-03-29T12:38:16.073Z</time></trkpt><trkpt lat="42.9337567" lon="11.656925"><ele>968.5</ele><time>2026-03-29T12:38:17.072Z</time></trkpt><trkpt lat="42.9339" lon="11.6569767"><ele>969.0</ele><time>2026-03-29T12:38:18.073Z</time></trkpt><trkpt lat="42.93402" lon="11.6570083"><ele>969.5</ele><time>2026-03-29T12:38:19.072Z</time></trkpt><trkpt lat="42.9341183" lon="11.657035"><ele>970.0</ele><time>2026-03-29T12:38:20.072Z</time></trkpt><trkpt lat="42.9342033" lon="11.657095"><ele>969.6</ele><time>2026-03-29T12:38:21.073Z</time></trkpt><trkpt lat="42.9342967" lon="11.6571617"><ele>969.2</ele><time>2026-03-29T12:38:22.073Z</time></trkpt><trkpt lat="42.9343767" lon="11.65722"><ele>968.8</ele><time>2026-03-29T12:38:23.072Z</time></trkpt><trkpt lat="42.934475" lon="11.65725"><ele>968.4</ele><time>2026-03-29T12:38:24.073Z</time></trkpt><trkpt lat="42.934585" lon="11.6572617"><ele>968.0</ele><time>2026-03-29T12:38:25.072Z</time></trkpt><trkpt lat="42.9346967" lon="11.657265"><ele>968.0</ele><time>2026-03-29T12:38:26.073Z</time></trkpt><trkpt lat="42.9348033" lon="11.6572417"><ele>968.0</ele><time>2026-03-29T12:38:27.073Z</time></trkpt><trkpt lat="42.934895" lon="11.6572033"><ele>968.0</ele><time>2026-03-29T12:38:28.072Z</time></trkpt><trkpt lat="42.93498" lon="11.657155"><ele>968.0</ele><time>2026-03-29T12:38:29.072Z</time></trkpt><trkpt lat="42.9350733" lon="11.6570833"><ele>968.0</ele><time>2026-03-29T12:38:30.073Z</time></trkpt><trkpt lat="42.9351667" lon="11.6570317"><ele>968.5</ele><time>2026-03-29T12:38:31.073Z</time></trkpt><trkpt lat="42.9352617" lon="11.6570133"><ele>969.0</ele><time>2026-03-29T12:38:32.072Z</time></trkpt><trkpt lat="42.9353617" lon="11.6570233"><ele>969.5</ele><time>2026-03-29T12:38:33.073Z</time></trkpt><trkpt lat="42.9354783" lon="11.6570583"><ele>970.0</ele><time>2026-03-29T12:38:34.073Z</time></trkpt><trkpt lat="42.9356117" lon="11.65711"><ele>970.0</ele><time>2026-03-29T12:38:35.072Z</time></trkpt><trkpt lat="42.9357583" lon="11.6571683"><ele>970.0</ele><time>2026-03-29T12:38:36.073Z</time></trkpt><trkpt lat="42.9358783" lon="11.6572267"><ele>970.0</ele><time>2026-03-29T12:38:37.073Z</time></trkpt><trkpt lat="42.9359867" lon="11.657275"><ele>970.0</ele><time>2026-03-29T12:38:38.073Z</time></trkpt><trkpt lat="42.93608" lon="11.6573417"><ele>970.0</ele><time>2026-03-29T12:38:39.073Z</time></trkpt><trkpt lat="42.93617" lon="11.657425"><ele>970.0</ele><time>2026-03-29T12:38:40.073Z</time></trkpt><trkpt lat="42.93626" lon="11.6575317"><ele>970.0</ele><time>2026-03-29T12:38:41.073Z</time></trkpt><trkpt lat="42.9363417" lon="11.65767"><ele>970.0</ele><time>2026-03-29T12:38:42.072Z</time></trkpt><trkpt lat="42.9364167" lon="11.6578167"><ele>968.75</ele><time>2026-03-29T12:38:43.073Z</time></trkpt><trkpt lat="42.9364883" lon="11.6579433"><ele>967.5</ele><time>2026-03-29T12:38:44.072Z</time></trkpt><trkpt lat="42.9365617" lon="11.6580617"><ele>966.25</ele><time>2026-03-29T12:38:45.072Z</time></trkpt><trkpt lat="42.936625" lon="11.6581933"><ele>965.0</ele><time>2026-03-29T12:38:46.073Z</time></trkpt><trkpt lat="42.9366833" lon="11.6583217"><ele>963.2</ele><time>2026-03-29T12:38:47.073Z</time></trkpt><trkpt lat="42.936745" lon="11.6584483"><ele>961.4</ele><time>2026-03-29T12:38:48.072Z</time></trkpt><trkpt lat="42.9367983" lon="11.6585733"><ele>959.5999999999999</ele><time>2026-03-29T12:38:49.072Z</time></trkpt><trkpt lat="42.9368433" lon="11.658695"><ele>957.8</ele><time>2026-03-29T12:38:50.072Z</time></trkpt><trkpt lat="42.9368833" lon="11.658805"><ele>956.0</ele><time>2026-03-29T12:38:51.073Z</time></trkpt><trkpt lat="42.9369267" lon="11.6589083"><ele>956.0000000000001</ele><time>2026-03-29T12:38:52.073Z</time></trkpt><trkpt lat="42.9369683" lon="11.6590117"><ele>956.0</ele><time>2026-03-29T12:38:53.073Z</time></trkpt><trkpt lat="42.9370117" lon="11.6591"><ele>956.0000000000001</ele><time>2026-03-29T12:38:54.073Z</time></trkpt><trkpt lat="42.9370633" lon="11.659185"><ele>956.0000000000001</ele><time>2026-03-29T12:38:55.073Z</time></trkpt><trkpt lat="42.937105" lon="11.6592567"><ele>956.0</ele><time>2026-03-29T12:38:56.073Z</time></trkpt><trkpt lat="42.9371483" lon="11.6593267"><ele>956.0000000000001</ele><time>2026-03-29T12:38:57.073Z</time></trkpt><trkpt lat="42.937195" lon="11.659395"><ele>956.0000000000001</ele><time>2026-03-29T12:38:58.073Z</time></trkpt><trkpt lat="42.9372467" lon="11.6594617"><ele>955.1666666666667</ele><time>2026-03-29T12:38:59.073Z</time></trkpt><trkpt lat="42.9373017" lon="11.65952"><ele>954.3333333333334</ele><time>2026-03-29T12:39:00.072Z</time></trkpt><trkpt lat="42.9373617" lon="11.6595733"><ele>953.5</ele><time>2026-03-29T12:39:01.072Z</time></trkpt><trkpt lat="42.93742" lon="11.6596183"><ele>952.6666666666667</ele><time>2026-03-29T12:39:02.073Z</time></trkpt><trkpt lat="42.93749" lon="11.6596717"><ele>951.8333333333334</ele><time>2026-03-29T12:39:03.072Z</time></trkpt><trkpt lat="42.937565" lon="11.6597267"><ele>951.0</ele><time>2026-03-29T12:39:04.072Z</time></trkpt><trkpt lat="42.9376333" lon="11.659795"><ele>949.5999999999999</ele><time>2026-03-29T12:39:05.073Z</time></trkpt><trkpt lat="42.9376967" lon="11.6598817"><ele>948.1999999999999</ele><time>2026-03-29T12:39:06.073Z</time></trkpt><trkpt lat="42.9377533" lon="11.6599867"><ele>946.8000000000001</ele><time>2026-03-29T12:39:07.073Z</time></trkpt><trkpt lat="42.9378133" lon="11.6601167"><ele>945.4000000000001</ele><time>2026-03-29T12:39:08.073Z</time></trkpt><trkpt lat="42.93786" lon="11.6602583"><ele>944.0</ele><time>2026-03-29T12:39:09.073Z</time></trkpt><trkpt lat="42.93792" lon="11.6603983"><ele>942.5</ele><time>2026-03-29T12:39:10.073Z</time></trkpt><trkpt lat="42.9379767" lon="11.6605483"><ele>941.0</ele><time>2026-03-29T12:39:11.073Z</time></trkpt><trkpt lat="42.93803" lon="11.6606867"><ele>939.5</ele><time>2026-03-29T12:39:12.072Z</time></trkpt><trkpt lat="42.93808" lon="11.6608267"><ele>938.0</ele><time>2026-03-29T12:39:13.073Z</time></trkpt><trkpt lat="42.9381283" lon="11.66096"><ele>938.0000000000001</ele><time>2026-03-29T12:39:14.072Z</time></trkpt><trkpt lat="42.9381701" lon="11.6610742"><ele>938.0</ele><time>2026-03-29T12:39:15.073Z</time></trkpt><trkpt lat="42.9382176" lon="11.6611832"><ele>938.0</ele><time>2026-03-29T12:39:16.073Z</time></trkpt><trkpt lat="42.9382664" lon="11.6612775"><ele>938.0</ele><time>2026-03-29T12:39:17.073Z</time></trkpt><trkpt lat="42.9383091" lon="11.6613686"><ele>938.0000000000001</ele><time>2026-03-29T12:39:18.073Z</time></trkpt><trkpt lat="42.9383437" lon="11.6614529"><ele>938.0</ele><time>2026-03-29T12:39:19.073Z</time></trkpt><trkpt lat="42.9383782" lon="11.6615261"><ele>936.6666666666667</ele><time>2026-03-29T12:39:20.073Z</time></trkpt><trkpt lat="42.9384431" lon="11.6616232"><ele>935.3333333333334</ele><time>2026-03-29T12:39:22.073Z</time></trkpt><trkpt lat="42.9384917" lon="11.6616867"><ele>934.0</ele><time>2026-03-29T12:39:24.073Z</time></trkpt><trkpt lat="42.93855" lon="11.6618067"><ele>932.6666666666667</ele><time>2026-03-29T12:39:26.073Z</time></trkpt><trkpt lat="42.9385783" lon="11.6618867"><ele>931.3333333333334</ele><time>2026-03-29T12:39:27.073Z</time></trkpt><trkpt lat="42.9386033" lon="11.6619783"><ele>930.0</ele><time>2026-03-29T12:39:28.073Z</time></trkpt><trkpt lat="42.9386217" lon="11.6620683"><ele>929.6666666666666</ele><time>2026-03-29T12:39:29.072Z</time></trkpt><trkpt lat="42.9386367" lon="11.662165"><ele>929.3333333333333</ele><time>2026-03-29T12:39:30.073Z</time></trkpt><trkpt lat="42.938655" lon="11.6622633"><ele>929.0</ele><time>2026-03-29T12:39:31.072Z</time></trkpt><trkpt lat="42.9386767" lon="11.66237"><ele>928.6666666666666</ele><time>2026-03-29T12:39:32.073Z</time></trkpt><trkpt lat="42.9387117" lon="11.662475"><ele>928.3333333333333</ele><time>2026-03-29T12:39:33.073Z</time></trkpt><trkpt lat="42.93876" lon="11.66258"><ele>928.0</ele><time>2026-03-29T12:39:34.073Z</time></trkpt><trkpt lat="42.9388" lon="11.662675"><ele>927.9999999999999</ele><time>2026-03-29T12:39:35.073Z</time></trkpt><trkpt lat="42.9388467" lon="11.6627617"><ele>928.0</ele><time>2026-03-29T12:39:36.073Z</time></trkpt><trkpt lat="42.9389067" lon="11.662845"><ele>928.0</ele><time>2026-03-29T12:39:37.073Z</time></trkpt><trkpt lat="42.9389617" lon="11.6629367"><ele>928.0</ele><time>2026-03-29T12:39:38.073Z</time></trkpt><trkpt lat="42.9390133" lon="11.6630267"><ele>927.9999999999999</ele><time>2026-03-29T12:39:39.073Z</time></trkpt><trkpt lat="42.9390617" lon="11.6631167"><ele>928.0</ele><time>2026-03-29T12:39:40.073Z</time></trkpt><trkpt lat="42.9391" lon="11.6632217"><ele>928.1666666666666</ele><time>2026-03-29T12:39:41.073Z</time></trkpt><trkpt lat="42.9391333" lon="11.6633267"><ele>928.3333333333333</ele><time>2026-03-29T12:39:42.072Z</time></trkpt><trkpt lat="42.93917" lon="11.66342"><ele>928.5</ele><time>2026-03-29T12:39:43.073Z</time></trkpt><trkpt lat="42.939225" lon="11.6635117"><ele>928.6666666666667</ele><time>2026-03-29T12:39:44.072Z</time></trkpt><trkpt lat="42.9392833" lon="11.6635933"><ele>928.8333333333334</ele><time>2026-03-29T12:39:45.073Z</time></trkpt><trkpt lat="42.9393367" lon="11.6636783"><ele>929.0</ele><time>2026-03-29T12:39:46.073Z</time></trkpt><trkpt lat="42.9393967" lon="11.6637617"><ele>925.0</ele><time>2026-03-29T12:39:47.072Z</time></trkpt><trkpt lat="42.9394483" lon="11.6638633"><ele>921.0000000000001</ele><time>2026-03-29T12:39:48.073Z</time></trkpt><trkpt lat="42.9395" lon="11.663955"><ele>917.0000000000001</ele><time>2026-03-29T12:39:49.073Z</time></trkpt><trkpt lat="42.939555" lon="11.6640417"><ele>913.0</ele><time>2026-03-29T12:39:50.073Z</time></trkpt><trkpt lat="42.939615" lon="11.66414"><ele>909.0</ele><time>2026-03-29T12:39:51.073Z</time></trkpt><trkpt lat="42.9396717" lon="11.6642517"><ele>909.0</ele><time>2026-03-29T12:39:52.073Z</time></trkpt><trkpt lat="42.9397317" lon="11.664355"><ele>909.0000000000001</ele><time>2026-03-29T12:39:53.073Z</time></trkpt><trkpt lat="42.9397883" lon="11.66446"><ele>909.0000000000001</ele><time>2026-03-29T12:39:54.073Z</time></trkpt><trkpt lat="42.9398483" lon="11.6645617"><ele>909.0</ele><time>2026-03-29T12:39:55.073Z</time></trkpt><trkpt lat="42.9399033" lon="11.66467"><ele>909.0</ele><time>2026-03-29T12:39:56.072Z</time></trkpt><trkpt lat="42.9399617" lon="11.664765"><ele>907.8000000000001</ele><time>2026-03-29T12:39:57.073Z</time></trkpt><trkpt lat="42.9400067" lon="11.6648617"><ele>906.6000000000001</ele><time>2026-03-29T12:39:58.073Z</time></trkpt><trkpt lat="42.9400483" lon="11.6649833"><ele>905.4</ele><time>2026-03-29T12:39:59.073Z</time></trkpt><trkpt lat="42.9400683" lon="11.6651083"><ele>904.2</ele><time>2026-03-29T12:40:00.073Z</time></trkpt><trkpt lat="42.9400733" lon="11.66524"><ele>903.0</ele><time>2026-03-29T12:40:01.073Z</time></trkpt><trkpt lat="42.940085" lon="11.6653633"><ele>901.3333333333334</ele><time>2026-03-29T12:40:02.073Z</time></trkpt><trkpt lat="42.94011" lon="11.66547"><ele>899.6666666666667</ele><time>2026-03-29T12:40:03.073Z</time></trkpt><trkpt lat="42.940145" lon="11.6655433"><ele>898.0</ele><time>2026-03-29T12:40:04.073Z</time></trkpt><trkpt lat="42.9402317" lon="11.6656333"><ele>896.3333333333334</ele><time>2026-03-29T12:40:06.072Z</time></trkpt><trkpt lat="42.9403067" lon="11.6656617"><ele>894.6666666666667</ele><time>2026-03-29T12:40:08.073Z</time></trkpt><trkpt lat="42.9404117" lon="11.6656217"><ele>893.0</ele><time>2026-03-29T12:40:10.073Z</time></trkpt><trkpt lat="42.940475" lon="11.6656067"><ele>893.0000000000001</ele><time>2026-03-29T12:40:11.072Z</time></trkpt><trkpt lat="42.94055" lon="11.6656333"><ele>893.0</ele><time>2026-03-29T12:40:12.073Z</time></trkpt><trkpt lat="42.940625" lon="11.6656717"><ele>893.0</ele><time>2026-03-29T12:40:13.072Z</time></trkpt><trkpt lat="42.9406833" lon="11.6657133"><ele>893.0</ele><time>2026-03-29T12:40:14.073Z</time></trkpt><trkpt lat="42.94076" lon="11.6657067"><ele>893.0000000000001</ele><time>2026-03-29T12:40:16.073Z</time></trkpt><trkpt lat="42.9407367" lon="11.66557"><ele>893.0</ele><time>2026-03-29T12:40:29.073Z</time></trkpt><trkpt lat="42.9407033" lon="11.6654467"><ele>893.0000000000001</ele><time>2026-03-29T12:40:31.072Z</time></trkpt><trkpt lat="42.94068" lon="11.6653533"><ele>893.0</ele><time>2026-03-29T12:40:33.073Z</time></trkpt><trkpt lat="42.9406583" lon="11.6652117"><ele>893.0</ele><time>2026-03-29T12:40:35.072Z</time></trkpt><trkpt lat="42.9406617" lon="11.66505"><ele>893.0</ele><time>2026-03-29T12:40:37.073Z</time></trkpt><trkpt lat="42.940665" lon="11.6649633"><ele>893.0000000000001</ele><time>2026-03-29T12:40:38.072Z</time></trkpt><trkpt lat="42.940675" lon="11.6648667"><ele>893.0</ele><time>2026-03-29T12:40:39.072Z</time></trkpt><trkpt lat="42.9406917" lon="11.664755"><ele>892.5000000000001</ele><time>2026-03-29T12:40:40.072Z</time></trkpt><trkpt lat="42.9407017" lon="11.6646383"><ele>892.0</ele><time>2026-03-29T12:40:41.073Z</time></trkpt><trkpt lat="42.94071" lon="11.6645317"><ele>891.5</ele><time>2026-03-29T12:40:42.073Z</time></trkpt><trkpt lat="42.940715" lon="11.6644317"><ele>891.0</ele><time>2026-03-29T12:40:43.073Z</time></trkpt><trkpt lat="42.940725" lon="11.66432"><ele>890.5000000000001</ele><time>2026-03-29T12:40:44.072Z</time></trkpt><trkpt lat="42.9407467" lon="11.6642067"><ele>890.0</ele><time>2026-03-29T12:40:45.073Z</time></trkpt><trkpt lat="42.94078" lon="11.6640967"><ele>888.4</ele><time>2026-03-29T12:40:46.073Z</time></trkpt><trkpt lat="42.9408233" lon="11.663985"><ele>886.8</ele><time>2026-03-29T12:40:47.073Z</time></trkpt><trkpt lat="42.9408767" lon="11.663865"><ele>885.2</ele><time>2026-03-29T12:40:48.073Z</time></trkpt><trkpt lat="42.9409317" lon="11.6637383"><ele>883.6</ele><time>2026-03-29T12:40:49.073Z</time></trkpt><trkpt lat="42.9409867" lon="11.663605"><ele>882.0</ele><time>2026-03-29T12:40:50.073Z</time></trkpt><trkpt lat="42.9410383" lon="11.6634817"><ele>878.4000000000001</ele><time>2026-03-29T12:40:51.072Z</time></trkpt><trkpt lat="42.9410933" lon="11.6633667"><ele>874.8000000000001</ele><time>2026-03-29T12:40:52.072Z</time></trkpt><trkpt lat="42.9411467" lon="11.66326"><ele>871.2</ele><time>2026-03-29T12:40:53.073Z</time></trkpt><trkpt lat="42.9412" lon="11.6631717"><ele>867.6</ele><time>2026-03-29T12:40:54.073Z</time></trkpt><trkpt lat="42.9412517" lon="11.6630767"><ele>864.0</ele><time>2026-03-29T12:40:55.072Z</time></trkpt><trkpt lat="42.9413017" lon="11.6629817"><ele>864.0</ele><time>2026-03-29T12:40:56.073Z</time></trkpt><trkpt lat="42.941355" lon="11.66289"><ele>864.0000000000001</ele><time>2026-03-29T12:40:57.073Z</time></trkpt><trkpt lat="42.9414117" lon="11.6627933"><ele>864.0000000000001</ele><time>2026-03-29T12:40:58.073Z</time></trkpt><trkpt lat="42.94147" lon="11.6627"><ele>864.0</ele><time>2026-03-29T12:40:59.073Z</time></trkpt><trkpt lat="42.9415517" lon="11.66259"><ele>864.0</ele><time>2026-03-29T12:41:00.073Z</time></trkpt><trkpt lat="42.9416333" lon="11.66249"><ele>860.4000000000001</ele><time>2026-03-29T12:41:01.073Z</time></trkpt><trkpt lat="42.9417167" lon="11.6623983"><ele>856.8000000000001</ele><time>2026-03-29T12:41:02.073Z</time></trkpt><trkpt lat="42.9417933" lon="11.66232"><ele>853.2</ele><time>2026-03-29T12:41:03.073Z</time></trkpt><trkpt lat="42.94187" lon="11.662245"><ele>849.5999999999999</ele><time>2026-03-29T12:41:04.073Z</time></trkpt><trkpt lat="42.9419433" lon="11.66217"><ele>846.0</ele><time>2026-03-29T12:41:05.072Z</time></trkpt><trkpt lat="42.9420183" lon="11.6620833"><ele>846.0</ele><time>2026-03-29T12:41:06.072Z</time></trkpt><trkpt lat="42.9420883" lon="11.661995"><ele>846.0</ele><time>2026-03-29T12:41:07.073Z</time></trkpt><trkpt lat="42.9421617" lon="11.6619033"><ele>846.0</ele><time>2026-03-29T12:41:08.073Z</time></trkpt><trkpt lat="42.94224" lon="11.66181"><ele>846.0</ele><time>2026-03-29T12:41:09.072Z</time></trkpt><trkpt lat="42.9423267" lon="11.6617367"><ele>846.0</ele><time>2026-03-29T12:41:10.073Z</time></trkpt><trkpt lat="42.9424233" lon="11.66166"><ele>845.8</ele><time>2026-03-29T12:41:11.073Z</time></trkpt><trkpt lat="42.942515" lon="11.6615767"><ele>845.5999999999999</ele><time>2026-03-29T12:41:12.072Z</time></trkpt><trkpt lat="42.9426109" lon="11.6615002"><ele>845.4</ele><time>2026-03-29T12:41:13.072Z</time></trkpt><trkpt lat="42.9427094" lon="11.661423"><ele>845.2</ele><time>2026-03-29T12:41:14.073Z</time></trkpt><trkpt lat="42.9428068" lon="11.6613577"><ele>845.0</ele><time>2026-03-29T12:41:15.073Z</time></trkpt><trkpt lat="42.9429007" lon="11.6612994"><ele>842.8333333333334</ele><time>2026-03-29T12:41:16.073Z</time></trkpt><trkpt lat="42.942989" lon="11.6612404"><ele>840.6666666666667</ele><time>2026-03-29T12:41:17.073Z</time></trkpt><trkpt lat="42.9430693" lon="11.6611805"><ele>838.5</ele><time>2026-03-29T12:41:18.073Z</time></trkpt><trkpt lat="42.9431398" lon="11.661128"><ele>836.3333333333333</ele><time>2026-03-29T12:41:19.073Z</time></trkpt><trkpt lat="42.9432097" lon="11.6610868"><ele>834.1666666666666</ele><time>2026-03-29T12:41:20.073Z</time></trkpt><trkpt lat="42.9432775" lon="11.6610756"><ele>832.0</ele><time>2026-03-29T12:41:21.073Z</time></trkpt><trkpt lat="42.9433492" lon="11.6610784"><ele>827.2</ele><time>2026-03-29T12:41:22.073Z</time></trkpt><trkpt lat="42.9434207" lon="11.6611314"><ele>822.4000000000001</ele><time>2026-03-29T12:41:23.073Z</time></trkpt><trkpt lat="42.9434861" lon="11.6612231"><ele>817.5999999999999</ele><time>2026-03-29T12:41:24.072Z</time></trkpt><trkpt lat="42.9435342" lon="11.6613384"><ele>812.8</ele><time>2026-03-29T12:41:25.073Z</time></trkpt><trkpt lat="42.943565" lon="11.6614739"><ele>808.0</ele><time>2026-03-29T12:41:26.072Z</time></trkpt><trkpt lat="42.9435901" lon="11.6616205"><ele>808.0</ele><time>2026-03-29T12:41:27.073Z</time></trkpt><trkpt lat="42.9436153" lon="11.6617608"><ele>808.0</ele><time>2026-03-29T12:41:28.072Z</time></trkpt><trkpt lat="42.9436488" lon="11.6618924"><ele>808.0</ele><time>2026-03-29T12:41:29.073Z</time></trkpt><trkpt lat="42.9437134" lon="11.6620058"><ele>808.0</ele><time>2026-03-29T12:41:30.073Z</time></trkpt><trkpt lat="42.9437916" lon="11.6621195"><ele>808.0</ele><time>2026-03-29T12:41:31.072Z</time></trkpt><trkpt lat="42.9438913" lon="11.6622342"><ele>807.5</ele><time>2026-03-29T12:41:32.073Z</time></trkpt><trkpt lat="42.9439912" lon="11.6623469"><ele>807.0</ele><time>2026-03-29T12:41:33.072Z</time></trkpt><trkpt lat="42.9440851" lon="11.6624528"><ele>806.5</ele><time>2026-03-29T12:41:34.073Z</time></trkpt><trkpt lat="42.9441786" lon="11.6625543"><ele>806.0</ele><time>2026-03-29T12:41:35.073Z</time></trkpt><trkpt lat="42.9442725" lon="11.6626444"><ele>803.1999999999999</ele><time>2026-03-29T12:41:36.073Z</time></trkpt><trkpt lat="42.9443639" lon="11.6627278"><ele>800.4</ele><time>2026-03-29T12:41:37.073Z</time></trkpt><trkpt lat="42.9444518" lon="11.6628014"><ele>797.6</ele><time>2026-03-29T12:41:38.072Z</time></trkpt><trkpt lat="42.9445385" lon="11.6628696"><ele>794.8</ele><time>2026-03-29T12:41:39.073Z</time></trkpt><trkpt lat="42.9446289" lon="11.6629338"><ele>792.0</ele><time>2026-03-29T12:41:40.073Z</time></trkpt><trkpt lat="42.9447216" lon="11.6629926"><ele>792.0</ele><time>2026-03-29T12:41:41.072Z</time></trkpt><trkpt lat="42.944818" lon="11.6630372"><ele>792.0</ele><time>2026-03-29T12:41:42.073Z</time></trkpt><trkpt lat="42.9449242" lon="11.6630687"><ele>792.0</ele><time>2026-03-29T12:41:43.073Z</time></trkpt><trkpt lat="42.9450383" lon="11.6630974"><ele>792.0</ele><time>2026-03-29T12:41:44.072Z</time></trkpt><trkpt lat="42.9451508" lon="11.6631363"><ele>792.0</ele><time>2026-03-29T12:41:45.073Z</time></trkpt><trkpt lat="42.9452614" lon="11.6631923"><ele>789.6</ele><time>2026-03-29T12:41:46.072Z</time></trkpt><trkpt lat="42.9453711" lon="11.6632545"><ele>787.2</ele><time>2026-03-29T12:41:47.072Z</time></trkpt><trkpt lat="42.9454767" lon="11.6633124"><ele>784.8</ele><time>2026-03-29T12:41:48.073Z</time></trkpt><trkpt lat="42.945576" lon="11.6633611"><ele>782.4</ele><time>2026-03-29T12:41:49.073Z</time></trkpt><trkpt lat="42.945664" lon="11.6634012"><ele>780.0</ele><time>2026-03-29T12:41:50.073Z</time></trkpt><trkpt lat="42.9457321" lon="11.6634488"><ele>780.0</ele><time>2026-03-29T12:41:51.072Z</time></trkpt><trkpt lat="42.9457722" lon="11.6635162"><ele>780.0</ele><time>2026-03-29T12:41:52.073Z</time></trkpt><trkpt lat="42.9458086" lon="11.6636"><ele>780.0</ele><time>2026-03-29T12:41:53.073Z</time></trkpt><trkpt lat="42.9458414" lon="11.6637161"><ele>780.0</ele><time>2026-03-29T12:41:54.073Z</time></trkpt><trkpt lat="42.9458891" lon="11.6638463"><ele>780.0</ele><time>2026-03-29T12:41:55.073Z</time></trkpt><trkpt lat="42.9459451" lon="11.6639778"><ele>780.0</ele><time>2026-03-29T12:41:56.072Z</time></trkpt><trkpt lat="42.9459981" lon="11.6640932"><ele>778.6666666666666</ele><time>2026-03-29T12:41:57.072Z</time></trkpt><trkpt lat="42.9460422" lon="11.664206"><ele>777.3333333333333</ele><time>2026-03-29T12:41:58.073Z</time></trkpt><trkpt lat="42.946077" lon="11.6643147"><ele>776.0</ele><time>2026-03-29T12:41:59.072Z</time></trkpt><trkpt lat="42.9461095" lon="11.6644208"><ele>774.6666666666666</ele><time>2026-03-29T12:42:00.072Z</time></trkpt><trkpt lat="42.9461351" lon="11.664524"><ele>773.3333333333333</ele><time>2026-03-29T12:42:01.072Z</time></trkpt><trkpt lat="42.9461542" lon="11.6646277"><ele>772.0</ele><time>2026-03-29T12:42:02.073Z</time></trkpt><trkpt lat="42.9461674" lon="11.6647344"><ele>771.9999999999999</ele><time>2026-03-29T12:42:03.073Z</time></trkpt><trkpt lat="42.9461765" lon="11.664839"><ele>772.0</ele><time>2026-03-29T12:42:04.073Z</time></trkpt><trkpt lat="42.9461758" lon="11.6649474"><ele>772.0</ele><time>2026-03-29T12:42:05.073Z</time></trkpt><trkpt lat="42.9461695" lon="11.6650542"><ele>772.0</ele><time>2026-03-29T12:42:06.073Z</time></trkpt><trkpt lat="42.9461589" lon="11.6651509"><ele>771.9999999999999</ele><time>2026-03-29T12:42:07.073Z</time></trkpt><trkpt lat="42.9461213" lon="11.6652802"><ele>772.0</ele><time>2026-03-29T12:42:09.073Z</time></trkpt><trkpt lat="42.9462217" lon="11.66522"><ele>772.0</ele><time>2026-03-29T12:42:15.073Z</time></trkpt><trkpt lat="42.946335" lon="11.66517"><ele>772.0</ele><time>2026-03-29T12:42:17.073Z</time></trkpt><trkpt lat="42.9464383" lon="11.665195"><ele>772.0</ele><time>2026-03-29T12:42:19.073Z</time></trkpt><trkpt lat="42.9465567" lon="11.665205"><ele>772.0</ele><time>2026-03-29T12:42:21.073Z</time></trkpt><trkpt lat="42.9466467" lon="11.665135"><ele>772.0</ele><time>2026-03-29T12:42:23.073Z</time></trkpt><trkpt lat="42.9466617" lon="11.6650467"><ele>772.0</ele><time>2026-03-29T12:42:26.072Z</time></trkpt><trkpt lat="42.9465883" lon="11.665125"><ele>772.0</ele><time>2026-03-29T12:42:30.073Z</time></trkpt><trkpt lat="42.9465267" lon="11.6651783"><ele>772.0</ele><time>2026-03-29T12:42:32.073Z</time></trkpt><trkpt lat="42.9464317" lon="11.6651717"><ele>772.0</ele><time>2026-03-29T12:42:34.073Z</time></trkpt><trkpt lat="42.9463233" lon="11.66517"><ele>772.0</ele><time>2026-03-29T12:42:36.073Z</time></trkpt><trkpt lat="42.94621" lon="11.6651983"><ele>772.0</ele><time>2026-03-29T12:42:38.073Z</time></trkpt><trkpt lat="42.9461217" lon="11.6652633"><ele>772.0</ele><time>2026-03-29T12:42:40.072Z</time></trkpt><trkpt lat="42.9460517" lon="11.6653667"><ele>772.0</ele><time>2026-03-29T12:42:42.073Z</time></trkpt><trkpt lat="42.94601" lon="11.66554"><ele>772.0</ele><time>2026-03-29T12:42:44.073Z</time></trkpt><trkpt lat="42.9459967" lon="11.6656467"><ele>772.0</ele><time>2026-03-29T12:42:45.073Z</time></trkpt><trkpt lat="42.9459733" lon="11.665745"><ele>770.2</ele><time>2026-03-29T12:42:46.072Z</time></trkpt><trkpt lat="42.94595" lon="11.665835"><ele>768.4000000000001</ele><time>2026-03-29T12:42:47.072Z</time></trkpt><trkpt lat="42.94592" lon="11.665915"><ele>766.5999999999999</ele><time>2026-03-29T12:42:48.072Z</time></trkpt><trkpt lat="42.9459083" lon="11.6660683"><ele>764.8</ele><time>2026-03-29T12:42:50.073Z</time></trkpt><trkpt lat="42.9459267" lon="11.666175"><ele>763.0</ele><time>2026-03-29T12:42:52.073Z</time></trkpt><trkpt lat="42.9460683" lon="11.6661867"><ele>760.8</ele><time>2026-03-29T12:42:56.072Z</time></trkpt><trkpt lat="42.9461367" lon="11.6661483"><ele>758.5999999999999</ele><time>2026-03-29T12:42:57.073Z</time></trkpt><trkpt lat="42.94622" lon="11.6661433"><ele>756.4000000000001</ele><time>2026-03-29T12:42:58.072Z</time></trkpt><trkpt lat="42.94634" lon="11.66617"><ele>754.2</ele><time>2026-03-29T12:42:59.073Z</time></trkpt><trkpt lat="42.94646" lon="11.6662017"><ele>752.0</ele><time>2026-03-29T12:43:00.073Z</time></trkpt><trkpt lat="42.9465767" lon="11.66623"><ele>752.0</ele><time>2026-03-29T12:43:01.073Z</time></trkpt><trkpt lat="42.9466917" lon="11.6662267"><ele>752.0</ele><time>2026-03-29T12:43:02.073Z</time></trkpt><trkpt lat="42.9468" lon="11.6661933"><ele>752.0</ele><time>2026-03-29T12:43:03.073Z</time></trkpt><trkpt lat="42.9469133" lon="11.666125"><ele>752.0</ele><time>2026-03-29T12:43:04.073Z</time></trkpt><trkpt lat="42.9470183" lon="11.6660133"><ele>750.5</ele><time>2026-03-29T12:43:05.073Z</time></trkpt><trkpt lat="42.9471183" lon="11.6658917"><ele>749.0</ele><time>2026-03-29T12:43:06.072Z</time></trkpt><trkpt lat="42.9472233" lon="11.6657583"><ele>747.5</ele><time>2026-03-29T12:43:07.073Z</time></trkpt><trkpt lat="42.947335" lon="11.6656317"><ele>746.0</ele><time>2026-03-29T12:43:08.073Z</time></trkpt><trkpt lat="42.94745" lon="11.6655133"><ele>745.0</ele><time>2026-03-29T12:43:09.072Z</time></trkpt><trkpt lat="42.9475667" lon="11.6654067"><ele>744.0</ele><time>2026-03-29T12:43:10.073Z</time></trkpt><trkpt lat="42.9476933" lon="11.6653183"><ele>743.0</ele><time>2026-03-29T12:43:11.073Z</time></trkpt><trkpt lat="42.9478117" lon="11.665225"><ele>742.0</ele><time>2026-03-29T12:43:12.073Z</time></trkpt><trkpt lat="42.9479233" lon="11.6651233"><ele>742.0</ele><time>2026-03-29T12:43:13.073Z</time></trkpt><trkpt lat="42.9480267" lon="11.6650183"><ele>742.0</ele><time>2026-03-29T12:43:14.073Z</time></trkpt><trkpt lat="42.94812" lon="11.6649083"><ele>742.0</ele><time>2026-03-29T12:43:15.073Z</time></trkpt><trkpt lat="42.9482" lon="11.6647917"><ele>742.0</ele><time>2026-03-29T12:43:16.073Z</time></trkpt><trkpt lat="42.9482733" lon="11.664665"><ele>742.0</ele><time>2026-03-29T12:43:17.073Z</time></trkpt><trkpt lat="42.9483433" lon="11.6645233"><ele>742.0</ele><time>2026-03-29T12:43:18.073Z</time></trkpt><trkpt lat="42.948415" lon="11.6643617"><ele>742.0</ele><time>2026-03-29T12:43:19.073Z</time></trkpt><trkpt lat="42.948485" lon="11.664195"><ele>742.0</ele><time>2026-03-29T12:43:20.072Z</time></trkpt><trkpt lat="42.94856" lon="11.6640217"><ele>737.6666666666667</ele><time>2026-03-29T12:43:21.073Z</time></trkpt><trkpt lat="42.9486383" lon="11.6638433"><ele>733.3333333333334</ele><time>2026-03-29T12:43:22.073Z</time></trkpt><trkpt lat="42.9487167" lon="11.663665"><ele>729.0</ele><time>2026-03-29T12:43:23.072Z</time></trkpt><trkpt lat="42.9487917" lon="11.663485"><ele>729.0</ele><time>2026-03-29T12:43:24.073Z</time></trkpt><trkpt lat="42.9488617" lon="11.6633083"><ele>729.0</ele><time>2026-03-29T12:43:25.072Z</time></trkpt><trkpt lat="42.94894" lon="11.66313"><ele>729.0</ele><time>2026-03-29T12:43:26.073Z</time></trkpt><trkpt lat="42.949015" lon="11.6629483"><ele>729.0</ele><time>2026-03-29T12:43:27.072Z</time></trkpt><trkpt lat="42.949105" lon="11.6628067"><ele>729.0</ele><time>2026-03-29T12:43:28.073Z</time></trkpt><trkpt lat="42.94919" lon="11.6626717"><ele>729.0</ele><time>2026-03-29T12:43:29.073Z</time></trkpt><trkpt lat="42.9492967" lon="11.6625917"><ele>729.0</ele><time>2026-03-29T12:43:30.073Z</time></trkpt><trkpt lat="42.949415" lon="11.662575"><ele>724.5</ele><time>2026-03-29T12:43:31.073Z</time></trkpt><trkpt lat="42.9495383" lon="11.66261"><ele>720.0</ele><time>2026-03-29T12:43:32.073Z</time></trkpt><trkpt lat="42.9496517" lon="11.66267"><ele>715.5</ele><time>2026-03-29T12:43:33.074Z</time></trkpt><trkpt lat="42.9497467" lon="11.6627517"><ele>711.0</ele><time>2026-03-29T12:43:34.074Z</time></trkpt><trkpt lat="42.9498117" lon="11.6628617"><ele>711.0</ele><time>2026-03-29T12:43:35.074Z</time></trkpt><trkpt lat="42.9498583" lon="11.6629917"><ele>711.0</ele><time>2026-03-29T12:43:36.074Z</time></trkpt><trkpt lat="42.9498867" lon="11.6631217"><ele>711.0</ele><time>2026-03-29T12:43:37.074Z</time></trkpt><trkpt lat="42.9498867" lon="11.6632367"><ele>711.0</ele><time>2026-03-29T12:43:38.073Z</time></trkpt><trkpt lat="42.9498717" lon="11.66334"><ele>711.0</ele><time>2026-03-29T12:43:39.074Z</time></trkpt><trkpt lat="42.9498417" lon="11.6634833"><ele>710.5</ele><time>2026-03-29T12:43:41.074Z</time></trkpt><trkpt lat="42.9498417" lon="11.6636267"><ele>710.0</ele><time>2026-03-29T12:44:41.074Z</time></trkpt><trkpt lat="42.94985" lon="11.66372"><ele>709.5</ele><time>2026-03-29T12:44:42.073Z</time></trkpt><trkpt lat="42.9498533" lon="11.6638317"><ele>709.0</ele><time>2026-03-29T12:44:43.074Z</time></trkpt><trkpt lat="42.9498533" lon="11.6639483"><ele>708.5</ele><time>2026-03-29T12:44:44.073Z</time></trkpt><trkpt lat="42.9498433" lon="11.66408"><ele>708.0</ele><time>2026-03-29T12:44:45.073Z</time></trkpt><trkpt lat="42.9498317" lon="11.6642233"><ele>708.0</ele><time>2026-03-29T12:44:46.074Z</time></trkpt><trkpt lat="42.9498233" lon="11.6643667"><ele>708.0</ele><time>2026-03-29T12:44:47.074Z</time></trkpt><trkpt lat="42.94982" lon="11.66452"><ele>708.0</ele><time>2026-03-29T12:44:48.074Z</time></trkpt><trkpt lat="42.9498167" lon="11.664675"><ele>708.0</ele><time>2026-03-29T12:44:49.074Z</time></trkpt><trkpt lat="42.9498217" lon="11.6648317"><ele>708.0</ele><time>2026-03-29T12:44:50.074Z</time></trkpt><trkpt lat="42.9498517" lon="11.6649867"><ele>708.0</ele><time>2026-03-29T12:44:51.074Z</time></trkpt><trkpt lat="42.9498883" lon="11.66514"><ele>708.0</ele><time>2026-03-29T12:44:52.074Z</time></trkpt><trkpt lat="42.9499233" lon="11.6653"><ele>708.0</ele><time>2026-03-29T12:44:53.074Z</time></trkpt><trkpt lat="42.9499667" lon="11.6654567"><ele>708.0</ele><time>2026-03-29T12:44:54.074Z</time></trkpt><trkpt lat="42.950015" lon="11.665615"><ele>706.0</ele><time>2026-03-29T12:44:55.074Z</time></trkpt><trkpt lat="42.9500617" lon="11.66577"><ele>704.0</ele><time>2026-03-29T12:44:56.074Z</time></trkpt><trkpt lat="42.95011" lon="11.6659283"><ele>702.0</ele><time>2026-03-29T12:44:57.074Z</time></trkpt><trkpt lat="42.9501617" lon="11.666085"><ele>700.0</ele><time>2026-03-29T12:44:58.074Z</time></trkpt><trkpt lat="42.9502067" lon="11.6662333"><ele>700.0</ele><time>2026-03-29T12:44:59.074Z</time></trkpt><trkpt lat="42.9502733" lon="11.6663683"><ele>700.0</ele><time>2026-03-29T12:45:00.074Z</time></trkpt><trkpt lat="42.950345" lon="11.6665033"><ele>700.0</ele><time>2026-03-29T12:45:01.074Z</time></trkpt><trkpt lat="42.9504317" lon="11.6666117"><ele>700.0</ele><time>2026-03-29T12:45:02.074Z</time></trkpt><trkpt lat="42.950525" lon="11.6667133"><ele>700.0</ele><time>2026-03-29T12:45:03.074Z</time></trkpt><trkpt lat="42.9506167" lon="11.6668233"><ele>700.0</ele><time>2026-03-29T12:45:04.073Z</time></trkpt><trkpt lat="42.9507067" lon="11.6669233"><ele>700.0</ele><time>2026-03-29T12:45:05.074Z</time></trkpt><trkpt lat="42.9508017" lon="11.66702"><ele>700.0</ele><time>2026-03-29T12:45:06.073Z</time></trkpt><trkpt lat="42.9508983" lon="11.6671083"><ele>697.4</ele><time>2026-03-29T12:45:07.074Z</time></trkpt><trkpt lat="42.95099" lon="11.6671917"><ele>694.8</ele><time>2026-03-29T12:45:08.074Z</time></trkpt><trkpt lat="42.9510883" lon="11.6672617"><ele>692.2</ele><time>2026-03-29T12:45:09.074Z</time></trkpt><trkpt lat="42.95119" lon="11.6673183"><ele>689.6</ele><time>2026-03-29T12:45:10.074Z</time></trkpt><trkpt lat="42.9512967" lon="11.6673617"><ele>687.0</ele><time>2026-03-29T12:45:11.073Z</time></trkpt><trkpt lat="42.9514133" lon="11.6674083"><ele>687.0</ele><time>2026-03-29T12:45:12.073Z</time></trkpt><trkpt lat="42.9515333" lon="11.6674433"><ele>687.0</ele><time>2026-03-29T12:45:13.074Z</time></trkpt><trkpt lat="42.9516633" lon="11.6674683"><ele>687.0</ele><time>2026-03-29T12:45:14.074Z</time></trkpt><trkpt lat="42.951795" lon="11.667465"><ele>687.0</ele><time>2026-03-29T12:45:15.073Z</time></trkpt><trkpt lat="42.9519333" lon="11.66744"><ele>684.25</ele><time>2026-03-29T12:45:16.074Z</time></trkpt><trkpt lat="42.9520767" lon="11.6674083"><ele>681.5</ele><time>2026-03-29T12:45:17.073Z</time></trkpt><trkpt lat="42.952215" lon="11.6673817"><ele>678.75</ele><time>2026-03-29T12:45:18.074Z</time></trkpt><trkpt lat="42.9523583" lon="11.6673617"><ele>676.0</ele><time>2026-03-29T12:45:19.074Z</time></trkpt><trkpt lat="42.95249" lon="11.6673517"><ele>672.5999999999999</ele><time>2026-03-29T12:45:20.074Z</time></trkpt><trkpt lat="42.9526083" lon="11.6673267"><ele>669.2</ele><time>2026-03-29T12:45:21.074Z</time></trkpt><trkpt lat="42.9527133" lon="11.66731"><ele>665.8</ele><time>2026-03-29T12:45:22.073Z</time></trkpt><trkpt lat="42.95281" lon="11.667295"><ele>662.4000000000001</ele><time>2026-03-29T12:45:23.074Z</time></trkpt><trkpt lat="42.9528817" lon="11.6672817"><ele>659.0</ele><time>2026-03-29T12:45:24.074Z</time></trkpt><trkpt lat="42.9529733" lon="11.66722"><ele>659.0</ele><time>2026-03-29T12:45:26.074Z</time></trkpt><trkpt lat="42.9529933" lon="11.6671117"><ele>659.0</ele><time>2026-03-29T12:45:28.074Z</time></trkpt><trkpt lat="42.95299" lon="11.6669433"><ele>659.0</ele><time>2026-03-29T12:45:30.073Z</time></trkpt><trkpt lat="42.9529783" lon="11.6668383"><ele>659.0</ele><time>2026-03-29T12:45:31.073Z</time></trkpt><trkpt lat="42.9529667" lon="11.66672"><ele>659.0</ele><time>2026-03-29T12:45:32.073Z</time></trkpt><trkpt lat="42.9529517" lon="11.6666067"><ele>658.1666666666666</ele><time>2026-03-29T12:45:33.074Z</time></trkpt><trkpt lat="42.95296" lon="11.6665083"><ele>657.3333333333333</ele><time>2026-03-29T12:45:34.073Z</time></trkpt><trkpt lat="42.9529983" lon="11.6664233"><ele>656.5</ele><time>2026-03-29T12:45:35.073Z</time></trkpt><trkpt lat="42.9530433" lon="11.6663383"><ele>655.6666666666666</ele><time>2026-03-29T12:45:36.074Z</time></trkpt><trkpt lat="42.9530983" lon="11.66626"><ele>654.8333333333334</ele><time>2026-03-29T12:45:37.074Z</time></trkpt><trkpt lat="42.9531567" lon="11.66618"><ele>654.0</ele><time>2026-03-29T12:45:38.074Z</time></trkpt><trkpt lat="42.9532133" lon="11.666095"><ele>653.1666666666666</ele><time>2026-03-29T12:45:39.073Z</time></trkpt><trkpt lat="42.9532783" lon="11.6660267"><ele>652.3333333333334</ele><time>2026-03-29T12:45:40.073Z</time></trkpt><trkpt lat="42.953345" lon="11.6659683"><ele>651.5</ele><time>2026-03-29T12:45:41.074Z</time></trkpt><trkpt lat="42.9534083" lon="11.6659067"><ele>650.6666666666667</ele><time>2026-03-29T12:45:42.074Z</time></trkpt><trkpt lat="42.9534717" lon="11.6658483"><ele>649.8333333333334</ele><time>2026-03-29T12:45:43.073Z</time></trkpt><trkpt lat="42.9535367" lon="11.6657883"><ele>649.0</ele><time>2026-03-29T12:45:44.074Z</time></trkpt><trkpt lat="42.9536033" lon="11.6657417"><ele>647.0</ele><time>2026-03-29T12:45:45.073Z</time></trkpt><trkpt lat="42.9536667" lon="11.6656933"><ele>645.0</ele><time>2026-03-29T12:45:46.074Z</time></trkpt><trkpt lat="42.9537383" lon="11.665635"><ele>643.0</ele><time>2026-03-29T12:45:47.073Z</time></trkpt><trkpt lat="42.9538117" lon="11.6655883"><ele>641.0</ele><time>2026-03-29T12:45:48.074Z</time></trkpt><trkpt lat="42.9538783" lon="11.6655433"><ele>639.0</ele><time>2026-03-29T12:45:49.074Z</time></trkpt><trkpt lat="42.95399" lon="11.6654383"><ele>637.0</ele><time>2026-03-29T12:45:51.074Z</time></trkpt><trkpt lat="42.9540167" lon="11.66532"><ele>637.0</ele><time>2026-03-29T12:45:53.074Z</time></trkpt><trkpt lat="42.9539833" lon="11.6651683"><ele>637.0</ele><time>2026-03-29T12:45:55.074Z</time></trkpt><trkpt lat="42.953955" lon="11.6650767"><ele>637.0</ele><time>2026-03-29T12:45:56.074Z</time></trkpt><trkpt lat="42.9539267" lon="11.6649733"><ele>637.0</ele><time>2026-03-29T12:45:57.074Z</time></trkpt><trkpt lat="42.9539" lon="11.6648683"><ele>637.0</ele><time>2026-03-29T12:45:58.073Z</time></trkpt><trkpt lat="42.9538833" lon="11.6647483"><ele>637.0</ele><time>2026-03-29T12:45:59.074Z</time></trkpt><trkpt lat="42.9538733" lon="11.6646467"><ele>637.0</ele><time>2026-03-29T12:46:00.074Z</time></trkpt><trkpt lat="42.9538883" lon="11.6645567"><ele>637.0</ele><time>2026-03-29T12:46:01.074Z</time></trkpt><trkpt lat="42.953925" lon="11.6644717"><ele>637.0</ele><time>2026-03-29T12:46:02.074Z</time></trkpt><trkpt lat="42.953975" lon="11.6644"><ele>637.0</ele><time>2026-03-29T12:46:03.074Z</time></trkpt><trkpt lat="42.9540367" lon="11.6643317"><ele>637.0</ele><time>2026-03-29T12:46:04.074Z</time></trkpt><trkpt lat="42.9541117" lon="11.6642583"><ele>637.0</ele><time>2026-03-29T12:46:05.073Z</time></trkpt><trkpt lat="42.954175" lon="11.664175"><ele>636.5</ele><time>2026-03-29T12:46:06.073Z</time></trkpt><trkpt lat="42.954215" lon="11.6640917"><ele>636.0</ele><time>2026-03-29T12:46:07.074Z</time></trkpt><trkpt lat="42.9542433" lon="11.6639867"><ele>635.5</ele><time>2026-03-29T12:46:08.074Z</time></trkpt><trkpt lat="42.9542667" lon="11.66388"><ele>635.0</ele><time>2026-03-29T12:46:09.074Z</time></trkpt><trkpt lat="42.9542817" lon="11.663785"><ele>634.5</ele><time>2026-03-29T12:46:10.074Z</time></trkpt><trkpt lat="42.9542917" lon="11.663695"><ele>634.0</ele><time>2026-03-29T12:46:11.074Z</time></trkpt><trkpt lat="42.954305" lon="11.66354"><ele>633.3333333333334</ele><time>2026-03-29T12:46:13.074Z</time></trkpt><trkpt lat="42.95437" lon="11.6634017"><ele>632.6666666666667</ele><time>2026-03-29T12:46:15.074Z</time></trkpt><trkpt lat="42.9544317" lon="11.6633517"><ele>632.0</ele><time>2026-03-29T12:46:16.073Z</time></trkpt><trkpt lat="42.9545033" lon="11.6633067"><ele>631.3333333333334</ele><time>2026-03-29T12:46:17.073Z</time></trkpt><trkpt lat="42.9545717" lon="11.66326"><ele>630.6666666666666</ele><time>2026-03-29T12:46:18.074Z</time></trkpt><trkpt lat="42.9546417" lon="11.6632133"><ele>630.0</ele><time>2026-03-29T12:46:19.074Z</time></trkpt><trkpt lat="42.9547167" lon="11.663175"><ele>630.0</ele><time>2026-03-29T12:46:20.074Z</time></trkpt><trkpt lat="42.9548" lon="11.6631517"><ele>630.0</ele><time>2026-03-29T12:46:21.073Z</time></trkpt><trkpt lat="42.9548883" lon="11.663135"><ele>630.0</ele><time>2026-03-29T12:46:22.074Z</time></trkpt><trkpt lat="42.9549817" lon="11.6631117"><ele>630.0</ele><time>2026-03-29T12:46:23.073Z</time></trkpt><trkpt lat="42.9550733" lon="11.6630883"><ele>630.0</ele><time>2026-03-29T12:46:24.074Z</time></trkpt><trkpt lat="42.9551567" lon="11.6630583"><ele>630.0</ele><time>2026-03-29T12:46:25.074Z</time></trkpt><trkpt lat="42.9553033" lon="11.662935"><ele>627.1666666666666</ele><time>2026-03-29T12:46:27.074Z</time></trkpt><trkpt lat="42.9553583" lon="11.66285"><ele>624.3333333333334</ele><time>2026-03-29T12:46:28.074Z</time></trkpt><trkpt lat="42.955425" lon="11.662755"><ele>621.5</ele><time>2026-03-29T12:46:29.074Z</time></trkpt><trkpt lat="42.9554817" lon="11.6626833"><ele>618.6666666666667</ele><time>2026-03-29T12:46:30.073Z</time></trkpt><trkpt lat="42.9555417" lon="11.66263"><ele>615.8333333333334</ele><time>2026-03-29T12:46:31.073Z</time></trkpt><trkpt lat="42.955615" lon="11.6625917"><ele>613.0</ele><time>2026-03-29T12:46:32.074Z</time></trkpt><trkpt lat="42.9557017" lon="11.6625817"><ele>612.6666666666667</ele><time>2026-03-29T12:46:33.074Z</time></trkpt><trkpt lat="42.95579" lon="11.66258"><ele>612.3333333333334</ele><time>2026-03-29T12:46:34.074Z</time></trkpt><trkpt lat="42.95588" lon="11.6625783"><ele>612.0</ele><time>2026-03-29T12:46:35.074Z</time></trkpt><trkpt lat="42.9559733" lon="11.6625633"><ele>611.6666666666666</ele><time>2026-03-29T12:46:36.073Z</time></trkpt><trkpt lat="42.956055" lon="11.6625333"><ele>611.3333333333333</ele><time>2026-03-29T12:46:37.074Z</time></trkpt><trkpt lat="42.956115" lon="11.6624883"><ele>611.0</ele><time>2026-03-29T12:46:38.074Z</time></trkpt><trkpt lat="42.956205" lon="11.6623967"><ele>608.2</ele><time>2026-03-29T12:46:40.074Z</time></trkpt><trkpt lat="42.956315" lon="11.6623583"><ele>605.4000000000001</ele><time>2026-03-29T12:46:42.073Z</time></trkpt><trkpt lat="42.95638" lon="11.6623467"><ele>602.6</ele><time>2026-03-29T12:46:43.073Z</time></trkpt><trkpt lat="42.956485" lon="11.6623267"><ele>599.8000000000001</ele><time>2026-03-29T12:46:45.073Z</time></trkpt><trkpt lat="42.9565917" lon="11.66239"><ele>597.0</ele><time>2026-03-29T12:46:47.074Z</time></trkpt><trkpt lat="42.956705" lon="11.6624817"><ele>594.4</ele><time>2026-03-29T12:46:49.074Z</time></trkpt><trkpt lat="42.95677" lon="11.6625"><ele>591.8000000000001</ele><time>2026-03-29T12:46:50.074Z</time></trkpt><trkpt lat="42.9568867" lon="11.662535"><ele>589.2</ele><time>2026-03-29T12:46:52.073Z</time></trkpt><trkpt lat="42.957" lon="11.6626267"><ele>586.6</ele><time>2026-03-29T12:46:54.073Z</time></trkpt><trkpt lat="42.95706" lon="11.6626867"><ele>584.0</ele><time>2026-03-29T12:46:55.073Z</time></trkpt><trkpt lat="42.9571233" lon="11.6627467"><ele>583.6</ele><time>2026-03-29T12:46:56.074Z</time></trkpt><trkpt lat="42.9571933" lon="11.6628"><ele>583.2</ele><time>2026-03-29T12:46:57.074Z</time></trkpt><trkpt lat="42.95726" lon="11.6628533"><ele>582.8000000000001</ele><time>2026-03-29T12:46:58.074Z</time></trkpt><trkpt lat="42.9573283" lon="11.6628983"><ele>582.4</ele><time>2026-03-29T12:46:59.073Z</time></trkpt><trkpt lat="42.9574017" lon="11.6629467"><ele>582.0</ele><time>2026-03-29T12:47:00.073Z</time></trkpt><trkpt lat="42.9575433" lon="11.6630483"><ele>579.8333333333334</ele><time>2026-03-29T12:47:02.074Z</time></trkpt><trkpt lat="42.9576167" lon="11.6631017"><ele>577.6666666666666</ele><time>2026-03-29T12:47:03.074Z</time></trkpt><trkpt lat="42.9576833" lon="11.6631367"><ele>575.5</ele><time>2026-03-29T12:47:04.074Z</time></trkpt><trkpt lat="42.9577467" lon="11.6631767"><ele>573.3333333333333</ele><time>2026-03-29T12:47:05.074Z</time></trkpt><trkpt lat="42.9578583" lon="11.6632433"><ele>571.1666666666666</ele><time>2026-03-29T12:47:07.074Z</time></trkpt><trkpt lat="42.9579317" lon="11.6633267"><ele>569.0</ele><time>2026-03-29T12:47:09.074Z</time></trkpt><trkpt lat="42.9579733" lon="11.66342"><ele>569.0</ele><time>2026-03-29T12:47:13.074Z</time></trkpt><trkpt lat="42.95799" lon="11.663525"><ele>569.0</ele><time>2026-03-29T12:47:15.073Z</time></trkpt><trkpt lat="42.958045" lon="11.6636533"><ele>569.0</ele><time>2026-03-29T12:47:17.073Z</time></trkpt><trkpt lat="42.9581383" lon="11.6637283"><ele>569.0</ele><time>2026-03-29T12:47:19.073Z</time></trkpt><trkpt lat="42.9582483" lon="11.66373"><ele>569.0</ele><time>2026-03-29T12:47:21.073Z</time></trkpt><trkpt lat="42.9583167" lon="11.6637083"><ele>566.3333333333333</ele><time>2026-03-29T12:47:22.074Z</time></trkpt><trkpt lat="42.9583917" lon="11.66368"><ele>563.6666666666666</ele><time>2026-03-29T12:47:23.074Z</time></trkpt><trkpt lat="42.95846" lon="11.6636517"><ele>561.0</ele><time>2026-03-29T12:47:24.074Z</time></trkpt><trkpt lat="42.9585317" lon="11.6636367"><ele>558.3333333333334</ele><time>2026-03-29T12:47:25.074Z</time></trkpt><trkpt lat="42.9586033" lon="11.6636267"><ele>555.6666666666667</ele><time>2026-03-29T12:47:26.074Z</time></trkpt><trkpt lat="42.9586767" lon="11.663635"><ele>553.0</ele><time>2026-03-29T12:47:27.073Z</time></trkpt><trkpt lat="42.958795" lon="11.6636817"><ele>553.0</ele><time>2026-03-29T12:47:29.074Z</time></trkpt><trkpt lat="42.9589117" lon="11.6637367"><ele>553.0</ele><time>2026-03-29T12:47:31.074Z</time></trkpt><trkpt lat="42.9590167" lon="11.6638317"><ele>553.0</ele><time>2026-03-29T12:47:33.073Z</time></trkpt><trkpt lat="42.9590683" lon="11.6638933"><ele>553.0</ele><time>2026-03-29T12:47:34.073Z</time></trkpt><trkpt lat="42.95913" lon="11.6639283"><ele>553.0</ele><time>2026-03-29T12:47:35.073Z</time></trkpt><trkpt lat="42.9591944" lon="11.6639502"><ele>551.1666666666667</ele><time>2026-03-29T12:47:36.073Z</time></trkpt><trkpt lat="42.9592658" lon="11.6639483"><ele>549.3333333333334</ele><time>2026-03-29T12:47:37.074Z</time></trkpt><trkpt lat="42.9593397" lon="11.6639344"><ele>547.5</ele><time>2026-03-29T12:47:38.073Z</time></trkpt><trkpt lat="42.9594207" lon="11.663913"><ele>545.6666666666666</ele><time>2026-03-29T12:47:39.074Z</time></trkpt><trkpt lat="42.9595077" lon="11.6638901"><ele>543.8333333333333</ele><time>2026-03-29T12:47:40.074Z</time></trkpt><trkpt lat="42.9595932" lon="11.6638773"><ele>542.0</ele><time>2026-03-29T12:47:41.074Z</time></trkpt><trkpt lat="42.9596781" lon="11.6638772"><ele>542.0</ele><time>2026-03-29T12:47:42.074Z</time></trkpt><trkpt lat="42.9597596" lon="11.6638914"><ele>542.0</ele><time>2026-03-29T12:47:43.074Z</time></trkpt><trkpt lat="42.9598389" lon="11.6639164"><ele>542.0</ele><time>2026-03-29T12:47:44.073Z</time></trkpt><trkpt lat="42.9599159" lon="11.6639441"><ele>542.0</ele><time>2026-03-29T12:47:45.074Z</time></trkpt><trkpt lat="42.9599921" lon="11.6639749"><ele>542.0</ele><time>2026-03-29T12:47:46.073Z</time></trkpt><trkpt lat="42.9600667" lon="11.6640129"><ele>542.0</ele><time>2026-03-29T12:47:47.074Z</time></trkpt><trkpt lat="42.9601395" lon="11.6640623"><ele>540.4</ele><time>2026-03-29T12:47:48.074Z</time></trkpt><trkpt lat="42.9602104" lon="11.6641195"><ele>538.8000000000001</ele><time>2026-03-29T12:47:49.073Z</time></trkpt><trkpt lat="42.9602809" lon="11.6641805"><ele>537.2</ele><time>2026-03-29T12:47:50.074Z</time></trkpt><trkpt lat="42.9603588" lon="11.6642471"><ele>535.6</ele><time>2026-03-29T12:47:51.074Z</time></trkpt><trkpt lat="42.9604404" lon="11.6643084"><ele>534.0</ele><time>2026-03-29T12:47:52.074Z</time></trkpt><trkpt lat="42.9606051" lon="11.6643744"><ele>534.0</ele><time>2026-03-29T12:47:54.074Z</time></trkpt><trkpt lat="42.9606819" lon="11.6643872"><ele>534.0</ele><time>2026-03-29T12:47:55.073Z</time></trkpt><trkpt lat="42.960747" lon="11.664393"><ele>534.0</ele><time>2026-03-29T12:47:56.073Z</time></trkpt><trkpt lat="42.9608515" lon="11.6643973"><ele>534.0</ele><time>2026-03-29T12:47:58.073Z</time></trkpt><trkpt lat="42.9609502" lon="11.6644078"><ele>534.0</ele><time>2026-03-29T12:48:00.074Z</time></trkpt><trkpt lat="42.961052" lon="11.664461"><ele>532.3333333333334</ele><time>2026-03-29T12:48:02.074Z</time></trkpt><trkpt lat="42.9611752" lon="11.6645099"><ele>530.6666666666666</ele><time>2026-03-29T12:48:04.074Z</time></trkpt><trkpt lat="42.9612427" lon="11.6645307"><ele>529.0</ele><time>2026-03-29T12:48:05.073Z</time></trkpt><trkpt lat="42.9613104" lon="11.6645824"><ele>527.3333333333333</ele><time>2026-03-29T12:48:06.073Z</time></trkpt><trkpt lat="42.9613683" lon="11.664658"><ele>525.6666666666666</ele><time>2026-03-29T12:48:07.073Z</time></trkpt><trkpt lat="42.9614135" lon="11.6647406"><ele>524.0</ele><time>2026-03-29T12:48:08.074Z</time></trkpt><trkpt lat="42.9614518" lon="11.6648176"><ele>524.0</ele><time>2026-03-29T12:48:09.074Z</time></trkpt><trkpt lat="42.961506" lon="11.664867"><ele>524.0</ele><time>2026-03-29T12:48:10.074Z</time></trkpt><trkpt lat="42.9616242" lon="11.664915"><ele>524.0</ele><time>2026-03-29T12:48:12.074Z</time></trkpt><trkpt lat="42.9616882" lon="11.664934"><ele>524.0</ele><time>2026-03-29T12:48:13.074Z</time></trkpt><trkpt lat="42.9617538" lon="11.6649567"><ele>524.0</ele><time>2026-03-29T12:48:14.074Z</time></trkpt><trkpt lat="42.9618171" lon="11.6649841"><ele>524.0</ele><time>2026-03-29T12:48:15.074Z</time></trkpt><trkpt lat="42.9618795" lon="11.6650151"><ele>521.6666666666666</ele><time>2026-03-29T12:48:16.074Z</time></trkpt><trkpt lat="42.9619461" lon="11.6650491"><ele>519.3333333333333</ele><time>2026-03-29T12:48:17.074Z</time></trkpt><trkpt lat="42.9620189" lon="11.6650867"><ele>517.0</ele><time>2026-03-29T12:48:18.073Z</time></trkpt><trkpt lat="42.9620942" lon="11.6651249"><ele>514.6666666666666</ele><time>2026-03-29T12:48:19.074Z</time></trkpt><trkpt lat="42.9621728" lon="11.6651553"><ele>512.3333333333334</ele><time>2026-03-29T12:48:20.074Z</time></trkpt><trkpt lat="42.9622554" lon="11.6651771"><ele>510.0</ele><time>2026-03-29T12:48:21.074Z</time></trkpt><trkpt lat="42.9624266" lon="11.6652054"><ele>510.0</ele><time>2026-03-29T12:48:23.073Z</time></trkpt><trkpt lat="42.9625157" lon="11.6652152"><ele>510.0</ele><time>2026-03-29T12:48:24.074Z</time></trkpt><trkpt lat="42.9626009" lon="11.6652236"><ele>510.0</ele><time>2026-03-29T12:48:25.073Z</time></trkpt><trkpt lat="42.962679" lon="11.6652392"><ele>510.0</ele><time>2026-03-29T12:48:26.073Z</time></trkpt><trkpt lat="42.9627499" lon="11.6652776"><ele>510.0</ele><time>2026-03-29T12:48:27.073Z</time></trkpt><trkpt lat="42.9628171" lon="11.6653237"><ele>510.0</ele><time>2026-03-29T12:48:28.073Z</time></trkpt><trkpt lat="42.9628708" lon="11.6653942"><ele>507.6666666666667</ele><time>2026-03-29T12:48:29.074Z</time></trkpt><trkpt lat="42.9629251" lon="11.6654664"><ele>505.33333333333337</ele><time>2026-03-29T12:48:30.073Z</time></trkpt><trkpt lat="42.962985" lon="11.6655426"><ele>503.0</ele><time>2026-03-29T12:48:31.074Z</time></trkpt><trkpt lat="42.9630464" lon="11.6656265"><ele>500.6666666666667</ele><time>2026-03-29T12:48:32.074Z</time></trkpt><trkpt lat="42.9631045" lon="11.6657107"><ele>498.33333333333337</ele><time>2026-03-29T12:48:33.073Z</time></trkpt><trkpt lat="42.9631612" lon="11.6657873"><ele>496.0</ele><time>2026-03-29T12:48:34.074Z</time></trkpt><trkpt lat="42.9632197" lon="11.6658527"><ele>496.00000000000006</ele><time>2026-03-29T12:48:35.074Z</time></trkpt><trkpt lat="42.963286" lon="11.6659078"><ele>496.0</ele><time>2026-03-29T12:48:36.074Z</time></trkpt><trkpt lat="42.9633568" lon="11.665955"><ele>496.0</ele><time>2026-03-29T12:48:37.074Z</time></trkpt><trkpt lat="42.9634292" lon="11.6659938"><ele>496.0</ele><time>2026-03-29T12:48:38.074Z</time></trkpt><trkpt lat="42.9635053" lon="11.6660255"><ele>496.00000000000006</ele><time>2026-03-29T12:48:39.073Z</time></trkpt><trkpt lat="42.9635849" lon="11.6660461"><ele>496.0</ele><time>2026-03-29T12:48:40.074Z</time></trkpt><trkpt lat="42.9636654" lon="11.6660603"><ele>494.83333333333337</ele><time>2026-03-29T12:48:41.074Z</time></trkpt><trkpt lat="42.9637449" lon="11.6660774"><ele>493.6666666666667</ele><time>2026-03-29T12:48:42.074Z</time></trkpt><trkpt lat="42.9638281" lon="11.6660993"><ele>492.5</ele><time>2026-03-29T12:48:43.074Z</time></trkpt><trkpt lat="42.9639077" lon="11.6661294"><ele>491.33333333333337</ele><time>2026-03-29T12:48:44.074Z</time></trkpt><trkpt lat="42.9639862" lon="11.6661622"><ele>490.1666666666667</ele><time>2026-03-29T12:48:45.074Z</time></trkpt><trkpt lat="42.9640619" lon="11.6662003"><ele>489.0</ele><time>2026-03-29T12:48:46.073Z</time></trkpt><trkpt lat="42.9641304" lon="11.6662486"><ele>487.8333333333333</ele><time>2026-03-29T12:48:47.074Z</time></trkpt><trkpt lat="42.9641958" lon="11.6663074"><ele>486.66666666666663</ele><time>2026-03-29T12:48:48.074Z</time></trkpt><trkpt lat="42.964263" lon="11.6663626"><ele>485.5</ele><time>2026-03-29T12:48:49.073Z</time></trkpt><trkpt lat="42.9643326" lon="11.6664129"><ele>484.3333333333333</ele><time>2026-03-29T12:48:50.074Z</time></trkpt><trkpt lat="42.9644001" lon="11.6664584"><ele>483.16666666666663</ele><time>2026-03-29T12:48:51.073Z</time></trkpt><trkpt lat="42.9644684" lon="11.6665027"><ele>482.0</ele><time>2026-03-29T12:48:52.074Z</time></trkpt><trkpt lat="42.9645399" lon="11.6665421"><ele>481.16666666666663</ele><time>2026-03-29T12:48:53.074Z</time></trkpt><trkpt lat="42.9646135" lon="11.6665795"><ele>480.3333333333333</ele><time>2026-03-29T12:48:54.074Z</time></trkpt><trkpt lat="42.9646895" lon="11.6666178"><ele>479.5</ele><time>2026-03-29T12:48:55.074Z</time></trkpt><trkpt lat="42.9647632" lon="11.6666596"><ele>478.66666666666663</ele><time>2026-03-29T12:48:56.073Z</time></trkpt><trkpt lat="42.9648349" lon="11.6667026"><ele>477.8333333333333</ele><time>2026-03-29T12:48:57.074Z</time></trkpt><trkpt lat="42.9649083" lon="11.6667459"><ele>477.0</ele><time>2026-03-29T12:48:58.074Z</time></trkpt><trkpt lat="42.964982" lon="11.6667881"><ele>475.6666666666667</ele><time>2026-03-29T12:48:59.073Z</time></trkpt><trkpt lat="42.9650544" lon="11.6668299"><ele>474.33333333333337</ele><time>2026-03-29T12:49:00.073Z</time></trkpt><trkpt lat="42.9651276" lon="11.6668714"><ele>473.0</ele><time>2026-03-29T12:49:01.074Z</time></trkpt><trkpt lat="42.9651984" lon="11.6669157"><ele>471.6666666666667</ele><time>2026-03-29T12:49:02.074Z</time></trkpt><trkpt lat="42.9652672" lon="11.6669644"><ele>470.33333333333337</ele><time>2026-03-29T12:49:03.074Z</time></trkpt><trkpt lat="42.9653328" lon="11.6670243"><ele>469.0</ele><time>2026-03-29T12:49:04.074Z</time></trkpt><trkpt lat="42.9654015" lon="11.6670838"><ele>468.00000000000006</ele><time>2026-03-29T12:49:05.074Z</time></trkpt><trkpt lat="42.9654751" lon="11.6671315"><ele>467.0</ele><time>2026-03-29T12:49:06.074Z</time></trkpt><trkpt lat="42.9655511" lon="11.6671692"><ele>466.0</ele><time>2026-03-29T12:49:07.074Z</time></trkpt><trkpt lat="42.9656255" lon="11.6671868"><ele>465.0</ele><time>2026-03-29T12:49:08.074Z</time></trkpt><trkpt lat="42.9657025" lon="11.6671929"><ele>464.00000000000006</ele><time>2026-03-29T12:49:09.074Z</time></trkpt><trkpt lat="42.9657752" lon="11.6671998"><ele>463.0</ele><time>2026-03-29T12:49:10.074Z</time></trkpt><trkpt lat="42.9658417" lon="11.6672136"><ele>462.50000000000006</ele><time>2026-03-29T12:49:11.074Z</time></trkpt><trkpt lat="42.965928" lon="11.6672377"><ele>462.0</ele><time>2026-03-29T12:49:13.074Z</time></trkpt><trkpt lat="42.9660028" lon="11.6672447"><ele>461.5</ele><time>2026-03-29T12:49:16.074Z</time></trkpt><trkpt lat="42.9660383" lon="11.66732"><ele>461.0</ele><time>2026-03-29T12:49:19.074Z</time></trkpt><trkpt lat="42.9660867" lon="11.667385"><ele>460.50000000000006</ele><time>2026-03-29T12:49:21.074Z</time></trkpt><trkpt lat="42.9661533" lon="11.6674483"><ele>460.0</ele><time>2026-03-29T12:49:23.074Z</time></trkpt><trkpt lat="42.9662217" lon="11.6675083"><ele>460.0</ele><time>2026-03-29T12:49:25.074Z</time></trkpt><trkpt lat="42.9662867" lon="11.6675717"><ele>460.0</ele><time>2026-03-29T12:49:27.073Z</time></trkpt><trkpt lat="42.96637" lon="11.6675633"><ele>460.0</ele><time>2026-03-29T12:49:29.074Z</time></trkpt><trkpt lat="42.9664617" lon="11.6675667"><ele>460.0</ele><time>2026-03-29T12:49:31.074Z</time></trkpt><trkpt lat="42.9665533" lon="11.6676667"><ele>460.0</ele><time>2026-03-29T12:49:33.074Z</time></trkpt><trkpt lat="42.96663" lon="11.6678117"><ele>459.4</ele><time>2026-03-29T12:49:35.074Z</time></trkpt><trkpt lat="42.9666733" lon="11.6678817"><ele>458.8</ele><time>2026-03-29T12:49:36.074Z</time></trkpt><trkpt lat="42.96676" lon="11.6680067"><ele>458.20000000000005</ele><time>2026-03-29T12:49:38.074Z</time></trkpt><trkpt lat="42.9668433" lon="11.66813"><ele>457.6</ele><time>2026-03-29T12:49:40.074Z</time></trkpt><trkpt lat="42.9669317" lon="11.6682517"><ele>457.0</ele><time>2026-03-29T12:49:42.074Z</time></trkpt><trkpt lat="42.966985" lon="11.668305"><ele>455.83333333333337</ele><time>2026-03-29T12:49:43.074Z</time></trkpt><trkpt lat="42.9670383" lon="11.668365"><ele>454.6666666666667</ele><time>2026-03-29T12:49:44.074Z</time></trkpt><trkpt lat="42.967085" lon="11.668425"><ele>453.5</ele><time>2026-03-29T12:49:45.073Z</time></trkpt><trkpt lat="42.9671867" lon="11.6685333"><ele>452.33333333333337</ele><time>2026-03-29T12:49:47.074Z</time></trkpt><trkpt lat="42.9672433" lon="11.668585"><ele>451.1666666666667</ele><time>2026-03-29T12:49:48.073Z</time></trkpt><trkpt lat="42.9672983" lon="11.6686317"><ele>450.0</ele><time>2026-03-29T12:49:49.073Z</time></trkpt><trkpt lat="42.9673583" lon="11.6686767"><ele>448.85714285714295</ele><time>2026-03-29T12:49:50.074Z</time></trkpt><trkpt lat="42.9674183" lon="11.66871"><ele>447.7142857142857</ele><time>2026-03-29T12:49:51.073Z</time></trkpt><trkpt lat="42.9674817" lon="11.668735"><ele>446.5714285714286</ele><time>2026-03-29T12:49:52.074Z</time></trkpt><trkpt lat="42.9675467" lon="11.6687567"><ele>445.42857142857144</ele><time>2026-03-29T12:49:53.074Z</time></trkpt><trkpt lat="42.9676133" lon="11.66877"><ele>444.28571428571433</ele><time>2026-03-29T12:49:54.074Z</time></trkpt><trkpt lat="42.9676883" lon="11.66878"><ele>443.14285714285717</ele><time>2026-03-29T12:49:55.074Z</time></trkpt><trkpt lat="42.9677633" lon="11.66878"><ele>442.0</ele><time>2026-03-29T12:49:56.073Z</time></trkpt><trkpt lat="42.9678417" lon="11.66878"><ele>440.7142857142857</ele><time>2026-03-29T12:49:57.073Z</time></trkpt><trkpt lat="42.9679233" lon="11.668775"><ele>439.42857142857144</ele><time>2026-03-29T12:49:58.074Z</time></trkpt><trkpt lat="42.968" lon="11.6687733"><ele>438.1428571428571</ele><time>2026-03-29T12:49:59.074Z</time></trkpt><trkpt lat="42.9680667" lon="11.66877"><ele>436.8571428571429</ele><time>2026-03-29T12:50:00.074Z</time></trkpt><trkpt lat="42.9681417" lon="11.668765"><ele>435.57142857142856</ele><time>2026-03-29T12:50:01.073Z</time></trkpt><trkpt lat="42.9682167" lon="11.6687567"><ele>434.2857142857143</ele><time>2026-03-29T12:50:02.073Z</time></trkpt><trkpt lat="42.9682883" lon="11.6687517"><ele>433.0</ele><time>2026-03-29T12:50:03.074Z</time></trkpt><trkpt lat="42.96836" lon="11.668735"><ele>431.1666666666667</ele><time>2026-03-29T12:50:04.074Z</time></trkpt><trkpt lat="42.968435" lon="11.668715"><ele>429.33333333333337</ele><time>2026-03-29T12:50:05.074Z</time></trkpt><trkpt lat="42.9685117" lon="11.6686967"><ele>427.5</ele><time>2026-03-29T12:50:06.074Z</time></trkpt><trkpt lat="42.96859" lon="11.6686733"><ele>425.66666666666663</ele><time>2026-03-29T12:50:07.074Z</time></trkpt><trkpt lat="42.96867" lon="11.66866"><ele>423.8333333333333</ele><time>2026-03-29T12:50:08.073Z</time></trkpt><trkpt lat="42.9687517" lon="11.6686433"><ele>422.0</ele><time>2026-03-29T12:50:09.073Z</time></trkpt><trkpt lat="42.96883" lon="11.6686367"><ele>421.99999999999994</ele><time>2026-03-29T12:50:10.074Z</time></trkpt><trkpt lat="42.9689117" lon="11.6686333"><ele>422.0</ele><time>2026-03-29T12:50:11.074Z</time></trkpt><trkpt lat="42.9689967" lon="11.6686333"><ele>422.0</ele><time>2026-03-29T12:50:12.074Z</time></trkpt><trkpt lat="42.9690733" lon="11.6686367"><ele>422.0</ele><time>2026-03-29T12:50:13.073Z</time></trkpt><trkpt lat="42.96914" lon="11.6686233"><ele>421.99999999999994</ele><time>2026-03-29T12:50:14.074Z</time></trkpt><trkpt lat="42.9692083" lon="11.668585"><ele>422.0</ele><time>2026-03-29T12:50:15.074Z</time></trkpt><trkpt lat="42.969265" lon="11.6685183"><ele>421.3333333333333</ele><time>2026-03-29T12:50:16.074Z</time></trkpt><trkpt lat="42.9693217" lon="11.66844"><ele>420.66666666666663</ele><time>2026-03-29T12:50:17.074Z</time></trkpt><trkpt lat="42.9693817" lon="11.6683467"><ele>420.0</ele><time>2026-03-29T12:50:18.074Z</time></trkpt><trkpt lat="42.9694433" lon="11.6682517"><ele>419.33333333333337</ele><time>2026-03-29T12:50:19.074Z</time></trkpt><trkpt lat="42.969505" lon="11.6681617"><ele>418.6666666666667</ele><time>2026-03-29T12:50:20.073Z</time></trkpt><trkpt lat="42.969565" lon="11.668095"><ele>418.0</ele><time>2026-03-29T12:50:21.073Z</time></trkpt><trkpt lat="42.9696333" lon="11.668045"><ele>418.00000000000006</ele><time>2026-03-29T12:50:22.073Z</time></trkpt><trkpt lat="42.9697067" lon="11.6680083"><ele>418.0</ele><time>2026-03-29T12:50:23.073Z</time></trkpt><trkpt lat="42.9697717" lon="11.6679783"><ele>418.0</ele><time>2026-03-29T12:50:24.074Z</time></trkpt><trkpt lat="42.9698917" lon="11.6680233"><ele>418.0</ele><time>2026-03-29T12:50:26.074Z</time></trkpt><trkpt lat="42.969945" lon="11.6681"><ele>418.00000000000006</ele><time>2026-03-29T12:50:27.074Z</time></trkpt><trkpt lat="42.9699867" lon="11.6682017"><ele>418.0</ele><time>2026-03-29T12:50:28.074Z</time></trkpt><trkpt lat="42.97001" lon="11.66831"><ele>417.00000000000006</ele><time>2026-03-29T12:50:29.074Z</time></trkpt><trkpt lat="42.9700267" lon="11.6684233"><ele>416.0</ele><time>2026-03-29T12:50:30.074Z</time></trkpt><trkpt lat="42.9700267" lon="11.668535"><ele>415.0</ele><time>2026-03-29T12:50:31.074Z</time></trkpt><trkpt lat="42.9700183" lon="11.66864"><ele>414.0</ele><time>2026-03-29T12:50:32.073Z</time></trkpt><trkpt lat="42.9700017" lon="11.6687417"><ele>413.00000000000006</ele><time>2026-03-29T12:50:33.074Z</time></trkpt><trkpt lat="42.9699833" lon="11.6688267"><ele>412.0</ele><time>2026-03-29T12:50:34.074Z</time></trkpt><trkpt lat="42.9699633" lon="11.668975"><ele>412.0</ele><time>2026-03-29T12:50:36.074Z</time></trkpt><trkpt lat="42.969995" lon="11.6690833"><ele>412.0</ele><time>2026-03-29T12:50:38.074Z</time></trkpt><trkpt lat="42.9700717" lon="11.6691067"><ele>412.0</ele><time>2026-03-29T12:50:40.074Z</time></trkpt><trkpt lat="42.9701483" lon="11.6690717"><ele>412.0</ele><time>2026-03-29T12:50:42.074Z</time></trkpt><trkpt lat="42.9702417" lon="11.6690117"><ele>412.0</ele><time>2026-03-29T12:50:44.074Z</time></trkpt><trkpt lat="42.9703567" lon="11.66896"><ele>410.6666666666667</ele><time>2026-03-29T12:50:46.073Z</time></trkpt><trkpt lat="42.97042" lon="11.6689267"><ele>409.33333333333337</ele><time>2026-03-29T12:50:47.074Z</time></trkpt><trkpt lat="42.970485" lon="11.6688933"><ele>408.0</ele><time>2026-03-29T12:50:48.074Z</time></trkpt><trkpt lat="42.970555" lon="11.6688767"><ele>406.66666666666663</ele><time>2026-03-29T12:50:49.073Z</time></trkpt><trkpt lat="42.9706217" lon="11.66887"><ele>405.3333333333333</ele><time>2026-03-29T12:50:50.074Z</time></trkpt><trkpt lat="42.9707417" lon="11.6689217"><ele>404.0</ele><time>2026-03-29T12:50:52.073Z</time></trkpt><trkpt lat="42.9707917" lon="11.6689767"><ele>404.0</ele><time>2026-03-29T12:50:53.073Z</time></trkpt><trkpt lat="42.9708433" lon="11.6690383"><ele>404.0</ele><time>2026-03-29T12:50:54.074Z</time></trkpt><trkpt lat="42.9708983" lon="11.6691067"><ele>404.0</ele><time>2026-03-29T12:50:55.074Z</time></trkpt><trkpt lat="42.9709567" lon="11.6691667"><ele>404.0</ele><time>2026-03-29T12:50:56.073Z</time></trkpt><trkpt lat="42.9710133" lon="11.6693033"><ele>404.0</ele><time>2026-03-29T12:50:58.073Z</time></trkpt><trkpt lat="42.9710383" lon="11.6694767"><ele>403.49999999999994</ele><time>2026-03-29T12:51:00.074Z</time></trkpt><trkpt lat="42.97105" lon="11.6695717"><ele>403.0</ele><time>2026-03-29T12:51:01.074Z</time></trkpt><trkpt lat="42.9710567" lon="11.6696783"><ele>402.5</ele><time>2026-03-29T12:51:02.074Z</time></trkpt><trkpt lat="42.9710683" lon="11.6697817"><ele>402.0</ele><time>2026-03-29T12:51:03.073Z</time></trkpt><trkpt lat="42.9710783" lon="11.669885"><ele>401.49999999999994</ele><time>2026-03-29T12:51:04.073Z</time></trkpt><trkpt lat="42.9710967" lon="11.6699933"><ele>401.0</ele><time>2026-03-29T12:51:05.074Z</time></trkpt><trkpt lat="42.9711233" lon="11.6700817"><ele>401.0</ele><time>2026-03-29T12:51:06.074Z</time></trkpt><trkpt lat="42.9711967" lon="11.6702117"><ele>401.0</ele><time>2026-03-29T12:51:08.073Z</time></trkpt><trkpt lat="42.9712817" lon="11.6703017"><ele>401.0</ele><time>2026-03-29T12:51:10.074Z</time></trkpt><trkpt lat="42.9713383" lon="11.6703517"><ele>401.0</ele><time>2026-03-29T12:51:12.073Z</time></trkpt><trkpt lat="42.9713867" lon="11.6702367"><ele>401.0</ele><time>2026-03-29T12:51:16.073Z</time></trkpt><trkpt lat="42.97141" lon="11.6701567"><ele>400.99999999999994</ele><time>2026-03-29T12:51:17.074Z</time></trkpt><trkpt lat="42.971445" lon="11.6700617"><ele>401.0</ele><time>2026-03-29T12:51:18.074Z</time></trkpt><trkpt lat="42.97148" lon="11.6699667"><ele>401.0</ele><time>2026-03-29T12:51:19.074Z</time></trkpt><trkpt lat="42.9715183" lon="11.66986"><ele>401.0</ele><time>2026-03-29T12:51:20.074Z</time></trkpt><trkpt lat="42.971555" lon="11.66975"><ele>400.99999999999994</ele><time>2026-03-29T12:51:21.074Z</time></trkpt><trkpt lat="42.9716083" lon="11.669645"><ele>401.0</ele><time>2026-03-29T12:51:22.074Z</time></trkpt><trkpt lat="42.9716683" lon="11.66954"><ele>401.49999999999994</ele><time>2026-03-29T12:51:23.074Z</time></trkpt><trkpt lat="42.971735" lon="11.669475"><ele>402.0</ele><time>2026-03-29T12:51:24.074Z</time></trkpt><trkpt lat="42.9718017" lon="11.6694383"><ele>402.5</ele><time>2026-03-29T12:51:25.074Z</time></trkpt><trkpt lat="42.9718783" lon="11.6694417"><ele>403.0</ele><time>2026-03-29T12:51:26.073Z</time></trkpt><trkpt lat="42.9719733" lon="11.669475"><ele>403.49999999999994</ele><time>2026-03-29T12:51:27.074Z</time></trkpt><trkpt lat="42.9720833" lon="11.66953"><ele>404.0</ele><time>2026-03-29T12:51:28.074Z</time></trkpt><trkpt lat="42.9721917" lon="11.6695767"><ele>404.0</ele><time>2026-03-29T12:51:29.074Z</time></trkpt><trkpt lat="42.9722983" lon="11.6696"><ele>404.0</ele><time>2026-03-29T12:51:30.073Z</time></trkpt><trkpt lat="42.972405" lon="11.6696083"><ele>404.0</ele><time>2026-03-29T12:51:31.073Z</time></trkpt><trkpt lat="42.97251" lon="11.6695867"><ele>404.0</ele><time>2026-03-29T12:51:32.074Z</time></trkpt><trkpt lat="42.972595" lon="11.66955"><ele>404.0</ele><time>2026-03-29T12:51:33.074Z</time></trkpt><trkpt lat="42.9726633" lon="11.669495"><ele>403.79999999999995</ele><time>2026-03-29T12:51:34.074Z</time></trkpt><trkpt lat="42.9727283" lon="11.66941"><ele>403.59999999999997</ele><time>2026-03-29T12:51:35.073Z</time></trkpt><trkpt lat="42.9727533" lon="11.669305"><ele>403.4</ele><time>2026-03-29T12:51:36.074Z</time></trkpt><trkpt lat="42.9727633" lon="11.6691767"><ele>403.2</ele><time>2026-03-29T12:51:37.074Z</time></trkpt><trkpt lat="42.9727615" lon="11.6690366"><ele>403.0</ele><time>2026-03-29T12:51:38.074Z</time></trkpt><trkpt lat="42.9727467" lon="11.6688858"><ele>403.0</ele><time>2026-03-29T12:51:39.074Z</time></trkpt><trkpt lat="42.9727248" lon="11.6687284"><ele>403.0</ele><time>2026-03-29T12:51:40.074Z</time></trkpt><trkpt lat="42.9726888" lon="11.6685661"><ele>403.0</ele><time>2026-03-29T12:51:41.074Z</time></trkpt><trkpt lat="42.9726325" lon="11.6683973"><ele>403.0</ele><time>2026-03-29T12:51:42.074Z</time></trkpt><trkpt lat="42.9725543" lon="11.668233"><ele>403.0</ele><time>2026-03-29T12:51:43.074Z</time></trkpt><trkpt lat="42.9725037" lon="11.6680872"><ele>403.0</ele><time>2026-03-29T12:51:44.073Z</time></trkpt><trkpt lat="42.9724848" lon="11.667943"><ele>403.0</ele><time>2026-03-29T12:51:45.074Z</time></trkpt><trkpt lat="42.9724794" lon="11.6677997"><ele>403.0</ele><time>2026-03-29T12:51:46.073Z</time></trkpt><trkpt lat="42.97251" lon="11.6676526"><ele>403.0</ele><time>2026-03-29T12:51:47.074Z</time></trkpt><trkpt lat="42.9725657" lon="11.6675088"><ele>403.0</ele><time>2026-03-29T12:51:48.074Z</time></trkpt><trkpt lat="42.9725947" lon="11.6673731"><ele>403.0</ele><time>2026-03-29T12:51:49.073Z</time></trkpt><trkpt lat="42.9726121" lon="11.6672419"><ele>403.0</ele><time>2026-03-29T12:51:50.074Z</time></trkpt><trkpt lat="42.9726159" lon="11.6671038"><ele>403.0</ele><time>2026-03-29T12:51:51.074Z</time></trkpt><trkpt lat="42.9725998" lon="11.6669576"><ele>403.0</ele><time>2026-03-29T12:51:52.074Z</time></trkpt><trkpt lat="42.9725629" lon="11.6667974"><ele>409.0</ele><time>2026-03-29T12:51:53.074Z</time></trkpt><trkpt lat="42.972509" lon="11.6666104"><ele>415.0</ele><time>2026-03-29T12:51:54.074Z</time></trkpt><trkpt lat="42.9724691" lon="11.666419"><ele>421.0</ele><time>2026-03-29T12:51:55.074Z</time></trkpt><trkpt lat="42.9724274" lon="11.6662184"><ele>427.0</ele><time>2026-03-29T12:51:56.074Z</time></trkpt><trkpt lat="42.9723817" lon="11.6660123"><ele>427.75</ele><time>2026-03-29T12:51:57.073Z</time></trkpt><trkpt lat="42.9723392" lon="11.6658251"><ele>428.5</ele><time>2026-03-29T12:51:58.074Z</time></trkpt><trkpt lat="42.9723004" lon="11.665654"><ele>429.25</ele><time>2026-03-29T12:51:59.074Z</time></trkpt><trkpt lat="42.9722684" lon="11.6654925"><ele>430.0</ele><time>2026-03-29T12:52:00.074Z</time></trkpt><trkpt lat="42.9722424" lon="11.6653468"><ele>429.8</ele><time>2026-03-29T12:52:01.074Z</time></trkpt><trkpt lat="42.9722192" lon="11.665221"><ele>429.6</ele><time>2026-03-29T12:52:02.074Z</time></trkpt><trkpt lat="42.9721842" lon="11.6651128"><ele>429.4</ele><time>2026-03-29T12:52:03.074Z</time></trkpt><trkpt lat="42.9721346" lon="11.6650207"><ele>429.2</ele><time>2026-03-29T12:52:04.073Z</time></trkpt><trkpt lat="42.9720638" lon="11.6649513"><ele>429.0</ele><time>2026-03-29T12:52:05.074Z</time></trkpt><trkpt lat="42.9719674" lon="11.6649051"><ele>429.0</ele><time>2026-03-29T12:52:06.074Z</time></trkpt><trkpt lat="42.9718495" lon="11.6648608"><ele>429.0</ele><time>2026-03-29T12:52:07.074Z</time></trkpt><trkpt lat="42.9717169" lon="11.6648113"><ele>429.0</ele><time>2026-03-29T12:52:08.074Z</time></trkpt><trkpt lat="42.9715771" lon="11.6647461"><ele>429.0</ele><time>2026-03-29T12:52:09.074Z</time></trkpt><trkpt lat="42.9714407" lon="11.6646904"><ele>431.5</ele><time>2026-03-29T12:52:10.074Z</time></trkpt><trkpt lat="42.9713113" lon="11.6646623"><ele>434.0</ele><time>2026-03-29T12:52:11.073Z</time></trkpt><trkpt lat="42.9711832" lon="11.6646513"><ele>436.5</ele><time>2026-03-29T12:52:12.074Z</time></trkpt><trkpt lat="42.9710528" lon="11.6646451"><ele>439.0</ele><time>2026-03-29T12:52:13.073Z</time></trkpt><trkpt lat="42.9709275" lon="11.664628"><ele>439.2</ele><time>2026-03-29T12:52:14.074Z</time></trkpt><trkpt lat="42.9708125" lon="11.6645904"><ele>439.4</ele><time>2026-03-29T12:52:15.074Z</time></trkpt><trkpt lat="42.9707124" lon="11.6645302"><ele>439.6</ele><time>2026-03-29T12:52:16.074Z</time></trkpt><trkpt lat="42.9706262" lon="11.6644506"><ele>439.8</ele><time>2026-03-29T12:52:17.074Z</time></trkpt><trkpt lat="42.970553" lon="11.6643471"><ele>440.0</ele><time>2026-03-29T12:52:18.073Z</time></trkpt><trkpt lat="42.9704991" lon="11.6642138"><ele>440.0</ele><time>2026-03-29T12:52:19.074Z</time></trkpt><trkpt lat="42.9704486" lon="11.6640433"><ele>440.0</ele><time>2026-03-29T12:52:20.074Z</time></trkpt><trkpt lat="42.9703975" lon="11.6638342"><ele>440.0</ele><time>2026-03-29T12:52:21.073Z</time></trkpt><trkpt lat="42.9703412" lon="11.6635872"><ele>437.3333333333333</ele><time>2026-03-29T12:52:22.074Z</time></trkpt><trkpt lat="42.9702835" lon="11.6633289"><ele>434.66666666666663</ele><time>2026-03-29T12:52:23.074Z</time></trkpt><trkpt lat="42.9702284" lon="11.6630827"><ele>432.0</ele><time>2026-03-29T12:52:24.074Z</time></trkpt><trkpt lat="42.9701757" lon="11.6628557"><ele>431.0</ele><time>2026-03-29T12:52:25.074Z</time></trkpt><trkpt lat="42.9701226" lon="11.6626382"><ele>430.0</ele><time>2026-03-29T12:52:26.074Z</time></trkpt><trkpt lat="42.9700747" lon="11.6624233"><ele>429.0</ele><time>2026-03-29T12:52:27.074Z</time></trkpt><trkpt lat="42.9700415" lon="11.6622095"><ele>434.33333333333337</ele><time>2026-03-29T12:52:28.073Z</time></trkpt><trkpt lat="42.9700233" lon="11.6619893"><ele>439.6666666666667</ele><time>2026-03-29T12:52:29.074Z</time></trkpt><trkpt lat="42.9700158" lon="11.661776"><ele>445.0</ele><time>2026-03-29T12:52:30.073Z</time></trkpt><trkpt lat="42.9700184" lon="11.6615837"><ele>445.25</ele><time>2026-03-29T12:52:31.074Z</time></trkpt><trkpt lat="42.9700224" lon="11.6614196"><ele>445.5</ele><time>2026-03-29T12:52:32.074Z</time></trkpt><trkpt lat="42.9700549" lon="11.6612685"><ele>445.75</ele><time>2026-03-29T12:52:33.073Z</time></trkpt><trkpt lat="42.9701154" lon="11.6611344"><ele>446.0</ele><time>2026-03-29T12:52:34.073Z</time></trkpt><trkpt lat="42.9701819" lon="11.6609918"><ele>446.0</ele><time>2026-03-29T12:52:35.073Z</time></trkpt><trkpt lat="42.9702745" lon="11.6608564"><ele>446.0</ele><time>2026-03-29T12:52:36.074Z</time></trkpt><trkpt lat="42.9703746" lon="11.6607253"><ele>446.0</ele><time>2026-03-29T12:52:37.074Z</time></trkpt><trkpt lat="42.9704754" lon="11.6605992"><ele>446.0</ele><time>2026-03-29T12:52:38.074Z</time></trkpt><trkpt lat="42.9705327" lon="11.6604713"><ele>446.0</ele><time>2026-03-29T12:52:39.073Z</time></trkpt><trkpt lat="42.9705694" lon="11.6603249"><ele>446.0</ele><time>2026-03-29T12:52:40.074Z</time></trkpt><trkpt lat="42.9705787" lon="11.6601505"><ele>446.0</ele><time>2026-03-29T12:52:41.074Z</time></trkpt><trkpt lat="42.97056" lon="11.6599357"><ele>446.0</ele><time>2026-03-29T12:52:42.074Z</time></trkpt><trkpt lat="42.9705423" lon="11.6596807"><ele>448.0</ele><time>2026-03-29T12:52:43.074Z</time></trkpt><trkpt lat="42.9705328" lon="11.6593761"><ele>450.0</ele><time>2026-03-29T12:52:44.074Z</time></trkpt><trkpt lat="42.9705276" lon="11.6590468"><ele>450.0</ele><time>2026-03-29T12:52:45.074Z</time></trkpt><trkpt lat="42.9705218" lon="11.6587085"><ele>450.0</ele><time>2026-03-29T12:52:46.074Z</time></trkpt><trkpt lat="42.9705196" lon="11.6583899"><ele>451.33333333333337</ele><time>2026-03-29T12:52:47.074Z</time></trkpt><trkpt lat="42.970518" lon="11.658087"><ele>452.6666666666667</ele><time>2026-03-29T12:52:48.075Z</time></trkpt><trkpt lat="42.9705137" lon="11.657821"><ele>454.0</ele><time>2026-03-29T12:52:49.075Z</time></trkpt><trkpt lat="42.9705077" lon="11.6575663"><ele>455.33333333333337</ele><time>2026-03-29T12:52:50.075Z</time></trkpt><trkpt lat="42.9705016" lon="11.657334"><ele>456.66666666666663</ele><time>2026-03-29T12:52:51.074Z</time></trkpt><trkpt lat="42.9705" lon="11.6571236"><ele>458.0</ele><time>2026-03-29T12:52:52.075Z</time></trkpt><trkpt lat="42.9705148" lon="11.6569378"><ele>458.5</ele><time>2026-03-29T12:52:53.074Z</time></trkpt><trkpt lat="42.9705485" lon="11.6567772"><ele>459.0</ele><time>2026-03-29T12:52:54.075Z</time></trkpt><trkpt lat="42.9706106" lon="11.6566404"><ele>459.5</ele><time>2026-03-29T12:52:55.075Z</time></trkpt><trkpt lat="42.9706917" lon="11.6565198"><ele>460.0</ele><time>2026-03-29T12:52:56.075Z</time></trkpt><trkpt lat="42.9707928" lon="11.6564181"><ele>459.75</ele><time>2026-03-29T12:52:57.075Z</time></trkpt><trkpt lat="42.9708672" lon="11.6563"><ele>459.5</ele><time>2026-03-29T12:52:58.075Z</time></trkpt><trkpt lat="42.9709214" lon="11.6561609"><ele>459.25</ele><time>2026-03-29T12:52:59.075Z</time></trkpt><trkpt lat="42.9709591" lon="11.6559921"><ele>459.0</ele><time>2026-03-29T12:53:00.075Z</time></trkpt><trkpt lat="42.9709816" lon="11.6557912"><ele>459.0</ele><time>2026-03-29T12:53:01.074Z</time></trkpt><trkpt lat="42.971002" lon="11.6555835"><ele>459.0</ele><time>2026-03-29T12:53:02.075Z</time></trkpt><trkpt lat="42.9710236" lon="11.6553963"><ele>459.0</ele><time>2026-03-29T12:53:03.075Z</time></trkpt><trkpt lat="42.97104" lon="11.6552341"><ele>459.0</ele><time>2026-03-29T12:53:04.075Z</time></trkpt><trkpt lat="42.9710382" lon="11.6550987"><ele>459.6</ele><time>2026-03-29T12:53:05.075Z</time></trkpt><trkpt lat="42.971015" lon="11.6549878"><ele>460.2</ele><time>2026-03-29T12:53:06.075Z</time></trkpt><trkpt lat="42.9709682" lon="11.6549031"><ele>460.80000000000007</ele><time>2026-03-29T12:53:07.075Z</time></trkpt><trkpt lat="42.9708832" lon="11.6548404"><ele>461.40000000000003</ele><time>2026-03-29T12:53:08.074Z</time></trkpt><trkpt lat="42.9707842" lon="11.6547526"><ele>462.0</ele><time>2026-03-29T12:53:09.075Z</time></trkpt><trkpt lat="42.970666" lon="11.6546602"><ele>462.0</ele><time>2026-03-29T12:53:10.075Z</time></trkpt><trkpt lat="42.9705468" lon="11.654545"><ele>462.0</ele><time>2026-03-29T12:53:11.075Z</time></trkpt><trkpt lat="42.9704355" lon="11.6544144"><ele>462.0</ele><time>2026-03-29T12:53:12.074Z</time></trkpt><trkpt lat="42.970339" lon="11.6542606"><ele>462.0</ele><time>2026-03-29T12:53:13.075Z</time></trkpt><trkpt lat="42.9702589" lon="11.6540701"><ele>462.0</ele><time>2026-03-29T12:53:14.075Z</time></trkpt><trkpt lat="42.9701873" lon="11.6538679"><ele>462.0</ele><time>2026-03-29T12:53:15.075Z</time></trkpt><trkpt lat="42.9701092" lon="11.6536807"><ele>462.0</ele><time>2026-03-29T12:53:16.075Z</time></trkpt><trkpt lat="42.9700129" lon="11.6534775"><ele>464.66666666666663</ele><time>2026-03-29T12:53:17.074Z</time></trkpt><trkpt lat="42.9699056" lon="11.6532777"><ele>467.3333333333333</ele><time>2026-03-29T12:53:18.074Z</time></trkpt><trkpt lat="42.9697867" lon="11.65309"><ele>470.0</ele><time>2026-03-29T12:53:19.075Z</time></trkpt><trkpt lat="42.96968" lon="11.6528983"><ele>467.25</ele><time>2026-03-29T12:53:20.075Z</time></trkpt><trkpt lat="42.9695933" lon="11.6527283"><ele>464.5</ele><time>2026-03-29T12:53:21.075Z</time></trkpt><trkpt lat="42.9695283" lon="11.6525383"><ele>461.75</ele><time>2026-03-29T12:53:22.075Z</time></trkpt><trkpt lat="42.969475" lon="11.652355"><ele>459.0</ele><time>2026-03-29T12:53:23.074Z</time></trkpt><trkpt lat="42.9694317" lon="11.6521733"><ele>459.0</ele><time>2026-03-29T12:53:24.075Z</time></trkpt><trkpt lat="42.96939" lon="11.6519983"><ele>459.0</ele><time>2026-03-29T12:53:25.075Z</time></trkpt><trkpt lat="42.9693383" lon="11.6518367"><ele>459.0</ele><time>2026-03-29T12:53:26.075Z</time></trkpt><trkpt lat="42.969265" lon="11.6516817"><ele>459.0</ele><time>2026-03-29T12:53:27.075Z</time></trkpt><trkpt lat="42.9691733" lon="11.6515333"><ele>459.5</ele><time>2026-03-29T12:53:28.074Z</time></trkpt><trkpt lat="42.9690967" lon="11.6513883"><ele>460.0</ele><time>2026-03-29T12:53:29.075Z</time></trkpt><trkpt lat="42.9690183" lon="11.6512333"><ele>460.5</ele><time>2026-03-29T12:53:30.075Z</time></trkpt><trkpt lat="42.9689483" lon="11.6510867"><ele>461.0</ele><time>2026-03-29T12:53:31.075Z</time></trkpt><trkpt lat="42.968895" lon="11.6509367"><ele>461.0</ele><time>2026-03-29T12:53:32.075Z</time></trkpt><trkpt lat="42.9688517" lon="11.65079"><ele>461.0</ele><time>2026-03-29T12:53:33.075Z</time></trkpt><trkpt lat="42.9688333" lon="11.650645"><ele>461.0</ele><time>2026-03-29T12:53:34.075Z</time></trkpt><trkpt lat="42.9688617" lon="11.650505"><ele>461.0</ele><time>2026-03-29T12:53:35.075Z</time></trkpt><trkpt lat="42.9689267" lon="11.6503433"><ele>459.66666666666663</ele><time>2026-03-29T12:53:36.075Z</time></trkpt><trkpt lat="42.9690217" lon="11.65017"><ele>458.33333333333337</ele><time>2026-03-29T12:53:37.075Z</time></trkpt><trkpt lat="42.96913" lon="11.64999"><ele>457.0</ele><time>2026-03-29T12:53:38.075Z</time></trkpt><trkpt lat="42.9692417" lon="11.6498167"><ele>453.5</ele><time>2026-03-29T12:53:39.075Z</time></trkpt><trkpt lat="42.96935" lon="11.6496517"><ele>450.0</ele><time>2026-03-29T12:53:40.075Z</time></trkpt><trkpt lat="42.9694483" lon="11.6494817"><ele>446.5</ele><time>2026-03-29T12:53:41.075Z</time></trkpt><trkpt lat="42.9695133" lon="11.6493517"><ele>443.0</ele><time>2026-03-29T12:53:42.075Z</time></trkpt><trkpt lat="42.969575" lon="11.6492283"><ele>443.0</ele><time>2026-03-29T12:53:43.075Z</time></trkpt><trkpt lat="42.969625" lon="11.6491133"><ele>442.99999999999994</ele><time>2026-03-29T12:53:44.075Z</time></trkpt><trkpt lat="42.9696433" lon="11.6489933"><ele>442.99999999999994</ele><time>2026-03-29T12:53:45.075Z</time></trkpt><trkpt lat="42.9696283" lon="11.648865"><ele>443.0</ele><time>2026-03-29T12:53:46.075Z</time></trkpt><trkpt lat="42.9695933" lon="11.6487267"><ele>443.0</ele><time>2026-03-29T12:53:47.074Z</time></trkpt><trkpt lat="42.969535" lon="11.648565"><ele>440.3333333333333</ele><time>2026-03-29T12:53:48.075Z</time></trkpt><trkpt lat="42.9694567" lon="11.6483933"><ele>437.66666666666663</ele><time>2026-03-29T12:53:49.074Z</time></trkpt><trkpt lat="42.969375" lon="11.6482117"><ele>435.0</ele><time>2026-03-29T12:53:50.075Z</time></trkpt><trkpt lat="42.969285" lon="11.6480183"><ele>435.0</ele><time>2026-03-29T12:53:51.074Z</time></trkpt><trkpt lat="42.969195" lon="11.6478183"><ele>435.0</ele><time>2026-03-29T12:53:52.074Z</time></trkpt><trkpt lat="42.969115" lon="11.6476317"><ele>435.0</ele><time>2026-03-29T12:53:53.075Z</time></trkpt><trkpt lat="42.9690367" lon="11.6474533"><ele>434.75</ele><time>2026-03-29T12:53:54.074Z</time></trkpt><trkpt lat="42.96896" lon="11.64728"><ele>434.5</ele><time>2026-03-29T12:53:55.075Z</time></trkpt><trkpt lat="42.9688817" lon="11.6471133"><ele>434.25</ele><time>2026-03-29T12:53:56.075Z</time></trkpt><trkpt lat="42.9688217" lon="11.6469633"><ele>434.0</ele><time>2026-03-29T12:53:57.074Z</time></trkpt><trkpt lat="42.9687767" lon="11.6468217"><ele>432.0</ele><time>2026-03-29T12:53:58.074Z</time></trkpt><trkpt lat="42.96873" lon="11.6466717"><ele>430.0</ele><time>2026-03-29T12:53:59.075Z</time></trkpt><trkpt lat="42.9687083" lon="11.6465067"><ele>428.0</ele><time>2026-03-29T12:54:00.075Z</time></trkpt><trkpt lat="42.9687033" lon="11.6463233"><ele>426.0</ele><time>2026-03-29T12:54:01.075Z</time></trkpt><trkpt lat="42.9687267" lon="11.64614"><ele>426.0</ele><time>2026-03-29T12:54:02.075Z</time></trkpt><trkpt lat="42.9687817" lon="11.6459433"><ele>426.0</ele><time>2026-03-29T12:54:03.074Z</time></trkpt><trkpt lat="42.9688367" lon="11.6457417"><ele>426.0</ele><time>2026-03-29T12:54:04.074Z</time></trkpt><trkpt lat="42.968905" lon="11.6455767"><ele>426.0</ele><time>2026-03-29T12:54:05.075Z</time></trkpt><trkpt lat="42.9689817" lon="11.6454333"><ele>426.0</ele><time>2026-03-29T12:54:06.075Z</time></trkpt><trkpt lat="42.9690617" lon="11.645325"><ele>426.0</ele><time>2026-03-29T12:54:07.075Z</time></trkpt><trkpt lat="42.9691333" lon="11.6452433"><ele>426.0</ele><time>2026-03-29T12:54:08.074Z</time></trkpt><trkpt lat="42.9692433" lon="11.6452"><ele>427.0</ele><time>2026-03-29T12:54:10.074Z</time></trkpt><trkpt lat="42.9693833" lon="11.6451733"><ele>428.0</ele><time>2026-03-29T12:54:12.075Z</time></trkpt><trkpt lat="42.96948" lon="11.6451267"><ele>429.0</ele><time>2026-03-29T12:54:13.075Z</time></trkpt><trkpt lat="42.969585" lon="11.6450767"><ele>430.0</ele><time>2026-03-29T12:54:14.075Z</time></trkpt><trkpt lat="42.9696967" lon="11.64503"><ele>430.0</ele><time>2026-03-29T12:54:15.075Z</time></trkpt><trkpt lat="42.96979" lon="11.6449867"><ele>430.0</ele><time>2026-03-29T12:54:16.074Z</time></trkpt><trkpt lat="42.96988" lon="11.6449267"><ele>430.0</ele><time>2026-03-29T12:54:17.074Z</time></trkpt><trkpt lat="42.9699767" lon="11.6448567"><ele>430.0</ele><time>2026-03-29T12:54:18.075Z</time></trkpt><trkpt lat="42.97006" lon="11.6447617"><ele>430.0</ele><time>2026-03-29T12:54:19.074Z</time></trkpt><trkpt lat="42.97012" lon="11.64464"><ele>430.0</ele><time>2026-03-29T12:54:20.074Z</time></trkpt><trkpt lat="42.970155" lon="11.6444933"><ele>430.0</ele><time>2026-03-29T12:54:21.075Z</time></trkpt><trkpt lat="42.9701733" lon="11.644335"><ele>430.0</ele><time>2026-03-29T12:54:22.074Z</time></trkpt><trkpt lat="42.97018" lon="11.6441483"><ele>430.0</ele><time>2026-03-29T12:54:23.075Z</time></trkpt><trkpt lat="42.9701817" lon="11.6439617"><ele>432.25</ele><time>2026-03-29T12:54:24.075Z</time></trkpt><trkpt lat="42.97018" lon="11.6437917"><ele>434.5</ele><time>2026-03-29T12:54:25.075Z</time></trkpt><trkpt lat="42.970175" lon="11.6436367"><ele>436.75</ele><time>2026-03-29T12:54:26.075Z</time></trkpt><trkpt lat="42.9701617" lon="11.643475"><ele>439.0</ele><time>2026-03-29T12:54:27.075Z</time></trkpt><trkpt lat="42.9701217" lon="11.6433083"><ele>439.0</ele><time>2026-03-29T12:54:28.075Z</time></trkpt><trkpt lat="42.9700717" lon="11.64314"><ele>439.0</ele><time>2026-03-29T12:54:29.074Z</time></trkpt><trkpt lat="42.9700133" lon="11.6429617"><ele>439.0</ele><time>2026-03-29T12:54:30.074Z</time></trkpt><trkpt lat="42.969955" lon="11.6427983"><ele>439.0</ele><time>2026-03-29T12:54:31.075Z</time></trkpt><trkpt lat="42.9698983" lon="11.6426483"><ele>436.2</ele><time>2026-03-29T12:54:32.075Z</time></trkpt><trkpt lat="42.969845" lon="11.642505"><ele>433.4</ele><time>2026-03-29T12:54:33.074Z</time></trkpt><trkpt lat="42.9698083" lon="11.6423617"><ele>430.6</ele><time>2026-03-29T12:54:34.075Z</time></trkpt><trkpt lat="42.9697783" lon="11.642215"><ele>427.8</ele><time>2026-03-29T12:54:35.074Z</time></trkpt><trkpt lat="42.9697733" lon="11.6420683"><ele>425.0</ele><time>2026-03-29T12:54:36.075Z</time></trkpt><trkpt lat="42.9697933" lon="11.6419333"><ele>423.6</ele><time>2026-03-29T12:54:37.075Z</time></trkpt><trkpt lat="42.9698367" lon="11.6418067"><ele>422.2</ele><time>2026-03-29T12:54:38.075Z</time></trkpt><trkpt lat="42.96991" lon="11.6417067"><ele>420.79999999999995</ele><time>2026-03-29T12:54:39.075Z</time></trkpt><trkpt lat="42.9699967" lon="11.6416367"><ele>419.4</ele><time>2026-03-29T12:54:40.075Z</time></trkpt><trkpt lat="42.9701083" lon="11.6415917"><ele>418.0</ele><time>2026-03-29T12:54:41.075Z</time></trkpt><trkpt lat="42.9702517" lon="11.6415783"><ele>416.6666666666667</ele><time>2026-03-29T12:54:42.074Z</time></trkpt><trkpt lat="42.9704233" lon="11.6415833"><ele>415.33333333333337</ele><time>2026-03-29T12:54:43.074Z</time></trkpt><trkpt lat="42.9706133" lon="11.6415867"><ele>414.0</ele><time>2026-03-29T12:54:44.074Z</time></trkpt><trkpt lat="42.97078" lon="11.6415733"><ele>413.5</ele><time>2026-03-29T12:54:45.075Z</time></trkpt><trkpt lat="42.9709217" lon="11.6415483"><ele>413.0</ele><time>2026-03-29T12:54:46.075Z</time></trkpt><trkpt lat="42.97104" lon="11.6415183"><ele>412.5</ele><time>2026-03-29T12:54:47.074Z</time></trkpt><trkpt lat="42.97114" lon="11.6414533"><ele>412.0</ele><time>2026-03-29T12:54:48.075Z</time></trkpt><trkpt lat="42.97123" lon="11.6413533"><ele>412.0</ele><time>2026-03-29T12:54:49.075Z</time></trkpt><trkpt lat="42.9712967" lon="11.6412317"><ele>412.0</ele><time>2026-03-29T12:54:50.075Z</time></trkpt><trkpt lat="42.9713483" lon="11.641095"><ele>412.0</ele><time>2026-03-29T12:54:51.075Z</time></trkpt><trkpt lat="42.9714017" lon="11.640945"><ele>412.0</ele><time>2026-03-29T12:54:52.075Z</time></trkpt><trkpt lat="42.971455" lon="11.6408067"><ele>411.5</ele><time>2026-03-29T12:54:53.075Z</time></trkpt><trkpt lat="42.9715133" lon="11.6406833"><ele>411.0</ele><time>2026-03-29T12:54:54.075Z</time></trkpt><trkpt lat="42.9715867" lon="11.640585"><ele>410.5</ele><time>2026-03-29T12:54:55.074Z</time></trkpt><trkpt lat="42.9716883" lon="11.6405083"><ele>410.0</ele><time>2026-03-29T12:54:56.075Z</time></trkpt><trkpt lat="42.971835" lon="11.6404467"><ele>410.0</ele><time>2026-03-29T12:54:57.075Z</time></trkpt><trkpt lat="42.9719883" lon="11.6403817"><ele>410.0</ele><time>2026-03-29T12:54:58.074Z</time></trkpt><trkpt lat="42.972135" lon="11.6403333"><ele>410.0</ele><time>2026-03-29T12:54:59.075Z</time></trkpt><trkpt lat="42.9722817" lon="11.6403117"><ele>410.0</ele><time>2026-03-29T12:55:00.074Z</time></trkpt><trkpt lat="42.9724267" lon="11.6403167"><ele>410.0</ele><time>2026-03-29T12:55:01.075Z</time></trkpt><trkpt lat="42.97258" lon="11.6403483"><ele>410.0</ele><time>2026-03-29T12:55:02.075Z</time></trkpt><trkpt lat="42.972765" lon="11.6403983"><ele>410.0</ele><time>2026-03-29T12:55:03.075Z</time></trkpt><trkpt lat="42.9729267" lon="11.6404533"><ele>410.0</ele><time>2026-03-29T12:55:04.075Z</time></trkpt><trkpt lat="42.97308" lon="11.640515"><ele>410.0</ele><time>2026-03-29T12:55:05.075Z</time></trkpt><trkpt lat="42.9732333" lon="11.640565"><ele>409.3333333333333</ele><time>2026-03-29T12:55:06.074Z</time></trkpt><trkpt lat="42.9733867" lon="11.6405917"><ele>408.66666666666663</ele><time>2026-03-29T12:55:07.075Z</time></trkpt><trkpt lat="42.9735467" lon="11.640605"><ele>408.0</ele><time>2026-03-29T12:55:08.074Z</time></trkpt><trkpt lat="42.9737217" lon="11.640605"><ele>408.0</ele><time>2026-03-29T12:55:09.075Z</time></trkpt><trkpt lat="42.9739017" lon="11.640605"><ele>408.0</ele><time>2026-03-29T12:55:10.074Z</time></trkpt><trkpt lat="42.9740733" lon="11.6406033"><ele>408.0</ele><time>2026-03-29T12:55:11.075Z</time></trkpt><trkpt lat="42.9742317" lon="11.64061"><ele>407.25</ele><time>2026-03-29T12:55:12.075Z</time></trkpt><trkpt lat="42.9743867" lon="11.64061"><ele>406.5</ele><time>2026-03-29T12:55:13.074Z</time></trkpt><trkpt lat="42.9745283" lon="11.6406"><ele>405.75</ele><time>2026-03-29T12:55:14.074Z</time></trkpt><trkpt lat="42.974665" lon="11.6405983"><ele>405.0</ele><time>2026-03-29T12:55:15.075Z</time></trkpt><trkpt lat="42.9747867" lon="11.6406017"><ele>405.0</ele><time>2026-03-29T12:55:16.075Z</time></trkpt><trkpt lat="42.9749183" lon="11.640635"><ele>405.0</ele><time>2026-03-29T12:55:17.075Z</time></trkpt><trkpt lat="42.9750533" lon="11.6406917"><ele>405.0</ele><time>2026-03-29T12:55:18.074Z</time></trkpt><trkpt lat="42.9751933" lon="11.6407817"><ele>405.0</ele><time>2026-03-29T12:55:19.075Z</time></trkpt><trkpt lat="42.9753333" lon="11.64086"><ele>405.66666666666663</ele><time>2026-03-29T12:55:20.074Z</time></trkpt><trkpt lat="42.9754867" lon="11.6409267"><ele>406.3333333333333</ele><time>2026-03-29T12:55:21.075Z</time></trkpt><trkpt lat="42.9756533" lon="11.64098"><ele>407.0</ele><time>2026-03-29T12:55:22.075Z</time></trkpt><trkpt lat="42.975805" lon="11.6410283"><ele>408.0</ele><time>2026-03-29T12:55:23.075Z</time></trkpt><trkpt lat="42.9759483" lon="11.64108"><ele>409.0</ele><time>2026-03-29T12:55:24.075Z</time></trkpt><trkpt lat="42.9760733" lon="11.6411567"><ele>410.0</ele><time>2026-03-29T12:55:25.074Z</time></trkpt><trkpt lat="42.9762" lon="11.6412683"><ele>411.0</ele><time>2026-03-29T12:55:26.075Z</time></trkpt><trkpt lat="42.97634" lon="11.6414333"><ele>408.0</ele><time>2026-03-29T12:55:27.075Z</time></trkpt><trkpt lat="42.9764717" lon="11.6415883"><ele>405.0</ele><time>2026-03-29T12:55:28.074Z</time></trkpt><trkpt lat="42.976585" lon="11.6417167"><ele>402.0</ele><time>2026-03-29T12:55:29.074Z</time></trkpt><trkpt lat="42.9767217" lon="11.6418333"><ele>402.0</ele><time>2026-03-29T12:55:30.074Z</time></trkpt><trkpt lat="42.9768883" lon="11.6419483"><ele>402.0</ele><time>2026-03-29T12:55:31.075Z</time></trkpt><trkpt lat="42.977095" lon="11.64208"><ele>402.0</ele><time>2026-03-29T12:55:32.075Z</time></trkpt><trkpt lat="42.9773" lon="11.6422067"><ele>400.5</ele><time>2026-03-29T12:55:33.074Z</time></trkpt><trkpt lat="42.9775283" lon="11.642345"><ele>399.0</ele><time>2026-03-29T12:55:34.075Z</time></trkpt><trkpt lat="42.9777683" lon="11.642505"><ele>399.0</ele><time>2026-03-29T12:55:35.075Z</time></trkpt><trkpt lat="42.9779967" lon="11.6426517"><ele>399.0</ele><time>2026-03-29T12:55:36.075Z</time></trkpt><trkpt lat="42.97821" lon="11.6427933"><ele>398.0</ele><time>2026-03-29T12:55:37.075Z</time></trkpt><trkpt lat="42.978405" lon="11.6429167"><ele>397.0</ele><time>2026-03-29T12:55:38.075Z</time></trkpt><trkpt lat="42.9785667" lon="11.6430433"><ele>396.0</ele><time>2026-03-29T12:55:39.074Z</time></trkpt><trkpt lat="42.9787183" lon="11.643165"><ele>396.0</ele><time>2026-03-29T12:55:40.075Z</time></trkpt><trkpt lat="42.9788367" lon="11.6432717"><ele>396.0</ele><time>2026-03-29T12:55:41.075Z</time></trkpt><trkpt lat="42.9789567" lon="11.6433433"><ele>396.0</ele><time>2026-03-29T12:55:42.074Z</time></trkpt><trkpt lat="42.9790617" lon="11.6433717"><ele>396.0</ele><time>2026-03-29T12:55:43.075Z</time></trkpt><trkpt lat="42.9791733" lon="11.6433733"><ele>395.5</ele><time>2026-03-29T12:55:44.074Z</time></trkpt><trkpt lat="42.9792817" lon="11.6433333"><ele>395.0</ele><time>2026-03-29T12:55:45.075Z</time></trkpt><trkpt lat="42.979385" lon="11.643235"><ele>394.5</ele><time>2026-03-29T12:55:46.075Z</time></trkpt><trkpt lat="42.9795" lon="11.6431017"><ele>394.0</ele><time>2026-03-29T12:55:47.074Z</time></trkpt><trkpt lat="42.9796283" lon="11.642955"><ele>394.0</ele><time>2026-03-29T12:55:48.075Z</time></trkpt><trkpt lat="42.9797533" lon="11.6428333"><ele>394.0</ele><time>2026-03-29T12:55:49.075Z</time></trkpt><trkpt lat="42.979855" lon="11.6427067"><ele>394.0</ele><time>2026-03-29T12:55:50.075Z</time></trkpt><trkpt lat="42.9799383" lon="11.6425917"><ele>394.0</ele><time>2026-03-29T12:55:51.075Z</time></trkpt><trkpt lat="42.9799983" lon="11.642455"><ele>396.6666666666667</ele><time>2026-03-29T12:55:52.075Z</time></trkpt><trkpt lat="42.98005" lon="11.6422817"><ele>399.33333333333337</ele><time>2026-03-29T12:55:53.075Z</time></trkpt><trkpt lat="42.9801067" lon="11.6420567"><ele>402.0</ele><time>2026-03-29T12:55:54.075Z</time></trkpt><trkpt lat="42.9801733" lon="11.6418133"><ele>403.0</ele><time>2026-03-29T12:55:55.075Z</time></trkpt><trkpt lat="42.980245" lon="11.6415617"><ele>404.0</ele><time>2026-03-29T12:55:56.075Z</time></trkpt><trkpt lat="42.98031" lon="11.641325"><ele>405.0</ele><time>2026-03-29T12:55:57.074Z</time></trkpt><trkpt lat="42.9803617" lon="11.6411167"><ele>406.33333333333337</ele><time>2026-03-29T12:55:58.075Z</time></trkpt><trkpt lat="42.9803867" lon="11.6409233"><ele>407.6666666666667</ele><time>2026-03-29T12:55:59.075Z</time></trkpt><trkpt lat="42.9804" lon="11.6407317"><ele>409.0</ele><time>2026-03-29T12:56:00.075Z</time></trkpt><trkpt lat="42.980385" lon="11.6405067"><ele>410.6666666666667</ele><time>2026-03-29T12:56:01.075Z</time></trkpt><trkpt lat="42.9803567" lon="11.6402483"><ele>412.33333333333337</ele><time>2026-03-29T12:56:02.075Z</time></trkpt><trkpt lat="42.9803242" lon="11.6399917"><ele>414.0</ele><time>2026-03-29T12:56:03.075Z</time></trkpt><trkpt lat="42.9802967" lon="11.6397626"><ele>414.0</ele><time>2026-03-29T12:56:04.074Z</time></trkpt><trkpt lat="42.9802806" lon="11.6395724"><ele>414.0</ele><time>2026-03-29T12:56:05.074Z</time></trkpt><trkpt lat="42.9802771" lon="11.6394192"><ele>414.0</ele><time>2026-03-29T12:56:06.075Z</time></trkpt><trkpt lat="42.9802935" lon="11.6392873"><ele>414.0</ele><time>2026-03-29T12:56:07.074Z</time></trkpt><trkpt lat="42.9803436" lon="11.6391745"><ele>414.0</ele><time>2026-03-29T12:56:08.075Z</time></trkpt><trkpt lat="42.9804032" lon="11.6390864"><ele>416.0</ele><time>2026-03-29T12:56:09.075Z</time></trkpt><trkpt lat="42.9804804" lon="11.6390283"><ele>418.0</ele><time>2026-03-29T12:56:10.075Z</time></trkpt><trkpt lat="42.9805684" lon="11.6389959"><ele>420.0</ele><time>2026-03-29T12:56:11.074Z</time></trkpt><trkpt lat="42.9806752" lon="11.6389959"><ele>422.0</ele><time>2026-03-29T12:56:12.075Z</time></trkpt><trkpt lat="42.9807886" lon="11.6390353"><ele>424.0</ele><time>2026-03-29T12:56:13.074Z</time></trkpt><trkpt lat="42.9809056" lon="11.6391262"><ele>423.33333333333337</ele><time>2026-03-29T12:56:14.075Z</time></trkpt><trkpt lat="42.9810297" lon="11.6392691"><ele>422.66666666666663</ele><time>2026-03-29T12:56:15.074Z</time></trkpt><trkpt lat="42.9811676" lon="11.6394509"><ele>422.0</ele><time>2026-03-29T12:56:16.074Z</time></trkpt><trkpt lat="42.9813111" lon="11.6396392"><ele>422.0</ele><time>2026-03-29T12:56:17.075Z</time></trkpt><trkpt lat="42.9814394" lon="11.6398"><ele>422.0</ele><time>2026-03-29T12:56:18.075Z</time></trkpt><trkpt lat="42.9815517" lon="11.6399348"><ele>422.0</ele><time>2026-03-29T12:56:19.075Z</time></trkpt><trkpt lat="42.9816478" lon="11.6400479"><ele>422.20000000000005</ele><time>2026-03-29T12:56:20.075Z</time></trkpt><trkpt lat="42.9817284" lon="11.6401473"><ele>422.4</ele><time>2026-03-29T12:56:21.075Z</time></trkpt><trkpt lat="42.9818064" lon="11.6402356"><ele>422.6</ele><time>2026-03-29T12:56:22.075Z</time></trkpt><trkpt lat="42.9818755" lon="11.6402968"><ele>422.79999999999995</ele><time>2026-03-29T12:56:23.074Z</time></trkpt><trkpt lat="42.9819385" lon="11.6403303"><ele>423.0</ele><time>2026-03-29T12:56:24.075Z</time></trkpt><trkpt lat="42.9820399" lon="11.6403475"><ele>423.0</ele><time>2026-03-29T12:56:26.075Z</time></trkpt><trkpt lat="42.9821357" lon="11.6403044"><ele>423.0</ele><time>2026-03-29T12:56:28.075Z</time></trkpt><trkpt lat="42.9822316" lon="11.6402119"><ele>423.0</ele><time>2026-03-29T12:56:30.074Z</time></trkpt><trkpt lat="42.9822826" lon="11.6401515"><ele>423.0</ele><time>2026-03-29T12:56:31.075Z</time></trkpt><trkpt lat="42.982341" lon="11.6400761"><ele>423.0</ele><time>2026-03-29T12:56:32.075Z</time></trkpt><trkpt lat="42.98241" lon="11.6399919"><ele>423.0</ele><time>2026-03-29T12:56:33.075Z</time></trkpt><trkpt lat="42.9824952" lon="11.6399051"><ele>423.0</ele><time>2026-03-29T12:56:34.075Z</time></trkpt><trkpt lat="42.9825885" lon="11.6398161"><ele>423.0</ele><time>2026-03-29T12:56:35.074Z</time></trkpt><trkpt lat="42.9826801" lon="11.6397264"><ele>423.0</ele><time>2026-03-29T12:56:36.075Z</time></trkpt><trkpt lat="42.9827694" lon="11.6396344"><ele>423.0</ele><time>2026-03-29T12:56:37.075Z</time></trkpt><trkpt lat="42.9828577" lon="11.6395476"><ele>422.59999999999997</ele><time>2026-03-29T12:56:38.075Z</time></trkpt><trkpt lat="42.9829449" lon="11.639466"><ele>422.2</ele><time>2026-03-29T12:56:39.074Z</time></trkpt><trkpt lat="42.9830396" lon="11.639399"><ele>421.8</ele><time>2026-03-29T12:56:40.074Z</time></trkpt><trkpt lat="42.9831418" lon="11.6393483"><ele>421.4</ele><time>2026-03-29T12:56:41.075Z</time></trkpt><trkpt lat="42.9832509" lon="11.6393166"><ele>421.0</ele><time>2026-03-29T12:56:42.075Z</time></trkpt><trkpt lat="42.9833606" lon="11.6393111"><ele>419.6</ele><time>2026-03-29T12:56:43.075Z</time></trkpt><trkpt lat="42.9834725" lon="11.6393258"><ele>418.20000000000005</ele><time>2026-03-29T12:56:44.075Z</time></trkpt><trkpt lat="42.9835816" lon="11.6393409"><ele>416.79999999999995</ele><time>2026-03-29T12:56:45.074Z</time></trkpt><trkpt lat="42.9836764" lon="11.6393505"><ele>415.4</ele><time>2026-03-29T12:56:46.074Z</time></trkpt><trkpt lat="42.9837597" lon="11.6393467"><ele>414.0</ele><time>2026-03-29T12:56:47.074Z</time></trkpt><trkpt lat="42.983834" lon="11.6393293"><ele>414.0</ele><time>2026-03-29T12:56:48.075Z</time></trkpt><trkpt lat="42.9839136" lon="11.6393017"><ele>414.0</ele><time>2026-03-29T12:56:49.075Z</time></trkpt><trkpt lat="42.9840031" lon="11.639268"><ele>414.0</ele><time>2026-03-29T12:56:50.075Z</time></trkpt><trkpt lat="42.9840995" lon="11.6392266"><ele>414.0</ele><time>2026-03-29T12:56:51.075Z</time></trkpt><trkpt lat="42.9841988" lon="11.6391876"><ele>414.0</ele><time>2026-03-29T12:56:52.075Z</time></trkpt><trkpt lat="42.9843056" lon="11.6391513"><ele>412.25</ele><time>2026-03-29T12:56:53.075Z</time></trkpt><trkpt lat="42.9844117" lon="11.6391338"><ele>410.5</ele><time>2026-03-29T12:56:54.075Z</time></trkpt><trkpt lat="42.984522" lon="11.6391209"><ele>408.75</ele><time>2026-03-29T12:56:55.075Z</time></trkpt><trkpt lat="42.9846386" lon="11.6391273"><ele>407.0</ele><time>2026-03-29T12:56:56.075Z</time></trkpt><trkpt lat="42.984766" lon="11.639163"><ele>407.0</ele><time>2026-03-29T12:56:57.075Z</time></trkpt><trkpt lat="42.9849191" lon="11.6392301"><ele>407.0</ele><time>2026-03-29T12:56:58.075Z</time></trkpt><trkpt lat="42.9850927" lon="11.6392959"><ele>407.0</ele><time>2026-03-29T12:56:59.075Z</time></trkpt><trkpt lat="42.985271" lon="11.6393602"><ele>406.0</ele><time>2026-03-29T12:57:00.075Z</time></trkpt><trkpt lat="42.9854344" lon="11.639425"><ele>405.0</ele><time>2026-03-29T12:57:01.075Z</time></trkpt><trkpt lat="42.9855814" lon="11.6394826"><ele>404.0</ele><time>2026-03-29T12:57:02.075Z</time></trkpt><trkpt lat="42.9857079" lon="11.6395327"><ele>404.0</ele><time>2026-03-29T12:57:03.074Z</time></trkpt><trkpt lat="42.9858286" lon="11.6395855"><ele>404.0</ele><time>2026-03-29T12:57:04.075Z</time></trkpt><trkpt lat="42.9859335" lon="11.6396482"><ele>404.0</ele><time>2026-03-29T12:57:05.074Z</time></trkpt><trkpt lat="42.9860308" lon="11.6397406"><ele>404.0</ele><time>2026-03-29T12:57:06.075Z</time></trkpt><trkpt lat="42.9861274" lon="11.6398862"><ele>402.5</ele><time>2026-03-29T12:57:07.075Z</time></trkpt><trkpt lat="42.9862248" lon="11.6400572"><ele>401.0</ele><time>2026-03-29T12:57:08.075Z</time></trkpt><trkpt lat="42.9863113" lon="11.6402196"><ele>399.5</ele><time>2026-03-29T12:57:09.075Z</time></trkpt><trkpt lat="42.9863897" lon="11.6403594"><ele>398.0</ele><time>2026-03-29T12:57:10.075Z</time></trkpt><trkpt lat="42.9864642" lon="11.6404823"><ele>398.0</ele><time>2026-03-29T12:57:11.075Z</time></trkpt><trkpt lat="42.9865426" lon="11.640573"><ele>398.0</ele><time>2026-03-29T12:57:12.075Z</time></trkpt><trkpt lat="42.9866267" lon="11.640629"><ele>398.0</ele><time>2026-03-29T12:57:13.075Z</time></trkpt><trkpt lat="42.9867211" lon="11.6406445"><ele>398.0</ele><time>2026-03-29T12:57:14.075Z</time></trkpt><trkpt lat="42.9868296" lon="11.6406187"><ele>398.0</ele><time>2026-03-29T12:57:15.075Z</time></trkpt><trkpt lat="42.9869506" lon="11.6405675"><ele>397.2</ele><time>2026-03-29T12:57:16.075Z</time></trkpt><trkpt lat="42.9870623" lon="11.6405079"><ele>396.4</ele><time>2026-03-29T12:57:17.075Z</time></trkpt><trkpt lat="42.9871592" lon="11.6404351"><ele>395.59999999999997</ele><time>2026-03-29T12:57:18.075Z</time></trkpt><trkpt lat="42.9872355" lon="11.6403454"><ele>394.79999999999995</ele><time>2026-03-29T12:57:19.075Z</time></trkpt><trkpt lat="42.9872884" lon="11.6402202"><ele>394.0</ele><time>2026-03-29T12:57:20.075Z</time></trkpt><trkpt lat="42.9873218" lon="11.6400526"><ele>394.0</ele><time>2026-03-29T12:57:21.075Z</time></trkpt><trkpt lat="42.9873366" lon="11.639835"><ele>394.0</ele><time>2026-03-29T12:57:22.075Z</time></trkpt><trkpt lat="42.9873437" lon="11.6396092"><ele>394.0</ele><time>2026-03-29T12:57:23.075Z</time></trkpt><trkpt lat="42.9873578" lon="11.6393984"><ele>395.0</ele><time>2026-03-29T12:57:24.075Z</time></trkpt><trkpt lat="42.987392" lon="11.6392044"><ele>396.0</ele><time>2026-03-29T12:57:25.075Z</time></trkpt><trkpt lat="42.9874556" lon="11.6390128"><ele>397.0</ele><time>2026-03-29T12:57:26.075Z</time></trkpt><trkpt lat="42.9875564" lon="11.6388054"><ele>393.33333333333337</ele><time>2026-03-29T12:57:27.075Z</time></trkpt><trkpt lat="42.9876809" lon="11.6385748"><ele>389.66666666666663</ele><time>2026-03-29T12:57:28.075Z</time></trkpt><trkpt lat="42.9878007" lon="11.6383512"><ele>386.0</ele><time>2026-03-29T12:57:29.075Z</time></trkpt><trkpt lat="42.9879063" lon="11.6381514"><ele>386.0</ele><time>2026-03-29T12:57:30.075Z</time></trkpt><trkpt lat="42.9880049" lon="11.6379706"><ele>386.0</ele><time>2026-03-29T12:57:31.075Z</time></trkpt><trkpt lat="42.9881118" lon="11.6378024"><ele>386.0</ele><time>2026-03-29T12:57:32.075Z</time></trkpt><trkpt lat="42.9882236" lon="11.6376537"><ele>382.3333333333333</ele><time>2026-03-29T12:57:33.074Z</time></trkpt><trkpt lat="42.9883568" lon="11.6375258"><ele>378.66666666666663</ele><time>2026-03-29T12:57:34.075Z</time></trkpt><trkpt lat="42.9884965" lon="11.6374058"><ele>375.0</ele><time>2026-03-29T12:57:35.074Z</time></trkpt><trkpt lat="42.9886326" lon="11.6372919"><ele>375.0</ele><time>2026-03-29T12:57:36.074Z</time></trkpt><trkpt lat="42.9887749" lon="11.6372089"><ele>375.0</ele><time>2026-03-29T12:57:37.074Z</time></trkpt><trkpt lat="42.988913" lon="11.6371514"><ele>375.0</ele><time>2026-03-29T12:57:38.075Z</time></trkpt><trkpt lat="42.9890707" lon="11.6371322"><ele>374.0</ele><time>2026-03-29T12:57:39.074Z</time></trkpt><trkpt lat="42.9892396" lon="11.6371335"><ele>373.0</ele><time>2026-03-29T12:57:40.075Z</time></trkpt><trkpt lat="42.9894238" lon="11.6371103"><ele>372.0</ele><time>2026-03-29T12:57:41.074Z</time></trkpt><trkpt lat="42.9896168" lon="11.6370521"><ele>372.0</ele><time>2026-03-29T12:57:42.075Z</time></trkpt><trkpt lat="42.9898063" lon="11.6369714"><ele>372.0</ele><time>2026-03-29T12:57:43.075Z</time></trkpt><trkpt lat="42.9899949" lon="11.636888"><ele>372.0</ele><time>2026-03-29T12:57:44.074Z</time></trkpt><trkpt lat="42.9901917" lon="11.6367883"><ele>370.6666666666667</ele><time>2026-03-29T12:57:45.075Z</time></trkpt><trkpt lat="42.9903717" lon="11.6366983"><ele>369.33333333333337</ele><time>2026-03-29T12:57:46.074Z</time></trkpt><trkpt lat="42.9905417" lon="11.6366083"><ele>368.0</ele><time>2026-03-29T12:57:47.075Z</time></trkpt><trkpt lat="42.9907033" lon="11.6364967"><ele>367.6666666666667</ele><time>2026-03-29T12:57:48.075Z</time></trkpt><trkpt lat="42.9908683" lon="11.6363633"><ele>367.3333333333333</ele><time>2026-03-29T12:57:49.074Z</time></trkpt><trkpt lat="42.9910433" lon="11.6362317"><ele>367.0</ele><time>2026-03-29T12:57:50.075Z</time></trkpt><trkpt lat="42.9912133" lon="11.6361"><ele>364.0</ele><time>2026-03-29T12:57:51.075Z</time></trkpt><trkpt lat="42.9913733" lon="11.6359733"><ele>361.0</ele><time>2026-03-29T12:57:52.075Z</time></trkpt><trkpt lat="42.991525" lon="11.6358517"><ele>358.0</ele><time>2026-03-29T12:57:53.075Z</time></trkpt><trkpt lat="42.9916667" lon="11.6357217"><ele>358.66666666666663</ele><time>2026-03-29T12:57:54.075Z</time></trkpt><trkpt lat="42.9918067" lon="11.6355883"><ele>359.3333333333333</ele><time>2026-03-29T12:57:55.075Z</time></trkpt><trkpt lat="42.9919433" lon="11.6354667"><ele>360.0</ele><time>2026-03-29T12:57:56.075Z</time></trkpt><trkpt lat="42.9920733" lon="11.6353433"><ele>358.0</ele><time>2026-03-29T12:57:57.075Z</time></trkpt><trkpt lat="42.9922" lon="11.6352217"><ele>356.0</ele><time>2026-03-29T12:57:58.075Z</time></trkpt><trkpt lat="42.99232" lon="11.6350917"><ele>354.0</ele><time>2026-03-29T12:57:59.075Z</time></trkpt><trkpt lat="42.9924183" lon="11.6349367"><ele>354.0</ele><time>2026-03-29T12:58:00.075Z</time></trkpt><trkpt lat="42.9924883" lon="11.6347717"><ele>354.0</ele><time>2026-03-29T12:58:01.074Z</time></trkpt><trkpt lat="42.9925533" lon="11.6345767"><ele>354.0</ele><time>2026-03-29T12:58:02.075Z</time></trkpt><trkpt lat="42.9925917" lon="11.6343217"><ele>355.3333333333333</ele><time>2026-03-29T12:58:03.074Z</time></trkpt><trkpt lat="42.9926317" lon="11.6340317"><ele>356.66666666666663</ele><time>2026-03-29T12:58:04.075Z</time></trkpt><trkpt lat="42.9926683" lon="11.6337367"><ele>358.0</ele><time>2026-03-29T12:58:05.075Z</time></trkpt><trkpt lat="42.9927083" lon="11.6334783"><ele>359.0</ele><time>2026-03-29T12:58:06.075Z</time></trkpt><trkpt lat="42.992745" lon="11.6332533"><ele>360.0</ele><time>2026-03-29T12:58:07.075Z</time></trkpt><trkpt lat="42.9927583" lon="11.6330533"><ele>361.0</ele><time>2026-03-29T12:58:08.075Z</time></trkpt><trkpt lat="42.99276" lon="11.6328483"><ele>361.66666666666663</ele><time>2026-03-29T12:58:09.075Z</time></trkpt><trkpt lat="42.9927433" lon="11.63262"><ele>362.3333333333333</ele><time>2026-03-29T12:58:10.075Z</time></trkpt><trkpt lat="42.9927" lon="11.6323633"><ele>363.0</ele><time>2026-03-29T12:58:11.075Z</time></trkpt><trkpt lat="42.992655" lon="11.6320917"><ele>362.3333333333333</ele><time>2026-03-29T12:58:12.075Z</time></trkpt><trkpt lat="42.99262" lon="11.63184"><ele>361.66666666666663</ele><time>2026-03-29T12:58:13.074Z</time></trkpt><trkpt lat="42.9925833" lon="11.631605"><ele>361.0</ele><time>2026-03-29T12:58:14.075Z</time></trkpt><trkpt lat="42.9925533" lon="11.6313917"><ele>361.0</ele><time>2026-03-29T12:58:15.074Z</time></trkpt><trkpt lat="42.9925367" lon="11.6312017"><ele>361.0</ele><time>2026-03-29T12:58:16.074Z</time></trkpt><trkpt lat="42.992545" lon="11.63101"><ele>361.0</ele><time>2026-03-29T12:58:17.075Z</time></trkpt><trkpt lat="42.992585" lon="11.630835"><ele>361.0</ele><time>2026-03-29T12:58:18.075Z</time></trkpt><trkpt lat="42.99265" lon="11.6306617"><ele>357.66666666666663</ele><time>2026-03-29T12:58:19.075Z</time></trkpt><trkpt lat="42.9927417" lon="11.6304617"><ele>354.3333333333333</ele><time>2026-03-29T12:58:20.075Z</time></trkpt><trkpt lat="42.9928533" lon="11.6302317"><ele>351.0</ele><time>2026-03-29T12:58:21.074Z</time></trkpt><trkpt lat="42.9929517" lon="11.630005"><ele>349.0</ele><time>2026-03-29T12:58:22.075Z</time></trkpt><trkpt lat="42.9930467" lon="11.62981"><ele>347.0</ele><time>2026-03-29T12:58:23.075Z</time></trkpt><trkpt lat="42.9931217" lon="11.6296283"><ele>345.0</ele><time>2026-03-29T12:58:24.074Z</time></trkpt><trkpt lat="42.9931983" lon="11.6294733"><ele>345.0</ele><time>2026-03-29T12:58:25.075Z</time></trkpt><trkpt lat="42.9932817" lon="11.6293467"><ele>345.0</ele><time>2026-03-29T12:58:26.074Z</time></trkpt><trkpt lat="42.99337" lon="11.6292433"><ele>345.0</ele><time>2026-03-29T12:58:27.074Z</time></trkpt><trkpt lat="42.9934833" lon="11.6291683"><ele>345.0</ele><time>2026-03-29T12:58:28.075Z</time></trkpt><trkpt lat="42.99364" lon="11.6291317"><ele>344.3333333333333</ele><time>2026-03-29T12:58:29.075Z</time></trkpt><trkpt lat="42.9938183" lon="11.6291217"><ele>343.66666666666663</ele><time>2026-03-29T12:58:30.075Z</time></trkpt><trkpt lat="42.9940383" lon="11.62912"><ele>343.0</ele><time>2026-03-29T12:58:31.074Z</time></trkpt><trkpt lat="42.9943" lon="11.62912"><ele>346.5</ele><time>2026-03-29T12:58:32.074Z</time></trkpt><trkpt lat="42.9946" lon="11.6290983"><ele>350.0</ele><time>2026-03-29T12:58:33.074Z</time></trkpt><trkpt lat="42.99491" lon="11.6290883"><ele>353.0</ele><time>2026-03-29T12:58:34.075Z</time></trkpt><trkpt lat="42.9951983" lon="11.6290733"><ele>356.0</ele><time>2026-03-29T12:58:35.074Z</time></trkpt><trkpt lat="42.99545" lon="11.6290517"><ele>356.0</ele><time>2026-03-29T12:58:36.075Z</time></trkpt><trkpt lat="42.9956833" lon="11.6290383"><ele>356.0</ele><time>2026-03-29T12:58:37.075Z</time></trkpt><trkpt lat="42.9958817" lon="11.62904"><ele>356.0</ele><time>2026-03-29T12:58:38.074Z</time></trkpt><trkpt lat="42.9960517" lon="11.6290367"><ele>358.0</ele><time>2026-03-29T12:58:39.074Z</time></trkpt><trkpt lat="42.99621" lon="11.6290183"><ele>360.0</ele><time>2026-03-29T12:58:40.075Z</time></trkpt><trkpt lat="42.9963633" lon="11.6289917"><ele>362.0</ele><time>2026-03-29T12:58:41.074Z</time></trkpt><trkpt lat="42.9965217" lon="11.6289267"><ele>362.6666666666667</ele><time>2026-03-29T12:58:42.075Z</time></trkpt><trkpt lat="42.9966983" lon="11.6288433"><ele>363.3333333333333</ele><time>2026-03-29T12:58:43.075Z</time></trkpt><trkpt lat="42.9968833" lon="11.6287483"><ele>364.0</ele><time>2026-03-29T12:58:44.075Z</time></trkpt><trkpt lat="42.9970867" lon="11.628645"><ele>367.0</ele><time>2026-03-29T12:58:45.074Z</time></trkpt><trkpt lat="42.9972883" lon="11.6285683"><ele>370.0</ele><time>2026-03-29T12:58:46.074Z</time></trkpt><trkpt lat="42.9974917" lon="11.6285183"><ele>373.0</ele><time>2026-03-29T12:58:47.075Z</time></trkpt><trkpt lat="42.997685" lon="11.62848"><ele>373.0</ele><time>2026-03-29T12:58:48.075Z</time></trkpt><trkpt lat="42.9978367" lon="11.6284317"><ele>373.0</ele><time>2026-03-29T12:58:49.075Z</time></trkpt><trkpt lat="42.9979667" lon="11.628375"><ele>373.0</ele><time>2026-03-29T12:58:50.074Z</time></trkpt><trkpt lat="42.998085" lon="11.6283317"><ele>373.0</ele><time>2026-03-29T12:58:51.075Z</time></trkpt><trkpt lat="42.9981833" lon="11.6282533"><ele>373.0</ele><time>2026-03-29T12:58:52.074Z</time></trkpt><trkpt lat="42.9982667" lon="11.628125"><ele>373.0</ele><time>2026-03-29T12:58:53.075Z</time></trkpt><trkpt lat="42.9983417" lon="11.6279517"><ele>373.0</ele><time>2026-03-29T12:58:54.074Z</time></trkpt><trkpt lat="42.998425" lon="11.6277367"><ele>371.3333333333333</ele><time>2026-03-29T12:58:55.074Z</time></trkpt><trkpt lat="42.9985217" lon="11.6275"><ele>369.6666666666667</ele><time>2026-03-29T12:58:56.075Z</time></trkpt><trkpt lat="42.9986267" lon="11.6272783"><ele>368.0</ele><time>2026-03-29T12:58:57.075Z</time></trkpt><trkpt lat="42.99874" lon="11.6270867"><ele>370.6666666666667</ele><time>2026-03-29T12:58:58.074Z</time></trkpt><trkpt lat="42.9988783" lon="11.6269083"><ele>373.3333333333333</ele><time>2026-03-29T12:58:59.075Z</time></trkpt><trkpt lat="42.9990217" lon="11.6267633"><ele>376.0</ele><time>2026-03-29T12:59:00.074Z</time></trkpt><trkpt lat="42.99917" lon="11.6266667"><ele>376.0</ele><time>2026-03-29T12:59:01.075Z</time></trkpt><trkpt lat="42.9993333" lon="11.62659"><ele>376.0</ele><time>2026-03-29T12:59:02.074Z</time></trkpt><trkpt lat="42.999505" lon="11.62653"><ele>376.0</ele><time>2026-03-29T12:59:03.074Z</time></trkpt><trkpt lat="42.999705" lon="11.62646"><ele>376.0</ele><time>2026-03-29T12:59:04.075Z</time></trkpt><trkpt lat="42.9999017" lon="11.626405"><ele>376.0</ele><time>2026-03-29T12:59:05.075Z</time></trkpt><trkpt lat="43.0000733" lon="11.6263667"><ele>376.0</ele><time>2026-03-29T12:59:06.075Z</time></trkpt><trkpt lat="43.00022" lon="11.6263167"><ele>376.0</ele><time>2026-03-29T12:59:07.075Z</time></trkpt><trkpt lat="43.0003517" lon="11.626285"><ele>376.0</ele><time>2026-03-29T12:59:08.074Z</time></trkpt><trkpt lat="43.000455" lon="11.6262233"><ele>376.0</ele><time>2026-03-29T12:59:09.075Z</time></trkpt><trkpt lat="43.0005383" lon="11.62612"><ele>376.0</ele><time>2026-03-29T12:59:10.075Z</time></trkpt><trkpt lat="43.0005967" lon="11.625985"><ele>378.75</ele><time>2026-03-29T12:59:11.074Z</time></trkpt><trkpt lat="43.0006317" lon="11.62581"><ele>381.5</ele><time>2026-03-29T12:59:12.075Z</time></trkpt><trkpt lat="43.0006683" lon="11.6256367"><ele>384.25</ele><time>2026-03-29T12:59:13.075Z</time></trkpt><trkpt lat="43.0007283" lon="11.6255017"><ele>387.0</ele><time>2026-03-29T12:59:14.075Z</time></trkpt><trkpt lat="43.0008217" lon="11.6253933"><ele>387.33333333333337</ele><time>2026-03-29T12:59:15.075Z</time></trkpt><trkpt lat="43.0009583" lon="11.6253033"><ele>387.6666666666667</ele><time>2026-03-29T12:59:16.075Z</time></trkpt><trkpt lat="43.0011083" lon="11.6252233"><ele>388.0</ele><time>2026-03-29T12:59:17.074Z</time></trkpt><trkpt lat="43.00128" lon="11.6251467"><ele>388.0</ele><time>2026-03-29T12:59:18.075Z</time></trkpt><trkpt lat="43.00146" lon="11.6250533"><ele>388.0</ele><time>2026-03-29T12:59:19.075Z</time></trkpt><trkpt lat="43.0016267" lon="11.6249533"><ele>388.0</ele><time>2026-03-29T12:59:20.074Z</time></trkpt><trkpt lat="43.0017783" lon="11.6248467"><ele>387.59999999999997</ele><time>2026-03-29T12:59:21.075Z</time></trkpt><trkpt lat="43.0019217" lon="11.624765"><ele>387.2</ele><time>2026-03-29T12:59:22.074Z</time></trkpt><trkpt lat="43.00202" lon="11.6247367"><ele>386.8</ele><time>2026-03-29T12:59:23.074Z</time></trkpt><trkpt lat="43.0021133" lon="11.6247483"><ele>386.4</ele><time>2026-03-29T12:59:24.075Z</time></trkpt><trkpt lat="43.00217" lon="11.624815"><ele>386.0</ele><time>2026-03-29T12:59:25.074Z</time></trkpt><trkpt lat="43.0022033" lon="11.624925"><ele>386.0</ele><time>2026-03-29T12:59:26.075Z</time></trkpt><trkpt lat="43.0022283" lon="11.62507"><ele>386.0</ele><time>2026-03-29T12:59:27.074Z</time></trkpt><trkpt lat="43.002255" lon="11.6252083"><ele>386.0</ele><time>2026-03-29T12:59:28.075Z</time></trkpt><trkpt lat="43.0022933" lon="11.6253033"><ele>386.0</ele><time>2026-03-29T12:59:29.075Z</time></trkpt><trkpt lat="43.0023833" lon="11.625385"><ele>386.0</ele><time>2026-03-29T12:59:31.075Z</time></trkpt><trkpt lat="43.0024933" lon="11.62539"><ele>385.4</ele><time>2026-03-29T12:59:33.075Z</time></trkpt><trkpt lat="43.0026" lon="11.6253717"><ele>384.8</ele><time>2026-03-29T12:59:35.075Z</time></trkpt><trkpt lat="43.0027317" lon="11.6253067"><ele>384.2</ele><time>2026-03-29T12:59:37.075Z</time></trkpt><trkpt lat="43.0028183" lon="11.6252783"><ele>383.59999999999997</ele><time>2026-03-29T12:59:38.074Z</time></trkpt><trkpt lat="43.00291" lon="11.6252583"><ele>383.0</ele><time>2026-03-29T12:59:39.075Z</time></trkpt><trkpt lat="43.0030133" lon="11.6252467"><ele>385.25</ele><time>2026-03-29T12:59:40.075Z</time></trkpt><trkpt lat="43.0031267" lon="11.6252483"><ele>387.5</ele><time>2026-03-29T12:59:41.075Z</time></trkpt><trkpt lat="43.00324" lon="11.6252767"><ele>389.75</ele><time>2026-03-29T12:59:42.074Z</time></trkpt><trkpt lat="43.0033583" lon="11.62532"><ele>392.0</ele><time>2026-03-29T12:59:43.075Z</time></trkpt><trkpt lat="43.0034667" lon="11.6253667"><ele>392.0</ele><time>2026-03-29T12:59:44.075Z</time></trkpt><trkpt lat="43.003575" lon="11.6254"><ele>392.0</ele><time>2026-03-29T12:59:45.075Z</time></trkpt><trkpt lat="43.0036717" lon="11.6254117"><ele>392.0</ele><time>2026-03-29T12:59:46.075Z</time></trkpt><trkpt lat="43.0037633" lon="11.6253983"><ele>392.0</ele><time>2026-03-29T12:59:47.075Z</time></trkpt><trkpt lat="43.0038533" lon="11.6253617"><ele>392.0</ele><time>2026-03-29T12:59:48.075Z</time></trkpt><trkpt lat="43.0039317" lon="11.625285"><ele>393.6</ele><time>2026-03-29T12:59:49.075Z</time></trkpt><trkpt lat="43.0040183" lon="11.625175"><ele>395.20000000000005</ele><time>2026-03-29T12:59:50.074Z</time></trkpt><trkpt lat="43.0040967" lon="11.6250717"><ele>396.8</ele><time>2026-03-29T12:59:51.075Z</time></trkpt><trkpt lat="43.0041683" lon="11.6249833"><ele>398.4</ele><time>2026-03-29T12:59:52.075Z</time></trkpt><trkpt lat="43.0042283" lon="11.6249117"><ele>400.0</ele><time>2026-03-29T12:59:53.075Z</time></trkpt><trkpt lat="43.0043083" lon="11.6248483"><ele>400.0</ele><time>2026-03-29T12:59:55.075Z</time></trkpt><trkpt lat="43.00422" lon="11.62493"><ele>400.0</ele><time>2026-03-29T13:00:07.075Z</time></trkpt><trkpt lat="43.004125" lon="11.6250267"><ele>400.0</ele><time>2026-03-29T13:00:09.074Z</time></trkpt><trkpt lat="43.004045" lon="11.625105"><ele>400.0</ele><time>2026-03-29T13:00:11.074Z</time></trkpt><trkpt lat="43.004035" lon="11.6252133"><ele>400.0</ele><time>2026-03-29T13:00:13.075Z</time></trkpt><trkpt lat="43.0040617" lon="11.625365"><ele>398.8571428571429</ele><time>2026-03-29T13:00:15.075Z</time></trkpt><trkpt lat="43.0040617" lon="11.6254533"><ele>397.7142857142857</ele><time>2026-03-29T13:00:16.074Z</time></trkpt><trkpt lat="43.00404" lon="11.6255417"><ele>396.57142857142856</ele><time>2026-03-29T13:00:17.075Z</time></trkpt><trkpt lat="43.004005" lon="11.625625"><ele>395.42857142857144</ele><time>2026-03-29T13:00:18.075Z</time></trkpt><trkpt lat="43.0039683" lon="11.6257117"><ele>394.2857142857143</ele><time>2026-03-29T13:00:19.074Z</time></trkpt><trkpt lat="43.00393" lon="11.625785"><ele>393.14285714285717</ele><time>2026-03-29T13:00:20.074Z</time></trkpt><trkpt lat="43.0038983" lon="11.62586"><ele>392.0</ele><time>2026-03-29T13:00:21.075Z</time></trkpt><trkpt lat="43.003865" lon="11.625935"><ele>391.99999999999994</ele><time>2026-03-29T13:00:22.075Z</time></trkpt><trkpt lat="43.0038283" lon="11.6261"><ele>392.0</ele><time>2026-03-29T13:00:24.075Z</time></trkpt><trkpt lat="43.0038167" lon="11.6262017"><ele>392.0</ele><time>2026-03-29T13:00:25.075Z</time></trkpt><trkpt lat="43.0038183" lon="11.626315"><ele>392.0</ele><time>2026-03-29T13:00:26.075Z</time></trkpt><trkpt lat="43.0038233" lon="11.62642"><ele>391.99999999999994</ele><time>2026-03-29T13:00:27.074Z</time></trkpt><trkpt lat="43.0038283" lon="11.626515"><ele>392.0</ele><time>2026-03-29T13:00:28.075Z</time></trkpt><trkpt lat="43.003835" lon="11.6266083"><ele>391.42857142857144</ele><time>2026-03-29T13:00:29.075Z</time></trkpt><trkpt lat="43.003845" lon="11.626695"><ele>390.8571428571429</ele><time>2026-03-29T13:00:30.075Z</time></trkpt><trkpt lat="43.0038617" lon="11.6267833"><ele>390.2857142857143</ele><time>2026-03-29T13:00:31.075Z</time></trkpt><trkpt lat="43.0038867" lon="11.6268717"><ele>389.7142857142857</ele><time>2026-03-29T13:00:32.075Z</time></trkpt><trkpt lat="43.003915" lon="11.626965"><ele>389.14285714285717</ele><time>2026-03-29T13:00:33.074Z</time></trkpt><trkpt lat="43.0039467" lon="11.6270717"><ele>388.57142857142856</ele><time>2026-03-29T13:00:34.074Z</time></trkpt><trkpt lat="43.003975" lon="11.62718"><ele>388.0</ele><time>2026-03-29T13:00:35.075Z</time></trkpt><trkpt lat="43.0039933" lon="11.6272867"><ele>387.33333333333337</ele><time>2026-03-29T13:00:36.074Z</time></trkpt><trkpt lat="43.0040167" lon="11.6274017"><ele>386.6666666666667</ele><time>2026-03-29T13:00:37.075Z</time></trkpt><trkpt lat="43.0040333" lon="11.6275267"><ele>386.0</ele><time>2026-03-29T13:00:38.074Z</time></trkpt><trkpt lat="43.0040517" lon="11.6276433"><ele>385.33333333333337</ele><time>2026-03-29T13:00:39.074Z</time></trkpt><trkpt lat="43.00407" lon="11.6277633"><ele>384.6666666666667</ele><time>2026-03-29T13:00:40.074Z</time></trkpt><trkpt lat="43.0040833" lon="11.6278783"><ele>384.0</ele><time>2026-03-29T13:00:41.075Z</time></trkpt><trkpt lat="43.0040967" lon="11.6279933"><ele>383.5</ele><time>2026-03-29T13:00:42.075Z</time></trkpt><trkpt lat="43.0041033" lon="11.6281083"><ele>383.0</ele><time>2026-03-29T13:00:43.075Z</time></trkpt><trkpt lat="43.0041133" lon="11.6282233"><ele>382.5</ele><time>2026-03-29T13:00:44.075Z</time></trkpt><trkpt lat="43.0041233" lon="11.6283283"><ele>382.0</ele><time>2026-03-29T13:00:45.075Z</time></trkpt><trkpt lat="43.0041467" lon="11.6284167"><ele>381.5</ele><time>2026-03-29T13:00:46.075Z</time></trkpt><trkpt lat="43.0041833" lon="11.6284933"><ele>381.0</ele><time>2026-03-29T13:00:47.074Z</time></trkpt><trkpt lat="43.0042454" lon="11.6286365"><ele>380.0</ele><time>2026-03-29T13:00:49.075Z</time></trkpt><trkpt lat="43.004265" lon="11.6287939"><ele>379.0</ele><time>2026-03-29T13:00:51.074Z</time></trkpt><trkpt lat="43.004254" lon="11.6288887"><ele>378.0</ele><time>2026-03-29T13:00:52.074Z</time></trkpt><trkpt lat="43.004233" lon="11.6289844"><ele>377.0</ele><time>2026-03-29T13:00:53.074Z</time></trkpt><trkpt lat="43.0042127" lon="11.6290692"><ele>376.0</ele><time>2026-03-29T13:00:54.074Z</time></trkpt><trkpt lat="43.0042245" lon="11.6292224"><ele>375.0</ele><time>2026-03-29T13:00:56.074Z</time></trkpt><trkpt lat="43.0043246" lon="11.6293199"><ele>375.0</ele><time>2026-03-29T13:00:58.075Z</time></trkpt><trkpt lat="43.0044003" lon="11.6293574"><ele>375.0</ele><time>2026-03-29T13:00:59.074Z</time></trkpt><trkpt lat="43.0044752" lon="11.6293948"><ele>375.0</ele><time>2026-03-29T13:01:00.074Z</time></trkpt><trkpt lat="43.0045486" lon="11.6294275"><ele>375.0</ele><time>2026-03-29T13:01:01.075Z</time></trkpt><trkpt lat="43.0046199" lon="11.6294537"><ele>375.0</ele><time>2026-03-29T13:01:02.074Z</time></trkpt><trkpt lat="43.0046955" lon="11.6294728"><ele>375.0</ele><time>2026-03-29T13:01:03.075Z</time></trkpt><trkpt lat="43.0047745" lon="11.6294752"><ele>375.0</ele><time>2026-03-29T13:01:04.075Z</time></trkpt><trkpt lat="43.0048585" lon="11.6294587"><ele>375.0</ele><time>2026-03-29T13:01:05.075Z</time></trkpt><trkpt lat="43.0049469" lon="11.6294332"><ele>375.0</ele><time>2026-03-29T13:01:06.075Z</time></trkpt><trkpt lat="43.0050343" lon="11.6294205"><ele>375.0</ele><time>2026-03-29T13:01:07.075Z</time></trkpt><trkpt lat="43.0051171" lon="11.6294168"><ele>375.0</ele><time>2026-03-29T13:01:08.075Z</time></trkpt><trkpt lat="43.0052008" lon="11.6294179"><ele>375.0</ele><time>2026-03-29T13:01:09.074Z</time></trkpt><trkpt lat="43.005272" lon="11.6294253"><ele>373.6666666666667</ele><time>2026-03-29T13:01:10.074Z</time></trkpt><trkpt lat="43.0053414" lon="11.629454"><ele>372.3333333333333</ele><time>2026-03-29T13:01:11.075Z</time></trkpt><trkpt lat="43.0054084" lon="11.6295118"><ele>371.0</ele><time>2026-03-29T13:01:12.074Z</time></trkpt><trkpt lat="43.0054656" lon="11.6295941"><ele>369.66666666666663</ele><time>2026-03-29T13:01:13.075Z</time></trkpt><trkpt lat="43.0055149" lon="11.6296947"><ele>368.3333333333333</ele><time>2026-03-29T13:01:14.075Z</time></trkpt><trkpt lat="43.0055586" lon="11.629799"><ele>367.0</ele><time>2026-03-29T13:01:15.075Z</time></trkpt><trkpt lat="43.0056079" lon="11.6299002"><ele>365.66666666666663</ele><time>2026-03-29T13:01:16.074Z</time></trkpt><trkpt lat="43.005659" lon="11.6299833"><ele>364.3333333333333</ele><time>2026-03-29T13:01:17.074Z</time></trkpt><trkpt lat="43.0057179" lon="11.6300544"><ele>363.0</ele><time>2026-03-29T13:01:18.075Z</time></trkpt><trkpt lat="43.0057836" lon="11.6301099"><ele>361.6666666666667</ele><time>2026-03-29T13:01:19.075Z</time></trkpt><trkpt lat="43.0058607" lon="11.6301498"><ele>360.33333333333337</ele><time>2026-03-29T13:01:20.074Z</time></trkpt><trkpt lat="43.0059324" lon="11.6301902"><ele>359.0</ele><time>2026-03-29T13:01:21.075Z</time></trkpt><trkpt lat="43.0059971" lon="11.6302224"><ele>357.5</ele><time>2026-03-29T13:01:22.075Z</time></trkpt><trkpt lat="43.0060997" lon="11.6302721"><ele>356.0</ele><time>2026-03-29T13:01:24.075Z</time></trkpt><trkpt lat="43.0061585" lon="11.6303229"><ele>354.5</ele><time>2026-03-29T13:01:26.075Z</time></trkpt><trkpt lat="43.006195" lon="11.630395"><ele>353.0</ele><time>2026-03-29T13:01:30.075Z</time></trkpt><trkpt lat="43.0062117" lon="11.6305133"><ele>351.5</ele><time>2026-03-29T13:01:38.074Z</time></trkpt><trkpt lat="43.00622" lon="11.6306033"><ele>350.0</ele><time>2026-03-29T13:01:39.075Z</time></trkpt><trkpt lat="43.0062283" lon="11.63071"><ele>348.83333333333337</ele><time>2026-03-29T13:01:40.075Z</time></trkpt><trkpt lat="43.006235" lon="11.63081"><ele>347.6666666666667</ele><time>2026-03-29T13:01:41.075Z</time></trkpt><trkpt lat="43.006245" lon="11.6309017"><ele>346.5</ele><time>2026-03-29T13:01:42.075Z</time></trkpt><trkpt lat="43.0062483" lon="11.63099"><ele>345.3333333333333</ele><time>2026-03-29T13:01:43.075Z</time></trkpt><trkpt lat="43.0062517" lon="11.6310833"><ele>344.16666666666663</ele><time>2026-03-29T13:01:44.075Z</time></trkpt><trkpt lat="43.00626" lon="11.631175"><ele>343.0</ele><time>2026-03-29T13:01:45.075Z</time></trkpt><trkpt lat="43.006275" lon="11.6313417"><ele>341.5</ele><time>2026-03-29T13:01:47.075Z</time></trkpt><trkpt lat="43.00633" lon="11.6314683"><ele>340.0</ele><time>2026-03-29T13:01:49.075Z</time></trkpt><trkpt lat="43.0064283" lon="11.6315817"><ele>338.5</ele><time>2026-03-29T13:01:51.075Z</time></trkpt><trkpt lat="43.006485" lon="11.6316333"><ele>337.0</ele><time>2026-03-29T13:01:52.074Z</time></trkpt><trkpt lat="43.0065417" lon="11.63168"><ele>335.5</ele><time>2026-03-29T13:01:53.074Z</time></trkpt><trkpt lat="43.0066033" lon="11.6317283"><ele>334.0</ele><time>2026-03-29T13:01:54.074Z</time></trkpt><trkpt lat="43.00667" lon="11.6317717"><ele>333.0</ele><time>2026-03-29T13:01:55.075Z</time></trkpt><trkpt lat="43.006735" lon="11.6318167"><ele>332.0</ele><time>2026-03-29T13:01:56.075Z</time></trkpt><trkpt lat="43.00679" lon="11.63186"><ele>331.0</ele><time>2026-03-29T13:01:57.074Z</time></trkpt><trkpt lat="43.0068667" lon="11.63199"><ele>330.0</ele><time>2026-03-29T13:01:59.075Z</time></trkpt><trkpt lat="43.0069183" lon="11.6321317"><ele>329.0</ele><time>2026-03-29T13:02:01.075Z</time></trkpt><trkpt lat="43.0069267" lon="11.6323117"><ele>327.57142857142856</ele><time>2026-03-29T13:02:03.074Z</time></trkpt><trkpt lat="43.0069233" lon="11.6324133"><ele>326.1428571428571</ele><time>2026-03-29T13:02:04.075Z</time></trkpt><trkpt lat="43.0069217" lon="11.6325017"><ele>324.7142857142857</ele><time>2026-03-29T13:02:05.075Z</time></trkpt><trkpt lat="43.0069183" lon="11.6325883"><ele>323.2857142857143</ele><time>2026-03-29T13:02:06.074Z</time></trkpt><trkpt lat="43.0069117" lon="11.6326817"><ele>321.85714285714283</ele><time>2026-03-29T13:02:07.075Z</time></trkpt><trkpt lat="43.0069" lon="11.632785"><ele>320.42857142857144</ele><time>2026-03-29T13:02:08.074Z</time></trkpt><trkpt lat="43.0068867" lon="11.6328883"><ele>319.0</ele><time>2026-03-29T13:02:09.074Z</time></trkpt><trkpt lat="43.0068633" lon="11.6330017"><ele>317.59999999999997</ele><time>2026-03-29T13:02:10.074Z</time></trkpt><trkpt lat="43.0068383" lon="11.633115"><ele>316.2</ele><time>2026-03-29T13:02:11.075Z</time></trkpt><trkpt lat="43.0068217" lon="11.6332317"><ele>314.79999999999995</ele><time>2026-03-29T13:02:12.075Z</time></trkpt><trkpt lat="43.0068167" lon="11.633365"><ele>313.4</ele><time>2026-03-29T13:02:13.075Z</time></trkpt><trkpt lat="43.0068167" lon="11.63351"><ele>312.0</ele><time>2026-03-29T13:02:14.074Z</time></trkpt><trkpt lat="43.0068033" lon="11.6336467"><ele>311.2</ele><time>2026-03-29T13:02:15.074Z</time></trkpt><trkpt lat="43.0067933" lon="11.63378"><ele>310.4</ele><time>2026-03-29T13:02:16.075Z</time></trkpt><trkpt lat="43.0067817" lon="11.6339183"><ele>309.6</ele><time>2026-03-29T13:02:17.075Z</time></trkpt><trkpt lat="43.0067717" lon="11.6340617"><ele>308.8</ele><time>2026-03-29T13:02:18.075Z</time></trkpt><trkpt lat="43.006765" lon="11.634205"><ele>308.0</ele><time>2026-03-29T13:02:19.075Z</time></trkpt><trkpt lat="43.00675" lon="11.6343417"><ele>307.83333333333337</ele><time>2026-03-29T13:02:20.074Z</time></trkpt><trkpt lat="43.0067333" lon="11.6344733"><ele>307.6666666666667</ele><time>2026-03-29T13:02:21.075Z</time></trkpt><trkpt lat="43.006725" lon="11.6346017"><ele>307.5</ele><time>2026-03-29T13:02:22.075Z</time></trkpt><trkpt lat="43.006715" lon="11.634715"><ele>307.3333333333333</ele><time>2026-03-29T13:02:23.075Z</time></trkpt><trkpt lat="43.0067233" lon="11.6348183"><ele>307.16666666666663</ele><time>2026-03-29T13:02:24.075Z</time></trkpt><trkpt lat="43.0067587" lon="11.6348961"><ele>307.0</ele><time>2026-03-29T13:02:25.075Z</time></trkpt><trkpt lat="43.0068095" lon="11.6349612"><ele>307.0</ele><time>2026-03-29T13:02:26.075Z</time></trkpt><trkpt lat="43.0068787" lon="11.6350069"><ele>307.0</ele><time>2026-03-29T13:02:27.075Z</time></trkpt><trkpt lat="43.0069862" lon="11.6350174"><ele>307.0</ele><time>2026-03-29T13:02:28.075Z</time></trkpt><trkpt lat="43.0071151" lon="11.6350093"><ele>307.0</ele><time>2026-03-29T13:02:29.075Z</time></trkpt><trkpt lat="43.0072443" lon="11.6349935"><ele>307.0</ele><time>2026-03-29T13:02:30.075Z</time></trkpt><trkpt lat="43.0073624" lon="11.6349746"><ele>307.0</ele><time>2026-03-29T13:02:31.074Z</time></trkpt><trkpt lat="43.0074607" lon="11.634952"><ele>307.0</ele><time>2026-03-29T13:02:32.074Z</time></trkpt><trkpt lat="43.0075403" lon="11.6349369"><ele>307.0</ele><time>2026-03-29T13:02:33.075Z</time></trkpt><trkpt lat="43.0077383" lon="11.6349867"><ele>307.0</ele><time>2026-03-29T13:02:38.075Z</time></trkpt><trkpt lat="43.0078567" lon="11.635035"><ele>307.0</ele><time>2026-03-29T13:02:40.075Z</time></trkpt><trkpt lat="43.007925" lon="11.6350583"><ele>307.0</ele><time>2026-03-29T13:02:41.075Z</time></trkpt><trkpt lat="43.0079967" lon="11.6351117"><ele>307.0</ele><time>2026-03-29T13:02:42.075Z</time></trkpt><trkpt lat="43.0080533" lon="11.6351767"><ele>307.0</ele><time>2026-03-29T13:02:43.074Z</time></trkpt><trkpt lat="43.0081067" lon="11.6352583"><ele>307.0</ele><time>2026-03-29T13:02:44.074Z</time></trkpt><trkpt lat="43.0081417" lon="11.63535"><ele>307.0</ele><time>2026-03-29T13:02:45.075Z</time></trkpt><trkpt lat="43.0081667" lon="11.6354667"><ele>307.0</ele><time>2026-03-29T13:02:46.074Z</time></trkpt><trkpt lat="43.008185" lon="11.6356"><ele>307.0</ele><time>2026-03-29T13:02:47.074Z</time></trkpt><trkpt lat="43.008195" lon="11.635755"><ele>307.0</ele><time>2026-03-29T13:02:48.075Z</time></trkpt><trkpt lat="43.00821" lon="11.6359433"><ele>307.0</ele><time>2026-03-29T13:02:49.075Z</time></trkpt><trkpt lat="43.0082317" lon="11.6361467"><ele>308.66666666666663</ele><time>2026-03-29T13:02:50.076Z</time></trkpt><trkpt lat="43.00824" lon="11.636355"><ele>310.3333333333333</ele><time>2026-03-29T13:02:51.075Z</time></trkpt><trkpt lat="43.008255" lon="11.6365867"><ele>312.0</ele><time>2026-03-29T13:02:52.075Z</time></trkpt><trkpt lat="43.0082817" lon="11.6368517"><ele>310.6666666666667</ele><time>2026-03-29T13:02:53.076Z</time></trkpt><trkpt lat="43.008305" lon="11.637105"><ele>309.33333333333337</ele><time>2026-03-29T13:02:54.076Z</time></trkpt><trkpt lat="43.0083133" lon="11.637315"><ele>308.0</ele><time>2026-03-29T13:02:55.076Z</time></trkpt><trkpt lat="43.0083283" lon="11.6374917"><ele>308.0</ele><time>2026-03-29T13:02:56.075Z</time></trkpt><trkpt lat="43.00833" lon="11.6376417"><ele>308.0</ele><time>2026-03-29T13:02:57.076Z</time></trkpt><trkpt lat="43.0083633" lon="11.63778"><ele>308.0</ele><time>2026-03-29T13:02:58.076Z</time></trkpt><trkpt lat="43.00843" lon="11.6379183"><ele>308.0</ele><time>2026-03-29T13:02:59.076Z</time></trkpt><trkpt lat="43.0085167" lon="11.6380683"><ele>308.25</ele><time>2026-03-29T13:03:00.075Z</time></trkpt><trkpt lat="43.008615" lon="11.638225"><ele>308.5</ele><time>2026-03-29T13:03:01.075Z</time></trkpt><trkpt lat="43.0086883" lon="11.638355"><ele>308.75</ele><time>2026-03-29T13:03:02.076Z</time></trkpt><trkpt lat="43.0087533" lon="11.6385"><ele>309.0</ele><time>2026-03-29T13:03:03.076Z</time></trkpt><trkpt lat="43.0088033" lon="11.638655"><ele>308.5</ele><time>2026-03-29T13:03:04.076Z</time></trkpt><trkpt lat="43.0088533" lon="11.6388"><ele>308.0</ele><time>2026-03-29T13:03:05.075Z</time></trkpt><trkpt lat="43.008905" lon="11.6389317"><ele>307.5</ele><time>2026-03-29T13:03:06.076Z</time></trkpt><trkpt lat="43.00897" lon="11.6390583"><ele>307.0</ele><time>2026-03-29T13:03:07.075Z</time></trkpt><trkpt lat="43.009045" lon="11.63918"><ele>307.0</ele><time>2026-03-29T13:03:08.076Z</time></trkpt><trkpt lat="43.009135" lon="11.6393017"><ele>307.0</ele><time>2026-03-29T13:03:09.075Z</time></trkpt><trkpt lat="43.0092433" lon="11.6394333"><ele>307.0</ele><time>2026-03-29T13:03:10.076Z</time></trkpt><trkpt lat="43.0093317" lon="11.639575"><ele>307.0</ele><time>2026-03-29T13:03:11.076Z</time></trkpt><trkpt lat="43.00939" lon="11.6397417"><ele>305.3333333333333</ele><time>2026-03-29T13:03:12.076Z</time></trkpt><trkpt lat="43.0094517" lon="11.6399617"><ele>303.6666666666667</ele><time>2026-03-29T13:03:13.076Z</time></trkpt><trkpt lat="43.00951" lon="11.64019"><ele>302.0</ele><time>2026-03-29T13:03:14.076Z</time></trkpt><trkpt lat="43.00955" lon="11.6404017"><ele>300.33333333333337</ele><time>2026-03-29T13:03:15.076Z</time></trkpt><trkpt lat="43.0095983" lon="11.6406"><ele>298.6666666666667</ele><time>2026-03-29T13:03:16.075Z</time></trkpt><trkpt lat="43.0096717" lon="11.640795"><ele>297.0</ele><time>2026-03-29T13:03:17.076Z</time></trkpt><trkpt lat="43.0097383" lon="11.64099"><ele>296.25</ele><time>2026-03-29T13:03:18.075Z</time></trkpt><trkpt lat="43.0098083" lon="11.6411583"><ele>295.5</ele><time>2026-03-29T13:03:19.076Z</time></trkpt><trkpt lat="43.0098917" lon="11.6413083"><ele>294.75</ele><time>2026-03-29T13:03:20.076Z</time></trkpt><trkpt lat="43.0099817" lon="11.6414417"><ele>294.0</ele><time>2026-03-29T13:03:21.075Z</time></trkpt><trkpt lat="43.0100983" lon="11.6415633"><ele>294.0</ele><time>2026-03-29T13:03:22.075Z</time></trkpt><trkpt lat="43.010225" lon="11.641715"><ele>294.0</ele><time>2026-03-29T13:03:23.076Z</time></trkpt><trkpt lat="43.0103533" lon="11.6418783"><ele>294.0</ele><time>2026-03-29T13:03:24.076Z</time></trkpt><trkpt lat="43.010485" lon="11.6420317"><ele>293.3333333333333</ele><time>2026-03-29T13:03:25.075Z</time></trkpt><trkpt lat="43.0106067" lon="11.6422"><ele>292.66666666666663</ele><time>2026-03-29T13:03:26.076Z</time></trkpt><trkpt lat="43.0107383" lon="11.64237"><ele>292.0</ele><time>2026-03-29T13:03:27.076Z</time></trkpt><trkpt lat="43.010875" lon="11.6425283"><ele>291.3333333333333</ele><time>2026-03-29T13:03:28.075Z</time></trkpt><trkpt lat="43.0110167" lon="11.64267"><ele>290.6666666666667</ele><time>2026-03-29T13:03:29.076Z</time></trkpt><trkpt lat="43.0111633" lon="11.6427983"><ele>290.0</ele><time>2026-03-29T13:03:30.076Z</time></trkpt><trkpt lat="43.01131" lon="11.6429117"><ele>289.75</ele><time>2026-03-29T13:03:31.076Z</time></trkpt><trkpt lat="43.0114467" lon="11.64301"><ele>289.5</ele><time>2026-03-29T13:03:32.076Z</time></trkpt><trkpt lat="43.011565" lon="11.6430983"><ele>289.25</ele><time>2026-03-29T13:03:33.075Z</time></trkpt><trkpt lat="43.0116817" lon="11.6431733"><ele>289.0</ele><time>2026-03-29T13:03:34.076Z</time></trkpt><trkpt lat="43.0118083" lon="11.6432067"><ele>288.75</ele><time>2026-03-29T13:03:35.075Z</time></trkpt><trkpt lat="43.0119383" lon="11.6432083"><ele>288.5</ele><time>2026-03-29T13:03:36.076Z</time></trkpt><trkpt lat="43.01207" lon="11.643175"><ele>288.25</ele><time>2026-03-29T13:03:37.075Z</time></trkpt><trkpt lat="43.0121867" lon="11.6430783"><ele>288.0</ele><time>2026-03-29T13:03:38.076Z</time></trkpt><trkpt lat="43.0122983" lon="11.64298"><ele>288.0</ele><time>2026-03-29T13:03:39.076Z</time></trkpt><trkpt lat="43.0124" lon="11.6429133"><ele>288.0</ele><time>2026-03-29T13:03:40.076Z</time></trkpt><trkpt lat="43.0124967" lon="11.6429017"><ele>288.0</ele><time>2026-03-29T13:03:41.076Z</time></trkpt><trkpt lat="43.0125917" lon="11.6429317"><ele>288.0</ele><time>2026-03-29T13:03:42.076Z</time></trkpt><trkpt lat="43.0126867" lon="11.6429967"><ele>288.0</ele><time>2026-03-29T13:03:43.075Z</time></trkpt><trkpt lat="43.0128026" lon="11.6430893"><ele>286.5</ele><time>2026-03-29T13:03:44.076Z</time></trkpt><trkpt lat="43.01292" lon="11.6431829"><ele>285.0</ele><time>2026-03-29T13:03:45.076Z</time></trkpt><trkpt lat="43.013028" lon="11.6432647"><ele>283.5</ele><time>2026-03-29T13:03:46.076Z</time></trkpt><trkpt lat="43.0131256" lon="11.6433043"><ele>282.0</ele><time>2026-03-29T13:03:47.076Z</time></trkpt><trkpt lat="43.0132257" lon="11.6433115"><ele>282.3333333333333</ele><time>2026-03-29T13:03:48.076Z</time></trkpt><trkpt lat="43.0133626" lon="11.6432943"><ele>282.66666666666663</ele><time>2026-03-29T13:03:49.075Z</time></trkpt><trkpt lat="43.0135231" lon="11.6432696"><ele>283.0</ele><time>2026-03-29T13:03:50.076Z</time></trkpt><trkpt lat="43.0137199" lon="11.6432322"><ele>283.0</ele><time>2026-03-29T13:03:51.076Z</time></trkpt><trkpt lat="43.0139507" lon="11.6431845"><ele>283.0</ele><time>2026-03-29T13:03:52.075Z</time></trkpt><trkpt lat="43.0141501" lon="11.6431544"><ele>283.0</ele><time>2026-03-29T13:03:53.076Z</time></trkpt><trkpt lat="43.0143254" lon="11.6431276"><ele>282.25</ele><time>2026-03-29T13:03:54.076Z</time></trkpt><trkpt lat="43.0144849" lon="11.6431031"><ele>281.5</ele><time>2026-03-29T13:03:55.076Z</time></trkpt><trkpt lat="43.0146253" lon="11.643077"><ele>280.75</ele><time>2026-03-29T13:03:56.076Z</time></trkpt><trkpt lat="43.0147489" lon="11.643056"><ele>280.0</ele><time>2026-03-29T13:03:57.076Z</time></trkpt><trkpt lat="43.0148625" lon="11.643043"><ele>280.0</ele><time>2026-03-29T13:03:58.076Z</time></trkpt><trkpt lat="43.0149726" lon="11.6430332"><ele>280.0</ele><time>2026-03-29T13:03:59.075Z</time></trkpt><trkpt lat="43.0150834" lon="11.6430226"><ele>280.0</ele><time>2026-03-29T13:04:00.076Z</time></trkpt><trkpt lat="43.0151983" lon="11.6430002"><ele>280.0</ele><time>2026-03-29T13:04:01.076Z</time></trkpt><trkpt lat="43.0153162" lon="11.6429721"><ele>279.5</ele><time>2026-03-29T13:04:02.076Z</time></trkpt><trkpt lat="43.0154418" lon="11.6429555"><ele>279.0</ele><time>2026-03-29T13:04:03.076Z</time></trkpt><trkpt lat="43.0155749" lon="11.6429756"><ele>278.5</ele><time>2026-03-29T13:04:04.076Z</time></trkpt><trkpt lat="43.0156971" lon="11.6430268"><ele>278.0</ele><time>2026-03-29T13:04:05.076Z</time></trkpt><trkpt lat="43.0158124" lon="11.6431193"><ele>277.0</ele><time>2026-03-29T13:04:06.076Z</time></trkpt><trkpt lat="43.0159048" lon="11.6432417"><ele>276.0</ele><time>2026-03-29T13:04:07.076Z</time></trkpt><trkpt lat="43.0159973" lon="11.6433299"><ele>275.0</ele><time>2026-03-29T13:04:08.075Z</time></trkpt><trkpt lat="43.0161068" lon="11.6433945"><ele>274.0</ele><time>2026-03-29T13:04:09.076Z</time></trkpt><trkpt lat="43.0162449" lon="11.6434344"><ele>274.0</ele><time>2026-03-29T13:04:10.076Z</time></trkpt><trkpt lat="43.0164159" lon="11.6434572"><ele>274.0</ele><time>2026-03-29T13:04:11.075Z</time></trkpt><trkpt lat="43.0166093" lon="11.6434768"><ele>274.0</ele><time>2026-03-29T13:04:12.076Z</time></trkpt><trkpt lat="43.0168071" lon="11.6435062"><ele>274.66666666666663</ele><time>2026-03-29T13:04:13.075Z</time></trkpt><trkpt lat="43.0170076" lon="11.6435385"><ele>275.3333333333333</ele><time>2026-03-29T13:04:14.075Z</time></trkpt><trkpt lat="43.0172047" lon="11.6435782"><ele>276.0</ele><time>2026-03-29T13:04:15.075Z</time></trkpt><trkpt lat="43.0173854" lon="11.6436153"><ele>273.6666666666667</ele><time>2026-03-29T13:04:16.076Z</time></trkpt><trkpt lat="43.0175589" lon="11.6436476"><ele>271.33333333333337</ele><time>2026-03-29T13:04:17.076Z</time></trkpt><trkpt lat="43.0177437" lon="11.643676"><ele>269.0</ele><time>2026-03-29T13:04:18.076Z</time></trkpt><trkpt lat="43.0179281" lon="11.6436978"><ele>269.0</ele><time>2026-03-29T13:04:19.076Z</time></trkpt><trkpt lat="43.0181094" lon="11.6437082"><ele>269.0</ele><time>2026-03-29T13:04:20.076Z</time></trkpt><trkpt lat="43.0182923" lon="11.6437218"><ele>269.0</ele><time>2026-03-29T13:04:21.075Z</time></trkpt><trkpt lat="43.0184766" lon="11.6437465"><ele>268.6666666666667</ele><time>2026-03-29T13:04:22.076Z</time></trkpt><trkpt lat="43.0186572" lon="11.6437888"><ele>268.3333333333333</ele><time>2026-03-29T13:04:23.076Z</time></trkpt><trkpt lat="43.018835" lon="11.6438515"><ele>268.0</ele><time>2026-03-29T13:04:24.076Z</time></trkpt><trkpt lat="43.0190123" lon="11.6439247"><ele>268.0</ele><time>2026-03-29T13:04:25.075Z</time></trkpt><trkpt lat="43.0191829" lon="11.6439977"><ele>268.0</ele><time>2026-03-29T13:04:26.076Z</time></trkpt><trkpt lat="43.019341" lon="11.6440602"><ele>268.0</ele><time>2026-03-29T13:04:27.075Z</time></trkpt><trkpt lat="43.0194902" lon="11.6441003"><ele>268.0</ele><time>2026-03-29T13:04:28.075Z</time></trkpt><trkpt lat="43.0196206" lon="11.6441202"><ele>268.0</ele><time>2026-03-29T13:04:29.075Z</time></trkpt><trkpt lat="43.0197355" lon="11.6441218"><ele>268.0</ele><time>2026-03-29T13:04:30.076Z</time></trkpt><trkpt lat="43.0198275" lon="11.6441132"><ele>268.0</ele><time>2026-03-29T13:04:31.076Z</time></trkpt><trkpt lat="43.0199386" lon="11.6441138"><ele>268.0</ele><time>2026-03-29T13:04:33.076Z</time></trkpt><trkpt lat="43.0199915" lon="11.6442325"><ele>267.8333333333333</ele><time>2026-03-29T13:04:35.076Z</time></trkpt><trkpt lat="43.0200001" lon="11.6443299"><ele>267.66666666666663</ele><time>2026-03-29T13:04:36.076Z</time></trkpt><trkpt lat="43.0200032" lon="11.6444485"><ele>267.5</ele><time>2026-03-29T13:04:37.076Z</time></trkpt><trkpt lat="43.0200059" lon="11.644579"><ele>267.3333333333333</ele><time>2026-03-29T13:04:38.076Z</time></trkpt><trkpt lat="43.0200128" lon="11.6447088"><ele>267.1666666666667</ele><time>2026-03-29T13:04:39.076Z</time></trkpt><trkpt lat="43.0200265" lon="11.6448353"><ele>267.0</ele><time>2026-03-29T13:04:40.076Z</time></trkpt><trkpt lat="43.0200417" lon="11.6449508"><ele>267.0</ele><time>2026-03-29T13:04:41.076Z</time></trkpt><trkpt lat="43.0200543" lon="11.6450452"><ele>267.0</ele><time>2026-03-29T13:04:42.076Z</time></trkpt><trkpt lat="43.0200417" lon="11.6451567"><ele>267.0</ele><time>2026-03-29T13:08:59.076Z</time></trkpt><trkpt lat="43.0200767" lon="11.645345"><ele>267.0</ele><time>2026-03-29T13:09:01.076Z</time></trkpt><trkpt lat="43.0200933" lon="11.6454717"><ele>267.0</ele><time>2026-03-29T13:09:02.076Z</time></trkpt><trkpt lat="43.0201133" lon="11.6456117"><ele>267.25</ele><time>2026-03-29T13:09:03.076Z</time></trkpt><trkpt lat="43.020135" lon="11.6457717"><ele>267.5</ele><time>2026-03-29T13:09:04.075Z</time></trkpt><trkpt lat="43.020155" lon="11.64594"><ele>267.75</ele><time>2026-03-29T13:09:05.076Z</time></trkpt><trkpt lat="43.0201767" lon="11.6461133"><ele>268.0</ele><time>2026-03-29T13:09:06.075Z</time></trkpt><trkpt lat="43.020225" lon="11.646475"><ele>269.0</ele><time>2026-03-29T13:09:08.076Z</time></trkpt><trkpt lat="43.0202533" lon="11.6466617"><ele>270.0</ele><time>2026-03-29T13:09:09.076Z</time></trkpt><trkpt lat="43.0202867" lon="11.6468467"><ele>271.0</ele><time>2026-03-29T13:09:10.076Z</time></trkpt><trkpt lat="43.0203167" lon="11.6470233"><ele>272.0</ele><time>2026-03-29T13:09:11.076Z</time></trkpt><trkpt lat="43.02034" lon="11.6472033"><ele>273.0</ele><time>2026-03-29T13:09:12.076Z</time></trkpt><trkpt lat="43.0203617" lon="11.6473717"><ele>274.0</ele><time>2026-03-29T13:09:13.075Z</time></trkpt><trkpt lat="43.020385" lon="11.64754"><ele>275.0</ele><time>2026-03-29T13:09:14.076Z</time></trkpt><trkpt lat="43.02041" lon="11.647715"><ele>276.0</ele><time>2026-03-29T13:09:15.076Z</time></trkpt><trkpt lat="43.0204433" lon="11.6479083"><ele>276.6666666666667</ele><time>2026-03-29T13:09:16.076Z</time></trkpt><trkpt lat="43.02047" lon="11.6481317"><ele>277.33333333333337</ele><time>2026-03-29T13:09:17.076Z</time></trkpt><trkpt lat="43.0204967" lon="11.6483417"><ele>278.0</ele><time>2026-03-29T13:09:18.075Z</time></trkpt><trkpt lat="43.02052" lon="11.6485317"><ele>277.6666666666667</ele><time>2026-03-29T13:09:19.076Z</time></trkpt><trkpt lat="43.0205467" lon="11.6488733"><ele>277.3333333333333</ele><time>2026-03-29T13:09:21.076Z</time></trkpt><trkpt lat="43.0205583" lon="11.64902"><ele>277.0</ele><time>2026-03-29T13:09:22.075Z</time></trkpt><trkpt lat="43.0205583" lon="11.6491533"><ele>277.0</ele><time>2026-03-29T13:09:23.075Z</time></trkpt><trkpt lat="43.02055" lon="11.64929"><ele>277.0</ele><time>2026-03-29T13:09:24.076Z</time></trkpt><trkpt lat="43.02053" lon="11.64948"><ele>277.0</ele><time>2026-03-29T13:09:25.075Z</time></trkpt><trkpt lat="43.02049" lon="11.6496967"><ele>277.0</ele><time>2026-03-29T13:09:26.076Z</time></trkpt><trkpt lat="43.0204267" lon="11.649925"><ele>277.66666666666663</ele><time>2026-03-29T13:09:27.076Z</time></trkpt><trkpt lat="43.0203433" lon="11.650135"><ele>278.3333333333333</ele><time>2026-03-29T13:09:28.076Z</time></trkpt><trkpt lat="43.0202217" lon="11.6503067"><ele>279.0</ele><time>2026-03-29T13:09:29.076Z</time></trkpt><trkpt lat="43.0200783" lon="11.65048"><ele>286.0</ele><time>2026-03-29T13:09:30.076Z</time></trkpt><trkpt lat="43.0197167" lon="11.6508683"><ele>286.0</ele><time>2026-03-29T13:09:32.076Z</time></trkpt><trkpt lat="43.0195517" lon="11.65105"><ele>286.0</ele><time>2026-03-29T13:09:33.075Z</time></trkpt><trkpt lat="43.0194133" lon="11.6512417"><ele>286.0</ele><time>2026-03-29T13:09:34.075Z</time></trkpt><trkpt lat="43.0192883" lon="11.65147"><ele>286.5</ele><time>2026-03-29T13:09:35.076Z</time></trkpt><trkpt lat="43.0191683" lon="11.6517317"><ele>287.0</ele><time>2026-03-29T13:09:36.075Z</time></trkpt><trkpt lat="43.01905" lon="11.652025"><ele>288.0</ele><time>2026-03-29T13:09:37.076Z</time></trkpt><trkpt lat="43.0189267" lon="11.65231"><ele>289.0</ele><time>2026-03-29T13:09:38.076Z</time></trkpt><trkpt lat="43.0188117" lon="11.6526333"><ele>289.5</ele><time>2026-03-29T13:09:39.076Z</time></trkpt><trkpt lat="43.0186933" lon="11.6529317"><ele>290.0</ele><time>2026-03-29T13:09:40.076Z</time></trkpt><trkpt lat="43.0185833" lon="11.653215"><ele>291.0</ele><time>2026-03-29T13:09:41.076Z</time></trkpt><trkpt lat="43.0183383" lon="11.6537767"><ele>290.5</ele><time>2026-03-29T13:09:43.075Z</time></trkpt><trkpt lat="43.018205" lon="11.6540467"><ele>290.0</ele><time>2026-03-29T13:09:44.076Z</time></trkpt><trkpt lat="43.0180617" lon="11.6543183"><ele>291.0</ele><time>2026-03-29T13:09:45.075Z</time></trkpt><trkpt lat="43.0179217" lon="11.65458"><ele>292.0</ele><time>2026-03-29T13:09:46.076Z</time></trkpt><trkpt lat="43.0177817" lon="11.6548367"><ele>292.0</ele><time>2026-03-29T13:09:47.076Z</time></trkpt><trkpt lat="43.0176417" lon="11.6550967"><ele>292.0</ele><time>2026-03-29T13:09:48.076Z</time></trkpt><trkpt lat="43.0175017" lon="11.6553467"><ele>294.5</ele><time>2026-03-29T13:09:49.076Z</time></trkpt><trkpt lat="43.017355" lon="11.6555917"><ele>297.0</ele><time>2026-03-29T13:09:50.076Z</time></trkpt><trkpt lat="43.0172117" lon="11.655835"><ele>297.0</ele><time>2026-03-29T13:09:51.076Z</time></trkpt><trkpt lat="43.0170583" lon="11.6560633"><ele>297.0</ele><time>2026-03-29T13:09:52.075Z</time></trkpt><trkpt lat="43.0168917" lon="11.656285"><ele>297.5</ele><time>2026-03-29T13:09:53.076Z</time></trkpt><trkpt lat="43.01671" lon="11.6565017"><ele>298.0</ele><time>2026-03-29T13:09:54.075Z</time></trkpt><trkpt lat="43.016535" lon="11.6567117"><ele>299.0</ele><time>2026-03-29T13:09:55.075Z</time></trkpt><trkpt lat="43.016365" lon="11.656935"><ele>300.0</ele><time>2026-03-29T13:09:56.076Z</time></trkpt><trkpt lat="43.01621" lon="11.6571717"><ele>300.5</ele><time>2026-03-29T13:09:57.076Z</time></trkpt><trkpt lat="43.0160617" lon="11.6574183"><ele>301.0</ele><time>2026-03-29T13:09:58.076Z</time></trkpt><trkpt lat="43.015925" lon="11.6576933"><ele>304.5</ele><time>2026-03-29T13:09:59.076Z</time></trkpt><trkpt lat="43.0157967" lon="11.6579683"><ele>308.0</ele><time>2026-03-29T13:10:00.076Z</time></trkpt><trkpt lat="43.0156717" lon="11.6582483"><ele>308.0</ele><time>2026-03-29T13:10:01.076Z</time></trkpt><trkpt lat="43.0155533" lon="11.658515"><ele>308.0</ele><time>2026-03-29T13:10:02.076Z</time></trkpt><trkpt lat="43.0154317" lon="11.6587883"><ele>309.0</ele><time>2026-03-29T13:10:03.075Z</time></trkpt><trkpt lat="43.0153117" lon="11.6590633"><ele>310.0</ele><time>2026-03-29T13:10:04.076Z</time></trkpt><trkpt lat="43.0152017" lon="11.6593283"><ele>309.66666666666663</ele><time>2026-03-29T13:10:05.076Z</time></trkpt><trkpt lat="43.0150883" lon="11.65959"><ele>309.3333333333333</ele><time>2026-03-29T13:10:06.076Z</time></trkpt><trkpt lat="43.0149633" lon="11.65983"><ele>309.0</ele><time>2026-03-29T13:10:07.076Z</time></trkpt><trkpt lat="43.014835" lon="11.6600517"><ele>309.3333333333333</ele><time>2026-03-29T13:10:08.075Z</time></trkpt><trkpt lat="43.0146983" lon="11.6602683"><ele>309.66666666666663</ele><time>2026-03-29T13:10:09.076Z</time></trkpt><trkpt lat="43.0145467" lon="11.6604867"><ele>310.0</ele><time>2026-03-29T13:10:10.076Z</time></trkpt><trkpt lat="43.0143783" lon="11.6607083"><ele>310.0</ele><time>2026-03-29T13:10:11.076Z</time></trkpt><trkpt lat="43.0142" lon="11.660925"><ele>310.0</ele><time>2026-03-29T13:10:12.075Z</time></trkpt><trkpt lat="43.0140133" lon="11.66114"><ele>305.0</ele><time>2026-03-29T13:10:13.076Z</time></trkpt><trkpt lat="43.0136117" lon="11.6615683"><ele>305.0</ele><time>2026-03-29T13:10:15.076Z</time></trkpt><trkpt lat="43.0134083" lon="11.6617767"><ele>305.0</ele><time>2026-03-29T13:10:16.076Z</time></trkpt><trkpt lat="43.0132" lon="11.6619717"><ele>304.5</ele><time>2026-03-29T13:10:17.076Z</time></trkpt><trkpt lat="43.0130083" lon="11.6621617"><ele>304.0</ele><time>2026-03-29T13:10:18.076Z</time></trkpt><trkpt lat="43.0128267" lon="11.6623817"><ele>304.0</ele><time>2026-03-29T13:10:19.076Z</time></trkpt><trkpt lat="43.0126517" lon="11.662625"><ele>304.0</ele><time>2026-03-29T13:10:20.076Z</time></trkpt><trkpt lat="43.01248" lon="11.662885"><ele>306.5</ele><time>2026-03-29T13:10:21.075Z</time></trkpt><trkpt lat="43.0123083" lon="11.6631417"><ele>309.0</ele><time>2026-03-29T13:10:22.075Z</time></trkpt><trkpt lat="43.01213" lon="11.663395"><ele>308.5</ele><time>2026-03-29T13:10:23.076Z</time></trkpt><trkpt lat="43.0119483" lon="11.6636517"><ele>308.0</ele><time>2026-03-29T13:10:24.075Z</time></trkpt><trkpt lat="43.0117767" lon="11.6639083"><ele>309.0</ele><time>2026-03-29T13:10:25.076Z</time></trkpt><trkpt lat="43.0115983" lon="11.66417"><ele>310.0</ele><time>2026-03-29T13:10:26.076Z</time></trkpt><trkpt lat="43.0114233" lon="11.6644367"><ele>309.0</ele><time>2026-03-29T13:10:27.075Z</time></trkpt><trkpt lat="43.0112383" lon="11.664695"><ele>308.0</ele><time>2026-03-29T13:10:28.076Z</time></trkpt><trkpt lat="43.0110567" lon="11.6649683"><ele>308.0</ele><time>2026-03-29T13:10:29.076Z</time></trkpt><trkpt lat="43.010875" lon="11.6652483"><ele>308.0</ele><time>2026-03-29T13:10:30.076Z</time></trkpt><trkpt lat="43.0106867" lon="11.665525"><ele>309.5</ele><time>2026-03-29T13:10:31.076Z</time></trkpt><trkpt lat="43.0104917" lon="11.6657867"><ele>311.0</ele><time>2026-03-29T13:10:32.076Z</time></trkpt><trkpt lat="43.0103167" lon="11.6660467"><ele>309.5</ele><time>2026-03-29T13:10:33.076Z</time></trkpt><trkpt lat="43.0101417" lon="11.666305"><ele>308.0</ele><time>2026-03-29T13:10:34.075Z</time></trkpt><trkpt lat="43.0099683" lon="11.6665633"><ele>308.0</ele><time>2026-03-29T13:10:35.076Z</time></trkpt><trkpt lat="43.0097933" lon="11.6668217"><ele>308.0</ele><time>2026-03-29T13:10:36.076Z</time></trkpt><trkpt lat="43.0096083" lon="11.6670833"><ele>307.5</ele><time>2026-03-29T13:10:37.076Z</time></trkpt><trkpt lat="43.00941" lon="11.6673433"><ele>307.0</ele><time>2026-03-29T13:10:38.075Z</time></trkpt><trkpt lat="43.0092183" lon="11.6675967"><ele>309.5</ele><time>2026-03-29T13:10:39.076Z</time></trkpt><trkpt lat="43.0090317" lon="11.6678333"><ele>312.0</ele><time>2026-03-29T13:10:40.075Z</time></trkpt><trkpt lat="43.0088483" lon="11.6680617"><ele>312.0</ele><time>2026-03-29T13:10:41.076Z</time></trkpt><trkpt lat="43.0086717" lon="11.6682683"><ele>312.0</ele><time>2026-03-29T13:10:42.076Z</time></trkpt><trkpt lat="43.0085" lon="11.6684733"><ele>313.3333333333333</ele><time>2026-03-29T13:10:43.076Z</time></trkpt><trkpt lat="43.0083517" lon="11.6686567"><ele>314.66666666666663</ele><time>2026-03-29T13:10:44.076Z</time></trkpt><trkpt lat="43.0082183" lon="11.6688183"><ele>316.0</ele><time>2026-03-29T13:10:45.076Z</time></trkpt><trkpt lat="43.0080933" lon="11.668975"><ele>320.0</ele><time>2026-03-29T13:10:46.076Z</time></trkpt><trkpt lat="43.0079983" lon="11.6691533"><ele>324.0</ele><time>2026-03-29T13:10:47.075Z</time></trkpt><trkpt lat="43.0079167" lon="11.6693667"><ele>328.0</ele><time>2026-03-29T13:10:48.076Z</time></trkpt><trkpt lat="43.0078583" lon="11.6696033"><ele>328.3333333333333</ele><time>2026-03-29T13:10:49.076Z</time></trkpt><trkpt lat="43.007785" lon="11.6698767"><ele>328.6666666666667</ele><time>2026-03-29T13:10:50.075Z</time></trkpt><trkpt lat="43.00771" lon="11.6701317"><ele>329.0</ele><time>2026-03-29T13:10:51.076Z</time></trkpt><trkpt lat="43.0076167" lon="11.6703733"><ele>328.33333333333337</ele><time>2026-03-29T13:10:52.075Z</time></trkpt><trkpt lat="43.0075117" lon="11.6705767"><ele>327.6666666666667</ele><time>2026-03-29T13:10:53.075Z</time></trkpt><trkpt lat="43.0073917" lon="11.6707717"><ele>327.0</ele><time>2026-03-29T13:10:54.076Z</time></trkpt><trkpt lat="43.00723" lon="11.670965"><ele>324.0</ele><time>2026-03-29T13:10:55.076Z</time></trkpt><trkpt lat="43.0070517" lon="11.6711833"><ele>321.0</ele><time>2026-03-29T13:10:56.075Z</time></trkpt><trkpt lat="43.0068633" lon="11.6714167"><ele>319.0</ele><time>2026-03-29T13:10:57.076Z</time></trkpt><trkpt lat="43.00665" lon="11.6716483"><ele>317.0</ele><time>2026-03-29T13:10:58.076Z</time></trkpt><trkpt lat="43.0064283" lon="11.6718783"><ele>315.5</ele><time>2026-03-29T13:10:59.076Z</time></trkpt><trkpt lat="43.0061917" lon="11.6720983"><ele>314.0</ele><time>2026-03-29T13:11:00.075Z</time></trkpt><trkpt lat="43.005965" lon="11.67233"><ele>314.0</ele><time>2026-03-29T13:11:01.075Z</time></trkpt><trkpt lat="43.0057517" lon="11.6725583"><ele>314.0</ele><time>2026-03-29T13:11:02.076Z</time></trkpt><trkpt lat="43.005535" lon="11.672805"><ele>315.5</ele><time>2026-03-29T13:11:03.076Z</time></trkpt><trkpt lat="43.00534" lon="11.6730433"><ele>317.0</ele><time>2026-03-29T13:11:04.075Z</time></trkpt><trkpt lat="43.0051583" lon="11.6733017"><ele>317.0</ele><time>2026-03-29T13:11:05.076Z</time></trkpt><trkpt lat="43.0050017" lon="11.6735367"><ele>317.0</ele><time>2026-03-29T13:11:06.076Z</time></trkpt><trkpt lat="43.0048467" lon="11.67376"><ele>316.6666666666667</ele><time>2026-03-29T13:11:07.076Z</time></trkpt><trkpt lat="43.0047033" lon="11.67395"><ele>316.3333333333333</ele><time>2026-03-29T13:11:08.076Z</time></trkpt><trkpt lat="43.0045617" lon="11.6741517"><ele>316.0</ele><time>2026-03-29T13:11:09.076Z</time></trkpt><trkpt lat="43.00441" lon="11.6743633"><ele>315.66666666666663</ele><time>2026-03-29T13:11:10.076Z</time></trkpt><trkpt lat="43.0042817" lon="11.67459"><ele>315.3333333333333</ele><time>2026-03-29T13:11:11.076Z</time></trkpt><trkpt lat="43.0041683" lon="11.6748283"><ele>315.0</ele><time>2026-03-29T13:11:12.075Z</time></trkpt><trkpt lat="43.0040717" lon="11.675085"><ele>313.6666666666667</ele><time>2026-03-29T13:11:13.075Z</time></trkpt><trkpt lat="43.0039933" lon="11.6753567"><ele>312.33333333333337</ele><time>2026-03-29T13:11:14.076Z</time></trkpt><trkpt lat="43.00393" lon="11.675635"><ele>311.0</ele><time>2026-03-29T13:11:15.075Z</time></trkpt><trkpt lat="43.00387" lon="11.6759333"><ele>311.5</ele><time>2026-03-29T13:11:16.076Z</time></trkpt><trkpt lat="43.0038117" lon="11.6762517"><ele>312.0</ele><time>2026-03-29T13:11:17.076Z</time></trkpt><trkpt lat="43.0037367" lon="11.6765933"><ele>311.0</ele><time>2026-03-29T13:11:18.075Z</time></trkpt><trkpt lat="43.0036417" lon="11.6769617"><ele>310.0</ele><time>2026-03-29T13:11:19.075Z</time></trkpt><trkpt lat="43.0035333" lon="11.67736"><ele>310.0</ele><time>2026-03-29T13:11:20.075Z</time></trkpt><trkpt lat="43.0034117" lon="11.6777617"><ele>310.0</ele><time>2026-03-29T13:11:21.076Z</time></trkpt><trkpt lat="43.00326" lon="11.6781583"><ele>309.5</ele><time>2026-03-29T13:11:22.075Z</time></trkpt><trkpt lat="43.00309" lon="11.6785633"><ele>309.0</ele><time>2026-03-29T13:11:23.075Z</time></trkpt><trkpt lat="43.0029" lon="11.678975"><ele>308.5</ele><time>2026-03-29T13:11:24.076Z</time></trkpt><trkpt lat="43.0027067" lon="11.6793883"><ele>308.0</ele><time>2026-03-29T13:11:25.075Z</time></trkpt><trkpt lat="43.0025117" lon="11.6797967"><ele>308.0</ele><time>2026-03-29T13:11:26.076Z</time></trkpt><trkpt lat="43.0023433" lon="11.68018"><ele>308.0</ele><time>2026-03-29T13:11:27.076Z</time></trkpt><trkpt lat="43.002195" lon="11.6805433"><ele>308.0</ele><time>2026-03-29T13:11:28.076Z</time></trkpt><trkpt lat="43.002065" lon="11.680865"><ele>308.0</ele><time>2026-03-29T13:11:29.075Z</time></trkpt><trkpt lat="43.0019433" lon="11.6811667"><ele>308.33333333333337</ele><time>2026-03-29T13:11:30.076Z</time></trkpt><trkpt lat="43.001835" lon="11.68144"><ele>308.6666666666667</ele><time>2026-03-29T13:11:31.076Z</time></trkpt><trkpt lat="43.0017167" lon="11.68168"><ele>309.0</ele><time>2026-03-29T13:11:32.075Z</time></trkpt><trkpt lat="43.0015867" lon="11.6819017"><ele>312.0</ele><time>2026-03-29T13:11:33.076Z</time></trkpt><trkpt lat="43.00145" lon="11.682095"><ele>315.0</ele><time>2026-03-29T13:11:34.076Z</time></trkpt><trkpt lat="43.0013117" lon="11.6822517"><ele>318.0</ele><time>2026-03-29T13:11:35.076Z</time></trkpt><trkpt lat="43.0011683" lon="11.68239"><ele>318.0</ele><time>2026-03-29T13:11:36.076Z</time></trkpt><trkpt lat="43.00104" lon="11.6825183"><ele>318.0</ele><time>2026-03-29T13:11:37.076Z</time></trkpt><trkpt lat="43.0009217" lon="11.6826233"><ele>318.0</ele><time>2026-03-29T13:11:38.076Z</time></trkpt><trkpt lat="43.0008133" lon="11.6827267"><ele>318.0</ele><time>2026-03-29T13:11:39.075Z</time></trkpt><trkpt lat="43.00071" lon="11.6828317"><ele>318.75</ele><time>2026-03-29T13:11:40.076Z</time></trkpt><trkpt lat="43.0006033" lon="11.6829283"><ele>319.5</ele><time>2026-03-29T13:11:41.076Z</time></trkpt><trkpt lat="43.0004767" lon="11.6830467"><ele>320.25</ele><time>2026-03-29T13:11:42.076Z</time></trkpt><trkpt lat="43.0003433" lon="11.6831717"><ele>321.0</ele><time>2026-03-29T13:11:43.076Z</time></trkpt><trkpt lat="43.0002" lon="11.6832867"><ele>321.0</ele><time>2026-03-29T13:11:44.076Z</time></trkpt><trkpt lat="43.0000583" lon="11.68341"><ele>321.0</ele><time>2026-03-29T13:11:45.076Z</time></trkpt><trkpt lat="42.9999083" lon="11.6835183"><ele>321.0</ele><time>2026-03-29T13:11:46.075Z</time></trkpt><trkpt lat="42.9997617" lon="11.6835883"><ele>319.0</ele><time>2026-03-29T13:11:47.075Z</time></trkpt><trkpt lat="42.99962" lon="11.6836217"><ele>317.0</ele><time>2026-03-29T13:11:48.076Z</time></trkpt><trkpt lat="42.9994683" lon="11.6836283"><ele>315.0</ele><time>2026-03-29T13:11:49.076Z</time></trkpt><trkpt lat="42.9993117" lon="11.6836233"><ele>314.5</ele><time>2026-03-29T13:11:50.076Z</time></trkpt><trkpt lat="42.99916" lon="11.6836167"><ele>314.0</ele><time>2026-03-29T13:11:51.076Z</time></trkpt><trkpt lat="42.99902" lon="11.683615"><ele>313.5</ele><time>2026-03-29T13:11:52.075Z</time></trkpt><trkpt lat="42.9988833" lon="11.683615"><ele>313.0</ele><time>2026-03-29T13:11:53.075Z</time></trkpt><trkpt lat="42.9987533" lon="11.6836133"><ele>313.0</ele><time>2026-03-29T13:11:54.076Z</time></trkpt><trkpt lat="42.9986183" lon="11.683615"><ele>313.0</ele><time>2026-03-29T13:11:55.075Z</time></trkpt><trkpt lat="42.998485" lon="11.6836117"><ele>313.0</ele><time>2026-03-29T13:11:56.076Z</time></trkpt><trkpt lat="42.9983483" lon="11.6836033"><ele>313.0</ele><time>2026-03-29T13:11:57.076Z</time></trkpt><trkpt lat="42.9982133" lon="11.6836"><ele>314.0</ele><time>2026-03-29T13:11:58.076Z</time></trkpt><trkpt lat="42.99808" lon="11.683595"><ele>315.0</ele><time>2026-03-29T13:11:59.076Z</time></trkpt><trkpt lat="42.99796" lon="11.6835883"><ele>316.0</ele><time>2026-03-29T13:12:00.076Z</time></trkpt><trkpt lat="42.99783" lon="11.6835717"><ele>317.0</ele><time>2026-03-29T13:12:01.076Z</time></trkpt><trkpt lat="42.9977" lon="11.68355"><ele>317.0</ele><time>2026-03-29T13:12:02.076Z</time></trkpt><trkpt lat="42.9975733" lon="11.68353"><ele>317.0</ele><time>2026-03-29T13:12:03.075Z</time></trkpt><trkpt lat="42.9974683" lon="11.6835167"><ele>317.0</ele><time>2026-03-29T13:12:04.075Z</time></trkpt><trkpt lat="42.9973883" lon="11.6835067"><ele>317.0</ele><time>2026-03-29T13:12:05.076Z</time></trkpt><trkpt lat="42.997325" lon="11.6834983"><ele>317.0</ele><time>2026-03-29T13:12:06.075Z</time></trkpt><trkpt lat="42.9972517" lon="11.6834717"><ele>316.0</ele><time>2026-03-29T13:12:08.075Z</time></trkpt><trkpt lat="42.9972183" lon="11.6833933"><ele>315.0</ele><time>2026-03-29T13:12:13.076Z</time></trkpt><trkpt lat="42.99729" lon="11.68346"><ele>314.0</ele><time>2026-03-29T13:13:09.076Z</time></trkpt><trkpt lat="42.9972633" lon="11.68338"><ele>313.0</ele><time>2026-03-29T13:13:48.076Z</time></trkpt><trkpt lat="42.99732" lon="11.6833233"><ele>312.0</ele><time>2026-03-29T13:14:02.075Z</time></trkpt><trkpt lat="42.9973433" lon="11.683415"><ele>311.0</ele><time>2026-03-29T13:14:16.077Z</time></trkpt><trkpt lat="42.99728" lon="11.68339"><ele>310.0</ele><time>2026-03-29T13:14:20.077Z</time></trkpt><trkpt lat="42.9972533" lon="11.68331"><ele>310.0</ele><time>2026-03-29T13:14:23.077Z</time></trkpt><trkpt lat="42.9972017" lon="11.68322"><ele>310.0</ele><time>2026-03-29T13:14:24.077Z</time></trkpt><trkpt lat="42.99726" lon="11.6833217"><ele>310.0</ele><time>2026-03-29T13:14:30.077Z</time></trkpt><trkpt lat="42.9972967" lon="11.6834033"><ele>310.0</ele><time>2026-03-29T13:14:32.077Z</time></trkpt><trkpt lat="42.997305" lon="11.6833067"><ele>310.0</ele><time>2026-03-29T13:15:34.077Z</time></trkpt><trkpt lat="42.997255" lon="11.6832467"><ele>310.0</ele><time>2026-03-29T13:15:39.077Z</time></trkpt><trkpt lat="42.997285" lon="11.6831617"><ele>310.0</ele><time>2026-03-29T13:15:50.077Z</time></trkpt><trkpt lat="42.9973233" lon="11.6832683"><ele>310.0</ele><time>2026-03-29T13:15:57.077Z</time></trkpt><trkpt lat="42.9973317" lon="11.6834083"><ele>310.0</ele><time>2026-03-29T13:16:02.077Z</time></trkpt><trkpt lat="42.99731" lon="11.6835033"><ele>310.0</ele><time>2026-03-29T13:16:09.076Z</time></trkpt><trkpt lat="42.99725" lon="11.68347"><ele>310.0</ele><time>2026-03-29T13:16:17.076Z</time></trkpt><trkpt lat="42.99727" lon="11.683325"><ele>310.0</ele><time>2026-03-29T13:27:37.077Z</time></trkpt><trkpt lat="42.9971933" lon="11.68336"><ele>310.0</ele><time>2026-03-29T13:27:41.078Z</time></trkpt><trkpt lat="42.9972167" lon="11.6834767"><ele>310.0</ele><time>2026-03-29T13:27:51.078Z</time></trkpt><trkpt lat="42.9973267" lon="11.6835517"><ele>310.0</ele><time>2026-03-29T13:27:53.078Z</time></trkpt><trkpt lat="42.9974017" lon="11.6835683"><ele>310.0</ele><time>2026-03-29T13:27:54.078Z</time></trkpt><trkpt lat="42.997505" lon="11.6835683"><ele>310.0</ele><time>2026-03-29T13:27:55.078Z</time></trkpt><trkpt lat="42.9975983" lon="11.6835667"><ele>310.2</ele><time>2026-03-29T13:27:56.077Z</time></trkpt><trkpt lat="42.9976933" lon="11.6835833"><ele>310.4</ele><time>2026-03-29T13:27:57.078Z</time></trkpt><trkpt lat="42.997795" lon="11.6836067"><ele>310.6</ele><time>2026-03-29T13:27:58.078Z</time></trkpt><trkpt lat="42.99789" lon="11.6836217"><ele>310.8</ele><time>2026-03-29T13:27:59.078Z</time></trkpt><trkpt lat="42.9979917" lon="11.6836233"><ele>311.0</ele><time>2026-03-29T13:28:00.077Z</time></trkpt><trkpt lat="42.99809" lon="11.683635"><ele>311.0</ele><time>2026-03-29T13:28:01.078Z</time></trkpt><trkpt lat="42.9981917" lon="11.6836467"><ele>311.0</ele><time>2026-03-29T13:28:02.078Z</time></trkpt><trkpt lat="42.9982933" lon="11.683655"><ele>311.0</ele><time>2026-03-29T13:28:03.077Z</time></trkpt><trkpt lat="42.9983983" lon="11.6836483"><ele>311.0</ele><time>2026-03-29T13:28:04.078Z</time></trkpt><trkpt lat="42.998515" lon="11.6836483"><ele>311.0</ele><time>2026-03-29T13:28:05.077Z</time></trkpt><trkpt lat="42.9986367" lon="11.6836567"><ele>311.5</ele><time>2026-03-29T13:28:06.078Z</time></trkpt><trkpt lat="42.9987633" lon="11.6836567"><ele>312.0</ele><time>2026-03-29T13:28:07.077Z</time></trkpt><trkpt lat="42.9988817" lon="11.6836617"><ele>312.5</ele><time>2026-03-29T13:28:08.078Z</time></trkpt><trkpt lat="42.9990033" lon="11.6836617"><ele>313.0</ele><time>2026-03-29T13:28:09.077Z</time></trkpt><trkpt lat="42.9991267" lon="11.683665"><ele>313.5</ele><time>2026-03-29T13:28:10.077Z</time></trkpt><trkpt lat="42.9992433" lon="11.6836667"><ele>314.0</ele><time>2026-03-29T13:28:11.078Z</time></trkpt><trkpt lat="42.9993617" lon="11.6836733"><ele>314.5</ele><time>2026-03-29T13:28:12.078Z</time></trkpt><trkpt lat="42.999475" lon="11.68367"><ele>315.0</ele><time>2026-03-29T13:28:13.077Z</time></trkpt><trkpt lat="42.9996017" lon="11.6836633"><ele>315.0</ele><time>2026-03-29T13:28:14.077Z</time></trkpt><trkpt lat="42.999725" lon="11.68362"><ele>315.0</ele><time>2026-03-29T13:28:15.079Z</time></trkpt><trkpt lat="42.999855" lon="11.6835717"><ele>315.0</ele><time>2026-03-29T13:28:16.079Z</time></trkpt><trkpt lat="42.9999733" lon="11.6834967"><ele>315.0</ele><time>2026-03-29T13:28:17.079Z</time></trkpt><trkpt lat="43.00009" lon="11.6834083"><ele>316.5</ele><time>2026-03-29T13:28:18.079Z</time></trkpt><trkpt lat="43.0002017" lon="11.6833083"><ele>318.0</ele><time>2026-03-29T13:28:19.079Z</time></trkpt><trkpt lat="43.000305" lon="11.683235"><ele>319.5</ele><time>2026-03-29T13:28:20.079Z</time></trkpt><trkpt lat="43.0003917" lon="11.6831483"><ele>321.0</ele><time>2026-03-29T13:28:21.078Z</time></trkpt><trkpt lat="43.0005767" lon="11.6829667"><ele>321.0</ele><time>2026-03-29T13:28:23.079Z</time></trkpt><trkpt lat="43.00066" lon="11.6828817"><ele>321.0</ele><time>2026-03-29T13:28:24.079Z</time></trkpt><trkpt lat="43.0007383" lon="11.6828167"><ele>321.0</ele><time>2026-03-29T13:28:25.079Z</time></trkpt><trkpt lat="43.0008067" lon="11.6827767"><ele>321.0</ele><time>2026-03-29T13:28:26.079Z</time></trkpt><trkpt lat="43.0008767" lon="11.68275"><ele>321.0</ele><time>2026-03-29T13:28:27.079Z</time></trkpt><trkpt lat="43.000945" lon="11.68277"><ele>321.0</ele><time>2026-03-29T13:28:28.078Z</time></trkpt><trkpt lat="43.0010033" lon="11.6828517"><ele>320.40000000000003</ele><time>2026-03-29T13:28:29.078Z</time></trkpt><trkpt lat="43.001075" lon="11.6829283"><ele>319.8</ele><time>2026-03-29T13:28:30.078Z</time></trkpt><trkpt lat="43.0011417" lon="11.6829983"><ele>319.20000000000005</ele><time>2026-03-29T13:28:31.078Z</time></trkpt><trkpt lat="43.00122" lon="11.68307"><ele>318.6</ele><time>2026-03-29T13:28:32.079Z</time></trkpt><trkpt lat="43.0013017" lon="11.68313"><ele>318.0</ele><time>2026-03-29T13:28:33.078Z</time></trkpt><trkpt lat="43.00138" lon="11.68319"><ele>318.0</ele><time>2026-03-29T13:28:34.079Z</time></trkpt><trkpt lat="43.00146" lon="11.6832517"><ele>318.0</ele><time>2026-03-29T13:28:35.078Z</time></trkpt><trkpt lat="43.0015467" lon="11.6833167"><ele>318.0</ele><time>2026-03-29T13:28:36.079Z</time></trkpt><trkpt lat="43.001635" lon="11.683385"><ele>318.0</ele><time>2026-03-29T13:28:37.079Z</time></trkpt><trkpt lat="43.001725" lon="11.6834583"><ele>318.0</ele><time>2026-03-29T13:28:38.078Z</time></trkpt><trkpt lat="43.00182" lon="11.68353"><ele>317.5</ele><time>2026-03-29T13:28:39.079Z</time></trkpt><trkpt lat="43.00192" lon="11.6835967"><ele>317.0</ele><time>2026-03-29T13:28:40.079Z</time></trkpt><trkpt lat="43.0020217" lon="11.6836817"><ele>316.5</ele><time>2026-03-29T13:28:41.078Z</time></trkpt><trkpt lat="43.0021217" lon="11.6837617"><ele>316.0</ele><time>2026-03-29T13:28:42.079Z</time></trkpt><trkpt lat="43.00222" lon="11.68384"><ele>315.25</ele><time>2026-03-29T13:28:43.079Z</time></trkpt><trkpt lat="43.0023133" lon="11.6839217"><ele>314.5</ele><time>2026-03-29T13:28:44.078Z</time></trkpt><trkpt lat="43.0024033" lon="11.6840083"><ele>313.75</ele><time>2026-03-29T13:28:45.079Z</time></trkpt><trkpt lat="43.0025067" lon="11.6840917"><ele>313.0</ele><time>2026-03-29T13:28:46.079Z</time></trkpt><trkpt lat="43.002615" lon="11.684175"><ele>313.0</ele><time>2026-03-29T13:28:47.079Z</time></trkpt><trkpt lat="43.0027133" lon="11.684265"><ele>313.0</ele><time>2026-03-29T13:28:48.078Z</time></trkpt><trkpt lat="43.0028217" lon="11.684365"><ele>313.0</ele><time>2026-03-29T13:28:49.079Z</time></trkpt><trkpt lat="43.0029233" lon="11.6844633"><ele>313.0</ele><time>2026-03-29T13:28:50.079Z</time></trkpt><trkpt lat="43.0030433" lon="11.6845617"><ele>313.25</ele><time>2026-03-29T13:28:51.079Z</time></trkpt><trkpt lat="43.003165" lon="11.6846567"><ele>313.5</ele><time>2026-03-29T13:28:52.079Z</time></trkpt><trkpt lat="43.003285" lon="11.6847617"><ele>313.75</ele><time>2026-03-29T13:28:53.078Z</time></trkpt><trkpt lat="43.0034083" lon="11.68485"><ele>314.0</ele><time>2026-03-29T13:28:54.079Z</time></trkpt><trkpt lat="43.0035283" lon="11.6849533"><ele>313.0</ele><time>2026-03-29T13:28:55.079Z</time></trkpt><trkpt lat="43.0036367" lon="11.68505"><ele>312.0</ele><time>2026-03-29T13:28:56.079Z</time></trkpt><trkpt lat="43.003755" lon="11.6851517"><ele>311.0</ele><time>2026-03-29T13:28:57.079Z</time></trkpt><trkpt lat="43.0038667" lon="11.6852467"><ele>310.0</ele><time>2026-03-29T13:28:58.079Z</time></trkpt><trkpt lat="43.003985" lon="11.6853367"><ele>308.66666666666663</ele><time>2026-03-29T13:28:59.079Z</time></trkpt><trkpt lat="43.0041183" lon="11.6854367"><ele>307.3333333333333</ele><time>2026-03-29T13:29:00.079Z</time></trkpt><trkpt lat="43.004255" lon="11.6855433"><ele>306.0</ele><time>2026-03-29T13:29:01.079Z</time></trkpt><trkpt lat="43.0043817" lon="11.6856467"><ele>304.75</ele><time>2026-03-29T13:29:02.079Z</time></trkpt><trkpt lat="43.004505" lon="11.6857567"><ele>303.5</ele><time>2026-03-29T13:29:03.079Z</time></trkpt><trkpt lat="43.004625" lon="11.68586"><ele>302.25</ele><time>2026-03-29T13:29:04.079Z</time></trkpt><trkpt lat="43.00474" lon="11.68596"><ele>301.0</ele><time>2026-03-29T13:29:05.078Z</time></trkpt><trkpt lat="43.0048667" lon="11.686065"><ele>300.0</ele><time>2026-03-29T13:29:06.079Z</time></trkpt><trkpt lat="43.0049933" lon="11.6861667"><ele>299.0</ele><time>2026-03-29T13:29:07.079Z</time></trkpt><trkpt lat="43.0051217" lon="11.6862667"><ele>298.0</ele><time>2026-03-29T13:29:08.079Z</time></trkpt><trkpt lat="43.0052467" lon="11.6863717"><ele>297.0</ele><time>2026-03-29T13:29:09.079Z</time></trkpt><trkpt lat="43.0053683" lon="11.6864683"><ele>297.0</ele><time>2026-03-29T13:29:10.078Z</time></trkpt><trkpt lat="43.00548" lon="11.6865667"><ele>297.0</ele><time>2026-03-29T13:29:11.079Z</time></trkpt><trkpt lat="43.0055883" lon="11.6866617"><ele>297.0</ele><time>2026-03-29T13:29:12.079Z</time></trkpt><trkpt lat="43.0057" lon="11.6867533"><ele>297.0</ele><time>2026-03-29T13:29:13.079Z</time></trkpt><trkpt lat="43.0058" lon="11.6868333"><ele>297.2</ele><time>2026-03-29T13:29:14.079Z</time></trkpt><trkpt lat="43.00588" lon="11.6869067"><ele>297.4</ele><time>2026-03-29T13:29:15.079Z</time></trkpt><trkpt lat="43.005945" lon="11.6869617"><ele>297.6</ele><time>2026-03-29T13:29:16.078Z</time></trkpt><trkpt lat="43.0060583" lon="11.6870583"><ele>297.8</ele><time>2026-03-29T13:29:18.079Z</time></trkpt><trkpt lat="43.006125" lon="11.6871117"><ele>298.0</ele><time>2026-03-29T13:29:19.078Z</time></trkpt><trkpt lat="43.0061933" lon="11.6871833"><ele>298.0</ele><time>2026-03-29T13:29:20.079Z</time></trkpt><trkpt lat="43.00628" lon="11.68726"><ele>298.0</ele><time>2026-03-29T13:29:21.079Z</time></trkpt><trkpt lat="43.0063567" lon="11.6873633"><ele>298.0</ele><time>2026-03-29T13:29:22.078Z</time></trkpt><trkpt lat="43.0064133" lon="11.68748"><ele>298.0</ele><time>2026-03-29T13:29:23.078Z</time></trkpt><trkpt lat="43.0064567" lon="11.687585"><ele>298.0</ele><time>2026-03-29T13:29:24.079Z</time></trkpt><trkpt lat="43.0064967" lon="11.6877033"><ele>297.6</ele><time>2026-03-29T13:29:25.078Z</time></trkpt><trkpt lat="43.0065217" lon="11.68782"><ele>297.20000000000005</ele><time>2026-03-29T13:29:26.078Z</time></trkpt><trkpt lat="43.0065483" lon="11.687925"><ele>296.8</ele><time>2026-03-29T13:29:27.078Z</time></trkpt><trkpt lat="43.006565" lon="11.68801"><ele>296.40000000000003</ele><time>2026-03-29T13:29:28.079Z</time></trkpt><trkpt lat="43.0065867" lon="11.688185"><ele>296.0</ele><time>2026-03-29T13:29:30.079Z</time></trkpt><trkpt lat="43.00658" lon="11.6883633"><ele>296.0</ele><time>2026-03-29T13:29:32.079Z</time></trkpt><trkpt lat="43.0065733" lon="11.6884717"><ele>296.0</ele><time>2026-03-29T13:29:33.078Z</time></trkpt><trkpt lat="43.006565" lon="11.688595"><ele>296.0</ele><time>2026-03-29T13:29:34.079Z</time></trkpt><trkpt lat="43.0065633" lon="11.68872"><ele>296.0</ele><time>2026-03-29T13:29:35.078Z</time></trkpt><trkpt lat="43.00654" lon="11.6888467"><ele>296.0</ele><time>2026-03-29T13:29:36.079Z</time></trkpt><trkpt lat="43.0065017" lon="11.6889767"><ele>295.8</ele><time>2026-03-29T13:29:37.079Z</time></trkpt><trkpt lat="43.0064533" lon="11.6891067"><ele>295.6</ele><time>2026-03-29T13:29:38.079Z</time></trkpt><trkpt lat="43.0064117" lon="11.6892367"><ele>295.4</ele><time>2026-03-29T13:29:39.079Z</time></trkpt><trkpt lat="43.0063683" lon="11.6893667"><ele>295.2</ele><time>2026-03-29T13:29:40.078Z</time></trkpt><trkpt lat="43.0063233" lon="11.689505"><ele>295.0</ele><time>2026-03-29T13:29:41.079Z</time></trkpt><trkpt lat="43.0062867" lon="11.68963"><ele>295.0</ele><time>2026-03-29T13:29:42.079Z</time></trkpt><trkpt lat="43.006255" lon="11.689745"><ele>295.0</ele><time>2026-03-29T13:29:43.079Z</time></trkpt><trkpt lat="43.00623" lon="11.6898417"><ele>295.0</ele><time>2026-03-29T13:29:44.079Z</time></trkpt><trkpt lat="43.0062083" lon="11.689925"><ele>295.0</ele><time>2026-03-29T13:29:45.079Z</time></trkpt><trkpt lat="43.006185" lon="11.6900183"><ele>295.0</ele><time>2026-03-29T13:29:46.079Z</time></trkpt><trkpt lat="43.00615" lon="11.6901383"><ele>295.0</ele><time>2026-03-29T13:29:47.079Z</time></trkpt><trkpt lat="43.0061067" lon="11.690265"><ele>294.66666666666663</ele><time>2026-03-29T13:29:48.079Z</time></trkpt><trkpt lat="43.0060683" lon="11.6903917"><ele>294.3333333333333</ele><time>2026-03-29T13:29:49.079Z</time></trkpt><trkpt lat="43.0060433" lon="11.6905117"><ele>294.0</ele><time>2026-03-29T13:29:50.078Z</time></trkpt><trkpt lat="43.0060183" lon="11.6906117"><ele>293.6666666666667</ele><time>2026-03-29T13:29:51.079Z</time></trkpt><trkpt lat="43.0059933" lon="11.6907267"><ele>293.33333333333337</ele><time>2026-03-29T13:29:53.079Z</time></trkpt><trkpt lat="43.005975" lon="11.6908217"><ele>293.0</ele><time>2026-03-29T13:29:56.079Z</time></trkpt><trkpt lat="43.0059283" lon="11.69093"><ele>293.0</ele><time>2026-03-29T13:29:58.079Z</time></trkpt><trkpt lat="43.00588" lon="11.6909983"><ele>293.0</ele><time>2026-03-29T13:30:00.079Z</time></trkpt><trkpt lat="43.00583" lon="11.6910867"><ele>293.0</ele><time>2026-03-29T13:30:02.078Z</time></trkpt><trkpt lat="43.0057717" lon="11.69122"><ele>293.0</ele><time>2026-03-29T13:30:04.079Z</time></trkpt><trkpt lat="43.005755" lon="11.691365"><ele>293.0</ele><time>2026-03-29T13:30:06.079Z</time></trkpt><trkpt lat="43.0057333" lon="11.69148"><ele>292.85714285714283</ele><time>2026-03-29T13:30:08.079Z</time></trkpt><trkpt lat="43.00569" lon="11.691585"><ele>292.7142857142857</ele><time>2026-03-29T13:30:11.079Z</time></trkpt><trkpt lat="43.0056483" lon="11.6916517"><ele>292.57142857142856</ele><time>2026-03-29T13:30:16.079Z</time></trkpt><trkpt lat="43.005635" lon="11.691755"><ele>292.42857142857144</ele><time>2026-03-29T13:30:29.079Z</time></trkpt><trkpt lat="43.0055983" lon="11.6918383"><ele>292.2857142857143</ele><time>2026-03-29T13:30:32.078Z</time></trkpt><trkpt lat="43.0055683" lon="11.6919283"><ele>292.1428571428571</ele><time>2026-03-29T13:30:35.079Z</time></trkpt><trkpt lat="43.0055467" lon="11.6920167"><ele>292.0</ele><time>2026-03-29T13:30:39.078Z</time></trkpt><trkpt lat="43.0055133" lon="11.6921"><ele>292.2857142857143</ele><time>2026-03-29T13:30:42.079Z</time></trkpt><trkpt lat="43.0054456" lon="11.6921073"><ele>292.57142857142856</ele><time>2026-03-29T13:30:48.117Z</time></trkpt><trkpt lat="43.0054624" lon="11.6921983"><ele>292.8571428571429</ele><time>2026-03-29T13:30:53.997Z</time></trkpt><trkpt lat="43.0054233" lon="11.6923067"><ele>293.1428571428571</ele><time>2026-03-29T13:31:17.079Z</time></trkpt><trkpt lat="43.0053867" lon="11.69238"><ele>293.42857142857144</ele><time>2026-03-29T13:31:19.079Z</time></trkpt><trkpt lat="43.0053483" lon="11.6924567"><ele>293.7142857142857</ele><time>2026-03-29T13:31:20.079Z</time></trkpt><trkpt lat="43.005305" lon="11.6925583"><ele>294.0</ele><time>2026-03-29T13:31:21.079Z</time></trkpt><trkpt lat="43.00526" lon="11.6926783"><ele>295.5</ele><time>2026-03-29T13:31:22.079Z</time></trkpt><trkpt lat="43.005215" lon="11.6927983"><ele>297.0</ele><time>2026-03-29T13:31:23.079Z</time></trkpt><trkpt lat="43.0051467" lon="11.6929033"><ele>298.5</ele><time>2026-03-29T13:31:24.078Z</time></trkpt><trkpt lat="43.0050717" lon="11.6930017"><ele>300.0</ele><time>2026-03-29T13:31:25.079Z</time></trkpt><trkpt lat="43.0050183" lon="11.6930833"><ele>301.5</ele><time>2026-03-29T13:31:26.078Z</time></trkpt><trkpt lat="43.0049817" lon="11.693155"><ele>303.0</ele><time>2026-03-29T13:31:27.079Z</time></trkpt><trkpt lat="43.0049383" lon="11.693295"><ele>304.0</ele><time>2026-03-29T13:31:29.079Z</time></trkpt><trkpt lat="43.00492" lon="11.6934467"><ele>305.0</ele><time>2026-03-29T13:31:31.079Z</time></trkpt><trkpt lat="43.0048917" lon="11.693565"><ele>306.0</ele><time>2026-03-29T13:31:33.079Z</time></trkpt><trkpt lat="43.0048617" lon="11.6937417"><ele>307.0</ele><time>2026-03-29T13:31:35.078Z</time></trkpt><trkpt lat="43.0048417" lon="11.693845"><ele>308.0</ele><time>2026-03-29T13:31:36.079Z</time></trkpt><trkpt lat="43.0048167" lon="11.6939617"><ele>309.0</ele><time>2026-03-29T13:31:37.079Z</time></trkpt><trkpt lat="43.0047883" lon="11.6940767"><ele>310.0</ele><time>2026-03-29T13:31:38.079Z</time></trkpt><trkpt lat="43.00475" lon="11.6941967"><ele>311.0</ele><time>2026-03-29T13:31:39.079Z</time></trkpt><trkpt lat="43.0047233" lon="11.6943133"><ele>312.0</ele><time>2026-03-29T13:31:40.079Z</time></trkpt><trkpt lat="43.0046917" lon="11.6944283"><ele>313.0</ele><time>2026-03-29T13:31:41.079Z</time></trkpt><trkpt lat="43.00466" lon="11.694545"><ele>313.3333333333333</ele><time>2026-03-29T13:31:42.078Z</time></trkpt><trkpt lat="43.0046383" lon="11.6946533"><ele>313.66666666666663</ele><time>2026-03-29T13:31:43.078Z</time></trkpt><trkpt lat="43.0046117" lon="11.6947467"><ele>314.0</ele><time>2026-03-29T13:31:44.079Z</time></trkpt><trkpt lat="43.0045883" lon="11.6948267"><ele>314.3333333333333</ele><time>2026-03-29T13:31:45.079Z</time></trkpt><trkpt lat="43.0045367" lon="11.6949783"><ele>314.6666666666667</ele><time>2026-03-29T13:31:47.079Z</time></trkpt><trkpt lat="43.00451" lon="11.6950567"><ele>315.0</ele><time>2026-03-29T13:31:48.079Z</time></trkpt><trkpt lat="43.0044817" lon="11.695155"><ele>315.8333333333333</ele><time>2026-03-29T13:31:49.079Z</time></trkpt><trkpt lat="43.0044617" lon="11.6952583"><ele>316.6666666666667</ele><time>2026-03-29T13:31:50.079Z</time></trkpt><trkpt lat="43.00444" lon="11.6953517"><ele>317.5</ele><time>2026-03-29T13:31:51.078Z</time></trkpt><trkpt lat="43.0044483" lon="11.69549"><ele>318.33333333333337</ele><time>2026-03-29T13:31:53.078Z</time></trkpt><trkpt lat="43.0045167" lon="11.6955383"><ele>319.1666666666667</ele><time>2026-03-29T13:31:56.079Z</time></trkpt><trkpt lat="43.0045867" lon="11.6955217"><ele>320.0</ele><time>2026-03-29T13:32:18.079Z</time></trkpt><trkpt lat="43.0046783" lon="11.6955267"><ele>320.0</ele><time>2026-03-29T13:32:25.079Z</time></trkpt><trkpt lat="43.0047967" lon="11.6955917"><ele>320.0</ele><time>2026-03-29T13:32:27.078Z</time></trkpt><trkpt lat="43.00488" lon="11.69564"><ele>320.0</ele><time>2026-03-29T13:32:28.079Z</time></trkpt><trkpt lat="43.0049733" lon="11.6957083"><ele>320.0</ele><time>2026-03-29T13:32:29.079Z</time></trkpt><trkpt lat="43.0050667" lon="11.6957817"><ele>320.0</ele><time>2026-03-29T13:32:30.079Z</time></trkpt><trkpt lat="43.0051667" lon="11.6958617"><ele>318.5</ele><time>2026-03-29T13:32:31.078Z</time></trkpt><trkpt lat="43.005265" lon="11.6959467"><ele>317.0</ele><time>2026-03-29T13:32:32.079Z</time></trkpt><trkpt lat="43.0053683" lon="11.6960383"><ele>315.5</ele><time>2026-03-29T13:32:33.079Z</time></trkpt><trkpt lat="43.0054833" lon="11.6961283"><ele>314.0</ele><time>2026-03-29T13:32:34.079Z</time></trkpt><trkpt lat="43.0055967" lon="11.6962183"><ele>313.75</ele><time>2026-03-29T13:32:35.079Z</time></trkpt><trkpt lat="43.0057083" lon="11.6963033"><ele>313.5</ele><time>2026-03-29T13:32:36.078Z</time></trkpt><trkpt lat="43.0058067" lon="11.6963817"><ele>313.25</ele><time>2026-03-29T13:32:37.078Z</time></trkpt><trkpt lat="43.0059167" lon="11.69644"><ele>313.0</ele><time>2026-03-29T13:32:38.079Z</time></trkpt><trkpt lat="43.0060317" lon="11.6964933"><ele>311.8</ele><time>2026-03-29T13:32:39.078Z</time></trkpt><trkpt lat="43.0061367" lon="11.69655"><ele>310.6</ele><time>2026-03-29T13:32:40.078Z</time></trkpt><trkpt lat="43.0062367" lon="11.69662"><ele>309.4</ele><time>2026-03-29T13:32:41.079Z</time></trkpt><trkpt lat="43.006325" lon="11.69668"><ele>308.2</ele><time>2026-03-29T13:32:42.079Z</time></trkpt><trkpt lat="43.0063917" lon="11.6967483"><ele>307.0</ele><time>2026-03-29T13:32:43.078Z</time></trkpt><trkpt lat="43.0064383" lon="11.6968367"><ele>307.25</ele><time>2026-03-29T13:32:44.079Z</time></trkpt><trkpt lat="43.0064633" lon="11.6969567"><ele>307.5</ele><time>2026-03-29T13:32:45.078Z</time></trkpt><trkpt lat="43.006485" lon="11.6971"><ele>307.75</ele><time>2026-03-29T13:32:46.079Z</time></trkpt><trkpt lat="43.0065067" lon="11.6973033"><ele>308.0</ele><time>2026-03-29T13:32:47.079Z</time></trkpt><trkpt lat="43.0065533" lon="11.6974967"><ele>308.0</ele><time>2026-03-29T13:32:48.078Z</time></trkpt><trkpt lat="43.00659" lon="11.6976867"><ele>308.0</ele><time>2026-03-29T13:32:49.078Z</time></trkpt><trkpt lat="43.0066417" lon="11.697875"><ele>308.0</ele><time>2026-03-29T13:32:50.079Z</time></trkpt><trkpt lat="43.0067033" lon="11.6980683"><ele>308.0</ele><time>2026-03-29T13:32:51.079Z</time></trkpt><trkpt lat="43.00677" lon="11.69826"><ele>308.6666666666667</ele><time>2026-03-29T13:32:52.078Z</time></trkpt><trkpt lat="43.0068317" lon="11.69845"><ele>309.3333333333333</ele><time>2026-03-29T13:32:53.079Z</time></trkpt><trkpt lat="43.0069033" lon="11.6986467"><ele>310.0</ele><time>2026-03-29T13:32:54.079Z</time></trkpt><trkpt lat="43.0069833" lon="11.6988517"><ele>310.5</ele><time>2026-03-29T13:32:55.079Z</time></trkpt><trkpt lat="43.007055" lon="11.6990383"><ele>311.0</ele><time>2026-03-29T13:32:56.079Z</time></trkpt><trkpt lat="43.0071183" lon="11.6992033"><ele>311.5</ele><time>2026-03-29T13:32:57.079Z</time></trkpt><trkpt lat="43.00717" lon="11.699345"><ele>312.0</ele><time>2026-03-29T13:32:58.079Z</time></trkpt><trkpt lat="43.0072083" lon="11.6994767"><ele>312.8</ele><time>2026-03-29T13:32:59.079Z</time></trkpt><trkpt lat="43.00721" lon="11.699605"><ele>313.6</ele><time>2026-03-29T13:33:00.079Z</time></trkpt><trkpt lat="43.00718" lon="11.6997233"><ele>314.40000000000003</ele><time>2026-03-29T13:33:01.079Z</time></trkpt><trkpt lat="43.0071167" lon="11.69983"><ele>315.2</ele><time>2026-03-29T13:33:02.079Z</time></trkpt><trkpt lat="43.0070283" lon="11.6999317"><ele>316.0</ele><time>2026-03-29T13:33:03.079Z</time></trkpt><trkpt lat="43.006925" lon="11.7000383"><ele>316.0</ele><time>2026-03-29T13:33:04.079Z</time></trkpt><trkpt lat="43.0068233" lon="11.7001483"><ele>316.0</ele><time>2026-03-29T13:33:05.079Z</time></trkpt><trkpt lat="43.0067317" lon="11.7002517"><ele>316.0</ele><time>2026-03-29T13:33:06.079Z</time></trkpt><trkpt lat="43.006645" lon="11.700355"><ele>316.0</ele><time>2026-03-29T13:33:07.079Z</time></trkpt><trkpt lat="43.0065583" lon="11.700445"><ele>316.75</ele><time>2026-03-29T13:33:08.079Z</time></trkpt><trkpt lat="43.00646" lon="11.7005517"><ele>317.5</ele><time>2026-03-29T13:33:09.079Z</time></trkpt><trkpt lat="43.0063583" lon="11.700675"><ele>318.25</ele><time>2026-03-29T13:33:10.079Z</time></trkpt><trkpt lat="43.006255" lon="11.7007883"><ele>319.0</ele><time>2026-03-29T13:33:11.078Z</time></trkpt><trkpt lat="43.0061633" lon="11.70089"><ele>319.0</ele><time>2026-03-29T13:33:12.079Z</time></trkpt><trkpt lat="43.0060467" lon="11.700975"><ele>319.0</ele><time>2026-03-29T13:33:13.079Z</time></trkpt><trkpt lat="43.00592" lon="11.7010417"><ele>319.0</ele><time>2026-03-29T13:33:14.079Z</time></trkpt><trkpt lat="43.00577" lon="11.7010783"><ele>319.0</ele><time>2026-03-29T13:33:15.079Z</time></trkpt><trkpt lat="43.0056167" lon="11.70112"><ele>317.66666666666663</ele><time>2026-03-29T13:33:16.079Z</time></trkpt><trkpt lat="43.0054733" lon="11.701155"><ele>316.3333333333333</ele><time>2026-03-29T13:33:17.079Z</time></trkpt><trkpt lat="43.00532" lon="11.7012"><ele>315.0</ele><time>2026-03-29T13:33:18.079Z</time></trkpt><trkpt lat="43.0051767" lon="11.7012683"><ele>315.0</ele><time>2026-03-29T13:33:19.079Z</time></trkpt><trkpt lat="43.0050383" lon="11.7013583"><ele>315.0</ele><time>2026-03-29T13:33:20.079Z</time></trkpt><trkpt lat="43.0048983" lon="11.7014483"><ele>315.0</ele><time>2026-03-29T13:33:21.079Z</time></trkpt><trkpt lat="43.0047583" lon="11.7015417"><ele>315.0</ele><time>2026-03-29T13:33:22.078Z</time></trkpt><trkpt lat="43.00462" lon="11.7016633"><ele>315.0</ele><time>2026-03-29T13:33:23.079Z</time></trkpt><trkpt lat="43.004485" lon="11.7018017"><ele>315.0</ele><time>2026-03-29T13:33:24.079Z</time></trkpt><trkpt lat="43.0043483" lon="11.7019433"><ele>315.0</ele><time>2026-03-29T13:33:25.079Z</time></trkpt><trkpt lat="43.0042267" lon="11.7020733"><ele>315.0</ele><time>2026-03-29T13:33:26.078Z</time></trkpt><trkpt lat="43.0041167" lon="11.7021883"><ele>315.0</ele><time>2026-03-29T13:33:27.079Z</time></trkpt><trkpt lat="43.004025" lon="11.7022933"><ele>315.0</ele><time>2026-03-29T13:33:28.079Z</time></trkpt><trkpt lat="43.0039367" lon="11.7024033"><ele>315.75</ele><time>2026-03-29T13:33:29.079Z</time></trkpt><trkpt lat="43.0038583" lon="11.70255"><ele>316.5</ele><time>2026-03-29T13:33:30.079Z</time></trkpt><trkpt lat="43.0038083" lon="11.7027167"><ele>317.25</ele><time>2026-03-29T13:33:31.079Z</time></trkpt><trkpt lat="43.0037833" lon="11.702915"><ele>318.0</ele><time>2026-03-29T13:33:32.079Z</time></trkpt><trkpt lat="43.0037683" lon="11.7031533"><ele>319.0</ele><time>2026-03-29T13:33:33.078Z</time></trkpt><trkpt lat="43.003755" lon="11.7034017"><ele>320.0</ele><time>2026-03-29T13:33:34.079Z</time></trkpt><trkpt lat="43.003735" lon="11.7036067"><ele>321.0</ele><time>2026-03-29T13:33:35.079Z</time></trkpt><trkpt lat="43.0037167" lon="11.703815"><ele>321.6666666666667</ele><time>2026-03-29T13:33:36.079Z</time></trkpt><trkpt lat="43.0036933" lon="11.70402"><ele>322.33333333333337</ele><time>2026-03-29T13:33:37.078Z</time></trkpt><trkpt lat="43.003675" lon="11.7042417"><ele>323.0</ele><time>2026-03-29T13:33:38.079Z</time></trkpt><trkpt lat="43.0036467" lon="11.7044633"><ele>323.33333333333337</ele><time>2026-03-29T13:33:39.079Z</time></trkpt><trkpt lat="43.0036233" lon="11.704695"><ele>323.6666666666667</ele><time>2026-03-29T13:33:40.079Z</time></trkpt><trkpt lat="43.0036" lon="11.7049217"><ele>324.0</ele><time>2026-03-29T13:33:41.079Z</time></trkpt><trkpt lat="43.0035817" lon="11.7051567"><ele>324.6666666666667</ele><time>2026-03-29T13:33:42.079Z</time></trkpt><trkpt lat="43.0035567" lon="11.7054117"><ele>325.33333333333337</ele><time>2026-03-29T13:33:43.079Z</time></trkpt><trkpt lat="43.0035283" lon="11.7056733"><ele>326.0</ele><time>2026-03-29T13:33:44.079Z</time></trkpt><trkpt lat="43.00351" lon="11.7059383"><ele>326.0</ele><time>2026-03-29T13:33:45.078Z</time></trkpt><trkpt lat="43.0034583" lon="11.7064267"><ele>326.0</ele><time>2026-03-29T13:33:47.079Z</time></trkpt><trkpt lat="43.0034383" lon="11.7066733"><ele>326.0</ele><time>2026-03-29T13:33:48.079Z</time></trkpt><trkpt lat="43.00341" lon="11.70691"><ele>326.0</ele><time>2026-03-29T13:33:49.078Z</time></trkpt><trkpt lat="43.00339" lon="11.7071317"><ele>326.0</ele><time>2026-03-29T13:33:50.079Z</time></trkpt><trkpt lat="43.0033717" lon="11.707335"><ele>326.5</ele><time>2026-03-29T13:33:51.079Z</time></trkpt><trkpt lat="43.0033517" lon="11.707535"><ele>327.0</ele><time>2026-03-29T13:33:52.079Z</time></trkpt><trkpt lat="43.0033483" lon="11.70771"><ele>327.5</ele><time>2026-03-29T13:33:53.079Z</time></trkpt><trkpt lat="43.0033467" lon="11.7078667"><ele>328.0</ele><time>2026-03-29T13:33:54.079Z</time></trkpt><trkpt lat="43.0033617" lon="11.70804"><ele>328.0</ele><time>2026-03-29T13:33:55.079Z</time></trkpt><trkpt lat="43.0033933" lon="11.7082283"><ele>328.0</ele><time>2026-03-29T13:33:56.079Z</time></trkpt><trkpt lat="43.0034267" lon="11.7084083"><ele>328.0</ele><time>2026-03-29T13:33:57.079Z</time></trkpt><trkpt lat="43.003465" lon="11.708565"><ele>328.0</ele><time>2026-03-29T13:33:58.078Z</time></trkpt><trkpt lat="43.0035117" lon="11.708715"><ele>327.5</ele><time>2026-03-29T13:33:59.079Z</time></trkpt><trkpt lat="43.0035617" lon="11.7088483"><ele>327.0</ele><time>2026-03-29T13:34:00.079Z</time></trkpt><trkpt lat="43.0036417" lon="11.7089783"><ele>326.5</ele><time>2026-03-29T13:34:01.078Z</time></trkpt><trkpt lat="43.0037483" lon="11.709085"><ele>326.0</ele><time>2026-03-29T13:34:02.079Z</time></trkpt><trkpt lat="43.00389" lon="11.7091967"><ele>326.0</ele><time>2026-03-29T13:34:03.079Z</time></trkpt><trkpt lat="43.0040367" lon="11.7093117"><ele>326.0</ele><time>2026-03-29T13:34:04.079Z</time></trkpt><trkpt lat="43.004175" lon="11.7094233"><ele>326.0</ele><time>2026-03-29T13:34:05.079Z</time></trkpt><trkpt lat="43.0043183" lon="11.7095317"><ele>326.75</ele><time>2026-03-29T13:34:06.078Z</time></trkpt><trkpt lat="43.00444" lon="11.709635"><ele>327.5</ele><time>2026-03-29T13:34:07.079Z</time></trkpt><trkpt lat="43.0045467" lon="11.7097233"><ele>328.25</ele><time>2026-03-29T13:34:08.079Z</time></trkpt><trkpt lat="43.00464" lon="11.7098033"><ele>329.0</ele><time>2026-03-29T13:34:09.078Z</time></trkpt><trkpt lat="43.0047267" lon="11.7098717"><ele>329.0</ele><time>2026-03-29T13:34:10.079Z</time></trkpt><trkpt lat="43.0048033" lon="11.7099383"><ele>329.0</ele><time>2026-03-29T13:34:11.079Z</time></trkpt><trkpt lat="43.004875" lon="11.709995"><ele>329.0</ele><time>2026-03-29T13:34:12.079Z</time></trkpt><trkpt lat="43.0049383" lon="11.7100583"><ele>329.0</ele><time>2026-03-29T13:34:13.079Z</time></trkpt><trkpt lat="43.0050017" lon="11.7101383"><ele>329.0</ele><time>2026-03-29T13:34:14.078Z</time></trkpt><trkpt lat="43.0050567" lon="11.710245"><ele>329.0</ele><time>2026-03-29T13:34:15.079Z</time></trkpt><trkpt lat="43.005105" lon="11.7103683"><ele>330.2</ele><time>2026-03-29T13:34:16.079Z</time></trkpt><trkpt lat="43.0051433" lon="11.7105117"><ele>331.4</ele><time>2026-03-29T13:34:17.079Z</time></trkpt><trkpt lat="43.005145" lon="11.7106467"><ele>332.6</ele><time>2026-03-29T13:34:18.079Z</time></trkpt><trkpt lat="43.00512" lon="11.7107817"><ele>333.8</ele><time>2026-03-29T13:34:19.078Z</time></trkpt><trkpt lat="43.0050883" lon="11.710925"><ele>335.0</ele><time>2026-03-29T13:34:20.079Z</time></trkpt><trkpt lat="43.0050433" lon="11.7110683"><ele>334.8</ele><time>2026-03-29T13:34:21.079Z</time></trkpt><trkpt lat="43.0050017" lon="11.7111983"><ele>334.6</ele><time>2026-03-29T13:34:22.078Z</time></trkpt><trkpt lat="43.0049767" lon="11.711325"><ele>334.4</ele><time>2026-03-29T13:34:23.079Z</time></trkpt><trkpt lat="43.004965" lon="11.7114517"><ele>334.2</ele><time>2026-03-29T13:34:24.079Z</time></trkpt><trkpt lat="43.0049633" lon="11.7115917"><ele>334.0</ele><time>2026-03-29T13:34:25.079Z</time></trkpt><trkpt lat="43.0049667" lon="11.7117467"><ele>330.25</ele><time>2026-03-29T13:34:26.079Z</time></trkpt><trkpt lat="43.00497" lon="11.71193"><ele>326.5</ele><time>2026-03-29T13:34:27.079Z</time></trkpt><trkpt lat="43.0049567" lon="11.712105"><ele>322.75</ele><time>2026-03-29T13:34:28.079Z</time></trkpt><trkpt lat="43.0049383" lon="11.712265"><ele>319.0</ele><time>2026-03-29T13:34:29.079Z</time></trkpt><trkpt lat="43.0048983" lon="11.712425"><ele>319.0</ele><time>2026-03-29T13:34:30.078Z</time></trkpt><trkpt lat="43.0048417" lon="11.71258"><ele>319.0</ele><time>2026-03-29T13:34:31.078Z</time></trkpt><trkpt lat="43.0047883" lon="11.7127483"><ele>319.0</ele><time>2026-03-29T13:34:32.079Z</time></trkpt><trkpt lat="43.0047383" lon="11.71292"><ele>319.0</ele><time>2026-03-29T13:34:33.079Z</time></trkpt><trkpt lat="43.0046717" lon="11.713105"><ele>318.66666666666663</ele><time>2026-03-29T13:34:34.078Z</time></trkpt><trkpt lat="43.0046117" lon="11.7132933"><ele>318.3333333333333</ele><time>2026-03-29T13:34:35.078Z</time></trkpt><trkpt lat="43.0045483" lon="11.7134833"><ele>318.0</ele><time>2026-03-29T13:34:36.079Z</time></trkpt><trkpt lat="43.0044817" lon="11.7136717"><ele>317.5</ele><time>2026-03-29T13:34:37.079Z</time></trkpt><trkpt lat="43.004425" lon="11.7138567"><ele>317.0</ele><time>2026-03-29T13:34:38.079Z</time></trkpt><trkpt lat="43.0043683" lon="11.7140383"><ele>316.5</ele><time>2026-03-29T13:34:39.079Z</time></trkpt><trkpt lat="43.0043117" lon="11.7142117"><ele>316.0</ele><time>2026-03-29T13:34:40.079Z</time></trkpt><trkpt lat="43.00426" lon="11.7143733"><ele>315.25</ele><time>2026-03-29T13:34:41.078Z</time></trkpt><trkpt lat="43.00421" lon="11.7145167"><ele>314.5</ele><time>2026-03-29T13:34:42.079Z</time></trkpt><trkpt lat="43.0041633" lon="11.7146667"><ele>313.75</ele><time>2026-03-29T13:34:43.078Z</time></trkpt><trkpt lat="43.0041233" lon="11.7148167"><ele>313.0</ele><time>2026-03-29T13:34:44.079Z</time></trkpt><trkpt lat="43.00409" lon="11.7149667"><ele>312.6</ele><time>2026-03-29T13:34:45.078Z</time></trkpt><trkpt lat="43.00407" lon="11.7150967"><ele>312.20000000000005</ele><time>2026-03-29T13:34:46.079Z</time></trkpt><trkpt lat="43.0040583" lon="11.7152133"><ele>311.8</ele><time>2026-03-29T13:34:47.078Z</time></trkpt><trkpt lat="43.0040617" lon="11.7153333"><ele>311.40000000000003</ele><time>2026-03-29T13:34:48.078Z</time></trkpt><trkpt lat="43.0040767" lon="11.7154533"><ele>311.0</ele><time>2026-03-29T13:34:49.079Z</time></trkpt><trkpt lat="43.00411" lon="11.71559"><ele>310.75</ele><time>2026-03-29T13:34:50.079Z</time></trkpt><trkpt lat="43.0041683" lon="11.7157217"><ele>310.5</ele><time>2026-03-29T13:34:51.079Z</time></trkpt><trkpt lat="43.0042467" lon="11.7158517"><ele>310.25</ele><time>2026-03-29T13:34:52.078Z</time></trkpt><trkpt lat="43.0043233" lon="11.7159733"><ele>310.0</ele><time>2026-03-29T13:34:53.078Z</time></trkpt><trkpt lat="43.004395" lon="11.716135"><ele>310.0</ele><time>2026-03-29T13:34:54.079Z</time></trkpt><trkpt lat="43.0044583" lon="11.7163433"><ele>310.0</ele><time>2026-03-29T13:34:55.079Z</time></trkpt><trkpt lat="43.0045283" lon="11.7165933"><ele>310.0</ele><time>2026-03-29T13:34:56.079Z</time></trkpt><trkpt lat="43.00461" lon="11.716855"><ele>311.0</ele><time>2026-03-29T13:34:57.079Z</time></trkpt><trkpt lat="43.0046867" lon="11.7171067"><ele>312.0</ele><time>2026-03-29T13:34:58.079Z</time></trkpt><trkpt lat="43.004755" lon="11.717325"><ele>313.0</ele><time>2026-03-29T13:34:59.079Z</time></trkpt><trkpt lat="43.004795" lon="11.7175317"><ele>313.0</ele><time>2026-03-29T13:35:00.079Z</time></trkpt><trkpt lat="43.004825" lon="11.7177333"><ele>313.0</ele><time>2026-03-29T13:35:01.079Z</time></trkpt><trkpt lat="43.0048567" lon="11.71794"><ele>313.0</ele><time>2026-03-29T13:35:02.078Z</time></trkpt><trkpt lat="43.0048717" lon="11.7181433"><ele>314.0</ele><time>2026-03-29T13:35:03.079Z</time></trkpt><trkpt lat="43.00489" lon="11.7183367"><ele>315.0</ele><time>2026-03-29T13:35:04.078Z</time></trkpt><trkpt lat="43.0048917" lon="11.718505"><ele>316.0</ele><time>2026-03-29T13:35:05.079Z</time></trkpt><trkpt lat="43.004875" lon="11.718655"><ele>317.0</ele><time>2026-03-29T13:35:06.079Z</time></trkpt><trkpt lat="43.0048517" lon="11.7188067"><ele>319.0</ele><time>2026-03-29T13:35:07.079Z</time></trkpt><trkpt lat="43.004835" lon="11.718965"><ele>321.0</ele><time>2026-03-29T13:35:08.079Z</time></trkpt><trkpt lat="43.004805" lon="11.7191367"><ele>323.0</ele><time>2026-03-29T13:35:09.079Z</time></trkpt><trkpt lat="43.00477" lon="11.7193183"><ele>325.0</ele><time>2026-03-29T13:35:10.078Z</time></trkpt><trkpt lat="43.0047333" lon="11.7195033"><ele>326.3333333333333</ele><time>2026-03-29T13:35:11.079Z</time></trkpt><trkpt lat="43.004695" lon="11.719705"><ele>327.6666666666667</ele><time>2026-03-29T13:35:12.078Z</time></trkpt><trkpt lat="43.0046583" lon="11.7199083"><ele>329.0</ele><time>2026-03-29T13:35:13.079Z</time></trkpt><trkpt lat="43.00462" lon="11.720125"><ele>329.0</ele><time>2026-03-29T13:35:14.079Z</time></trkpt><trkpt lat="43.0045717" lon="11.7203317"><ele>329.0</ele><time>2026-03-29T13:35:15.079Z</time></trkpt><trkpt lat="43.00452" lon="11.72055"><ele>329.0</ele><time>2026-03-29T13:35:16.079Z</time></trkpt><trkpt lat="43.004475" lon="11.720755"><ele>329.0</ele><time>2026-03-29T13:35:17.078Z</time></trkpt><trkpt lat="43.0044317" lon="11.7209533"><ele>329.0</ele><time>2026-03-29T13:35:18.079Z</time></trkpt><trkpt lat="43.0043883" lon="11.7211567"><ele>329.0</ele><time>2026-03-29T13:35:19.079Z</time></trkpt><trkpt lat="43.0043417" lon="11.7213583"><ele>328.75</ele><time>2026-03-29T13:35:20.079Z</time></trkpt><trkpt lat="43.0042967" lon="11.721565"><ele>328.5</ele><time>2026-03-29T13:35:21.078Z</time></trkpt><trkpt lat="43.004255" lon="11.7217633"><ele>328.25</ele><time>2026-03-29T13:35:22.079Z</time></trkpt><trkpt lat="43.0042233" lon="11.7219417"><ele>328.0</ele><time>2026-03-29T13:35:23.079Z</time></trkpt><trkpt lat="43.0041883" lon="11.72211"><ele>328.2</ele><time>2026-03-29T13:35:24.078Z</time></trkpt><trkpt lat="43.00416" lon="11.7222667"><ele>328.4</ele><time>2026-03-29T13:35:25.079Z</time></trkpt><trkpt lat="43.0041333" lon="11.722405"><ele>328.59999999999997</ele><time>2026-03-29T13:35:26.079Z</time></trkpt><trkpt lat="43.0041117" lon="11.72253"><ele>328.79999999999995</ele><time>2026-03-29T13:35:27.079Z</time></trkpt><trkpt lat="43.004105" lon="11.7226533"><ele>329.0</ele><time>2026-03-29T13:35:28.079Z</time></trkpt><trkpt lat="43.0041267" lon="11.722775"><ele>329.2</ele><time>2026-03-29T13:35:29.079Z</time></trkpt><trkpt lat="43.0041833" lon="11.7228917"><ele>329.4</ele><time>2026-03-29T13:35:30.079Z</time></trkpt><trkpt lat="43.00425" lon="11.7230083"><ele>329.6</ele><time>2026-03-29T13:35:31.079Z</time></trkpt><trkpt lat="43.0043033" lon="11.72313"><ele>329.8</ele><time>2026-03-29T13:35:32.078Z</time></trkpt><trkpt lat="43.0043383" lon="11.72325"><ele>330.0</ele><time>2026-03-29T13:35:33.079Z</time></trkpt><trkpt lat="43.0043683" lon="11.7233883"><ele>330.0</ele><time>2026-03-29T13:35:34.079Z</time></trkpt><trkpt lat="43.004395" lon="11.723535"><ele>330.0</ele><time>2026-03-29T13:35:35.079Z</time></trkpt><trkpt lat="43.0044167" lon="11.7236633"><ele>330.0</ele><time>2026-03-29T13:35:36.078Z</time></trkpt><trkpt lat="43.0044283" lon="11.72378"><ele>330.0</ele><time>2026-03-29T13:35:37.079Z</time></trkpt><trkpt lat="43.004425" lon="11.7238867"><ele>330.0</ele><time>2026-03-29T13:35:38.079Z</time></trkpt><trkpt lat="43.0043967" lon="11.7239817"><ele>330.0</ele><time>2026-03-29T13:35:39.079Z</time></trkpt><trkpt lat="43.00434" lon="11.724045"><ele>330.0</ele><time>2026-03-29T13:35:40.079Z</time></trkpt><trkpt lat="43.0042767" lon="11.7240667"><ele>330.0</ele><time>2026-03-29T13:35:41.079Z</time></trkpt><trkpt lat="43.0041917" lon="11.724085"><ele>330.0</ele><time>2026-03-29T13:35:42.079Z</time></trkpt><trkpt lat="43.004105" lon="11.7241283"><ele>330.0</ele><time>2026-03-29T13:35:43.078Z</time></trkpt><trkpt lat="43.0040283" lon="11.7241967"><ele>330.0</ele><time>2026-03-29T13:35:44.079Z</time></trkpt><trkpt lat="43.0039567" lon="11.7242883"><ele>330.0</ele><time>2026-03-29T13:35:45.079Z</time></trkpt><trkpt lat="43.00389" lon="11.7243883"><ele>328.0</ele><time>2026-03-29T13:35:46.079Z</time></trkpt><trkpt lat="43.0038217" lon="11.7244883"><ele>326.0</ele><time>2026-03-29T13:35:47.079Z</time></trkpt><trkpt lat="43.0037533" lon="11.7246067"><ele>324.0</ele><time>2026-03-29T13:35:48.079Z</time></trkpt><trkpt lat="43.00369" lon="11.7247383"><ele>322.0</ele><time>2026-03-29T13:35:49.079Z</time></trkpt><trkpt lat="43.00364" lon="11.7248767"><ele>320.0</ele><time>2026-03-29T13:35:50.078Z</time></trkpt><trkpt lat="43.0036117" lon="11.7250283"><ele>320.0</ele><time>2026-03-29T13:35:51.08Z</time></trkpt><trkpt lat="43.0036033" lon="11.7251933"><ele>320.0</ele><time>2026-03-29T13:35:52.08Z</time></trkpt><trkpt lat="43.0036" lon="11.725355"><ele>320.0</ele><time>2026-03-29T13:35:53.079Z</time></trkpt><trkpt lat="43.003595" lon="11.7254983"><ele>320.0</ele><time>2026-03-29T13:35:54.08Z</time></trkpt><trkpt lat="43.0035667" lon="11.7256233"><ele>320.0</ele><time>2026-03-29T13:35:55.08Z</time></trkpt><trkpt lat="43.0035183" lon="11.7257133"><ele>319.2</ele><time>2026-03-29T13:35:56.079Z</time></trkpt><trkpt lat="43.003455" lon="11.7257867"><ele>318.4</ele><time>2026-03-29T13:35:57.08Z</time></trkpt><trkpt lat="43.00337" lon="11.7258517"><ele>317.6</ele><time>2026-03-29T13:35:58.08Z</time></trkpt><trkpt lat="43.00327" lon="11.7259067"><ele>316.8</ele><time>2026-03-29T13:35:59.08Z</time></trkpt><trkpt lat="43.00315" lon="11.7259533"><ele>316.0</ele><time>2026-03-29T13:36:00.079Z</time></trkpt><trkpt lat="43.0030367" lon="11.726"><ele>315.5</ele><time>2026-03-29T13:36:01.08Z</time></trkpt><trkpt lat="43.00293" lon="11.7260367"><ele>315.0</ele><time>2026-03-29T13:36:02.079Z</time></trkpt><trkpt lat="43.0028283" lon="11.7261"><ele>314.5</ele><time>2026-03-29T13:36:03.079Z</time></trkpt><trkpt lat="43.002725" lon="11.7261883"><ele>314.0</ele><time>2026-03-29T13:36:04.079Z</time></trkpt><trkpt lat="43.0026217" lon="11.7262567"><ele>313.59999999999997</ele><time>2026-03-29T13:36:05.08Z</time></trkpt><trkpt lat="43.00251" lon="11.7263067"><ele>313.2</ele><time>2026-03-29T13:36:06.08Z</time></trkpt><trkpt lat="43.002415" lon="11.72635"><ele>312.79999999999995</ele><time>2026-03-29T13:36:07.08Z</time></trkpt><trkpt lat="43.0023233" lon="11.72638"><ele>312.4</ele><time>2026-03-29T13:36:08.08Z</time></trkpt><trkpt lat="43.0022333" lon="11.7264217"><ele>312.0</ele><time>2026-03-29T13:36:09.079Z</time></trkpt><trkpt lat="43.00216" lon="11.7264717"><ele>312.0</ele><time>2026-03-29T13:36:10.08Z</time></trkpt><trkpt lat="43.0021033" lon="11.72654"><ele>312.0</ele><time>2026-03-29T13:36:11.08Z</time></trkpt><trkpt lat="43.0020567" lon="11.7266133"><ele>312.0</ele><time>2026-03-29T13:36:12.08Z</time></trkpt><trkpt lat="43.0020233" lon="11.7266917"><ele>312.0</ele><time>2026-03-29T13:36:13.08Z</time></trkpt><trkpt lat="43.0019867" lon="11.7267667"><ele>312.0</ele><time>2026-03-29T13:36:14.08Z</time></trkpt><trkpt lat="43.0019533" lon="11.7268517"><ele>312.0</ele><time>2026-03-29T13:36:15.08Z</time></trkpt><trkpt lat="43.0019217" lon="11.72694"><ele>312.0</ele><time>2026-03-29T13:36:16.079Z</time></trkpt><trkpt lat="43.0018883" lon="11.7270267"><ele>312.0</ele><time>2026-03-29T13:36:17.08Z</time></trkpt><trkpt lat="43.0018533" lon="11.7271083"><ele>312.0</ele><time>2026-03-29T13:36:18.08Z</time></trkpt><trkpt lat="43.0018133" lon="11.7271967"><ele>312.0</ele><time>2026-03-29T13:36:19.08Z</time></trkpt><trkpt lat="43.0017617" lon="11.7272767"><ele>312.0</ele><time>2026-03-29T13:36:20.08Z</time></trkpt><trkpt lat="43.0016983" lon="11.7273517"><ele>312.0</ele><time>2026-03-29T13:36:21.08Z</time></trkpt><trkpt lat="43.001635" lon="11.72741"><ele>312.0</ele><time>2026-03-29T13:36:22.08Z</time></trkpt><trkpt lat="43.00157" lon="11.7274483"><ele>312.3333333333333</ele><time>2026-03-29T13:36:23.08Z</time></trkpt><trkpt lat="43.0015083" lon="11.7274883"><ele>312.6666666666667</ele><time>2026-03-29T13:36:24.08Z</time></trkpt><trkpt lat="43.0014533" lon="11.7275767"><ele>313.0</ele><time>2026-03-29T13:36:26.08Z</time></trkpt><trkpt lat="43.0014717" lon="11.72766"><ele>313.33333333333337</ele><time>2026-03-29T13:36:28.079Z</time></trkpt><trkpt lat="43.0015667" lon="11.7277717"><ele>313.6666666666667</ele><time>2026-03-29T13:36:30.08Z</time></trkpt><trkpt lat="43.0016367" lon="11.72784"><ele>314.0</ele><time>2026-03-29T13:36:31.08Z</time></trkpt><trkpt lat="43.0017133" lon="11.727905"><ele>314.0</ele><time>2026-03-29T13:36:32.079Z</time></trkpt><trkpt lat="43.0017783" lon="11.72796"><ele>314.0</ele><time>2026-03-29T13:36:33.08Z</time></trkpt><trkpt lat="43.001865" lon="11.7280533"><ele>314.0</ele><time>2026-03-29T13:36:35.08Z</time></trkpt><trkpt lat="43.0019233" lon="11.7281417"><ele>314.0</ele><time>2026-03-29T13:36:37.08Z</time></trkpt><trkpt lat="43.002005" lon="11.7282133"><ele>314.0</ele><time>2026-03-29T13:36:39.079Z</time></trkpt><trkpt lat="43.0020517" lon="11.7282733"><ele>314.0</ele><time>2026-03-29T13:36:40.08Z</time></trkpt><trkpt lat="43.0021033" lon="11.7283517"><ele>314.0</ele><time>2026-03-29T13:36:41.079Z</time></trkpt><trkpt lat="43.0021667" lon="11.728435"><ele>314.0</ele><time>2026-03-29T13:36:42.079Z</time></trkpt><trkpt lat="43.0022433" lon="11.7285117"><ele>314.0</ele><time>2026-03-29T13:36:43.08Z</time></trkpt><trkpt lat="43.0023167" lon="11.728585"><ele>314.0</ele><time>2026-03-29T13:36:44.08Z</time></trkpt><trkpt lat="43.0023933" lon="11.72865"><ele>314.0</ele><time>2026-03-29T13:36:45.08Z</time></trkpt><trkpt lat="43.0024683" lon="11.7287117"><ele>313.59999999999997</ele><time>2026-03-29T13:36:46.08Z</time></trkpt><trkpt lat="43.0025667" lon="11.72876"><ele>313.2</ele><time>2026-03-29T13:36:47.08Z</time></trkpt><trkpt lat="43.0026617" lon="11.7288117"><ele>312.79999999999995</ele><time>2026-03-29T13:36:48.08Z</time></trkpt><trkpt lat="43.0027533" lon="11.7288567"><ele>312.4</ele><time>2026-03-29T13:36:49.08Z</time></trkpt><trkpt lat="43.002835" lon="11.7288967"><ele>312.0</ele><time>2026-03-29T13:36:50.08Z</time></trkpt><trkpt lat="43.002915" lon="11.7289133"><ele>312.0</ele><time>2026-03-29T13:36:51.08Z</time></trkpt><trkpt lat="43.0029933" lon="11.7289283"><ele>312.0</ele><time>2026-03-29T13:36:52.079Z</time></trkpt><trkpt lat="43.00308" lon="11.728945"><ele>312.0</ele><time>2026-03-29T13:36:53.08Z</time></trkpt><trkpt lat="43.0031683" lon="11.7289783"><ele>312.0</ele><time>2026-03-29T13:36:54.08Z</time></trkpt><trkpt lat="43.0032517" lon="11.7290333"><ele>312.0</ele><time>2026-03-29T13:36:55.08Z</time></trkpt><trkpt lat="43.0033233" lon="11.7290867"><ele>312.0</ele><time>2026-03-29T13:36:56.08Z</time></trkpt><trkpt lat="43.0033717" lon="11.7291483"><ele>311.6</ele><time>2026-03-29T13:36:57.08Z</time></trkpt><trkpt lat="43.00345" lon="11.7292183"><ele>311.2</ele><time>2026-03-29T13:36:59.08Z</time></trkpt><trkpt lat="43.0035467" lon="11.7292533"><ele>310.8</ele><time>2026-03-29T13:37:01.08Z</time></trkpt><trkpt lat="43.003615" lon="11.72927"><ele>310.4</ele><time>2026-03-29T13:37:02.08Z</time></trkpt><trkpt lat="43.00374" lon="11.7293167"><ele>310.0</ele><time>2026-03-29T13:37:04.08Z</time></trkpt><trkpt lat="43.003815" lon="11.72934"><ele>310.0</ele><time>2026-03-29T13:37:05.08Z</time></trkpt><trkpt lat="43.0038867" lon="11.729375"><ele>310.0</ele><time>2026-03-29T13:37:06.08Z</time></trkpt><trkpt lat="43.0039633" lon="11.7294117"><ele>310.0</ele><time>2026-03-29T13:37:07.079Z</time></trkpt><trkpt lat="43.0040517" lon="11.7294383"><ele>310.0</ele><time>2026-03-29T13:37:08.08Z</time></trkpt><trkpt lat="43.0041317" lon="11.7294717"><ele>310.0</ele><time>2026-03-29T13:37:09.08Z</time></trkpt><trkpt lat="43.00422" lon="11.7295"><ele>310.0</ele><time>2026-03-29T13:37:10.08Z</time></trkpt><trkpt lat="43.0043033" lon="11.7295183"><ele>309.8333333333333</ele><time>2026-03-29T13:37:11.079Z</time></trkpt><trkpt lat="43.004375" lon="11.7295317"><ele>309.66666666666663</ele><time>2026-03-29T13:37:12.079Z</time></trkpt><trkpt lat="43.0044517" lon="11.7295517"><ele>309.5</ele><time>2026-03-29T13:37:14.08Z</time></trkpt><trkpt lat="43.0044933" lon="11.7296333"><ele>309.3333333333333</ele><time>2026-03-29T13:37:17.08Z</time></trkpt><trkpt lat="43.004545" lon="11.7296983"><ele>309.1666666666667</ele><time>2026-03-29T13:37:20.08Z</time></trkpt><trkpt lat="43.0046267" lon="11.72967"><ele>309.0</ele><time>2026-03-29T13:37:22.079Z</time></trkpt><trkpt lat="43.0047367" lon="11.7297233"><ele>309.0</ele><time>2026-03-29T13:37:24.08Z</time></trkpt><trkpt lat="43.0048133" lon="11.729775"><ele>309.0</ele><time>2026-03-29T13:37:25.079Z</time></trkpt><trkpt lat="43.0049167" lon="11.7298317"><ele>309.0</ele><time>2026-03-29T13:37:26.08Z</time></trkpt><trkpt lat="43.005025" lon="11.7298817"><ele>309.0</ele><time>2026-03-29T13:37:27.08Z</time></trkpt><trkpt lat="43.0051233" lon="11.72992"><ele>309.0</ele><time>2026-03-29T13:37:28.08Z</time></trkpt><trkpt lat="43.0052167" lon="11.72996"><ele>309.0</ele><time>2026-03-29T13:37:29.08Z</time></trkpt><trkpt lat="43.0053017" lon="11.72999"><ele>309.0</ele><time>2026-03-29T13:37:30.079Z</time></trkpt><trkpt lat="43.0053767" lon="11.7300217"><ele>309.0</ele><time>2026-03-29T13:37:31.079Z</time></trkpt><trkpt lat="43.00545" lon="11.7300467"><ele>309.0</ele><time>2026-03-29T13:37:32.08Z</time></trkpt><trkpt lat="43.005525" lon="11.7300583"><ele>309.0</ele><time>2026-03-29T13:37:33.08Z</time></trkpt><trkpt lat="43.0056" lon="11.73009"><ele>309.0</ele><time>2026-03-29T13:37:34.079Z</time></trkpt><trkpt lat="43.0056617" lon="11.7301117"><ele>309.0</ele><time>2026-03-29T13:37:35.079Z</time></trkpt><trkpt lat="43.0057233" lon="11.7301933"><ele>309.0</ele><time>2026-03-29T13:37:37.08Z</time></trkpt><trkpt lat="43.005745" lon="11.730285"><ele>309.0</ele><time>2026-03-29T13:37:39.08Z</time></trkpt><trkpt lat="43.00572" lon="11.7303767"><ele>309.0</ele><time>2026-03-29T13:37:41.08Z</time></trkpt><trkpt lat="43.0056517" lon="11.730485"><ele>309.0</ele><time>2026-03-29T13:37:43.08Z</time></trkpt><trkpt lat="43.0055833" lon="11.73057"><ele>309.0</ele><time>2026-03-29T13:37:45.079Z</time></trkpt><trkpt lat="43.005545" lon="11.7306567"><ele>309.1666666666667</ele><time>2026-03-29T13:37:47.08Z</time></trkpt><trkpt lat="43.0054767" lon="11.7307367"><ele>309.3333333333333</ele><time>2026-03-29T13:37:49.08Z</time></trkpt><trkpt lat="43.0054317" lon="11.7308083"><ele>309.5</ele><time>2026-03-29T13:37:50.08Z</time></trkpt><trkpt lat="43.005385" lon="11.730895"><ele>309.66666666666663</ele><time>2026-03-29T13:37:51.08Z</time></trkpt><trkpt lat="43.0053433" lon="11.7310017"><ele>309.8333333333333</ele><time>2026-03-29T13:37:52.08Z</time></trkpt><trkpt lat="43.0052983" lon="11.7311267"><ele>310.0</ele><time>2026-03-29T13:37:53.08Z</time></trkpt><trkpt lat="43.0052417" lon="11.731275"><ele>310.0</ele><time>2026-03-29T13:37:54.08Z</time></trkpt><trkpt lat="43.0051717" lon="11.7314317"><ele>310.0</ele><time>2026-03-29T13:37:55.079Z</time></trkpt><trkpt lat="43.0050883" lon="11.7316017"><ele>310.0</ele><time>2026-03-29T13:37:56.08Z</time></trkpt><trkpt lat="43.0049917" lon="11.7317583"><ele>310.0</ele><time>2026-03-29T13:37:57.079Z</time></trkpt><trkpt lat="43.00492" lon="11.7318917"><ele>311.4</ele><time>2026-03-29T13:37:58.08Z</time></trkpt><trkpt lat="43.00487" lon="11.7320183"><ele>312.8</ele><time>2026-03-29T13:37:59.08Z</time></trkpt><trkpt lat="43.004845" lon="11.7321567"><ele>314.2</ele><time>2026-03-29T13:38:00.08Z</time></trkpt><trkpt lat="43.0048333" lon="11.732315"><ele>315.6</ele><time>2026-03-29T13:38:01.079Z</time></trkpt><trkpt lat="43.0048333" lon="11.7324583"><ele>317.0</ele><time>2026-03-29T13:38:02.08Z</time></trkpt><trkpt lat="43.0048433" lon="11.7325983"><ele>318.0</ele><time>2026-03-29T13:38:03.08Z</time></trkpt><trkpt lat="43.0048583" lon="11.732735"><ele>319.0</ele><time>2026-03-29T13:38:04.079Z</time></trkpt><trkpt lat="43.0048783" lon="11.732875"><ele>320.0</ele><time>2026-03-29T13:38:05.08Z</time></trkpt><trkpt lat="43.0048983" lon="11.7330117"><ele>321.0</ele><time>2026-03-29T13:38:06.08Z</time></trkpt><trkpt lat="43.0049167" lon="11.73316"><ele>322.0</ele><time>2026-03-29T13:38:07.08Z</time></trkpt><trkpt lat="43.0049367" lon="11.7333067"><ele>322.0</ele><time>2026-03-29T13:38:08.08Z</time></trkpt><trkpt lat="43.004955" lon="11.7334567"><ele>322.0</ele><time>2026-03-29T13:38:09.079Z</time></trkpt><trkpt lat="43.0049617" lon="11.7336033"><ele>322.0</ele><time>2026-03-29T13:38:10.08Z</time></trkpt><trkpt lat="43.0049817" lon="11.733755"><ele>322.0</ele><time>2026-03-29T13:38:11.08Z</time></trkpt><trkpt lat="43.0050033" lon="11.7339067"><ele>322.0</ele><time>2026-03-29T13:38:12.08Z</time></trkpt><trkpt lat="43.00502" lon="11.73406"><ele>321.20000000000005</ele><time>2026-03-29T13:38:13.08Z</time></trkpt><trkpt lat="43.0050333" lon="11.7342167"><ele>320.40000000000003</ele><time>2026-03-29T13:38:14.08Z</time></trkpt><trkpt lat="43.0050517" lon="11.7343717"><ele>319.6</ele><time>2026-03-29T13:38:15.079Z</time></trkpt><trkpt lat="43.00507" lon="11.734505"><ele>318.8</ele><time>2026-03-29T13:38:16.08Z</time></trkpt><trkpt lat="43.0050783" lon="11.7346117"><ele>318.0</ele><time>2026-03-29T13:38:17.08Z</time></trkpt><trkpt lat="43.005085" lon="11.7347583"><ele>317.8333333333333</ele><time>2026-03-29T13:38:19.08Z</time></trkpt><trkpt lat="43.0051117" lon="11.7348767"><ele>317.6666666666667</ele><time>2026-03-29T13:39:14.08Z</time></trkpt><trkpt lat="43.0051483" lon="11.7350067"><ele>317.5</ele><time>2026-03-29T13:39:16.079Z</time></trkpt><trkpt lat="43.0051683" lon="11.7350933"><ele>317.33333333333337</ele><time>2026-03-29T13:39:17.08Z</time></trkpt><trkpt lat="43.0051967" lon="11.7351983"><ele>317.1666666666667</ele><time>2026-03-29T13:39:18.08Z</time></trkpt><trkpt lat="43.0052133" lon="11.73531"><ele>317.0</ele><time>2026-03-29T13:39:19.08Z</time></trkpt><trkpt lat="43.0052283" lon="11.7354117"><ele>316.83333333333337</ele><time>2026-03-29T13:39:20.08Z</time></trkpt><trkpt lat="43.0052383" lon="11.73551"><ele>316.6666666666667</ele><time>2026-03-29T13:39:21.08Z</time></trkpt><trkpt lat="43.0052467" lon="11.7356017"><ele>316.5</ele><time>2026-03-29T13:39:22.079Z</time></trkpt><trkpt lat="43.0052433" lon="11.7357833"><ele>316.3333333333333</ele><time>2026-03-29T13:39:24.08Z</time></trkpt><trkpt lat="43.0052383" lon="11.735885"><ele>316.16666666666663</ele><time>2026-03-29T13:39:25.08Z</time></trkpt><trkpt lat="43.0052583" lon="11.735995"><ele>316.0</ele><time>2026-03-29T13:39:26.079Z</time></trkpt><trkpt lat="43.005285" lon="11.736105"><ele>316.0</ele><time>2026-03-29T13:39:27.08Z</time></trkpt><trkpt lat="43.0053083" lon="11.7362133"><ele>316.0</ele><time>2026-03-29T13:39:28.079Z</time></trkpt><trkpt lat="43.0053333" lon="11.7363217"><ele>316.0</ele><time>2026-03-29T13:39:29.079Z</time></trkpt><trkpt lat="43.0053617" lon="11.7364383"><ele>316.0</ele><time>2026-03-29T13:39:30.079Z</time></trkpt><trkpt lat="43.0053883" lon="11.7365483"><ele>316.0</ele><time>2026-03-29T13:39:31.08Z</time></trkpt><trkpt lat="43.0054117" lon="11.7366567"><ele>316.0</ele><time>2026-03-29T13:39:32.079Z</time></trkpt><trkpt lat="43.0054367" lon="11.7367667"><ele>316.0</ele><time>2026-03-29T13:39:33.079Z</time></trkpt><trkpt lat="43.005455" lon="11.736875"><ele>316.0</ele><time>2026-03-29T13:39:34.079Z</time></trkpt><trkpt lat="43.0054633" lon="11.7369817"><ele>316.0</ele><time>2026-03-29T13:39:35.079Z</time></trkpt><trkpt lat="43.0054517" lon="11.7370933"><ele>316.0</ele><time>2026-03-29T13:39:36.079Z</time></trkpt><trkpt lat="43.00543" lon="11.7372083"><ele>316.0</ele><time>2026-03-29T13:39:37.08Z</time></trkpt><trkpt lat="43.0054017" lon="11.7373183"><ele>316.0</ele><time>2026-03-29T13:39:38.08Z</time></trkpt><trkpt lat="43.0053567" lon="11.7374183"><ele>315.5</ele><time>2026-03-29T13:39:39.079Z</time></trkpt><trkpt lat="43.0053167" lon="11.737515"><ele>315.0</ele><time>2026-03-29T13:39:40.08Z</time></trkpt><trkpt lat="43.0052717" lon="11.737585"><ele>314.5</ele><time>2026-03-29T13:39:41.08Z</time></trkpt><trkpt lat="43.0051967" lon="11.7376783"><ele>314.0</ele><time>2026-03-29T13:39:43.08Z</time></trkpt><trkpt lat="43.005135" lon="11.7377433"><ele>313.5</ele><time>2026-03-29T13:39:45.08Z</time></trkpt><trkpt lat="43.005075" lon="11.7378183"><ele>313.0</ele><time>2026-03-29T13:39:47.079Z</time></trkpt><trkpt lat="43.00498" lon="11.7378817"><ele>311.0</ele><time>2026-03-29T13:39:49.08Z</time></trkpt><trkpt lat="43.0048767" lon="11.7379333"><ele>309.0</ele><time>2026-03-29T13:39:51.08Z</time></trkpt><trkpt lat="43.0047617" lon="11.7379883"><ele>307.0</ele><time>2026-03-29T13:39:53.079Z</time></trkpt><trkpt lat="43.004645" lon="11.738025"><ele>305.0</ele><time>2026-03-29T13:39:55.08Z</time></trkpt><trkpt lat="43.0045483" lon="11.7380717"><ele>305.0</ele><time>2026-03-29T13:39:57.08Z</time></trkpt><trkpt lat="43.0044583" lon="11.7381117"><ele>305.0</ele><time>2026-03-29T13:39:59.079Z</time></trkpt><trkpt lat="43.004395" lon="11.7381717"><ele>305.0</ele><time>2026-03-29T13:40:03.08Z</time></trkpt><trkpt lat="43.0043367" lon="11.738235"><ele>305.0</ele><time>2026-03-29T13:40:06.08Z</time></trkpt><trkpt lat="43.0042917" lon="11.73832"><ele>305.0</ele><time>2026-03-29T13:41:11.08Z</time></trkpt><trkpt lat="43.0042333" lon="11.738385"><ele>305.0</ele><time>2026-03-29T13:41:37.08Z</time></trkpt><trkpt lat="43.0042" lon="11.73846"><ele>305.0</ele><time>2026-03-29T13:41:46.08Z</time></trkpt><trkpt lat="43.0041417" lon="11.7384933"><ele>305.0</ele><time>2026-03-29T13:42:13.08Z</time></trkpt><trkpt lat="43.004095" lon="11.7385583"><ele>305.0</ele><time>2026-03-29T13:42:16.08Z</time></trkpt><trkpt lat="43.004025" lon="11.7386367"><ele>305.0</ele><time>2026-03-29T13:42:19.08Z</time></trkpt><trkpt lat="43.00397" lon="11.7386917"><ele>305.0</ele><time>2026-03-29T13:42:21.08Z</time></trkpt><trkpt lat="43.0039067" lon="11.73875"><ele>305.0</ele><time>2026-03-29T13:42:23.08Z</time></trkpt><trkpt lat="43.0038317" lon="11.738825"><ele>305.0</ele><time>2026-03-29T13:42:26.08Z</time></trkpt><trkpt lat="43.0037683" lon="11.7388833"><ele>305.0</ele><time>2026-03-29T13:42:28.08Z</time></trkpt><trkpt lat="43.00371" lon="11.7389167"><ele>305.0</ele><time>2026-03-29T13:42:30.08Z</time></trkpt><trkpt lat="43.0036417" lon="11.7389517"><ele>305.0</ele><time>2026-03-29T13:42:32.08Z</time></trkpt><trkpt lat="43.0035783" lon="11.73901"><ele>305.0</ele><time>2026-03-29T13:42:34.079Z</time></trkpt><trkpt lat="43.0035233" lon="11.7390767"><ele>305.0</ele><time>2026-03-29T13:42:36.079Z</time></trkpt><trkpt lat="43.00347" lon="11.7391633"><ele>305.0</ele><time>2026-03-29T13:42:38.079Z</time></trkpt><trkpt lat="43.0034083" lon="11.7392417"><ele>305.0</ele><time>2026-03-29T13:42:40.079Z</time></trkpt><trkpt lat="43.0033483" lon="11.7393117"><ele>305.0</ele><time>2026-03-29T13:42:42.08Z</time></trkpt><trkpt lat="43.0033034" lon="11.739414"><ele>305.0</ele><time>2026-03-29T13:42:45.08Z</time></trkpt><trkpt lat="43.003267" lon="11.739489"><ele>305.0</ele><time>2026-03-29T13:42:47.08Z</time></trkpt><trkpt lat="43.0032413" lon="11.739574"><ele>305.0</ele><time>2026-03-29T13:42:49.08Z</time></trkpt><trkpt lat="43.0031962" lon="11.7396479"><ele>305.0</ele><time>2026-03-29T13:42:51.079Z</time></trkpt><trkpt lat="43.0031143" lon="11.7396939"><ele>304.5</ele><time>2026-03-29T13:42:54.152Z</time></trkpt><trkpt lat="43.0030329" lon="11.739766"><ele>304.0</ele><time>2026-03-29T13:51:53.079Z</time></trkpt><trkpt lat="43.0029772" lon="11.7398066"><ele>303.5</ele><time>2026-03-29T13:51:55.08Z</time></trkpt><trkpt lat="43.0030412" lon="11.7398068"><ele>303.0</ele><time>2026-03-29T13:52:01.091Z</time></trkpt><trkpt lat="43.0030744" lon="11.7397031"><ele>302.5</ele><time>2026-03-29T13:52:04.08Z</time></trkpt><trkpt lat="43.0031693" lon="11.7396961"><ele>302.0</ele><time>2026-03-29T13:52:06.08Z</time></trkpt><trkpt lat="43.0032249" lon="11.7396423"><ele>302.00000000000006</ele><time>2026-03-29T13:52:08.08Z</time></trkpt><trkpt lat="43.0032521" lon="11.7395588"><ele>302.0</ele><time>2026-03-29T13:52:10.133Z</time></trkpt><trkpt lat="43.0032975" lon="11.7394733"><ele>302.0</ele><time>2026-03-29T13:52:12.08Z</time></trkpt><trkpt lat="43.0033452" lon="11.7393848"><ele>302.0</ele><time>2026-03-29T13:52:14.152Z</time></trkpt><trkpt lat="43.003385" lon="11.7392967"><ele>302.0</ele><time>2026-03-29T13:52:16.08Z</time></trkpt><trkpt lat="43.0034217" lon="11.7392183"><ele>302.00000000000006</ele><time>2026-03-29T13:52:18.08Z</time></trkpt><trkpt lat="43.0034633" lon="11.7391333"><ele>302.0</ele><time>2026-03-29T13:52:20.079Z</time></trkpt><trkpt lat="43.0035017" lon="11.7390517"><ele>302.5</ele><time>2026-03-29T13:52:22.08Z</time></trkpt><trkpt lat="43.0035367" lon="11.73898"><ele>303.0</ele><time>2026-03-29T13:52:24.08Z</time></trkpt><trkpt lat="43.0035817" lon="11.73891"><ele>303.5</ele><time>2026-03-29T13:52:26.079Z</time></trkpt><trkpt lat="43.0036533" lon="11.7388767"><ele>304.0</ele><time>2026-03-29T13:52:28.08Z</time></trkpt><trkpt lat="43.0037233" lon="11.738835"><ele>304.5</ele><time>2026-03-29T13:52:30.08Z</time></trkpt><trkpt lat="43.0037917" lon="11.738775"><ele>305.0</ele><time>2026-03-29T13:52:32.08Z</time></trkpt><trkpt lat="43.0038733" lon="11.7387233"><ele>305.0</ele><time>2026-03-29T13:52:34.08Z</time></trkpt><trkpt lat="43.00396" lon="11.7386117"><ele>305.0</ele><time>2026-03-29T13:52:37.08Z</time></trkpt><trkpt lat="43.0040267" lon="11.7385583"><ele>305.0</ele><time>2026-03-29T13:52:39.08Z</time></trkpt><trkpt lat="43.0040883" lon="11.7384883"><ele>305.0</ele><time>2026-03-29T13:52:41.08Z</time></trkpt><trkpt lat="43.0041483" lon="11.73842"><ele>305.0</ele><time>2026-03-29T13:52:43.08Z</time></trkpt><trkpt lat="43.0042233" lon="11.7383467"><ele>305.0</ele><time>2026-03-29T13:52:45.08Z</time></trkpt><trkpt lat="43.004285" lon="11.7382617"><ele>305.0</ele><time>2026-03-29T13:52:47.079Z</time></trkpt><trkpt lat="43.0043517" lon="11.7381867"><ele>305.0</ele><time>2026-03-29T13:52:49.08Z</time></trkpt><trkpt lat="43.0044167" lon="11.7381217"><ele>305.0</ele><time>2026-03-29T13:52:51.08Z</time></trkpt><trkpt lat="43.004495" lon="11.7380767"><ele>305.0</ele><time>2026-03-29T13:52:53.079Z</time></trkpt><trkpt lat="43.004555" lon="11.7380333"><ele>305.0</ele><time>2026-03-29T13:52:55.08Z</time></trkpt><trkpt lat="43.0046283" lon="11.7379983"><ele>305.0</ele><time>2026-03-29T13:52:57.079Z</time></trkpt><trkpt lat="43.0047217" lon="11.73796"><ele>305.0</ele><time>2026-03-29T13:52:59.079Z</time></trkpt><trkpt lat="43.0048183" lon="11.737905"><ele>305.0</ele><time>2026-03-29T13:53:01.08Z</time></trkpt><trkpt lat="43.0049317" lon="11.737865"><ele>305.0</ele><time>2026-03-29T13:53:03.08Z</time></trkpt><trkpt lat="43.0050383" lon="11.7377883"><ele>305.0</ele><time>2026-03-29T13:53:05.08Z</time></trkpt><trkpt lat="43.0051367" lon="11.7377"><ele>306.6</ele><time>2026-03-29T13:53:07.08Z</time></trkpt><trkpt lat="43.005245" lon="11.7375967"><ele>308.2</ele><time>2026-03-29T13:53:09.08Z</time></trkpt><trkpt lat="43.005305" lon="11.7375167"><ele>309.8</ele><time>2026-03-29T13:53:10.08Z</time></trkpt><trkpt lat="43.0053483" lon="11.737445"><ele>311.4</ele><time>2026-03-29T13:53:11.08Z</time></trkpt><trkpt lat="43.0053867" lon="11.7373717"><ele>313.0</ele><time>2026-03-29T13:53:12.08Z</time></trkpt><trkpt lat="43.005435" lon="11.7372217"><ele>313.0</ele><time>2026-03-29T13:53:14.08Z</time></trkpt><trkpt lat="43.005465" lon="11.7371333"><ele>313.0</ele><time>2026-03-29T13:53:15.08Z</time></trkpt><trkpt lat="43.005485" lon="11.73703"><ele>313.0</ele><time>2026-03-29T13:53:16.08Z</time></trkpt><trkpt lat="43.0054917" lon="11.736935"><ele>313.0</ele><time>2026-03-29T13:53:17.08Z</time></trkpt><trkpt lat="43.0054817" lon="11.7368233"><ele>313.0</ele><time>2026-03-29T13:53:18.08Z</time></trkpt><trkpt lat="43.0054583" lon="11.7367167"><ele>313.0</ele><time>2026-03-29T13:53:19.079Z</time></trkpt><trkpt lat="43.0054333" lon="11.7366017"><ele>313.4</ele><time>2026-03-29T13:53:20.08Z</time></trkpt><trkpt lat="43.005405" lon="11.7364817"><ele>313.8</ele><time>2026-03-29T13:53:21.079Z</time></trkpt><trkpt lat="43.0053767" lon="11.736355"><ele>314.2</ele><time>2026-03-29T13:53:22.08Z</time></trkpt><trkpt lat="43.00535" lon="11.7362317"><ele>314.6</ele><time>2026-03-29T13:53:23.08Z</time></trkpt><trkpt lat="43.0053167" lon="11.7361083"><ele>315.0</ele><time>2026-03-29T13:53:24.08Z</time></trkpt><trkpt lat="43.0052833" lon="11.735985"><ele>315.0</ele><time>2026-03-29T13:53:25.08Z</time></trkpt><trkpt lat="43.0052583" lon="11.7358567"><ele>315.0</ele><time>2026-03-29T13:53:26.079Z</time></trkpt><trkpt lat="43.005235" lon="11.7357267"><ele>315.0</ele><time>2026-03-29T13:53:27.08Z</time></trkpt><trkpt lat="43.0052133" lon="11.7355867"><ele>315.0</ele><time>2026-03-29T13:53:28.08Z</time></trkpt><trkpt lat="43.0051983" lon="11.7354483"><ele>315.0</ele><time>2026-03-29T13:53:29.08Z</time></trkpt><trkpt lat="43.0051867" lon="11.7353117"><ele>315.3333333333333</ele><time>2026-03-29T13:53:30.08Z</time></trkpt><trkpt lat="43.0051767" lon="11.7351817"><ele>315.6666666666667</ele><time>2026-03-29T13:53:31.08Z</time></trkpt><trkpt lat="43.0051733" lon="11.7350817"><ele>316.0</ele><time>2026-03-29T13:53:32.08Z</time></trkpt><trkpt lat="43.00517" lon="11.7349533"><ele>316.33333333333337</ele><time>2026-03-29T13:53:34.08Z</time></trkpt><trkpt lat="43.0051617" lon="11.7348583"><ele>316.6666666666667</ele><time>2026-03-29T13:53:37.08Z</time></trkpt><trkpt lat="43.0050917" lon="11.7347833"><ele>317.0</ele><time>2026-03-29T13:54:34.08Z</time></trkpt><trkpt lat="43.0049867" lon="11.7347783"><ele>318.2</ele><time>2026-03-29T13:54:36.08Z</time></trkpt><trkpt lat="43.0048567" lon="11.73474"><ele>319.4</ele><time>2026-03-29T13:54:38.08Z</time></trkpt><trkpt lat="43.0047867" lon="11.7347117"><ele>320.59999999999997</ele><time>2026-03-29T13:54:39.08Z</time></trkpt><trkpt lat="43.0047033" lon="11.7346833"><ele>321.79999999999995</ele><time>2026-03-29T13:54:40.08Z</time></trkpt><trkpt lat="43.0046117" lon="11.7346433"><ele>323.0</ele><time>2026-03-29T13:54:41.08Z</time></trkpt><trkpt lat="43.0045217" lon="11.7346117"><ele>323.0</ele><time>2026-03-29T13:54:42.08Z</time></trkpt><trkpt lat="43.0044367" lon="11.734585"><ele>323.0</ele><time>2026-03-29T13:54:43.08Z</time></trkpt><trkpt lat="43.0043483" lon="11.7345533"><ele>323.0</ele><time>2026-03-29T13:54:44.08Z</time></trkpt><trkpt lat="43.0042633" lon="11.73452"><ele>323.0</ele><time>2026-03-29T13:54:45.079Z</time></trkpt><trkpt lat="43.0041717" lon="11.7344817"><ele>323.0</ele><time>2026-03-29T13:54:46.08Z</time></trkpt><trkpt lat="43.0040883" lon="11.7344617"><ele>323.0</ele><time>2026-03-29T13:54:47.08Z</time></trkpt><trkpt lat="43.0040067" lon="11.73443"><ele>323.83333333333337</ele><time>2026-03-29T13:54:48.08Z</time></trkpt><trkpt lat="43.0039383" lon="11.7343967"><ele>324.6666666666667</ele><time>2026-03-29T13:54:49.08Z</time></trkpt><trkpt lat="43.0038767" lon="11.7343767"><ele>325.5</ele><time>2026-03-29T13:54:50.08Z</time></trkpt><trkpt lat="43.0037983" lon="11.7343567"><ele>326.3333333333333</ele><time>2026-03-29T13:54:52.08Z</time></trkpt><trkpt lat="43.0037267" lon="11.7343767"><ele>327.16666666666663</ele><time>2026-03-29T13:54:54.08Z</time></trkpt><trkpt lat="43.0036417" lon="11.734435"><ele>328.0</ele><time>2026-03-29T13:54:56.08Z</time></trkpt><trkpt lat="43.0035267" lon="11.73452"><ele>328.0</ele><time>2026-03-29T13:54:58.079Z</time></trkpt><trkpt lat="43.00346" lon="11.7345683"><ele>328.0</ele><time>2026-03-29T13:54:59.079Z</time></trkpt><trkpt lat="43.0033933" lon="11.73463"><ele>328.0</ele><time>2026-03-29T13:55:00.079Z</time></trkpt><trkpt lat="43.0033067" lon="11.7346867"><ele>328.0</ele><time>2026-03-29T13:55:01.079Z</time></trkpt><trkpt lat="43.0032267" lon="11.73473"><ele>328.0</ele><time>2026-03-29T13:55:02.08Z</time></trkpt><trkpt lat="43.0031383" lon="11.734785"><ele>328.0</ele><time>2026-03-29T13:55:03.08Z</time></trkpt><trkpt lat="43.003035" lon="11.7348533"><ele>329.2</ele><time>2026-03-29T13:55:04.079Z</time></trkpt><trkpt lat="43.0029267" lon="11.7349267"><ele>330.4</ele><time>2026-03-29T13:55:05.08Z</time></trkpt><trkpt lat="43.0028267" lon="11.7349883"><ele>331.59999999999997</ele><time>2026-03-29T13:55:06.08Z</time></trkpt><trkpt lat="43.002725" lon="11.7350517"><ele>332.79999999999995</ele><time>2026-03-29T13:55:07.08Z</time></trkpt><trkpt lat="43.0026267" lon="11.7351033"><ele>334.0</ele><time>2026-03-29T13:55:08.08Z</time></trkpt><trkpt lat="43.0025283" lon="11.735145"><ele>335.25</ele><time>2026-03-29T13:55:09.08Z</time></trkpt><trkpt lat="43.0024217" lon="11.7351817"><ele>336.5</ele><time>2026-03-29T13:55:10.08Z</time></trkpt><trkpt lat="43.0023083" lon="11.7351833"><ele>337.75</ele><time>2026-03-29T13:55:11.08Z</time></trkpt><trkpt lat="43.0021883" lon="11.7351617"><ele>339.0</ele><time>2026-03-29T13:55:12.08Z</time></trkpt><trkpt lat="43.00207" lon="11.7351367"><ele>339.0</ele><time>2026-03-29T13:55:13.08Z</time></trkpt><trkpt lat="43.0019517" lon="11.7351167"><ele>339.0</ele><time>2026-03-29T13:55:14.08Z</time></trkpt><trkpt lat="43.0018367" lon="11.73509"><ele>339.0</ele><time>2026-03-29T13:55:15.079Z</time></trkpt><trkpt lat="43.0017217" lon="11.7350717"><ele>339.0</ele><time>2026-03-29T13:55:16.08Z</time></trkpt><trkpt lat="43.001615" lon="11.7350583"><ele>339.5</ele><time>2026-03-29T13:55:17.08Z</time></trkpt><trkpt lat="43.0015" lon="11.7350433"><ele>340.0</ele><time>2026-03-29T13:55:18.08Z</time></trkpt><trkpt lat="43.00138" lon="11.7350333"><ele>340.5</ele><time>2026-03-29T13:55:19.08Z</time></trkpt><trkpt lat="43.001255" lon="11.7350167"><ele>341.0</ele><time>2026-03-29T13:55:20.079Z</time></trkpt><trkpt lat="43.0011317" lon="11.734995"><ele>341.0</ele><time>2026-03-29T13:55:21.08Z</time></trkpt><trkpt lat="43.0010117" lon="11.7349817"><ele>341.0</ele><time>2026-03-29T13:55:22.08Z</time></trkpt><trkpt lat="43.0008867" lon="11.7349667"><ele>341.0</ele><time>2026-03-29T13:55:23.08Z</time></trkpt><trkpt lat="43.0007633" lon="11.7349467"><ele>341.0</ele><time>2026-03-29T13:55:24.079Z</time></trkpt><trkpt lat="43.0006433" lon="11.7349217"><ele>341.83333333333337</ele><time>2026-03-29T13:55:25.08Z</time></trkpt><trkpt lat="43.0005233" lon="11.7349"><ele>342.6666666666667</ele><time>2026-03-29T13:55:26.08Z</time></trkpt><trkpt lat="43.0004283" lon="11.7348867"><ele>343.5</ele><time>2026-03-29T13:55:27.079Z</time></trkpt><trkpt lat="43.00034" lon="11.7348667"><ele>344.3333333333333</ele><time>2026-03-29T13:55:28.08Z</time></trkpt><trkpt lat="43.00027" lon="11.7348233"><ele>345.16666666666663</ele><time>2026-03-29T13:55:29.079Z</time></trkpt><trkpt lat="43.0002217" lon="11.7347633"><ele>346.0</ele><time>2026-03-29T13:55:30.08Z</time></trkpt><trkpt lat="43.0001933" lon="11.7346217"><ele>346.0</ele><time>2026-03-29T13:55:32.08Z</time></trkpt><trkpt lat="43.000205" lon="11.734535"><ele>346.0</ele><time>2026-03-29T13:55:33.079Z</time></trkpt><trkpt lat="43.0002217" lon="11.7344517"><ele>346.0</ele><time>2026-03-29T13:55:34.08Z</time></trkpt><trkpt lat="43.0002483" lon="11.7343033"><ele>346.0</ele><time>2026-03-29T13:55:36.08Z</time></trkpt><trkpt lat="43.000265" lon="11.7341517"><ele>346.0</ele><time>2026-03-29T13:55:38.08Z</time></trkpt><trkpt lat="43.0002683" lon="11.734065"><ele>346.0</ele><time>2026-03-29T13:55:39.079Z</time></trkpt><trkpt lat="43.00023" lon="11.7338983"><ele>346.8333333333333</ele><time>2026-03-29T13:55:41.079Z</time></trkpt><trkpt lat="43.0001883" lon="11.7338233"><ele>347.66666666666663</ele><time>2026-03-29T13:55:42.08Z</time></trkpt><trkpt lat="43.0001233" lon="11.7337667"><ele>348.5</ele><time>2026-03-29T13:55:43.08Z</time></trkpt><trkpt lat="43.0000433" lon="11.733735"><ele>349.3333333333333</ele><time>2026-03-29T13:55:44.08Z</time></trkpt><trkpt lat="42.9999483" lon="11.7337167"><ele>350.1666666666667</ele><time>2026-03-29T13:55:45.08Z</time></trkpt><trkpt lat="42.9998433" lon="11.7337033"><ele>351.0</ele><time>2026-03-29T13:55:46.08Z</time></trkpt><trkpt lat="42.9997467" lon="11.7336833"><ele>351.0</ele><time>2026-03-29T13:55:47.08Z</time></trkpt><trkpt lat="42.9996533" lon="11.7336633"><ele>351.0</ele><time>2026-03-29T13:55:48.08Z</time></trkpt><trkpt lat="42.99957" lon="11.733635"><ele>351.0</ele><time>2026-03-29T13:55:49.08Z</time></trkpt><trkpt lat="42.999495" lon="11.7336117"><ele>351.0</ele><time>2026-03-29T13:55:50.08Z</time></trkpt><trkpt lat="42.9994167" lon="11.7335733"><ele>351.0</ele><time>2026-03-29T13:55:51.08Z</time></trkpt><trkpt lat="42.9993367" lon="11.7335467"><ele>351.0</ele><time>2026-03-29T13:55:52.08Z</time></trkpt><trkpt lat="42.9992467" lon="11.7335317"><ele>353.0</ele><time>2026-03-29T13:55:53.079Z</time></trkpt><trkpt lat="42.9991583" lon="11.7335217"><ele>355.0</ele><time>2026-03-29T13:55:54.08Z</time></trkpt><trkpt lat="42.9990667" lon="11.73351"><ele>357.0</ele><time>2026-03-29T13:55:55.08Z</time></trkpt><trkpt lat="42.9989667" lon="11.733495"><ele>359.0</ele><time>2026-03-29T13:55:56.08Z</time></trkpt><trkpt lat="42.9988667" lon="11.73348"><ele>361.0</ele><time>2026-03-29T13:55:57.08Z</time></trkpt><trkpt lat="42.9987617" lon="11.73346"><ele>361.0</ele><time>2026-03-29T13:55:58.08Z</time></trkpt><trkpt lat="42.9986467" lon="11.7334333"><ele>361.0</ele><time>2026-03-29T13:55:59.08Z</time></trkpt><trkpt lat="42.9985333" lon="11.7334217"><ele>361.0</ele><time>2026-03-29T13:56:00.079Z</time></trkpt><trkpt lat="42.9984133" lon="11.7333967"><ele>361.0</ele><time>2026-03-29T13:56:01.079Z</time></trkpt><trkpt lat="42.998295" lon="11.733385"><ele>363.0</ele><time>2026-03-29T13:56:02.08Z</time></trkpt><trkpt lat="42.9981817" lon="11.7333683"><ele>365.0</ele><time>2026-03-29T13:56:03.08Z</time></trkpt><trkpt lat="42.9980883" lon="11.7333583"><ele>367.0</ele><time>2026-03-29T13:56:04.08Z</time></trkpt><trkpt lat="42.998" lon="11.7333517"><ele>369.0</ele><time>2026-03-29T13:56:05.08Z</time></trkpt><trkpt lat="42.997915" lon="11.7333383"><ele>371.0</ele><time>2026-03-29T13:56:06.079Z</time></trkpt><trkpt lat="42.997835" lon="11.7333217"><ele>371.0</ele><time>2026-03-29T13:56:07.08Z</time></trkpt><trkpt lat="42.9977567" lon="11.733305"><ele>371.0</ele><time>2026-03-29T13:56:08.08Z</time></trkpt><trkpt lat="42.9976733" lon="11.7332817"><ele>371.0</ele><time>2026-03-29T13:56:09.08Z</time></trkpt><trkpt lat="42.9975967" lon="11.7332583"><ele>371.0</ele><time>2026-03-29T13:56:10.079Z</time></trkpt><trkpt lat="42.9975267" lon="11.7332333"><ele>371.0</ele><time>2026-03-29T13:56:11.08Z</time></trkpt><trkpt lat="42.99744" lon="11.7331883"><ele>371.0</ele><time>2026-03-29T13:56:13.08Z</time></trkpt><trkpt lat="42.9972983" lon="11.7330933"><ele>372.6</ele><time>2026-03-29T13:56:43.08Z</time></trkpt><trkpt lat="42.9972183" lon="11.7330217"><ele>374.20000000000005</ele><time>2026-03-29T13:56:45.08Z</time></trkpt><trkpt lat="42.9971283" lon="11.7329617"><ele>375.79999999999995</ele><time>2026-03-29T13:56:47.08Z</time></trkpt><trkpt lat="42.9970367" lon="11.732915"><ele>377.4</ele><time>2026-03-29T13:56:49.08Z</time></trkpt><trkpt lat="42.9969433" lon="11.7328667"><ele>379.0</ele><time>2026-03-29T13:56:51.079Z</time></trkpt><trkpt lat="42.9968533" lon="11.73282"><ele>379.0</ele><time>2026-03-29T13:56:53.08Z</time></trkpt><trkpt lat="42.9967917" lon="11.732795"><ele>379.0</ele><time>2026-03-29T13:56:55.08Z</time></trkpt><trkpt lat="42.996705" lon="11.7327433"><ele>379.0</ele><time>2026-03-29T13:57:13.08Z</time></trkpt><trkpt lat="42.996615" lon="11.7327067"><ele>379.0</ele><time>2026-03-29T13:57:15.08Z</time></trkpt><trkpt lat="42.9965217" lon="11.7326617"><ele>379.0</ele><time>2026-03-29T13:57:17.08Z</time></trkpt><trkpt lat="42.9964383" lon="11.7326017"><ele>379.0</ele><time>2026-03-29T13:57:19.079Z</time></trkpt><trkpt lat="42.9963667" lon="11.732535"><ele>379.8333333333333</ele><time>2026-03-29T13:57:21.08Z</time></trkpt><trkpt lat="42.996285" lon="11.732465"><ele>380.66666666666663</ele><time>2026-03-29T13:57:23.08Z</time></trkpt><trkpt lat="42.9962033" lon="11.7323767"><ele>381.5</ele><time>2026-03-29T13:57:25.08Z</time></trkpt><trkpt lat="42.9961333" lon="11.7323133"><ele>382.3333333333333</ele><time>2026-03-29T13:57:27.079Z</time></trkpt><trkpt lat="42.9960867" lon="11.7322517"><ele>383.1666666666667</ele><time>2026-03-29T13:57:29.08Z</time></trkpt><trkpt lat="42.99602" lon="11.73217"><ele>384.0</ele><time>2026-03-29T13:57:32.079Z</time></trkpt><trkpt lat="42.995935" lon="11.7320917"><ele>384.0</ele><time>2026-03-29T13:57:35.08Z</time></trkpt><trkpt lat="42.9958617" lon="11.7320117"><ele>384.0</ele><time>2026-03-29T13:57:37.08Z</time></trkpt><trkpt lat="42.9957867" lon="11.7319433"><ele>384.0</ele><time>2026-03-29T13:57:39.08Z</time></trkpt><trkpt lat="42.9957133" lon="11.7318917"><ele>384.0</ele><time>2026-03-29T13:57:41.08Z</time></trkpt><trkpt lat="42.9956217" lon="11.7318383"><ele>384.0</ele><time>2026-03-29T13:57:44.079Z</time></trkpt><trkpt lat="42.9955467" lon="11.7317967"><ele>384.0</ele><time>2026-03-29T13:57:46.08Z</time></trkpt><trkpt lat="42.9954683" lon="11.7317517"><ele>385.6</ele><time>2026-03-29T13:57:48.08Z</time></trkpt><trkpt lat="42.99538" lon="11.7317067"><ele>387.2</ele><time>2026-03-29T13:57:50.079Z</time></trkpt><trkpt lat="42.9952917" lon="11.7316633"><ele>388.8</ele><time>2026-03-29T13:57:52.08Z</time></trkpt><trkpt lat="42.9951933" lon="11.7316283"><ele>390.40000000000003</ele><time>2026-03-29T13:57:54.08Z</time></trkpt><trkpt lat="42.9951117" lon="11.7315867"><ele>392.0</ele><time>2026-03-29T13:57:56.079Z</time></trkpt><trkpt lat="42.9950333" lon="11.7315383"><ele>392.42857142857144</ele><time>2026-03-29T13:57:58.079Z</time></trkpt><trkpt lat="42.9949667" lon="11.7314717"><ele>392.8571428571429</ele><time>2026-03-29T13:58:00.08Z</time></trkpt><trkpt lat="42.9948833" lon="11.7314133"><ele>393.2857142857143</ele><time>2026-03-29T13:58:03.079Z</time></trkpt><trkpt lat="42.99482" lon="11.7314033"><ele>393.7142857142857</ele><time>2026-03-29T13:58:07.08Z</time></trkpt><trkpt lat="42.9947467" lon="11.731405"><ele>394.14285714285717</ele><time>2026-03-29T13:58:11.08Z</time></trkpt><trkpt lat="42.9946833" lon="11.73139"><ele>394.57142857142856</ele><time>2026-03-29T13:58:13.08Z</time></trkpt><trkpt lat="42.9946167" lon="11.7313667"><ele>395.0</ele><time>2026-03-29T13:58:15.08Z</time></trkpt><trkpt lat="42.99455" lon="11.7313317"><ele>394.99999999999994</ele><time>2026-03-29T13:58:17.08Z</time></trkpt><trkpt lat="42.994445" lon="11.731285"><ele>395.0</ele><time>2026-03-29T13:58:21.079Z</time></trkpt><trkpt lat="42.99436" lon="11.7312467"><ele>395.0</ele><time>2026-03-29T13:58:23.08Z</time></trkpt><trkpt lat="42.9942933" lon="11.73119"><ele>395.0</ele><time>2026-03-29T13:58:25.08Z</time></trkpt><trkpt lat="42.9942333" lon="11.7311317"><ele>394.99999999999994</ele><time>2026-03-29T13:58:27.08Z</time></trkpt><trkpt lat="42.9941667" lon="11.7310917"><ele>395.0</ele><time>2026-03-29T13:58:29.08Z</time></trkpt><trkpt lat="42.9940883" lon="11.73105"><ele>395.8333333333333</ele><time>2026-03-29T13:58:31.079Z</time></trkpt><trkpt lat="42.9940067" lon="11.730985"><ele>396.66666666666663</ele><time>2026-03-29T13:58:33.079Z</time></trkpt><trkpt lat="42.9939283" lon="11.7309167"><ele>397.5</ele><time>2026-03-29T13:58:35.079Z</time></trkpt><trkpt lat="42.9938617" lon="11.7308533"><ele>398.33333333333337</ele><time>2026-03-29T13:58:37.08Z</time></trkpt><trkpt lat="42.993795" lon="11.73081"><ele>399.1666666666667</ele><time>2026-03-29T13:58:39.08Z</time></trkpt><trkpt lat="42.9937367" lon="11.730745"><ele>400.0</ele><time>2026-03-29T13:58:42.08Z</time></trkpt><trkpt lat="42.9936667" lon="11.7307"><ele>400.00000000000006</ele><time>2026-03-29T13:59:21.08Z</time></trkpt><trkpt lat="42.993575" lon="11.7306517"><ele>400.0</ele><time>2026-03-29T13:59:23.08Z</time></trkpt><trkpt lat="42.9935" lon="11.7306183"><ele>400.0</ele><time>2026-03-29T13:59:25.08Z</time></trkpt><trkpt lat="42.993415" lon="11.7305883"><ele>400.0</ele><time>2026-03-29T13:59:27.08Z</time></trkpt><trkpt lat="42.99334" lon="11.730605"><ele>400.00000000000006</ele><time>2026-03-29T13:59:29.08Z</time></trkpt><trkpt lat="42.993345" lon="11.7306933"><ele>400.0</ele><time>2026-03-29T13:59:31.08Z</time></trkpt><trkpt lat="42.9934167" lon="11.7307483"><ele>400.00000000000006</ele><time>2026-03-29T13:59:33.08Z</time></trkpt><trkpt lat="42.9934817" lon="11.730745"><ele>400.0</ele><time>2026-03-29T13:59:35.08Z</time></trkpt><trkpt lat="42.9935667" lon="11.73074"><ele>400.0</ele><time>2026-03-29T13:59:38.08Z</time></trkpt><trkpt lat="42.9936417" lon="11.730725"><ele>400.0</ele><time>2026-03-29T13:59:40.079Z</time></trkpt><trkpt lat="42.993715" lon="11.7307333"><ele>400.00000000000006</ele><time>2026-03-29T13:59:42.08Z</time></trkpt><trkpt lat="42.99378" lon="11.7308083"><ele>400.0</ele><time>2026-03-29T13:59:44.079Z</time></trkpt><trkpt lat="42.9938683" lon="11.7309033"><ele>400.0</ele><time>2026-03-29T13:59:46.08Z</time></trkpt><trkpt lat="42.993965" lon="11.730975"><ele>400.0</ele><time>2026-03-29T13:59:48.08Z</time></trkpt><trkpt lat="42.9940517" lon="11.7310433"><ele>400.0</ele><time>2026-03-29T13:59:50.079Z</time></trkpt><trkpt lat="42.9941417" lon="11.7310867"><ele>400.0</ele><time>2026-03-29T13:59:52.08Z</time></trkpt><trkpt lat="42.9942367" lon="11.731155"><ele>400.0</ele><time>2026-03-29T13:59:54.08Z</time></trkpt><trkpt lat="42.9943267" lon="11.7312233"><ele>399.0</ele><time>2026-03-29T13:59:56.08Z</time></trkpt><trkpt lat="42.994425" lon="11.731275"><ele>398.0</ele><time>2026-03-29T13:59:58.08Z</time></trkpt><trkpt lat="42.994525" lon="11.7313067"><ele>397.0</ele><time>2026-03-29T14:00:00.079Z</time></trkpt><trkpt lat="42.99463" lon="11.73135"><ele>396.0</ele><time>2026-03-29T14:00:02.08Z</time></trkpt><trkpt lat="42.994745" lon="11.7314"><ele>395.0</ele><time>2026-03-29T14:00:04.079Z</time></trkpt><trkpt lat="42.9948467" lon="11.7314233"><ele>395.0</ele><time>2026-03-29T14:00:06.08Z</time></trkpt><trkpt lat="42.9949267" lon="11.7314617"><ele>395.0</ele><time>2026-03-29T14:00:08.08Z</time></trkpt><trkpt lat="42.9950017" lon="11.7314933"><ele>395.0</ele><time>2026-03-29T14:00:10.08Z</time></trkpt><trkpt lat="42.995115" lon="11.7315417"><ele>395.0</ele><time>2026-03-29T14:00:12.079Z</time></trkpt><trkpt lat="42.9951783" lon="11.7315733"><ele>395.0</ele><time>2026-03-29T14:00:13.08Z</time></trkpt><trkpt lat="42.9952767" lon="11.7316367"><ele>394.25</ele><time>2026-03-29T14:00:15.08Z</time></trkpt><trkpt lat="42.9953883" lon="11.7317033"><ele>393.5</ele><time>2026-03-29T14:00:17.08Z</time></trkpt><trkpt lat="42.9955" lon="11.73176"><ele>392.75</ele><time>2026-03-29T14:00:19.08Z</time></trkpt><trkpt lat="42.9956033" lon="11.7318033"><ele>392.0</ele><time>2026-03-29T14:00:21.079Z</time></trkpt><trkpt lat="42.9956967" lon="11.7318583"><ele>390.40000000000003</ele><time>2026-03-29T14:00:23.08Z</time></trkpt><trkpt lat="42.9957883" lon="11.7319483"><ele>388.8</ele><time>2026-03-29T14:00:25.08Z</time></trkpt><trkpt lat="42.99589" lon="11.7320567"><ele>387.2</ele><time>2026-03-29T14:00:27.079Z</time></trkpt><trkpt lat="42.9959533" lon="11.7321167"><ele>385.6</ele><time>2026-03-29T14:00:28.08Z</time></trkpt><trkpt lat="42.99602" lon="11.7321817"><ele>384.0</ele><time>2026-03-29T14:00:29.08Z</time></trkpt><trkpt lat="42.99608" lon="11.732245"><ele>384.0</ele><time>2026-03-29T14:00:30.079Z</time></trkpt><trkpt lat="42.9961467" lon="11.732315"><ele>384.0</ele><time>2026-03-29T14:00:31.08Z</time></trkpt><trkpt lat="42.9962133" lon="11.7323733"><ele>384.0</ele><time>2026-03-29T14:00:32.08Z</time></trkpt><trkpt lat="42.9962817" lon="11.7324417"><ele>384.0</ele><time>2026-03-29T14:00:33.08Z</time></trkpt><trkpt lat="42.9963517" lon="11.7325183"><ele>384.0</ele><time>2026-03-29T14:00:34.08Z</time></trkpt><trkpt lat="42.9964267" lon="11.732585"><ele>384.0</ele><time>2026-03-29T14:00:35.08Z</time></trkpt><trkpt lat="42.996505" lon="11.7326433"><ele>384.0</ele><time>2026-03-29T14:00:36.08Z</time></trkpt><trkpt lat="42.9965867" lon="11.7327017"><ele>384.0</ele><time>2026-03-29T14:00:37.08Z</time></trkpt><trkpt lat="42.996675" lon="11.732745"><ele>384.0</ele><time>2026-03-29T14:00:38.08Z</time></trkpt><trkpt lat="42.99676" lon="11.7327833"><ele>384.0</ele><time>2026-03-29T14:00:39.08Z</time></trkpt><trkpt lat="42.9968417" lon="11.7328267"><ele>384.0</ele><time>2026-03-29T14:00:40.079Z</time></trkpt><trkpt lat="42.996925" lon="11.732865"><ele>383.1666666666667</ele><time>2026-03-29T14:00:41.079Z</time></trkpt><trkpt lat="42.9970067" lon="11.732905"><ele>382.3333333333333</ele><time>2026-03-29T14:00:42.08Z</time></trkpt><trkpt lat="42.99708" lon="11.7329483"><ele>381.5</ele><time>2026-03-29T14:00:43.08Z</time></trkpt><trkpt lat="42.997155" lon="11.7329983"><ele>380.66666666666663</ele><time>2026-03-29T14:00:44.08Z</time></trkpt><trkpt lat="42.9972283" lon="11.7330417"><ele>379.8333333333333</ele><time>2026-03-29T14:00:45.08Z</time></trkpt><trkpt lat="42.9973" lon="11.7330867"><ele>379.0</ele><time>2026-03-29T14:00:46.08Z</time></trkpt><trkpt lat="42.99737" lon="11.73314"><ele>379.0</ele><time>2026-03-29T14:00:47.08Z</time></trkpt><trkpt lat="42.99744" lon="11.7331833"><ele>379.0</ele><time>2026-03-29T14:00:48.08Z</time></trkpt><trkpt lat="42.9975117" lon="11.7332283"><ele>379.0</ele><time>2026-03-29T14:00:49.079Z</time></trkpt><trkpt lat="42.99759" lon="11.7332667"><ele>379.0</ele><time>2026-03-29T14:00:50.08Z</time></trkpt><trkpt lat="42.99768" lon="11.733295"><ele>379.0</ele><time>2026-03-29T14:00:51.08Z</time></trkpt><trkpt lat="42.997775" lon="11.7333217"><ele>379.0</ele><time>2026-03-29T14:00:52.08Z</time></trkpt><trkpt lat="42.997875" lon="11.733345"><ele>377.4</ele><time>2026-03-29T14:00:53.08Z</time></trkpt><trkpt lat="42.9979767" lon="11.7333633"><ele>375.79999999999995</ele><time>2026-03-29T14:00:54.08Z</time></trkpt><trkpt lat="42.9980783" lon="11.7333733"><ele>374.20000000000005</ele><time>2026-03-29T14:00:55.08Z</time></trkpt><trkpt lat="42.99818" lon="11.733385"><ele>372.6</ele><time>2026-03-29T14:00:56.08Z</time></trkpt><trkpt lat="42.9982733" lon="11.733395"><ele>371.0</ele><time>2026-03-29T14:00:57.08Z</time></trkpt><trkpt lat="42.9983617" lon="11.7334033"><ele>369.33333333333337</ele><time>2026-03-29T14:00:58.08Z</time></trkpt><trkpt lat="42.9984433" lon="11.733415"><ele>367.6666666666667</ele><time>2026-03-29T14:00:59.08Z</time></trkpt><trkpt lat="42.9985217" lon="11.7334333"><ele>366.0</ele><time>2026-03-29T14:01:00.08Z</time></trkpt><trkpt lat="42.9985983" lon="11.733445"><ele>364.3333333333333</ele><time>2026-03-29T14:01:01.08Z</time></trkpt><trkpt lat="42.9986767" lon="11.7334617"><ele>362.66666666666663</ele><time>2026-03-29T14:01:02.08Z</time></trkpt><trkpt lat="42.9987517" lon="11.733485"><ele>361.0</ele><time>2026-03-29T14:01:03.08Z</time></trkpt><trkpt lat="42.99883" lon="11.733495"><ele>361.0</ele><time>2026-03-29T14:01:04.08Z</time></trkpt><trkpt lat="42.9989133" lon="11.7335033"><ele>361.0</ele><time>2026-03-29T14:01:05.08Z</time></trkpt><trkpt lat="42.9989967" lon="11.7335133"><ele>361.0</ele><time>2026-03-29T14:01:06.08Z</time></trkpt><trkpt lat="42.999075" lon="11.7335283"><ele>361.0</ele><time>2026-03-29T14:01:07.08Z</time></trkpt><trkpt lat="42.99916" lon="11.73354"><ele>361.0</ele><time>2026-03-29T14:01:08.08Z</time></trkpt><trkpt lat="42.9992367" lon="11.7335433"><ele>361.0</ele><time>2026-03-29T14:01:09.079Z</time></trkpt><trkpt lat="42.9993083" lon="11.7335533"><ele>359.5714285714286</ele><time>2026-03-29T14:01:10.08Z</time></trkpt><trkpt lat="42.9993733" lon="11.7335683"><ele>358.1428571428571</ele><time>2026-03-29T14:01:11.08Z</time></trkpt><trkpt lat="42.999445" lon="11.7335933"><ele>356.7142857142857</ele><time>2026-03-29T14:01:12.08Z</time></trkpt><trkpt lat="42.99951" lon="11.7336233"><ele>355.28571428571433</ele><time>2026-03-29T14:01:13.08Z</time></trkpt><trkpt lat="42.999585" lon="11.73365"><ele>353.8571428571429</ele><time>2026-03-29T14:01:14.079Z</time></trkpt><trkpt lat="42.9996583" lon="11.733685"><ele>352.42857142857144</ele><time>2026-03-29T14:01:15.08Z</time></trkpt><trkpt lat="42.9997267" lon="11.7336983"><ele>351.0</ele><time>2026-03-29T14:01:16.08Z</time></trkpt><trkpt lat="42.999795" lon="11.733715"><ele>351.0</ele><time>2026-03-29T14:01:17.08Z</time></trkpt><trkpt lat="42.9998633" lon="11.7337283"><ele>351.0</ele><time>2026-03-29T14:01:18.08Z</time></trkpt><trkpt lat="42.9999283" lon="11.73374"><ele>351.0</ele><time>2026-03-29T14:01:19.079Z</time></trkpt><trkpt lat="43.0000533" lon="11.7337733"><ele>351.0</ele><time>2026-03-29T14:01:21.079Z</time></trkpt><trkpt lat="43.000155" lon="11.7338233"><ele>351.0</ele><time>2026-03-29T14:01:23.08Z</time></trkpt><trkpt lat="43.000225" lon="11.7339517"><ele>351.0</ele><time>2026-03-29T14:01:25.08Z</time></trkpt><trkpt lat="43.0002417" lon="11.734115"><ele>351.0</ele><time>2026-03-29T14:01:27.079Z</time></trkpt><trkpt lat="43.0002383" lon="11.7342117"><ele>351.0</ele><time>2026-03-29T14:01:28.079Z</time></trkpt><trkpt lat="43.0002283" lon="11.734305"><ele>351.0</ele><time>2026-03-29T14:01:29.079Z</time></trkpt><trkpt lat="43.0002167" lon="11.7343917"><ele>351.0</ele><time>2026-03-29T14:01:30.08Z</time></trkpt><trkpt lat="43.0002017" lon="11.7344783"><ele>351.0</ele><time>2026-03-29T14:01:31.08Z</time></trkpt><trkpt lat="43.0001983" lon="11.73464"><ele>350.1666666666667</ele><time>2026-03-29T14:01:33.079Z</time></trkpt><trkpt lat="43.00023" lon="11.7347767"><ele>349.3333333333333</ele><time>2026-03-29T14:01:35.08Z</time></trkpt><trkpt lat="43.0002783" lon="11.7348333"><ele>348.5</ele><time>2026-03-29T14:01:36.079Z</time></trkpt><trkpt lat="43.00034" lon="11.7348783"><ele>347.66666666666663</ele><time>2026-03-29T14:01:37.08Z</time></trkpt><trkpt lat="43.0004133" lon="11.73491"><ele>346.8333333333333</ele><time>2026-03-29T14:01:38.08Z</time></trkpt><trkpt lat="43.00049" lon="11.7349283"><ele>346.0</ele><time>2026-03-29T14:01:39.079Z</time></trkpt><trkpt lat="43.0005683" lon="11.73494"><ele>346.0</ele><time>2026-03-29T14:01:40.08Z</time></trkpt><trkpt lat="43.0006467" lon="11.734955"><ele>346.0</ele><time>2026-03-29T14:01:41.08Z</time></trkpt><trkpt lat="43.00073" lon="11.73496"><ele>346.0</ele><time>2026-03-29T14:01:42.079Z</time></trkpt><trkpt lat="43.000815" lon="11.7349733"><ele>346.0</ele><time>2026-03-29T14:01:43.08Z</time></trkpt><trkpt lat="43.0009" lon="11.7349867"><ele>346.0</ele><time>2026-03-29T14:01:44.079Z</time></trkpt><trkpt lat="43.000985" lon="11.7349933"><ele>346.0</ele><time>2026-03-29T14:01:45.08Z</time></trkpt><trkpt lat="43.0010683" lon="11.7350067"><ele>345.0</ele><time>2026-03-29T14:01:46.08Z</time></trkpt><trkpt lat="43.00115" lon="11.7350183"><ele>344.0</ele><time>2026-03-29T14:01:47.08Z</time></trkpt><trkpt lat="43.00124" lon="11.7350283"><ele>343.0</ele><time>2026-03-29T14:01:48.08Z</time></trkpt><trkpt lat="43.0013333" lon="11.7350367"><ele>342.0</ele><time>2026-03-29T14:01:49.08Z</time></trkpt><trkpt lat="43.00143" lon="11.7350517"><ele>341.0</ele><time>2026-03-29T14:01:50.08Z</time></trkpt><trkpt lat="43.0015267" lon="11.7350683"><ele>341.0</ele><time>2026-03-29T14:01:51.08Z</time></trkpt><trkpt lat="43.00162" lon="11.7350867"><ele>341.0</ele><time>2026-03-29T14:01:52.079Z</time></trkpt><trkpt lat="43.00172" lon="11.7350983"><ele>341.0</ele><time>2026-03-29T14:01:53.08Z</time></trkpt><trkpt lat="43.0018167" lon="11.7351117"><ele>341.0</ele><time>2026-03-29T14:01:54.08Z</time></trkpt><trkpt lat="43.001905" lon="11.7351333"><ele>341.0</ele><time>2026-03-29T14:01:55.08Z</time></trkpt><trkpt lat="43.00199" lon="11.73515"><ele>340.6666666666667</ele><time>2026-03-29T14:01:56.08Z</time></trkpt><trkpt lat="43.0020733" lon="11.735165"><ele>340.33333333333337</ele><time>2026-03-29T14:01:57.079Z</time></trkpt><trkpt lat="43.0021567" lon="11.735185"><ele>340.0</ele><time>2026-03-29T14:01:58.08Z</time></trkpt><trkpt lat="43.00224" lon="11.7352"><ele>339.6666666666667</ele><time>2026-03-29T14:01:59.08Z</time></trkpt><trkpt lat="43.0023167" lon="11.7352117"><ele>339.3333333333333</ele><time>2026-03-29T14:02:00.08Z</time></trkpt><trkpt lat="43.0024" lon="11.7352133"><ele>339.0</ele><time>2026-03-29T14:02:01.079Z</time></trkpt><trkpt lat="43.0024867" lon="11.7351933"><ele>338.0</ele><time>2026-03-29T14:02:02.079Z</time></trkpt><trkpt lat="43.0025733" lon="11.7351583"><ele>337.0</ele><time>2026-03-29T14:02:03.079Z</time></trkpt><trkpt lat="43.002665" lon="11.7351183"><ele>336.0</ele><time>2026-03-29T14:02:04.079Z</time></trkpt><trkpt lat="43.00276" lon="11.7350733"><ele>335.0</ele><time>2026-03-29T14:02:05.079Z</time></trkpt><trkpt lat="43.0028533" lon="11.7350167"><ele>334.0</ele><time>2026-03-29T14:02:06.08Z</time></trkpt><trkpt lat="43.0029433" lon="11.7349517"><ele>334.0</ele><time>2026-03-29T14:02:07.08Z</time></trkpt><trkpt lat="43.0030333" lon="11.7348867"><ele>334.0</ele><time>2026-03-29T14:02:08.08Z</time></trkpt><trkpt lat="43.0031167" lon="11.73483"><ele>334.0</ele><time>2026-03-29T14:02:09.08Z</time></trkpt><trkpt lat="43.0031983" lon="11.7347767"><ele>334.0</ele><time>2026-03-29T14:02:10.08Z</time></trkpt><trkpt lat="43.0032783" lon="11.7347333"><ele>334.0</ele><time>2026-03-29T14:02:11.08Z</time></trkpt><trkpt lat="43.0033583" lon="11.7346783"><ele>334.3333333333333</ele><time>2026-03-29T14:02:12.079Z</time></trkpt><trkpt lat="43.0034367" lon="11.73462"><ele>334.66666666666663</ele><time>2026-03-29T14:02:13.079Z</time></trkpt><trkpt lat="43.003515" lon="11.734555"><ele>335.0</ele><time>2026-03-29T14:02:14.079Z</time></trkpt><trkpt lat="43.0035867" lon="11.7345017"><ele>335.3333333333333</ele><time>2026-03-29T14:02:15.08Z</time></trkpt><trkpt lat="43.00365" lon="11.7344517"><ele>335.6666666666667</ele><time>2026-03-29T14:02:16.08Z</time></trkpt><trkpt lat="43.00375" lon="11.7343783"><ele>336.0</ele><time>2026-03-29T14:02:18.08Z</time></trkpt><trkpt lat="43.0038733" lon="11.734375"><ele>334.6666666666667</ele><time>2026-03-29T14:02:20.08Z</time></trkpt><trkpt lat="43.0039517" lon="11.734405"><ele>333.3333333333333</ele><time>2026-03-29T14:02:21.08Z</time></trkpt><trkpt lat="43.0040333" lon="11.7344333"><ele>332.0</ele><time>2026-03-29T14:02:22.079Z</time></trkpt><trkpt lat="43.0041233" lon="11.7344717"><ele>330.66666666666663</ele><time>2026-03-29T14:02:23.079Z</time></trkpt><trkpt lat="43.0042117" lon="11.7345067"><ele>329.3333333333333</ele><time>2026-03-29T14:02:24.08Z</time></trkpt><trkpt lat="43.004295" lon="11.7345417"><ele>328.0</ele><time>2026-03-29T14:02:25.079Z</time></trkpt><trkpt lat="43.00438" lon="11.7345783"><ele>327.16666666666663</ele><time>2026-03-29T14:02:26.079Z</time></trkpt><trkpt lat="43.00446" lon="11.7346133"><ele>326.3333333333333</ele><time>2026-03-29T14:02:27.079Z</time></trkpt><trkpt lat="43.004545" lon="11.73465"><ele>325.5</ele><time>2026-03-29T14:02:28.08Z</time></trkpt><trkpt lat="43.0046317" lon="11.7346817"><ele>324.6666666666667</ele><time>2026-03-29T14:02:29.079Z</time></trkpt><trkpt lat="43.0047167" lon="11.73471"><ele>323.83333333333337</ele><time>2026-03-29T14:02:30.08Z</time></trkpt><trkpt lat="43.004795" lon="11.7347383"><ele>323.0</ele><time>2026-03-29T14:02:31.08Z</time></trkpt><trkpt lat="43.0048733" lon="11.7347633"><ele>323.0</ele><time>2026-03-29T14:02:32.08Z</time></trkpt><trkpt lat="43.0049417" lon="11.73479"><ele>323.0</ele><time>2026-03-29T14:02:33.079Z</time></trkpt><trkpt lat="43.005055" lon="11.734825"><ele>323.0</ele><time>2026-03-29T14:02:35.08Z</time></trkpt><trkpt lat="43.0051767" lon="11.73487"><ele>323.0</ele><time>2026-03-29T14:02:37.08Z</time></trkpt><trkpt lat="43.0052583" lon="11.7349033"><ele>323.0</ele><time>2026-03-29T14:02:38.08Z</time></trkpt><trkpt lat="43.0053517" lon="11.7349417"><ele>321.79999999999995</ele><time>2026-03-29T14:02:39.08Z</time></trkpt><trkpt lat="43.0054433" lon="11.73498"><ele>320.59999999999997</ele><time>2026-03-29T14:02:40.081Z</time></trkpt><trkpt lat="43.005535" lon="11.73502"><ele>319.4</ele><time>2026-03-29T14:02:41.081Z</time></trkpt><trkpt lat="43.0056367" lon="11.735055"><ele>318.2</ele><time>2026-03-29T14:02:42.081Z</time></trkpt><trkpt lat="43.0057533" lon="11.7350967"><ele>317.0</ele><time>2026-03-29T14:02:43.081Z</time></trkpt><trkpt lat="43.005885" lon="11.735145"><ele>316.75</ele><time>2026-03-29T14:02:44.081Z</time></trkpt><trkpt lat="43.0060117" lon="11.735195"><ele>316.5</ele><time>2026-03-29T14:02:45.081Z</time></trkpt><trkpt lat="43.00612" lon="11.7352383"><ele>316.25</ele><time>2026-03-29T14:02:46.08Z</time></trkpt><trkpt lat="43.0062183" lon="11.7352817"><ele>316.0</ele><time>2026-03-29T14:02:47.081Z</time></trkpt><trkpt lat="43.0063217" lon="11.7353233"><ele>316.0</ele><time>2026-03-29T14:02:48.081Z</time></trkpt><trkpt lat="43.0064217" lon="11.7353567"><ele>316.0</ele><time>2026-03-29T14:02:49.081Z</time></trkpt><trkpt lat="43.0065183" lon="11.7353917"><ele>316.0</ele><time>2026-03-29T14:02:50.081Z</time></trkpt><trkpt lat="43.006615" lon="11.7354233"><ele>316.0</ele><time>2026-03-29T14:02:51.081Z</time></trkpt><trkpt lat="43.0067133" lon="11.7354467"><ele>316.0</ele><time>2026-03-29T14:02:52.081Z</time></trkpt><trkpt lat="43.0068133" lon="11.735485"><ele>315.2</ele><time>2026-03-29T14:02:53.081Z</time></trkpt><trkpt lat="43.006905" lon="11.7355133"><ele>314.40000000000003</ele><time>2026-03-29T14:02:54.081Z</time></trkpt><trkpt lat="43.0069767" lon="11.7355417"><ele>313.6</ele><time>2026-03-29T14:02:55.081Z</time></trkpt><trkpt lat="43.0070967" lon="11.7355817"><ele>312.8</ele><time>2026-03-29T14:02:57.08Z</time></trkpt><trkpt lat="43.007185" lon="11.735685"><ele>312.0</ele><time>2026-03-29T14:02:59.081Z</time></trkpt><trkpt lat="43.0072083" lon="11.7357683"><ele>312.0</ele><time>2026-03-29T14:03:00.081Z</time></trkpt><trkpt lat="43.00722" lon="11.73588"><ele>312.0</ele><time>2026-03-29T14:03:01.081Z</time></trkpt><trkpt lat="43.0072283" lon="11.7360083"><ele>312.0</ele><time>2026-03-29T14:03:02.081Z</time></trkpt><trkpt lat="43.0072383" lon="11.7361333"><ele>312.0</ele><time>2026-03-29T14:03:03.081Z</time></trkpt><trkpt lat="43.0072533" lon="11.73625"><ele>312.0</ele><time>2026-03-29T14:03:04.081Z</time></trkpt><trkpt lat="43.0072717" lon="11.7363417"><ele>312.0</ele><time>2026-03-29T14:03:05.081Z</time></trkpt><trkpt lat="43.0073117" lon="11.7364867"><ele>310.8</ele><time>2026-03-29T14:03:07.081Z</time></trkpt><trkpt lat="43.00733" lon="11.7366667"><ele>309.6</ele><time>2026-03-29T14:03:09.081Z</time></trkpt><trkpt lat="43.00733" lon="11.7367917"><ele>308.40000000000003</ele><time>2026-03-29T14:03:10.081Z</time></trkpt><trkpt lat="43.007325" lon="11.7369367"><ele>307.2</ele><time>2026-03-29T14:03:11.081Z</time></trkpt><trkpt lat="43.007325" lon="11.7370867"><ele>306.0</ele><time>2026-03-29T14:03:12.081Z</time></trkpt><trkpt lat="43.0073267" lon="11.7372367"><ele>305.25</ele><time>2026-03-29T14:03:13.081Z</time></trkpt><trkpt lat="43.0073283" lon="11.7374033"><ele>304.5</ele><time>2026-03-29T14:03:14.081Z</time></trkpt><trkpt lat="43.0073233" lon="11.7375767"><ele>303.75</ele><time>2026-03-29T14:03:15.081Z</time></trkpt><trkpt lat="43.00732" lon="11.737755"><ele>303.0</ele><time>2026-03-29T14:03:16.081Z</time></trkpt><trkpt lat="43.0073183" lon="11.7379433"><ele>302.75</ele><time>2026-03-29T14:03:17.081Z</time></trkpt><trkpt lat="43.0073167" lon="11.7381383"><ele>302.5</ele><time>2026-03-29T14:03:18.081Z</time></trkpt><trkpt lat="43.007325" lon="11.7383367"><ele>302.25</ele><time>2026-03-29T14:03:19.081Z</time></trkpt><trkpt lat="43.0073217" lon="11.7385367"><ele>302.0</ele><time>2026-03-29T14:03:20.08Z</time></trkpt><trkpt lat="43.0073117" lon="11.7387467"><ele>301.6666666666667</ele><time>2026-03-29T14:03:21.081Z</time></trkpt><trkpt lat="43.007305" lon="11.73896"><ele>301.3333333333333</ele><time>2026-03-29T14:03:22.081Z</time></trkpt><trkpt lat="43.0073117" lon="11.739165"><ele>301.0</ele><time>2026-03-29T14:03:23.081Z</time></trkpt><trkpt lat="43.0073083" lon="11.7393683"><ele>301.0</ele><time>2026-03-29T14:03:24.081Z</time></trkpt><trkpt lat="43.0073067" lon="11.7395767"><ele>301.0</ele><time>2026-03-29T14:03:25.081Z</time></trkpt><trkpt lat="43.0073067" lon="11.7397833"><ele>301.0</ele><time>2026-03-29T14:03:26.081Z</time></trkpt><trkpt lat="43.007305" lon="11.7399917"><ele>301.0</ele><time>2026-03-29T14:03:27.081Z</time></trkpt><trkpt lat="43.0072967" lon="11.7402033"><ele>301.0</ele><time>2026-03-29T14:03:28.081Z</time></trkpt><trkpt lat="43.007295" lon="11.740415"><ele>301.0</ele><time>2026-03-29T14:03:29.081Z</time></trkpt><trkpt lat="43.0072917" lon="11.7406267"><ele>301.5</ele><time>2026-03-29T14:03:30.081Z</time></trkpt><trkpt lat="43.0072917" lon="11.7408367"><ele>302.0</ele><time>2026-03-29T14:03:31.08Z</time></trkpt><trkpt lat="43.0072933" lon="11.7410283"><ele>302.5</ele><time>2026-03-29T14:03:32.081Z</time></trkpt><trkpt lat="43.0072983" lon="11.74121"><ele>303.0</ele><time>2026-03-29T14:03:33.081Z</time></trkpt><trkpt lat="43.0073" lon="11.741385"><ele>303.0</ele><time>2026-03-29T14:03:34.081Z</time></trkpt><trkpt lat="43.007295" lon="11.741565"><ele>303.0</ele><time>2026-03-29T14:03:35.081Z</time></trkpt><trkpt lat="43.0072917" lon="11.74175"><ele>303.0</ele><time>2026-03-29T14:03:36.081Z</time></trkpt><trkpt lat="43.0072833" lon="11.7419467"><ele>303.0</ele><time>2026-03-29T14:03:37.081Z</time></trkpt><trkpt lat="43.0072633" lon="11.742135"><ele>302.75</ele><time>2026-03-29T14:03:38.081Z</time></trkpt><trkpt lat="43.0072383" lon="11.7423133"><ele>302.5</ele><time>2026-03-29T14:03:39.081Z</time></trkpt><trkpt lat="43.0071933" lon="11.7424883"><ele>302.25</ele><time>2026-03-29T14:03:40.081Z</time></trkpt><trkpt lat="43.0071433" lon="11.7426583"><ele>302.0</ele><time>2026-03-29T14:03:41.081Z</time></trkpt><trkpt lat="43.0070883" lon="11.74283"><ele>302.75</ele><time>2026-03-29T14:03:42.081Z</time></trkpt><trkpt lat="43.0070433" lon="11.7430017"><ele>303.5</ele><time>2026-03-29T14:03:43.081Z</time></trkpt><trkpt lat="43.0069933" lon="11.743175"><ele>304.25</ele><time>2026-03-29T14:03:44.081Z</time></trkpt><trkpt lat="43.00695" lon="11.7433333"><ele>305.0</ele><time>2026-03-29T14:03:45.081Z</time></trkpt><trkpt lat="43.006905" lon="11.7434833"><ele>305.2</ele><time>2026-03-29T14:03:46.081Z</time></trkpt><trkpt lat="43.0068633" lon="11.7436233"><ele>305.4</ele><time>2026-03-29T14:03:47.081Z</time></trkpt><trkpt lat="43.006825" lon="11.7437417"><ele>305.6</ele><time>2026-03-29T14:03:48.081Z</time></trkpt><trkpt lat="43.006785" lon="11.743835"><ele>305.8</ele><time>2026-03-29T14:03:49.081Z</time></trkpt><trkpt lat="43.0066917" lon="11.7439767"><ele>306.0</ele><time>2026-03-29T14:03:51.081Z</time></trkpt><trkpt lat="43.00661" lon="11.74405"><ele>305.5</ele><time>2026-03-29T14:03:52.081Z</time></trkpt><trkpt lat="43.006505" lon="11.7441283"><ele>305.0</ele><time>2026-03-29T14:03:53.081Z</time></trkpt><trkpt lat="43.0063867" lon="11.7442"><ele>304.5</ele><time>2026-03-29T14:03:54.081Z</time></trkpt><trkpt lat="43.0062567" lon="11.744275"><ele>304.0</ele><time>2026-03-29T14:03:55.081Z</time></trkpt><trkpt lat="43.00611" lon="11.7443717"><ele>304.0</ele><time>2026-03-29T14:03:56.081Z</time></trkpt><trkpt lat="43.00593" lon="11.7444883"><ele>304.0</ele><time>2026-03-29T14:03:57.081Z</time></trkpt><trkpt lat="43.0057133" lon="11.7446233"><ele>304.0</ele><time>2026-03-29T14:03:58.081Z</time></trkpt><trkpt lat="43.0054733" lon="11.7447783"><ele>304.0</ele><time>2026-03-29T14:03:59.081Z</time></trkpt><trkpt lat="43.0052183" lon="11.7449233"><ele>304.0</ele><time>2026-03-29T14:04:00.08Z</time></trkpt><trkpt lat="43.0049967" lon="11.74506"><ele>304.0</ele><time>2026-03-29T14:04:01.08Z</time></trkpt><trkpt lat="43.004805" lon="11.7451733"><ele>304.0</ele><time>2026-03-29T14:04:02.081Z</time></trkpt><trkpt lat="43.00463" lon="11.74529"><ele>304.0</ele><time>2026-03-29T14:04:03.08Z</time></trkpt><trkpt lat="43.004455" lon="11.7454017"><ele>305.3333333333333</ele><time>2026-03-29T14:04:04.081Z</time></trkpt><trkpt lat="43.0042833" lon="11.7455133"><ele>306.6666666666667</ele><time>2026-03-29T14:04:05.081Z</time></trkpt><trkpt lat="43.0041183" lon="11.7456267"><ele>308.0</ele><time>2026-03-29T14:04:06.081Z</time></trkpt><trkpt lat="43.003965" lon="11.7457267"><ele>308.6666666666667</ele><time>2026-03-29T14:04:07.081Z</time></trkpt><trkpt lat="43.003805" lon="11.7458367"><ele>309.3333333333333</ele><time>2026-03-29T14:04:08.081Z</time></trkpt><trkpt lat="43.003655" lon="11.7459433"><ele>310.0</ele><time>2026-03-29T14:04:09.081Z</time></trkpt><trkpt lat="43.00351" lon="11.7460417"><ele>310.5</ele><time>2026-03-29T14:04:10.081Z</time></trkpt><trkpt lat="43.00336" lon="11.7461333"><ele>311.0</ele><time>2026-03-29T14:04:11.081Z</time></trkpt><trkpt lat="43.0030517" lon="11.7463217"><ele>310.33333333333337</ele><time>2026-03-29T14:04:13.081Z</time></trkpt><trkpt lat="43.0028933" lon="11.746415"><ele>309.6666666666667</ele><time>2026-03-29T14:04:14.081Z</time></trkpt><trkpt lat="43.0027317" lon="11.7465117"><ele>309.0</ele><time>2026-03-29T14:04:15.081Z</time></trkpt><trkpt lat="43.00257" lon="11.7466133"><ele>308.6666666666667</ele><time>2026-03-29T14:04:16.081Z</time></trkpt><trkpt lat="43.00241" lon="11.7467167"><ele>308.33333333333337</ele><time>2026-03-29T14:04:17.081Z</time></trkpt><trkpt lat="43.0022483" lon="11.74683"><ele>308.0</ele><time>2026-03-29T14:04:18.08Z</time></trkpt><trkpt lat="43.0020883" lon="11.7469267"><ele>309.6666666666667</ele><time>2026-03-29T14:04:19.08Z</time></trkpt><trkpt lat="43.001925" lon="11.7470267"><ele>311.3333333333333</ele><time>2026-03-29T14:04:20.081Z</time></trkpt><trkpt lat="43.0017633" lon="11.7471217"><ele>313.0</ele><time>2026-03-29T14:04:21.081Z</time></trkpt><trkpt lat="43.0016083" lon="11.7472367"><ele>313.0</ele><time>2026-03-29T14:04:22.081Z</time></trkpt><trkpt lat="43.00145" lon="11.7473433"><ele>313.0</ele><time>2026-03-29T14:04:23.081Z</time></trkpt><trkpt lat="43.00129" lon="11.7474417"><ele>313.0</ele><time>2026-03-29T14:04:24.081Z</time></trkpt><trkpt lat="43.001125" lon="11.74755"><ele>313.0</ele><time>2026-03-29T14:04:25.081Z</time></trkpt><trkpt lat="43.0009633" lon="11.7476583"><ele>313.0</ele><time>2026-03-29T14:04:26.08Z</time></trkpt><trkpt lat="43.0008017" lon="11.7477717"><ele>313.0</ele><time>2026-03-29T14:04:27.08Z</time></trkpt><trkpt lat="43.0006417" lon="11.747895"><ele>313.66666666666663</ele><time>2026-03-29T14:04:28.08Z</time></trkpt><trkpt lat="43.0004783" lon="11.7480167"><ele>314.3333333333333</ele><time>2026-03-29T14:04:29.081Z</time></trkpt><trkpt lat="43.00032" lon="11.7481467"><ele>315.0</ele><time>2026-03-29T14:04:30.081Z</time></trkpt><trkpt lat="43.0001583" lon="11.7482733"><ele>315.0</ele><time>2026-03-29T14:04:31.081Z</time></trkpt><trkpt lat="42.9999967" lon="11.7484033"><ele>315.0</ele><time>2026-03-29T14:04:32.081Z</time></trkpt><trkpt lat="42.9998283" lon="11.7485267"><ele>315.0</ele><time>2026-03-29T14:04:33.08Z</time></trkpt><trkpt lat="42.99966" lon="11.7486533"><ele>315.0</ele><time>2026-03-29T14:04:34.081Z</time></trkpt><trkpt lat="42.9994967" lon="11.7487833"><ele>315.0</ele><time>2026-03-29T14:04:35.08Z</time></trkpt><trkpt lat="42.9993317" lon="11.7489067"><ele>315.0</ele><time>2026-03-29T14:04:36.081Z</time></trkpt><trkpt lat="42.99917" lon="11.7490283"><ele>315.0</ele><time>2026-03-29T14:04:37.081Z</time></trkpt><trkpt lat="42.9990117" lon="11.749155"><ele>315.0</ele><time>2026-03-29T14:04:38.081Z</time></trkpt><trkpt lat="42.9988417" lon="11.7492867"><ele>315.0</ele><time>2026-03-29T14:04:39.081Z</time></trkpt><trkpt lat="42.9986733" lon="11.7494167"><ele>315.0</ele><time>2026-03-29T14:04:40.08Z</time></trkpt><trkpt lat="42.9985" lon="11.7495517"><ele>315.0</ele><time>2026-03-29T14:04:41.081Z</time></trkpt><trkpt lat="42.9983417" lon="11.7496833"><ele>315.0</ele><time>2026-03-29T14:04:42.081Z</time></trkpt><trkpt lat="42.9981833" lon="11.7498183"><ele>315.3333333333333</ele><time>2026-03-29T14:04:43.08Z</time></trkpt><trkpt lat="42.9980233" lon="11.7499667"><ele>315.66666666666663</ele><time>2026-03-29T14:04:44.081Z</time></trkpt><trkpt lat="42.997865" lon="11.75011"><ele>316.0</ele><time>2026-03-29T14:04:45.08Z</time></trkpt><trkpt lat="42.9977083" lon="11.7502583"><ele>316.0</ele><time>2026-03-29T14:04:46.081Z</time></trkpt><trkpt lat="42.9975533" lon="11.7504133"><ele>316.0</ele><time>2026-03-29T14:04:47.08Z</time></trkpt><trkpt lat="42.9973967" lon="11.7505667"><ele>316.0</ele><time>2026-03-29T14:04:48.081Z</time></trkpt><trkpt lat="42.9972517" lon="11.7507033"><ele>317.0</ele><time>2026-03-29T14:04:49.081Z</time></trkpt><trkpt lat="42.9971033" lon="11.75084"><ele>318.0</ele><time>2026-03-29T14:04:50.081Z</time></trkpt><trkpt lat="42.9969467" lon="11.750985"><ele>319.0</ele><time>2026-03-29T14:04:51.081Z</time></trkpt><trkpt lat="42.9967967" lon="11.75113"><ele>319.66666666666663</ele><time>2026-03-29T14:04:52.081Z</time></trkpt><trkpt lat="42.99664" lon="11.7512783"><ele>320.3333333333333</ele><time>2026-03-29T14:04:53.081Z</time></trkpt><trkpt lat="42.9964883" lon="11.75142"><ele>321.0</ele><time>2026-03-29T14:04:54.081Z</time></trkpt><trkpt lat="42.9963367" lon="11.751555"><ele>321.0</ele><time>2026-03-29T14:04:55.08Z</time></trkpt><trkpt lat="42.9961833" lon="11.751685"><ele>321.0</ele><time>2026-03-29T14:04:56.08Z</time></trkpt><trkpt lat="42.99604" lon="11.7518217"><ele>321.0</ele><time>2026-03-29T14:04:57.08Z</time></trkpt><trkpt lat="42.9958967" lon="11.7519633"><ele>321.0</ele><time>2026-03-29T14:04:58.081Z</time></trkpt><trkpt lat="42.9957483" lon="11.7520933"><ele>321.0</ele><time>2026-03-29T14:04:59.081Z</time></trkpt><trkpt lat="42.995605" lon="11.7522267"><ele>321.0</ele><time>2026-03-29T14:05:00.081Z</time></trkpt><trkpt lat="42.995455" lon="11.7523533"><ele>321.0</ele><time>2026-03-29T14:05:01.081Z</time></trkpt><trkpt lat="42.9953083" lon="11.75249"><ele>321.0</ele><time>2026-03-29T14:05:02.08Z</time></trkpt><trkpt lat="42.9951567" lon="11.7526033"><ele>321.0</ele><time>2026-03-29T14:05:03.081Z</time></trkpt><trkpt lat="42.995005" lon="11.7527117"><ele>319.6666666666667</ele><time>2026-03-29T14:05:04.08Z</time></trkpt><trkpt lat="42.9948567" lon="11.7528233"><ele>318.33333333333337</ele><time>2026-03-29T14:05:05.081Z</time></trkpt><trkpt lat="42.99471" lon="11.7529333"><ele>317.0</ele><time>2026-03-29T14:05:06.081Z</time></trkpt><trkpt lat="42.99456" lon="11.7530383"><ele>317.0</ele><time>2026-03-29T14:05:07.081Z</time></trkpt><trkpt lat="42.99441" lon="11.7531417"><ele>317.0</ele><time>2026-03-29T14:05:08.081Z</time></trkpt><trkpt lat="42.9942617" lon="11.7532467"><ele>317.0</ele><time>2026-03-29T14:05:09.081Z</time></trkpt><trkpt lat="42.9941167" lon="11.7533417"><ele>317.25</ele><time>2026-03-29T14:05:10.081Z</time></trkpt><trkpt lat="42.9939817" lon="11.7534283"><ele>317.5</ele><time>2026-03-29T14:05:11.08Z</time></trkpt><trkpt lat="42.993855" lon="11.7534733"><ele>317.75</ele><time>2026-03-29T14:05:12.08Z</time></trkpt><trkpt lat="42.993725" lon="11.753505"><ele>318.0</ele><time>2026-03-29T14:05:13.081Z</time></trkpt><trkpt lat="42.9935783" lon="11.75349"><ele>318.0</ele><time>2026-03-29T14:05:14.081Z</time></trkpt><trkpt lat="42.9934183" lon="11.7534483"><ele>318.0</ele><time>2026-03-29T14:05:15.081Z</time></trkpt><trkpt lat="42.9932483" lon="11.753405"><ele>318.0</ele><time>2026-03-29T14:05:16.081Z</time></trkpt><trkpt lat="42.99308" lon="11.753365"><ele>318.6666666666667</ele><time>2026-03-29T14:05:17.081Z</time></trkpt><trkpt lat="42.992915" lon="11.753325"><ele>319.33333333333337</ele><time>2026-03-29T14:05:18.081Z</time></trkpt><trkpt lat="42.9927417" lon="11.7532867"><ele>320.0</ele><time>2026-03-29T14:05:19.08Z</time></trkpt><trkpt lat="42.9925683" lon="11.75325"><ele>319.33333333333337</ele><time>2026-03-29T14:05:20.08Z</time></trkpt><trkpt lat="42.9923933" lon="11.75321"><ele>318.6666666666667</ele><time>2026-03-29T14:05:21.08Z</time></trkpt><trkpt lat="42.99222" lon="11.7531683"><ele>318.0</ele><time>2026-03-29T14:05:22.081Z</time></trkpt><trkpt lat="42.99204" lon="11.7531317"><ele>318.0</ele><time>2026-03-29T14:05:23.081Z</time></trkpt><trkpt lat="42.991865" lon="11.7530917"><ele>318.0</ele><time>2026-03-29T14:05:24.081Z</time></trkpt><trkpt lat="42.9916883" lon="11.75306"><ele>318.0</ele><time>2026-03-29T14:05:25.081Z</time></trkpt><trkpt lat="42.9915067" lon="11.7530367"><ele>318.6666666666667</ele><time>2026-03-29T14:05:26.08Z</time></trkpt><trkpt lat="42.9913217" lon="11.7530267"><ele>319.33333333333337</ele><time>2026-03-29T14:05:27.081Z</time></trkpt><trkpt lat="42.9911383" lon="11.7530133"><ele>320.0</ele><time>2026-03-29T14:05:28.08Z</time></trkpt><trkpt lat="42.99094" lon="11.7530117"><ele>320.33333333333337</ele><time>2026-03-29T14:05:29.08Z</time></trkpt><trkpt lat="42.99074" lon="11.753025"><ele>320.6666666666667</ele><time>2026-03-29T14:05:30.081Z</time></trkpt><trkpt lat="42.9905483" lon="11.75304"><ele>321.0</ele><time>2026-03-29T14:05:31.081Z</time></trkpt><trkpt lat="42.99035" lon="11.7530717"><ele>321.0</ele><time>2026-03-29T14:05:32.081Z</time></trkpt><trkpt lat="42.99016" lon="11.7531117"><ele>321.0</ele><time>2026-03-29T14:05:33.081Z</time></trkpt><trkpt lat="42.989965" lon="11.7531717"><ele>321.0</ele><time>2026-03-29T14:05:34.08Z</time></trkpt><trkpt lat="42.9897633" lon="11.7532433"><ele>320.6666666666667</ele><time>2026-03-29T14:05:35.081Z</time></trkpt><trkpt lat="42.9895583" lon="11.75332"><ele>320.33333333333337</ele><time>2026-03-29T14:05:36.081Z</time></trkpt><trkpt lat="42.9893533" lon="11.7534067"><ele>320.0</ele><time>2026-03-29T14:05:37.081Z</time></trkpt><trkpt lat="42.9891533" lon="11.75349"><ele>321.0</ele><time>2026-03-29T14:05:38.081Z</time></trkpt><trkpt lat="42.9889483" lon="11.7535783"><ele>322.0</ele><time>2026-03-29T14:05:39.081Z</time></trkpt><trkpt lat="42.9887417" lon="11.75367"><ele>323.0</ele><time>2026-03-29T14:05:40.081Z</time></trkpt><trkpt lat="42.9885383" lon="11.7537517"><ele>325.0</ele><time>2026-03-29T14:05:41.081Z</time></trkpt><trkpt lat="42.9883333" lon="11.7538367"><ele>327.0</ele><time>2026-03-29T14:05:42.08Z</time></trkpt><trkpt lat="42.9881317" lon="11.75392"><ele>329.0</ele><time>2026-03-29T14:05:43.081Z</time></trkpt><trkpt lat="42.9879267" lon="11.75401"><ele>329.0</ele><time>2026-03-29T14:05:44.08Z</time></trkpt><trkpt lat="42.9877317" lon="11.7541017"><ele>329.0</ele><time>2026-03-29T14:05:45.081Z</time></trkpt><trkpt lat="42.987555" lon="11.754185"><ele>329.0</ele><time>2026-03-29T14:05:46.081Z</time></trkpt><trkpt lat="42.9873933" lon="11.7542433"><ele>327.6666666666667</ele><time>2026-03-29T14:05:47.081Z</time></trkpt><trkpt lat="42.9872317" lon="11.7542683"><ele>326.3333333333333</ele><time>2026-03-29T14:05:48.081Z</time></trkpt><trkpt lat="42.9870767" lon="11.75424"><ele>325.0</ele><time>2026-03-29T14:05:49.081Z</time></trkpt><trkpt lat="42.9869283" lon="11.7541717"><ele>325.0</ele><time>2026-03-29T14:05:50.081Z</time></trkpt><trkpt lat="42.9867867" lon="11.7540683"><ele>325.0</ele><time>2026-03-29T14:05:51.081Z</time></trkpt><trkpt lat="42.9866433" lon="11.7539283"><ele>325.0</ele><time>2026-03-29T14:05:52.08Z</time></trkpt><trkpt lat="42.9864867" lon="11.7537817"><ele>322.66666666666663</ele><time>2026-03-29T14:05:53.081Z</time></trkpt><trkpt lat="42.98633" lon="11.7536417"><ele>320.3333333333333</ele><time>2026-03-29T14:05:54.081Z</time></trkpt><trkpt lat="42.9861833" lon="11.75352"><ele>318.0</ele><time>2026-03-29T14:05:55.08Z</time></trkpt><trkpt lat="42.9860667" lon="11.75341"><ele>317.8</ele><time>2026-03-29T14:05:56.08Z</time></trkpt><trkpt lat="42.9859933" lon="11.7533117"><ele>317.6</ele><time>2026-03-29T14:05:57.081Z</time></trkpt><trkpt lat="42.985945" lon="11.7532483"><ele>317.4</ele><time>2026-03-29T14:05:58.081Z</time></trkpt><trkpt lat="42.9858733" lon="11.75313"><ele>317.2</ele><time>2026-03-29T14:06:00.081Z</time></trkpt><trkpt lat="42.9858317" lon="11.7529783"><ele>317.0</ele><time>2026-03-29T14:06:02.081Z</time></trkpt><trkpt lat="42.98581" lon="11.7528617"><ele>316.8</ele><time>2026-03-29T14:06:03.081Z</time></trkpt><trkpt lat="42.9858" lon="11.7527233"><ele>316.6</ele><time>2026-03-29T14:06:04.08Z</time></trkpt><trkpt lat="42.9858083" lon="11.75257"><ele>316.40000000000003</ele><time>2026-03-29T14:06:05.081Z</time></trkpt><trkpt lat="42.985835" lon="11.7524217"><ele>316.2</ele><time>2026-03-29T14:06:06.081Z</time></trkpt><trkpt lat="42.98588" lon="11.752275"><ele>316.0</ele><time>2026-03-29T14:06:07.081Z</time></trkpt><trkpt lat="42.9859483" lon="11.7521183"><ele>316.0</ele><time>2026-03-29T14:06:08.08Z</time></trkpt><trkpt lat="42.98604" lon="11.7519533"><ele>316.0</ele><time>2026-03-29T14:06:09.081Z</time></trkpt><trkpt lat="42.98615" lon="11.7517567"><ele>316.0</ele><time>2026-03-29T14:06:10.081Z</time></trkpt><trkpt lat="42.9862717" lon="11.7515333"><ele>318.3333333333333</ele><time>2026-03-29T14:06:11.08Z</time></trkpt><trkpt lat="42.9864017" lon="11.7512967"><ele>320.6666666666667</ele><time>2026-03-29T14:06:12.081Z</time></trkpt><trkpt lat="42.9865267" lon="11.7510767"><ele>323.0</ele><time>2026-03-29T14:06:13.08Z</time></trkpt><trkpt lat="42.9866383" lon="11.75087"><ele>320.6666666666667</ele><time>2026-03-29T14:06:14.081Z</time></trkpt><trkpt lat="42.9867533" lon="11.7506583"><ele>318.3333333333333</ele><time>2026-03-29T14:06:15.08Z</time></trkpt><trkpt lat="42.986865" lon="11.7504517"><ele>316.0</ele><time>2026-03-29T14:06:16.08Z</time></trkpt><trkpt lat="42.9869667" lon="11.7502617"><ele>317.75</ele><time>2026-03-29T14:06:17.081Z</time></trkpt><trkpt lat="42.9870317" lon="11.7500767"><ele>319.5</ele><time>2026-03-29T14:06:18.081Z</time></trkpt><trkpt lat="42.9870533" lon="11.7498983"><ele>321.25</ele><time>2026-03-29T14:06:19.081Z</time></trkpt><trkpt lat="42.987035" lon="11.74973"><ele>323.0</ele><time>2026-03-29T14:06:20.081Z</time></trkpt><trkpt lat="42.9869667" lon="11.7495767"><ele>323.0</ele><time>2026-03-29T14:06:21.081Z</time></trkpt><trkpt lat="42.986865" lon="11.7494667"><ele>323.0</ele><time>2026-03-29T14:06:22.081Z</time></trkpt><trkpt lat="42.9867417" lon="11.749425"><ele>323.0</ele><time>2026-03-29T14:06:23.081Z</time></trkpt><trkpt lat="42.98659" lon="11.7494483"><ele>323.0</ele><time>2026-03-29T14:06:24.08Z</time></trkpt><trkpt lat="42.9864333" lon="11.74952"><ele>328.0</ele><time>2026-03-29T14:06:25.081Z</time></trkpt><trkpt lat="42.9862533" lon="11.74964"><ele>333.0</ele><time>2026-03-29T14:06:26.08Z</time></trkpt><trkpt lat="42.986025" lon="11.7497917"><ele>338.0</ele><time>2026-03-29T14:06:27.081Z</time></trkpt><trkpt lat="42.9857967" lon="11.74994"><ele>343.0</ele><time>2026-03-29T14:06:28.081Z</time></trkpt><trkpt lat="42.985605" lon="11.7500567"><ele>343.0</ele><time>2026-03-29T14:06:29.081Z</time></trkpt><trkpt lat="42.985425" lon="11.75015"><ele>343.0</ele><time>2026-03-29T14:06:30.081Z</time></trkpt><trkpt lat="42.9852467" lon="11.7501867"><ele>343.0</ele><time>2026-03-29T14:06:31.081Z</time></trkpt><trkpt lat="42.9850617" lon="11.7501733"><ele>347.3333333333333</ele><time>2026-03-29T14:06:32.081Z</time></trkpt><trkpt lat="42.9848583" lon="11.7501217"><ele>351.6666666666667</ele><time>2026-03-29T14:06:33.081Z</time></trkpt><trkpt lat="42.9846867" lon="11.750085"><ele>356.0</ele><time>2026-03-29T14:06:34.08Z</time></trkpt><trkpt lat="42.9845183" lon="11.750045"><ele>356.0</ele><time>2026-03-29T14:06:35.081Z</time></trkpt><trkpt lat="42.9843583" lon="11.7500467"><ele>356.0</ele><time>2026-03-29T14:06:36.081Z</time></trkpt><trkpt lat="42.984205" lon="11.7500867"><ele>356.0</ele><time>2026-03-29T14:06:37.08Z</time></trkpt><trkpt lat="42.9840483" lon="11.7501633"><ele>354.6666666666667</ele><time>2026-03-29T14:06:38.081Z</time></trkpt><trkpt lat="42.9838883" lon="11.7502767"><ele>353.3333333333333</ele><time>2026-03-29T14:06:39.081Z</time></trkpt><trkpt lat="42.9837217" lon="11.7503967"><ele>352.0</ele><time>2026-03-29T14:06:40.08Z</time></trkpt><trkpt lat="42.9835433" lon="11.75052"><ele>352.0</ele><time>2026-03-29T14:06:41.081Z</time></trkpt><trkpt lat="42.9833533" lon="11.7506283"><ele>352.0</ele><time>2026-03-29T14:06:42.08Z</time></trkpt><trkpt lat="42.983165" lon="11.750735"><ele>352.0</ele><time>2026-03-29T14:06:43.081Z</time></trkpt><trkpt lat="42.9829817" lon="11.750835"><ele>355.0</ele><time>2026-03-29T14:06:44.081Z</time></trkpt><trkpt lat="42.9828083" lon="11.7509283"><ele>358.0</ele><time>2026-03-29T14:06:45.081Z</time></trkpt><trkpt lat="42.9826367" lon="11.7510133"><ele>361.0</ele><time>2026-03-29T14:06:46.08Z</time></trkpt><trkpt lat="42.9824833" lon="11.75109"><ele>361.0</ele><time>2026-03-29T14:06:47.081Z</time></trkpt><trkpt lat="42.9823317" lon="11.7511617"><ele>361.0</ele><time>2026-03-29T14:06:48.081Z</time></trkpt><trkpt lat="42.9821717" lon="11.7512233"><ele>361.0</ele><time>2026-03-29T14:06:49.081Z</time></trkpt><trkpt lat="42.9819983" lon="11.7512533"><ele>361.0</ele><time>2026-03-29T14:06:50.081Z</time></trkpt><trkpt lat="42.9818067" lon="11.7512683"><ele>361.0</ele><time>2026-03-29T14:06:51.08Z</time></trkpt><trkpt lat="42.9816167" lon="11.7512667"><ele>361.0</ele><time>2026-03-29T14:06:52.081Z</time></trkpt><trkpt lat="42.981425" lon="11.75127"><ele>363.66666666666663</ele><time>2026-03-29T14:06:53.081Z</time></trkpt><trkpt lat="42.9812417" lon="11.7512733"><ele>366.3333333333333</ele><time>2026-03-29T14:06:54.081Z</time></trkpt><trkpt lat="42.9810633" lon="11.7512867"><ele>369.0</ele><time>2026-03-29T14:06:55.081Z</time></trkpt><trkpt lat="42.9808833" lon="11.7512933"><ele>370.6666666666667</ele><time>2026-03-29T14:06:56.081Z</time></trkpt><trkpt lat="42.980715" lon="11.7512883"><ele>372.33333333333337</ele><time>2026-03-29T14:06:57.081Z</time></trkpt><trkpt lat="42.9805683" lon="11.7512633"><ele>374.0</ele><time>2026-03-29T14:06:58.08Z</time></trkpt><trkpt lat="42.9804383" lon="11.75122"><ele>374.0</ele><time>2026-03-29T14:06:59.081Z</time></trkpt><trkpt lat="42.9803217" lon="11.75114"><ele>374.0</ele><time>2026-03-29T14:07:00.081Z</time></trkpt><trkpt lat="42.9802317" lon="11.7510267"><ele>374.0</ele><time>2026-03-29T14:07:01.081Z</time></trkpt><trkpt lat="42.9801633" lon="11.7508733"><ele>374.0</ele><time>2026-03-29T14:07:02.08Z</time></trkpt><trkpt lat="42.9801267" lon="11.7507033"><ele>376.5</ele><time>2026-03-29T14:07:03.081Z</time></trkpt><trkpt lat="42.9801383" lon="11.7505283"><ele>379.0</ele><time>2026-03-29T14:07:04.08Z</time></trkpt><trkpt lat="42.98018" lon="11.750365"><ele>381.5</ele><time>2026-03-29T14:07:05.081Z</time></trkpt><trkpt lat="42.9802583" lon="11.7502333"><ele>384.0</ele><time>2026-03-29T14:07:06.081Z</time></trkpt><trkpt lat="42.9803717" lon="11.7501217"><ele>384.0</ele><time>2026-03-29T14:07:07.081Z</time></trkpt><trkpt lat="42.9805067" lon="11.7500117"><ele>384.0</ele><time>2026-03-29T14:07:08.081Z</time></trkpt><trkpt lat="42.9806783" lon="11.74989"><ele>384.0</ele><time>2026-03-29T14:07:09.08Z</time></trkpt><trkpt lat="42.98086" lon="11.749775"><ele>384.0</ele><time>2026-03-29T14:07:10.08Z</time></trkpt><trkpt lat="42.9810483" lon="11.749655"><ele>384.0</ele><time>2026-03-29T14:07:11.081Z</time></trkpt><trkpt lat="42.9812233" lon="11.7495383"><ele>384.0</ele><time>2026-03-29T14:07:12.081Z</time></trkpt><trkpt lat="42.981385" lon="11.7494317"><ele>383.3333333333333</ele><time>2026-03-29T14:07:13.081Z</time></trkpt><trkpt lat="42.9815467" lon="11.7493233"><ele>382.66666666666663</ele><time>2026-03-29T14:07:14.081Z</time></trkpt><trkpt lat="42.9816817" lon="11.7492167"><ele>382.0</ele><time>2026-03-29T14:07:15.081Z</time></trkpt><trkpt lat="42.9817883" lon="11.7490883"><ele>382.0</ele><time>2026-03-29T14:07:16.08Z</time></trkpt><trkpt lat="42.9818833" lon="11.7489317"><ele>382.0</ele><time>2026-03-29T14:07:17.081Z</time></trkpt><trkpt lat="42.981935" lon="11.7487533"><ele>382.0</ele><time>2026-03-29T14:07:18.081Z</time></trkpt><trkpt lat="42.9819483" lon="11.74858"><ele>382.0</ele><time>2026-03-29T14:07:19.081Z</time></trkpt><trkpt lat="42.98192" lon="11.7484067"><ele>383.3333333333333</ele><time>2026-03-29T14:07:20.081Z</time></trkpt><trkpt lat="42.9818433" lon="11.7482467"><ele>384.66666666666663</ele><time>2026-03-29T14:07:21.081Z</time></trkpt><trkpt lat="42.981725" lon="11.7480933"><ele>386.0</ele><time>2026-03-29T14:07:22.081Z</time></trkpt><trkpt lat="42.981565" lon="11.747935"><ele>392.0</ele><time>2026-03-29T14:07:23.081Z</time></trkpt><trkpt lat="42.98137" lon="11.74778"><ele>398.0</ele><time>2026-03-29T14:07:24.081Z</time></trkpt><trkpt lat="42.98117" lon="11.7476183"><ele>398.0</ele><time>2026-03-29T14:07:25.081Z</time></trkpt><trkpt lat="42.9809883" lon="11.7474733"><ele>398.0</ele><time>2026-03-29T14:07:26.08Z</time></trkpt><trkpt lat="42.98082" lon="11.7473233"><ele>398.0</ele><time>2026-03-29T14:07:27.08Z</time></trkpt><trkpt lat="42.9806583" lon="11.747165"><ele>400.3333333333333</ele><time>2026-03-29T14:07:28.081Z</time></trkpt><trkpt lat="42.9804983" lon="11.7469917"><ele>402.66666666666663</ele><time>2026-03-29T14:07:29.08Z</time></trkpt><trkpt lat="42.9803583" lon="11.746785"><ele>405.0</ele><time>2026-03-29T14:07:30.081Z</time></trkpt><trkpt lat="42.9802033" lon="11.74657"><ele>405.0</ele><time>2026-03-29T14:07:31.081Z</time></trkpt><trkpt lat="42.9800533" lon="11.7463517"><ele>405.0</ele><time>2026-03-29T14:07:32.081Z</time></trkpt><trkpt lat="42.979925" lon="11.7461483"><ele>405.0</ele><time>2026-03-29T14:07:33.08Z</time></trkpt><trkpt lat="42.97981" lon="11.7459533"><ele>408.66666666666663</ele><time>2026-03-29T14:07:34.081Z</time></trkpt><trkpt lat="42.9797" lon="11.7457517"><ele>412.3333333333333</ele><time>2026-03-29T14:07:35.081Z</time></trkpt><trkpt lat="42.9796233" lon="11.7455333"><ele>416.0</ele><time>2026-03-29T14:07:36.08Z</time></trkpt><trkpt lat="42.97956" lon="11.745305"><ele>416.66666666666663</ele><time>2026-03-29T14:07:37.081Z</time></trkpt><trkpt lat="42.9795233" lon="11.74507"><ele>417.33333333333337</ele><time>2026-03-29T14:07:38.081Z</time></trkpt><trkpt lat="42.9795117" lon="11.7448283"><ele>418.0</ele><time>2026-03-29T14:07:39.081Z</time></trkpt><trkpt lat="42.97951" lon="11.7445867"><ele>419.33333333333337</ele><time>2026-03-29T14:07:40.08Z</time></trkpt><trkpt lat="42.97951" lon="11.744355"><ele>420.66666666666663</ele><time>2026-03-29T14:07:41.08Z</time></trkpt><trkpt lat="42.9795217" lon="11.7441233"><ele>422.0</ele><time>2026-03-29T14:07:42.081Z</time></trkpt><trkpt lat="42.9795333" lon="11.7439033"><ele>422.0</ele><time>2026-03-29T14:07:43.081Z</time></trkpt><trkpt lat="42.9795383" lon="11.7436917"><ele>422.0</ele><time>2026-03-29T14:07:44.081Z</time></trkpt><trkpt lat="42.97954" lon="11.7435067"><ele>422.0</ele><time>2026-03-29T14:07:45.08Z</time></trkpt><trkpt lat="42.9795483" lon="11.7433217"><ele>422.0</ele><time>2026-03-29T14:07:46.08Z</time></trkpt><trkpt lat="42.97955" lon="11.7431517"><ele>423.25</ele><time>2026-03-29T14:07:47.081Z</time></trkpt><trkpt lat="42.9795567" lon="11.7429733"><ele>424.5</ele><time>2026-03-29T14:07:48.081Z</time></trkpt><trkpt lat="42.9795633" lon="11.7427783"><ele>425.75</ele><time>2026-03-29T14:07:49.081Z</time></trkpt><trkpt lat="42.97957" lon="11.7425733"><ele>427.0</ele><time>2026-03-29T14:07:50.081Z</time></trkpt><trkpt lat="42.9795733" lon="11.7423683"><ele>428.75</ele><time>2026-03-29T14:07:51.081Z</time></trkpt><trkpt lat="42.97958" lon="11.7421583"><ele>430.5</ele><time>2026-03-29T14:07:52.081Z</time></trkpt><trkpt lat="42.9795883" lon="11.741955"><ele>432.25</ele><time>2026-03-29T14:07:53.08Z</time></trkpt><trkpt lat="42.97959" lon="11.7417833"><ele>434.0</ele><time>2026-03-29T14:07:54.081Z</time></trkpt><trkpt lat="42.9795733" lon="11.741615"><ele>434.25</ele><time>2026-03-29T14:07:55.081Z</time></trkpt><trkpt lat="42.9795517" lon="11.741445"><ele>434.5</ele><time>2026-03-29T14:07:56.08Z</time></trkpt><trkpt lat="42.9795" lon="11.7412917"><ele>434.75</ele><time>2026-03-29T14:07:57.08Z</time></trkpt><trkpt lat="42.9794317" lon="11.7411467"><ele>435.0</ele><time>2026-03-29T14:07:58.081Z</time></trkpt><trkpt lat="42.9793333" lon="11.7410167"><ele>433.33333333333337</ele><time>2026-03-29T14:07:59.081Z</time></trkpt><trkpt lat="42.9792133" lon="11.7408967"><ele>431.6666666666667</ele><time>2026-03-29T14:08:00.08Z</time></trkpt><trkpt lat="42.9790683" lon="11.7408067"><ele>430.0</ele><time>2026-03-29T14:08:01.081Z</time></trkpt><trkpt lat="42.97892" lon="11.7407283"><ele>434.33333333333337</ele><time>2026-03-29T14:08:02.081Z</time></trkpt><trkpt lat="42.978765" lon="11.740645"><ele>438.66666666666663</ele><time>2026-03-29T14:08:03.081Z</time></trkpt><trkpt lat="42.9786117" lon="11.7405633"><ele>443.0</ele><time>2026-03-29T14:08:04.08Z</time></trkpt><trkpt lat="42.97846" lon="11.7404733"><ele>446.3333333333333</ele><time>2026-03-29T14:08:05.081Z</time></trkpt><trkpt lat="42.9783133" lon="11.740395"><ele>449.66666666666663</ele><time>2026-03-29T14:08:06.081Z</time></trkpt><trkpt lat="42.9781683" lon="11.7403217"><ele>453.0</ele><time>2026-03-29T14:08:07.08Z</time></trkpt><trkpt lat="42.9780267" lon="11.74025"><ele>452.25</ele><time>2026-03-29T14:08:08.08Z</time></trkpt><trkpt lat="42.977895" lon="11.7401767"><ele>451.5</ele><time>2026-03-29T14:08:09.081Z</time></trkpt><trkpt lat="42.97777" lon="11.7400983"><ele>450.75</ele><time>2026-03-29T14:08:10.081Z</time></trkpt><trkpt lat="42.9776517" lon="11.7399883"><ele>450.0</ele><time>2026-03-29T14:08:11.08Z</time></trkpt><trkpt lat="42.9775517" lon="11.7398633"><ele>451.25</ele><time>2026-03-29T14:08:12.081Z</time></trkpt><trkpt lat="42.9774567" lon="11.7397283"><ele>452.5</ele><time>2026-03-29T14:08:13.081Z</time></trkpt><trkpt lat="42.9773717" lon="11.7395767"><ele>453.75</ele><time>2026-03-29T14:08:14.081Z</time></trkpt><trkpt lat="42.9772833" lon="11.7394383"><ele>455.0</ele><time>2026-03-29T14:08:15.08Z</time></trkpt><trkpt lat="42.977185" lon="11.7393183"><ele>455.0</ele><time>2026-03-29T14:08:16.081Z</time></trkpt><trkpt lat="42.9770867" lon="11.73923"><ele>455.0</ele><time>2026-03-29T14:08:17.081Z</time></trkpt><trkpt lat="42.9769933" lon="11.7391683"><ele>455.0</ele><time>2026-03-29T14:08:18.081Z</time></trkpt><trkpt lat="42.976905" lon="11.7391283"><ele>455.0</ele><time>2026-03-29T14:08:19.081Z</time></trkpt><trkpt lat="42.9768283" lon="11.7390917"><ele>455.0</ele><time>2026-03-29T14:08:20.08Z</time></trkpt><trkpt lat="42.9767533" lon="11.7390767"><ele>456.16666666666663</ele><time>2026-03-29T14:08:21.081Z</time></trkpt><trkpt lat="42.9766817" lon="11.7390767"><ele>457.3333333333333</ele><time>2026-03-29T14:08:22.081Z</time></trkpt><trkpt lat="42.9766167" lon="11.7390783"><ele>458.5</ele><time>2026-03-29T14:08:23.081Z</time></trkpt><trkpt lat="42.976505" lon="11.7390833"><ele>459.66666666666663</ele><time>2026-03-29T14:08:25.081Z</time></trkpt><trkpt lat="42.9764333" lon="11.7390933"><ele>460.8333333333333</ele><time>2026-03-29T14:08:27.081Z</time></trkpt><trkpt lat="42.9763367" lon="11.7391283"><ele>462.0</ele><time>2026-03-29T14:08:30.081Z</time></trkpt><trkpt lat="42.9762767" lon="11.7391633"><ele>462.0</ele><time>2026-03-29T14:08:31.08Z</time></trkpt><trkpt lat="42.976205" lon="11.7392283"><ele>462.00000000000006</ele><time>2026-03-29T14:08:32.081Z</time></trkpt><trkpt lat="42.97614" lon="11.73932"><ele>462.00000000000006</ele><time>2026-03-29T14:08:33.081Z</time></trkpt><trkpt lat="42.976085" lon="11.73946"><ele>462.0</ele><time>2026-03-29T14:08:34.081Z</time></trkpt><trkpt lat="42.9760517" lon="11.7396333"><ele>462.0</ele><time>2026-03-29T14:08:35.081Z</time></trkpt><trkpt lat="42.9760717" lon="11.73982"><ele>463.33333333333337</ele><time>2026-03-29T14:08:36.081Z</time></trkpt><trkpt lat="42.9761533" lon="11.7400233"><ele>464.6666666666667</ele><time>2026-03-29T14:08:37.081Z</time></trkpt><trkpt lat="42.9762483" lon="11.7401967"><ele>466.0</ele><time>2026-03-29T14:08:38.081Z</time></trkpt><trkpt lat="42.976335" lon="11.74035"><ele>467.8</ele><time>2026-03-29T14:08:39.081Z</time></trkpt><trkpt lat="42.976415" lon="11.7404667"><ele>469.6</ele><time>2026-03-29T14:08:40.081Z</time></trkpt><trkpt lat="42.9764867" lon="11.7405667"><ele>471.4</ele><time>2026-03-29T14:08:41.081Z</time></trkpt><trkpt lat="42.9765333" lon="11.7406567"><ele>473.2</ele><time>2026-03-29T14:08:42.08Z</time></trkpt><trkpt lat="42.9765517" lon="11.7407533"><ele>475.0</ele><time>2026-03-29T14:08:43.081Z</time></trkpt><trkpt lat="42.9765417" lon="11.7408917"><ele>475.0</ele><time>2026-03-29T14:08:45.081Z</time></trkpt><trkpt lat="42.9764683" lon="11.7409667"><ele>475.0</ele><time>2026-03-29T14:08:47.08Z</time></trkpt><trkpt lat="42.9764" lon="11.7409417"><ele>475.0</ele><time>2026-03-29T14:08:49.08Z</time></trkpt><trkpt lat="42.976335" lon="11.7409583"><ele>475.0</ele><time>2026-03-29T14:08:52.081Z</time></trkpt><trkpt lat="42.9762783" lon="11.7410683"><ele>475.0</ele><time>2026-03-29T14:08:55.08Z</time></trkpt><trkpt lat="42.9762183" lon="11.7412167"><ele>475.6</ele><time>2026-03-29T14:08:57.081Z</time></trkpt><trkpt lat="42.9761767" lon="11.7413267"><ele>476.2</ele><time>2026-03-29T14:08:58.081Z</time></trkpt><trkpt lat="42.9761333" lon="11.7414383"><ele>476.79999999999995</ele><time>2026-03-29T14:08:59.081Z</time></trkpt><trkpt lat="42.9760883" lon="11.7415467"><ele>477.4</ele><time>2026-03-29T14:09:00.081Z</time></trkpt><trkpt lat="42.97604" lon="11.7416767"><ele>478.0</ele><time>2026-03-29T14:09:01.081Z</time></trkpt><trkpt lat="42.9759883" lon="11.7418067"><ele>477.79999999999995</ele><time>2026-03-29T14:09:02.081Z</time></trkpt><trkpt lat="42.9759383" lon="11.74192"><ele>477.59999999999997</ele><time>2026-03-29T14:09:03.081Z</time></trkpt><trkpt lat="42.9758933" lon="11.742045"><ele>477.40000000000003</ele><time>2026-03-29T14:09:04.081Z</time></trkpt><trkpt lat="42.975845" lon="11.74217"><ele>477.20000000000005</ele><time>2026-03-29T14:09:05.081Z</time></trkpt><trkpt lat="42.9757933" lon="11.7422967"><ele>477.0</ele><time>2026-03-29T14:09:06.08Z</time></trkpt><trkpt lat="42.975735" lon="11.7424217"><ele>473.8</ele><time>2026-03-29T14:09:07.081Z</time></trkpt><trkpt lat="42.975665" lon="11.7425383"><ele>470.6</ele><time>2026-03-29T14:09:08.081Z</time></trkpt><trkpt lat="42.9755917" lon="11.7426317"><ele>467.40000000000003</ele><time>2026-03-29T14:09:09.081Z</time></trkpt><trkpt lat="42.9754983" lon="11.7427317"><ele>464.20000000000005</ele><time>2026-03-29T14:09:10.081Z</time></trkpt><trkpt lat="42.9754" lon="11.7428217"><ele>461.0</ele><time>2026-03-29T14:09:11.08Z</time></trkpt><trkpt lat="42.9753" lon="11.7429"><ele>459.20000000000005</ele><time>2026-03-29T14:09:12.08Z</time></trkpt><trkpt lat="42.975205" lon="11.7429733"><ele>457.40000000000003</ele><time>2026-03-29T14:09:13.08Z</time></trkpt><trkpt lat="42.9751183" lon="11.7430333"><ele>455.6</ele><time>2026-03-29T14:09:14.081Z</time></trkpt><trkpt lat="42.975035" lon="11.7430883"><ele>453.8</ele><time>2026-03-29T14:09:15.081Z</time></trkpt><trkpt lat="42.9749367" lon="11.7431183"><ele>452.0</ele><time>2026-03-29T14:09:16.08Z</time></trkpt><trkpt lat="42.9748333" lon="11.7431333"><ele>451.99999999999994</ele><time>2026-03-29T14:09:17.08Z</time></trkpt><trkpt lat="42.9747333" lon="11.743135"><ele>452.0</ele><time>2026-03-29T14:09:18.081Z</time></trkpt><trkpt lat="42.9746567" lon="11.7431317"><ele>452.0</ele><time>2026-03-29T14:09:19.08Z</time></trkpt><trkpt lat="42.9745833" lon="11.7431383"><ele>452.0</ele><time>2026-03-29T14:09:20.08Z</time></trkpt><trkpt lat="42.97448" lon="11.74314"><ele>451.99999999999994</ele><time>2026-03-29T14:09:22.081Z</time></trkpt><trkpt lat="42.9744167" lon="11.743145"><ele>452.0</ele><time>2026-03-29T14:09:24.08Z</time></trkpt><trkpt lat="42.9743367" lon="11.7431517"><ele>452.0</ele><time>2026-03-29T14:09:26.081Z</time></trkpt><trkpt lat="42.9742217" lon="11.743115"><ele>452.00000000000006</ele><time>2026-03-29T14:09:28.08Z</time></trkpt><trkpt lat="42.9741517" lon="11.7430867"><ele>452.00000000000006</ele><time>2026-03-29T14:09:29.08Z</time></trkpt><trkpt lat="42.9740667" lon="11.7430633"><ele>452.0</ele><time>2026-03-29T14:09:30.081Z</time></trkpt><trkpt lat="42.9739867" lon="11.7430417"><ele>452.0</ele><time>2026-03-29T14:09:31.081Z</time></trkpt><trkpt lat="42.9738917" lon="11.7430133"><ele>451.99999999999994</ele><time>2026-03-29T14:09:32.081Z</time></trkpt><trkpt lat="42.9738067" lon="11.7429717"><ele>452.0</ele><time>2026-03-29T14:09:33.081Z</time></trkpt><trkpt lat="42.973725" lon="11.742925"><ele>452.0</ele><time>2026-03-29T14:09:34.081Z</time></trkpt><trkpt lat="42.97365" lon="11.7428767"><ele>452.0</ele><time>2026-03-29T14:09:35.081Z</time></trkpt><trkpt lat="42.973585" lon="11.742855"><ele>451.99999999999994</ele><time>2026-03-29T14:09:36.081Z</time></trkpt><trkpt lat="42.97352" lon="11.7428583"><ele>452.0</ele><time>2026-03-29T14:09:37.08Z</time></trkpt><trkpt lat="42.9734517" lon="11.7428683"><ele>452.0</ele><time>2026-03-29T14:09:38.081Z</time></trkpt><trkpt lat="42.973385" lon="11.7429083"><ele>452.00000000000006</ele><time>2026-03-29T14:09:39.081Z</time></trkpt><trkpt lat="42.97331" lon="11.742965"><ele>452.00000000000006</ele><time>2026-03-29T14:09:40.081Z</time></trkpt><trkpt lat="42.9732333" lon="11.7430183"><ele>452.0</ele><time>2026-03-29T14:09:41.081Z</time></trkpt><trkpt lat="42.9731333" lon="11.7430633"><ele>452.0</ele><time>2026-03-29T14:09:42.081Z</time></trkpt><trkpt lat="42.973025" lon="11.7431083"><ele>449.75</ele><time>2026-03-29T14:09:43.081Z</time></trkpt><trkpt lat="42.9729183" lon="11.7431633"><ele>447.5</ele><time>2026-03-29T14:09:44.081Z</time></trkpt><trkpt lat="42.9728167" lon="11.7432517"><ele>445.25</ele><time>2026-03-29T14:09:45.08Z</time></trkpt><trkpt lat="42.9727067" lon="11.7433483"><ele>443.0</ele><time>2026-03-29T14:09:46.081Z</time></trkpt><trkpt lat="42.9726167" lon="11.743425"><ele>442.99999999999994</ele><time>2026-03-29T14:09:47.081Z</time></trkpt><trkpt lat="42.972535" lon="11.7435017"><ele>443.0</ele><time>2026-03-29T14:09:48.081Z</time></trkpt><trkpt lat="42.9724667" lon="11.7435733"><ele>443.0</ele><time>2026-03-29T14:09:49.081Z</time></trkpt><trkpt lat="42.9723967" lon="11.7436467"><ele>443.0</ele><time>2026-03-29T14:09:50.081Z</time></trkpt><trkpt lat="42.97233" lon="11.7437217"><ele>442.99999999999994</ele><time>2026-03-29T14:09:51.081Z</time></trkpt><trkpt lat="42.97227" lon="11.7437667"><ele>443.0</ele><time>2026-03-29T14:09:52.081Z</time></trkpt><trkpt lat="42.9721933" lon="11.7438217"><ele>441.4</ele><time>2026-03-29T14:09:54.081Z</time></trkpt><trkpt lat="42.9721333" lon="11.7438783"><ele>439.79999999999995</ele><time>2026-03-29T14:09:58.08Z</time></trkpt><trkpt lat="42.9720683" lon="11.74396"><ele>438.2</ele><time>2026-03-29T14:10:18.081Z</time></trkpt><trkpt lat="42.97197" lon="11.74408"><ele>436.6</ele><time>2026-03-29T14:10:20.081Z</time></trkpt><trkpt lat="42.9719083" lon="11.744155"><ele>435.0</ele><time>2026-03-29T14:10:21.08Z</time></trkpt><trkpt lat="42.9718433" lon="11.7442317"><ele>435.0</ele><time>2026-03-29T14:10:22.081Z</time></trkpt><trkpt lat="42.9717783" lon="11.7443117"><ele>435.0</ele><time>2026-03-29T14:10:23.081Z</time></trkpt><trkpt lat="42.9717233" lon="11.744395"><ele>435.0</ele><time>2026-03-29T14:10:24.08Z</time></trkpt><trkpt lat="42.9716867" lon="11.7444833"><ele>435.0</ele><time>2026-03-29T14:10:25.081Z</time></trkpt><trkpt lat="42.9716467" lon="11.744575"><ele>435.0</ele><time>2026-03-29T14:10:26.08Z</time></trkpt><trkpt lat="42.9716017" lon="11.7446667"><ele>435.0</ele><time>2026-03-29T14:10:27.081Z</time></trkpt><trkpt lat="42.97155" lon="11.7447417"><ele>434.5714285714286</ele><time>2026-03-29T14:10:28.081Z</time></trkpt><trkpt lat="42.9714983" lon="11.744805"><ele>434.14285714285717</ele><time>2026-03-29T14:10:29.081Z</time></trkpt><trkpt lat="42.97145" lon="11.7448833"><ele>433.7142857142857</ele><time>2026-03-29T14:10:30.081Z</time></trkpt><trkpt lat="42.9713983" lon="11.7449667"><ele>433.28571428571433</ele><time>2026-03-29T14:10:31.081Z</time></trkpt><trkpt lat="42.9713633" lon="11.7450517"><ele>432.85714285714283</ele><time>2026-03-29T14:10:32.08Z</time></trkpt><trkpt lat="42.971335" lon="11.7451367"><ele>432.42857142857144</ele><time>2026-03-29T14:10:33.08Z</time></trkpt><trkpt lat="42.9713017" lon="11.7452133"><ele>432.0</ele><time>2026-03-29T14:10:34.081Z</time></trkpt><trkpt lat="42.971245" lon="11.7453383"><ele>430.40000000000003</ele><time>2026-03-29T14:10:36.08Z</time></trkpt><trkpt lat="42.9711733" lon="11.7454517"><ele>428.80000000000007</ele><time>2026-03-29T14:10:38.081Z</time></trkpt><trkpt lat="42.971115" lon="11.7455933"><ele>427.2</ele><time>2026-03-29T14:10:40.081Z</time></trkpt><trkpt lat="42.971095" lon="11.7457567"><ele>425.6</ele><time>2026-03-29T14:10:42.081Z</time></trkpt><trkpt lat="42.9710567" lon="11.7458817"><ele>424.0</ele><time>2026-03-29T14:10:44.08Z</time></trkpt><trkpt lat="42.970955" lon="11.7459517"><ele>424.0</ele><time>2026-03-29T14:10:46.081Z</time></trkpt><trkpt lat="42.9708917" lon="11.745955"><ele>424.0</ele><time>2026-03-29T14:10:47.081Z</time></trkpt><trkpt lat="42.9707783" lon="11.7459233"><ele>424.0</ele><time>2026-03-29T14:10:49.081Z</time></trkpt><trkpt lat="42.970665" lon="11.7459167"><ele>424.0</ele><time>2026-03-29T14:10:51.081Z</time></trkpt><trkpt lat="42.9705617" lon="11.74597"><ele>424.0</ele><time>2026-03-29T14:10:53.08Z</time></trkpt><trkpt lat="42.9704833" lon="11.746075"><ele>422.1666666666667</ele><time>2026-03-29T14:10:55.081Z</time></trkpt><trkpt lat="42.9704183" lon="11.7461733"><ele>420.33333333333337</ele><time>2026-03-29T14:10:57.08Z</time></trkpt><trkpt lat="42.9703533" lon="11.7462317"><ele>418.5</ele><time>2026-03-29T14:10:59.081Z</time></trkpt><trkpt lat="42.970275" lon="11.746225"><ele>416.66666666666663</ele><time>2026-03-29T14:11:02.081Z</time></trkpt><trkpt lat="42.9702067" lon="11.74621"><ele>414.8333333333333</ele><time>2026-03-29T14:11:04.082Z</time></trkpt><trkpt lat="42.970125" lon="11.7461183"><ele>413.0</ele><time>2026-03-29T14:11:06.082Z</time></trkpt><trkpt lat="42.970045" lon="11.7459867"><ele>411.2857142857143</ele><time>2026-03-29T14:11:08.081Z</time></trkpt><trkpt lat="42.97" lon="11.7459133"><ele>409.57142857142856</ele><time>2026-03-29T14:11:09.082Z</time></trkpt><trkpt lat="42.969955" lon="11.7458433"><ele>407.8571428571429</ele><time>2026-03-29T14:11:10.081Z</time></trkpt><trkpt lat="42.9699133" lon="11.7457733"><ele>406.1428571428571</ele><time>2026-03-29T14:11:11.081Z</time></trkpt><trkpt lat="42.96987" lon="11.7457017"><ele>404.42857142857144</ele><time>2026-03-29T14:11:12.082Z</time></trkpt><trkpt lat="42.9698333" lon="11.7456267"><ele>402.7142857142857</ele><time>2026-03-29T14:11:13.081Z</time></trkpt><trkpt lat="42.9697783" lon="11.74551"><ele>401.0</ele><time>2026-03-29T14:11:15.081Z</time></trkpt><trkpt lat="42.9697483" lon="11.74541"><ele>400.99999999999994</ele><time>2026-03-29T14:11:17.082Z</time></trkpt><trkpt lat="42.9696867" lon="11.7452967"><ele>401.0</ele><time>2026-03-29T14:11:29.081Z</time></trkpt><trkpt lat="42.96964" lon="11.7452367"><ele>401.0</ele><time>2026-03-29T14:11:31.082Z</time></trkpt><trkpt lat="42.9695433" lon="11.74523"><ele>401.0</ele><time>2026-03-29T14:11:34.081Z</time></trkpt><trkpt lat="42.96948" lon="11.7452767"><ele>400.99999999999994</ele><time>2026-03-29T14:11:36.082Z</time></trkpt><trkpt lat="42.9694333" lon="11.7453733"><ele>401.0</ele><time>2026-03-29T14:11:38.082Z</time></trkpt><trkpt lat="42.9693917" lon="11.7455067"><ele>400.99999999999994</ele><time>2026-03-29T14:11:40.082Z</time></trkpt><trkpt lat="42.96934" lon="11.74565"><ele>401.0</ele><time>2026-03-29T14:11:42.082Z</time></trkpt><trkpt lat="42.969315" lon="11.745735"><ele>401.0</ele><time>2026-03-29T14:11:43.082Z</time></trkpt><trkpt lat="42.9692783" lon="11.7458183"><ele>401.0</ele><time>2026-03-29T14:11:44.082Z</time></trkpt><trkpt lat="42.96924" lon="11.7458967"><ele>400.99999999999994</ele><time>2026-03-29T14:11:45.081Z</time></trkpt><trkpt lat="42.9691983" lon="11.7459633"><ele>401.0</ele><time>2026-03-29T14:11:46.081Z</time></trkpt><trkpt lat="42.9691033" lon="11.7460867"><ele>400.2857142857143</ele><time>2026-03-29T14:11:48.082Z</time></trkpt><trkpt lat="42.9690467" lon="11.7461467"><ele>399.57142857142856</ele><time>2026-03-29T14:11:49.082Z</time></trkpt><trkpt lat="42.9689933" lon="11.746205"><ele>398.8571428571429</ele><time>2026-03-29T14:11:50.082Z</time></trkpt><trkpt lat="42.9689467" lon="11.7462667"><ele>398.1428571428571</ele><time>2026-03-29T14:11:51.082Z</time></trkpt><trkpt lat="42.968905" lon="11.7463383"><ele>397.4285714285714</ele><time>2026-03-29T14:11:52.082Z</time></trkpt><trkpt lat="42.96886" lon="11.7464083"><ele>396.7142857142857</ele><time>2026-03-29T14:11:53.082Z</time></trkpt><trkpt lat="42.968815" lon="11.7464717"><ele>396.0</ele><time>2026-03-29T14:11:54.082Z</time></trkpt><trkpt lat="42.9687433" lon="11.7465917"><ele>396.0</ele><time>2026-03-29T14:11:56.082Z</time></trkpt><trkpt lat="42.9686967" lon="11.74666"><ele>396.0</ele><time>2026-03-29T14:11:57.082Z</time></trkpt><trkpt lat="42.9686467" lon="11.7467267"><ele>396.0</ele><time>2026-03-29T14:11:58.082Z</time></trkpt><trkpt lat="42.9686017" lon="11.7467933"><ele>396.0</ele><time>2026-03-29T14:11:59.081Z</time></trkpt><trkpt lat="42.9685533" lon="11.7468533"><ele>396.0</ele><time>2026-03-29T14:12:00.081Z</time></trkpt><trkpt lat="42.968475" lon="11.746905"><ele>396.0</ele><time>2026-03-29T14:12:02.082Z</time></trkpt><trkpt lat="42.9683967" lon="11.746885"><ele>396.0</ele><time>2026-03-29T14:12:04.082Z</time></trkpt><trkpt lat="42.96831" lon="11.7468583"><ele>397.8333333333333</ele><time>2026-03-29T14:12:06.081Z</time></trkpt><trkpt lat="42.968235" lon="11.7468517"><ele>399.66666666666663</ele><time>2026-03-29T14:12:08.082Z</time></trkpt><trkpt lat="42.9681633" lon="11.7468383"><ele>401.5</ele><time>2026-03-29T14:12:10.081Z</time></trkpt><trkpt lat="42.968065" lon="11.7467983"><ele>403.3333333333333</ele><time>2026-03-29T14:12:18.082Z</time></trkpt><trkpt lat="42.9679817" lon="11.74677"><ele>405.16666666666663</ele><time>2026-03-29T14:12:20.081Z</time></trkpt><trkpt lat="42.9679133" lon="11.746745"><ele>407.0</ele><time>2026-03-29T14:12:22.081Z</time></trkpt><trkpt lat="42.9678467" lon="11.7467517"><ele>406.99999999999994</ele><time>2026-03-29T14:12:52.081Z</time></trkpt><trkpt lat="42.9678" lon="11.74683"><ele>407.0</ele><time>2026-03-29T14:12:54.082Z</time></trkpt><trkpt lat="42.96775" lon="11.7469433"><ele>407.0</ele><time>2026-03-29T14:12:56.081Z</time></trkpt><trkpt lat="42.967685" lon="11.7470733"><ele>407.0</ele><time>2026-03-29T14:12:58.082Z</time></trkpt><trkpt lat="42.9676433" lon="11.74715"><ele>406.99999999999994</ele><time>2026-03-29T14:12:59.081Z</time></trkpt><trkpt lat="42.96759" lon="11.7472317"><ele>407.0</ele><time>2026-03-29T14:13:00.082Z</time></trkpt><trkpt lat="42.9675433" lon="11.74732"><ele>405.6</ele><time>2026-03-29T14:13:01.082Z</time></trkpt><trkpt lat="42.96748" lon="11.7474233"><ele>404.20000000000005</ele><time>2026-03-29T14:13:02.082Z</time></trkpt><trkpt lat="42.9674067" lon="11.74753"><ele>402.8</ele><time>2026-03-29T14:13:03.082Z</time></trkpt><trkpt lat="42.9673267" lon="11.74765"><ele>401.4</ele><time>2026-03-29T14:13:04.081Z</time></trkpt><trkpt lat="42.9672483" lon="11.7477617"><ele>400.0</ele><time>2026-03-29T14:13:05.081Z</time></trkpt><trkpt lat="42.9671767" lon="11.7478783"><ele>398.75</ele><time>2026-03-29T14:13:06.082Z</time></trkpt><trkpt lat="42.9671067" lon="11.74801"><ele>397.5</ele><time>2026-03-29T14:13:07.082Z</time></trkpt><trkpt lat="42.9670367" lon="11.74815"><ele>396.25</ele><time>2026-03-29T14:13:08.082Z</time></trkpt><trkpt lat="42.96696" lon="11.7482767"><ele>395.0</ele><time>2026-03-29T14:13:09.082Z</time></trkpt><trkpt lat="42.9668917" lon="11.74841"><ele>395.0</ele><time>2026-03-29T14:13:10.081Z</time></trkpt><trkpt lat="42.9668317" lon="11.7485417"><ele>395.0</ele><time>2026-03-29T14:13:11.081Z</time></trkpt><trkpt lat="42.9667667" lon="11.7486667"><ele>395.0</ele><time>2026-03-29T14:13:12.081Z</time></trkpt><trkpt lat="42.9667067" lon="11.7487883"><ele>395.0</ele><time>2026-03-29T14:13:13.082Z</time></trkpt><trkpt lat="42.96664" lon="11.7489117"><ele>395.0</ele><time>2026-03-29T14:13:14.081Z</time></trkpt><trkpt lat="42.9665717" lon="11.7490333"><ele>392.8333333333333</ele><time>2026-03-29T14:13:15.081Z</time></trkpt><trkpt lat="42.96652" lon="11.7491467"><ele>390.66666666666663</ele><time>2026-03-29T14:13:16.082Z</time></trkpt><trkpt lat="42.9664717" lon="11.7492417"><ele>388.5</ele><time>2026-03-29T14:13:17.081Z</time></trkpt><trkpt lat="42.9664367" lon="11.749335"><ele>386.3333333333333</ele><time>2026-03-29T14:13:18.082Z</time></trkpt><trkpt lat="42.9664217" lon="11.749445"><ele>384.16666666666663</ele><time>2026-03-29T14:13:19.082Z</time></trkpt><trkpt lat="42.96643" lon="11.7495433"><ele>382.0</ele><time>2026-03-29T14:13:20.082Z</time></trkpt><trkpt lat="42.966465" lon="11.7496383"><ele>380.66666666666663</ele><time>2026-03-29T14:13:21.081Z</time></trkpt><trkpt lat="42.9665167" lon="11.7497233"><ele>379.3333333333333</ele><time>2026-03-29T14:13:22.082Z</time></trkpt><trkpt lat="42.9665767" lon="11.7497867"><ele>378.0</ele><time>2026-03-29T14:13:23.082Z</time></trkpt><trkpt lat="42.966635" lon="11.7498617"><ele>376.6666666666667</ele><time>2026-03-29T14:13:24.081Z</time></trkpt><trkpt lat="42.9666683" lon="11.749955"><ele>375.33333333333337</ele><time>2026-03-29T14:13:25.082Z</time></trkpt><trkpt lat="42.9666733" lon="11.7500667"><ele>374.0</ele><time>2026-03-29T14:13:26.081Z</time></trkpt><trkpt lat="42.966655" lon="11.7501683"><ele>372.0</ele><time>2026-03-29T14:13:27.081Z</time></trkpt><trkpt lat="42.9666083" lon="11.7502533"><ele>370.0</ele><time>2026-03-29T14:13:28.081Z</time></trkpt><trkpt lat="42.9665433" lon="11.750315"><ele>368.0</ele><time>2026-03-29T14:13:29.082Z</time></trkpt><trkpt lat="42.96648" lon="11.7503617"><ele>366.0</ele><time>2026-03-29T14:13:30.081Z</time></trkpt><trkpt lat="42.96642" lon="11.7504067"><ele>364.0</ele><time>2026-03-29T14:13:31.082Z</time></trkpt><trkpt lat="42.9663583" lon="11.7504583"><ele>362.0</ele><time>2026-03-29T14:13:32.082Z</time></trkpt><trkpt lat="42.9662883" lon="11.7505217"><ele>362.0</ele><time>2026-03-29T14:13:33.081Z</time></trkpt><trkpt lat="42.9662117" lon="11.7505883"><ele>362.0</ele><time>2026-03-29T14:13:34.082Z</time></trkpt><trkpt lat="42.9661317" lon="11.7506683"><ele>362.0</ele><time>2026-03-29T14:13:35.081Z</time></trkpt><trkpt lat="42.96605" lon="11.750735"><ele>362.0</ele><time>2026-03-29T14:13:36.082Z</time></trkpt><trkpt lat="42.9659567" lon="11.750775"><ele>362.0</ele><time>2026-03-29T14:13:37.082Z</time></trkpt><trkpt lat="42.9658617" lon="11.7507833"><ele>361.5</ele><time>2026-03-29T14:13:38.082Z</time></trkpt><trkpt lat="42.9657383" lon="11.75076"><ele>361.0</ele><time>2026-03-29T14:13:39.082Z</time></trkpt><trkpt lat="42.96561" lon="11.75074"><ele>360.5</ele><time>2026-03-29T14:13:40.082Z</time></trkpt><trkpt lat="42.965505" lon="11.75074"><ele>360.0</ele><time>2026-03-29T14:13:41.081Z</time></trkpt><trkpt lat="42.9654117" lon="11.7507483"><ele>360.0</ele><time>2026-03-29T14:13:42.081Z</time></trkpt><trkpt lat="42.9653367" lon="11.7507517"><ele>360.0</ele><time>2026-03-29T14:13:43.082Z</time></trkpt><trkpt lat="42.965235" lon="11.7508017"><ele>360.0</ele><time>2026-03-29T14:13:45.081Z</time></trkpt><trkpt lat="42.96521" lon="11.75094"><ele>360.0</ele><time>2026-03-29T14:13:47.082Z</time></trkpt><trkpt lat="42.9652333" lon="11.7510233"><ele>360.0</ele><time>2026-03-29T14:13:48.082Z</time></trkpt><trkpt lat="42.9652567" lon="11.7511033"><ele>360.0</ele><time>2026-03-29T14:13:49.081Z</time></trkpt><trkpt lat="42.9652783" lon="11.7512367"><ele>359.5</ele><time>2026-03-29T14:13:51.082Z</time></trkpt><trkpt lat="42.965285" lon="11.7513483"><ele>359.0</ele><time>2026-03-29T14:13:53.082Z</time></trkpt><trkpt lat="42.9652817" lon="11.7514417"><ele>358.5</ele><time>2026-03-29T14:13:55.081Z</time></trkpt><trkpt lat="42.9652733" lon="11.7515333"><ele>358.0</ele><time>2026-03-29T14:13:57.082Z</time></trkpt><trkpt lat="42.9652667" lon="11.7516517"><ele>357.5</ele><time>2026-03-29T14:15:31.081Z</time></trkpt><trkpt lat="42.9653183" lon="11.7517017"><ele>357.0</ele><time>2026-03-29T14:15:33.082Z</time></trkpt><trkpt lat="42.96542" lon="11.7517233"><ele>357.0</ele><time>2026-03-29T14:15:35.082Z</time></trkpt><trkpt lat="42.9654817" lon="11.7517517"><ele>357.0</ele><time>2026-03-29T14:15:36.081Z</time></trkpt><trkpt lat="42.9655383" lon="11.7517967"><ele>357.0</ele><time>2026-03-29T14:15:37.082Z</time></trkpt><trkpt lat="42.9656133" lon="11.7519067"><ele>357.0</ele><time>2026-03-29T14:15:39.081Z</time></trkpt><trkpt lat="42.9656867" lon="11.7520233"><ele>357.0</ele><time>2026-03-29T14:15:41.082Z</time></trkpt><trkpt lat="42.9657783" lon="11.7521133"><ele>356.5</ele><time>2026-03-29T14:15:43.082Z</time></trkpt><trkpt lat="42.9658767" lon="11.7521833"><ele>356.0</ele><time>2026-03-29T14:15:45.082Z</time></trkpt><trkpt lat="42.9659817" lon="11.7522367"><ele>355.5</ele><time>2026-03-29T14:15:47.082Z</time></trkpt><trkpt lat="42.9660917" lon="11.7523067"><ele>355.0</ele><time>2026-03-29T14:15:49.082Z</time></trkpt><trkpt lat="42.9662033" lon="11.7523767"><ele>355.0</ele><time>2026-03-29T14:15:51.082Z</time></trkpt><trkpt lat="42.9662667" lon="11.7524167"><ele>355.0</ele><time>2026-03-29T14:15:52.082Z</time></trkpt><trkpt lat="42.966325" lon="11.752455"><ele>355.0</ele><time>2026-03-29T14:15:53.082Z</time></trkpt><trkpt lat="42.9664367" lon="11.75255"><ele>355.0</ele><time>2026-03-29T14:15:55.081Z</time></trkpt><trkpt lat="42.9664867" lon="11.7526117"><ele>355.0</ele><time>2026-03-29T14:15:56.081Z</time></trkpt><trkpt lat="42.9665317" lon="11.7526783"><ele>355.0</ele><time>2026-03-29T14:15:57.082Z</time></trkpt><trkpt lat="42.9666" lon="11.752785"><ele>355.4</ele><time>2026-03-29T14:15:59.082Z</time></trkpt><trkpt lat="42.96669" lon="11.7528767"><ele>355.8</ele><time>2026-03-29T14:16:01.082Z</time></trkpt><trkpt lat="42.96678" lon="11.7529767"><ele>356.20000000000005</ele><time>2026-03-29T14:16:03.081Z</time></trkpt><trkpt lat="42.96686" lon="11.7530783"><ele>356.6</ele><time>2026-03-29T14:16:05.082Z</time></trkpt><trkpt lat="42.9669333" lon="11.7531817"><ele>357.0</ele><time>2026-03-29T14:16:07.082Z</time></trkpt><trkpt lat="42.9670067" lon="11.7533033"><ele>355.8333333333333</ele><time>2026-03-29T14:16:09.082Z</time></trkpt><trkpt lat="42.9670883" lon="11.753415"><ele>354.6666666666667</ele><time>2026-03-29T14:16:11.082Z</time></trkpt><trkpt lat="42.967165" lon="11.7535417"><ele>353.5</ele><time>2026-03-29T14:16:13.081Z</time></trkpt><trkpt lat="42.9672067" lon="11.753615"><ele>352.33333333333337</ele><time>2026-03-29T14:16:14.082Z</time></trkpt><trkpt lat="42.9672567" lon="11.7536833"><ele>351.1666666666667</ele><time>2026-03-29T14:16:15.082Z</time></trkpt><trkpt lat="42.9673067" lon="11.7537583"><ele>350.0</ele><time>2026-03-29T14:16:16.082Z</time></trkpt><trkpt lat="42.9673583" lon="11.7538417"><ele>350.0</ele><time>2026-03-29T14:16:17.082Z</time></trkpt><trkpt lat="42.9674033" lon="11.7539333"><ele>350.0</ele><time>2026-03-29T14:16:18.082Z</time></trkpt><trkpt lat="42.9674467" lon="11.7540317"><ele>350.0</ele><time>2026-03-29T14:16:19.082Z</time></trkpt><trkpt lat="42.9674917" lon="11.754125"><ele>350.0</ele><time>2026-03-29T14:16:20.082Z</time></trkpt><trkpt lat="42.96753" lon="11.7542183"><ele>350.0</ele><time>2026-03-29T14:16:21.082Z</time></trkpt><trkpt lat="42.96757" lon="11.754305"><ele>350.0</ele><time>2026-03-29T14:16:22.082Z</time></trkpt><trkpt lat="42.9676017" lon="11.75438"><ele>349.5</ele><time>2026-03-29T14:16:23.082Z</time></trkpt><trkpt lat="42.9676767" lon="11.7545"><ele>349.0</ele><time>2026-03-29T14:16:25.082Z</time></trkpt><trkpt lat="42.96774" lon="11.754555"><ele>348.5</ele><time>2026-03-29T14:16:26.082Z</time></trkpt><trkpt lat="42.967805" lon="11.754605"><ele>348.0</ele><time>2026-03-29T14:16:27.082Z</time></trkpt><trkpt lat="42.9678783" lon="11.7546417"><ele>347.5</ele><time>2026-03-29T14:16:28.082Z</time></trkpt><trkpt lat="42.9679467" lon="11.7546667"><ele>347.0</ele><time>2026-03-29T14:16:29.082Z</time></trkpt><trkpt lat="42.9680117" lon="11.7547117"><ele>347.0</ele><time>2026-03-29T14:16:30.082Z</time></trkpt><trkpt lat="42.9680783" lon="11.754755"><ele>347.0</ele><time>2026-03-29T14:16:31.082Z</time></trkpt><trkpt lat="42.9681367" lon="11.7548117"><ele>347.0</ele><time>2026-03-29T14:16:32.082Z</time></trkpt><trkpt lat="42.968195" lon="11.7548767"><ele>347.0</ele><time>2026-03-29T14:16:33.081Z</time></trkpt><trkpt lat="42.9682483" lon="11.7549433"><ele>347.0</ele><time>2026-03-29T14:16:34.081Z</time></trkpt><trkpt lat="42.9682917" lon="11.7550167"><ele>347.0</ele><time>2026-03-29T14:16:35.081Z</time></trkpt><trkpt lat="42.9683383" lon="11.755095"><ele>347.0</ele><time>2026-03-29T14:16:36.082Z</time></trkpt><trkpt lat="42.96838" lon="11.7551683"><ele>346.5</ele><time>2026-03-29T14:16:37.081Z</time></trkpt><trkpt lat="42.9684467" lon="11.7552983"><ele>346.0</ele><time>2026-03-29T14:16:39.082Z</time></trkpt><trkpt lat="42.9684917" lon="11.7554167"><ele>345.5</ele><time>2026-03-29T14:16:41.082Z</time></trkpt><trkpt lat="42.9685383" lon="11.755525"><ele>345.0</ele><time>2026-03-29T14:17:06.081Z</time></trkpt><trkpt lat="42.9685817" lon="11.7555917"><ele>344.5</ele><time>2026-03-29T14:17:08.082Z</time></trkpt><trkpt lat="42.968605" lon="11.7556817"><ele>344.0</ele><time>2026-03-29T14:17:10.082Z</time></trkpt><trkpt lat="42.968635" lon="11.7557783"><ele>344.0</ele><time>2026-03-29T14:17:12.082Z</time></trkpt><trkpt lat="42.9686667" lon="11.7559033"><ele>344.0</ele><time>2026-03-29T14:17:14.081Z</time></trkpt><trkpt lat="42.9687017" lon="11.75602"><ele>344.0</ele><time>2026-03-29T14:17:16.082Z</time></trkpt><trkpt lat="42.96872" lon="11.7561333"><ele>344.0</ele><time>2026-03-29T14:17:18.081Z</time></trkpt><trkpt lat="42.9687733" lon="11.75621"><ele>344.0</ele><time>2026-03-29T14:17:20.082Z</time></trkpt><trkpt lat="42.9688433" lon="11.75625"><ele>344.0</ele><time>2026-03-29T14:17:24.082Z</time></trkpt><trkpt lat="42.9689633" lon="11.756265"><ele>343.6666666666667</ele><time>2026-03-29T14:17:29.082Z</time></trkpt><trkpt lat="42.9690267" lon="11.7563017"><ele>343.33333333333337</ele><time>2026-03-29T14:17:31.082Z</time></trkpt><trkpt lat="42.96909" lon="11.7563333"><ele>343.0</ele><time>2026-03-29T14:17:33.082Z</time></trkpt><trkpt lat="42.9691683" lon="11.756355"><ele>342.6666666666667</ele><time>2026-03-29T14:17:35.082Z</time></trkpt><trkpt lat="42.96925" lon="11.7564217"><ele>342.3333333333333</ele><time>2026-03-29T14:17:37.082Z</time></trkpt><trkpt lat="42.9693283" lon="11.756455"><ele>342.0</ele><time>2026-03-29T14:17:39.082Z</time></trkpt><trkpt lat="42.96949" lon="11.7564867"><ele>342.40000000000003</ele><time>2026-03-29T14:17:43.082Z</time></trkpt><trkpt lat="42.96957" lon="11.756585"><ele>342.8</ele><time>2026-03-29T14:17:45.082Z</time></trkpt><trkpt lat="42.96963" lon="11.7567383"><ele>343.2</ele><time>2026-03-29T14:17:47.082Z</time></trkpt><trkpt lat="42.9696467" lon="11.75683"><ele>343.6</ele><time>2026-03-29T14:17:48.082Z</time></trkpt><trkpt lat="42.9696633" lon="11.75693"><ele>344.0</ele><time>2026-03-29T14:17:49.081Z</time></trkpt><trkpt lat="42.9696833" lon="11.757035"><ele>344.0</ele><time>2026-03-29T14:17:50.081Z</time></trkpt><trkpt lat="42.96969" lon="11.7571417"><ele>344.0</ele><time>2026-03-29T14:17:51.082Z</time></trkpt><trkpt lat="42.96969" lon="11.757255"><ele>344.0</ele><time>2026-03-29T14:17:52.082Z</time></trkpt><trkpt lat="42.9697" lon="11.75737"><ele>344.0</ele><time>2026-03-29T14:17:53.081Z</time></trkpt><trkpt lat="42.9697083" lon="11.7574917"><ele>344.0</ele><time>2026-03-29T14:17:54.081Z</time></trkpt><trkpt lat="42.9697117" lon="11.7576133"><ele>344.0</ele><time>2026-03-29T14:17:55.082Z</time></trkpt><trkpt lat="42.9697117" lon="11.75773"><ele>343.4</ele><time>2026-03-29T14:17:56.081Z</time></trkpt><trkpt lat="42.9697083" lon="11.757835"><ele>342.79999999999995</ele><time>2026-03-29T14:17:57.082Z</time></trkpt><trkpt lat="42.9696933" lon="11.75797"><ele>342.20000000000005</ele><time>2026-03-29T14:17:59.082Z</time></trkpt><trkpt lat="42.9696633" lon="11.7580683"><ele>341.6</ele><time>2026-03-29T14:18:01.082Z</time></trkpt><trkpt lat="42.9696333" lon="11.758185"><ele>341.0</ele><time>2026-03-29T14:18:05.082Z</time></trkpt><trkpt lat="42.9695983" lon="11.758335"><ele>341.0</ele><time>2026-03-29T14:18:07.082Z</time></trkpt><trkpt lat="42.9695867" lon="11.75842"><ele>341.0</ele><time>2026-03-29T14:18:08.082Z</time></trkpt><trkpt lat="42.9695783" lon="11.7585067"><ele>341.0</ele><time>2026-03-29T14:18:09.082Z</time></trkpt><trkpt lat="42.9695633" lon="11.7586633"><ele>341.0</ele><time>2026-03-29T14:18:11.082Z</time></trkpt><trkpt lat="42.9695383" lon="11.7588117"><ele>341.0</ele><time>2026-03-29T14:18:13.082Z</time></trkpt><trkpt lat="42.9695083" lon="11.7588983"><ele>341.0</ele><time>2026-03-29T14:18:16.082Z</time></trkpt><trkpt lat="42.96947" lon="11.75898"><ele>340.4</ele><time>2026-03-29T14:18:21.081Z</time></trkpt><trkpt lat="42.96945" lon="11.75909"><ele>339.8</ele><time>2026-03-29T14:18:23.082Z</time></trkpt><trkpt lat="42.9694167" lon="11.7592467"><ele>339.2</ele><time>2026-03-29T14:18:25.082Z</time></trkpt><trkpt lat="42.9693783" lon="11.759405"><ele>338.59999999999997</ele><time>2026-03-29T14:18:27.081Z</time></trkpt><trkpt lat="42.96936" lon="11.759565"><ele>338.0</ele><time>2026-03-29T14:18:29.083Z</time></trkpt><trkpt lat="42.9693567" lon="11.7597117"><ele>337.83333333333337</ele><time>2026-03-29T14:18:31.083Z</time></trkpt><trkpt lat="42.96935" lon="11.7598033"><ele>337.6666666666667</ele><time>2026-03-29T14:18:33.083Z</time></trkpt><trkpt lat="42.9693283" lon="11.75989"><ele>337.5</ele><time>2026-03-29T14:18:37.083Z</time></trkpt><trkpt lat="42.96931" lon="11.759975"><ele>337.3333333333333</ele><time>2026-03-29T14:18:42.083Z</time></trkpt><trkpt lat="42.9693067" lon="11.76012"><ele>337.16666666666663</ele><time>2026-03-29T14:18:44.083Z</time></trkpt><trkpt lat="42.9693033" lon="11.7602933"><ele>337.0</ele><time>2026-03-29T14:18:46.083Z</time></trkpt><trkpt lat="42.969345" lon="11.760425"><ele>336.5</ele><time>2026-03-29T14:18:48.083Z</time></trkpt><trkpt lat="42.9694" lon="11.760525"><ele>336.0</ele><time>2026-03-29T14:18:50.083Z</time></trkpt><trkpt lat="42.9694717" lon="11.7606117"><ele>335.5</ele><time>2026-03-29T14:18:52.083Z</time></trkpt><trkpt lat="42.96956" lon="11.7607133"><ele>335.0</ele><time>2026-03-29T14:18:54.083Z</time></trkpt><trkpt lat="42.969615" lon="11.7607683"><ele>334.5</ele><time>2026-03-29T14:18:55.082Z</time></trkpt><trkpt lat="42.9696717" lon="11.7608283"><ele>334.0</ele><time>2026-03-29T14:18:56.083Z</time></trkpt><trkpt lat="42.969725" lon="11.7608883"><ele>334.0</ele><time>2026-03-29T14:18:57.083Z</time></trkpt><trkpt lat="42.9697767" lon="11.7609417"><ele>334.0</ele><time>2026-03-29T14:18:58.083Z</time></trkpt><trkpt lat="42.9698617" lon="11.7610267"><ele>334.0</ele><time>2026-03-29T14:19:00.083Z</time></trkpt><trkpt lat="42.9699083" lon="11.7610967"><ele>334.0</ele><time>2026-03-29T14:19:04.083Z</time></trkpt><trkpt lat="42.9699617" lon="11.76118"><ele>334.0</ele><time>2026-03-29T14:19:07.083Z</time></trkpt><trkpt lat="42.9700417" lon="11.7612367"><ele>334.0</ele><time>2026-03-29T14:19:09.082Z</time></trkpt><trkpt lat="42.9701533" lon="11.7612733"><ele>333.66666666666663</ele><time>2026-03-29T14:19:11.083Z</time></trkpt><trkpt lat="42.9702467" lon="11.76137"><ele>333.3333333333333</ele><time>2026-03-29T14:19:13.083Z</time></trkpt><trkpt lat="42.970315" lon="11.7614117"><ele>333.0</ele><time>2026-03-29T14:19:17.083Z</time></trkpt><trkpt lat="42.9703783" lon="11.7614083"><ele>332.6666666666667</ele><time>2026-03-29T14:19:20.082Z</time></trkpt><trkpt lat="42.9704933" lon="11.7614417"><ele>332.33333333333337</ele><time>2026-03-29T14:21:22.083Z</time></trkpt><trkpt lat="42.9704283" lon="11.7614083"><ele>332.0</ele><time>2026-03-29T14:21:32.082Z</time></trkpt><trkpt lat="42.9703517" lon="11.7614317"><ele>332.0</ele><time>2026-03-29T14:21:34.082Z</time></trkpt><trkpt lat="42.9702567" lon="11.761405"><ele>332.0</ele><time>2026-03-29T14:21:36.083Z</time></trkpt><trkpt lat="42.9701467" lon="11.7613033"><ele>332.0</ele><time>2026-03-29T14:21:38.083Z</time></trkpt><trkpt lat="42.970075" lon="11.76124"><ele>332.0</ele><time>2026-03-29T14:21:39.082Z</time></trkpt><trkpt lat="42.9699967" lon="11.7612033"><ele>332.0</ele><time>2026-03-29T14:21:40.083Z</time></trkpt><trkpt lat="42.969895" lon="11.7612183"><ele>332.0</ele><time>2026-03-29T14:21:42.083Z</time></trkpt><trkpt lat="42.9698333" lon="11.761315"><ele>332.0</ele><time>2026-03-29T14:21:44.082Z</time></trkpt><trkpt lat="42.9698033" lon="11.761455"><ele>332.0</ele><time>2026-03-29T14:21:46.083Z</time></trkpt><trkpt lat="42.9697783" lon="11.7615967"><ele>332.0</ele><time>2026-03-29T14:21:48.083Z</time></trkpt><trkpt lat="42.9697333" lon="11.7617383"><ele>332.0</ele><time>2026-03-29T14:21:50.082Z</time></trkpt><trkpt lat="42.9697067" lon="11.7618667"><ele>332.0</ele><time>2026-03-29T14:21:52.083Z</time></trkpt><trkpt lat="42.9697167" lon="11.7620017"><ele>332.0</ele><time>2026-03-29T14:21:54.083Z</time></trkpt><trkpt lat="42.96974" lon="11.762155"><ele>332.0</ele><time>2026-03-29T14:21:56.083Z</time></trkpt><trkpt lat="42.9697483" lon="11.762295"><ele>332.0</ele><time>2026-03-29T14:21:58.083Z</time></trkpt><trkpt lat="42.9697567" lon="11.7624317"><ele>332.0</ele><time>2026-03-29T14:22:00.082Z</time></trkpt><trkpt lat="42.9697717" lon="11.7625633"><ele>332.0</ele><time>2026-03-29T14:22:02.083Z</time></trkpt><trkpt lat="42.969775" lon="11.76266"><ele>332.0</ele><time>2026-03-29T14:22:03.083Z</time></trkpt><trkpt lat="42.9697717" lon="11.76276"><ele>332.0</ele><time>2026-03-29T14:22:04.083Z</time></trkpt><trkpt lat="42.969775" lon="11.762875"><ele>332.0</ele><time>2026-03-29T14:22:05.082Z</time></trkpt><trkpt lat="42.9697783" lon="11.7629933"><ele>332.0</ele><time>2026-03-29T14:22:06.082Z</time></trkpt><trkpt lat="42.9697817" lon="11.763125"><ele>332.0</ele><time>2026-03-29T14:22:07.083Z</time></trkpt><trkpt lat="42.9697883" lon="11.7632533"><ele>331.83333333333337</ele><time>2026-03-29T14:22:08.082Z</time></trkpt><trkpt lat="42.969785" lon="11.7633633"><ele>331.6666666666667</ele><time>2026-03-29T14:22:09.083Z</time></trkpt><trkpt lat="42.9697833" lon="11.7634633"><ele>331.5</ele><time>2026-03-29T14:22:10.083Z</time></trkpt><trkpt lat="42.9697867" lon="11.7635583"><ele>331.3333333333333</ele><time>2026-03-29T14:22:11.083Z</time></trkpt><trkpt lat="42.969805" lon="11.763645"><ele>331.16666666666663</ele><time>2026-03-29T14:22:12.083Z</time></trkpt><trkpt lat="42.96982" lon="11.7637317"><ele>331.0</ele><time>2026-03-29T14:22:13.083Z</time></trkpt><trkpt lat="42.9698633" lon="11.76386"><ele>330.8</ele><time>2026-03-29T14:22:15.083Z</time></trkpt><trkpt lat="42.9699283" lon="11.76397"><ele>330.6</ele><time>2026-03-29T14:22:17.083Z</time></trkpt><trkpt lat="42.9699583" lon="11.764095"><ele>330.4</ele><time>2026-03-29T14:22:19.083Z</time></trkpt><trkpt lat="42.9699833" lon="11.764215"><ele>330.2</ele><time>2026-03-29T14:22:21.083Z</time></trkpt><trkpt lat="42.9700367" lon="11.7643233"><ele>330.0</ele><time>2026-03-29T14:23:03.083Z</time></trkpt><trkpt lat="42.970115" lon="11.7644083"><ele>329.7142857142857</ele><time>2026-03-29T14:23:05.083Z</time></trkpt><trkpt lat="42.9701767" lon="11.7644467"><ele>329.42857142857144</ele><time>2026-03-29T14:23:06.083Z</time></trkpt><trkpt lat="42.9702467" lon="11.7644833"><ele>329.1428571428571</ele><time>2026-03-29T14:23:07.083Z</time></trkpt><trkpt lat="42.9703133" lon="11.764535"><ele>328.8571428571429</ele><time>2026-03-29T14:23:08.083Z</time></trkpt><trkpt lat="42.970365" lon="11.7645967"><ele>328.57142857142856</ele><time>2026-03-29T14:23:09.083Z</time></trkpt><trkpt lat="42.9704167" lon="11.7646617"><ele>328.2857142857143</ele><time>2026-03-29T14:23:10.083Z</time></trkpt><trkpt lat="42.970475" lon="11.7647417"><ele>328.0</ele><time>2026-03-29T14:23:11.083Z</time></trkpt><trkpt lat="42.9705417" lon="11.76482"><ele>328.0</ele><time>2026-03-29T14:23:12.082Z</time></trkpt><trkpt lat="42.9706" lon="11.7649"><ele>328.0</ele><time>2026-03-29T14:23:13.083Z</time></trkpt><trkpt lat="42.9706567" lon="11.7649733"><ele>328.0</ele><time>2026-03-29T14:23:14.082Z</time></trkpt><trkpt lat="42.9707083" lon="11.7650367"><ele>328.0</ele><time>2026-03-29T14:23:15.083Z</time></trkpt><trkpt lat="42.970785" lon="11.7651167"><ele>328.0</ele><time>2026-03-29T14:23:17.083Z</time></trkpt><trkpt lat="42.9708433" lon="11.765195"><ele>328.0</ele><time>2026-03-29T14:23:20.083Z</time></trkpt><trkpt lat="42.9708467" lon="11.7652867"><ele>327.99999999999994</ele><time>2026-03-29T14:23:25.083Z</time></trkpt><trkpt lat="42.9708417" lon="11.7653733"><ele>328.0</ele><time>2026-03-29T14:23:30.083Z</time></trkpt><trkpt lat="42.9709167" lon="11.765465"><ele>328.0</ele><time>2026-03-29T14:25:45.082Z</time></trkpt><trkpt lat="42.9709767" lon="11.765535"><ele>328.0</ele><time>2026-03-29T14:25:51.083Z</time></trkpt><trkpt lat="42.971005" lon="11.7656133"><ele>328.0</ele><time>2026-03-29T14:25:55.082Z</time></trkpt><trkpt lat="42.9709967" lon="11.7657017"><ele>327.99999999999994</ele><time>2026-03-29T14:25:59.082Z</time></trkpt><trkpt lat="42.97096" lon="11.7657817"><ele>328.0</ele><time>2026-03-29T14:26:02.083Z</time></trkpt><trkpt lat="42.9709217" lon="11.765875"><ele>327.85714285714283</ele><time>2026-03-29T14:26:06.083Z</time></trkpt><trkpt lat="42.9708967" lon="11.7659617"><ele>327.7142857142857</ele><time>2026-03-29T14:26:09.082Z</time></trkpt><trkpt lat="42.9709333" lon="11.7658883"><ele>327.57142857142856</ele><time>2026-03-29T14:26:25.083Z</time></trkpt><trkpt lat="42.970955" lon="11.7657917"><ele>327.42857142857144</ele><time>2026-03-29T14:26:32.084Z</time></trkpt><trkpt lat="42.9709983" lon="11.76572"><ele>327.2857142857143</ele><time>2026-03-29T14:26:40.083Z</time></trkpt><trkpt lat="42.9710133" lon="11.765615"><ele>327.1428571428571</ele><time>2026-03-29T14:28:01.084Z</time></trkpt><trkpt lat="42.971005" lon="11.7657267"><ele>327.0</ele><time>2026-03-29T14:28:19.084Z</time></trkpt><trkpt lat="42.970975" lon="11.7658117"><ele>327.0</ele><time>2026-03-29T14:28:31.083Z</time></trkpt><trkpt lat="42.9709033" lon="11.7659317"><ele>327.0</ele><time>2026-03-29T14:29:07.083Z</time></trkpt><trkpt lat="42.9708883" lon="11.7660167"><ele>327.0</ele><time>2026-03-29T14:29:14.084Z</time></trkpt><trkpt lat="42.9708833" lon="11.7661033"><ele>327.0</ele><time>2026-03-29T14:29:53.083Z</time></trkpt><trkpt lat="42.9709067" lon="11.766255"><ele>327.0</ele><time>2026-03-29T14:29:55.083Z</time></trkpt><trkpt lat="42.97092" lon="11.7663717"><ele>327.0</ele><time>2026-03-29T14:29:56.084Z</time></trkpt><trkpt lat="42.9709383" lon="11.766485"><ele>327.3333333333333</ele><time>2026-03-29T14:29:57.084Z</time></trkpt><trkpt lat="42.9709667" lon="11.7665783"><ele>327.6666666666667</ele><time>2026-03-29T14:29:58.084Z</time></trkpt><trkpt lat="42.97104" lon="11.7666583"><ele>328.0</ele><time>2026-03-29T14:30:24.084Z</time></trkpt><trkpt lat="42.9711433" lon="11.7666417"><ele>328.33333333333337</ele><time>2026-03-29T14:30:26.083Z</time></trkpt><trkpt lat="42.9712117" lon="11.7666233"><ele>328.6666666666667</ele><time>2026-03-29T14:30:27.083Z</time></trkpt><trkpt lat="42.971285" lon="11.766615"><ele>329.0</ele><time>2026-03-29T14:30:28.083Z</time></trkpt><trkpt lat="42.9713533" lon="11.7666117"><ele>329.0</ele><time>2026-03-29T14:30:29.084Z</time></trkpt><trkpt lat="42.9714633" lon="11.7666367"><ele>329.0</ele><time>2026-03-29T14:30:31.084Z</time></trkpt><trkpt lat="42.9715733" lon="11.7666633"><ele>329.0</ele><time>2026-03-29T14:30:33.083Z</time></trkpt><trkpt lat="42.9716817" lon="11.7666883"><ele>329.0</ele><time>2026-03-29T14:30:35.084Z</time></trkpt><trkpt lat="42.97181" lon="11.7667"><ele>328.79999999999995</ele><time>2026-03-29T14:30:37.084Z</time></trkpt><trkpt lat="42.9718817" lon="11.7666833"><ele>328.59999999999997</ele><time>2026-03-29T14:30:38.084Z</time></trkpt><trkpt lat="42.9719583" lon="11.76664"><ele>328.4</ele><time>2026-03-29T14:30:39.084Z</time></trkpt><trkpt lat="42.972045" lon="11.76658"><ele>328.2</ele><time>2026-03-29T14:30:40.084Z</time></trkpt><trkpt lat="42.9721383" lon="11.7665033"><ele>328.0</ele><time>2026-03-29T14:30:41.083Z</time></trkpt><trkpt lat="42.9722267" lon="11.7664233"><ele>328.0</ele><time>2026-03-29T14:30:42.084Z</time></trkpt><trkpt lat="42.9723133" lon="11.7663517"><ele>328.0</ele><time>2026-03-29T14:30:43.083Z</time></trkpt><trkpt lat="42.9723967" lon="11.7663"><ele>328.0</ele><time>2026-03-29T14:30:44.084Z</time></trkpt><trkpt lat="42.9724817" lon="11.7662483"><ele>328.0</ele><time>2026-03-29T14:30:45.084Z</time></trkpt><trkpt lat="42.9725733" lon="11.7661933"><ele>328.0</ele><time>2026-03-29T14:30:46.083Z</time></trkpt><trkpt lat="42.9726767" lon="11.7661133"><ele>328.0</ele><time>2026-03-29T14:30:47.083Z</time></trkpt><trkpt lat="42.9727933" lon="11.7660017"><ele>328.0</ele><time>2026-03-29T14:30:48.084Z</time></trkpt><trkpt lat="42.972925" lon="11.7659033"><ele>328.0</ele><time>2026-03-29T14:30:49.084Z</time></trkpt><trkpt lat="42.9730667" lon="11.7658317"><ele>328.0</ele><time>2026-03-29T14:30:50.084Z</time></trkpt><trkpt lat="42.973225" lon="11.7657817"><ele>328.0</ele><time>2026-03-29T14:30:51.083Z</time></trkpt><trkpt lat="42.973375" lon="11.7657333"><ele>328.0</ele><time>2026-03-29T14:30:52.084Z</time></trkpt><trkpt lat="42.97351" lon="11.765695"><ele>328.0</ele><time>2026-03-29T14:30:53.083Z</time></trkpt><trkpt lat="42.97363" lon="11.765655"><ele>328.0</ele><time>2026-03-29T14:30:54.084Z</time></trkpt><trkpt lat="42.9737517" lon="11.7656233"><ele>328.0</ele><time>2026-03-29T14:30:55.084Z</time></trkpt><trkpt lat="42.9738817" lon="11.765585"><ele>328.0</ele><time>2026-03-29T14:30:56.084Z</time></trkpt><trkpt lat="42.97401" lon="11.765545"><ele>328.0</ele><time>2026-03-29T14:30:57.084Z</time></trkpt><trkpt lat="42.9741433" lon="11.7655083"><ele>328.0</ele><time>2026-03-29T14:30:58.084Z</time></trkpt><trkpt lat="42.97428" lon="11.7654717"><ele>327.5</ele><time>2026-03-29T14:30:59.083Z</time></trkpt><trkpt lat="42.974425" lon="11.7654433"><ele>327.0</ele><time>2026-03-29T14:31:00.084Z</time></trkpt><trkpt lat="42.97457" lon="11.7654167"><ele>326.5</ele><time>2026-03-29T14:31:01.084Z</time></trkpt><trkpt lat="42.974715" lon="11.7653983"><ele>326.0</ele><time>2026-03-29T14:31:02.084Z</time></trkpt><trkpt lat="42.974855" lon="11.7653783"><ele>326.0</ele><time>2026-03-29T14:31:03.084Z</time></trkpt><trkpt lat="42.9749767" lon="11.765365"><ele>326.0</ele><time>2026-03-29T14:31:04.084Z</time></trkpt><trkpt lat="42.9750517" lon="11.7653483"><ele>326.0</ele><time>2026-03-29T14:31:05.084Z</time></trkpt><trkpt lat="42.9751433" lon="11.7652933"><ele>326.0</ele><time>2026-03-29T14:31:06.084Z</time></trkpt><trkpt lat="42.9752233" lon="11.7652067"><ele>326.0</ele><time>2026-03-29T14:31:07.084Z</time></trkpt><trkpt lat="42.9752867" lon="11.7650783"><ele>325.5</ele><time>2026-03-29T14:31:08.084Z</time></trkpt><trkpt lat="42.97535" lon="11.7649567"><ele>325.0</ele><time>2026-03-29T14:31:09.084Z</time></trkpt><trkpt lat="42.975405" lon="11.7648717"><ele>324.5</ele><time>2026-03-29T14:31:10.084Z</time></trkpt><trkpt lat="42.97546" lon="11.7648117"><ele>324.0</ele><time>2026-03-29T14:31:11.083Z</time></trkpt><trkpt lat="42.9755133" lon="11.764765"><ele>323.5</ele><time>2026-03-29T14:31:12.083Z</time></trkpt><trkpt lat="42.9756" lon="11.764725"><ele>323.0</ele><time>2026-03-29T14:31:14.083Z</time></trkpt><trkpt lat="42.97568" lon="11.76474"><ele>323.0</ele><time>2026-03-29T14:31:16.084Z</time></trkpt><trkpt lat="42.975765" lon="11.7648033"><ele>323.0</ele><time>2026-03-29T14:31:18.084Z</time></trkpt><trkpt lat="42.97585" lon="11.7648933"><ele>323.0</ele><time>2026-03-29T14:31:20.084Z</time></trkpt><trkpt lat="42.97591" lon="11.76492"><ele>323.0</ele><time>2026-03-29T14:31:21.084Z</time></trkpt><trkpt lat="42.9760133" lon="11.7649067"><ele>323.0</ele><time>2026-03-29T14:31:22.084Z</time></trkpt><trkpt lat="42.9761533" lon="11.76487"><ele>323.6666666666667</ele><time>2026-03-29T14:31:23.084Z</time></trkpt><trkpt lat="42.9763133" lon="11.7648167"><ele>324.3333333333333</ele><time>2026-03-29T14:31:24.083Z</time></trkpt><trkpt lat="42.9764683" lon="11.7647633"><ele>325.0</ele><time>2026-03-29T14:31:25.084Z</time></trkpt><trkpt lat="42.9766067" lon="11.7647133"><ele>326.25</ele><time>2026-03-29T14:31:26.084Z</time></trkpt><trkpt lat="42.9767333" lon="11.7646967"><ele>327.5</ele><time>2026-03-29T14:31:27.084Z</time></trkpt><trkpt lat="42.9768467" lon="11.764695"><ele>328.75</ele><time>2026-03-29T14:31:28.083Z</time></trkpt><trkpt lat="42.9769617" lon="11.7646917"><ele>330.0</ele><time>2026-03-29T14:31:29.084Z</time></trkpt><trkpt lat="42.9770733" lon="11.764675"><ele>330.0</ele><time>2026-03-29T14:31:30.083Z</time></trkpt><trkpt lat="42.9771617" lon="11.7646533"><ele>330.0</ele><time>2026-03-29T14:31:31.083Z</time></trkpt><trkpt lat="42.9772417" lon="11.7646233"><ele>330.0</ele><time>2026-03-29T14:31:32.084Z</time></trkpt><trkpt lat="42.9773083" lon="11.7646067"><ele>330.0</ele><time>2026-03-29T14:31:33.084Z</time></trkpt><trkpt lat="42.977375" lon="11.7646217"><ele>330.0</ele><time>2026-03-29T14:31:34.083Z</time></trkpt><trkpt lat="42.9774383" lon="11.7646783"><ele>330.0</ele><time>2026-03-29T14:31:35.084Z</time></trkpt><trkpt lat="42.977505" lon="11.7648"><ele>330.2</ele><time>2026-03-29T14:31:36.084Z</time></trkpt><trkpt lat="42.9775667" lon="11.7649217"><ele>330.4</ele><time>2026-03-29T14:31:37.083Z</time></trkpt><trkpt lat="42.9776283" lon="11.7650383"><ele>330.6</ele><time>2026-03-29T14:31:38.084Z</time></trkpt><trkpt lat="42.9776917" lon="11.765145"><ele>330.8</ele><time>2026-03-29T14:31:39.084Z</time></trkpt><trkpt lat="42.9777633" lon="11.7652467"><ele>331.0</ele><time>2026-03-29T14:31:40.084Z</time></trkpt><trkpt lat="42.9778233" lon="11.7653533"><ele>331.20000000000005</ele><time>2026-03-29T14:31:41.084Z</time></trkpt><trkpt lat="42.97789" lon="11.765455"><ele>331.40000000000003</ele><time>2026-03-29T14:31:42.084Z</time></trkpt><trkpt lat="42.9779583" lon="11.7655433"><ele>331.6</ele><time>2026-03-29T14:31:43.083Z</time></trkpt><trkpt lat="42.9780367" lon="11.765615"><ele>331.8</ele><time>2026-03-29T14:31:44.084Z</time></trkpt><trkpt lat="42.978115" lon="11.7656633"><ele>332.0</ele><time>2026-03-29T14:31:45.084Z</time></trkpt><trkpt lat="42.9781933" lon="11.76569"><ele>332.0</ele><time>2026-03-29T14:31:46.084Z</time></trkpt><trkpt lat="42.9782633" lon="11.7656917"><ele>332.0</ele><time>2026-03-29T14:31:47.084Z</time></trkpt><trkpt lat="42.9783367" lon="11.7656717"><ele>332.0</ele><time>2026-03-29T14:31:48.083Z</time></trkpt><trkpt lat="42.978435" lon="11.7656033"><ele>332.0</ele><time>2026-03-29T14:31:50.084Z</time></trkpt><trkpt lat="42.9785" lon="11.765525"><ele>332.0</ele><time>2026-03-29T14:31:52.083Z</time></trkpt><trkpt lat="42.9785517" lon="11.76536"><ele>332.6</ele><time>2026-03-29T14:31:54.083Z</time></trkpt><trkpt lat="42.9785667" lon="11.765245"><ele>333.20000000000005</ele><time>2026-03-29T14:31:55.084Z</time></trkpt><trkpt lat="42.9785767" lon="11.7651383"><ele>333.8</ele><time>2026-03-29T14:31:56.084Z</time></trkpt><trkpt lat="42.9785933" lon="11.7650083"><ele>334.4</ele><time>2026-03-29T14:31:57.084Z</time></trkpt><trkpt lat="42.978625" lon="11.764885"><ele>335.0</ele><time>2026-03-29T14:31:58.084Z</time></trkpt><trkpt lat="42.978675" lon="11.764755"><ele>335.0</ele><time>2026-03-29T14:31:59.084Z</time></trkpt><trkpt lat="42.9787417" lon="11.7646383"><ele>335.0</ele><time>2026-03-29T14:32:00.083Z</time></trkpt><trkpt lat="42.9788217" lon="11.764525"><ele>335.0</ele><time>2026-03-29T14:32:01.084Z</time></trkpt><trkpt lat="42.9789233" lon="11.7644183"><ele>335.0</ele><time>2026-03-29T14:32:02.084Z</time></trkpt><trkpt lat="42.9790367" lon="11.7643333"><ele>334.5</ele><time>2026-03-29T14:32:03.083Z</time></trkpt><trkpt lat="42.979145" lon="11.76425"><ele>334.0</ele><time>2026-03-29T14:32:04.084Z</time></trkpt><trkpt lat="42.9792633" lon="11.7641817"><ele>333.5</ele><time>2026-03-29T14:32:05.084Z</time></trkpt><trkpt lat="42.9793767" lon="11.7641017"><ele>333.0</ele><time>2026-03-29T14:32:06.084Z</time></trkpt><trkpt lat="42.9794917" lon="11.764025"><ele>333.0</ele><time>2026-03-29T14:32:07.084Z</time></trkpt><trkpt lat="42.9796017" lon="11.7639383"><ele>333.0</ele><time>2026-03-29T14:32:08.084Z</time></trkpt><trkpt lat="42.9797467" lon="11.7638333"><ele>333.0</ele><time>2026-03-29T14:32:09.084Z</time></trkpt><trkpt lat="42.9799217" lon="11.7637017"><ele>333.6666666666667</ele><time>2026-03-29T14:32:10.083Z</time></trkpt><trkpt lat="42.9801167" lon="11.76356"><ele>334.33333333333337</ele><time>2026-03-29T14:32:11.084Z</time></trkpt><trkpt lat="42.9803017" lon="11.76342"><ele>335.0</ele><time>2026-03-29T14:32:12.084Z</time></trkpt><trkpt lat="42.9804717" lon="11.7632983"><ele>333.6666666666667</ele><time>2026-03-29T14:32:13.084Z</time></trkpt><trkpt lat="42.9806317" lon="11.7631933"><ele>332.3333333333333</ele><time>2026-03-29T14:32:14.084Z</time></trkpt><trkpt lat="42.9807867" lon="11.7630883"><ele>331.0</ele><time>2026-03-29T14:32:15.083Z</time></trkpt><trkpt lat="42.98094" lon="11.7629883"><ele>331.0</ele><time>2026-03-29T14:32:16.083Z</time></trkpt><trkpt lat="42.981075" lon="11.76289"><ele>331.0</ele><time>2026-03-29T14:32:17.084Z</time></trkpt><trkpt lat="42.9812033" lon="11.7628"><ele>331.0</ele><time>2026-03-29T14:32:18.084Z</time></trkpt><trkpt lat="42.98133" lon="11.7627167"><ele>331.0</ele><time>2026-03-29T14:32:19.084Z</time></trkpt><trkpt lat="42.9814567" lon="11.76263"><ele>330.0</ele><time>2026-03-29T14:32:20.083Z</time></trkpt><trkpt lat="42.981585" lon="11.762535"><ele>329.0</ele><time>2026-03-29T14:32:21.084Z</time></trkpt><trkpt lat="42.9817217" lon="11.7624333"><ele>328.0</ele><time>2026-03-29T14:32:22.084Z</time></trkpt><trkpt lat="42.981865" lon="11.7623333"><ele>328.0</ele><time>2026-03-29T14:32:23.084Z</time></trkpt><trkpt lat="42.9820133" lon="11.7622267"><ele>328.0</ele><time>2026-03-29T14:32:24.084Z</time></trkpt><trkpt lat="42.9821617" lon="11.7621133"><ele>328.0</ele><time>2026-03-29T14:32:25.083Z</time></trkpt><trkpt lat="42.9823167" lon="11.762"><ele>328.0</ele><time>2026-03-29T14:32:26.084Z</time></trkpt><trkpt lat="42.9824783" lon="11.76189"><ele>328.0</ele><time>2026-03-29T14:32:27.084Z</time></trkpt><trkpt lat="42.9826383" lon="11.7617683"><ele>328.0</ele><time>2026-03-29T14:32:28.084Z</time></trkpt><trkpt lat="42.9827983" lon="11.7616483"><ele>328.66666666666663</ele><time>2026-03-29T14:32:29.084Z</time></trkpt><trkpt lat="42.9829617" lon="11.7615283"><ele>329.3333333333333</ele><time>2026-03-29T14:32:30.084Z</time></trkpt><trkpt lat="42.9831333" lon="11.76142"><ele>330.0</ele><time>2026-03-29T14:32:31.084Z</time></trkpt><trkpt lat="42.9832933" lon="11.761325"><ele>331.0</ele><time>2026-03-29T14:32:32.084Z</time></trkpt><trkpt lat="42.9834533" lon="11.7612517"><ele>332.0</ele><time>2026-03-29T14:32:33.083Z</time></trkpt><trkpt lat="42.9836133" lon="11.7612067"><ele>333.0</ele><time>2026-03-29T14:32:34.084Z</time></trkpt><trkpt lat="42.983775" lon="11.761205"><ele>333.0</ele><time>2026-03-29T14:32:35.084Z</time></trkpt><trkpt lat="42.9839467" lon="11.761235"><ele>333.0</ele><time>2026-03-29T14:32:36.084Z</time></trkpt><trkpt lat="42.9841117" lon="11.7613133"><ele>333.0</ele><time>2026-03-29T14:32:37.083Z</time></trkpt><trkpt lat="42.9842767" lon="11.761425"><ele>332.3333333333333</ele><time>2026-03-29T14:32:38.083Z</time></trkpt><trkpt lat="42.9844367" lon="11.7615567"><ele>331.66666666666663</ele><time>2026-03-29T14:32:39.083Z</time></trkpt><trkpt lat="42.9846017" lon="11.76169"><ele>331.0</ele><time>2026-03-29T14:32:40.084Z</time></trkpt><trkpt lat="42.9847683" lon="11.7618317"><ele>331.66666666666663</ele><time>2026-03-29T14:32:41.084Z</time></trkpt><trkpt lat="42.9849333" lon="11.7619683"><ele>332.3333333333333</ele><time>2026-03-29T14:32:42.084Z</time></trkpt><trkpt lat="42.9850917" lon="11.7620983"><ele>333.0</ele><time>2026-03-29T14:32:43.083Z</time></trkpt><trkpt lat="42.9852383" lon="11.7622233"><ele>333.0</ele><time>2026-03-29T14:32:44.083Z</time></trkpt><trkpt lat="42.985375" lon="11.7623183"><ele>333.0</ele><time>2026-03-29T14:32:45.084Z</time></trkpt><trkpt lat="42.9855033" lon="11.762375"><ele>333.0</ele><time>2026-03-29T14:32:46.084Z</time></trkpt><trkpt lat="42.9856367" lon="11.7623867"><ele>333.0</ele><time>2026-03-29T14:32:47.083Z</time></trkpt><trkpt lat="42.9857733" lon="11.7623433"><ele>332.5</ele><time>2026-03-29T14:32:48.083Z</time></trkpt><trkpt lat="42.9859017" lon="11.7622867"><ele>332.0</ele><time>2026-03-29T14:32:49.084Z</time></trkpt><trkpt lat="42.9860433" lon="11.76222"><ele>331.5</ele><time>2026-03-29T14:32:50.083Z</time></trkpt><trkpt lat="42.9862" lon="11.7621517"><ele>331.0</ele><time>2026-03-29T14:32:51.083Z</time></trkpt><trkpt lat="42.9863567" lon="11.7620817"><ele>331.0</ele><time>2026-03-29T14:32:52.084Z</time></trkpt><trkpt lat="42.98651" lon="11.7620083"><ele>331.0</ele><time>2026-03-29T14:32:53.084Z</time></trkpt><trkpt lat="42.9866783" lon="11.7619433"><ele>331.0</ele><time>2026-03-29T14:32:54.084Z</time></trkpt><trkpt lat="42.986855" lon="11.76189"><ele>331.66666666666663</ele><time>2026-03-29T14:32:55.084Z</time></trkpt><trkpt lat="42.98704" lon="11.76188"><ele>332.3333333333333</ele><time>2026-03-29T14:32:56.084Z</time></trkpt><trkpt lat="42.9872083" lon="11.76189"><ele>333.0</ele><time>2026-03-29T14:32:57.084Z</time></trkpt><trkpt lat="42.9873783" lon="11.761935"><ele>334.0</ele><time>2026-03-29T14:32:58.084Z</time></trkpt><trkpt lat="42.9875417" lon="11.7620083"><ele>335.0</ele><time>2026-03-29T14:32:59.084Z</time></trkpt><trkpt lat="42.9877033" lon="11.7621067"><ele>336.0</ele><time>2026-03-29T14:33:00.084Z</time></trkpt><trkpt lat="42.9878633" lon="11.7622183"><ele>336.0</ele><time>2026-03-29T14:33:01.084Z</time></trkpt><trkpt lat="42.98802" lon="11.7623267"><ele>336.0</ele><time>2026-03-29T14:33:02.084Z</time></trkpt><trkpt lat="42.98818" lon="11.762415"><ele>336.0</ele><time>2026-03-29T14:33:03.084Z</time></trkpt><trkpt lat="42.98835" lon="11.7624667"><ele>337.0</ele><time>2026-03-29T14:33:04.084Z</time></trkpt><trkpt lat="42.9885167" lon="11.76249"><ele>338.0</ele><time>2026-03-29T14:33:05.084Z</time></trkpt><trkpt lat="42.9886967" lon="11.76249"><ele>339.0</ele><time>2026-03-29T14:33:06.084Z</time></trkpt><trkpt lat="42.98887" lon="11.7624917"><ele>339.0</ele><time>2026-03-29T14:33:07.083Z</time></trkpt><trkpt lat="42.98905" lon="11.7624883"><ele>339.0</ele><time>2026-03-29T14:33:08.084Z</time></trkpt><trkpt lat="42.9892283" lon="11.7624917"><ele>339.0</ele><time>2026-03-29T14:33:09.084Z</time></trkpt><trkpt lat="42.9894117" lon="11.7624917"><ele>340.0</ele><time>2026-03-29T14:33:10.084Z</time></trkpt><trkpt lat="42.9895967" lon="11.7624883"><ele>341.0</ele><time>2026-03-29T14:33:11.084Z</time></trkpt><trkpt lat="42.9897833" lon="11.762485"><ele>342.0</ele><time>2026-03-29T14:33:12.084Z</time></trkpt><trkpt lat="42.9899667" lon="11.762485"><ele>342.3333333333333</ele><time>2026-03-29T14:33:13.083Z</time></trkpt><trkpt lat="42.9901533" lon="11.762485"><ele>342.66666666666663</ele><time>2026-03-29T14:33:14.084Z</time></trkpt><trkpt lat="42.9903317" lon="11.76248"><ele>343.0</ele><time>2026-03-29T14:33:15.084Z</time></trkpt><trkpt lat="42.9905117" lon="11.762485"><ele>343.0</ele><time>2026-03-29T14:33:16.084Z</time></trkpt><trkpt lat="42.9906883" lon="11.7624783"><ele>343.0</ele><time>2026-03-29T14:33:17.084Z</time></trkpt><trkpt lat="42.9908517" lon="11.7624817"><ele>343.0</ele><time>2026-03-29T14:33:18.084Z</time></trkpt><trkpt lat="42.9909917" lon="11.7624817"><ele>343.5</ele><time>2026-03-29T14:33:19.084Z</time></trkpt><trkpt lat="42.9911283" lon="11.762485"><ele>344.0</ele><time>2026-03-29T14:33:20.083Z</time></trkpt><trkpt lat="42.9912533" lon="11.7624833"><ele>344.5</ele><time>2026-03-29T14:33:21.084Z</time></trkpt><trkpt lat="42.99137" lon="11.7624883"><ele>345.0</ele><time>2026-03-29T14:33:22.084Z</time></trkpt><trkpt lat="42.9914783" lon="11.7624817"><ele>345.0</ele><time>2026-03-29T14:33:23.084Z</time></trkpt><trkpt lat="42.991575" lon="11.7624733"><ele>345.0</ele><time>2026-03-29T14:33:24.084Z</time></trkpt><trkpt lat="42.9916617" lon="11.7624617"><ele>345.0</ele><time>2026-03-29T14:33:25.084Z</time></trkpt><trkpt lat="42.9917317" lon="11.76246"><ele>345.0</ele><time>2026-03-29T14:33:26.084Z</time></trkpt><trkpt lat="42.99179" lon="11.7624983"><ele>345.0</ele><time>2026-03-29T14:33:27.084Z</time></trkpt><trkpt lat="42.9918517" lon="11.7626183"><ele>345.0</ele><time>2026-03-29T14:33:29.083Z</time></trkpt><trkpt lat="42.9919183" lon="11.762735"><ele>346.2</ele><time>2026-03-29T14:33:31.084Z</time></trkpt><trkpt lat="42.9919967" lon="11.7628367"><ele>347.4</ele><time>2026-03-29T14:33:33.084Z</time></trkpt><trkpt lat="42.9921" lon="11.7629083"><ele>348.6</ele><time>2026-03-29T14:33:35.083Z</time></trkpt><trkpt lat="42.9922183" lon="11.7629217"><ele>349.8</ele><time>2026-03-29T14:33:37.083Z</time></trkpt><trkpt lat="42.9922867" lon="11.7629117"><ele>351.0</ele><time>2026-03-29T14:33:38.084Z</time></trkpt><trkpt lat="42.992355" lon="11.7628867"><ele>351.0</ele><time>2026-03-29T14:33:39.084Z</time></trkpt><trkpt lat="42.9924233" lon="11.7628517"><ele>351.0</ele><time>2026-03-29T14:33:40.084Z</time></trkpt><trkpt lat="42.9924967" lon="11.7628117"><ele>351.0</ele><time>2026-03-29T14:33:41.083Z</time></trkpt><trkpt lat="42.9925783" lon="11.7627717"><ele>351.0</ele><time>2026-03-29T14:33:42.083Z</time></trkpt><trkpt lat="42.9926633" lon="11.7627317"><ele>351.0</ele><time>2026-03-29T14:33:43.084Z</time></trkpt><trkpt lat="42.9927567" lon="11.7626817"><ele>351.0</ele><time>2026-03-29T14:33:44.084Z</time></trkpt><trkpt lat="42.9928483" lon="11.7626283"><ele>351.0</ele><time>2026-03-29T14:33:45.083Z</time></trkpt><trkpt lat="42.9929533" lon="11.762575"><ele>351.0</ele><time>2026-03-29T14:33:46.083Z</time></trkpt><trkpt lat="42.9930533" lon="11.762525"><ele>351.0</ele><time>2026-03-29T14:33:47.084Z</time></trkpt><trkpt lat="42.99316" lon="11.7624733"><ele>351.0</ele><time>2026-03-29T14:33:48.084Z</time></trkpt><trkpt lat="42.993285" lon="11.7624117"><ele>351.75</ele><time>2026-03-29T14:33:49.084Z</time></trkpt><trkpt lat="42.9934" lon="11.7623367"><ele>352.5</ele><time>2026-03-29T14:33:50.084Z</time></trkpt><trkpt lat="42.9935167" lon="11.762245"><ele>353.25</ele><time>2026-03-29T14:33:51.084Z</time></trkpt><trkpt lat="42.9936233" lon="11.76215"><ele>354.0</ele><time>2026-03-29T14:33:52.083Z</time></trkpt><trkpt lat="42.9937283" lon="11.7620733"><ele>354.0</ele><time>2026-03-29T14:33:53.083Z</time></trkpt><trkpt lat="42.9938117" lon="11.7620133"><ele>354.0</ele><time>2026-03-29T14:33:54.084Z</time></trkpt><trkpt lat="42.9938983" lon="11.7619683"><ele>354.0</ele><time>2026-03-29T14:33:55.083Z</time></trkpt><trkpt lat="42.994" lon="11.7619667"><ele>354.0</ele><time>2026-03-29T14:33:56.083Z</time></trkpt><trkpt lat="42.994105" lon="11.7620317"><ele>354.0</ele><time>2026-03-29T14:33:57.084Z</time></trkpt><trkpt lat="42.994215" lon="11.7621133"><ele>354.2</ele><time>2026-03-29T14:33:58.084Z</time></trkpt><trkpt lat="42.9943217" lon="11.7621833"><ele>354.4</ele><time>2026-03-29T14:33:59.083Z</time></trkpt><trkpt lat="42.994415" lon="11.7622333"><ele>354.6</ele><time>2026-03-29T14:34:00.083Z</time></trkpt><trkpt lat="42.9944967" lon="11.7622733"><ele>354.8</ele><time>2026-03-29T14:34:01.083Z</time></trkpt><trkpt lat="42.994575" lon="11.7623067"><ele>355.0</ele><time>2026-03-29T14:34:02.084Z</time></trkpt><trkpt lat="42.994655" lon="11.7623367"><ele>355.0</ele><time>2026-03-29T14:34:03.084Z</time></trkpt><trkpt lat="42.9947391" lon="11.7623677"><ele>355.0</ele><time>2026-03-29T14:34:04.084Z</time></trkpt><trkpt lat="42.9948206" lon="11.7623912"><ele>355.0</ele><time>2026-03-29T14:34:05.084Z</time></trkpt><trkpt lat="42.9949019" lon="11.7624063"><ele>355.0</ele><time>2026-03-29T14:34:06.084Z</time></trkpt><trkpt lat="42.9949813" lon="11.7624207"><ele>355.0</ele><time>2026-03-29T14:34:07.084Z</time></trkpt><trkpt lat="42.9950543" lon="11.7624283"><ele>355.0</ele><time>2026-03-29T14:34:08.084Z</time></trkpt><trkpt lat="42.9951239" lon="11.7624323"><ele>355.0</ele><time>2026-03-29T14:34:09.084Z</time></trkpt><trkpt lat="42.9951948" lon="11.7624263"><ele>355.0</ele><time>2026-03-29T14:34:10.084Z</time></trkpt><trkpt lat="42.9952646" lon="11.762413"><ele>355.0</ele><time>2026-03-29T14:34:11.083Z</time></trkpt><trkpt lat="42.9953366" lon="11.762401"><ele>355.0</ele><time>2026-03-29T14:34:12.084Z</time></trkpt><trkpt lat="42.995406" lon="11.762392"><ele>355.0</ele><time>2026-03-29T14:34:13.084Z</time></trkpt><trkpt lat="42.9954859" lon="11.7623867"><ele>355.0</ele><time>2026-03-29T14:34:14.084Z</time></trkpt><trkpt lat="42.9955659" lon="11.7623894"><ele>355.0</ele><time>2026-03-29T14:34:15.084Z</time></trkpt><trkpt lat="42.995646" lon="11.7623938"><ele>355.0</ele><time>2026-03-29T14:34:16.083Z</time></trkpt><trkpt lat="42.9957286" lon="11.7623973"><ele>355.0</ele><time>2026-03-29T14:34:17.084Z</time></trkpt><trkpt lat="42.9958105" lon="11.7623909"><ele>355.0</ele><time>2026-03-29T14:34:18.083Z</time></trkpt><trkpt lat="42.9958866" lon="11.7623686"><ele>355.0</ele><time>2026-03-29T14:34:19.083Z</time></trkpt><trkpt lat="42.9959934" lon="11.7623181"><ele>355.0</ele><time>2026-03-29T14:34:21.083Z</time></trkpt><trkpt lat="42.9960792" lon="11.7622281"><ele>353.66666666666663</ele><time>2026-03-29T14:34:23.085Z</time></trkpt><trkpt lat="42.9961553" lon="11.7620997"><ele>352.3333333333333</ele><time>2026-03-29T14:34:25.085Z</time></trkpt><trkpt lat="42.996194" lon="11.7620282"><ele>351.0</ele><time>2026-03-29T14:34:26.085Z</time></trkpt><trkpt lat="42.996235" lon="11.7619537"><ele>349.6666666666667</ele><time>2026-03-29T14:34:27.085Z</time></trkpt><trkpt lat="42.9962745" lon="11.7618737"><ele>348.33333333333337</ele><time>2026-03-29T14:34:28.085Z</time></trkpt><trkpt lat="42.9963138" lon="11.7617874"><ele>347.0</ele><time>2026-03-29T14:34:29.085Z</time></trkpt><trkpt lat="42.9963467" lon="11.7617057"><ele>346.8</ele><time>2026-03-29T14:34:30.085Z</time></trkpt><trkpt lat="42.9963939" lon="11.7615554"><ele>346.6</ele><time>2026-03-29T14:34:32.084Z</time></trkpt><trkpt lat="42.9964399" lon="11.7614139"><ele>346.40000000000003</ele><time>2026-03-29T14:34:34.085Z</time></trkpt><trkpt lat="42.9964765" lon="11.7613378"><ele>346.20000000000005</ele><time>2026-03-29T14:34:35.084Z</time></trkpt><trkpt lat="42.9965354" lon="11.7612586"><ele>346.0</ele><time>2026-03-29T14:34:36.085Z</time></trkpt><trkpt lat="42.9966367" lon="11.761175"><ele>344.5</ele><time>2026-03-29T14:34:37.084Z</time></trkpt><trkpt lat="42.9967383" lon="11.7610783"><ele>343.0</ele><time>2026-03-29T14:34:38.085Z</time></trkpt><trkpt lat="42.996835" lon="11.7609517"><ele>341.5</ele><time>2026-03-29T14:34:39.085Z</time></trkpt><trkpt lat="42.996925" lon="11.760805"><ele>340.0</ele><time>2026-03-29T14:34:40.085Z</time></trkpt><trkpt lat="42.997015" lon="11.7606333"><ele>340.0</ele><time>2026-03-29T14:34:41.085Z</time></trkpt><trkpt lat="42.99711" lon="11.7604533"><ele>340.0</ele><time>2026-03-29T14:34:42.085Z</time></trkpt><trkpt lat="42.9972067" lon="11.7602767"><ele>340.0</ele><time>2026-03-29T14:34:43.085Z</time></trkpt><trkpt lat="42.9973133" lon="11.76011"><ele>340.3333333333333</ele><time>2026-03-29T14:34:44.084Z</time></trkpt><trkpt lat="42.9974117" lon="11.7599467"><ele>340.6666666666667</ele><time>2026-03-29T14:34:45.085Z</time></trkpt><trkpt lat="42.9974967" lon="11.7597767"><ele>341.0</ele><time>2026-03-29T14:34:46.085Z</time></trkpt><trkpt lat="42.99758" lon="11.7595883"><ele>339.6666666666667</ele><time>2026-03-29T14:34:47.084Z</time></trkpt><trkpt lat="42.9976617" lon="11.7593983"><ele>338.3333333333333</ele><time>2026-03-29T14:34:48.085Z</time></trkpt><trkpt lat="42.997735" lon="11.75922"><ele>337.0</ele><time>2026-03-29T14:34:49.085Z</time></trkpt><trkpt lat="42.9978083" lon="11.7590317"><ele>337.0</ele><time>2026-03-29T14:34:50.085Z</time></trkpt><trkpt lat="42.99787" lon="11.758865"><ele>337.0</ele><time>2026-03-29T14:34:51.084Z</time></trkpt><trkpt lat="42.9979117" lon="11.7587283"><ele>337.0</ele><time>2026-03-29T14:34:52.085Z</time></trkpt><trkpt lat="42.9979517" lon="11.7586167"><ele>337.0</ele><time>2026-03-29T14:34:53.084Z</time></trkpt><trkpt lat="42.997985" lon="11.7585167"><ele>337.0</ele><time>2026-03-29T14:34:54.085Z</time></trkpt><trkpt lat="42.9980117" lon="11.7584367"><ele>337.20000000000005</ele><time>2026-03-29T14:34:55.085Z</time></trkpt><trkpt lat="42.9980367" lon="11.7582967"><ele>337.4</ele><time>2026-03-29T14:34:57.085Z</time></trkpt><trkpt lat="42.9980733" lon="11.7582033"><ele>337.6</ele><time>2026-03-29T14:35:01.085Z</time></trkpt><trkpt lat="42.998175" lon="11.7581933"><ele>337.79999999999995</ele><time>2026-03-29T14:35:04.085Z</time></trkpt><trkpt lat="42.9982667" lon="11.7582533"><ele>338.0</ele><time>2026-03-29T14:35:06.085Z</time></trkpt><trkpt lat="42.9983317" lon="11.758305"><ele>337.0</ele><time>2026-03-29T14:35:07.085Z</time></trkpt><trkpt lat="42.9984083" lon="11.7583717"><ele>336.0</ele><time>2026-03-29T14:35:08.084Z</time></trkpt><trkpt lat="42.99849" lon="11.7584467"><ele>335.0</ele><time>2026-03-29T14:35:09.085Z</time></trkpt><trkpt lat="42.998575" lon="11.75853"><ele>334.0</ele><time>2026-03-29T14:35:10.085Z</time></trkpt><trkpt lat="42.9986483" lon="11.758615"><ele>333.0</ele><time>2026-03-29T14:35:11.085Z</time></trkpt><trkpt lat="42.998725" lon="11.75871"><ele>332.79999999999995</ele><time>2026-03-29T14:35:12.085Z</time></trkpt><trkpt lat="42.9988083" lon="11.75881"><ele>332.6</ele><time>2026-03-29T14:35:13.085Z</time></trkpt><trkpt lat="42.9988817" lon="11.7588967"><ele>332.4</ele><time>2026-03-29T14:35:14.084Z</time></trkpt><trkpt lat="42.9989583" lon="11.7589767"><ele>332.20000000000005</ele><time>2026-03-29T14:35:15.084Z</time></trkpt><trkpt lat="42.9990283" lon="11.759055"><ele>332.0</ele><time>2026-03-29T14:35:16.085Z</time></trkpt><trkpt lat="42.99909" lon="11.7591283"><ele>332.0</ele><time>2026-03-29T14:35:17.084Z</time></trkpt><trkpt lat="42.99914" lon="11.7591817"><ele>332.0</ele><time>2026-03-29T14:35:18.084Z</time></trkpt><trkpt lat="42.9992183" lon="11.7592767"><ele>332.0</ele><time>2026-03-29T14:35:20.085Z</time></trkpt><trkpt lat="42.999275" lon="11.7594017"><ele>332.0</ele><time>2026-03-29T14:35:22.084Z</time></trkpt><trkpt lat="42.9993317" lon="11.7595"><ele>332.0</ele><time>2026-03-29T14:35:24.085Z</time></trkpt><trkpt lat="42.9994083" lon="11.7595083"><ele>332.0</ele><time>2026-03-29T14:35:31.084Z</time></trkpt><trkpt lat="42.9995083" lon="11.7595067"><ele>332.20000000000005</ele><time>2026-03-29T14:35:34.084Z</time></trkpt><trkpt lat="42.999595" lon="11.7594667"><ele>332.4</ele><time>2026-03-29T14:35:36.085Z</time></trkpt><trkpt lat="42.9996783" lon="11.7593817"><ele>332.6</ele><time>2026-03-29T14:35:38.084Z</time></trkpt><trkpt lat="42.99977" lon="11.7592533"><ele>332.79999999999995</ele><time>2026-03-29T14:35:40.084Z</time></trkpt><trkpt lat="42.9998267" lon="11.7591667"><ele>333.0</ele><time>2026-03-29T14:35:41.085Z</time></trkpt><trkpt lat="42.9998767" lon="11.759075"><ele>333.0</ele><time>2026-03-29T14:35:42.085Z</time></trkpt><trkpt lat="42.9999183" lon="11.758965"><ele>333.0</ele><time>2026-03-29T14:35:43.085Z</time></trkpt><trkpt lat="42.9999483" lon="11.758865"><ele>333.0</ele><time>2026-03-29T14:35:44.084Z</time></trkpt><trkpt lat="42.9999783" lon="11.7587733"><ele>333.0</ele><time>2026-03-29T14:35:45.085Z</time></trkpt><trkpt lat="43.0000083" lon="11.758695"><ele>333.0</ele><time>2026-03-29T14:35:46.085Z</time></trkpt><trkpt lat="43.000065" lon="11.7585983"><ele>333.0</ele><time>2026-03-29T14:35:48.085Z</time></trkpt><trkpt lat="43.0001433" lon="11.7586233"><ele>333.0</ele><time>2026-03-29T14:35:51.084Z</time></trkpt><trkpt lat="43.0001933" lon="11.7586767"><ele>333.0</ele><time>2026-03-29T14:35:52.085Z</time></trkpt><trkpt lat="43.000255" lon="11.7587367"><ele>333.0</ele><time>2026-03-29T14:35:53.085Z</time></trkpt><trkpt lat="43.000325" lon="11.7587983"><ele>333.0</ele><time>2026-03-29T14:35:54.085Z</time></trkpt><trkpt lat="43.0004033" lon="11.7588567"><ele>333.0</ele><time>2026-03-29T14:35:55.084Z</time></trkpt><trkpt lat="43.000495" lon="11.75891"><ele>333.0</ele><time>2026-03-29T14:35:56.085Z</time></trkpt><trkpt lat="43.00059" lon="11.75896"><ele>333.0</ele><time>2026-03-29T14:35:57.085Z</time></trkpt><trkpt lat="43.0006933" lon="11.7590133"><ele>333.0</ele><time>2026-03-29T14:35:58.085Z</time></trkpt><trkpt lat="43.0008" lon="11.7590667"><ele>333.0</ele><time>2026-03-29T14:35:59.084Z</time></trkpt><trkpt lat="43.0009183" lon="11.7591233"><ele>333.0</ele><time>2026-03-29T14:36:00.085Z</time></trkpt><trkpt lat="43.00105" lon="11.75919"><ele>332.75</ele><time>2026-03-29T14:36:01.084Z</time></trkpt><trkpt lat="43.001175" lon="11.759245"><ele>332.5</ele><time>2026-03-29T14:36:02.085Z</time></trkpt><trkpt lat="43.0013067" lon="11.75931"><ele>332.25</ele><time>2026-03-29T14:36:03.085Z</time></trkpt><trkpt lat="43.0014417" lon="11.7593667"><ele>332.0</ele><time>2026-03-29T14:36:04.085Z</time></trkpt><trkpt lat="43.0015767" lon="11.7594283"><ele>332.5</ele><time>2026-03-29T14:36:05.084Z</time></trkpt><trkpt lat="43.0017217" lon="11.7594967"><ele>333.0</ele><time>2026-03-29T14:36:06.084Z</time></trkpt><trkpt lat="43.0018583" lon="11.75957"><ele>333.5</ele><time>2026-03-29T14:36:07.085Z</time></trkpt><trkpt lat="43.001995" lon="11.75964"><ele>334.0</ele><time>2026-03-29T14:36:08.085Z</time></trkpt><trkpt lat="43.00214" lon="11.75971"><ele>334.0</ele><time>2026-03-29T14:36:09.085Z</time></trkpt><trkpt lat="43.002285" lon="11.7597783"><ele>334.0</ele><time>2026-03-29T14:36:10.085Z</time></trkpt><trkpt lat="43.0024367" lon="11.7598483"><ele>334.0</ele><time>2026-03-29T14:36:11.085Z</time></trkpt><trkpt lat="43.0025917" lon="11.7599267"><ele>334.3333333333333</ele><time>2026-03-29T14:36:12.085Z</time></trkpt><trkpt lat="43.0027383" lon="11.759995"><ele>334.6666666666667</ele><time>2026-03-29T14:36:13.085Z</time></trkpt><trkpt lat="43.0028933" lon="11.7600717"><ele>335.0</ele><time>2026-03-29T14:36:14.085Z</time></trkpt><trkpt lat="43.00305" lon="11.7601433"><ele>336.0</ele><time>2026-03-29T14:36:15.085Z</time></trkpt><trkpt lat="43.0032033" lon="11.7602083"><ele>337.0</ele><time>2026-03-29T14:36:16.085Z</time></trkpt><trkpt lat="43.0033533" lon="11.7602783"><ele>338.0</ele><time>2026-03-29T14:36:17.085Z</time></trkpt><trkpt lat="43.0035167" lon="11.7603517"><ele>339.0</ele><time>2026-03-29T14:36:18.084Z</time></trkpt><trkpt lat="43.0036767" lon="11.7604317"><ele>340.0</ele><time>2026-03-29T14:36:19.085Z</time></trkpt><trkpt lat="43.0038317" lon="11.76051"><ele>341.0</ele><time>2026-03-29T14:36:20.085Z</time></trkpt><trkpt lat="43.0039933" lon="11.7605817"><ele>341.0</ele><time>2026-03-29T14:36:21.084Z</time></trkpt><trkpt lat="43.004155" lon="11.7606567"><ele>341.0</ele><time>2026-03-29T14:36:22.085Z</time></trkpt><trkpt lat="43.004315" lon="11.7607417"><ele>341.0</ele><time>2026-03-29T14:36:23.085Z</time></trkpt><trkpt lat="43.00448" lon="11.7608233"><ele>341.33333333333337</ele><time>2026-03-29T14:36:24.084Z</time></trkpt><trkpt lat="43.0046467" lon="11.7608983"><ele>341.6666666666667</ele><time>2026-03-29T14:36:25.084Z</time></trkpt><trkpt lat="43.00481" lon="11.760975"><ele>342.0</ele><time>2026-03-29T14:36:26.085Z</time></trkpt><trkpt lat="43.0049717" lon="11.7610483"><ele>344.0</ele><time>2026-03-29T14:36:27.085Z</time></trkpt><trkpt lat="43.00513" lon="11.761125"><ele>346.0</ele><time>2026-03-29T14:36:28.084Z</time></trkpt><trkpt lat="43.0052883" lon="11.7612017"><ele>348.0</ele><time>2026-03-29T14:36:29.085Z</time></trkpt><trkpt lat="43.0054433" lon="11.7612767"><ele>348.0</ele><time>2026-03-29T14:36:30.085Z</time></trkpt><trkpt lat="43.005605" lon="11.7613533"><ele>348.0</ele><time>2026-03-29T14:36:31.085Z</time></trkpt><trkpt lat="43.0057583" lon="11.7614283"><ele>348.0</ele><time>2026-03-29T14:36:32.084Z</time></trkpt><trkpt lat="43.00591" lon="11.7614867"><ele>346.6666666666667</ele><time>2026-03-29T14:36:33.085Z</time></trkpt><trkpt lat="43.0060683" lon="11.761525"><ele>345.33333333333337</ele><time>2026-03-29T14:36:34.084Z</time></trkpt><trkpt lat="43.006225" lon="11.76153"><ele>344.0</ele><time>2026-03-29T14:36:35.085Z</time></trkpt><trkpt lat="43.006385" lon="11.7615017"><ele>344.0</ele><time>2026-03-29T14:36:36.084Z</time></trkpt><trkpt lat="43.0065417" lon="11.76144"><ele>344.0</ele><time>2026-03-29T14:36:37.085Z</time></trkpt><trkpt lat="43.006695" lon="11.7613517"><ele>344.0</ele><time>2026-03-29T14:36:38.085Z</time></trkpt><trkpt lat="43.0068517" lon="11.761235"><ele>344.0</ele><time>2026-03-29T14:36:39.085Z</time></trkpt><trkpt lat="43.007005" lon="11.7611233"><ele>344.0</ele><time>2026-03-29T14:36:40.085Z</time></trkpt><trkpt lat="43.0071583" lon="11.7610067"><ele>344.0</ele><time>2026-03-29T14:36:41.085Z</time></trkpt><trkpt lat="43.007305" lon="11.760895"><ele>344.0</ele><time>2026-03-29T14:36:42.085Z</time></trkpt><trkpt lat="43.0074533" lon="11.76079"><ele>344.0</ele><time>2026-03-29T14:36:43.085Z</time></trkpt><trkpt lat="43.0076033" lon="11.76069"><ele>344.0</ele><time>2026-03-29T14:36:44.085Z</time></trkpt><trkpt lat="43.0077533" lon="11.7605917"><ele>344.6666666666667</ele><time>2026-03-29T14:36:45.085Z</time></trkpt><trkpt lat="43.0078983" lon="11.76049"><ele>345.3333333333333</ele><time>2026-03-29T14:36:46.084Z</time></trkpt><trkpt lat="43.0080417" lon="11.7603917"><ele>346.0</ele><time>2026-03-29T14:36:47.085Z</time></trkpt><trkpt lat="43.0081833" lon="11.7602867"><ele>345.75</ele><time>2026-03-29T14:36:48.085Z</time></trkpt><trkpt lat="43.0083233" lon="11.76019"><ele>345.5</ele><time>2026-03-29T14:36:49.084Z</time></trkpt><trkpt lat="43.0084617" lon="11.7601033"><ele>345.25</ele><time>2026-03-29T14:36:50.084Z</time></trkpt><trkpt lat="43.0085933" lon="11.76004"><ele>345.0</ele><time>2026-03-29T14:36:51.085Z</time></trkpt><trkpt lat="43.0087083" lon="11.759985"><ele>345.8</ele><time>2026-03-29T14:36:52.085Z</time></trkpt><trkpt lat="43.0088167" lon="11.7599583"><ele>346.6</ele><time>2026-03-29T14:36:53.085Z</time></trkpt><trkpt lat="43.008915" lon="11.7599583"><ele>347.4</ele><time>2026-03-29T14:36:54.085Z</time></trkpt><trkpt lat="43.00901" lon="11.759975"><ele>348.2</ele><time>2026-03-29T14:36:55.085Z</time></trkpt><trkpt lat="43.00908" lon="11.7600033"><ele>349.0</ele><time>2026-03-29T14:36:56.085Z</time></trkpt><trkpt lat="43.0091517" lon="11.760045"><ele>350.0</ele><time>2026-03-29T14:36:57.085Z</time></trkpt><trkpt lat="43.00923" lon="11.7601133"><ele>351.0</ele><time>2026-03-29T14:36:58.085Z</time></trkpt><trkpt lat="43.009315" lon="11.7602183"><ele>352.0</ele><time>2026-03-29T14:36:59.085Z</time></trkpt><trkpt lat="43.0094117" lon="11.7603467"><ele>353.0</ele><time>2026-03-29T14:37:00.085Z</time></trkpt><trkpt lat="43.009515" lon="11.760495"><ele>354.0</ele><time>2026-03-29T14:37:01.085Z</time></trkpt><trkpt lat="43.00963" lon="11.7606617"><ele>355.0</ele><time>2026-03-29T14:37:02.084Z</time></trkpt><trkpt lat="43.009765" lon="11.7608517"><ele>356.0</ele><time>2026-03-29T14:37:03.085Z</time></trkpt><trkpt lat="43.0098983" lon="11.7610333"><ele>358.6666666666667</ele><time>2026-03-29T14:37:04.085Z</time></trkpt><trkpt lat="43.0100117" lon="11.7611933"><ele>361.3333333333333</ele><time>2026-03-29T14:37:05.085Z</time></trkpt><trkpt lat="43.0101217" lon="11.76134"><ele>364.0</ele><time>2026-03-29T14:37:06.085Z</time></trkpt><trkpt lat="43.0102233" lon="11.761495"><ele>364.0</ele><time>2026-03-29T14:37:07.085Z</time></trkpt><trkpt lat="43.01033" lon="11.7616383"><ele>364.0</ele><time>2026-03-29T14:37:08.085Z</time></trkpt><trkpt lat="43.01044" lon="11.76178"><ele>364.0</ele><time>2026-03-29T14:37:09.084Z</time></trkpt><trkpt lat="43.010545" lon="11.7619267"><ele>364.5</ele><time>2026-03-29T14:37:10.084Z</time></trkpt><trkpt lat="43.01065" lon="11.762065"><ele>365.0</ele><time>2026-03-29T14:37:11.084Z</time></trkpt><trkpt lat="43.0107533" lon="11.7622067"><ele>365.5</ele><time>2026-03-29T14:37:12.085Z</time></trkpt><trkpt lat="43.01086" lon="11.7623483"><ele>366.0</ele><time>2026-03-29T14:37:13.084Z</time></trkpt><trkpt lat="43.0109667" lon="11.7624933"><ele>366.0</ele><time>2026-03-29T14:37:14.085Z</time></trkpt><trkpt lat="43.011075" lon="11.7626367"><ele>366.0</ele><time>2026-03-29T14:37:15.085Z</time></trkpt><trkpt lat="43.0111767" lon="11.7627867"><ele>366.0</ele><time>2026-03-29T14:37:16.085Z</time></trkpt><trkpt lat="43.011285" lon="11.7629383"><ele>366.0</ele><time>2026-03-29T14:37:17.085Z</time></trkpt><trkpt lat="43.0114" lon="11.7630967"><ele>366.0</ele><time>2026-03-29T14:37:18.085Z</time></trkpt><trkpt lat="43.011515" lon="11.7632583"><ele>366.0</ele><time>2026-03-29T14:37:19.085Z</time></trkpt><trkpt lat="43.0116317" lon="11.763425"><ele>366.3333333333333</ele><time>2026-03-29T14:37:20.085Z</time></trkpt><trkpt lat="43.0117567" lon="11.76359"><ele>366.66666666666663</ele><time>2026-03-29T14:37:21.084Z</time></trkpt><trkpt lat="43.0118867" lon="11.7637383"><ele>367.0</ele><time>2026-03-29T14:37:22.085Z</time></trkpt><trkpt lat="43.012035" lon="11.76387"><ele>367.0</ele><time>2026-03-29T14:37:23.085Z</time></trkpt><trkpt lat="43.012195" lon="11.7639767"><ele>367.0</ele><time>2026-03-29T14:37:24.084Z</time></trkpt><trkpt lat="43.012365" lon="11.764065"><ele>367.0</ele><time>2026-03-29T14:37:25.084Z</time></trkpt><trkpt lat="43.0125383" lon="11.7641383"><ele>367.3333333333333</ele><time>2026-03-29T14:37:26.084Z</time></trkpt><trkpt lat="43.0127117" lon="11.7642133"><ele>367.6666666666667</ele><time>2026-03-29T14:37:27.085Z</time></trkpt><trkpt lat="43.012885" lon="11.764285"><ele>368.0</ele><time>2026-03-29T14:37:28.084Z</time></trkpt><trkpt lat="43.013055" lon="11.76436"><ele>370.33333333333337</ele><time>2026-03-29T14:37:29.085Z</time></trkpt><trkpt lat="43.013225" lon="11.7644333"><ele>372.6666666666667</ele><time>2026-03-29T14:37:30.085Z</time></trkpt><trkpt lat="43.0133967" lon="11.7645067"><ele>375.0</ele><time>2026-03-29T14:37:31.085Z</time></trkpt><trkpt lat="43.0135633" lon="11.7645717"><ele>376.3333333333333</ele><time>2026-03-29T14:37:32.085Z</time></trkpt><trkpt lat="43.0137333" lon="11.7646467"><ele>377.66666666666663</ele><time>2026-03-29T14:37:33.085Z</time></trkpt><trkpt lat="43.0139" lon="11.764715"><ele>379.0</ele><time>2026-03-29T14:37:34.084Z</time></trkpt><trkpt lat="43.0140683" lon="11.764785"><ele>378.0</ele><time>2026-03-29T14:37:35.084Z</time></trkpt><trkpt lat="43.0142383" lon="11.76485"><ele>377.0</ele><time>2026-03-29T14:37:36.085Z</time></trkpt><trkpt lat="43.0144017" lon="11.7649283"><ele>376.0</ele><time>2026-03-29T14:37:37.085Z</time></trkpt><trkpt lat="43.0145667" lon="11.7650017"><ele>376.0</ele><time>2026-03-29T14:37:38.084Z</time></trkpt><trkpt lat="43.0147333" lon="11.7650717"><ele>376.0</ele><time>2026-03-29T14:37:39.085Z</time></trkpt><trkpt lat="43.0149" lon="11.765135"><ele>376.0</ele><time>2026-03-29T14:37:40.084Z</time></trkpt><trkpt lat="43.01508" lon="11.7652117"><ele>379.3333333333333</ele><time>2026-03-29T14:37:41.085Z</time></trkpt><trkpt lat="43.0152517" lon="11.765295"><ele>382.66666666666663</ele><time>2026-03-29T14:37:42.084Z</time></trkpt><trkpt lat="43.0154167" lon="11.7653733"><ele>386.0</ele><time>2026-03-29T14:37:43.084Z</time></trkpt><trkpt lat="43.0155867" lon="11.7654033"><ele>386.0</ele><time>2026-03-29T14:37:44.084Z</time></trkpt><trkpt lat="43.0157633" lon="11.7654017"><ele>386.0</ele><time>2026-03-29T14:37:45.084Z</time></trkpt><trkpt lat="43.0159483" lon="11.7653483"><ele>386.0</ele><time>2026-03-29T14:37:46.084Z</time></trkpt><trkpt lat="43.0161217" lon="11.76528"><ele>387.3333333333333</ele><time>2026-03-29T14:37:47.084Z</time></trkpt><trkpt lat="43.0162967" lon="11.7652133"><ele>388.66666666666663</ele><time>2026-03-29T14:37:48.085Z</time></trkpt><trkpt lat="43.0164583" lon="11.765195"><ele>390.0</ele><time>2026-03-29T14:37:49.085Z</time></trkpt><trkpt lat="43.0166233" lon="11.76524"><ele>390.5</ele><time>2026-03-29T14:37:50.085Z</time></trkpt><trkpt lat="43.0167717" lon="11.7652983"><ele>391.0</ele><time>2026-03-29T14:37:51.085Z</time></trkpt><trkpt lat="43.0168967" lon="11.7653617"><ele>391.5</ele><time>2026-03-29T14:37:52.085Z</time></trkpt><trkpt lat="43.0169933" lon="11.7654217"><ele>392.0</ele><time>2026-03-29T14:37:53.085Z</time></trkpt><trkpt lat="43.01707" lon="11.7654817"><ele>391.99999999999994</ele><time>2026-03-29T14:37:54.084Z</time></trkpt><trkpt lat="43.0171317" lon="11.76553"><ele>392.0</ele><time>2026-03-29T14:37:55.085Z</time></trkpt><trkpt lat="43.0172167" lon="11.7655667"><ele>392.0</ele><time>2026-03-29T14:37:57.085Z</time></trkpt><trkpt lat="43.0172283" lon="11.7654733"><ele>392.0</ele><time>2026-03-29T14:38:00.085Z</time></trkpt><trkpt lat="43.0171983" lon="11.7653783"><ele>391.99999999999994</ele><time>2026-03-29T14:38:02.085Z</time></trkpt><trkpt lat="43.0171283" lon="11.7652633"><ele>392.0</ele><time>2026-03-29T14:38:04.085Z</time></trkpt><trkpt lat="43.0170517" lon="11.7651367"><ele>390.85714285714283</ele><time>2026-03-29T14:38:06.084Z</time></trkpt><trkpt lat="43.017015" lon="11.765065"><ele>389.7142857142857</ele><time>2026-03-29T14:38:07.084Z</time></trkpt><trkpt lat="43.01698" lon="11.7649817"><ele>388.57142857142856</ele><time>2026-03-29T14:38:08.085Z</time></trkpt><trkpt lat="43.0169517" lon="11.7649"><ele>387.42857142857144</ele><time>2026-03-29T14:38:09.085Z</time></trkpt><trkpt lat="43.0169167" lon="11.7648133"><ele>386.2857142857143</ele><time>2026-03-29T14:38:10.085Z</time></trkpt><trkpt lat="43.0168783" lon="11.764725"><ele>385.1428571428571</ele><time>2026-03-29T14:38:11.085Z</time></trkpt><trkpt lat="43.01684" lon="11.7646383"><ele>384.0</ele><time>2026-03-29T14:38:12.084Z</time></trkpt><trkpt lat="43.016815" lon="11.7645533"><ele>384.0</ele><time>2026-03-29T14:38:13.085Z</time></trkpt><trkpt lat="43.0167567" lon="11.76443"><ele>384.0</ele><time>2026-03-29T14:38:15.085Z</time></trkpt><trkpt lat="43.0166967" lon="11.7643417"><ele>384.0</ele><time>2026-03-29T14:38:17.085Z</time></trkpt><trkpt lat="43.0166367" lon="11.76428"><ele>384.0</ele><time>2026-03-29T14:38:19.085Z</time></trkpt><trkpt lat="43.0165767" lon="11.7642367"><ele>384.0</ele><time>2026-03-29T14:38:21.084Z</time></trkpt><trkpt lat="43.016525" lon="11.764165"><ele>384.0</ele><time>2026-03-29T14:38:23.084Z</time></trkpt><trkpt lat="43.0164717" lon="11.7640667"><ele>383.3333333333333</ele><time>2026-03-29T14:38:25.085Z</time></trkpt><trkpt lat="43.0164017" lon="11.7639467"><ele>382.6666666666667</ele><time>2026-03-29T14:38:27.084Z</time></trkpt><trkpt lat="43.0163567" lon="11.7638783"><ele>382.0</ele><time>2026-03-29T14:38:28.085Z</time></trkpt><trkpt lat="43.0162967" lon="11.7638017"><ele>381.33333333333337</ele><time>2026-03-29T14:38:29.085Z</time></trkpt><trkpt lat="43.0162333" lon="11.763725"><ele>380.6666666666667</ele><time>2026-03-29T14:38:30.085Z</time></trkpt><trkpt lat="43.01617" lon="11.7636617"><ele>380.0</ele><time>2026-03-29T14:38:31.085Z</time></trkpt><trkpt lat="43.0160933" lon="11.7636133"><ele>380.0</ele><time>2026-03-29T14:38:32.085Z</time></trkpt><trkpt lat="43.0160067" lon="11.7635617"><ele>380.0</ele><time>2026-03-29T14:38:33.085Z</time></trkpt><trkpt lat="43.0159217" lon="11.7634917"><ele>380.0</ele><time>2026-03-29T14:38:34.084Z</time></trkpt><trkpt lat="43.0158117" lon="11.7634067"><ele>380.0</ele><time>2026-03-29T14:38:35.085Z</time></trkpt><trkpt lat="43.015695" lon="11.7633067"><ele>378.6666666666667</ele><time>2026-03-29T14:38:36.084Z</time></trkpt><trkpt lat="43.0155617" lon="11.7631967"><ele>377.3333333333333</ele><time>2026-03-29T14:38:37.085Z</time></trkpt><trkpt lat="43.0154183" lon="11.7630883"><ele>376.0</ele><time>2026-03-29T14:38:38.085Z</time></trkpt><trkpt lat="43.01529" lon="11.7629867"><ele>376.0</ele><time>2026-03-29T14:38:39.085Z</time></trkpt><trkpt lat="43.0151733" lon="11.762905"><ele>376.0</ele><time>2026-03-29T14:38:40.085Z</time></trkpt><trkpt lat="43.0150633" lon="11.7628017"><ele>376.0</ele><time>2026-03-29T14:38:41.085Z</time></trkpt><trkpt lat="43.014955" lon="11.7627067"><ele>376.0</ele><time>2026-03-29T14:38:42.084Z</time></trkpt><trkpt lat="43.0148583" lon="11.7626217"><ele>376.0</ele><time>2026-03-29T14:38:43.084Z</time></trkpt><trkpt lat="43.0147617" lon="11.7625483"><ele>376.0</ele><time>2026-03-29T14:38:44.084Z</time></trkpt><trkpt lat="43.014675" lon="11.7624883"><ele>376.0</ele><time>2026-03-29T14:38:45.085Z</time></trkpt><trkpt lat="43.0146" lon="11.762425"><ele>376.0</ele><time>2026-03-29T14:38:46.085Z</time></trkpt><trkpt lat="43.0145317" lon="11.7623717"><ele>376.0</ele><time>2026-03-29T14:38:47.085Z</time></trkpt><trkpt lat="43.0144733" lon="11.76233"><ele>376.0</ele><time>2026-03-29T14:38:48.085Z</time></trkpt><trkpt lat="43.0144133" lon="11.7622833"><ele>376.0</ele><time>2026-03-29T14:38:50.085Z</time></trkpt><trkpt lat="43.01438" lon="11.7621883"><ele>376.0</ele><time>2026-03-29T14:38:53.085Z</time></trkpt><trkpt lat="43.0144167" lon="11.7620733"><ele>376.0</ele><time>2026-03-29T14:38:56.085Z</time></trkpt><trkpt lat="43.014515" lon="11.7619933"><ele>376.0</ele><time>2026-03-29T14:38:58.085Z</time></trkpt><trkpt lat="43.014575" lon="11.7619383"><ele>376.0</ele><time>2026-03-29T14:38:59.085Z</time></trkpt><trkpt lat="43.01464" lon="11.7618717"><ele>376.0</ele><time>2026-03-29T14:39:00.085Z</time></trkpt><trkpt lat="43.0147183" lon="11.76179"><ele>376.8</ele><time>2026-03-29T14:39:01.084Z</time></trkpt><trkpt lat="43.0148067" lon="11.7617017"><ele>377.6</ele><time>2026-03-29T14:39:02.085Z</time></trkpt><trkpt lat="43.0148833" lon="11.7616083"><ele>378.4</ele><time>2026-03-29T14:39:03.085Z</time></trkpt><trkpt lat="43.014965" lon="11.761525"><ele>379.2</ele><time>2026-03-29T14:39:04.084Z</time></trkpt><trkpt lat="43.0150417" lon="11.7614383"><ele>380.0</ele><time>2026-03-29T14:39:05.084Z</time></trkpt><trkpt lat="43.0151117" lon="11.76137"><ele>381.57142857142856</ele><time>2026-03-29T14:39:06.084Z</time></trkpt><trkpt lat="43.01517" lon="11.7613233"><ele>383.14285714285717</ele><time>2026-03-29T14:39:07.085Z</time></trkpt><trkpt lat="43.0152367" lon="11.76128"><ele>384.71428571428567</ele><time>2026-03-29T14:39:08.085Z</time></trkpt><trkpt lat="43.0153083" lon="11.7612383"><ele>386.2857142857143</ele><time>2026-03-29T14:39:09.085Z</time></trkpt><trkpt lat="43.0153767" lon="11.7611917"><ele>387.85714285714283</ele><time>2026-03-29T14:39:10.085Z</time></trkpt><trkpt lat="43.0154383" lon="11.76115"><ele>389.4285714285714</ele><time>2026-03-29T14:39:11.084Z</time></trkpt><trkpt lat="43.0154783" lon="11.7610783"><ele>391.0</ele><time>2026-03-29T14:39:12.085Z</time></trkpt><trkpt lat="43.015515" lon="11.7609917"><ele>392.00000000000006</ele><time>2026-03-29T14:39:13.085Z</time></trkpt><trkpt lat="43.0155417" lon="11.7608933"><ele>393.0</ele><time>2026-03-29T14:39:14.085Z</time></trkpt><trkpt lat="43.0155767" lon="11.7607883"><ele>394.0</ele><time>2026-03-29T14:39:15.085Z</time></trkpt><trkpt lat="43.0156183" lon="11.7606833"><ele>395.0</ele><time>2026-03-29T14:39:16.085Z</time></trkpt><trkpt lat="43.0156633" lon="11.7605833"><ele>396.00000000000006</ele><time>2026-03-29T14:39:17.085Z</time></trkpt><trkpt lat="43.0157117" lon="11.7604867"><ele>397.0</ele><time>2026-03-29T14:39:18.085Z</time></trkpt><trkpt lat="43.0157617" lon="11.7604083"><ele>397.0</ele><time>2026-03-29T14:39:19.085Z</time></trkpt><trkpt lat="43.015805" lon="11.7603367"><ele>397.0</ele><time>2026-03-29T14:39:20.085Z</time></trkpt><trkpt lat="43.01589" lon="11.7602183"><ele>397.0</ele><time>2026-03-29T14:39:22.085Z</time></trkpt><trkpt lat="43.0159717" lon="11.7601017"><ele>397.0</ele><time>2026-03-29T14:39:24.085Z</time></trkpt><trkpt lat="43.0160233" lon="11.7600433"><ele>397.0</ele><time>2026-03-29T14:39:25.085Z</time></trkpt><trkpt lat="43.01614" lon="11.7599733"><ele>398.83333333333337</ele><time>2026-03-29T14:39:27.085Z</time></trkpt><trkpt lat="43.016205" lon="11.7599433"><ele>400.6666666666667</ele><time>2026-03-29T14:39:28.084Z</time></trkpt><trkpt lat="43.0162717" lon="11.7599133"><ele>402.5</ele><time>2026-03-29T14:39:29.084Z</time></trkpt><trkpt lat="43.016345" lon="11.7598867"><ele>404.33333333333337</ele><time>2026-03-29T14:39:30.085Z</time></trkpt><trkpt lat="43.0164183" lon="11.7598683"><ele>406.1666666666667</ele><time>2026-03-29T14:39:31.085Z</time></trkpt><trkpt lat="43.0164933" lon="11.75984"><ele>408.0</ele><time>2026-03-29T14:39:32.085Z</time></trkpt><trkpt lat="43.016575" lon="11.7598167"><ele>408.0</ele><time>2026-03-29T14:39:33.084Z</time></trkpt><trkpt lat="43.0166517" lon="11.7597883"><ele>408.0</ele><time>2026-03-29T14:39:34.084Z</time></trkpt><trkpt lat="43.0167233" lon="11.75976"><ele>408.0</ele><time>2026-03-29T14:39:35.085Z</time></trkpt><trkpt lat="43.016795" lon="11.75973"><ele>408.0</ele><time>2026-03-29T14:39:36.085Z</time></trkpt><trkpt lat="43.0168633" lon="11.7596917"><ele>408.0</ele><time>2026-03-29T14:39:37.085Z</time></trkpt><trkpt lat="43.016935" lon="11.75964"><ele>408.0</ele><time>2026-03-29T14:39:38.085Z</time></trkpt><trkpt lat="43.0170017" lon="11.7595783"><ele>409.3333333333333</ele><time>2026-03-29T14:39:39.085Z</time></trkpt><trkpt lat="43.0170633" lon="11.7595067"><ele>410.66666666666663</ele><time>2026-03-29T14:39:40.084Z</time></trkpt><trkpt lat="43.0171183" lon="11.7594217"><ele>412.0</ele><time>2026-03-29T14:39:41.085Z</time></trkpt><trkpt lat="43.0171633" lon="11.7593217"><ele>413.3333333333333</ele><time>2026-03-29T14:39:42.084Z</time></trkpt><trkpt lat="43.0171967" lon="11.75921"><ele>414.66666666666663</ele><time>2026-03-29T14:39:43.085Z</time></trkpt><trkpt lat="43.0172317" lon="11.7590883"><ele>416.0</ele><time>2026-03-29T14:39:44.084Z</time></trkpt><trkpt lat="43.0172683" lon="11.7589717"><ele>416.6</ele><time>2026-03-29T14:39:45.084Z</time></trkpt><trkpt lat="43.0173117" lon="11.75885"><ele>417.20000000000005</ele><time>2026-03-29T14:39:46.085Z</time></trkpt><trkpt lat="43.0173517" lon="11.7587333"><ele>417.79999999999995</ele><time>2026-03-29T14:39:47.085Z</time></trkpt><trkpt lat="43.0173883" lon="11.7586317"><ele>418.4</ele><time>2026-03-29T14:39:48.085Z</time></trkpt><trkpt lat="43.01742" lon="11.75854"><ele>419.0</ele><time>2026-03-29T14:39:49.085Z</time></trkpt><trkpt lat="43.0174767" lon="11.75841"><ele>421.66666666666663</ele><time>2026-03-29T14:39:51.084Z</time></trkpt><trkpt lat="43.017535" lon="11.7583183"><ele>424.3333333333333</ele><time>2026-03-29T14:39:53.085Z</time></trkpt><trkpt lat="43.0175883" lon="11.75827"><ele>427.0</ele><time>2026-03-29T14:39:55.085Z</time></trkpt><trkpt lat="43.017635" lon="11.7581533"><ele>429.66666666666663</ele><time>2026-03-29T14:40:11.085Z</time></trkpt><trkpt lat="43.0176467" lon="11.7580683"><ele>432.3333333333333</ele><time>2026-03-29T14:40:12.085Z</time></trkpt><trkpt lat="43.017665" lon="11.75796"><ele>435.0</ele><time>2026-03-29T14:40:13.085Z</time></trkpt><trkpt lat="43.0176883" lon="11.7578567"><ele>435.0</ele><time>2026-03-29T14:40:14.085Z</time></trkpt><trkpt lat="43.0177233" lon="11.7577683"><ele>435.0</ele><time>2026-03-29T14:40:15.085Z</time></trkpt><trkpt lat="43.0177667" lon="11.757685"><ele>435.0</ele><time>2026-03-29T14:40:16.085Z</time></trkpt><trkpt lat="43.0178117" lon="11.757595"><ele>435.0</ele><time>2026-03-29T14:40:17.085Z</time></trkpt><trkpt lat="43.0178633" lon="11.757505"><ele>435.0</ele><time>2026-03-29T14:40:18.085Z</time></trkpt><trkpt lat="43.0179217" lon="11.75743"><ele>435.0</ele><time>2026-03-29T14:40:19.085Z</time></trkpt><trkpt lat="43.01798" lon="11.757375"><ele>436.0</ele><time>2026-03-29T14:40:20.085Z</time></trkpt><trkpt lat="43.0180483" lon="11.757335"><ele>437.0</ele><time>2026-03-29T14:40:21.085Z</time></trkpt><trkpt lat="43.0181233" lon="11.7572933"><ele>438.0</ele><time>2026-03-29T14:40:22.084Z</time></trkpt><trkpt lat="43.0181967" lon="11.7572467"><ele>439.0</ele><time>2026-03-29T14:40:23.085Z</time></trkpt><trkpt lat="43.018265" lon="11.7571917"><ele>440.0</ele><time>2026-03-29T14:40:24.084Z</time></trkpt><trkpt lat="43.0183383" lon="11.75713"><ele>441.0</ele><time>2026-03-29T14:40:25.085Z</time></trkpt><trkpt lat="43.01841" lon="11.75707"><ele>442.8333333333333</ele><time>2026-03-29T14:40:26.085Z</time></trkpt><trkpt lat="43.0184867" lon="11.757015"><ele>444.66666666666663</ele><time>2026-03-29T14:40:27.085Z</time></trkpt><trkpt lat="43.0185667" lon="11.7569833"><ele>446.5</ele><time>2026-03-29T14:40:28.085Z</time></trkpt><trkpt lat="43.018645" lon="11.756975"><ele>448.3333333333333</ele><time>2026-03-29T14:40:29.085Z</time></trkpt><trkpt lat="43.0187217" lon="11.7569917"><ele>450.16666666666663</ele><time>2026-03-29T14:40:30.085Z</time></trkpt><trkpt lat="43.018795" lon="11.7570383"><ele>452.0</ele><time>2026-03-29T14:40:31.085Z</time></trkpt><trkpt lat="43.0188517" lon="11.7571083"><ele>451.99999999999994</ele><time>2026-03-29T14:40:32.085Z</time></trkpt><trkpt lat="43.0188967" lon="11.7571717"><ele>452.0</ele><time>2026-03-29T14:40:33.085Z</time></trkpt><trkpt lat="43.01895" lon="11.7572733"><ele>452.0</ele><time>2026-03-29T14:40:35.085Z</time></trkpt><trkpt lat="43.0190017" lon="11.7573383"><ele>452.0</ele><time>2026-03-29T14:40:38.084Z</time></trkpt><trkpt lat="43.0190817" lon="11.7574333"><ele>451.99999999999994</ele><time>2026-03-29T14:41:34.086Z</time></trkpt><trkpt lat="43.019155" lon="11.7575233"><ele>452.0</ele><time>2026-03-29T14:41:36.085Z</time></trkpt><trkpt lat="43.0192367" lon="11.75759"><ele>454.20000000000005</ele><time>2026-03-29T14:41:38.086Z</time></trkpt><trkpt lat="43.0193533" lon="11.7576"><ele>456.40000000000003</ele><time>2026-03-29T14:41:40.086Z</time></trkpt><trkpt lat="43.0194733" lon="11.7575683"><ele>458.59999999999997</ele><time>2026-03-29T14:41:42.086Z</time></trkpt><trkpt lat="43.0195483" lon="11.7575517"><ele>460.79999999999995</ele><time>2026-03-29T14:41:43.086Z</time></trkpt><trkpt lat="43.0196283" lon="11.7575317"><ele>463.0</ele><time>2026-03-29T14:41:44.086Z</time></trkpt><trkpt lat="43.0197017" lon="11.7575267"><ele>463.0</ele><time>2026-03-29T14:41:45.086Z</time></trkpt><trkpt lat="43.01977" lon="11.7575383"><ele>463.0</ele><time>2026-03-29T14:41:46.086Z</time></trkpt><trkpt lat="43.01987" lon="11.7576533"><ele>463.0</ele><time>2026-03-29T14:41:48.086Z</time></trkpt><trkpt lat="43.01991" lon="11.75773"><ele>451.0</ele><time>2026-03-29T14:41:49.085Z</time></trkpt><trkpt lat="43.0199533" lon="11.7578367"><ele>451.0</ele><time>2026-03-29T14:41:51.086Z</time></trkpt></trkseg><trkseg><trkpt lat="43.0200667" lon="11.757885"><ele>462.0</ele><time>2026-03-29T14:52:39.075Z</time></trkpt><trkpt lat="43.0201383" lon="11.757935"><ele>462.00000000000006</ele><time>2026-03-29T14:52:41.076Z</time></trkpt><trkpt lat="43.0202067" lon="11.7580033"><ele>462.00000000000006</ele><time>2026-03-29T14:52:43.075Z</time></trkpt><trkpt lat="43.0202733" lon="11.758085"><ele>462.0</ele><time>2026-03-29T14:52:45.076Z</time></trkpt><trkpt lat="43.0203583" lon="11.758165"><ele>462.0</ele><time>2026-03-29T14:52:47.075Z</time></trkpt><trkpt lat="43.02044" lon="11.7582483"><ele>462.0</ele><time>2026-03-29T14:52:49.076Z</time></trkpt><trkpt lat="43.0205383" lon="11.758295"><ele>462.00000000000006</ele><time>2026-03-29T14:52:51.076Z</time></trkpt><trkpt lat="43.0206367" lon="11.75831"><ele>462.00000000000006</ele><time>2026-03-29T14:52:53.075Z</time></trkpt><trkpt lat="43.0207233" lon="11.7582483"><ele>462.0</ele><time>2026-03-29T14:52:55.075Z</time></trkpt><trkpt lat="43.0208017" lon="11.7581633"><ele>462.0</ele><time>2026-03-29T14:52:57.075Z</time></trkpt><trkpt lat="43.02085" lon="11.7580317"><ele>464.0</ele><time>2026-03-29T14:52:59.075Z</time></trkpt><trkpt lat="43.020885" lon="11.7578817"><ele>466.00000000000006</ele><time>2026-03-29T14:53:01.076Z</time></trkpt><trkpt lat="43.0209433" lon="11.7577433"><ele>468.00000000000006</ele><time>2026-03-29T14:53:03.076Z</time></trkpt><trkpt lat="43.02102" lon="11.757645"><ele>470.0</ele><time>2026-03-29T14:53:05.075Z</time></trkpt><trkpt lat="43.02111" lon="11.757565"><ele>472.0</ele><time>2026-03-29T14:53:07.076Z</time></trkpt><trkpt lat="43.0211833" lon="11.7574867"><ele>474.0</ele><time>2026-03-29T14:53:09.075Z</time></trkpt><trkpt lat="43.0212633" lon="11.757415"><ele>476.00000000000006</ele><time>2026-03-29T14:53:11.076Z</time></trkpt><trkpt lat="43.0213483" lon="11.7573917"><ele>478.00000000000006</ele><time>2026-03-29T14:53:13.076Z</time></trkpt><trkpt lat="43.021445" lon="11.7574033"><ele>480.0</ele><time>2026-03-29T14:53:15.075Z</time></trkpt><trkpt lat="43.021555" lon="11.7574467"><ele>482.0</ele><time>2026-03-29T14:53:17.076Z</time></trkpt><trkpt lat="43.021685" lon="11.7574883"><ele>484.0</ele><time>2026-03-29T14:53:19.075Z</time></trkpt><trkpt lat="43.0217617" lon="11.757505"><ele>486.00000000000006</ele><time>2026-03-29T14:53:20.075Z</time></trkpt><trkpt lat="43.02184" lon="11.7575183"><ele>488.0</ele><time>2026-03-29T14:53:21.075Z</time></trkpt><trkpt lat="43.0219167" lon="11.757535"><ele>490.0</ele><time>2026-03-29T14:53:22.076Z</time></trkpt><trkpt lat="43.021985" lon="11.757545"><ele>492.00000000000006</ele><time>2026-03-29T14:53:23.076Z</time></trkpt><trkpt lat="43.0220517" lon="11.7575517"><ele>494.0</ele><time>2026-03-29T14:53:24.075Z</time></trkpt><trkpt lat="43.022115" lon="11.757565"><ele>496.0</ele><time>2026-03-29T14:53:25.076Z</time></trkpt><trkpt lat="43.02218" lon="11.757575"><ele>496.0</ele><time>2026-03-29T14:53:26.075Z</time></trkpt><trkpt lat="43.0222683" lon="11.7575967"><ele>496.0</ele><time>2026-03-29T14:53:28.075Z</time></trkpt><trkpt lat="43.0223717" lon="11.7576"><ele>496.0</ele><time>2026-03-29T14:53:30.075Z</time></trkpt><trkpt lat="43.0224917" lon="11.7576217"><ele>496.0</ele><time>2026-03-29T14:53:32.076Z</time></trkpt><trkpt lat="43.0225617" lon="11.757645"><ele>496.0</ele><time>2026-03-29T14:53:33.076Z</time></trkpt><trkpt lat="43.0226317" lon="11.7576783"><ele>496.33333333333337</ele><time>2026-03-29T14:53:34.076Z</time></trkpt><trkpt lat="43.0227" lon="11.7577083"><ele>496.6666666666667</ele><time>2026-03-29T14:53:35.075Z</time></trkpt><trkpt lat="43.0227683" lon="11.757745"><ele>497.0</ele><time>2026-03-29T14:53:36.076Z</time></trkpt><trkpt lat="43.02283" lon="11.757775"><ele>497.33333333333337</ele><time>2026-03-29T14:53:37.075Z</time></trkpt><trkpt lat="43.0229317" lon="11.7578083"><ele>497.6666666666667</ele><time>2026-03-29T14:53:39.076Z</time></trkpt><trkpt lat="43.023045" lon="11.7577917"><ele>498.0</ele><time>2026-03-29T14:53:41.076Z</time></trkpt><trkpt lat="43.0231167" lon="11.7577817"><ele>498.0</ele><time>2026-03-29T14:53:42.076Z</time></trkpt><trkpt lat="43.0231967" lon="11.757785"><ele>498.0</ele><time>2026-03-29T14:53:43.075Z</time></trkpt><trkpt lat="43.02328" lon="11.75779"><ele>498.0</ele><time>2026-03-29T14:53:44.075Z</time></trkpt><trkpt lat="43.0233633" lon="11.7578033"><ele>498.0</ele><time>2026-03-29T14:53:45.076Z</time></trkpt><trkpt lat="43.0234383" lon="11.757825"><ele>498.0</ele><time>2026-03-29T14:53:46.075Z</time></trkpt><trkpt lat="43.0235217" lon="11.7578517"><ele>498.0</ele><time>2026-03-29T14:53:47.076Z</time></trkpt><trkpt lat="43.023605" lon="11.7578833"><ele>499.8333333333333</ele><time>2026-03-29T14:53:48.075Z</time></trkpt><trkpt lat="43.02369" lon="11.757925"><ele>501.66666666666663</ele><time>2026-03-29T14:53:49.075Z</time></trkpt><trkpt lat="43.0237733" lon="11.7579717"><ele>503.5</ele><time>2026-03-29T14:53:50.076Z</time></trkpt><trkpt lat="43.02385" lon="11.7580183"><ele>505.3333333333333</ele><time>2026-03-29T14:53:51.076Z</time></trkpt><trkpt lat="43.02393" lon="11.758065"><ele>507.16666666666663</ele><time>2026-03-29T14:53:52.076Z</time></trkpt><trkpt lat="43.0240067" lon="11.758115"><ele>509.0</ele><time>2026-03-29T14:53:53.075Z</time></trkpt><trkpt lat="43.0240883" lon="11.758165"><ele>510.99999999999994</ele><time>2026-03-29T14:53:54.076Z</time></trkpt><trkpt lat="43.0241633" lon="11.7582067"><ele>513.0</ele><time>2026-03-29T14:53:55.075Z</time></trkpt><trkpt lat="43.0242383" lon="11.7582333"><ele>515.0</ele><time>2026-03-29T14:53:56.076Z</time></trkpt><trkpt lat="43.0243217" lon="11.7582383"><ele>517.0</ele><time>2026-03-29T14:53:57.076Z</time></trkpt><trkpt lat="43.0244217" lon="11.7582317"><ele>519.0</ele><time>2026-03-29T14:53:58.076Z</time></trkpt><trkpt lat="43.0245183" lon="11.7582267"><ele>521.0</ele><time>2026-03-29T14:53:59.076Z</time></trkpt><trkpt lat="43.0246117" lon="11.7582383"><ele>521.0</ele><time>2026-03-29T14:54:00.076Z</time></trkpt><trkpt lat="43.02469" lon="11.75826"><ele>521.0</ele><time>2026-03-29T14:54:01.076Z</time></trkpt><trkpt lat="43.0247583" lon="11.758295"><ele>521.0</ele><time>2026-03-29T14:54:02.076Z</time></trkpt><trkpt lat="43.0248233" lon="11.75833"><ele>521.0</ele><time>2026-03-29T14:54:03.076Z</time></trkpt><trkpt lat="43.02489" lon="11.75835"><ele>521.0</ele><time>2026-03-29T14:54:04.076Z</time></trkpt><trkpt lat="43.0249667" lon="11.758365"><ele>521.0</ele><time>2026-03-29T14:54:05.075Z</time></trkpt><trkpt lat="43.0250383" lon="11.7583767"><ele>521.0</ele><time>2026-03-29T14:54:06.076Z</time></trkpt><trkpt lat="43.0251717" lon="11.7583967"><ele>522.8333333333333</ele><time>2026-03-29T14:54:08.076Z</time></trkpt><trkpt lat="43.025285" lon="11.7584433"><ele>524.6666666666666</ele><time>2026-03-29T14:54:10.075Z</time></trkpt><trkpt lat="43.025375" lon="11.7584317"><ele>526.5</ele><time>2026-03-29T14:54:12.076Z</time></trkpt><trkpt lat="43.0254283" lon="11.75834"><ele>528.3333333333334</ele><time>2026-03-29T14:54:14.076Z</time></trkpt><trkpt lat="43.0254467" lon="11.7582217"><ele>530.1666666666667</ele><time>2026-03-29T14:54:16.075Z</time></trkpt><trkpt lat="43.025455" lon="11.758135"><ele>532.0</ele><time>2026-03-29T14:54:17.076Z</time></trkpt><trkpt lat="43.0254767" lon="11.7580383"><ele>532.0</ele><time>2026-03-29T14:54:18.075Z</time></trkpt><trkpt lat="43.025515" lon="11.7579517"><ele>532.0</ele><time>2026-03-29T14:54:19.075Z</time></trkpt><trkpt lat="43.0255567" lon="11.7578683"><ele>532.0</ele><time>2026-03-29T14:54:20.075Z</time></trkpt><trkpt lat="43.025605" lon="11.7577833"><ele>532.0</ele><time>2026-03-29T14:54:21.075Z</time></trkpt><trkpt lat="43.0256583" lon="11.7576867"><ele>532.0</ele><time>2026-03-29T14:54:22.075Z</time></trkpt><trkpt lat="43.0257183" lon="11.7576"><ele>532.0</ele><time>2026-03-29T14:54:23.076Z</time></trkpt><trkpt lat="43.0257783" lon="11.7575283"><ele>533.2</ele><time>2026-03-29T14:54:24.076Z</time></trkpt><trkpt lat="43.0258933" lon="11.757435"><ele>534.4000000000001</ele><time>2026-03-29T14:54:26.076Z</time></trkpt><trkpt lat="43.0259583" lon="11.7573933"><ele>535.5999999999999</ele><time>2026-03-29T14:54:27.076Z</time></trkpt><trkpt lat="43.0260533" lon="11.757375"><ele>536.8</ele><time>2026-03-29T14:54:29.076Z</time></trkpt><trkpt lat="43.02614" lon="11.7574633"><ele>538.0</ele><time>2026-03-29T14:54:31.075Z</time></trkpt><trkpt lat="43.0262" lon="11.75754"><ele>538.0</ele><time>2026-03-29T14:54:32.076Z</time></trkpt><trkpt lat="43.026265" lon="11.7576317"><ele>538.0</ele><time>2026-03-29T14:54:33.075Z</time></trkpt><trkpt lat="43.0263317" lon="11.7577333"><ele>538.0</ele><time>2026-03-29T14:54:34.076Z</time></trkpt><trkpt lat="43.0263983" lon="11.7578117"><ele>538.0</ele><time>2026-03-29T14:54:35.076Z</time></trkpt><trkpt lat="43.0264883" lon="11.7578683"><ele>538.0</ele><time>2026-03-29T14:54:37.076Z</time></trkpt><trkpt lat="43.0265883" lon="11.7577817"><ele>538.0</ele><time>2026-03-29T14:54:40.076Z</time></trkpt><trkpt lat="43.0266967" lon="11.7576817"><ele>538.0</ele><time>2026-03-29T14:54:42.076Z</time></trkpt><trkpt lat="43.0267733" lon="11.7576183"><ele>538.0</ele><time>2026-03-29T14:54:43.076Z</time></trkpt><trkpt lat="43.02686" lon="11.7575517"><ele>538.0</ele><time>2026-03-29T14:54:44.075Z</time></trkpt><trkpt lat="43.0269517" lon="11.7574733"><ele>538.0</ele><time>2026-03-29T14:54:45.076Z</time></trkpt><trkpt lat="43.027045" lon="11.7573917"><ele>538.0</ele><time>2026-03-29T14:54:46.076Z</time></trkpt><trkpt lat="43.0271433" lon="11.75731"><ele>538.0</ele><time>2026-03-29T14:54:47.076Z</time></trkpt><trkpt lat="43.0272483" lon="11.7572233"><ele>538.0</ele><time>2026-03-29T14:54:48.076Z</time></trkpt><trkpt lat="43.0273583" lon="11.7571317"><ele>538.0</ele><time>2026-03-29T14:54:49.076Z</time></trkpt><trkpt lat="43.0274633" lon="11.7570517"><ele>538.1999999999999</ele><time>2026-03-29T14:54:50.076Z</time></trkpt><trkpt lat="43.0275483" lon="11.7569717"><ele>538.4</ele><time>2026-03-29T14:54:51.076Z</time></trkpt><trkpt lat="43.0276167" lon="11.756905"><ele>538.5999999999999</ele><time>2026-03-29T14:54:52.076Z</time></trkpt><trkpt lat="43.0276683" lon="11.7568283"><ele>538.8</ele><time>2026-03-29T14:54:53.076Z</time></trkpt><trkpt lat="43.0277033" lon="11.7567283"><ele>539.0</ele><time>2026-03-29T14:54:54.076Z</time></trkpt><trkpt lat="43.0277233" lon="11.7565733"><ele>537.75</ele><time>2026-03-29T14:54:55.075Z</time></trkpt><trkpt lat="43.0277333" lon="11.7563917"><ele>536.5</ele><time>2026-03-29T14:54:56.076Z</time></trkpt><trkpt lat="43.0277483" lon="11.7562167"><ele>535.25</ele><time>2026-03-29T14:54:57.075Z</time></trkpt><trkpt lat="43.0277783" lon="11.7560517"><ele>534.0</ele><time>2026-03-29T14:54:58.076Z</time></trkpt><trkpt lat="43.0278217" lon="11.7558933"><ele>532.8</ele><time>2026-03-29T14:54:59.076Z</time></trkpt><trkpt lat="43.0278783" lon="11.7557383"><ele>531.5999999999999</ele><time>2026-03-29T14:55:00.076Z</time></trkpt><trkpt lat="43.0279333" lon="11.7556117"><ele>530.4</ele><time>2026-03-29T14:55:01.076Z</time></trkpt><trkpt lat="43.0279917" lon="11.7554867"><ele>529.1999999999999</ele><time>2026-03-29T14:55:02.076Z</time></trkpt><trkpt lat="43.028055" lon="11.75538"><ele>528.0</ele><time>2026-03-29T14:55:03.076Z</time></trkpt><trkpt lat="43.028125" lon="11.7553033"><ele>528.0</ele><time>2026-03-29T14:55:04.076Z</time></trkpt><trkpt lat="43.0281733" lon="11.755215"><ele>528.0</ele><time>2026-03-29T14:55:05.076Z</time></trkpt><trkpt lat="43.0281933" lon="11.7551233"><ele>528.0</ele><time>2026-03-29T14:55:06.076Z</time></trkpt><trkpt lat="43.0281683" lon="11.7550167"><ele>528.0</ele><time>2026-03-29T14:55:07.076Z</time></trkpt><trkpt lat="43.0281183" lon="11.75491"><ele>528.0</ele><time>2026-03-29T14:55:08.076Z</time></trkpt><trkpt lat="43.0280367" lon="11.7547817"><ele>528.0</ele><time>2026-03-29T14:55:09.076Z</time></trkpt><trkpt lat="43.02793" lon="11.7546567"><ele>525.75</ele><time>2026-03-29T14:55:10.076Z</time></trkpt><trkpt lat="43.02783" lon="11.7545267"><ele>523.5</ele><time>2026-03-29T14:55:11.075Z</time></trkpt><trkpt lat="43.0277383" lon="11.7543967"><ele>521.25</ele><time>2026-03-29T14:55:12.076Z</time></trkpt><trkpt lat="43.0276533" lon="11.754285"><ele>519.0</ele><time>2026-03-29T14:55:13.076Z</time></trkpt><trkpt lat="43.02757" lon="11.7541683"><ele>517.8</ele><time>2026-03-29T14:55:14.075Z</time></trkpt><trkpt lat="43.027495" lon="11.754055"><ele>516.5999999999999</ele><time>2026-03-29T14:55:15.076Z</time></trkpt><trkpt lat="43.0274183" lon="11.753955"><ele>515.4</ele><time>2026-03-29T14:55:16.076Z</time></trkpt><trkpt lat="43.0273583" lon="11.7538633"><ele>514.1999999999999</ele><time>2026-03-29T14:55:17.076Z</time></trkpt><trkpt lat="43.02731" lon="11.7537583"><ele>513.0</ele><time>2026-03-29T14:55:18.075Z</time></trkpt><trkpt lat="43.027285" lon="11.753645"><ele>509.59999999999997</ele><time>2026-03-29T14:55:19.076Z</time></trkpt><trkpt lat="43.0272917" lon="11.7535367"><ele>506.19999999999993</ele><time>2026-03-29T14:55:20.076Z</time></trkpt><trkpt lat="43.0273267" lon="11.7534"><ele>502.8</ele><time>2026-03-29T14:55:21.076Z</time></trkpt><trkpt lat="43.0273667" lon="11.753275"><ele>499.4</ele><time>2026-03-29T14:55:22.076Z</time></trkpt><trkpt lat="43.02741" lon="11.7531433"><ele>496.0</ele><time>2026-03-29T14:55:23.076Z</time></trkpt><trkpt lat="43.0274617" lon="11.75301"><ele>495.6</ele><time>2026-03-29T14:55:24.075Z</time></trkpt><trkpt lat="43.0275167" lon="11.7528883"><ele>495.20000000000005</ele><time>2026-03-29T14:55:25.076Z</time></trkpt><trkpt lat="43.0275733" lon="11.7527783"><ele>494.79999999999995</ele><time>2026-03-29T14:55:26.075Z</time></trkpt><trkpt lat="43.027645" lon="11.7526733"><ele>494.4</ele><time>2026-03-29T14:55:27.076Z</time></trkpt><trkpt lat="43.0277283" lon="11.7526017"><ele>494.0</ele><time>2026-03-29T14:55:28.076Z</time></trkpt><trkpt lat="43.0278283" lon="11.7525367"><ele>494.0</ele><time>2026-03-29T14:55:29.076Z</time></trkpt><trkpt lat="43.0279383" lon="11.7524833"><ele>494.0</ele><time>2026-03-29T14:55:30.076Z</time></trkpt><trkpt lat="43.02804" lon="11.7524217"><ele>494.0</ele><time>2026-03-29T14:55:31.076Z</time></trkpt><trkpt lat="43.0281383" lon="11.7523633"><ele>494.0</ele><time>2026-03-29T14:55:32.075Z</time></trkpt><trkpt lat="43.028235" lon="11.7523017"><ele>494.0</ele><time>2026-03-29T14:55:33.076Z</time></trkpt><trkpt lat="43.0283383" lon="11.7522467"><ele>494.0</ele><time>2026-03-29T14:55:34.076Z</time></trkpt><trkpt lat="43.028445" lon="11.7522033"><ele>494.0</ele><time>2026-03-29T14:55:35.075Z</time></trkpt><trkpt lat="43.0285667" lon="11.7521683"><ele>494.0</ele><time>2026-03-29T14:55:36.075Z</time></trkpt><trkpt lat="43.02868" lon="11.7521367"><ele>494.0</ele><time>2026-03-29T14:55:37.076Z</time></trkpt><trkpt lat="43.028775" lon="11.7521167"><ele>494.0</ele><time>2026-03-29T14:55:38.076Z</time></trkpt><trkpt lat="43.0288483" lon="11.7520933"><ele>494.0</ele><time>2026-03-29T14:55:39.075Z</time></trkpt><trkpt lat="43.02891" lon="11.7520633"><ele>494.0</ele><time>2026-03-29T14:55:40.076Z</time></trkpt><trkpt lat="43.0289717" lon="11.75194"><ele>494.0</ele><time>2026-03-29T14:55:42.075Z</time></trkpt><trkpt lat="43.0289767" lon="11.7518133"><ele>494.0</ele><time>2026-03-29T14:55:44.076Z</time></trkpt><trkpt lat="43.02897" lon="11.7516767"><ele>494.0</ele><time>2026-03-29T14:55:46.076Z</time></trkpt><trkpt lat="43.0289567" lon="11.7515317"><ele>492.4</ele><time>2026-03-29T14:55:48.076Z</time></trkpt><trkpt lat="43.0289383" lon="11.75137"><ele>490.79999999999995</ele><time>2026-03-29T14:55:50.076Z</time></trkpt><trkpt lat="43.028935" lon="11.7512733"><ele>489.20000000000005</ele><time>2026-03-29T14:55:51.076Z</time></trkpt><trkpt lat="43.0289383" lon="11.7511583"><ele>487.6</ele><time>2026-03-29T14:55:52.076Z</time></trkpt><trkpt lat="43.0289417" lon="11.7510233"><ele>486.0</ele><time>2026-03-29T14:55:53.076Z</time></trkpt><trkpt lat="43.0289533" lon="11.7508683"><ele>483.75</ele><time>2026-03-29T14:55:54.076Z</time></trkpt><trkpt lat="43.0289617" lon="11.7506983"><ele>481.5</ele><time>2026-03-29T14:55:55.075Z</time></trkpt><trkpt lat="43.0289633" lon="11.750495"><ele>479.25</ele><time>2026-03-29T14:55:56.076Z</time></trkpt><trkpt lat="43.0289733" lon="11.7502983"><ele>477.0</ele><time>2026-03-29T14:55:57.076Z</time></trkpt><trkpt lat="43.0289783" lon="11.750135"><ele>478.0</ele><time>2026-03-29T14:55:58.075Z</time></trkpt><trkpt lat="43.0289933" lon="11.749985"><ele>479.00000000000006</ele><time>2026-03-29T14:55:59.076Z</time></trkpt><trkpt lat="43.029015" lon="11.7498617"><ele>480.00000000000006</ele><time>2026-03-29T14:56:00.076Z</time></trkpt><trkpt lat="43.029065" lon="11.7497367"><ele>481.0</ele><time>2026-03-29T14:56:01.076Z</time></trkpt><trkpt lat="43.0291367" lon="11.7496067"><ele>482.0</ele><time>2026-03-29T14:56:02.076Z</time></trkpt><trkpt lat="43.0292267" lon="11.749505"><ele>482.0</ele><time>2026-03-29T14:56:03.076Z</time></trkpt><trkpt lat="43.0293217" lon="11.7494283"><ele>482.0</ele><time>2026-03-29T14:56:04.075Z</time></trkpt><trkpt lat="43.029425" lon="11.749385"><ele>482.0</ele><time>2026-03-29T14:56:05.076Z</time></trkpt><trkpt lat="43.02956" lon="11.7493567"><ele>482.0</ele><time>2026-03-29T14:56:06.076Z</time></trkpt><trkpt lat="43.02971" lon="11.7493183"><ele>481.0</ele><time>2026-03-29T14:56:07.076Z</time></trkpt><trkpt lat="43.02986" lon="11.7492817"><ele>480.0</ele><time>2026-03-29T14:56:08.076Z</time></trkpt><trkpt lat="43.0299933" lon="11.7492683"><ele>479.0</ele><time>2026-03-29T14:56:09.076Z</time></trkpt><trkpt lat="43.030115" lon="11.7492567"><ele>478.0</ele><time>2026-03-29T14:56:10.076Z</time></trkpt><trkpt lat="43.030265" lon="11.7492733"><ele>478.0</ele><time>2026-03-29T14:56:11.076Z</time></trkpt><trkpt lat="43.0304183" lon="11.749325"><ele>478.0</ele><time>2026-03-29T14:56:12.075Z</time></trkpt><trkpt lat="43.030575" lon="11.7493683"><ele>478.0</ele><time>2026-03-29T14:56:13.075Z</time></trkpt><trkpt lat="43.0307017" lon="11.7494083"><ele>478.0</ele><time>2026-03-29T14:56:14.075Z</time></trkpt><trkpt lat="43.030805" lon="11.7494433"><ele>478.83333333333337</ele><time>2026-03-29T14:56:15.076Z</time></trkpt><trkpt lat="43.0309" lon="11.7494517"><ele>479.6666666666667</ele><time>2026-03-29T14:56:16.076Z</time></trkpt><trkpt lat="43.0309767" lon="11.74942"><ele>480.5</ele><time>2026-03-29T14:56:17.076Z</time></trkpt><trkpt lat="43.031035" lon="11.7493467"><ele>481.33333333333337</ele><time>2026-03-29T14:56:18.075Z</time></trkpt><trkpt lat="43.0310733" lon="11.74923"><ele>482.1666666666667</ele><time>2026-03-29T14:56:19.076Z</time></trkpt><trkpt lat="43.0310767" lon="11.7491033"><ele>483.0</ele><time>2026-03-29T14:56:20.075Z</time></trkpt><trkpt lat="43.0310617" lon="11.74897"><ele>483.0</ele><time>2026-03-29T14:56:21.076Z</time></trkpt><trkpt lat="43.0310083" lon="11.7488583"><ele>483.0</ele><time>2026-03-29T14:56:22.076Z</time></trkpt><trkpt lat="43.0309417" lon="11.7487467"><ele>483.0</ele><time>2026-03-29T14:56:23.076Z</time></trkpt><trkpt lat="43.0308817" lon="11.7486467"><ele>483.0</ele><time>2026-03-29T14:56:24.076Z</time></trkpt><trkpt lat="43.0308458" lon="11.7485614"><ele>483.0</ele><time>2026-03-29T14:56:25.075Z</time></trkpt><trkpt lat="43.0308329" lon="11.7484731"><ele>483.0</ele><time>2026-03-29T14:56:26.075Z</time></trkpt><trkpt lat="43.0308392" lon="11.7483823"><ele>483.3333333333333</ele><time>2026-03-29T14:56:27.076Z</time></trkpt><trkpt lat="43.0308609" lon="11.7482813"><ele>483.66666666666663</ele><time>2026-03-29T14:56:28.075Z</time></trkpt><trkpt lat="43.0308823" lon="11.7481693"><ele>484.0</ele><time>2026-03-29T14:56:29.075Z</time></trkpt><trkpt lat="43.0308886" lon="11.7480561"><ele>484.3333333333333</ele><time>2026-03-29T14:56:30.076Z</time></trkpt><trkpt lat="43.0308766" lon="11.7479395"><ele>484.66666666666663</ele><time>2026-03-29T14:56:31.075Z</time></trkpt><trkpt lat="43.0308501" lon="11.7478151"><ele>485.0</ele><time>2026-03-29T14:56:32.076Z</time></trkpt><trkpt lat="43.0308303" lon="11.7476833"><ele>485.8</ele><time>2026-03-29T14:56:33.076Z</time></trkpt><trkpt lat="43.0308258" lon="11.7475402"><ele>486.6</ele><time>2026-03-29T14:56:34.076Z</time></trkpt><trkpt lat="43.0308298" lon="11.7473895"><ele>487.4</ele><time>2026-03-29T14:56:35.075Z</time></trkpt><trkpt lat="43.0308384" lon="11.7472331"><ele>488.2</ele><time>2026-03-29T14:56:36.076Z</time></trkpt><trkpt lat="43.0308466" lon="11.7470753"><ele>489.0</ele><time>2026-03-29T14:56:37.075Z</time></trkpt><trkpt lat="43.0308626" lon="11.7469289"><ele>489.4</ele><time>2026-03-29T14:56:38.076Z</time></trkpt><trkpt lat="43.0308856" lon="11.7467976"><ele>489.79999999999995</ele><time>2026-03-29T14:56:39.075Z</time></trkpt><trkpt lat="43.0309168" lon="11.746662"><ele>490.20000000000005</ele><time>2026-03-29T14:56:40.076Z</time></trkpt><trkpt lat="43.0309559" lon="11.7465146"><ele>490.6</ele><time>2026-03-29T14:56:41.076Z</time></trkpt><trkpt lat="43.0309959" lon="11.746361"><ele>491.0</ele><time>2026-03-29T14:56:42.076Z</time></trkpt><trkpt lat="43.031042" lon="11.7462083"><ele>491.0</ele><time>2026-03-29T14:56:43.076Z</time></trkpt><trkpt lat="43.0310995" lon="11.7460553"><ele>491.0</ele><time>2026-03-29T14:56:44.075Z</time></trkpt><trkpt lat="43.0311693" lon="11.7459005"><ele>491.0</ele><time>2026-03-29T14:56:45.076Z</time></trkpt><trkpt lat="43.0312389" lon="11.7457367"><ele>491.0</ele><time>2026-03-29T14:56:46.076Z</time></trkpt><trkpt lat="43.0313047" lon="11.7455731"><ele>490.6</ele><time>2026-03-29T14:56:47.075Z</time></trkpt><trkpt lat="43.0313662" lon="11.7454234"><ele>490.20000000000005</ele><time>2026-03-29T14:56:48.076Z</time></trkpt><trkpt lat="43.0314177" lon="11.7452886"><ele>489.79999999999995</ele><time>2026-03-29T14:56:49.075Z</time></trkpt><trkpt lat="43.0314607" lon="11.7451638"><ele>489.4</ele><time>2026-03-29T14:56:50.075Z</time></trkpt><trkpt lat="43.0314974" lon="11.7450453"><ele>489.0</ele><time>2026-03-29T14:56:51.076Z</time></trkpt><trkpt lat="43.0315365" lon="11.7449357"><ele>488.4</ele><time>2026-03-29T14:56:52.076Z</time></trkpt><trkpt lat="43.0315651" lon="11.7448274"><ele>487.79999999999995</ele><time>2026-03-29T14:56:53.076Z</time></trkpt><trkpt lat="43.0315595" lon="11.7447118"><ele>487.20000000000005</ele><time>2026-03-29T14:56:54.076Z</time></trkpt><trkpt lat="43.031547" lon="11.7445848"><ele>486.6</ele><time>2026-03-29T14:56:55.075Z</time></trkpt><trkpt lat="43.0315015" lon="11.7444398"><ele>486.0</ele><time>2026-03-29T14:56:56.076Z</time></trkpt><trkpt lat="43.0314135" lon="11.7442906"><ele>485.75</ele><time>2026-03-29T14:56:57.076Z</time></trkpt><trkpt lat="43.0312886" lon="11.7441482"><ele>485.5</ele><time>2026-03-29T14:56:58.076Z</time></trkpt><trkpt lat="43.0311933" lon="11.7440317"><ele>485.25</ele><time>2026-03-29T14:56:59.076Z</time></trkpt><trkpt lat="43.0311367" lon="11.7439267"><ele>485.0</ele><time>2026-03-29T14:57:00.075Z</time></trkpt><trkpt lat="43.0311033" lon="11.74381"><ele>485.0</ele><time>2026-03-29T14:57:01.075Z</time></trkpt><trkpt lat="43.0310917" lon="11.7436767"><ele>485.0</ele><time>2026-03-29T14:57:02.076Z</time></trkpt><trkpt lat="43.03109" lon="11.7435467"><ele>485.0</ele><time>2026-03-29T14:57:03.076Z</time></trkpt><trkpt lat="43.0311083" lon="11.7434267"><ele>485.0</ele><time>2026-03-29T14:57:04.076Z</time></trkpt><trkpt lat="43.0311417" lon="11.7433183"><ele>485.0</ele><time>2026-03-29T14:57:05.076Z</time></trkpt><trkpt lat="43.0311883" lon="11.743225"><ele>484.8333333333333</ele><time>2026-03-29T14:57:06.076Z</time></trkpt><trkpt lat="43.0312383" lon="11.7431433"><ele>484.66666666666663</ele><time>2026-03-29T14:57:07.076Z</time></trkpt><trkpt lat="43.0312817" lon="11.743065"><ele>484.5</ele><time>2026-03-29T14:57:08.075Z</time></trkpt><trkpt lat="43.03131" lon="11.7428983"><ele>484.33333333333337</ele><time>2026-03-29T14:57:10.076Z</time></trkpt><trkpt lat="43.0313017" lon="11.7428083"><ele>484.1666666666667</ele><time>2026-03-29T14:57:11.076Z</time></trkpt><trkpt lat="43.031285" lon="11.7427133"><ele>484.0</ele><time>2026-03-29T14:57:12.075Z</time></trkpt><trkpt lat="43.03128" lon="11.7426183"><ele>483.33333333333337</ele><time>2026-03-29T14:57:13.076Z</time></trkpt><trkpt lat="43.0312717" lon="11.742495"><ele>482.6666666666667</ele><time>2026-03-29T14:57:14.076Z</time></trkpt><trkpt lat="43.0312683" lon="11.74238"><ele>482.0</ele><time>2026-03-29T14:57:15.076Z</time></trkpt><trkpt lat="43.0312633" lon="11.7422767"><ele>481.33333333333337</ele><time>2026-03-29T14:57:16.075Z</time></trkpt><trkpt lat="43.0312517" lon="11.742185"><ele>480.6666666666667</ele><time>2026-03-29T14:57:17.076Z</time></trkpt><trkpt lat="43.0312217" lon="11.742065"><ele>480.0</ele><time>2026-03-29T14:57:19.075Z</time></trkpt><trkpt lat="43.0312417" lon="11.741925"><ele>478.6</ele><time>2026-03-29T14:57:22.075Z</time></trkpt><trkpt lat="43.0312767" lon="11.74179"><ele>477.2</ele><time>2026-03-29T14:57:24.076Z</time></trkpt><trkpt lat="43.0312783" lon="11.7416533"><ele>475.79999999999995</ele><time>2026-03-29T14:57:26.076Z</time></trkpt><trkpt lat="43.0312217" lon="11.741515"><ele>474.4</ele><time>2026-03-29T14:57:28.075Z</time></trkpt><trkpt lat="43.031135" lon="11.741415"><ele>473.0</ele><time>2026-03-29T14:57:30.076Z</time></trkpt><trkpt lat="43.03108" lon="11.741365"><ele>472.99999999999994</ele><time>2026-03-29T14:57:31.076Z</time></trkpt><trkpt lat="43.0310133" lon="11.741305"><ele>473.0</ele><time>2026-03-29T14:57:32.076Z</time></trkpt><trkpt lat="43.0309433" lon="11.7412433"><ele>473.0</ele><time>2026-03-29T14:57:33.076Z</time></trkpt><trkpt lat="43.0308633" lon="11.7411783"><ele>473.0</ele><time>2026-03-29T14:57:34.076Z</time></trkpt><trkpt lat="43.0307817" lon="11.7411083"><ele>472.99999999999994</ele><time>2026-03-29T14:57:35.076Z</time></trkpt><trkpt lat="43.0306983" lon="11.7410467"><ele>473.0</ele><time>2026-03-29T14:57:36.075Z</time></trkpt><trkpt lat="43.0306133" lon="11.7409733"><ele>470.5</ele><time>2026-03-29T14:57:37.076Z</time></trkpt><trkpt lat="43.0305167" lon="11.7408917"><ele>468.0</ele><time>2026-03-29T14:57:38.076Z</time></trkpt><trkpt lat="43.03042" lon="11.7408133"><ele>465.5</ele><time>2026-03-29T14:57:39.075Z</time></trkpt><trkpt lat="43.0303217" lon="11.7407167"><ele>463.0</ele><time>2026-03-29T14:57:40.076Z</time></trkpt><trkpt lat="43.0302333" lon="11.7406317"><ele>463.0</ele><time>2026-03-29T14:57:41.075Z</time></trkpt><trkpt lat="43.0301467" lon="11.7405483"><ele>463.0</ele><time>2026-03-29T14:57:42.076Z</time></trkpt><trkpt lat="43.0300583" lon="11.740465"><ele>463.0</ele><time>2026-03-29T14:57:43.076Z</time></trkpt><trkpt lat="43.0299617" lon="11.740375"><ele>463.0</ele><time>2026-03-29T14:57:44.076Z</time></trkpt><trkpt lat="43.0298667" lon="11.7402683"><ele>460.75</ele><time>2026-03-29T14:57:45.076Z</time></trkpt><trkpt lat="43.0297617" lon="11.740155"><ele>458.5</ele><time>2026-03-29T14:57:46.076Z</time></trkpt><trkpt lat="43.0296683" lon="11.7400267"><ele>456.25</ele><time>2026-03-29T14:57:47.076Z</time></trkpt><trkpt lat="43.0295783" lon="11.7399017"><ele>454.0</ele><time>2026-03-29T14:57:48.076Z</time></trkpt><trkpt lat="43.02949" lon="11.7397883"><ele>454.0</ele><time>2026-03-29T14:57:49.076Z</time></trkpt><trkpt lat="43.0294033" lon="11.739675"><ele>454.0</ele><time>2026-03-29T14:57:50.075Z</time></trkpt><trkpt lat="43.0293" lon="11.7395483"><ele>454.0</ele><time>2026-03-29T14:57:51.076Z</time></trkpt><trkpt lat="43.0291933" lon="11.7394133"><ele>454.0</ele><time>2026-03-29T14:57:52.076Z</time></trkpt><trkpt lat="43.0290917" lon="11.7392933"><ele>450.2</ele><time>2026-03-29T14:57:53.076Z</time></trkpt><trkpt lat="43.0289983" lon="11.7391767"><ele>446.4</ele><time>2026-03-29T14:57:54.075Z</time></trkpt><trkpt lat="43.0289233" lon="11.73907"><ele>442.6</ele><time>2026-03-29T14:57:55.076Z</time></trkpt><trkpt lat="43.0288667" lon="11.7389517"><ele>438.8</ele><time>2026-03-29T14:57:56.076Z</time></trkpt><trkpt lat="43.0288517" lon="11.7388217"><ele>435.0</ele><time>2026-03-29T14:57:57.076Z</time></trkpt><trkpt lat="43.0288683" lon="11.7387167"><ele>435.0</ele><time>2026-03-29T14:57:58.076Z</time></trkpt><trkpt lat="43.0289133" lon="11.73862"><ele>435.0</ele><time>2026-03-29T14:57:59.076Z</time></trkpt><trkpt lat="43.028985" lon="11.7385333"><ele>435.0</ele><time>2026-03-29T14:58:00.076Z</time></trkpt><trkpt lat="43.0290617" lon="11.7384583"><ele>435.0</ele><time>2026-03-29T14:58:01.076Z</time></trkpt><trkpt lat="43.029115" lon="11.7383633"><ele>435.0</ele><time>2026-03-29T14:58:02.076Z</time></trkpt><trkpt lat="43.0291317" lon="11.7382717"><ele>435.0</ele><time>2026-03-29T14:58:03.076Z</time></trkpt><trkpt lat="43.02911" lon="11.73818"><ele>435.0</ele><time>2026-03-29T14:58:04.075Z</time></trkpt><trkpt lat="43.0290633" lon="11.7381117"><ele>435.0</ele><time>2026-03-29T14:58:05.076Z</time></trkpt><trkpt lat="43.028985" lon="11.738055"><ele>435.0</ele><time>2026-03-29T14:58:06.076Z</time></trkpt><trkpt lat="43.0288733" lon="11.7380117"><ele>435.0</ele><time>2026-03-29T14:58:07.075Z</time></trkpt><trkpt lat="43.0287367" lon="11.7379433"><ele>435.0</ele><time>2026-03-29T14:58:08.076Z</time></trkpt><trkpt lat="43.02861" lon="11.737865"><ele>435.0</ele><time>2026-03-29T14:58:09.075Z</time></trkpt><trkpt lat="43.0284883" lon="11.7377767"><ele>435.0</ele><time>2026-03-29T14:58:10.075Z</time></trkpt><trkpt lat="43.028375" lon="11.7376733"><ele>435.0</ele><time>2026-03-29T14:58:11.075Z</time></trkpt><trkpt lat="43.028265" lon="11.73757"><ele>435.0</ele><time>2026-03-29T14:58:12.075Z</time></trkpt><trkpt lat="43.0281633" lon="11.7374583"><ele>430.75</ele><time>2026-03-29T14:58:13.075Z</time></trkpt><trkpt lat="43.028055" lon="11.737335"><ele>426.5</ele><time>2026-03-29T14:58:14.076Z</time></trkpt><trkpt lat="43.02795" lon="11.7372"><ele>422.25</ele><time>2026-03-29T14:58:15.076Z</time></trkpt><trkpt lat="43.02785" lon="11.7370717"><ele>418.0</ele><time>2026-03-29T14:58:16.076Z</time></trkpt><trkpt lat="43.0277517" lon="11.73695"><ele>418.25</ele><time>2026-03-29T14:58:17.076Z</time></trkpt><trkpt lat="43.0276533" lon="11.736835"><ele>418.5</ele><time>2026-03-29T14:58:18.076Z</time></trkpt><trkpt lat="43.0275567" lon="11.73671"><ele>418.75</ele><time>2026-03-29T14:58:19.075Z</time></trkpt><trkpt lat="43.02747" lon="11.7365883"><ele>419.0</ele><time>2026-03-29T14:58:20.076Z</time></trkpt><trkpt lat="43.0273783" lon="11.736475"><ele>416.79999999999995</ele><time>2026-03-29T14:58:21.075Z</time></trkpt><trkpt lat="43.027305" lon="11.7363767"><ele>414.59999999999997</ele><time>2026-03-29T14:58:22.076Z</time></trkpt><trkpt lat="43.027245" lon="11.7362883"><ele>412.4</ele><time>2026-03-29T14:58:23.075Z</time></trkpt><trkpt lat="43.0272" lon="11.736195"><ele>410.2</ele><time>2026-03-29T14:58:24.076Z</time></trkpt><trkpt lat="43.0271833" lon="11.7360883"><ele>408.0</ele><time>2026-03-29T14:58:25.076Z</time></trkpt><trkpt lat="43.0271883" lon="11.735955"><ele>408.0</ele><time>2026-03-29T14:58:26.076Z</time></trkpt><trkpt lat="43.02722" lon="11.7358067"><ele>408.0</ele><time>2026-03-29T14:58:27.075Z</time></trkpt><trkpt lat="43.0272617" lon="11.7356567"><ele>408.0</ele><time>2026-03-29T14:58:28.075Z</time></trkpt><trkpt lat="43.02732" lon="11.7355183"><ele>408.0</ele><time>2026-03-29T14:58:29.075Z</time></trkpt><trkpt lat="43.0273767" lon="11.735385"><ele>408.0</ele><time>2026-03-29T14:58:30.075Z</time></trkpt><trkpt lat="43.0274183" lon="11.7352467"><ele>408.0</ele><time>2026-03-29T14:58:31.076Z</time></trkpt><trkpt lat="43.0274383" lon="11.7351"><ele>408.0</ele><time>2026-03-29T14:58:32.076Z</time></trkpt><trkpt lat="43.027455" lon="11.7349517"><ele>408.0</ele><time>2026-03-29T14:58:33.076Z</time></trkpt><trkpt lat="43.0274833" lon="11.7348117"><ele>408.0</ele><time>2026-03-29T14:58:34.076Z</time></trkpt><trkpt lat="43.02753" lon="11.7346817"><ele>408.0</ele><time>2026-03-29T14:58:35.076Z</time></trkpt><trkpt lat="43.0275883" lon="11.7345567"><ele>408.0</ele><time>2026-03-29T14:58:36.076Z</time></trkpt><trkpt lat="43.0276533" lon="11.7344417"><ele>408.0</ele><time>2026-03-29T14:58:37.076Z</time></trkpt><trkpt lat="43.027715" lon="11.7343317"><ele>408.0</ele><time>2026-03-29T14:58:38.075Z</time></trkpt><trkpt lat="43.0277667" lon="11.73422"><ele>408.0</ele><time>2026-03-29T14:58:39.076Z</time></trkpt><trkpt lat="43.0278017" lon="11.734105"><ele>405.79999999999995</ele><time>2026-03-29T14:58:40.075Z</time></trkpt><trkpt lat="43.0278267" lon="11.7339733"><ele>403.6</ele><time>2026-03-29T14:58:41.076Z</time></trkpt><trkpt lat="43.0278417" lon="11.7338417"><ele>401.4</ele><time>2026-03-29T14:58:42.076Z</time></trkpt><trkpt lat="43.027845" lon="11.73371"><ele>399.20000000000005</ele><time>2026-03-29T14:58:43.076Z</time></trkpt><trkpt lat="43.0278533" lon="11.73357"><ele>397.0</ele><time>2026-03-29T14:58:44.075Z</time></trkpt><trkpt lat="43.02787" lon="11.7334317"><ele>395.20000000000005</ele><time>2026-03-29T14:58:45.075Z</time></trkpt><trkpt lat="43.0278867" lon="11.73329"><ele>393.4</ele><time>2026-03-29T14:58:46.075Z</time></trkpt><trkpt lat="43.0279033" lon="11.7331433"><ele>391.6</ele><time>2026-03-29T14:58:47.075Z</time></trkpt><trkpt lat="43.0279133" lon="11.733"><ele>389.79999999999995</ele><time>2026-03-29T14:58:48.075Z</time></trkpt><trkpt lat="43.0279333" lon="11.7328567"><ele>388.0</ele><time>2026-03-29T14:58:49.076Z</time></trkpt><trkpt lat="43.0279467" lon="11.7327117"><ele>386.4</ele><time>2026-03-29T14:58:50.075Z</time></trkpt><trkpt lat="43.027945" lon="11.7325733"><ele>384.79999999999995</ele><time>2026-03-29T14:58:51.076Z</time></trkpt><trkpt lat="43.02793" lon="11.7324333"><ele>383.2</ele><time>2026-03-29T14:58:52.076Z</time></trkpt><trkpt lat="43.0279017" lon="11.7323067"><ele>381.6</ele><time>2026-03-29T14:58:53.076Z</time></trkpt><trkpt lat="43.0278683" lon="11.7321867"><ele>380.0</ele><time>2026-03-29T14:58:54.077Z</time></trkpt><trkpt lat="43.0278233" lon="11.7320783"><ele>380.0</ele><time>2026-03-29T14:58:55.077Z</time></trkpt><trkpt lat="43.027755" lon="11.73198"><ele>380.0</ele><time>2026-03-29T14:58:56.076Z</time></trkpt><trkpt lat="43.02766" lon="11.7318783"><ele>380.0</ele><time>2026-03-29T14:58:57.077Z</time></trkpt><trkpt lat="43.0275433" lon="11.731755"><ele>380.0</ele><time>2026-03-29T14:58:58.076Z</time></trkpt><trkpt lat="43.0274217" lon="11.7315917"><ele>376.0</ele><time>2026-03-29T14:58:59.077Z</time></trkpt><trkpt lat="43.0272983" lon="11.731415"><ele>372.0</ele><time>2026-03-29T14:59:00.076Z</time></trkpt><trkpt lat="43.02719" lon="11.7312483"><ele>368.0</ele><time>2026-03-29T14:59:01.077Z</time></trkpt><trkpt lat="43.0270933" lon="11.731085"><ele>364.6666666666667</ele><time>2026-03-29T14:59:02.077Z</time></trkpt><trkpt lat="43.02699" lon="11.7309183"><ele>361.3333333333333</ele><time>2026-03-29T14:59:03.076Z</time></trkpt><trkpt lat="43.0268817" lon="11.7307667"><ele>358.0</ele><time>2026-03-29T14:59:04.076Z</time></trkpt><trkpt lat="43.02677" lon="11.730615"><ele>358.0</ele><time>2026-03-29T14:59:05.077Z</time></trkpt><trkpt lat="43.0266633" lon="11.73048"><ele>358.0</ele><time>2026-03-29T14:59:06.077Z</time></trkpt><trkpt lat="43.0265617" lon="11.73037"><ele>358.0</ele><time>2026-03-29T14:59:07.077Z</time></trkpt><trkpt lat="43.0264683" lon="11.7302617"><ele>358.0</ele><time>2026-03-29T14:59:08.076Z</time></trkpt><trkpt lat="43.026395" lon="11.7301467"><ele>355.25</ele><time>2026-03-29T14:59:09.077Z</time></trkpt><trkpt lat="43.026335" lon="11.73"><ele>352.5</ele><time>2026-03-29T14:59:10.077Z</time></trkpt><trkpt lat="43.0262933" lon="11.7298183"><ele>349.75</ele><time>2026-03-29T14:59:11.077Z</time></trkpt><trkpt lat="43.0262583" lon="11.7296333"><ele>347.0</ele><time>2026-03-29T14:59:12.077Z</time></trkpt><trkpt lat="43.0262267" lon="11.7294467"><ele>347.33333333333337</ele><time>2026-03-29T14:59:13.077Z</time></trkpt><trkpt lat="43.0261933" lon="11.7292433"><ele>347.6666666666667</ele><time>2026-03-29T14:59:14.077Z</time></trkpt><trkpt lat="43.0261633" lon="11.72904"><ele>348.0</ele><time>2026-03-29T14:59:15.076Z</time></trkpt><trkpt lat="43.0261333" lon="11.7288383"><ele>348.0</ele><time>2026-03-29T14:59:16.077Z</time></trkpt><trkpt lat="43.0261033" lon="11.72864"><ele>348.0</ele><time>2026-03-29T14:59:17.076Z</time></trkpt><trkpt lat="43.0260683" lon="11.7284433"><ele>348.0</ele><time>2026-03-29T14:59:18.077Z</time></trkpt><trkpt lat="43.0260333" lon="11.72824"><ele>348.0</ele><time>2026-03-29T14:59:19.077Z</time></trkpt><trkpt lat="43.0259983" lon="11.72804"><ele>347.5</ele><time>2026-03-29T14:59:20.077Z</time></trkpt><trkpt lat="43.0259667" lon="11.7278467"><ele>347.0</ele><time>2026-03-29T14:59:21.077Z</time></trkpt><trkpt lat="43.0259367" lon="11.7276617"><ele>346.5</ele><time>2026-03-29T14:59:22.077Z</time></trkpt><trkpt lat="43.025905" lon="11.7274833"><ele>346.0</ele><time>2026-03-29T14:59:23.076Z</time></trkpt><trkpt lat="43.0258717" lon="11.7273067"><ele>345.4</ele><time>2026-03-29T14:59:24.076Z</time></trkpt><trkpt lat="43.0258417" lon="11.72715"><ele>344.8</ele><time>2026-03-29T14:59:25.077Z</time></trkpt><trkpt lat="43.0258033" lon="11.7270083"><ele>344.2</ele><time>2026-03-29T14:59:26.077Z</time></trkpt><trkpt lat="43.02576" lon="11.7268717"><ele>343.59999999999997</ele><time>2026-03-29T14:59:27.077Z</time></trkpt><trkpt lat="43.02572" lon="11.7267333"><ele>343.0</ele><time>2026-03-29T14:59:28.077Z</time></trkpt><trkpt lat="43.025675" lon="11.7265967"><ele>339.79999999999995</ele><time>2026-03-29T14:59:29.077Z</time></trkpt><trkpt lat="43.02564" lon="11.7264567"><ele>336.6</ele><time>2026-03-29T14:59:30.077Z</time></trkpt><trkpt lat="43.025605" lon="11.7263117"><ele>333.4</ele><time>2026-03-29T14:59:31.077Z</time></trkpt><trkpt lat="43.0255717" lon="11.7261817"><ele>330.20000000000005</ele><time>2026-03-29T14:59:32.077Z</time></trkpt><trkpt lat="43.0255333" lon="11.7260633"><ele>327.0</ele><time>2026-03-29T14:59:33.076Z</time></trkpt><trkpt lat="43.0254917" lon="11.7259633"><ele>326.0</ele><time>2026-03-29T14:59:34.076Z</time></trkpt><trkpt lat="43.025425" lon="11.7259017"><ele>325.0</ele><time>2026-03-29T14:59:35.076Z</time></trkpt><trkpt lat="43.0253535" lon="11.7258516"><ele>324.0</ele><time>2026-03-29T14:59:36.077Z</time></trkpt><trkpt lat="43.0252755" lon="11.7258348"><ele>323.0</ele><time>2026-03-29T14:59:37.076Z</time></trkpt><trkpt lat="43.0251938" lon="11.7258551"><ele>322.0</ele><time>2026-03-29T14:59:38.077Z</time></trkpt><trkpt lat="43.0251133" lon="11.7259172"><ele>321.0</ele><time>2026-03-29T14:59:39.076Z</time></trkpt><trkpt lat="43.0250277" lon="11.7260321"><ele>319.0</ele><time>2026-03-29T14:59:40.077Z</time></trkpt><trkpt lat="43.0249298" lon="11.7261893"><ele>317.0</ele><time>2026-03-29T14:59:41.077Z</time></trkpt><trkpt lat="43.0248451" lon="11.7263069"><ele>315.0</ele><time>2026-03-29T14:59:42.077Z</time></trkpt><trkpt lat="43.024763" lon="11.7264236"><ele>313.0</ele><time>2026-03-29T14:59:43.077Z</time></trkpt><trkpt lat="43.0246853" lon="11.7265508"><ele>313.0</ele><time>2026-03-29T14:59:44.077Z</time></trkpt><trkpt lat="43.0246046" lon="11.7266785"><ele>313.0</ele><time>2026-03-29T14:59:45.077Z</time></trkpt><trkpt lat="43.0245172" lon="11.7268082"><ele>313.0</ele><time>2026-03-29T14:59:46.077Z</time></trkpt><trkpt lat="43.0244226" lon="11.7269444"><ele>313.0</ele><time>2026-03-29T14:59:47.077Z</time></trkpt><trkpt lat="43.0243267" lon="11.7270839"><ele>314.25</ele><time>2026-03-29T14:59:48.077Z</time></trkpt><trkpt lat="43.024229" lon="11.7272204"><ele>315.5</ele><time>2026-03-29T14:59:49.076Z</time></trkpt><trkpt lat="43.0241352" lon="11.7273598"><ele>316.75</ele><time>2026-03-29T14:59:50.076Z</time></trkpt><trkpt lat="43.0240599" lon="11.7274801"><ele>318.0</ele><time>2026-03-29T14:59:51.077Z</time></trkpt><trkpt lat="43.0239802" lon="11.7276049"><ele>315.6</ele><time>2026-03-29T14:59:52.077Z</time></trkpt><trkpt lat="43.0239028" lon="11.7277215"><ele>313.20000000000005</ele><time>2026-03-29T14:59:53.077Z</time></trkpt><trkpt lat="43.0238223" lon="11.7278237"><ele>310.8</ele><time>2026-03-29T14:59:54.077Z</time></trkpt><trkpt lat="43.0237444" lon="11.727915"><ele>308.40000000000003</ele><time>2026-03-29T14:59:55.077Z</time></trkpt><trkpt lat="43.0236664" lon="11.7279902"><ele>306.0</ele><time>2026-03-29T14:59:56.077Z</time></trkpt><trkpt lat="43.0235834" lon="11.7280201"><ele>306.0</ele><time>2026-03-29T14:59:57.076Z</time></trkpt><trkpt lat="43.0235061" lon="11.7280409"><ele>306.0</ele><time>2026-03-29T14:59:58.077Z</time></trkpt><trkpt lat="43.0234331" lon="11.7280297"><ele>306.0</ele><time>2026-03-29T14:59:59.076Z</time></trkpt><trkpt lat="43.0233625" lon="11.7279847"><ele>306.0</ele><time>2026-03-29T15:00:00.077Z</time></trkpt><trkpt lat="43.0232981" lon="11.7279137"><ele>306.0</ele><time>2026-03-29T15:00:01.077Z</time></trkpt><trkpt lat="43.0232421" lon="11.7278271"><ele>306.0</ele><time>2026-03-29T15:00:02.077Z</time></trkpt><trkpt lat="43.0231983" lon="11.727726"><ele>303.8333333333333</ele><time>2026-03-29T15:00:03.077Z</time></trkpt><trkpt lat="43.0231746" lon="11.7276148"><ele>301.6666666666667</ele><time>2026-03-29T15:00:04.077Z</time></trkpt><trkpt lat="43.0231678" lon="11.7274953"><ele>299.5</ele><time>2026-03-29T15:00:05.076Z</time></trkpt><trkpt lat="43.0231699" lon="11.7273749"><ele>297.33333333333337</ele><time>2026-03-29T15:00:06.077Z</time></trkpt><trkpt lat="43.0231762" lon="11.7272509"><ele>295.1666666666667</ele><time>2026-03-29T15:00:07.077Z</time></trkpt><trkpt lat="43.0231861" lon="11.7271218"><ele>293.0</ele><time>2026-03-29T15:00:08.077Z</time></trkpt><trkpt lat="43.0232067" lon="11.7269817"><ele>292.6666666666667</ele><time>2026-03-29T15:00:09.076Z</time></trkpt><trkpt lat="43.0232167" lon="11.72686"><ele>292.33333333333337</ele><time>2026-03-29T15:00:10.077Z</time></trkpt><trkpt lat="43.023225" lon="11.726755"><ele>292.0</ele><time>2026-03-29T15:00:11.077Z</time></trkpt><trkpt lat="43.023215" lon="11.7266633"><ele>291.6666666666667</ele><time>2026-03-29T15:00:12.077Z</time></trkpt><trkpt lat="43.0231767" lon="11.7265567"><ele>291.3333333333333</ele><time>2026-03-29T15:00:14.076Z</time></trkpt><trkpt lat="43.02319" lon="11.7263983"><ele>291.0</ele><time>2026-03-29T15:00:16.077Z</time></trkpt><trkpt lat="43.0232217" lon="11.7262733"><ele>291.0</ele><time>2026-03-29T15:00:17.077Z</time></trkpt><trkpt lat="43.0232583" lon="11.7261383"><ele>291.0</ele><time>2026-03-29T15:00:18.076Z</time></trkpt><trkpt lat="43.0232983" lon="11.7259883"><ele>291.0</ele><time>2026-03-29T15:00:19.076Z</time></trkpt><trkpt lat="43.023345" lon="11.7258317"><ele>291.0</ele><time>2026-03-29T15:00:20.076Z</time></trkpt><trkpt lat="43.0233933" lon="11.7256617"><ele>292.6666666666667</ele><time>2026-03-29T15:00:21.077Z</time></trkpt><trkpt lat="43.02344" lon="11.72547"><ele>294.33333333333337</ele><time>2026-03-29T15:00:22.077Z</time></trkpt><trkpt lat="43.0234917" lon="11.725265"><ele>296.0</ele><time>2026-03-29T15:00:23.077Z</time></trkpt><trkpt lat="43.023545" lon="11.72505"><ele>296.0</ele><time>2026-03-29T15:00:24.077Z</time></trkpt><trkpt lat="43.0236017" lon="11.7248183"><ele>296.0</ele><time>2026-03-29T15:00:25.077Z</time></trkpt><trkpt lat="43.0236433" lon="11.724585"><ele>296.0</ele><time>2026-03-29T15:00:26.077Z</time></trkpt><trkpt lat="43.02367" lon="11.724335"><ele>296.0</ele><time>2026-03-29T15:00:27.076Z</time></trkpt><trkpt lat="43.02368" lon="11.724075"><ele>296.0</ele><time>2026-03-29T15:00:28.077Z</time></trkpt><trkpt lat="43.0236883" lon="11.7238017"><ele>296.0</ele><time>2026-03-29T15:00:29.076Z</time></trkpt><trkpt lat="43.0236883" lon="11.72354"><ele>296.33333333333337</ele><time>2026-03-29T15:00:30.077Z</time></trkpt><trkpt lat="43.02369" lon="11.7232783"><ele>296.6666666666667</ele><time>2026-03-29T15:00:31.077Z</time></trkpt><trkpt lat="43.023695" lon="11.723015"><ele>297.0</ele><time>2026-03-29T15:00:32.076Z</time></trkpt><trkpt lat="43.0236967" lon="11.722745"><ele>296.6666666666667</ele><time>2026-03-29T15:00:33.077Z</time></trkpt><trkpt lat="43.0237017" lon="11.7224783"><ele>296.33333333333337</ele><time>2026-03-29T15:00:34.077Z</time></trkpt><trkpt lat="43.023715" lon="11.7222083"><ele>296.0</ele><time>2026-03-29T15:00:35.077Z</time></trkpt><trkpt lat="43.0237267" lon="11.7219383"><ele>296.0</ele><time>2026-03-29T15:00:36.077Z</time></trkpt><trkpt lat="43.0237283" lon="11.7216667"><ele>296.0</ele><time>2026-03-29T15:00:37.076Z</time></trkpt><trkpt lat="43.0237417" lon="11.7213917"><ele>296.0</ele><time>2026-03-29T15:00:38.077Z</time></trkpt><trkpt lat="43.02374" lon="11.7211183"><ele>295.6666666666667</ele><time>2026-03-29T15:00:39.077Z</time></trkpt><trkpt lat="43.0237433" lon="11.7208533"><ele>295.3333333333333</ele><time>2026-03-29T15:00:40.077Z</time></trkpt><trkpt lat="43.023745" lon="11.7205883"><ele>295.0</ele><time>2026-03-29T15:00:41.076Z</time></trkpt><trkpt lat="43.0237467" lon="11.7203183"><ele>295.0</ele><time>2026-03-29T15:00:42.076Z</time></trkpt><trkpt lat="43.0237533" lon="11.720045"><ele>295.0</ele><time>2026-03-29T15:00:43.077Z</time></trkpt><trkpt lat="43.0237617" lon="11.7197767"><ele>295.0</ele><time>2026-03-29T15:00:44.076Z</time></trkpt><trkpt lat="43.0237617" lon="11.719515"><ele>294.66666666666663</ele><time>2026-03-29T15:00:45.076Z</time></trkpt><trkpt lat="43.02376" lon="11.719245"><ele>294.3333333333333</ele><time>2026-03-29T15:00:46.077Z</time></trkpt><trkpt lat="43.023765" lon="11.7189717"><ele>294.0</ele><time>2026-03-29T15:00:47.077Z</time></trkpt><trkpt lat="43.0237667" lon="11.7186983"><ele>293.6666666666667</ele><time>2026-03-29T15:00:48.076Z</time></trkpt><trkpt lat="43.0237683" lon="11.7184333"><ele>293.33333333333337</ele><time>2026-03-29T15:00:49.076Z</time></trkpt><trkpt lat="43.023775" lon="11.71818"><ele>293.0</ele><time>2026-03-29T15:00:50.077Z</time></trkpt><trkpt lat="43.0237817" lon="11.7179383"><ele>293.33333333333337</ele><time>2026-03-29T15:00:51.077Z</time></trkpt><trkpt lat="43.023795" lon="11.7177083"><ele>293.6666666666667</ele><time>2026-03-29T15:00:52.077Z</time></trkpt><trkpt lat="43.0238033" lon="11.7174883"><ele>294.0</ele><time>2026-03-29T15:00:53.077Z</time></trkpt><trkpt lat="43.0238133" lon="11.7172783"><ele>294.0</ele><time>2026-03-29T15:00:54.077Z</time></trkpt><trkpt lat="43.02383" lon="11.717085"><ele>294.0</ele><time>2026-03-29T15:00:55.077Z</time></trkpt><trkpt lat="43.0238417" lon="11.71689"><ele>294.0</ele><time>2026-03-29T15:00:56.076Z</time></trkpt><trkpt lat="43.023855" lon="11.7166983"><ele>294.0</ele><time>2026-03-29T15:00:57.077Z</time></trkpt><trkpt lat="43.0238633" lon="11.7165067"><ele>293.75</ele><time>2026-03-29T15:00:58.077Z</time></trkpt><trkpt lat="43.02387" lon="11.7163017"><ele>293.5</ele><time>2026-03-29T15:00:59.077Z</time></trkpt><trkpt lat="43.0238817" lon="11.7161033"><ele>293.25</ele><time>2026-03-29T15:01:00.076Z</time></trkpt><trkpt lat="43.0238967" lon="11.71592"><ele>293.0</ele><time>2026-03-29T15:01:01.076Z</time></trkpt><trkpt lat="43.0239067" lon="11.7157417"><ele>293.0</ele><time>2026-03-29T15:01:02.077Z</time></trkpt><trkpt lat="43.0239133" lon="11.7155833"><ele>293.0</ele><time>2026-03-29T15:01:03.077Z</time></trkpt><trkpt lat="43.0239217" lon="11.7154567"><ele>293.0</ele><time>2026-03-29T15:01:04.077Z</time></trkpt><trkpt lat="43.0239417" lon="11.715375"><ele>293.0</ele><time>2026-03-29T15:01:05.077Z</time></trkpt><trkpt lat="43.024005" lon="11.7153133"><ele>293.0</ele><time>2026-03-29T15:01:07.077Z</time></trkpt><trkpt lat="43.0240867" lon="11.71536"><ele>293.0</ele><time>2026-03-29T15:01:09.076Z</time></trkpt><trkpt lat="43.0241933" lon="11.715455"><ele>294.4</ele><time>2026-03-29T15:01:11.076Z</time></trkpt><trkpt lat="43.0242483" lon="11.7155017"><ele>295.8</ele><time>2026-03-29T15:01:12.076Z</time></trkpt><trkpt lat="43.02436" lon="11.7155733"><ele>297.2</ele><time>2026-03-29T15:01:14.076Z</time></trkpt><trkpt lat="43.024535" lon="11.7155"><ele>298.6</ele><time>2026-03-29T15:01:18.077Z</time></trkpt><trkpt lat="43.024575" lon="11.7154183"><ele>300.0</ele><time>2026-03-29T15:01:19.076Z</time></trkpt><trkpt lat="43.0246267" lon="11.7153317"><ele>299.5</ele><time>2026-03-29T15:01:20.076Z</time></trkpt><trkpt lat="43.0246883" lon="11.7152267"><ele>299.0</ele><time>2026-03-29T15:01:21.076Z</time></trkpt><trkpt lat="43.02476" lon="11.7151017"><ele>298.5</ele><time>2026-03-29T15:01:22.076Z</time></trkpt><trkpt lat="43.0248417" lon="11.71497"><ele>298.0</ele><time>2026-03-29T15:01:23.077Z</time></trkpt><trkpt lat="43.024925" lon="11.7148233"><ele>300.0</ele><time>2026-03-29T15:01:24.077Z</time></trkpt><trkpt lat="43.025015" lon="11.714675"><ele>302.0</ele><time>2026-03-29T15:01:25.077Z</time></trkpt><trkpt lat="43.0251133" lon="11.7145533"><ele>304.0</ele><time>2026-03-29T15:01:26.077Z</time></trkpt><trkpt lat="43.0252083" lon="11.7144483"><ele>306.0</ele><time>2026-03-29T15:01:27.076Z</time></trkpt><trkpt lat="43.025305" lon="11.7143667"><ele>306.75</ele><time>2026-03-29T15:01:28.077Z</time></trkpt><trkpt lat="43.0253983" lon="11.714285"><ele>307.5</ele><time>2026-03-29T15:01:29.077Z</time></trkpt><trkpt lat="43.0254933" lon="11.714195"><ele>308.25</ele><time>2026-03-29T15:01:30.076Z</time></trkpt><trkpt lat="43.0255867" lon="11.7141"><ele>309.0</ele><time>2026-03-29T15:01:31.077Z</time></trkpt><trkpt lat="43.0256733" lon="11.7140117"><ele>309.0</ele><time>2026-03-29T15:01:32.077Z</time></trkpt><trkpt lat="43.0257683" lon="11.713915"><ele>309.0</ele><time>2026-03-29T15:01:33.077Z</time></trkpt><trkpt lat="43.0258533" lon="11.7138067"><ele>309.0</ele><time>2026-03-29T15:01:34.077Z</time></trkpt><trkpt lat="43.0259367" lon="11.7137083"><ele>309.0</ele><time>2026-03-29T15:01:35.076Z</time></trkpt><trkpt lat="43.0260167" lon="11.7136083"><ele>313.4</ele><time>2026-03-29T15:01:36.077Z</time></trkpt><trkpt lat="43.0260983" lon="11.7135133"><ele>317.79999999999995</ele><time>2026-03-29T15:01:37.077Z</time></trkpt><trkpt lat="43.0261783" lon="11.7134133"><ele>322.20000000000005</ele><time>2026-03-29T15:01:38.076Z</time></trkpt><trkpt lat="43.02626" lon="11.7133117"><ele>326.6</ele><time>2026-03-29T15:01:39.076Z</time></trkpt><trkpt lat="43.026335" lon="11.7131983"><ele>331.0</ele><time>2026-03-29T15:01:40.077Z</time></trkpt><trkpt lat="43.0264067" lon="11.7130967"><ele>331.0</ele><time>2026-03-29T15:01:41.077Z</time></trkpt><trkpt lat="43.0264733" lon="11.7129783"><ele>331.0</ele><time>2026-03-29T15:01:42.077Z</time></trkpt><trkpt lat="43.0265383" lon="11.71285"><ele>331.0</ele><time>2026-03-29T15:01:43.077Z</time></trkpt><trkpt lat="43.0266017" lon="11.7127133"><ele>331.0</ele><time>2026-03-29T15:01:44.077Z</time></trkpt><trkpt lat="43.0266483" lon="11.7125817"><ele>331.0</ele><time>2026-03-29T15:01:45.076Z</time></trkpt><trkpt lat="43.02669" lon="11.7124567"><ele>334.66666666666663</ele><time>2026-03-29T15:01:46.076Z</time></trkpt><trkpt lat="43.0267367" lon="11.7123433"><ele>338.3333333333333</ele><time>2026-03-29T15:01:47.077Z</time></trkpt><trkpt lat="43.0267983" lon="11.71225"><ele>342.0</ele><time>2026-03-29T15:01:48.076Z</time></trkpt><trkpt lat="43.0268617" lon="11.7121817"><ele>345.6666666666667</ele><time>2026-03-29T15:01:49.077Z</time></trkpt><trkpt lat="43.0269383" lon="11.71213"><ele>349.33333333333337</ele><time>2026-03-29T15:01:50.077Z</time></trkpt><trkpt lat="43.0270133" lon="11.7121183"><ele>353.0</ele><time>2026-03-29T15:01:51.076Z</time></trkpt><trkpt lat="43.0271033" lon="11.7121283"><ele>353.0</ele><time>2026-03-29T15:01:52.077Z</time></trkpt><trkpt lat="43.02719" lon="11.7121333"><ele>353.0</ele><time>2026-03-29T15:01:53.077Z</time></trkpt><trkpt lat="43.027285" lon="11.7121417"><ele>353.0</ele><time>2026-03-29T15:01:54.077Z</time></trkpt><trkpt lat="43.0273717" lon="11.7121567"><ele>353.0</ele><time>2026-03-29T15:01:55.077Z</time></trkpt><trkpt lat="43.02747" lon="11.7122"><ele>353.0</ele><time>2026-03-29T15:01:57.077Z</time></trkpt><trkpt lat="43.0274983" lon="11.7123217"><ele>354.2</ele><time>2026-03-29T15:01:59.077Z</time></trkpt><trkpt lat="43.0274983" lon="11.7125033"><ele>355.4</ele><time>2026-03-29T15:02:01.077Z</time></trkpt><trkpt lat="43.027495" lon="11.7125967"><ele>356.59999999999997</ele><time>2026-03-29T15:02:02.076Z</time></trkpt><trkpt lat="43.0275017" lon="11.7126883"><ele>357.79999999999995</ele><time>2026-03-29T15:02:03.077Z</time></trkpt><trkpt lat="43.0275167" lon="11.7128467"><ele>359.0</ele><time>2026-03-29T15:02:05.076Z</time></trkpt><trkpt lat="43.0275367" lon="11.7129967"><ele>359.25</ele><time>2026-03-29T15:02:07.077Z</time></trkpt><trkpt lat="43.0275983" lon="11.71311"><ele>359.5</ele><time>2026-03-29T15:02:09.077Z</time></trkpt><trkpt lat="43.0276967" lon="11.71318"><ele>359.75</ele><time>2026-03-29T15:02:11.076Z</time></trkpt><trkpt lat="43.0278017" lon="11.713245"><ele>360.0</ele><time>2026-03-29T15:02:13.076Z</time></trkpt><trkpt lat="43.0279117" lon="11.7133333"><ele>360.0</ele><time>2026-03-29T15:02:15.077Z</time></trkpt><trkpt lat="43.027965" lon="11.71339"><ele>360.0</ele><time>2026-03-29T15:02:16.077Z</time></trkpt><trkpt lat="43.0280267" lon="11.7134333"><ele>360.0</ele><time>2026-03-29T15:02:17.077Z</time></trkpt><trkpt lat="43.028105" lon="11.7134717"><ele>360.0</ele><time>2026-03-29T15:02:18.077Z</time></trkpt><trkpt lat="43.0281833" lon="11.7134967"><ele>360.0</ele><time>2026-03-29T15:02:19.077Z</time></trkpt><trkpt lat="43.028275" lon="11.7135"><ele>360.0</ele><time>2026-03-29T15:02:20.077Z</time></trkpt><trkpt lat="43.0283683" lon="11.7134867"><ele>360.2</ele><time>2026-03-29T15:02:21.076Z</time></trkpt><trkpt lat="43.02846" lon="11.7134583"><ele>360.4</ele><time>2026-03-29T15:02:22.077Z</time></trkpt><trkpt lat="43.02855" lon="11.71343"><ele>360.6</ele><time>2026-03-29T15:02:23.076Z</time></trkpt><trkpt lat="43.0286283" lon="11.7133917"><ele>360.8</ele><time>2026-03-29T15:02:24.077Z</time></trkpt><trkpt lat="43.0286933" lon="11.7133567"><ele>361.0</ele><time>2026-03-29T15:02:25.077Z</time></trkpt><trkpt lat="43.0288067" lon="11.7133317"><ele>361.0</ele><time>2026-03-29T15:02:27.077Z</time></trkpt><trkpt lat="43.02889" lon="11.713395"><ele>361.0</ele><time>2026-03-29T15:02:29.077Z</time></trkpt><trkpt lat="43.0289417" lon="11.7134733"><ele>361.0</ele><time>2026-03-29T15:02:30.077Z</time></trkpt><trkpt lat="43.02901" lon="11.7136117"><ele>361.0</ele><time>2026-03-29T15:02:31.077Z</time></trkpt><trkpt lat="43.0290817" lon="11.7137833"><ele>361.0</ele><time>2026-03-29T15:02:32.076Z</time></trkpt><trkpt lat="43.029135" lon="11.7139517"><ele>360.75</ele><time>2026-03-29T15:02:33.077Z</time></trkpt><trkpt lat="43.0291567" lon="11.7141117"><ele>360.5</ele><time>2026-03-29T15:02:34.077Z</time></trkpt><trkpt lat="43.0291767" lon="11.714295"><ele>360.25</ele><time>2026-03-29T15:02:35.077Z</time></trkpt><trkpt lat="43.0291933" lon="11.7144783"><ele>360.0</ele><time>2026-03-29T15:02:36.077Z</time></trkpt><trkpt lat="43.0292017" lon="11.714625"><ele>360.0</ele><time>2026-03-29T15:02:37.077Z</time></trkpt><trkpt lat="43.029215" lon="11.7147517"><ele>360.0</ele><time>2026-03-29T15:02:38.077Z</time></trkpt><trkpt lat="43.0292267" lon="11.7148533"><ele>360.0</ele><time>2026-03-29T15:02:39.077Z</time></trkpt><trkpt lat="43.02924" lon="11.714955"><ele>360.0</ele><time>2026-03-29T15:02:40.076Z</time></trkpt><trkpt lat="43.0292667" lon="11.715065"><ele>360.0</ele><time>2026-03-29T15:02:41.077Z</time></trkpt><trkpt lat="43.029315" lon="11.7151633"><ele>360.0</ele><time>2026-03-29T15:02:42.076Z</time></trkpt><trkpt lat="43.0293667" lon="11.7152617"><ele>359.1666666666667</ele><time>2026-03-29T15:02:43.077Z</time></trkpt><trkpt lat="43.0294283" lon="11.715355"><ele>358.3333333333333</ele><time>2026-03-29T15:02:44.077Z</time></trkpt><trkpt lat="43.029485" lon="11.7154517"><ele>357.5</ele><time>2026-03-29T15:02:45.077Z</time></trkpt><trkpt lat="43.0295317" lon="11.7155367"><ele>356.66666666666663</ele><time>2026-03-29T15:02:46.077Z</time></trkpt><trkpt lat="43.0295733" lon="11.7156267"><ele>355.8333333333333</ele><time>2026-03-29T15:02:47.076Z</time></trkpt><trkpt lat="43.0296133" lon="11.715715"><ele>355.0</ele><time>2026-03-29T15:02:48.077Z</time></trkpt><trkpt lat="43.029665" lon="11.7158017"><ele>355.0</ele><time>2026-03-29T15:02:49.076Z</time></trkpt><trkpt lat="43.0297283" lon="11.7158933"><ele>355.0</ele><time>2026-03-29T15:02:50.076Z</time></trkpt><trkpt lat="43.0297867" lon="11.7159917"><ele>355.0</ele><time>2026-03-29T15:02:51.077Z</time></trkpt><trkpt lat="43.02984" lon="11.7160983"><ele>355.0</ele><time>2026-03-29T15:02:52.076Z</time></trkpt><trkpt lat="43.0298967" lon="11.71621"><ele>355.0</ele><time>2026-03-29T15:02:53.077Z</time></trkpt><trkpt lat="43.0299483" lon="11.7163233"><ele>355.5</ele><time>2026-03-29T15:02:54.076Z</time></trkpt><trkpt lat="43.030005" lon="11.7164233"><ele>356.0</ele><time>2026-03-29T15:02:55.077Z</time></trkpt><trkpt lat="43.0300667" lon="11.7165117"><ele>356.5</ele><time>2026-03-29T15:02:56.076Z</time></trkpt><trkpt lat="43.03013" lon="11.7165917"><ele>357.0</ele><time>2026-03-29T15:02:57.076Z</time></trkpt><trkpt lat="43.0301933" lon="11.7166583"><ele>357.5</ele><time>2026-03-29T15:02:58.077Z</time></trkpt><trkpt lat="43.0302533" lon="11.71672"><ele>358.0</ele><time>2026-03-29T15:02:59.077Z</time></trkpt><trkpt lat="43.03031" lon="11.716775"><ele>358.0</ele><time>2026-03-29T15:03:00.076Z</time></trkpt><trkpt lat="43.0304167" lon="11.7168867"><ele>358.0</ele><time>2026-03-29T15:03:02.076Z</time></trkpt><trkpt lat="43.0304683" lon="11.716945"><ele>358.0</ele><time>2026-03-29T15:03:03.077Z</time></trkpt><trkpt lat="43.0305267" lon="11.717015"><ele>358.0</ele><time>2026-03-29T15:03:04.076Z</time></trkpt><trkpt lat="43.0305767" lon="11.7170933"><ele>358.0</ele><time>2026-03-29T15:03:05.077Z</time></trkpt><trkpt lat="43.0306233" lon="11.71717"><ele>358.0</ele><time>2026-03-29T15:03:06.077Z</time></trkpt><trkpt lat="43.0306683" lon="11.717245"><ele>357.5</ele><time>2026-03-29T15:03:07.077Z</time></trkpt><trkpt lat="43.0307067" lon="11.7173217"><ele>357.0</ele><time>2026-03-29T15:03:08.076Z</time></trkpt><trkpt lat="43.0307483" lon="11.717395"><ele>356.5</ele><time>2026-03-29T15:03:09.076Z</time></trkpt><trkpt lat="43.0308017" lon="11.717475"><ele>356.0</ele><time>2026-03-29T15:03:10.077Z</time></trkpt><trkpt lat="43.03086" lon="11.7175517"><ele>355.5</ele><time>2026-03-29T15:03:11.077Z</time></trkpt><trkpt lat="43.0309233" lon="11.7176367"><ele>355.0</ele><time>2026-03-29T15:03:12.076Z</time></trkpt><trkpt lat="43.0310033" lon="11.7177467"><ele>354.25</ele><time>2026-03-29T15:03:13.077Z</time></trkpt><trkpt lat="43.0311" lon="11.717885"><ele>353.5</ele><time>2026-03-29T15:03:14.077Z</time></trkpt><trkpt lat="43.0312117" lon="11.71803"><ele>352.75</ele><time>2026-03-29T15:03:15.077Z</time></trkpt><trkpt lat="43.0313183" lon="11.7181567"><ele>352.0</ele><time>2026-03-29T15:03:16.077Z</time></trkpt><trkpt lat="43.0314117" lon="11.7182667"><ele>352.0</ele><time>2026-03-29T15:03:17.077Z</time></trkpt><trkpt lat="43.0314983" lon="11.7183633"><ele>352.0</ele><time>2026-03-29T15:03:18.077Z</time></trkpt><trkpt lat="43.0315833" lon="11.718445"><ele>352.0</ele><time>2026-03-29T15:03:19.077Z</time></trkpt><trkpt lat="43.031665" lon="11.7185117"><ele>352.0</ele><time>2026-03-29T15:03:20.076Z</time></trkpt><trkpt lat="43.0317333" lon="11.71856"><ele>352.0</ele><time>2026-03-29T15:03:21.077Z</time></trkpt><trkpt lat="43.0318267" lon="11.7186"><ele>352.20000000000005</ele><time>2026-03-29T15:03:23.077Z</time></trkpt><trkpt lat="43.0318833" lon="11.7185217"><ele>352.4</ele><time>2026-03-29T15:03:25.077Z</time></trkpt><trkpt lat="43.0318933" lon="11.7184283"><ele>352.6</ele><time>2026-03-29T15:03:26.077Z</time></trkpt><trkpt lat="43.0319" lon="11.71826"><ele>352.79999999999995</ele><time>2026-03-29T15:03:27.077Z</time></trkpt><trkpt lat="43.0319067" lon="11.718045"><ele>353.0</ele><time>2026-03-29T15:03:28.077Z</time></trkpt><trkpt lat="43.0319167" lon="11.7178267"><ele>352.5</ele><time>2026-03-29T15:03:29.077Z</time></trkpt><trkpt lat="43.0319233" lon="11.7176317"><ele>352.0</ele><time>2026-03-29T15:03:30.076Z</time></trkpt><trkpt lat="43.0319367" lon="11.7174517"><ele>351.5</ele><time>2026-03-29T15:03:31.077Z</time></trkpt><trkpt lat="43.031955" lon="11.7172867"><ele>351.0</ele><time>2026-03-29T15:03:32.077Z</time></trkpt><trkpt lat="43.0319817" lon="11.717145"><ele>351.0</ele><time>2026-03-29T15:03:33.076Z</time></trkpt><trkpt lat="43.0320033" lon="11.7170233"><ele>351.0</ele><time>2026-03-29T15:03:34.076Z</time></trkpt><trkpt lat="43.0320367" lon="11.7169067"><ele>351.0</ele><time>2026-03-29T15:03:35.077Z</time></trkpt><trkpt lat="43.0320767" lon="11.7167983"><ele>351.0</ele><time>2026-03-29T15:03:36.076Z</time></trkpt><trkpt lat="43.0321233" lon="11.716675"><ele>351.0</ele><time>2026-03-29T15:03:37.077Z</time></trkpt><trkpt lat="43.0321767" lon="11.7165567"><ele>350.25</ele><time>2026-03-29T15:03:38.077Z</time></trkpt><trkpt lat="43.0322333" lon="11.7164467"><ele>349.5</ele><time>2026-03-29T15:03:39.077Z</time></trkpt><trkpt lat="43.0322933" lon="11.7163167"><ele>348.75</ele><time>2026-03-29T15:03:40.076Z</time></trkpt><trkpt lat="43.0323667" lon="11.7161867"><ele>348.0</ele><time>2026-03-29T15:03:41.077Z</time></trkpt><trkpt lat="43.0324367" lon="11.7160517"><ele>347.25</ele><time>2026-03-29T15:03:42.076Z</time></trkpt><trkpt lat="43.0325133" lon="11.7159133"><ele>346.5</ele><time>2026-03-29T15:03:43.077Z</time></trkpt><trkpt lat="43.0325933" lon="11.715775"><ele>345.75</ele><time>2026-03-29T15:03:44.076Z</time></trkpt><trkpt lat="43.0326617" lon="11.715645"><ele>345.0</ele><time>2026-03-29T15:03:45.076Z</time></trkpt><trkpt lat="43.032735" lon="11.71552"><ele>345.0</ele><time>2026-03-29T15:03:46.077Z</time></trkpt><trkpt lat="43.0328183" lon="11.7153933"><ele>345.0</ele><time>2026-03-29T15:03:47.077Z</time></trkpt><trkpt lat="43.0329033" lon="11.715275"><ele>345.0</ele><time>2026-03-29T15:03:48.077Z</time></trkpt><trkpt lat="43.032995" lon="11.7151433"><ele>345.0</ele><time>2026-03-29T15:03:49.076Z</time></trkpt><trkpt lat="43.03308" lon="11.7150317"><ele>344.0</ele><time>2026-03-29T15:03:50.077Z</time></trkpt><trkpt lat="43.0331667" lon="11.7149317"><ele>343.0</ele><time>2026-03-29T15:03:51.077Z</time></trkpt><trkpt lat="43.0332517" lon="11.714845"><ele>342.0</ele><time>2026-03-29T15:03:52.076Z</time></trkpt><trkpt lat="43.0333333" lon="11.7147883"><ele>341.0</ele><time>2026-03-29T15:03:53.077Z</time></trkpt><trkpt lat="43.033415" lon="11.7147533"><ele>340.0</ele><time>2026-03-29T15:03:54.077Z</time></trkpt><trkpt lat="43.0334967" lon="11.71475"><ele>340.0</ele><time>2026-03-29T15:03:55.077Z</time></trkpt><trkpt lat="43.033585" lon="11.7147767"><ele>340.0</ele><time>2026-03-29T15:03:56.077Z</time></trkpt><trkpt lat="43.0336717" lon="11.7148267"><ele>340.0</ele><time>2026-03-29T15:03:57.076Z</time></trkpt><trkpt lat="43.0337617" lon="11.7149067"><ele>340.0</ele><time>2026-03-29T15:03:58.077Z</time></trkpt><trkpt lat="43.03385" lon="11.7149917"><ele>340.0</ele><time>2026-03-29T15:03:59.077Z</time></trkpt><trkpt lat="43.0339417" lon="11.71509"><ele>340.0</ele><time>2026-03-29T15:04:00.077Z</time></trkpt><trkpt lat="43.03402" lon="11.7151717"><ele>340.0</ele><time>2026-03-29T15:04:01.077Z</time></trkpt><trkpt lat="43.0340983" lon="11.7152533"><ele>340.0</ele><time>2026-03-29T15:04:02.077Z</time></trkpt><trkpt lat="43.03419" lon="11.7153483"><ele>340.0</ele><time>2026-03-29T15:04:03.077Z</time></trkpt><trkpt lat="43.0342683" lon="11.7154417"><ele>340.0</ele><time>2026-03-29T15:04:04.077Z</time></trkpt><trkpt lat="43.0343417" lon="11.7155283"><ele>339.4</ele><time>2026-03-29T15:04:05.077Z</time></trkpt><trkpt lat="43.0344133" lon="11.7156283"><ele>338.8</ele><time>2026-03-29T15:04:06.076Z</time></trkpt><trkpt lat="43.0344783" lon="11.7157333"><ele>338.20000000000005</ele><time>2026-03-29T15:04:07.077Z</time></trkpt><trkpt lat="43.0345333" lon="11.7158433"><ele>337.6</ele><time>2026-03-29T15:04:08.077Z</time></trkpt><trkpt lat="43.0345867" lon="11.715955"><ele>337.0</ele><time>2026-03-29T15:04:09.077Z</time></trkpt><trkpt lat="43.0346317" lon="11.7160483"><ele>337.0</ele><time>2026-03-29T15:04:10.077Z</time></trkpt><trkpt lat="43.034685" lon="11.71612"><ele>337.0</ele><time>2026-03-29T15:04:11.076Z</time></trkpt><trkpt lat="43.0347417" lon="11.7161667"><ele>337.0</ele><time>2026-03-29T15:04:12.077Z</time></trkpt><trkpt lat="43.0348683" lon="11.716175"><ele>337.0</ele><time>2026-03-29T15:04:14.077Z</time></trkpt><trkpt lat="43.0349333" lon="11.7161417"><ele>337.0</ele><time>2026-03-29T15:04:15.077Z</time></trkpt><trkpt lat="43.0349867" lon="11.71609"><ele>337.0</ele><time>2026-03-29T15:04:16.077Z</time></trkpt><trkpt lat="43.0350383" lon="11.7159917"><ele>335.0</ele><time>2026-03-29T15:04:17.076Z</time></trkpt><trkpt lat="43.0350833" lon="11.7158683"><ele>333.0</ele><time>2026-03-29T15:04:18.077Z</time></trkpt><trkpt lat="43.0351183" lon="11.7157"><ele>331.0</ele><time>2026-03-29T15:04:19.076Z</time></trkpt><trkpt lat="43.0351583" lon="11.7155317"><ele>329.0</ele><time>2026-03-29T15:04:20.077Z</time></trkpt><trkpt lat="43.03518" lon="11.7154067"><ele>329.0</ele><time>2026-03-29T15:04:21.077Z</time></trkpt><trkpt lat="43.0351983" lon="11.7152683"><ele>329.0</ele><time>2026-03-29T15:04:22.077Z</time></trkpt><trkpt lat="43.0351883" lon="11.7151383"><ele>329.0</ele><time>2026-03-29T15:04:23.077Z</time></trkpt><trkpt lat="43.0351583" lon="11.7150183"><ele>329.0</ele><time>2026-03-29T15:04:24.077Z</time></trkpt><trkpt lat="43.0351133" lon="11.714895"><ele>329.0</ele><time>2026-03-29T15:04:25.077Z</time></trkpt><trkpt lat="43.035045" lon="11.7147767"><ele>329.25</ele><time>2026-03-29T15:04:26.077Z</time></trkpt><trkpt lat="43.0349817" lon="11.7146683"><ele>329.5</ele><time>2026-03-29T15:04:27.076Z</time></trkpt><trkpt lat="43.0349283" lon="11.7145333"><ele>329.75</ele><time>2026-03-29T15:04:28.077Z</time></trkpt><trkpt lat="43.0348883" lon="11.7143833"><ele>330.0</ele><time>2026-03-29T15:04:29.077Z</time></trkpt><trkpt lat="43.034855" lon="11.7142"><ele>330.0</ele><time>2026-03-29T15:04:30.077Z</time></trkpt><trkpt lat="43.034825" lon="11.714025"><ele>330.0</ele><time>2026-03-29T15:04:31.077Z</time></trkpt><trkpt lat="43.0347917" lon="11.71383"><ele>330.0</ele><time>2026-03-29T15:04:32.076Z</time></trkpt><trkpt lat="43.0347583" lon="11.7136333"><ele>330.0</ele><time>2026-03-29T15:04:33.077Z</time></trkpt><trkpt lat="43.034715" lon="11.71343"><ele>327.75</ele><time>2026-03-29T15:04:34.077Z</time></trkpt><trkpt lat="43.034675" lon="11.7132567"><ele>325.5</ele><time>2026-03-29T15:04:35.076Z</time></trkpt><trkpt lat="43.0346267" lon="11.7130767"><ele>323.25</ele><time>2026-03-29T15:04:36.076Z</time></trkpt><trkpt lat="43.034565" lon="11.71291"><ele>321.0</ele><time>2026-03-29T15:04:37.077Z</time></trkpt><trkpt lat="43.0345083" lon="11.7127317"><ele>319.75</ele><time>2026-03-29T15:04:38.077Z</time></trkpt><trkpt lat="43.03443" lon="11.7125483"><ele>318.5</ele><time>2026-03-29T15:04:39.077Z</time></trkpt><trkpt lat="43.0343583" lon="11.7123767"><ele>317.25</ele><time>2026-03-29T15:04:40.077Z</time></trkpt><trkpt lat="43.034285" lon="11.71222"><ele>316.0</ele><time>2026-03-29T15:04:41.077Z</time></trkpt><trkpt lat="43.0342317" lon="11.7120783"><ele>316.0</ele><time>2026-03-29T15:04:42.077Z</time></trkpt><trkpt lat="43.0341883" lon="11.7119333"><ele>316.0</ele><time>2026-03-29T15:04:43.077Z</time></trkpt><trkpt lat="43.0341617" lon="11.71177"><ele>316.0</ele><time>2026-03-29T15:04:44.077Z</time></trkpt><trkpt lat="43.0341533" lon="11.7116017"><ele>316.0</ele><time>2026-03-29T15:04:45.077Z</time></trkpt><trkpt lat="43.034165" lon="11.7114067"><ele>315.75</ele><time>2026-03-29T15:04:46.077Z</time></trkpt><trkpt lat="43.0341767" lon="11.7111933"><ele>315.5</ele><time>2026-03-29T15:04:47.076Z</time></trkpt><trkpt lat="43.0341883" lon="11.7109983"><ele>315.25</ele><time>2026-03-29T15:04:48.077Z</time></trkpt><trkpt lat="43.0342067" lon="11.71081"><ele>315.0</ele><time>2026-03-29T15:04:49.077Z</time></trkpt><trkpt lat="43.0342217" lon="11.7106217"><ele>315.0</ele><time>2026-03-29T15:04:50.077Z</time></trkpt><trkpt lat="43.0342383" lon="11.7102533"><ele>315.0</ele><time>2026-03-29T15:04:52.076Z</time></trkpt><trkpt lat="43.0342367" lon="11.71007"><ele>315.0</ele><time>2026-03-29T15:04:53.077Z</time></trkpt><trkpt lat="43.0342217" lon="11.7098867"><ele>315.0</ele><time>2026-03-29T15:04:54.076Z</time></trkpt><trkpt lat="43.0341883" lon="11.7097117"><ele>315.0</ele><time>2026-03-29T15:04:55.077Z</time></trkpt><trkpt lat="43.0341583" lon="11.709545"><ele>315.0</ele><time>2026-03-29T15:04:56.077Z</time></trkpt><trkpt lat="43.034135" lon="11.70939"><ele>315.0</ele><time>2026-03-29T15:04:57.077Z</time></trkpt><trkpt lat="43.0341183" lon="11.7092417"><ele>314.2</ele><time>2026-03-29T15:04:58.077Z</time></trkpt><trkpt lat="43.0341133" lon="11.7090983"><ele>313.4</ele><time>2026-03-29T15:04:59.077Z</time></trkpt><trkpt lat="43.0341333" lon="11.7089567"><ele>312.6</ele><time>2026-03-29T15:05:00.077Z</time></trkpt><trkpt lat="43.0341733" lon="11.7088317"><ele>311.8</ele><time>2026-03-29T15:05:01.077Z</time></trkpt><trkpt lat="43.0342233" lon="11.7087033"><ele>311.0</ele><time>2026-03-29T15:05:02.077Z</time></trkpt><trkpt lat="43.03429" lon="11.7085917"><ele>310.2</ele><time>2026-03-29T15:05:03.077Z</time></trkpt><trkpt lat="43.03437" lon="11.7085033"><ele>309.40000000000003</ele><time>2026-03-29T15:05:04.077Z</time></trkpt><trkpt lat="43.0344467" lon="11.70843"><ele>308.6</ele><time>2026-03-29T15:05:05.077Z</time></trkpt><trkpt lat="43.0345267" lon="11.7083833"><ele>307.8</ele><time>2026-03-29T15:05:06.077Z</time></trkpt><trkpt lat="43.03461" lon="11.7083483"><ele>307.0</ele><time>2026-03-29T15:05:07.077Z</time></trkpt><trkpt lat="43.034705" lon="11.70832"><ele>307.0</ele><time>2026-03-29T15:05:08.076Z</time></trkpt><trkpt lat="43.0348117" lon="11.7082983"><ele>307.0</ele><time>2026-03-29T15:05:09.077Z</time></trkpt><trkpt lat="43.034925" lon="11.7083117"><ele>307.0</ele><time>2026-03-29T15:05:10.077Z</time></trkpt><trkpt lat="43.0350367" lon="11.7083367"><ele>307.0</ele><time>2026-03-29T15:05:11.077Z</time></trkpt><trkpt lat="43.03513" lon="11.7083517"><ele>307.0</ele><time>2026-03-29T15:05:12.077Z</time></trkpt><trkpt lat="43.0352133" lon="11.70836"><ele>307.66666666666663</ele><time>2026-03-29T15:05:13.076Z</time></trkpt><trkpt lat="43.0352767" lon="11.7083283"><ele>308.3333333333333</ele><time>2026-03-29T15:05:14.077Z</time></trkpt><trkpt lat="43.0353333" lon="11.7082583"><ele>309.0</ele><time>2026-03-29T15:05:15.076Z</time></trkpt><trkpt lat="43.0353517" lon="11.7081583"><ele>309.6666666666667</ele><time>2026-03-29T15:05:16.077Z</time></trkpt><trkpt lat="43.0353417" lon="11.708055"><ele>310.33333333333337</ele><time>2026-03-29T15:05:17.077Z</time></trkpt><trkpt lat="43.0353083" lon="11.7079567"><ele>311.0</ele><time>2026-03-29T15:05:18.077Z</time></trkpt><trkpt lat="43.0352417" lon="11.70787"><ele>311.0</ele><time>2026-03-29T15:05:19.077Z</time></trkpt><trkpt lat="43.0351367" lon="11.7077983"><ele>311.0</ele><time>2026-03-29T15:05:20.077Z</time></trkpt><trkpt lat="43.0350267" lon="11.7077333"><ele>311.0</ele><time>2026-03-29T15:05:21.076Z</time></trkpt><trkpt lat="43.034935" lon="11.7076667"><ele>311.0</ele><time>2026-03-29T15:05:22.076Z</time></trkpt><trkpt lat="43.0348767" lon="11.707585"><ele>311.0</ele><time>2026-03-29T15:05:23.077Z</time></trkpt><trkpt lat="43.0348417" lon="11.7074867"><ele>311.5</ele><time>2026-03-29T15:05:24.076Z</time></trkpt><trkpt lat="43.0348367" lon="11.70739"><ele>312.0</ele><time>2026-03-29T15:05:25.077Z</time></trkpt><trkpt lat="43.0348583" lon="11.7073017"><ele>312.5</ele><time>2026-03-29T15:05:26.077Z</time></trkpt><trkpt lat="43.0349017" lon="11.7072183"><ele>313.0</ele><time>2026-03-29T15:05:27.077Z</time></trkpt><trkpt lat="43.034965" lon="11.70715"><ele>313.5</ele><time>2026-03-29T15:05:28.076Z</time></trkpt><trkpt lat="43.03504" lon="11.7070933"><ele>314.0</ele><time>2026-03-29T15:05:29.077Z</time></trkpt><trkpt lat="43.035115" lon="11.7070117"><ele>314.25</ele><time>2026-03-29T15:05:30.076Z</time></trkpt><trkpt lat="43.03517" lon="11.70691"><ele>314.5</ele><time>2026-03-29T15:05:31.077Z</time></trkpt><trkpt lat="43.0352033" lon="11.7067683"><ele>314.75</ele><time>2026-03-29T15:05:32.077Z</time></trkpt><trkpt lat="43.0352217" lon="11.7065983"><ele>315.0</ele><time>2026-03-29T15:05:33.077Z</time></trkpt><trkpt lat="43.0352333" lon="11.7064083"><ele>315.0</ele><time>2026-03-29T15:05:34.077Z</time></trkpt><trkpt lat="43.0352433" lon="11.706235"><ele>315.0</ele><time>2026-03-29T15:05:35.077Z</time></trkpt><trkpt lat="43.035255" lon="11.7060867"><ele>315.0</ele><time>2026-03-29T15:05:36.076Z</time></trkpt><trkpt lat="43.0352683" lon="11.7059567"><ele>315.0</ele><time>2026-03-29T15:05:37.076Z</time></trkpt><trkpt lat="43.03529" lon="11.7058483"><ele>315.0</ele><time>2026-03-29T15:05:38.077Z</time></trkpt><trkpt lat="43.0353217" lon="11.7057717"><ele>315.0</ele><time>2026-03-29T15:05:39.077Z</time></trkpt><trkpt lat="43.0354233" lon="11.7056983"><ele>315.0</ele><time>2026-03-29T15:05:41.077Z</time></trkpt><trkpt lat="43.0355433" lon="11.705725"><ele>315.0</ele><time>2026-03-29T15:05:43.076Z</time></trkpt><trkpt lat="43.0356033" lon="11.7057633"><ele>315.0</ele><time>2026-03-29T15:05:44.077Z</time></trkpt><trkpt lat="43.0356733" lon="11.7058"><ele>315.0</ele><time>2026-03-29T15:05:45.077Z</time></trkpt><trkpt lat="43.0357417" lon="11.705835"><ele>315.3333333333333</ele><time>2026-03-29T15:05:46.076Z</time></trkpt><trkpt lat="43.03581" lon="11.705875"><ele>315.6666666666667</ele><time>2026-03-29T15:05:47.077Z</time></trkpt><trkpt lat="43.035875" lon="11.7059183"><ele>316.0</ele><time>2026-03-29T15:05:48.077Z</time></trkpt><trkpt lat="43.0359517" lon="11.7059617"><ele>316.33333333333337</ele><time>2026-03-29T15:05:49.077Z</time></trkpt><trkpt lat="43.0360217" lon="11.7059983"><ele>316.6666666666667</ele><time>2026-03-29T15:05:50.076Z</time></trkpt><trkpt lat="43.0360967" lon="11.706035"><ele>317.0</ele><time>2026-03-29T15:05:51.077Z</time></trkpt><trkpt lat="43.0361767" lon="11.7060767"><ele>317.4</ele><time>2026-03-29T15:05:52.077Z</time></trkpt><trkpt lat="43.03626" lon="11.7061167"><ele>317.79999999999995</ele><time>2026-03-29T15:05:53.077Z</time></trkpt><trkpt lat="43.0363467" lon="11.7061733"><ele>318.2</ele><time>2026-03-29T15:05:54.077Z</time></trkpt><trkpt lat="43.036445" lon="11.7062317"><ele>318.59999999999997</ele><time>2026-03-29T15:05:55.077Z</time></trkpt><trkpt lat="43.0365433" lon="11.7062867"><ele>319.0</ele><time>2026-03-29T15:05:56.076Z</time></trkpt><trkpt lat="43.0366517" lon="11.7063517"><ele>319.0</ele><time>2026-03-29T15:05:57.077Z</time></trkpt><trkpt lat="43.03676" lon="11.7064083"><ele>319.0</ele><time>2026-03-29T15:05:58.077Z</time></trkpt><trkpt lat="43.03686" lon="11.7064633"><ele>319.0</ele><time>2026-03-29T15:05:59.077Z</time></trkpt><trkpt lat="43.0369617" lon="11.70653"><ele>319.0</ele><time>2026-03-29T15:06:00.077Z</time></trkpt><trkpt lat="43.0370583" lon="11.7066217"><ele>319.0</ele><time>2026-03-29T15:06:01.076Z</time></trkpt><trkpt lat="43.03717" lon="11.70675"><ele>319.0</ele><time>2026-03-29T15:06:02.076Z</time></trkpt><trkpt lat="43.0372867" lon="11.7069067"><ele>319.0</ele><time>2026-03-29T15:06:03.076Z</time></trkpt><trkpt lat="43.0373933" lon="11.707065"><ele>319.0</ele><time>2026-03-29T15:06:04.076Z</time></trkpt><trkpt lat="43.0375033" lon="11.7072083"><ele>319.0</ele><time>2026-03-29T15:06:05.076Z</time></trkpt><trkpt lat="43.037615" lon="11.7073217"><ele>319.0</ele><time>2026-03-29T15:06:06.077Z</time></trkpt><trkpt lat="43.0377333" lon="11.7073983"><ele>319.0</ele><time>2026-03-29T15:06:07.076Z</time></trkpt><trkpt lat="43.0378733" lon="11.707455"><ele>319.0</ele><time>2026-03-29T15:06:08.077Z</time></trkpt><trkpt lat="43.0380133" lon="11.7075033"><ele>319.0</ele><time>2026-03-29T15:06:09.077Z</time></trkpt><trkpt lat="43.0381333" lon="11.7075333"><ele>319.0</ele><time>2026-03-29T15:06:10.076Z</time></trkpt><trkpt lat="43.0382417" lon="11.70756"><ele>319.0</ele><time>2026-03-29T15:06:11.077Z</time></trkpt><trkpt lat="43.0383483" lon="11.707565"><ele>318.0</ele><time>2026-03-29T15:06:12.077Z</time></trkpt><trkpt lat="43.03845" lon="11.7075367"><ele>317.0</ele><time>2026-03-29T15:06:13.076Z</time></trkpt><trkpt lat="43.0385383" lon="11.7075"><ele>316.0</ele><time>2026-03-29T15:06:14.077Z</time></trkpt><trkpt lat="43.0386" lon="11.707435"><ele>315.0</ele><time>2026-03-29T15:06:15.076Z</time></trkpt><trkpt lat="43.0386617" lon="11.7073617"><ele>314.0</ele><time>2026-03-29T15:06:16.077Z</time></trkpt><trkpt lat="43.03871" lon="11.7072667"><ele>313.0</ele><time>2026-03-29T15:06:17.077Z</time></trkpt><trkpt lat="43.0387333" lon="11.70716"><ele>313.0</ele><time>2026-03-29T15:06:18.076Z</time></trkpt><trkpt lat="43.038735" lon="11.7070367"><ele>313.0</ele><time>2026-03-29T15:06:19.077Z</time></trkpt><trkpt lat="43.0386983" lon="11.7068933"><ele>313.0</ele><time>2026-03-29T15:06:20.077Z</time></trkpt><trkpt lat="43.0386317" lon="11.7067133"><ele>313.0</ele><time>2026-03-29T15:06:21.077Z</time></trkpt><trkpt lat="43.03855" lon="11.7064883"><ele>312.3333333333333</ele><time>2026-03-29T15:06:22.077Z</time></trkpt><trkpt lat="43.0384717" lon="11.706245"><ele>311.6666666666667</ele><time>2026-03-29T15:06:23.077Z</time></trkpt><trkpt lat="43.0383883" lon="11.7059767"><ele>311.0</ele><time>2026-03-29T15:06:24.077Z</time></trkpt><trkpt lat="43.0383033" lon="11.7057317"><ele>310.5</ele><time>2026-03-29T15:06:25.077Z</time></trkpt><trkpt lat="43.0382317" lon="11.7055167"><ele>310.0</ele><time>2026-03-29T15:06:26.077Z</time></trkpt><trkpt lat="43.0381867" lon="11.705345"><ele>309.5</ele><time>2026-03-29T15:06:27.077Z</time></trkpt><trkpt lat="43.0381483" lon="11.7051883"><ele>309.0</ele><time>2026-03-29T15:06:28.077Z</time></trkpt><trkpt lat="43.0381183" lon="11.7050367"><ele>309.25</ele><time>2026-03-29T15:06:29.077Z</time></trkpt><trkpt lat="43.03811" lon="11.7048833"><ele>309.5</ele><time>2026-03-29T15:06:30.077Z</time></trkpt><trkpt lat="43.0381133" lon="11.7047217"><ele>309.75</ele><time>2026-03-29T15:06:31.076Z</time></trkpt><trkpt lat="43.0381267" lon="11.7045367"><ele>310.0</ele><time>2026-03-29T15:06:32.077Z</time></trkpt><trkpt lat="43.0381383" lon="11.7043617"><ele>310.0</ele><time>2026-03-29T15:06:33.077Z</time></trkpt><trkpt lat="43.038145" lon="11.7042117"><ele>310.0</ele><time>2026-03-29T15:06:34.077Z</time></trkpt><trkpt lat="43.0381483" lon="11.704085"><ele>310.0</ele><time>2026-03-29T15:06:35.077Z</time></trkpt><trkpt lat="43.0381533" lon="11.7039867"><ele>310.0</ele><time>2026-03-29T15:06:36.077Z</time></trkpt><trkpt lat="43.0381267" lon="11.703825"><ele>310.0</ele><time>2026-03-29T15:06:38.077Z</time></trkpt><trkpt lat="43.038095" lon="11.7037317"><ele>310.0</ele><time>2026-03-29T15:06:39.076Z</time></trkpt><trkpt lat="43.0380517" lon="11.7036283"><ele>310.0</ele><time>2026-03-29T15:06:40.077Z</time></trkpt><trkpt lat="43.038" lon="11.70352"><ele>310.0</ele><time>2026-03-29T15:06:41.077Z</time></trkpt><trkpt lat="43.0379417" lon="11.70341"><ele>310.0</ele><time>2026-03-29T15:06:42.076Z</time></trkpt><trkpt lat="43.0378717" lon="11.7032933"><ele>310.0</ele><time>2026-03-29T15:06:43.077Z</time></trkpt><trkpt lat="43.0378" lon="11.7031733"><ele>309.6</ele><time>2026-03-29T15:06:44.077Z</time></trkpt><trkpt lat="43.037735" lon="11.7030433"><ele>309.2</ele><time>2026-03-29T15:06:45.077Z</time></trkpt><trkpt lat="43.0376633" lon="11.70292"><ele>308.8</ele><time>2026-03-29T15:06:46.077Z</time></trkpt><trkpt lat="43.0376067" lon="11.7028183"><ele>308.4</ele><time>2026-03-29T15:06:47.077Z</time></trkpt><trkpt lat="43.0375617" lon="11.7027017"><ele>308.0</ele><time>2026-03-29T15:06:48.077Z</time></trkpt><trkpt lat="43.0375417" lon="11.7025833"><ele>307.5</ele><time>2026-03-29T15:06:49.076Z</time></trkpt><trkpt lat="43.03756" lon="11.7024883"><ele>307.0</ele><time>2026-03-29T15:06:50.077Z</time></trkpt><trkpt lat="43.0376133" lon="11.7024183"><ele>306.5</ele><time>2026-03-29T15:06:51.076Z</time></trkpt><trkpt lat="43.03768" lon="11.70239"><ele>306.0</ele><time>2026-03-29T15:06:52.077Z</time></trkpt><trkpt lat="43.0377683" lon="11.702385"><ele>305.5</ele><time>2026-03-29T15:06:53.077Z</time></trkpt><trkpt lat="43.0378933" lon="11.70241"><ele>305.0</ele><time>2026-03-29T15:06:54.077Z</time></trkpt><trkpt lat="43.03804" lon="11.70246"><ele>305.0</ele><time>2026-03-29T15:06:55.077Z</time></trkpt><trkpt lat="43.038205" lon="11.702505"><ele>305.0</ele><time>2026-03-29T15:06:56.076Z</time></trkpt><trkpt lat="43.0383783" lon="11.7025517"><ele>305.0</ele><time>2026-03-29T15:06:57.076Z</time></trkpt><trkpt lat="43.038535" lon="11.7025833"><ele>304.5</ele><time>2026-03-29T15:06:58.077Z</time></trkpt><trkpt lat="43.038685" lon="11.70261"><ele>304.0</ele><time>2026-03-29T15:06:59.077Z</time></trkpt><trkpt lat="43.038825" lon="11.702645"><ele>303.5</ele><time>2026-03-29T15:07:00.077Z</time></trkpt><trkpt lat="43.0389733" lon="11.7026867"><ele>303.0</ele><time>2026-03-29T15:07:01.076Z</time></trkpt><trkpt lat="43.0391283" lon="11.70273"><ele>304.0</ele><time>2026-03-29T15:07:02.077Z</time></trkpt><trkpt lat="43.0392817" lon="11.70277"><ele>305.0</ele><time>2026-03-29T15:07:03.077Z</time></trkpt><trkpt lat="43.03944" lon="11.7028033"><ele>306.0</ele><time>2026-03-29T15:07:04.076Z</time></trkpt><trkpt lat="43.0395983" lon="11.7028433"><ele>306.0</ele><time>2026-03-29T15:07:05.077Z</time></trkpt><trkpt lat="43.0397583" lon="11.7028867"><ele>306.0</ele><time>2026-03-29T15:07:06.076Z</time></trkpt><trkpt lat="43.0399033" lon="11.7029267"><ele>306.0</ele><time>2026-03-29T15:07:07.077Z</time></trkpt><trkpt lat="43.040045" lon="11.7029717"><ele>307.0</ele><time>2026-03-29T15:07:08.077Z</time></trkpt><trkpt lat="43.0401917" lon="11.7030183"><ele>308.0</ele><time>2026-03-29T15:07:09.077Z</time></trkpt><trkpt lat="43.0403517" lon="11.7030583"><ele>309.0</ele><time>2026-03-29T15:07:10.076Z</time></trkpt><trkpt lat="43.0405" lon="11.7030983"><ele>309.0</ele><time>2026-03-29T15:07:11.077Z</time></trkpt><trkpt lat="43.04065" lon="11.7031383"><ele>309.0</ele><time>2026-03-29T15:07:12.077Z</time></trkpt><trkpt lat="43.0407967" lon="11.7031717"><ele>309.0</ele><time>2026-03-29T15:07:13.077Z</time></trkpt><trkpt lat="43.0409317" lon="11.703205"><ele>309.0</ele><time>2026-03-29T15:07:14.077Z</time></trkpt><trkpt lat="43.0410567" lon="11.7032233"><ele>309.25</ele><time>2026-03-29T15:07:15.077Z</time></trkpt><trkpt lat="43.0411733" lon="11.7032317"><ele>309.5</ele><time>2026-03-29T15:07:16.076Z</time></trkpt><trkpt lat="43.041295" lon="11.7032133"><ele>309.75</ele><time>2026-03-29T15:07:17.076Z</time></trkpt><trkpt lat="43.04143" lon="11.7031633"><ele>310.0</ele><time>2026-03-29T15:07:18.077Z</time></trkpt><trkpt lat="43.0415717" lon="11.7030633"><ele>310.25</ele><time>2026-03-29T15:07:19.077Z</time></trkpt><trkpt lat="43.0416983" lon="11.7029433"><ele>310.5</ele><time>2026-03-29T15:07:20.077Z</time></trkpt><trkpt lat="43.0418217" lon="11.7028383"><ele>310.75</ele><time>2026-03-29T15:07:21.077Z</time></trkpt><trkpt lat="43.0419383" lon="11.7027433"><ele>311.0</ele><time>2026-03-29T15:07:22.077Z</time></trkpt><trkpt lat="43.0420467" lon="11.70265"><ele>312.5</ele><time>2026-03-29T15:07:23.077Z</time></trkpt><trkpt lat="43.0421583" lon="11.7025467"><ele>314.0</ele><time>2026-03-29T15:07:24.077Z</time></trkpt><trkpt lat="43.0422783" lon="11.7024417"><ele>315.5</ele><time>2026-03-29T15:07:25.077Z</time></trkpt><trkpt lat="43.0424017" lon="11.7023483"><ele>317.0</ele><time>2026-03-29T15:07:26.077Z</time></trkpt><trkpt lat="43.0425117" lon="11.7022533"><ele>317.0</ele><time>2026-03-29T15:07:27.077Z</time></trkpt><trkpt lat="43.0426233" lon="11.7021867"><ele>317.0</ele><time>2026-03-29T15:07:28.076Z</time></trkpt><trkpt lat="43.0427383" lon="11.7021383"><ele>317.0</ele><time>2026-03-29T15:07:29.077Z</time></trkpt><trkpt lat="43.0428517" lon="11.7021167"><ele>317.0</ele><time>2026-03-29T15:07:30.077Z</time></trkpt><trkpt lat="43.0429617" lon="11.702095"><ele>317.0</ele><time>2026-03-29T15:07:31.077Z</time></trkpt><trkpt lat="43.0430717" lon="11.702075"><ele>317.0</ele><time>2026-03-29T15:07:32.076Z</time></trkpt><trkpt lat="43.0431683" lon="11.7020467"><ele>317.0</ele><time>2026-03-29T15:07:33.076Z</time></trkpt><trkpt lat="43.0432467" lon="11.7019983"><ele>317.0</ele><time>2026-03-29T15:07:34.077Z</time></trkpt><trkpt lat="43.0433183" lon="11.7019217"><ele>317.0</ele><time>2026-03-29T15:07:35.077Z</time></trkpt><trkpt lat="43.04338" lon="11.7018217"><ele>318.4</ele><time>2026-03-29T15:07:36.077Z</time></trkpt><trkpt lat="43.043435" lon="11.7017217"><ele>319.79999999999995</ele><time>2026-03-29T15:07:37.077Z</time></trkpt><trkpt lat="43.0434917" lon="11.7016233"><ele>321.2</ele><time>2026-03-29T15:07:38.076Z</time></trkpt><trkpt lat="43.043565" lon="11.701545"><ele>322.59999999999997</ele><time>2026-03-29T15:07:39.077Z</time></trkpt><trkpt lat="43.043645" lon="11.701495"><ele>324.0</ele><time>2026-03-29T15:07:40.077Z</time></trkpt><trkpt lat="43.0437383" lon="11.7014633"><ele>324.0</ele><time>2026-03-29T15:07:41.077Z</time></trkpt><trkpt lat="43.0438533" lon="11.70146"><ele>324.0</ele><time>2026-03-29T15:07:42.077Z</time></trkpt><trkpt lat="43.0439633" lon="11.7014583"><ele>324.0</ele><time>2026-03-29T15:07:43.077Z</time></trkpt><trkpt lat="43.044075" lon="11.7014483"><ele>324.0</ele><time>2026-03-29T15:07:44.076Z</time></trkpt><trkpt lat="43.0441867" lon="11.70145"><ele>324.0</ele><time>2026-03-29T15:07:45.077Z</time></trkpt><trkpt lat="43.044285" lon="11.70144"><ele>324.6666666666667</ele><time>2026-03-29T15:07:46.077Z</time></trkpt><trkpt lat="43.0443633" lon="11.7014217"><ele>325.3333333333333</ele><time>2026-03-29T15:07:47.077Z</time></trkpt><trkpt lat="43.044435" lon="11.7013883"><ele>326.0</ele><time>2026-03-29T15:07:48.076Z</time></trkpt><trkpt lat="43.044485" lon="11.7013333"><ele>326.66666666666663</ele><time>2026-03-29T15:07:49.077Z</time></trkpt><trkpt lat="43.0445533" lon="11.7011983"><ele>327.3333333333333</ele><time>2026-03-29T15:07:51.077Z</time></trkpt><trkpt lat="43.0445683" lon="11.701105"><ele>328.0</ele><time>2026-03-29T15:07:52.076Z</time></trkpt><trkpt lat="43.044565" lon="11.701"><ele>328.0</ele><time>2026-03-29T15:07:53.076Z</time></trkpt><trkpt lat="43.0445483" lon="11.7008817"><ele>328.0</ele><time>2026-03-29T15:07:54.077Z</time></trkpt><trkpt lat="43.04452" lon="11.7007517"><ele>328.0</ele><time>2026-03-29T15:07:55.077Z</time></trkpt><trkpt lat="43.04449" lon="11.7006083"><ele>328.0</ele><time>2026-03-29T15:07:56.076Z</time></trkpt><trkpt lat="43.0444633" lon="11.7004533"><ele>328.0</ele><time>2026-03-29T15:07:57.077Z</time></trkpt><trkpt lat="43.04443" lon="11.7002733"><ele>326.66666666666663</ele><time>2026-03-29T15:07:58.077Z</time></trkpt><trkpt lat="43.0443967" lon="11.7000783"><ele>325.3333333333333</ele><time>2026-03-29T15:07:59.076Z</time></trkpt><trkpt lat="43.0443683" lon="11.6998617"><ele>324.0</ele><time>2026-03-29T15:08:00.077Z</time></trkpt><trkpt lat="43.04436" lon="11.699645"><ele>323.6666666666667</ele><time>2026-03-29T15:08:01.076Z</time></trkpt><trkpt lat="43.0443817" lon="11.699405"><ele>323.33333333333337</ele><time>2026-03-29T15:08:02.076Z</time></trkpt><trkpt lat="43.04442" lon="11.6991383"><ele>323.0</ele><time>2026-03-29T15:08:03.077Z</time></trkpt><trkpt lat="43.0444517" lon="11.6988733"><ele>323.0</ele><time>2026-03-29T15:08:04.077Z</time></trkpt><trkpt lat="43.0444833" lon="11.6986467"><ele>323.0</ele><time>2026-03-29T15:08:05.076Z</time></trkpt><trkpt lat="43.044515" lon="11.698435"><ele>323.0</ele><time>2026-03-29T15:08:06.076Z</time></trkpt><trkpt lat="43.0445367" lon="11.6982167"><ele>322.6666666666667</ele><time>2026-03-29T15:08:07.077Z</time></trkpt><trkpt lat="43.0445483" lon="11.698"><ele>322.3333333333333</ele><time>2026-03-29T15:08:08.077Z</time></trkpt><trkpt lat="43.0445617" lon="11.69778"><ele>322.0</ele><time>2026-03-29T15:08:09.076Z</time></trkpt><trkpt lat="43.0445717" lon="11.6975483"><ele>322.0</ele><time>2026-03-29T15:08:10.077Z</time></trkpt><trkpt lat="43.0445883" lon="11.6973183"><ele>322.0</ele><time>2026-03-29T15:08:11.077Z</time></trkpt><trkpt lat="43.0445883" lon="11.69708"><ele>322.0</ele><time>2026-03-29T15:08:12.077Z</time></trkpt><trkpt lat="43.0445917" lon="11.69683"><ele>321.3333333333333</ele><time>2026-03-29T15:08:13.077Z</time></trkpt><trkpt lat="43.044595" lon="11.6965733"><ele>320.6666666666667</ele><time>2026-03-29T15:08:14.077Z</time></trkpt><trkpt lat="43.0445983" lon="11.6963083"><ele>320.0</ele><time>2026-03-29T15:08:15.077Z</time></trkpt><trkpt lat="43.044605" lon="11.6960517"><ele>319.0</ele><time>2026-03-29T15:08:16.076Z</time></trkpt><trkpt lat="43.0446233" lon="11.6958067"><ele>318.0</ele><time>2026-03-29T15:08:17.076Z</time></trkpt><trkpt lat="43.044635" lon="11.6955517"><ele>317.0</ele><time>2026-03-29T15:08:18.077Z</time></trkpt><trkpt lat="43.0446567" lon="11.6953"><ele>316.6666666666667</ele><time>2026-03-29T15:08:19.077Z</time></trkpt><trkpt lat="43.044685" lon="11.6950567"><ele>316.3333333333333</ele><time>2026-03-29T15:08:20.076Z</time></trkpt><trkpt lat="43.044715" lon="11.6948117"><ele>316.0</ele><time>2026-03-29T15:08:21.077Z</time></trkpt><trkpt lat="43.0447367" lon="11.694575"><ele>315.66666666666663</ele><time>2026-03-29T15:08:22.077Z</time></trkpt><trkpt lat="43.0447667" lon="11.6943417"><ele>315.3333333333333</ele><time>2026-03-29T15:08:23.077Z</time></trkpt><trkpt lat="43.0447967" lon="11.6941217"><ele>315.0</ele><time>2026-03-29T15:08:24.076Z</time></trkpt><trkpt lat="43.0448233" lon="11.693925"><ele>315.0</ele><time>2026-03-29T15:08:25.076Z</time></trkpt><trkpt lat="43.0448517" lon="11.6937433"><ele>315.0</ele><time>2026-03-29T15:08:26.077Z</time></trkpt><trkpt lat="43.04487" lon="11.69358"><ele>315.0</ele><time>2026-03-29T15:08:27.077Z</time></trkpt><trkpt lat="43.0448883" lon="11.6934267"><ele>315.0</ele><time>2026-03-29T15:08:28.077Z</time></trkpt><trkpt lat="43.0449083" lon="11.693275"><ele>315.0</ele><time>2026-03-29T15:08:29.076Z</time></trkpt><trkpt lat="43.044925" lon="11.6931183"><ele>315.0</ele><time>2026-03-29T15:08:30.076Z</time></trkpt><trkpt lat="43.0449383" lon="11.6929517"><ele>315.0</ele><time>2026-03-29T15:08:31.076Z</time></trkpt><trkpt lat="43.044945" lon="11.6927633"><ele>315.0</ele><time>2026-03-29T15:08:32.076Z</time></trkpt><trkpt lat="43.0449367" lon="11.6925383"><ele>314.3333333333333</ele><time>2026-03-29T15:08:33.077Z</time></trkpt><trkpt lat="43.0449317" lon="11.6922883"><ele>313.66666666666663</ele><time>2026-03-29T15:08:34.077Z</time></trkpt><trkpt lat="43.0449183" lon="11.69204"><ele>313.0</ele><time>2026-03-29T15:08:35.077Z</time></trkpt><trkpt lat="43.0449033" lon="11.6918183"><ele>312.25</ele><time>2026-03-29T15:08:36.077Z</time></trkpt><trkpt lat="43.0448967" lon="11.6916117"><ele>311.5</ele><time>2026-03-29T15:08:37.077Z</time></trkpt><trkpt lat="43.0448933" lon="11.6914133"><ele>310.75</ele><time>2026-03-29T15:08:38.076Z</time></trkpt><trkpt lat="43.0448883" lon="11.6912067"><ele>310.0</ele><time>2026-03-29T15:08:39.077Z</time></trkpt><trkpt lat="43.0448817" lon="11.691"><ele>310.0</ele><time>2026-03-29T15:08:40.077Z</time></trkpt><trkpt lat="43.0448717" lon="11.6907967"><ele>310.0</ele><time>2026-03-29T15:08:41.077Z</time></trkpt><trkpt lat="43.04488" lon="11.6906"><ele>310.0</ele><time>2026-03-29T15:08:42.076Z</time></trkpt><trkpt lat="43.044895" lon="11.690405"><ele>310.0</ele><time>2026-03-29T15:08:43.076Z</time></trkpt><trkpt lat="43.0449233" lon="11.69021"><ele>308.0</ele><time>2026-03-29T15:08:44.077Z</time></trkpt><trkpt lat="43.0449633" lon="11.6900267"><ele>306.0</ele><time>2026-03-29T15:08:45.077Z</time></trkpt><trkpt lat="43.0450117" lon="11.689855"><ele>304.0</ele><time>2026-03-29T15:08:46.076Z</time></trkpt><trkpt lat="43.0450667" lon="11.6896883"><ele>302.0</ele><time>2026-03-29T15:08:47.077Z</time></trkpt><trkpt lat="43.0451233" lon="11.6895217"><ele>301.25</ele><time>2026-03-29T15:08:48.076Z</time></trkpt><trkpt lat="43.045175" lon="11.6893533"><ele>300.5</ele><time>2026-03-29T15:08:49.076Z</time></trkpt><trkpt lat="43.0452267" lon="11.6892033"><ele>299.75</ele><time>2026-03-29T15:08:50.077Z</time></trkpt><trkpt lat="43.045285" lon="11.6890633"><ele>299.0</ele><time>2026-03-29T15:08:51.077Z</time></trkpt><trkpt lat="43.0453333" lon="11.6889333"><ele>299.0</ele><time>2026-03-29T15:08:52.076Z</time></trkpt><trkpt lat="43.0453783" lon="11.68881"><ele>299.0</ele><time>2026-03-29T15:08:53.077Z</time></trkpt><trkpt lat="43.045415" lon="11.6887067"><ele>299.0</ele><time>2026-03-29T15:08:54.077Z</time></trkpt><trkpt lat="43.0454517" lon="11.6886217"><ele>299.0</ele><time>2026-03-29T15:08:55.077Z</time></trkpt><trkpt lat="43.0455217" lon="11.6884967"><ele>299.0</ele><time>2026-03-29T15:08:57.077Z</time></trkpt><trkpt lat="43.0456033" lon="11.6884417"><ele>298.6666666666667</ele><time>2026-03-29T15:08:59.077Z</time></trkpt><trkpt lat="43.0456733" lon="11.68841"><ele>298.33333333333337</ele><time>2026-03-29T15:09:01.077Z</time></trkpt><trkpt lat="43.0457483" lon="11.6884317"><ele>298.0</ele><time>2026-03-29T15:09:03.077Z</time></trkpt><trkpt lat="43.0458133" lon="11.6884767"><ele>297.6666666666667</ele><time>2026-03-29T15:09:04.076Z</time></trkpt><trkpt lat="43.0458967" lon="11.6885383"><ele>297.3333333333333</ele><time>2026-03-29T15:09:05.076Z</time></trkpt><trkpt lat="43.04599" lon="11.6886067"><ele>297.0</ele><time>2026-03-29T15:09:06.077Z</time></trkpt><trkpt lat="43.046095" lon="11.6886733"><ele>297.0</ele><time>2026-03-29T15:09:07.076Z</time></trkpt><trkpt lat="43.0462067" lon="11.68874"><ele>297.0</ele><time>2026-03-29T15:09:08.076Z</time></trkpt><trkpt lat="43.04632" lon="11.6888117"><ele>297.0</ele><time>2026-03-29T15:09:09.077Z</time></trkpt><trkpt lat="43.046435" lon="11.688885"><ele>297.0</ele><time>2026-03-29T15:09:10.077Z</time></trkpt><trkpt lat="43.046565" lon="11.688965"><ele>297.25</ele><time>2026-03-29T15:09:11.077Z</time></trkpt><trkpt lat="43.0466933" lon="11.689055"><ele>297.5</ele><time>2026-03-29T15:09:12.077Z</time></trkpt><trkpt lat="43.0468267" lon="11.6891383"><ele>297.75</ele><time>2026-03-29T15:09:13.076Z</time></trkpt><trkpt lat="43.046965" lon="11.689225"><ele>298.0</ele><time>2026-03-29T15:09:14.077Z</time></trkpt><trkpt lat="43.047105" lon="11.6893233"><ele>299.3333333333333</ele><time>2026-03-29T15:09:15.077Z</time></trkpt><trkpt lat="43.04725" lon="11.6894333"><ele>300.6666666666667</ele><time>2026-03-29T15:09:16.076Z</time></trkpt><trkpt lat="43.047395" lon="11.6895533"><ele>302.0</ele><time>2026-03-29T15:09:17.077Z</time></trkpt><trkpt lat="43.0475417" lon="11.68967"><ele>303.0</ele><time>2026-03-29T15:09:18.076Z</time></trkpt><trkpt lat="43.0476883" lon="11.68979"><ele>304.0</ele><time>2026-03-29T15:09:19.077Z</time></trkpt><trkpt lat="43.0478383" lon="11.6899083"><ele>305.0</ele><time>2026-03-29T15:09:20.077Z</time></trkpt><trkpt lat="43.04799" lon="11.690025"><ele>305.0</ele><time>2026-03-29T15:09:21.076Z</time></trkpt><trkpt lat="43.0481383" lon="11.6901483"><ele>305.0</ele><time>2026-03-29T15:09:22.077Z</time></trkpt><trkpt lat="43.0482933" lon="11.6902683"><ele>305.0</ele><time>2026-03-29T15:09:23.077Z</time></trkpt><trkpt lat="43.04845" lon="11.6903833"><ele>306.0</ele><time>2026-03-29T15:09:24.077Z</time></trkpt><trkpt lat="43.0486033" lon="11.6905083"><ele>307.0</ele><time>2026-03-29T15:09:25.077Z</time></trkpt><trkpt lat="43.04876" lon="11.6906367"><ele>308.0</ele><time>2026-03-29T15:09:26.076Z</time></trkpt><trkpt lat="43.0489133" lon="11.6907683"><ele>308.0</ele><time>2026-03-29T15:09:27.077Z</time></trkpt><trkpt lat="43.0490683" lon="11.6908817"><ele>308.0</ele><time>2026-03-29T15:09:28.077Z</time></trkpt><trkpt lat="43.0492133" lon="11.6909983"><ele>308.0</ele><time>2026-03-29T15:09:29.077Z</time></trkpt><trkpt lat="43.0493617" lon="11.691125"><ele>308.33333333333337</ele><time>2026-03-29T15:09:30.077Z</time></trkpt><trkpt lat="43.0495233" lon="11.6912667"><ele>308.6666666666667</ele><time>2026-03-29T15:09:31.076Z</time></trkpt><trkpt lat="43.049685" lon="11.691415"><ele>309.0</ele><time>2026-03-29T15:09:32.077Z</time></trkpt><trkpt lat="43.049845" lon="11.69157"><ele>307.3333333333333</ele><time>2026-03-29T15:09:33.077Z</time></trkpt><trkpt lat="43.049985" lon="11.69172"><ele>305.66666666666663</ele><time>2026-03-29T15:09:34.077Z</time></trkpt><trkpt lat="43.0501233" lon="11.6918617"><ele>304.0</ele><time>2026-03-29T15:09:35.076Z</time></trkpt><trkpt lat="43.0502583" lon="11.6920017"><ele>304.0</ele><time>2026-03-29T15:09:36.077Z</time></trkpt><trkpt lat="43.0505367" lon="11.6922933"><ele>304.0</ele><time>2026-03-29T15:09:38.077Z</time></trkpt><trkpt lat="43.0506817" lon="11.69244"><ele>304.0</ele><time>2026-03-29T15:09:39.076Z</time></trkpt><trkpt lat="43.0508283" lon="11.6925867"><ele>304.0</ele><time>2026-03-29T15:09:40.076Z</time></trkpt><trkpt lat="43.0509733" lon="11.6927317"><ele>304.0</ele><time>2026-03-29T15:09:41.077Z</time></trkpt><trkpt lat="43.051115" lon="11.6928783"><ele>304.0</ele><time>2026-03-29T15:09:42.076Z</time></trkpt><trkpt lat="43.0512583" lon="11.6930333"><ele>304.0</ele><time>2026-03-29T15:09:43.076Z</time></trkpt><trkpt lat="43.051405" lon="11.6931817"><ele>304.0</ele><time>2026-03-29T15:09:44.077Z</time></trkpt><trkpt lat="43.0515483" lon="11.6933283"><ele>304.0</ele><time>2026-03-29T15:09:45.076Z</time></trkpt><trkpt lat="43.05169" lon="11.693485"><ele>304.0</ele><time>2026-03-29T15:09:46.076Z</time></trkpt><trkpt lat="43.0518267" lon="11.6936383"><ele>304.0</ele><time>2026-03-29T15:09:47.077Z</time></trkpt><trkpt lat="43.05209" lon="11.6939483"><ele>305.66666666666663</ele><time>2026-03-29T15:09:49.077Z</time></trkpt><trkpt lat="43.0522217" lon="11.694095"><ele>307.3333333333333</ele><time>2026-03-29T15:09:50.076Z</time></trkpt><trkpt lat="43.0523367" lon="11.6942267"><ele>309.0</ele><time>2026-03-29T15:09:51.076Z</time></trkpt><trkpt lat="43.0524467" lon="11.6943517"><ele>310.2</ele><time>2026-03-29T15:09:52.076Z</time></trkpt><trkpt lat="43.0525433" lon="11.694465"><ele>311.4</ele><time>2026-03-29T15:09:53.077Z</time></trkpt><trkpt lat="43.0526333" lon="11.6945433"><ele>312.6</ele><time>2026-03-29T15:09:54.077Z</time></trkpt><trkpt lat="43.0527283" lon="11.6945917"><ele>313.8</ele><time>2026-03-29T15:09:55.077Z</time></trkpt><trkpt lat="43.0528283" lon="11.69463"><ele>315.0</ele><time>2026-03-29T15:09:56.077Z</time></trkpt><trkpt lat="43.0529383" lon="11.6946567"><ele>315.0</ele><time>2026-03-29T15:09:57.076Z</time></trkpt><trkpt lat="43.053055" lon="11.694675"><ele>315.0</ele><time>2026-03-29T15:09:58.077Z</time></trkpt><trkpt lat="43.0531783" lon="11.6946933"><ele>315.0</ele><time>2026-03-29T15:09:59.077Z</time></trkpt><trkpt lat="43.0533067" lon="11.6947267"><ele>315.0</ele><time>2026-03-29T15:10:00.077Z</time></trkpt><trkpt lat="43.0534383" lon="11.69477"><ele>314.5</ele><time>2026-03-29T15:10:01.076Z</time></trkpt><trkpt lat="43.0535717" lon="11.694835"><ele>314.0</ele><time>2026-03-29T15:10:02.077Z</time></trkpt><trkpt lat="43.0537117" lon="11.6949"><ele>313.5</ele><time>2026-03-29T15:10:03.077Z</time></trkpt><trkpt lat="43.0538517" lon="11.69496"><ele>313.0</ele><time>2026-03-29T15:10:04.076Z</time></trkpt><trkpt lat="43.05399" lon="11.69503"><ele>311.66666666666663</ele><time>2026-03-29T15:10:05.077Z</time></trkpt><trkpt lat="43.0541317" lon="11.6951017"><ele>310.3333333333333</ele><time>2026-03-29T15:10:06.077Z</time></trkpt><trkpt lat="43.0542733" lon="11.69517"><ele>309.0</ele><time>2026-03-29T15:10:07.077Z</time></trkpt><trkpt lat="43.054415" lon="11.6952483"><ele>311.5</ele><time>2026-03-29T15:10:08.076Z</time></trkpt><trkpt lat="43.0545483" lon="11.6953267"><ele>314.0</ele><time>2026-03-29T15:10:09.077Z</time></trkpt><trkpt lat="43.05468" lon="11.695425"><ele>316.5</ele><time>2026-03-29T15:10:10.077Z</time></trkpt><trkpt lat="43.0548117" lon="11.695525"><ele>319.0</ele><time>2026-03-29T15:10:11.077Z</time></trkpt><trkpt lat="43.0549433" lon="11.6956433"><ele>317.0</ele><time>2026-03-29T15:10:12.077Z</time></trkpt><trkpt lat="43.05509" lon="11.695765"><ele>315.0</ele><time>2026-03-29T15:10:13.077Z</time></trkpt><trkpt lat="43.0552367" lon="11.695885"><ele>313.0</ele><time>2026-03-29T15:10:14.077Z</time></trkpt><trkpt lat="43.0553767" lon="11.6959983"><ele>316.3333333333333</ele><time>2026-03-29T15:10:15.077Z</time></trkpt><trkpt lat="43.0555133" lon="11.6960967"><ele>319.6666666666667</ele><time>2026-03-29T15:10:16.077Z</time></trkpt><trkpt lat="43.0556467" lon="11.6961917"><ele>323.0</ele><time>2026-03-29T15:10:17.076Z</time></trkpt><trkpt lat="43.0557817" lon="11.6962717"><ele>323.33333333333337</ele><time>2026-03-29T15:10:18.077Z</time></trkpt><trkpt lat="43.0559217" lon="11.696355"><ele>323.6666666666667</ele><time>2026-03-29T15:10:19.077Z</time></trkpt><trkpt lat="43.056055" lon="11.6964483"><ele>324.0</ele><time>2026-03-29T15:10:20.077Z</time></trkpt><trkpt lat="43.0561933" lon="11.696555"><ele>324.0</ele><time>2026-03-29T15:10:21.077Z</time></trkpt><trkpt lat="43.0563167" lon="11.6966733"><ele>324.0</ele><time>2026-03-29T15:10:22.077Z</time></trkpt><trkpt lat="43.0564283" lon="11.6967733"><ele>324.0</ele><time>2026-03-29T15:10:23.077Z</time></trkpt><trkpt lat="43.056525" lon="11.6968683"><ele>324.0</ele><time>2026-03-29T15:10:24.076Z</time></trkpt><trkpt lat="43.0566233" lon="11.696955"><ele>324.75</ele><time>2026-03-29T15:10:25.077Z</time></trkpt><trkpt lat="43.056735" lon="11.6970067"><ele>325.5</ele><time>2026-03-29T15:10:26.077Z</time></trkpt><trkpt lat="43.0568533" lon="11.6970433"><ele>326.25</ele><time>2026-03-29T15:10:27.077Z</time></trkpt><trkpt lat="43.05697" lon="11.69706"><ele>327.0</ele><time>2026-03-29T15:10:28.077Z</time></trkpt><trkpt lat="43.0570967" lon="11.69706"><ele>327.0</ele><time>2026-03-29T15:10:29.076Z</time></trkpt><trkpt lat="43.05723" lon="11.6970517"><ele>327.0</ele><time>2026-03-29T15:10:30.076Z</time></trkpt><trkpt lat="43.0573617" lon="11.6970333"><ele>327.0</ele><time>2026-03-29T15:10:31.077Z</time></trkpt><trkpt lat="43.0574883" lon="11.697025"><ele>327.0</ele><time>2026-03-29T15:10:32.076Z</time></trkpt><trkpt lat="43.057615" lon="11.6970167"><ele>327.25</ele><time>2026-03-29T15:10:33.077Z</time></trkpt><trkpt lat="43.057745" lon="11.6970117"><ele>327.5</ele><time>2026-03-29T15:10:34.077Z</time></trkpt><trkpt lat="43.05787" lon="11.6970217"><ele>327.75</ele><time>2026-03-29T15:10:35.077Z</time></trkpt><trkpt lat="43.0579833" lon="11.69704"><ele>328.0</ele><time>2026-03-29T15:10:36.077Z</time></trkpt><trkpt lat="43.05807" lon="11.6970583"><ele>328.0</ele><time>2026-03-29T15:10:37.076Z</time></trkpt><trkpt lat="43.05815" lon="11.6970967"><ele>328.0</ele><time>2026-03-29T15:10:38.078Z</time></trkpt><trkpt lat="43.0582233" lon="11.6971433"><ele>328.0</ele><time>2026-03-29T15:10:39.077Z</time></trkpt><trkpt lat="43.058395" lon="11.6972783"><ele>328.0</ele><time>2026-03-29T15:10:41.078Z</time></trkpt><trkpt lat="43.0584883" lon="11.69736"><ele>328.0</ele><time>2026-03-29T15:10:42.078Z</time></trkpt><trkpt lat="43.0585867" lon="11.6974517"><ele>328.0</ele><time>2026-03-29T15:10:43.078Z</time></trkpt><trkpt lat="43.0586933" lon="11.6975467"><ele>328.0</ele><time>2026-03-29T15:10:44.077Z</time></trkpt><trkpt lat="43.058795" lon="11.6976367"><ele>328.0</ele><time>2026-03-29T15:10:45.078Z</time></trkpt><trkpt lat="43.058895" lon="11.69773"><ele>329.25</ele><time>2026-03-29T15:10:46.078Z</time></trkpt><trkpt lat="43.0589967" lon="11.6978383"><ele>330.5</ele><time>2026-03-29T15:10:47.077Z</time></trkpt><trkpt lat="43.05909" lon="11.6979517"><ele>331.75</ele><time>2026-03-29T15:10:48.077Z</time></trkpt><trkpt lat="43.0591767" lon="11.6980683"><ele>333.0</ele><time>2026-03-29T15:10:49.078Z</time></trkpt><trkpt lat="43.0592617" lon="11.6981833"><ele>333.0</ele><time>2026-03-29T15:10:50.078Z</time></trkpt><trkpt lat="43.0593483" lon="11.6982983"><ele>333.0</ele><time>2026-03-29T15:10:51.078Z</time></trkpt><trkpt lat="43.0594317" lon="11.6984267"><ele>333.0</ele><time>2026-03-29T15:10:52.077Z</time></trkpt><trkpt lat="43.0595133" lon="11.698555"><ele>333.0</ele><time>2026-03-29T15:10:53.078Z</time></trkpt><trkpt lat="43.05959" lon="11.6986717"><ele>334.1666666666667</ele><time>2026-03-29T15:10:54.078Z</time></trkpt><trkpt lat="43.0596633" lon="11.6987883"><ele>335.3333333333333</ele><time>2026-03-29T15:10:55.078Z</time></trkpt><trkpt lat="43.0597267" lon="11.6988933"><ele>336.5</ele><time>2026-03-29T15:10:56.078Z</time></trkpt><trkpt lat="43.0597867" lon="11.698975"><ele>337.66666666666663</ele><time>2026-03-29T15:10:57.077Z</time></trkpt><trkpt lat="43.0598333" lon="11.699055"><ele>338.8333333333333</ele><time>2026-03-29T15:10:58.078Z</time></trkpt><trkpt lat="43.0598817" lon="11.6991267"><ele>340.0</ele><time>2026-03-29T15:10:59.078Z</time></trkpt><trkpt lat="43.059935" lon="11.6991867"><ele>340.2</ele><time>2026-03-29T15:11:00.078Z</time></trkpt><trkpt lat="43.0599817" lon="11.6992633"><ele>340.4</ele><time>2026-03-29T15:11:01.078Z</time></trkpt><trkpt lat="43.060065" lon="11.699375"><ele>340.6</ele><time>2026-03-29T15:11:03.077Z</time></trkpt><trkpt lat="43.0601267" lon="11.6994317"><ele>340.8</ele><time>2026-03-29T15:11:05.078Z</time></trkpt><trkpt lat="43.060245" lon="11.6993833"><ele>341.0</ele><time>2026-03-29T15:11:09.077Z</time></trkpt><trkpt lat="43.0602967" lon="11.6993167"><ele>340.0</ele><time>2026-03-29T15:11:10.078Z</time></trkpt><trkpt lat="43.0603567" lon="11.6992567"><ele>339.0</ele><time>2026-03-29T15:11:11.077Z</time></trkpt><trkpt lat="43.0604233" lon="11.6992"><ele>338.0</ele><time>2026-03-29T15:11:12.078Z</time></trkpt><trkpt lat="43.0604867" lon="11.6991383"><ele>337.0</ele><time>2026-03-29T15:11:13.078Z</time></trkpt><trkpt lat="43.0605533" lon="11.6990683"><ele>336.0</ele><time>2026-03-29T15:11:14.078Z</time></trkpt><trkpt lat="43.0606133" lon="11.6990017"><ele>335.0</ele><time>2026-03-29T15:11:15.078Z</time></trkpt><trkpt lat="43.0606683" lon="11.6989283"><ele>335.0</ele><time>2026-03-29T15:11:16.077Z</time></trkpt><trkpt lat="43.06073" lon="11.6988517"><ele>335.0</ele><time>2026-03-29T15:11:17.078Z</time></trkpt><trkpt lat="43.060785" lon="11.6987717"><ele>335.0</ele><time>2026-03-29T15:11:18.078Z</time></trkpt><trkpt lat="43.0608483" lon="11.6986983"><ele>335.0</ele><time>2026-03-29T15:11:19.077Z</time></trkpt><trkpt lat="43.0609167" lon="11.6986233"><ele>335.0</ele><time>2026-03-29T15:11:20.077Z</time></trkpt><trkpt lat="43.0609733" lon="11.6985433"><ele>335.0</ele><time>2026-03-29T15:11:21.077Z</time></trkpt><trkpt lat="43.061035" lon="11.6984617"><ele>332.33333333333337</ele><time>2026-03-29T15:11:22.077Z</time></trkpt><trkpt lat="43.06109" lon="11.6983767"><ele>329.6666666666667</ele><time>2026-03-29T15:11:23.078Z</time></trkpt><trkpt lat="43.061135" lon="11.6982833"><ele>327.0</ele><time>2026-03-29T15:11:24.078Z</time></trkpt><trkpt lat="43.0611817" lon="11.6981767"><ele>324.3333333333333</ele><time>2026-03-29T15:11:25.077Z</time></trkpt><trkpt lat="43.0612317" lon="11.698075"><ele>321.66666666666663</ele><time>2026-03-29T15:11:26.077Z</time></trkpt><trkpt lat="43.0612767" lon="11.69796"><ele>319.0</ele><time>2026-03-29T15:11:27.078Z</time></trkpt><trkpt lat="43.0613117" lon="11.6978583"><ele>319.0</ele><time>2026-03-29T15:11:28.078Z</time></trkpt><trkpt lat="43.0613567" lon="11.697785"><ele>319.0</ele><time>2026-03-29T15:11:29.078Z</time></trkpt><trkpt lat="43.0614183" lon="11.6977317"><ele>319.0</ele><time>2026-03-29T15:11:31.078Z</time></trkpt><trkpt lat="43.0614783" lon="11.697695"><ele>319.0</ele><time>2026-03-29T15:11:35.077Z</time></trkpt><trkpt lat="43.06155" lon="11.6976317"><ele>319.0</ele><time>2026-03-29T15:11:39.077Z</time></trkpt><trkpt lat="43.0616767" lon="11.697655"><ele>319.0</ele><time>2026-03-29T15:11:42.078Z</time></trkpt><trkpt lat="43.0617667" lon="11.697705"><ele>317.66666666666663</ele><time>2026-03-29T15:11:44.078Z</time></trkpt><trkpt lat="43.06198" lon="11.697565"><ele>316.3333333333333</ele><time>2026-03-29T15:11:50.078Z</time></trkpt><trkpt lat="43.062055" lon="11.6974683"><ele>315.0</ele><time>2026-03-29T15:11:52.077Z</time></trkpt><trkpt lat="43.0621283" lon="11.697345"><ele>315.0</ele><time>2026-03-29T15:11:54.078Z</time></trkpt><trkpt lat="43.0622117" lon="11.6972167"><ele>315.0</ele><time>2026-03-29T15:11:56.078Z</time></trkpt><trkpt lat="43.0622633" lon="11.6971383"><ele>315.0</ele><time>2026-03-29T15:11:57.078Z</time></trkpt><trkpt lat="43.0623217" lon="11.6970517"><ele>315.0</ele><time>2026-03-29T15:11:58.078Z</time></trkpt><trkpt lat="43.062385" lon="11.6969633"><ele>315.0</ele><time>2026-03-29T15:11:59.078Z</time></trkpt><trkpt lat="43.0624533" lon="11.6968667"><ele>315.75</ele><time>2026-03-29T15:12:00.078Z</time></trkpt><trkpt lat="43.0625133" lon="11.6967517"><ele>316.5</ele><time>2026-03-29T15:12:01.077Z</time></trkpt><trkpt lat="43.0625783" lon="11.69662"><ele>317.25</ele><time>2026-03-29T15:12:02.078Z</time></trkpt><trkpt lat="43.0626483" lon="11.6964817"><ele>318.0</ele><time>2026-03-29T15:12:03.077Z</time></trkpt><trkpt lat="43.0627183" lon="11.6963617"><ele>318.0</ele><time>2026-03-29T15:12:04.078Z</time></trkpt><trkpt lat="43.06279" lon="11.6962417"><ele>318.0</ele><time>2026-03-29T15:12:05.077Z</time></trkpt><trkpt lat="43.0628683" lon="11.6961233"><ele>318.0</ele><time>2026-03-29T15:12:06.078Z</time></trkpt><trkpt lat="43.0629483" lon="11.69601"><ele>318.0</ele><time>2026-03-29T15:12:07.078Z</time></trkpt><trkpt lat="43.0630317" lon="11.69592"><ele>318.6</ele><time>2026-03-29T15:12:08.078Z</time></trkpt><trkpt lat="43.0631183" lon="11.6958417"><ele>319.20000000000005</ele><time>2026-03-29T15:12:09.078Z</time></trkpt><trkpt lat="43.0632033" lon="11.6957833"><ele>319.8</ele><time>2026-03-29T15:12:10.078Z</time></trkpt><trkpt lat="43.0632933" lon="11.6957533"><ele>320.40000000000003</ele><time>2026-03-29T15:12:11.078Z</time></trkpt><trkpt lat="43.0633917" lon="11.6957267"><ele>321.0</ele><time>2026-03-29T15:12:12.077Z</time></trkpt><trkpt lat="43.0634883" lon="11.6956967"><ele>321.6666666666667</ele><time>2026-03-29T15:12:13.077Z</time></trkpt><trkpt lat="43.0635783" lon="11.6956567"><ele>322.3333333333333</ele><time>2026-03-29T15:12:14.078Z</time></trkpt><trkpt lat="43.0636617" lon="11.6956183"><ele>323.0</ele><time>2026-03-29T15:12:15.078Z</time></trkpt><trkpt lat="43.063735" lon="11.6955817"><ele>323.66666666666663</ele><time>2026-03-29T15:12:16.078Z</time></trkpt><trkpt lat="43.0638133" lon="11.6955"><ele>324.3333333333333</ele><time>2026-03-29T15:12:18.078Z</time></trkpt><trkpt lat="43.0638483" lon="11.695395"><ele>325.0</ele><time>2026-03-29T15:12:20.078Z</time></trkpt><trkpt lat="43.06391" lon="11.69531"><ele>325.0</ele><time>2026-03-29T15:12:22.078Z</time></trkpt><trkpt lat="43.06401" lon="11.695295"><ele>325.0</ele><time>2026-03-29T15:12:24.077Z</time></trkpt><trkpt lat="43.064075" lon="11.69531"><ele>325.0</ele><time>2026-03-29T15:12:25.078Z</time></trkpt><trkpt lat="43.06415" lon="11.695315"><ele>325.0</ele><time>2026-03-29T15:12:26.077Z</time></trkpt><trkpt lat="43.064235" lon="11.6953267"><ele>325.0</ele><time>2026-03-29T15:12:27.078Z</time></trkpt><trkpt lat="43.0643183" lon="11.6953283"><ele>325.0</ele><time>2026-03-29T15:12:28.078Z</time></trkpt><trkpt lat="43.0644167" lon="11.69533"><ele>326.8</ele><time>2026-03-29T15:12:29.078Z</time></trkpt><trkpt lat="43.064515" lon="11.6953233"><ele>328.6</ele><time>2026-03-29T15:12:30.078Z</time></trkpt><trkpt lat="43.0646117" lon="11.69531"><ele>330.4</ele><time>2026-03-29T15:12:31.078Z</time></trkpt><trkpt lat="43.064705" lon="11.6952967"><ele>332.2</ele><time>2026-03-29T15:12:32.078Z</time></trkpt><trkpt lat="43.0648033" lon="11.695275"><ele>334.0</ele><time>2026-03-29T15:12:33.078Z</time></trkpt><trkpt lat="43.0649017" lon="11.6952617"><ele>336.5</ele><time>2026-03-29T15:12:34.078Z</time></trkpt><trkpt lat="43.0649967" lon="11.6952383"><ele>339.0</ele><time>2026-03-29T15:12:35.077Z</time></trkpt><trkpt lat="43.065075" lon="11.695215"><ele>341.5</ele><time>2026-03-29T15:12:36.078Z</time></trkpt><trkpt lat="43.0651383" lon="11.695185"><ele>344.0</ele><time>2026-03-29T15:12:37.077Z</time></trkpt><trkpt lat="43.0652117" lon="11.6950733"><ele>346.5</ele><time>2026-03-29T15:12:39.078Z</time></trkpt><trkpt lat="43.065225" lon="11.6949883"><ele>349.0</ele><time>2026-03-29T15:12:40.077Z</time></trkpt><trkpt lat="43.0652283" lon="11.6948433"><ele>349.0</ele><time>2026-03-29T15:12:42.078Z</time></trkpt><trkpt lat="43.06523" lon="11.69467"><ele>349.0</ele><time>2026-03-29T15:12:44.077Z</time></trkpt><trkpt lat="43.0652167" lon="11.6945683"><ele>349.0</ele><time>2026-03-29T15:12:45.077Z</time></trkpt><trkpt lat="43.0651967" lon="11.694455"><ele>349.0</ele><time>2026-03-29T15:12:46.078Z</time></trkpt><trkpt lat="43.0651533" lon="11.6941867"><ele>350.25</ele><time>2026-03-29T15:12:48.078Z</time></trkpt><trkpt lat="43.0651367" lon="11.694035"><ele>351.5</ele><time>2026-03-29T15:12:49.078Z</time></trkpt><trkpt lat="43.0651317" lon="11.6938767"><ele>352.75</ele><time>2026-03-29T15:12:50.078Z</time></trkpt><trkpt lat="43.065145" lon="11.69369"><ele>354.0</ele><time>2026-03-29T15:12:51.078Z</time></trkpt><trkpt lat="43.06517" lon="11.6934767"><ele>354.6666666666667</ele><time>2026-03-29T15:12:52.077Z</time></trkpt><trkpt lat="43.0652017" lon="11.69322"><ele>355.33333333333337</ele><time>2026-03-29T15:12:53.078Z</time></trkpt><trkpt lat="43.0652433" lon="11.6929417"><ele>356.0</ele><time>2026-03-29T15:12:54.078Z</time></trkpt><trkpt lat="43.06527" lon="11.692665"><ele>356.33333333333337</ele><time>2026-03-29T15:12:55.077Z</time></trkpt><trkpt lat="43.065295" lon="11.6923967"><ele>356.6666666666667</ele><time>2026-03-29T15:12:56.078Z</time></trkpt><trkpt lat="43.0653233" lon="11.6921317"><ele>357.0</ele><time>2026-03-29T15:12:57.077Z</time></trkpt><trkpt lat="43.06536" lon="11.6918633"><ele>360.0</ele><time>2026-03-29T15:12:58.078Z</time></trkpt><trkpt lat="43.06542" lon="11.69139"><ele>363.0</ele><time>2026-03-29T15:13:00.078Z</time></trkpt><trkpt lat="43.0654433" lon="11.6911767"><ele>363.25</ele><time>2026-03-29T15:13:01.077Z</time></trkpt><trkpt lat="43.065465" lon="11.6909917"><ele>363.5</ele><time>2026-03-29T15:13:02.078Z</time></trkpt><trkpt lat="43.0654717" lon="11.6908267"><ele>363.75</ele><time>2026-03-29T15:13:03.077Z</time></trkpt><trkpt lat="43.0654633" lon="11.6906883"><ele>364.0</ele><time>2026-03-29T15:13:04.077Z</time></trkpt><trkpt lat="43.065435" lon="11.6905567"><ele>364.0</ele><time>2026-03-29T15:13:05.077Z</time></trkpt><trkpt lat="43.0653983" lon="11.690435"><ele>364.0</ele><time>2026-03-29T15:13:06.077Z</time></trkpt><trkpt lat="43.0653517" lon="11.6903117"><ele>364.0</ele><time>2026-03-29T15:13:07.077Z</time></trkpt><trkpt lat="43.0653117" lon="11.6901833"><ele>364.0</ele><time>2026-03-29T15:13:08.077Z</time></trkpt><trkpt lat="43.06527" lon="11.690065"><ele>364.0</ele><time>2026-03-29T15:13:09.078Z</time></trkpt><trkpt lat="43.0652383" lon="11.689945"><ele>363.4</ele><time>2026-03-29T15:13:10.078Z</time></trkpt><trkpt lat="43.0652167" lon="11.689825"><ele>362.79999999999995</ele><time>2026-03-29T15:13:11.077Z</time></trkpt><trkpt lat="43.0652083" lon="11.6896917"><ele>362.20000000000005</ele><time>2026-03-29T15:13:12.078Z</time></trkpt><trkpt lat="43.0652067" lon="11.689545"><ele>361.6</ele><time>2026-03-29T15:13:13.078Z</time></trkpt><trkpt lat="43.0652183" lon="11.6893883"><ele>361.0</ele><time>2026-03-29T15:13:14.077Z</time></trkpt><trkpt lat="43.0652267" lon="11.6892167"><ele>360.25</ele><time>2026-03-29T15:13:15.077Z</time></trkpt><trkpt lat="43.06524" lon="11.6890367"><ele>359.5</ele><time>2026-03-29T15:13:16.078Z</time></trkpt><trkpt lat="43.0652533" lon="11.6888517"><ele>358.75</ele><time>2026-03-29T15:13:17.078Z</time></trkpt><trkpt lat="43.065275" lon="11.688665"><ele>358.0</ele><time>2026-03-29T15:13:18.077Z</time></trkpt><trkpt lat="43.0653" lon="11.6884933"><ele>357.0</ele><time>2026-03-29T15:13:19.078Z</time></trkpt><trkpt lat="43.06533" lon="11.688335"><ele>356.0</ele><time>2026-03-29T15:13:20.078Z</time></trkpt><trkpt lat="43.0653867" lon="11.688195"><ele>355.0</ele><time>2026-03-29T15:13:21.078Z</time></trkpt><trkpt lat="43.0654533" lon="11.688075"><ele>354.0</ele><time>2026-03-29T15:13:22.077Z</time></trkpt><trkpt lat="43.0655383" lon="11.6879683"><ele>354.0</ele><time>2026-03-29T15:13:23.078Z</time></trkpt><trkpt lat="43.06561" lon="11.6878567"><ele>354.0</ele><time>2026-03-29T15:13:24.078Z</time></trkpt><trkpt lat="43.065675" lon="11.6877217"><ele>354.0</ele><time>2026-03-29T15:13:25.077Z</time></trkpt><trkpt lat="43.06572" lon="11.68756"><ele>354.0</ele><time>2026-03-29T15:13:26.077Z</time></trkpt><trkpt lat="43.06575" lon="11.6873683"><ele>353.5</ele><time>2026-03-29T15:13:27.077Z</time></trkpt><trkpt lat="43.06577" lon="11.68716"><ele>353.0</ele><time>2026-03-29T15:13:28.077Z</time></trkpt><trkpt lat="43.0657967" lon="11.68696"><ele>352.5</ele><time>2026-03-29T15:13:29.078Z</time></trkpt><trkpt lat="43.065825" lon="11.6867633"><ele>352.0</ele><time>2026-03-29T15:13:30.078Z</time></trkpt><trkpt lat="43.0658533" lon="11.686585"><ele>352.0</ele><time>2026-03-29T15:13:31.078Z</time></trkpt><trkpt lat="43.065885" lon="11.68641"><ele>352.0</ele><time>2026-03-29T15:13:32.077Z</time></trkpt><trkpt lat="43.0659217" lon="11.6862467"><ele>352.0</ele><time>2026-03-29T15:13:33.077Z</time></trkpt><trkpt lat="43.0659667" lon="11.6860817"><ele>352.0</ele><time>2026-03-29T15:13:34.078Z</time></trkpt><trkpt lat="43.066025" lon="11.6859383"><ele>350.8</ele><time>2026-03-29T15:13:35.078Z</time></trkpt><trkpt lat="43.0660833" lon="11.6858133"><ele>349.6</ele><time>2026-03-29T15:13:36.078Z</time></trkpt><trkpt lat="43.0661433" lon="11.6857033"><ele>348.40000000000003</ele><time>2026-03-29T15:13:37.077Z</time></trkpt><trkpt lat="43.0661967" lon="11.6855917"><ele>347.20000000000005</ele><time>2026-03-29T15:13:38.078Z</time></trkpt><trkpt lat="43.0662367" lon="11.68549"><ele>346.0</ele><time>2026-03-29T15:13:39.078Z</time></trkpt><trkpt lat="43.06626" lon="11.6853967"><ele>344.5</ele><time>2026-03-29T15:13:40.077Z</time></trkpt><trkpt lat="43.06625" lon="11.6852283"><ele>343.0</ele><time>2026-03-29T15:13:42.078Z</time></trkpt><trkpt lat="43.0662167" lon="11.6851533"><ele>341.5</ele><time>2026-03-29T15:13:43.077Z</time></trkpt><trkpt lat="43.0661633" lon="11.6850967"><ele>340.0</ele><time>2026-03-29T15:13:44.078Z</time></trkpt><trkpt lat="43.066105" lon="11.685055"><ele>338.5</ele><time>2026-03-29T15:13:45.077Z</time></trkpt><trkpt lat="43.0660367" lon="11.685005"><ele>337.0</ele><time>2026-03-29T15:13:46.078Z</time></trkpt><trkpt lat="43.06597" lon="11.6849433"><ele>337.0</ele><time>2026-03-29T15:13:47.078Z</time></trkpt><trkpt lat="43.0659017" lon="11.6848583"><ele>337.0</ele><time>2026-03-29T15:13:48.077Z</time></trkpt><trkpt lat="43.06585" lon="11.6847217"><ele>337.0</ele><time>2026-03-29T15:13:49.077Z</time></trkpt><trkpt lat="43.0658067" lon="11.6845467"><ele>337.0</ele><time>2026-03-29T15:13:50.078Z</time></trkpt><trkpt lat="43.06576" lon="11.6843333"><ele>332.3333333333333</ele><time>2026-03-29T15:13:51.078Z</time></trkpt><trkpt lat="43.0657" lon="11.6840767"><ele>327.6666666666667</ele><time>2026-03-29T15:13:52.078Z</time></trkpt><trkpt lat="43.0656167" lon="11.6837883"><ele>323.0</ele><time>2026-03-29T15:13:53.078Z</time></trkpt><trkpt lat="43.0655283" lon="11.6835033"><ele>322.6666666666667</ele><time>2026-03-29T15:13:54.077Z</time></trkpt><trkpt lat="43.0654367" lon="11.6832367"><ele>322.3333333333333</ele><time>2026-03-29T15:13:55.078Z</time></trkpt><trkpt lat="43.0653533" lon="11.682995"><ele>322.0</ele><time>2026-03-29T15:13:56.078Z</time></trkpt><trkpt lat="43.0652717" lon="11.6827683"><ele>321.3333333333333</ele><time>2026-03-29T15:13:57.078Z</time></trkpt><trkpt lat="43.0651967" lon="11.68255"><ele>320.6666666666667</ele><time>2026-03-29T15:13:58.078Z</time></trkpt><trkpt lat="43.06513" lon="11.6823383"><ele>320.0</ele><time>2026-03-29T15:13:59.077Z</time></trkpt><trkpt lat="43.065065" lon="11.6821483"><ele>320.0</ele><time>2026-03-29T15:14:00.078Z</time></trkpt><trkpt lat="43.0650033" lon="11.6819683"><ele>320.0</ele><time>2026-03-29T15:14:01.077Z</time></trkpt><trkpt lat="43.0649483" lon="11.6818067"><ele>320.0</ele><time>2026-03-29T15:14:02.078Z</time></trkpt><trkpt lat="43.064905" lon="11.6816633"><ele>320.0</ele><time>2026-03-29T15:14:03.078Z</time></trkpt><trkpt lat="43.064865" lon="11.6815483"><ele>320.0</ele><time>2026-03-29T15:14:04.077Z</time></trkpt><trkpt lat="43.0648367" lon="11.68145"><ele>320.0</ele><time>2026-03-29T15:14:05.078Z</time></trkpt><trkpt lat="43.064815" lon="11.6813267"><ele>320.0</ele><time>2026-03-29T15:14:07.077Z</time></trkpt><trkpt lat="43.064885" lon="11.6812517"><ele>320.0</ele><time>2026-03-29T15:14:10.077Z</time></trkpt><trkpt lat="43.0650067" lon="11.68123"><ele>320.0</ele><time>2026-03-29T15:14:12.078Z</time></trkpt><trkpt lat="43.0650867" lon="11.6812133"><ele>320.0</ele><time>2026-03-29T15:14:13.077Z</time></trkpt><trkpt lat="43.0651667" lon="11.6811983"><ele>320.0</ele><time>2026-03-29T15:14:14.077Z</time></trkpt><trkpt lat="43.0652517" lon="11.681185"><ele>320.0</ele><time>2026-03-29T15:14:15.078Z</time></trkpt><trkpt lat="43.065345" lon="11.6811717"><ele>320.0</ele><time>2026-03-29T15:14:16.078Z</time></trkpt><trkpt lat="43.0654483" lon="11.681165"><ele>320.0</ele><time>2026-03-29T15:14:17.078Z</time></trkpt><trkpt lat="43.0655533" lon="11.6811583"><ele>320.0</ele><time>2026-03-29T15:14:18.077Z</time></trkpt><trkpt lat="43.0656583" lon="11.6811433"><ele>320.0</ele><time>2026-03-29T15:14:19.077Z</time></trkpt><trkpt lat="43.0657667" lon="11.6811283"><ele>320.0</ele><time>2026-03-29T15:14:20.078Z</time></trkpt><trkpt lat="43.0658783" lon="11.681105"><ele>320.0</ele><time>2026-03-29T15:14:21.078Z</time></trkpt><trkpt lat="43.0659817" lon="11.6810683"><ele>320.0</ele><time>2026-03-29T15:14:22.078Z</time></trkpt><trkpt lat="43.066075" lon="11.6809983"><ele>320.6</ele><time>2026-03-29T15:14:23.078Z</time></trkpt><trkpt lat="43.0661417" lon="11.6809"><ele>321.2</ele><time>2026-03-29T15:14:24.078Z</time></trkpt><trkpt lat="43.0661817" lon="11.68078"><ele>321.79999999999995</ele><time>2026-03-29T15:14:25.078Z</time></trkpt><trkpt lat="43.0661833" lon="11.68063"><ele>322.4</ele><time>2026-03-29T15:14:26.078Z</time></trkpt><trkpt lat="43.066165" lon="11.6804633"><ele>323.0</ele><time>2026-03-29T15:14:27.077Z</time></trkpt><trkpt lat="43.06613" lon="11.680285"><ele>323.75</ele><time>2026-03-29T15:14:28.077Z</time></trkpt><trkpt lat="43.0660883" lon="11.6800967"><ele>324.5</ele><time>2026-03-29T15:14:29.077Z</time></trkpt><trkpt lat="43.066045" lon="11.6799033"><ele>325.25</ele><time>2026-03-29T15:14:30.078Z</time></trkpt><trkpt lat="43.0659883" lon="11.6797067"><ele>326.0</ele><time>2026-03-29T15:14:31.078Z</time></trkpt><trkpt lat="43.0659167" lon="11.6795033"><ele>328.33333333333337</ele><time>2026-03-29T15:14:32.078Z</time></trkpt><trkpt lat="43.0658367" lon="11.6793033"><ele>330.6666666666667</ele><time>2026-03-29T15:14:33.078Z</time></trkpt><trkpt lat="43.06577" lon="11.67912"><ele>333.0</ele><time>2026-03-29T15:14:34.077Z</time></trkpt><trkpt lat="43.06574" lon="11.67894"><ele>333.25</ele><time>2026-03-29T15:14:35.077Z</time></trkpt><trkpt lat="43.06574" lon="11.6787633"><ele>333.5</ele><time>2026-03-29T15:14:36.078Z</time></trkpt><trkpt lat="43.065785" lon="11.67859"><ele>333.75</ele><time>2026-03-29T15:14:37.078Z</time></trkpt><trkpt lat="43.0658417" lon="11.678415"><ele>334.0</ele><time>2026-03-29T15:14:38.078Z</time></trkpt><trkpt lat="43.065915" lon="11.6782533"><ele>334.0</ele><time>2026-03-29T15:14:39.078Z</time></trkpt><trkpt lat="43.066" lon="11.6781083"><ele>334.0</ele><time>2026-03-29T15:14:40.078Z</time></trkpt><trkpt lat="43.0661083" lon="11.6780067"><ele>334.0</ele><time>2026-03-29T15:14:41.078Z</time></trkpt><trkpt lat="43.066235" lon="11.6779517"><ele>334.0</ele><time>2026-03-29T15:14:42.077Z</time></trkpt><trkpt lat="43.0663683" lon="11.6779467"><ele>334.0</ele><time>2026-03-29T15:14:43.078Z</time></trkpt><trkpt lat="43.0665067" lon="11.677995"><ele>334.0</ele><time>2026-03-29T15:14:44.077Z</time></trkpt><trkpt lat="43.06665" lon="11.6780883"><ele>334.0</ele><time>2026-03-29T15:14:45.078Z</time></trkpt><trkpt lat="43.0667967" lon="11.6782117"><ele>337.0</ele><time>2026-03-29T15:14:46.078Z</time></trkpt><trkpt lat="43.06695" lon="11.6783133"><ele>340.0</ele><time>2026-03-29T15:14:47.078Z</time></trkpt><trkpt lat="43.0671067" lon="11.678405"><ele>343.0</ele><time>2026-03-29T15:14:48.078Z</time></trkpt><trkpt lat="43.06727" lon="11.6784883"><ele>343.0</ele><time>2026-03-29T15:14:49.077Z</time></trkpt><trkpt lat="43.0674317" lon="11.6785617"><ele>343.0</ele><time>2026-03-29T15:14:50.077Z</time></trkpt><trkpt lat="43.0675967" lon="11.6786167"><ele>343.0</ele><time>2026-03-29T15:14:51.078Z</time></trkpt><trkpt lat="43.0677667" lon="11.678645"><ele>343.75</ele><time>2026-03-29T15:14:52.078Z</time></trkpt><trkpt lat="43.0679267" lon="11.6786117"><ele>344.5</ele><time>2026-03-29T15:14:53.077Z</time></trkpt><trkpt lat="43.0680667" lon="11.678565"><ele>345.25</ele><time>2026-03-29T15:14:54.078Z</time></trkpt><trkpt lat="43.068185" lon="11.6785117"><ele>346.0</ele><time>2026-03-29T15:14:55.078Z</time></trkpt><trkpt lat="43.0682883" lon="11.6784883"><ele>347.3333333333333</ele><time>2026-03-29T15:14:56.078Z</time></trkpt><trkpt lat="43.0683617" lon="11.6784833"><ele>348.66666666666663</ele><time>2026-03-29T15:14:57.077Z</time></trkpt><trkpt lat="43.0684683" lon="11.6784467"><ele>350.0</ele><time>2026-03-29T15:14:59.078Z</time></trkpt><trkpt lat="43.0685283" lon="11.6783683"><ele>351.3333333333333</ele><time>2026-03-29T15:15:01.078Z</time></trkpt><trkpt lat="43.0685717" lon="11.6782483"><ele>352.6666666666667</ele><time>2026-03-29T15:15:03.078Z</time></trkpt><trkpt lat="43.06861" lon="11.6781767"><ele>354.0</ele><time>2026-03-29T15:15:04.078Z</time></trkpt><trkpt lat="43.068665" lon="11.6780867"><ele>354.0</ele><time>2026-03-29T15:15:05.078Z</time></trkpt><trkpt lat="43.0687217" lon="11.6779817"><ele>354.0</ele><time>2026-03-29T15:15:06.077Z</time></trkpt><trkpt lat="43.0687783" lon="11.67787"><ele>354.0</ele><time>2026-03-29T15:15:07.077Z</time></trkpt><trkpt lat="43.0688317" lon="11.6777467"><ele>354.0</ele><time>2026-03-29T15:15:08.078Z</time></trkpt><trkpt lat="43.0688933" lon="11.6776083"><ele>354.0</ele><time>2026-03-29T15:15:09.077Z</time></trkpt><trkpt lat="43.0689483" lon="11.6774667"><ele>351.3333333333333</ele><time>2026-03-29T15:15:10.078Z</time></trkpt><trkpt lat="43.069035" lon="11.6771733"><ele>348.66666666666663</ele><time>2026-03-29T15:15:12.078Z</time></trkpt><trkpt lat="43.069055" lon="11.677025"><ele>346.0</ele><time>2026-03-29T15:15:13.077Z</time></trkpt><trkpt lat="43.06904" lon="11.676875"><ele>345.25</ele><time>2026-03-29T15:15:14.078Z</time></trkpt><trkpt lat="43.0689817" lon="11.6767233"><ele>344.5</ele><time>2026-03-29T15:15:15.077Z</time></trkpt><trkpt lat="43.068895" lon="11.67657"><ele>343.75</ele><time>2026-03-29T15:15:16.078Z</time></trkpt><trkpt lat="43.0687833" lon="11.6764133"><ele>343.0</ele><time>2026-03-29T15:15:17.078Z</time></trkpt><trkpt lat="43.0686633" lon="11.6762733"><ele>343.0</ele><time>2026-03-29T15:15:18.078Z</time></trkpt><trkpt lat="43.0685717" lon="11.676155"><ele>343.0</ele><time>2026-03-29T15:15:19.077Z</time></trkpt><trkpt lat="43.0684917" lon="11.6760483"><ele>343.0</ele><time>2026-03-29T15:15:20.078Z</time></trkpt><trkpt lat="43.06842" lon="11.6759533"><ele>343.0</ele><time>2026-03-29T15:15:21.077Z</time></trkpt><trkpt lat="43.0683483" lon="11.6758633"><ele>343.0</ele><time>2026-03-29T15:15:22.078Z</time></trkpt><trkpt lat="43.06829" lon="11.67578"><ele>342.0</ele><time>2026-03-29T15:15:23.077Z</time></trkpt><trkpt lat="43.06824" lon="11.675705"><ele>341.0</ele><time>2026-03-29T15:15:24.078Z</time></trkpt><trkpt lat="43.0681883" lon="11.6756333"><ele>340.0</ele><time>2026-03-29T15:15:25.077Z</time></trkpt><trkpt lat="43.0681383" lon="11.6755633"><ele>339.0</ele><time>2026-03-29T15:15:26.078Z</time></trkpt><trkpt lat="43.0680817" lon="11.6754883"><ele>338.0</ele><time>2026-03-29T15:15:27.078Z</time></trkpt><trkpt lat="43.0680233" lon="11.6754133"><ele>337.0</ele><time>2026-03-29T15:15:28.078Z</time></trkpt><trkpt lat="43.067965" lon="11.6753367"><ele>338.40000000000003</ele><time>2026-03-29T15:15:29.077Z</time></trkpt><trkpt lat="43.0678933" lon="11.6752683"><ele>339.8</ele><time>2026-03-29T15:15:30.077Z</time></trkpt><trkpt lat="43.06782" lon="11.6752033"><ele>341.2</ele><time>2026-03-29T15:15:31.078Z</time></trkpt><trkpt lat="43.0677333" lon="11.6751433"><ele>342.6</ele><time>2026-03-29T15:15:32.078Z</time></trkpt><trkpt lat="43.0676383" lon="11.67509"><ele>344.0</ele><time>2026-03-29T15:15:33.078Z</time></trkpt><trkpt lat="43.0675367" lon="11.67504"><ele>341.6</ele><time>2026-03-29T15:15:34.078Z</time></trkpt><trkpt lat="43.0674383" lon="11.67498"><ele>339.2</ele><time>2026-03-29T15:15:35.077Z</time></trkpt><trkpt lat="43.067335" lon="11.674925"><ele>336.8</ele><time>2026-03-29T15:15:36.078Z</time></trkpt><trkpt lat="43.0672283" lon="11.6748767"><ele>334.40000000000003</ele><time>2026-03-29T15:15:37.078Z</time></trkpt><trkpt lat="43.0671167" lon="11.6748283"><ele>332.0</ele><time>2026-03-29T15:15:38.078Z</time></trkpt><trkpt lat="43.0670167" lon="11.6747783"><ele>332.0</ele><time>2026-03-29T15:15:39.078Z</time></trkpt><trkpt lat="43.0669283" lon="11.6747217"><ele>332.0</ele><time>2026-03-29T15:15:40.078Z</time></trkpt><trkpt lat="43.0668533" lon="11.674645"><ele>332.0</ele><time>2026-03-29T15:15:41.078Z</time></trkpt><trkpt lat="43.0667967" lon="11.674545"><ele>332.0</ele><time>2026-03-29T15:15:42.077Z</time></trkpt><trkpt lat="43.0667567" lon="11.6744217"><ele>332.0</ele><time>2026-03-29T15:15:43.077Z</time></trkpt><trkpt lat="43.0667233" lon="11.6742767"><ele>333.0</ele><time>2026-03-29T15:15:44.077Z</time></trkpt><trkpt lat="43.066695" lon="11.6741217"><ele>334.0</ele><time>2026-03-29T15:15:45.078Z</time></trkpt><trkpt lat="43.0666617" lon="11.6739817"><ele>335.0</ele><time>2026-03-29T15:15:46.077Z</time></trkpt><trkpt lat="43.0666083" lon="11.6738617"><ele>336.0</ele><time>2026-03-29T15:15:47.078Z</time></trkpt><trkpt lat="43.0665667" lon="11.6737483"><ele>337.0</ele><time>2026-03-29T15:15:48.077Z</time></trkpt><trkpt lat="43.06653" lon="11.67364"><ele>336.3333333333333</ele><time>2026-03-29T15:15:49.077Z</time></trkpt><trkpt lat="43.0665067" lon="11.673535"><ele>335.66666666666663</ele><time>2026-03-29T15:15:50.078Z</time></trkpt><trkpt lat="43.0665183" lon="11.6734367"><ele>335.0</ele><time>2026-03-29T15:15:51.077Z</time></trkpt><trkpt lat="43.0665583" lon="11.6733283"><ele>334.3333333333333</ele><time>2026-03-29T15:15:52.077Z</time></trkpt><trkpt lat="43.0666117" lon="11.67321"><ele>333.6666666666667</ele><time>2026-03-29T15:15:53.078Z</time></trkpt><trkpt lat="43.0666633" lon="11.6731067"><ele>333.0</ele><time>2026-03-29T15:15:54.078Z</time></trkpt><trkpt lat="43.0666933" lon="11.6730083"><ele>333.0</ele><time>2026-03-29T15:15:55.078Z</time></trkpt><trkpt lat="43.0667083" lon="11.6729017"><ele>333.0</ele><time>2026-03-29T15:15:56.078Z</time></trkpt><trkpt lat="43.0666933" lon="11.6728017"><ele>333.0</ele><time>2026-03-29T15:15:57.077Z</time></trkpt><trkpt lat="43.0666433" lon="11.6727167"><ele>333.0</ele><time>2026-03-29T15:15:58.078Z</time></trkpt><trkpt lat="43.06656" lon="11.6726383"><ele>333.0</ele><time>2026-03-29T15:15:59.077Z</time></trkpt><trkpt lat="43.06639" lon="11.6724733"><ele>327.6666666666667</ele><time>2026-03-29T15:16:01.078Z</time></trkpt><trkpt lat="43.0662767" lon="11.6722717"><ele>322.33333333333337</ele><time>2026-03-29T15:16:03.078Z</time></trkpt><trkpt lat="43.0661633" lon="11.6721033"><ele>317.0</ele><time>2026-03-29T15:16:05.078Z</time></trkpt><trkpt lat="43.0660067" lon="11.6719933"><ele>315.0</ele><time>2026-03-29T15:16:07.078Z</time></trkpt><trkpt lat="43.0658342" lon="11.6719124"><ele>313.0</ele><time>2026-03-29T15:16:09.077Z</time></trkpt><trkpt lat="43.065667" lon="11.6719118"><ele>311.0</ele><time>2026-03-29T15:16:11.078Z</time></trkpt><trkpt lat="43.065509" lon="11.6720409"><ele>310.5</ele><time>2026-03-29T15:16:13.078Z</time></trkpt><trkpt lat="43.0653569" lon="11.6721756"><ele>310.0</ele><time>2026-03-29T15:16:15.078Z</time></trkpt><trkpt lat="43.0652663" lon="11.6722104"><ele>309.5</ele><time>2026-03-29T15:16:16.077Z</time></trkpt><trkpt lat="43.0651595" lon="11.6722023"><ele>309.0</ele><time>2026-03-29T15:16:17.078Z</time></trkpt><trkpt lat="43.064882" lon="11.6720113"><ele>307.0</ele><time>2026-03-29T15:16:19.078Z</time></trkpt><trkpt lat="43.0647552" lon="11.6719146"><ele>305.0</ele><time>2026-03-29T15:16:20.078Z</time></trkpt><trkpt lat="43.0646254" lon="11.6718171"><ele>303.0</ele><time>2026-03-29T15:16:21.077Z</time></trkpt><trkpt lat="43.0643568" lon="11.6716383"><ele>301.5</ele><time>2026-03-29T15:16:23.078Z</time></trkpt><trkpt lat="43.0640653" lon="11.6714458"><ele>300.0</ele><time>2026-03-29T15:16:25.077Z</time></trkpt><trkpt lat="43.0637251" lon="11.6712194"><ele>299.5</ele><time>2026-03-29T15:16:27.078Z</time></trkpt><trkpt lat="43.0633811" lon="11.6709867"><ele>299.0</ele><time>2026-03-29T15:16:29.077Z</time></trkpt><trkpt lat="43.063068" lon="11.6707747"><ele>297.5</ele><time>2026-03-29T15:16:31.078Z</time></trkpt><trkpt lat="43.0627852" lon="11.6705834"><ele>296.0</ele><time>2026-03-29T15:16:33.078Z</time></trkpt><trkpt lat="43.0624791" lon="11.6703737"><ele>295.0</ele><time>2026-03-29T15:16:35.078Z</time></trkpt><trkpt lat="43.0623223" lon="11.6702687"><ele>294.0</ele><time>2026-03-29T15:16:36.078Z</time></trkpt><trkpt lat="43.0620057" lon="11.6700543"><ele>294.0</ele><time>2026-03-29T15:16:38.078Z</time></trkpt><trkpt lat="43.0617116" lon="11.669838"><ele>294.0</ele><time>2026-03-29T15:16:40.077Z</time></trkpt><trkpt lat="43.0614569" lon="11.6696086"><ele>293.5</ele><time>2026-03-29T15:16:42.078Z</time></trkpt><trkpt lat="43.0612296" lon="11.6693884"><ele>293.0</ele><time>2026-03-29T15:16:44.078Z</time></trkpt><trkpt lat="43.0610449" lon="11.6691825"><ele>293.0</ele><time>2026-03-29T15:16:46.078Z</time></trkpt><trkpt lat="43.0609291" lon="11.6688804"><ele>293.0</ele><time>2026-03-29T15:16:48.078Z</time></trkpt><trkpt lat="43.06085" lon="11.6684844"><ele>293.0</ele><time>2026-03-29T15:16:50.078Z</time></trkpt><trkpt lat="43.0607581" lon="11.6680854"><ele>293.0</ele><time>2026-03-29T15:16:52.077Z</time></trkpt><trkpt lat="43.0606559" lon="11.6676662"><ele>293.5</ele><time>2026-03-29T15:16:54.077Z</time></trkpt><trkpt lat="43.0605504" lon="11.6672457"><ele>294.0</ele><time>2026-03-29T15:16:56.078Z</time></trkpt><trkpt lat="43.0604523" lon="11.666837"><ele>294.0</ele><time>2026-03-29T15:16:58.077Z</time></trkpt><trkpt lat="43.0603658" lon="11.666487"><ele>294.0</ele><time>2026-03-29T15:17:00.078Z</time></trkpt><trkpt lat="43.0602455" lon="11.6662163"><ele>293.0</ele><time>2026-03-29T15:17:02.078Z</time></trkpt><trkpt lat="43.0600496" lon="11.6659342"><ele>292.0</ele><time>2026-03-29T15:17:04.078Z</time></trkpt><trkpt lat="43.0598124" lon="11.6656152"><ele>292.0</ele><time>2026-03-29T15:17:06.078Z</time></trkpt><trkpt lat="43.059692" lon="11.6654537"><ele>292.0</ele><time>2026-03-29T15:17:07.078Z</time></trkpt><trkpt lat="43.0594541" lon="11.6651272"><ele>293.5</ele><time>2026-03-29T15:17:09.078Z</time></trkpt><trkpt lat="43.0592249" lon="11.6648144"><ele>295.0</ele><time>2026-03-29T15:17:11.078Z</time></trkpt><trkpt lat="43.0590065" lon="11.6645102"><ele>292.0</ele><time>2026-03-29T15:17:13.078Z</time></trkpt><trkpt lat="43.0588968" lon="11.6643589"><ele>289.0</ele><time>2026-03-29T15:17:14.078Z</time></trkpt><trkpt lat="43.0586602" lon="11.6640505"><ele>289.0</ele><time>2026-03-29T15:17:16.078Z</time></trkpt><trkpt lat="43.0585389" lon="11.6638954"><ele>289.0</ele><time>2026-03-29T15:17:17.077Z</time></trkpt><trkpt lat="43.0582947" lon="11.6635755"><ele>288.5</ele><time>2026-03-29T15:17:19.077Z</time></trkpt><trkpt lat="43.0581644" lon="11.6634154"><ele>288.0</ele><time>2026-03-29T15:17:20.077Z</time></trkpt><trkpt lat="43.0579094" lon="11.6630812"><ele>288.0</ele><time>2026-03-29T15:17:22.078Z</time></trkpt><trkpt lat="43.057655" lon="11.6627326"><ele>288.0</ele><time>2026-03-29T15:17:24.078Z</time></trkpt><trkpt lat="43.0573922" lon="11.6623856"><ele>288.0</ele><time>2026-03-29T15:17:26.077Z</time></trkpt><trkpt lat="43.0571487" lon="11.6620611"><ele>288.0</ele><time>2026-03-29T15:17:28.078Z</time></trkpt><trkpt lat="43.056964" lon="11.6618145"><ele>287.6666666666667</ele><time>2026-03-29T15:17:30.078Z</time></trkpt><trkpt lat="43.0567965" lon="11.6616478"><ele>287.33333333333337</ele><time>2026-03-29T15:17:32.078Z</time></trkpt><trkpt lat="43.0566046" lon="11.6615681"><ele>287.0</ele><time>2026-03-29T15:17:34.078Z</time></trkpt><trkpt lat="43.0563619" lon="11.6615243"><ele>288.0</ele><time>2026-03-29T15:17:36.078Z</time></trkpt><trkpt lat="43.0560828" lon="11.6614762"><ele>289.0</ele><time>2026-03-29T15:17:38.078Z</time></trkpt><trkpt lat="43.055768" lon="11.6614124"><ele>290.5</ele><time>2026-03-29T15:17:40.077Z</time></trkpt><trkpt lat="43.0554328" lon="11.6613425"><ele>292.0</ele><time>2026-03-29T15:17:42.078Z</time></trkpt><trkpt lat="43.0550976" lon="11.6612097"><ele>294.0</ele><time>2026-03-29T15:17:44.078Z</time></trkpt><trkpt lat="43.0547669" lon="11.661015"><ele>296.0</ele><time>2026-03-29T15:17:46.077Z</time></trkpt><trkpt lat="43.0544886" lon="11.6607947"><ele>296.0</ele><time>2026-03-29T15:17:48.078Z</time></trkpt><trkpt lat="43.0542723" lon="11.6605209"><ele>296.0</ele><time>2026-03-29T15:17:50.077Z</time></trkpt><trkpt lat="43.0540821" lon="11.6601453"><ele>297.0</ele><time>2026-03-29T15:17:52.078Z</time></trkpt><trkpt lat="43.0539023" lon="11.6597417"><ele>298.0</ele><time>2026-03-29T15:17:54.078Z</time></trkpt><trkpt lat="43.053724" lon="11.6593633"><ele>298.0</ele><time>2026-03-29T15:17:56.077Z</time></trkpt><trkpt lat="43.0535569" lon="11.6590207"><ele>298.0</ele><time>2026-03-29T15:17:58.078Z</time></trkpt><trkpt lat="43.0533955" lon="11.658678"><ele>298.0</ele><time>2026-03-29T15:18:00.078Z</time></trkpt><trkpt lat="43.053232" lon="11.658325"><ele>298.0</ele><time>2026-03-29T15:18:02.078Z</time></trkpt><trkpt lat="43.0531494" lon="11.658155"><ele>298.0</ele><time>2026-03-29T15:18:03.078Z</time></trkpt><trkpt lat="43.0529909" lon="11.6578668"><ele>298.0</ele><time>2026-03-29T15:18:05.078Z</time></trkpt><trkpt lat="43.0527763" lon="11.6576484"><ele>294.5</ele><time>2026-03-29T15:18:07.078Z</time></trkpt><trkpt lat="43.0525009" lon="11.6574393"><ele>291.0</ele><time>2026-03-29T15:18:09.077Z</time></trkpt><trkpt lat="43.0523559" lon="11.657333"><ele>291.0</ele><time>2026-03-29T15:18:10.078Z</time></trkpt><trkpt lat="43.0520822" lon="11.6571256"><ele>291.0</ele><time>2026-03-29T15:18:12.078Z</time></trkpt><trkpt lat="43.0518099" lon="11.6569814"><ele>287.0</ele><time>2026-03-29T15:18:14.078Z</time></trkpt><trkpt lat="43.0515097" lon="11.6568928"><ele>283.0</ele><time>2026-03-29T15:18:16.078Z</time></trkpt><trkpt lat="43.0512196" lon="11.6568335"><ele>283.0</ele><time>2026-03-29T15:18:18.078Z</time></trkpt><trkpt lat="43.0509061" lon="11.6568649"><ele>283.0</ele><time>2026-03-29T15:18:20.077Z</time></trkpt><trkpt lat="43.0505847" lon="11.6569498"><ele>283.0</ele><time>2026-03-29T15:18:22.077Z</time></trkpt><trkpt lat="43.0503123" lon="11.6569936"><ele>283.0</ele><time>2026-03-29T15:18:24.078Z</time></trkpt><trkpt lat="43.0500762" lon="11.6569018"><ele>282.0</ele><time>2026-03-29T15:18:26.077Z</time></trkpt><trkpt lat="43.0498361" lon="11.6567126"><ele>281.0</ele><time>2026-03-29T15:18:28.077Z</time></trkpt><trkpt lat="43.0496211" lon="11.6564653"><ele>281.0</ele><time>2026-03-29T15:18:30.078Z</time></trkpt><trkpt lat="43.0494306" lon="11.6562539"><ele>281.0</ele><time>2026-03-29T15:18:32.077Z</time></trkpt><trkpt lat="43.0492476" lon="11.6560589"><ele>280.0</ele><time>2026-03-29T15:18:34.078Z</time></trkpt><trkpt lat="43.0490633" lon="11.655873"><ele>279.0</ele><time>2026-03-29T15:18:36.078Z</time></trkpt><trkpt lat="43.0488684" lon="11.6556782"><ele>279.0</ele><time>2026-03-29T15:18:38.078Z</time></trkpt><trkpt lat="43.0486591" lon="11.6554699"><ele>279.0</ele><time>2026-03-29T15:18:40.077Z</time></trkpt><trkpt lat="43.048481" lon="11.6552905"><ele>279.6666666666667</ele><time>2026-03-29T15:18:42.077Z</time></trkpt><trkpt lat="43.0483448" lon="11.6551524"><ele>280.33333333333337</ele><time>2026-03-29T15:18:44.078Z</time></trkpt><trkpt lat="43.0482276" lon="11.6550288"><ele>281.0</ele><time>2026-03-29T15:18:46.078Z</time></trkpt><trkpt lat="43.0481151" lon="11.6549084"><ele>281.0</ele><time>2026-03-29T15:18:48.078Z</time></trkpt><trkpt lat="43.0479984" lon="11.6547839"><ele>281.0</ele><time>2026-03-29T15:18:50.077Z</time></trkpt><trkpt lat="43.0479357" lon="11.6547243"><ele>281.0</ele><time>2026-03-29T15:18:51.077Z</time></trkpt><trkpt lat="43.0478644" lon="11.6546751"><ele>281.0</ele><time>2026-03-29T15:18:52.078Z</time></trkpt><trkpt lat="43.0477038" lon="11.6546142"><ele>281.0</ele><time>2026-03-29T15:18:54.078Z</time></trkpt><trkpt lat="43.0475145" lon="11.6546133"><ele>281.0</ele><time>2026-03-29T15:18:56.077Z</time></trkpt><trkpt lat="43.0473088" lon="11.6546431"><ele>281.0</ele><time>2026-03-29T15:18:58.078Z</time></trkpt><trkpt lat="43.0470797" lon="11.6546754"><ele>281.0</ele><time>2026-03-29T15:19:00.078Z</time></trkpt><trkpt lat="43.04684" lon="11.6547075"><ele>281.0</ele><time>2026-03-29T15:19:02.078Z</time></trkpt><trkpt lat="43.0465998" lon="11.6547246"><ele>281.33333333333337</ele><time>2026-03-29T15:19:04.078Z</time></trkpt><trkpt lat="43.046386" lon="11.6546649"><ele>281.6666666666667</ele><time>2026-03-29T15:19:06.078Z</time></trkpt><trkpt lat="43.0462075" lon="11.654532"><ele>282.0</ele><time>2026-03-29T15:19:08.078Z</time></trkpt><trkpt lat="43.0460432" lon="11.6542703"><ele>282.0</ele><time>2026-03-29T15:19:10.077Z</time></trkpt><trkpt lat="43.0458659" lon="11.6539052"><ele>282.0</ele><time>2026-03-29T15:19:12.078Z</time></trkpt><trkpt lat="43.0456793" lon="11.653513"><ele>286.0</ele><time>2026-03-29T15:19:14.077Z</time></trkpt><trkpt lat="43.0454726" lon="11.6530957"><ele>290.0</ele><time>2026-03-29T15:19:16.078Z</time></trkpt><trkpt lat="43.0452714" lon="11.6527062"><ele>290.5</ele><time>2026-03-29T15:19:18.077Z</time></trkpt><trkpt lat="43.0451001" lon="11.6523579"><ele>291.0</ele><time>2026-03-29T15:19:20.078Z</time></trkpt><trkpt lat="43.0449553" lon="11.652087"><ele>291.6666666666667</ele><time>2026-03-29T15:19:22.078Z</time></trkpt><trkpt lat="43.0447975" lon="11.6519035"><ele>292.33333333333337</ele><time>2026-03-29T15:19:24.078Z</time></trkpt><trkpt lat="43.0445986" lon="11.6517709"><ele>293.0</ele><time>2026-03-29T15:19:26.078Z</time></trkpt><trkpt lat="43.0444215" lon="11.6516491"><ele>293.0</ele><time>2026-03-29T15:19:28.078Z</time></trkpt><trkpt lat="43.0442719" lon="11.6514807"><ele>293.0</ele><time>2026-03-29T15:19:30.078Z</time></trkpt><trkpt lat="43.044172" lon="11.6512474"><ele>293.0</ele><time>2026-03-29T15:19:32.077Z</time></trkpt><trkpt lat="43.0440951" lon="11.6510159"><ele>292.6666666666667</ele><time>2026-03-29T15:19:34.077Z</time></trkpt><trkpt lat="43.0440104" lon="11.650806"><ele>292.3333333333333</ele><time>2026-03-29T15:19:36.078Z</time></trkpt><trkpt lat="43.0439224" lon="11.6506147"><ele>292.0</ele><time>2026-03-29T15:19:38.077Z</time></trkpt><trkpt lat="43.0438283" lon="11.6504308"><ele>290.66666666666663</ele><time>2026-03-29T15:19:40.078Z</time></trkpt><trkpt lat="43.0437321" lon="11.6502396"><ele>289.3333333333333</ele><time>2026-03-29T15:19:42.077Z</time></trkpt><trkpt lat="43.0436823" lon="11.6501423"><ele>288.0</ele><time>2026-03-29T15:19:43.078Z</time></trkpt><trkpt lat="43.0435651" lon="11.6499019"><ele>288.0</ele><time>2026-03-29T15:19:45.077Z</time></trkpt><trkpt lat="43.0434115" lon="11.6495784"><ele>288.0</ele><time>2026-03-29T15:19:47.078Z</time></trkpt><trkpt lat="43.0432606" lon="11.6492414"><ele>288.0</ele><time>2026-03-29T15:19:49.078Z</time></trkpt><trkpt lat="43.0431146" lon="11.6489467"><ele>288.0</ele><time>2026-03-29T15:19:51.078Z</time></trkpt><trkpt lat="43.042937" lon="11.6487256"><ele>285.0</ele><time>2026-03-29T15:19:53.078Z</time></trkpt><trkpt lat="43.0426898" lon="11.6485556"><ele>282.0</ele><time>2026-03-29T15:19:55.077Z</time></trkpt><trkpt lat="43.0424263" lon="11.648422"><ele>281.0</ele><time>2026-03-29T15:19:57.078Z</time></trkpt><trkpt lat="43.0421799" lon="11.6482971"><ele>280.0</ele><time>2026-03-29T15:19:59.077Z</time></trkpt><trkpt lat="43.0419343" lon="11.6481655"><ele>280.0</ele><time>2026-03-29T15:20:01.078Z</time></trkpt><trkpt lat="43.0417199" lon="11.6480357"><ele>280.0</ele><time>2026-03-29T15:20:03.077Z</time></trkpt><trkpt lat="43.0415377" lon="11.6479412"><ele>280.0</ele><time>2026-03-29T15:20:05.077Z</time></trkpt><trkpt lat="43.0413534" lon="11.6479196"><ele>278.0</ele><time>2026-03-29T15:20:07.078Z</time></trkpt><trkpt lat="43.0411073" lon="11.6479733"><ele>276.0</ele><time>2026-03-29T15:20:09.078Z</time></trkpt><trkpt lat="43.0408494" lon="11.6480523"><ele>274.0</ele><time>2026-03-29T15:20:11.078Z</time></trkpt><trkpt lat="43.0406064" lon="11.6481221"><ele>272.0</ele><time>2026-03-29T15:20:13.078Z</time></trkpt><trkpt lat="43.0403677" lon="11.6481858"><ele>272.0</ele><time>2026-03-29T15:20:15.077Z</time></trkpt><trkpt lat="43.04016" lon="11.648246"><ele>272.0</ele><time>2026-03-29T15:20:17.078Z</time></trkpt><trkpt lat="43.0399725" lon="11.6482966"><ele>272.0</ele><time>2026-03-29T15:20:19.078Z</time></trkpt><trkpt lat="43.0397991" lon="11.6483438"><ele>271.4</ele><time>2026-03-29T15:20:21.078Z</time></trkpt><trkpt lat="43.0396614" lon="11.6483715"><ele>270.79999999999995</ele><time>2026-03-29T15:20:23.078Z</time></trkpt><trkpt lat="43.0395762" lon="11.6483881"><ele>270.2</ele><time>2026-03-29T15:20:25.077Z</time></trkpt><trkpt lat="43.0394967" lon="11.64831"><ele>269.59999999999997</ele><time>2026-03-29T15:20:29.078Z</time></trkpt><trkpt lat="43.0394933" lon="11.6481917"><ele>269.0</ele><time>2026-03-29T15:20:31.078Z</time></trkpt><trkpt lat="43.0395033" lon="11.64805"><ele>269.0</ele><time>2026-03-29T15:20:33.078Z</time></trkpt><trkpt lat="43.039525" lon="11.6478867"><ele>269.0</ele><time>2026-03-29T15:20:35.077Z</time></trkpt><trkpt lat="43.039555" lon="11.6476517"><ele>269.0</ele><time>2026-03-29T15:20:38.078Z</time></trkpt><trkpt lat="43.0395283" lon="11.6474767"><ele>269.0</ele><time>2026-03-29T15:20:40.077Z</time></trkpt><trkpt lat="43.0395033" lon="11.647375"><ele>269.33333333333337</ele><time>2026-03-29T15:20:41.077Z</time></trkpt><trkpt lat="43.03947" lon="11.64727"><ele>269.6666666666667</ele><time>2026-03-29T15:20:42.077Z</time></trkpt><trkpt lat="43.0394367" lon="11.64717"><ele>270.0</ele><time>2026-03-29T15:20:43.078Z</time></trkpt><trkpt lat="43.0394083" lon="11.6470583"><ele>270.3333333333333</ele><time>2026-03-29T15:20:44.078Z</time></trkpt><trkpt lat="43.0393933" lon="11.6469483"><ele>270.66666666666663</ele><time>2026-03-29T15:20:45.077Z</time></trkpt><trkpt lat="43.0393883" lon="11.6468217"><ele>271.0</ele><time>2026-03-29T15:20:46.077Z</time></trkpt><trkpt lat="43.0393783" lon="11.646695"><ele>273.0</ele><time>2026-03-29T15:20:47.078Z</time></trkpt><trkpt lat="43.0393583" lon="11.6465617"><ele>275.0</ele><time>2026-03-29T15:20:48.077Z</time></trkpt><trkpt lat="43.0393333" lon="11.6464317"><ele>277.0</ele><time>2026-03-29T15:20:49.078Z</time></trkpt><trkpt lat="43.0393067" lon="11.6463017"><ele>279.0</ele><time>2026-03-29T15:20:50.078Z</time></trkpt><trkpt lat="43.039255" lon="11.6460417"><ele>280.59999999999997</ele><time>2026-03-29T15:20:52.078Z</time></trkpt><trkpt lat="43.0392267" lon="11.6459217"><ele>282.2</ele><time>2026-03-29T15:20:53.078Z</time></trkpt><trkpt lat="43.0391967" lon="11.645805"><ele>283.79999999999995</ele><time>2026-03-29T15:20:54.077Z</time></trkpt><trkpt lat="43.03917" lon="11.645705"><ele>285.4</ele><time>2026-03-29T15:20:55.077Z</time></trkpt><trkpt lat="43.03916" lon="11.645615"><ele>287.0</ele><time>2026-03-29T15:20:56.077Z</time></trkpt><trkpt lat="43.0391933" lon="11.64545"><ele>287.0</ele><time>2026-03-29T15:20:58.078Z</time></trkpt><trkpt lat="43.0392233" lon="11.6453717"><ele>287.0</ele><time>2026-03-29T15:20:59.078Z</time></trkpt><trkpt lat="43.0392683" lon="11.6452983"><ele>287.0</ele><time>2026-03-29T15:21:00.078Z</time></trkpt><trkpt lat="43.0393267" lon="11.6452317"><ele>287.0</ele><time>2026-03-29T15:21:01.077Z</time></trkpt><trkpt lat="43.0393833" lon="11.6451783"><ele>287.0</ele><time>2026-03-29T15:21:02.078Z</time></trkpt><trkpt lat="43.0394417" lon="11.6451183"><ele>287.0</ele><time>2026-03-29T15:21:03.078Z</time></trkpt><trkpt lat="43.0394933" lon="11.6450583"><ele>287.0</ele><time>2026-03-29T15:21:04.077Z</time></trkpt><trkpt lat="43.039545" lon="11.6449933"><ele>286.85714285714283</ele><time>2026-03-29T15:21:05.078Z</time></trkpt><trkpt lat="43.0396" lon="11.6449267"><ele>286.7142857142857</ele><time>2026-03-29T15:21:06.078Z</time></trkpt><trkpt lat="43.0396683" lon="11.64488"><ele>286.57142857142856</ele><time>2026-03-29T15:21:07.077Z</time></trkpt><trkpt lat="43.039735" lon="11.6448383"><ele>286.42857142857144</ele><time>2026-03-29T15:21:08.077Z</time></trkpt><trkpt lat="43.0398" lon="11.6447983"><ele>286.2857142857143</ele><time>2026-03-29T15:21:09.078Z</time></trkpt><trkpt lat="43.0398683" lon="11.6447733"><ele>286.1428571428571</ele><time>2026-03-29T15:21:10.078Z</time></trkpt><trkpt lat="43.0399433" lon="11.6447617"><ele>286.0</ele><time>2026-03-29T15:21:11.077Z</time></trkpt><trkpt lat="43.0400167" lon="11.6447583"><ele>287.8333333333333</ele><time>2026-03-29T15:21:12.077Z</time></trkpt><trkpt lat="43.0400933" lon="11.644755"><ele>289.66666666666663</ele><time>2026-03-29T15:21:13.078Z</time></trkpt><trkpt lat="43.0401633" lon="11.644735"><ele>291.5</ele><time>2026-03-29T15:21:14.078Z</time></trkpt><trkpt lat="43.0402317" lon="11.6447133"><ele>293.3333333333333</ele><time>2026-03-29T15:21:15.077Z</time></trkpt><trkpt lat="43.040295" lon="11.64469"><ele>295.1666666666667</ele><time>2026-03-29T15:21:16.078Z</time></trkpt><trkpt lat="43.040385" lon="11.6445767"><ele>297.0</ele><time>2026-03-29T15:21:18.077Z</time></trkpt><trkpt lat="43.0404183" lon="11.6445033"><ele>297.1666666666667</ele><time>2026-03-29T15:21:19.078Z</time></trkpt><trkpt lat="43.0404317" lon="11.6443583"><ele>297.3333333333333</ele><time>2026-03-29T15:21:21.077Z</time></trkpt><trkpt lat="43.0404067" lon="11.644225"><ele>297.5</ele><time>2026-03-29T15:21:23.078Z</time></trkpt><trkpt lat="43.0403883" lon="11.6441417"><ele>297.66666666666663</ele><time>2026-03-29T15:21:24.077Z</time></trkpt><trkpt lat="43.040375" lon="11.644055"><ele>297.8333333333333</ele><time>2026-03-29T15:21:25.078Z</time></trkpt><trkpt lat="43.040362" lon="11.6439674"><ele>298.0</ele><time>2026-03-29T15:21:26.078Z</time></trkpt><trkpt lat="43.0403506" lon="11.6438773"><ele>298.0</ele><time>2026-03-29T15:21:27.078Z</time></trkpt><trkpt lat="43.0403381" lon="11.6437864"><ele>298.0</ele><time>2026-03-29T15:21:28.078Z</time></trkpt><trkpt lat="43.0403246" lon="11.6436936"><ele>298.0</ele><time>2026-03-29T15:21:29.078Z</time></trkpt><trkpt lat="43.0403164" lon="11.6435988"><ele>298.0</ele><time>2026-03-29T15:21:30.078Z</time></trkpt><trkpt lat="43.040308" lon="11.6434959"><ele>298.0</ele><time>2026-03-29T15:21:31.078Z</time></trkpt><trkpt lat="43.040296" lon="11.643387"><ele>298.0</ele><time>2026-03-29T15:21:32.078Z</time></trkpt><trkpt lat="43.0402852" lon="11.643277"><ele>298.0</ele><time>2026-03-29T15:21:33.078Z</time></trkpt><trkpt lat="43.0402705" lon="11.6431678"><ele>299.16666666666663</ele><time>2026-03-29T15:21:34.078Z</time></trkpt><trkpt lat="43.0402532" lon="11.6430666"><ele>300.3333333333333</ele><time>2026-03-29T15:21:35.078Z</time></trkpt><trkpt lat="43.040214" lon="11.6429837"><ele>301.5</ele><time>2026-03-29T15:21:36.078Z</time></trkpt><trkpt lat="43.0401677" lon="11.6429116"><ele>302.6666666666667</ele><time>2026-03-29T15:21:37.077Z</time></trkpt><trkpt lat="43.0401051" lon="11.6428438"><ele>303.83333333333337</ele><time>2026-03-29T15:21:38.078Z</time></trkpt><trkpt lat="43.0400382" lon="11.6427637"><ele>305.0</ele><time>2026-03-29T15:21:39.077Z</time></trkpt><trkpt lat="43.0399683" lon="11.6426822"><ele>305.0</ele><time>2026-03-29T15:21:40.078Z</time></trkpt><trkpt lat="43.0399131" lon="11.6425939"><ele>305.0</ele><time>2026-03-29T15:21:41.078Z</time></trkpt><trkpt lat="43.0397999" lon="11.6423951"><ele>305.0</ele><time>2026-03-29T15:21:43.077Z</time></trkpt><trkpt lat="43.0397325" lon="11.6422886"><ele>305.0</ele><time>2026-03-29T15:21:44.078Z</time></trkpt><trkpt lat="43.0396615" lon="11.6421933"><ele>305.0</ele><time>2026-03-29T15:21:45.077Z</time></trkpt><trkpt lat="43.0395946" lon="11.6421071"><ele>305.0</ele><time>2026-03-29T15:21:46.077Z</time></trkpt><trkpt lat="43.0395362" lon="11.6420366"><ele>305.0</ele><time>2026-03-29T15:21:47.077Z</time></trkpt><trkpt lat="43.0394849" lon="11.6419798"><ele>305.0</ele><time>2026-03-29T15:21:48.078Z</time></trkpt><trkpt lat="43.0393889" lon="11.641888"><ele>305.0</ele><time>2026-03-29T15:21:50.078Z</time></trkpt><trkpt lat="43.0393283" lon="11.6418463"><ele>305.0</ele><time>2026-03-29T15:21:51.078Z</time></trkpt><trkpt lat="43.0392592" lon="11.6418164"><ele>304.6</ele><time>2026-03-29T15:21:52.078Z</time></trkpt><trkpt lat="43.0391867" lon="11.6417852"><ele>304.2</ele><time>2026-03-29T15:21:53.078Z</time></trkpt><trkpt lat="43.0390422" lon="11.641698"><ele>303.8</ele><time>2026-03-29T15:21:55.078Z</time></trkpt><trkpt lat="43.0389798" lon="11.6416475"><ele>303.4</ele><time>2026-03-29T15:21:56.078Z</time></trkpt><trkpt lat="43.0389302" lon="11.6415848"><ele>303.0</ele><time>2026-03-29T15:21:57.077Z</time></trkpt><trkpt lat="43.0388729" lon="11.6414334"><ele>303.0</ele><time>2026-03-29T15:21:59.078Z</time></trkpt><trkpt lat="43.0388489" lon="11.6413492"><ele>303.0</ele><time>2026-03-29T15:22:00.077Z</time></trkpt><trkpt lat="43.038824" lon="11.6412637"><ele>303.0</ele><time>2026-03-29T15:22:01.077Z</time></trkpt><trkpt lat="43.0387963" lon="11.6411831"><ele>303.0</ele><time>2026-03-29T15:22:02.078Z</time></trkpt><trkpt lat="43.0387663" lon="11.6411062"><ele>303.0</ele><time>2026-03-29T15:22:03.078Z</time></trkpt><trkpt lat="43.0387323" lon="11.6410319"><ele>303.0</ele><time>2026-03-29T15:22:04.078Z</time></trkpt><trkpt lat="43.0386901" lon="11.6409552"><ele>303.0</ele><time>2026-03-29T15:22:05.078Z</time></trkpt><trkpt lat="43.0386423" lon="11.6408751"><ele>303.6666666666667</ele><time>2026-03-29T15:22:06.078Z</time></trkpt><trkpt lat="43.0385861" lon="11.6407923"><ele>304.3333333333333</ele><time>2026-03-29T15:22:07.078Z</time></trkpt><trkpt lat="43.038525" lon="11.6407049"><ele>305.0</ele><time>2026-03-29T15:22:08.077Z</time></trkpt><trkpt lat="43.0384616" lon="11.640619"><ele>305.66666666666663</ele><time>2026-03-29T15:22:09.078Z</time></trkpt><trkpt lat="43.0384019" lon="11.6405359"><ele>306.3333333333333</ele><time>2026-03-29T15:22:10.078Z</time></trkpt><trkpt lat="43.0383438" lon="11.6404496"><ele>307.0</ele><time>2026-03-29T15:22:11.077Z</time></trkpt><trkpt lat="43.0382848" lon="11.6403627"><ele>305.5</ele><time>2026-03-29T15:22:12.078Z</time></trkpt><trkpt lat="43.0382282" lon="11.6402708"><ele>304.0</ele><time>2026-03-29T15:22:13.078Z</time></trkpt><trkpt lat="43.0381766" lon="11.6401789"><ele>302.5</ele><time>2026-03-29T15:22:14.077Z</time></trkpt><trkpt lat="43.038132" lon="11.6400928"><ele>301.0</ele><time>2026-03-29T15:22:15.078Z</time></trkpt><trkpt lat="43.0380972" lon="11.6400085"><ele>299.5</ele><time>2026-03-29T15:22:16.078Z</time></trkpt><trkpt lat="43.0380766" lon="11.6399211"><ele>298.0</ele><time>2026-03-29T15:22:17.078Z</time></trkpt><trkpt lat="43.0380659" lon="11.6398322"><ele>298.0</ele><time>2026-03-29T15:22:18.077Z</time></trkpt><trkpt lat="43.0380661" lon="11.6397435"><ele>298.0</ele><time>2026-03-29T15:22:19.077Z</time></trkpt><trkpt lat="43.0380663" lon="11.6394794"><ele>298.0</ele><time>2026-03-29T15:22:22.078Z</time></trkpt><trkpt lat="43.038051" lon="11.6393884"><ele>298.0</ele><time>2026-03-29T15:22:23.078Z</time></trkpt><trkpt lat="43.0380248" lon="11.6392974"><ele>298.0</ele><time>2026-03-29T15:22:24.078Z</time></trkpt><trkpt lat="43.0379835" lon="11.6392121"><ele>297.8333333333333</ele><time>2026-03-29T15:22:25.078Z</time></trkpt><trkpt lat="43.0379323" lon="11.639133"><ele>297.66666666666663</ele><time>2026-03-29T15:22:26.078Z</time></trkpt><trkpt lat="43.0378773" lon="11.6390567"><ele>297.5</ele><time>2026-03-29T15:22:27.078Z</time></trkpt><trkpt lat="43.0378251" lon="11.6389829"><ele>297.3333333333333</ele><time>2026-03-29T15:22:28.078Z</time></trkpt><trkpt lat="43.0377699" lon="11.6389106"><ele>297.1666666666667</ele><time>2026-03-29T15:22:29.078Z</time></trkpt><trkpt lat="43.0377129" lon="11.6388393"><ele>297.0</ele><time>2026-03-29T15:22:30.078Z</time></trkpt><trkpt lat="43.037655" lon="11.6387704"><ele>297.0</ele><time>2026-03-29T15:22:31.078Z</time></trkpt><trkpt lat="43.0375947" lon="11.6387037"><ele>297.0</ele><time>2026-03-29T15:22:32.078Z</time></trkpt><trkpt lat="43.0375267" lon="11.6386433"><ele>297.0</ele><time>2026-03-29T15:22:33.077Z</time></trkpt><trkpt lat="43.0374567" lon="11.6385817"><ele>297.0</ele><time>2026-03-29T15:22:34.077Z</time></trkpt><trkpt lat="43.0373317" lon="11.6384667"><ele>297.0</ele><time>2026-03-29T15:22:36.078Z</time></trkpt><trkpt lat="43.0372733" lon="11.6384083"><ele>295.5</ele><time>2026-03-29T15:22:37.078Z</time></trkpt><trkpt lat="43.037215" lon="11.63835"><ele>294.0</ele><time>2026-03-29T15:22:38.078Z</time></trkpt><trkpt lat="43.037155" lon="11.638295"><ele>292.5</ele><time>2026-03-29T15:22:39.078Z</time></trkpt><trkpt lat="43.0370833" lon="11.6382467"><ele>291.0</ele><time>2026-03-29T15:22:40.077Z</time></trkpt><trkpt lat="43.037015" lon="11.63819"><ele>289.5</ele><time>2026-03-29T15:22:41.078Z</time></trkpt><trkpt lat="43.0369583" lon="11.6381133"><ele>288.0</ele><time>2026-03-29T15:22:42.077Z</time></trkpt><trkpt lat="43.0369217" lon="11.6380233"><ele>288.0</ele><time>2026-03-29T15:22:43.078Z</time></trkpt><trkpt lat="43.0368883" lon="11.6379267"><ele>288.0</ele><time>2026-03-29T15:22:44.078Z</time></trkpt><trkpt lat="43.036855" lon="11.637825"><ele>288.0</ele><time>2026-03-29T15:22:45.077Z</time></trkpt><trkpt lat="43.0368167" lon="11.6377183"><ele>288.0</ele><time>2026-03-29T15:22:46.077Z</time></trkpt><trkpt lat="43.0367767" lon="11.63762"><ele>288.0</ele><time>2026-03-29T15:22:47.077Z</time></trkpt><trkpt lat="43.0367333" lon="11.63752"><ele>288.0</ele><time>2026-03-29T15:22:48.078Z</time></trkpt><trkpt lat="43.0367" lon="11.6374117"><ele>287.0</ele><time>2026-03-29T15:22:49.077Z</time></trkpt><trkpt lat="43.0366767" lon="11.6372983"><ele>286.0</ele><time>2026-03-29T15:22:50.078Z</time></trkpt><trkpt lat="43.03665" lon="11.637185"><ele>285.0</ele><time>2026-03-29T15:22:51.078Z</time></trkpt><trkpt lat="43.0366267" lon="11.637075"><ele>284.0</ele><time>2026-03-29T15:22:52.078Z</time></trkpt><trkpt lat="43.0366" lon="11.6369567"><ele>283.0</ele><time>2026-03-29T15:22:53.077Z</time></trkpt><trkpt lat="43.0365683" lon="11.6368417"><ele>282.0</ele><time>2026-03-29T15:22:54.077Z</time></trkpt><trkpt lat="43.03653" lon="11.6367433"><ele>280.5</ele><time>2026-03-29T15:22:55.077Z</time></trkpt><trkpt lat="43.0364783" lon="11.636645"><ele>279.0</ele><time>2026-03-29T15:22:56.078Z</time></trkpt><trkpt lat="43.03643" lon="11.6365617"><ele>277.5</ele><time>2026-03-29T15:22:57.078Z</time></trkpt><trkpt lat="43.036385" lon="11.6364917"><ele>276.0</ele><time>2026-03-29T15:22:58.078Z</time></trkpt><trkpt lat="43.03633" lon="11.636405"><ele>274.5</ele><time>2026-03-29T15:23:00.078Z</time></trkpt><trkpt lat="43.03631" lon="11.6363167"><ele>273.0</ele><time>2026-03-29T15:23:03.077Z</time></trkpt><trkpt lat="43.036385" lon="11.636205"><ele>273.2</ele><time>2026-03-29T15:23:06.078Z</time></trkpt><trkpt lat="43.0364617" lon="11.6360883"><ele>273.4</ele><time>2026-03-29T15:23:08.077Z</time></trkpt><trkpt lat="43.0365233" lon="11.6359933"><ele>273.59999999999997</ele><time>2026-03-29T15:23:10.078Z</time></trkpt><trkpt lat="43.03659" lon="11.6359467"><ele>273.8</ele><time>2026-03-29T15:23:12.078Z</time></trkpt><trkpt lat="43.03668" lon="11.63591"><ele>274.0</ele><time>2026-03-29T15:23:14.078Z</time></trkpt><trkpt lat="43.0367667" lon="11.63587"><ele>274.0</ele><time>2026-03-29T15:23:16.078Z</time></trkpt><trkpt lat="43.036855" lon="11.6358383"><ele>274.0</ele><time>2026-03-29T15:23:18.078Z</time></trkpt><trkpt lat="43.036935" lon="11.6358083"><ele>274.0</ele><time>2026-03-29T15:23:20.078Z</time></trkpt><trkpt lat="43.0370367" lon="11.635785"><ele>274.0</ele><time>2026-03-29T15:23:22.078Z</time></trkpt><trkpt lat="43.0371383" lon="11.635765"><ele>274.0</ele><time>2026-03-29T15:23:24.078Z</time></trkpt><trkpt lat="43.0372567" lon="11.6357583"><ele>274.0</ele><time>2026-03-29T15:23:26.077Z</time></trkpt><trkpt lat="43.0373783" lon="11.63574"><ele>274.0</ele><time>2026-03-29T15:23:28.078Z</time></trkpt><trkpt lat="43.0374467" lon="11.63573"><ele>274.0</ele><time>2026-03-29T15:23:29.078Z</time></trkpt><trkpt lat="43.0375117" lon="11.635715"><ele>274.0</ele><time>2026-03-29T15:23:30.077Z</time></trkpt><trkpt lat="43.0375783" lon="11.6356917"><ele>274.0</ele><time>2026-03-29T15:23:31.078Z</time></trkpt><trkpt lat="43.0376383" lon="11.6356633"><ele>274.0</ele><time>2026-03-29T15:23:32.078Z</time></trkpt><trkpt lat="43.03773" lon="11.6356217"><ele>274.3333333333333</ele><time>2026-03-29T15:23:34.078Z</time></trkpt><trkpt lat="43.0377867" lon="11.6355683"><ele>274.66666666666663</ele><time>2026-03-29T15:23:36.078Z</time></trkpt><trkpt lat="43.0378533" lon="11.63551"><ele>275.0</ele><time>2026-03-29T15:23:38.078Z</time></trkpt><trkpt lat="43.0379233" lon="11.635435"><ele>275.3333333333333</ele><time>2026-03-29T15:23:40.078Z</time></trkpt><trkpt lat="43.037995" lon="11.635355"><ele>275.6666666666667</ele><time>2026-03-29T15:23:42.078Z</time></trkpt><trkpt lat="43.03808" lon="11.63527"><ele>276.0</ele><time>2026-03-29T15:23:44.078Z</time></trkpt><trkpt lat="43.038155" lon="11.6351983"><ele>277.1666666666667</ele><time>2026-03-29T15:23:46.078Z</time></trkpt><trkpt lat="43.0382317" lon="11.635115"><ele>278.3333333333333</ele><time>2026-03-29T15:23:48.078Z</time></trkpt><trkpt lat="43.0383033" lon="11.6350517"><ele>279.5</ele><time>2026-03-29T15:23:50.078Z</time></trkpt><trkpt lat="43.038365" lon="11.634985"><ele>280.66666666666663</ele><time>2026-03-29T15:23:52.078Z</time></trkpt><trkpt lat="43.0384067" lon="11.6349017"><ele>281.8333333333333</ele><time>2026-03-29T15:23:54.078Z</time></trkpt><trkpt lat="43.038445" lon="11.6348267"><ele>283.0</ele><time>2026-03-29T15:23:57.077Z</time></trkpt><trkpt lat="43.0384833" lon="11.634745"><ele>283.16666666666663</ele><time>2026-03-29T15:23:59.077Z</time></trkpt><trkpt lat="43.0385317" lon="11.6346283"><ele>283.3333333333333</ele><time>2026-03-29T15:24:01.077Z</time></trkpt><trkpt lat="43.0385767" lon="11.634535"><ele>283.5</ele><time>2026-03-29T15:24:03.078Z</time></trkpt><trkpt lat="43.0386267" lon="11.63445"><ele>283.6666666666667</ele><time>2026-03-29T15:24:06.078Z</time></trkpt><trkpt lat="43.0386883" lon="11.6343483"><ele>283.83333333333337</ele><time>2026-03-29T15:24:09.077Z</time></trkpt><trkpt lat="43.038695" lon="11.6342317"><ele>284.0</ele><time>2026-03-29T15:24:12.078Z</time></trkpt><trkpt lat="43.03874" lon="11.6341183"><ele>284.83333333333337</ele><time>2026-03-29T15:24:15.077Z</time></trkpt><trkpt lat="43.0387767" lon="11.6340433"><ele>285.6666666666667</ele><time>2026-03-29T15:24:17.078Z</time></trkpt><trkpt lat="43.0388233" lon="11.6339583"><ele>286.5</ele><time>2026-03-29T15:24:19.078Z</time></trkpt><trkpt lat="43.038865" lon="11.6338683"><ele>287.3333333333333</ele><time>2026-03-29T15:24:21.078Z</time></trkpt><trkpt lat="43.0389217" lon="11.6337483"><ele>288.16666666666663</ele><time>2026-03-29T15:24:23.078Z</time></trkpt><trkpt lat="43.0389883" lon="11.6336217"><ele>289.0</ele><time>2026-03-29T15:24:25.077Z</time></trkpt><trkpt lat="43.0390233" lon="11.63355"><ele>289.0</ele><time>2026-03-29T15:24:26.078Z</time></trkpt><trkpt lat="43.0390817" lon="11.6334383"><ele>289.0</ele><time>2026-03-29T15:24:28.077Z</time></trkpt><trkpt lat="43.03913" lon="11.6333433"><ele>289.0</ele><time>2026-03-29T15:24:30.078Z</time></trkpt><trkpt lat="43.0391767" lon="11.63325"><ele>289.0</ele><time>2026-03-29T15:24:34.077Z</time></trkpt><trkpt lat="43.0392183" lon="11.6331783"><ele>289.0</ele><time>2026-03-29T15:24:37.077Z</time></trkpt><trkpt lat="43.03927" lon="11.6331117"><ele>289.0</ele><time>2026-03-29T15:24:43.078Z</time></trkpt><trkpt lat="43.039315" lon="11.6330383"><ele>287.2</ele><time>2026-03-29T15:24:46.078Z</time></trkpt><trkpt lat="43.0393433" lon="11.632945"><ele>285.4</ele><time>2026-03-29T15:24:49.078Z</time></trkpt><trkpt lat="43.0394017" lon="11.6328417"><ele>283.6</ele><time>2026-03-29T15:24:52.077Z</time></trkpt><trkpt lat="43.0394583" lon="11.6327517"><ele>281.8</ele><time>2026-03-29T15:24:54.078Z</time></trkpt><trkpt lat="43.039525" lon="11.6326467"><ele>280.0</ele><time>2026-03-29T15:24:56.078Z</time></trkpt><trkpt lat="43.0395983" lon="11.6325217"><ele>279.66666666666663</ele><time>2026-03-29T15:24:58.078Z</time></trkpt><trkpt lat="43.0396433" lon="11.6324417"><ele>279.3333333333333</ele><time>2026-03-29T15:24:59.078Z</time></trkpt><trkpt lat="43.039685" lon="11.6323333"><ele>279.0</ele><time>2026-03-29T15:25:00.078Z</time></trkpt><trkpt lat="43.0397333" lon="11.632225"><ele>278.6666666666667</ele><time>2026-03-29T15:25:01.078Z</time></trkpt><trkpt lat="43.0397883" lon="11.6321167"><ele>278.33333333333337</ele><time>2026-03-29T15:25:02.078Z</time></trkpt><trkpt lat="43.0398417" lon="11.6320117"><ele>278.0</ele><time>2026-03-29T15:25:03.077Z</time></trkpt><trkpt lat="43.0398833" lon="11.6319117"><ele>277.6666666666667</ele><time>2026-03-29T15:25:04.078Z</time></trkpt><trkpt lat="43.0399267" lon="11.6318183"><ele>277.33333333333337</ele><time>2026-03-29T15:25:05.078Z</time></trkpt><trkpt lat="43.03997" lon="11.63172"><ele>277.0</ele><time>2026-03-29T15:25:06.077Z</time></trkpt><trkpt lat="43.0400183" lon="11.6316233"><ele>276.6666666666667</ele><time>2026-03-29T15:25:07.078Z</time></trkpt><trkpt lat="43.0400633" lon="11.6315333"><ele>276.3333333333333</ele><time>2026-03-29T15:25:08.078Z</time></trkpt><trkpt lat="43.0401083" lon="11.6314433"><ele>276.0</ele><time>2026-03-29T15:25:09.078Z</time></trkpt><trkpt lat="43.0401417" lon="11.6313667"><ele>276.8</ele><time>2026-03-29T15:25:10.077Z</time></trkpt><trkpt lat="43.040225" lon="11.63124"><ele>277.6</ele><time>2026-03-29T15:25:12.078Z</time></trkpt><trkpt lat="43.0403217" lon="11.6311567"><ele>278.4</ele><time>2026-03-29T15:25:14.078Z</time></trkpt><trkpt lat="43.0404383" lon="11.6310717"><ele>279.2</ele><time>2026-03-29T15:25:16.078Z</time></trkpt><trkpt lat="43.0405" lon="11.6310233"><ele>280.0</ele><time>2026-03-29T15:25:17.077Z</time></trkpt><trkpt lat="43.0405617" lon="11.6309517"><ele>280.0</ele><time>2026-03-29T15:25:18.078Z</time></trkpt><trkpt lat="43.0406183" lon="11.6308817"><ele>280.0</ele><time>2026-03-29T15:25:19.078Z</time></trkpt><trkpt lat="43.04068" lon="11.63081"><ele>280.0</ele><time>2026-03-29T15:25:20.078Z</time></trkpt><trkpt lat="43.0407383" lon="11.6307467"><ele>280.0</ele><time>2026-03-29T15:25:21.077Z</time></trkpt><trkpt lat="43.0408033" lon="11.6306733"><ele>280.0</ele><time>2026-03-29T15:25:22.077Z</time></trkpt><trkpt lat="43.04087" lon="11.6305967"><ele>280.0</ele><time>2026-03-29T15:25:23.078Z</time></trkpt><trkpt lat="43.0409333" lon="11.63053"><ele>281.3333333333333</ele><time>2026-03-29T15:25:24.077Z</time></trkpt><trkpt lat="43.0410017" lon="11.63048"><ele>282.66666666666663</ele><time>2026-03-29T15:25:25.078Z</time></trkpt><trkpt lat="43.04106" lon="11.6304383"><ele>284.0</ele><time>2026-03-29T15:25:26.078Z</time></trkpt><trkpt lat="43.0411183" lon="11.630405"><ele>285.3333333333333</ele><time>2026-03-29T15:25:27.078Z</time></trkpt><trkpt lat="43.0412333" lon="11.6303667"><ele>286.6666666666667</ele><time>2026-03-29T15:25:29.077Z</time></trkpt><trkpt lat="43.0413233" lon="11.6303783"><ele>288.0</ele><time>2026-03-29T15:25:31.077Z</time></trkpt><trkpt lat="43.0413933" lon="11.630415"><ele>288.0</ele><time>2026-03-29T15:25:33.077Z</time></trkpt><trkpt lat="43.0414633" lon="11.6304717"><ele>288.0</ele><time>2026-03-29T15:25:35.078Z</time></trkpt><trkpt lat="43.0415517" lon="11.6305083"><ele>288.0</ele><time>2026-03-29T15:25:37.078Z</time></trkpt><trkpt lat="43.041655" lon="11.6305783"><ele>288.0</ele><time>2026-03-29T15:25:39.077Z</time></trkpt><trkpt lat="43.041685" lon="11.63074"><ele>288.0</ele><time>2026-03-29T15:25:41.078Z</time></trkpt><trkpt lat="43.0416783" lon="11.6308383"><ele>288.0</ele><time>2026-03-29T15:25:42.078Z</time></trkpt><trkpt lat="43.0416583" lon="11.63095"><ele>288.0</ele><time>2026-03-29T15:25:43.078Z</time></trkpt><trkpt lat="43.04163" lon="11.6310583"><ele>288.0</ele><time>2026-03-29T15:25:44.077Z</time></trkpt><trkpt lat="43.0416033" lon="11.6311717"><ele>288.0</ele><time>2026-03-29T15:25:45.078Z</time></trkpt><trkpt lat="43.0415783" lon="11.6313017"><ele>288.0</ele><time>2026-03-29T15:25:46.078Z</time></trkpt><trkpt lat="43.0415617" lon="11.63145"><ele>289.75</ele><time>2026-03-29T15:25:47.078Z</time></trkpt><trkpt lat="43.0415417" lon="11.6316033"><ele>291.5</ele><time>2026-03-29T15:25:48.078Z</time></trkpt><trkpt lat="43.0415183" lon="11.6317567"><ele>293.25</ele><time>2026-03-29T15:25:49.078Z</time></trkpt><trkpt lat="43.0415033" lon="11.631905"><ele>295.0</ele><time>2026-03-29T15:25:50.077Z</time></trkpt><trkpt lat="43.0414983" lon="11.6320583"><ele>296.0</ele><time>2026-03-29T15:25:51.077Z</time></trkpt><trkpt lat="43.0415067" lon="11.63224"><ele>297.0</ele><time>2026-03-29T15:25:52.077Z</time></trkpt><trkpt lat="43.041515" lon="11.6324267"><ele>298.0</ele><time>2026-03-29T15:25:53.077Z</time></trkpt><trkpt lat="43.0415233" lon="11.6326133"><ele>299.0</ele><time>2026-03-29T15:25:54.078Z</time></trkpt><trkpt lat="43.0415333" lon="11.6327867"><ele>299.0</ele><time>2026-03-29T15:25:55.078Z</time></trkpt><trkpt lat="43.04154" lon="11.6329567"><ele>299.0</ele><time>2026-03-29T15:25:56.078Z</time></trkpt><trkpt lat="43.0415467" lon="11.6331267"><ele>299.0</ele><time>2026-03-29T15:25:57.078Z</time></trkpt><trkpt lat="43.0415638" lon="11.6332976"><ele>299.0</ele><time>2026-03-29T15:25:58.078Z</time></trkpt><trkpt lat="43.0415902" lon="11.6334678"><ele>302.33333333333337</ele><time>2026-03-29T15:25:59.078Z</time></trkpt><trkpt lat="43.0416323" lon="11.6336503"><ele>305.6666666666667</ele><time>2026-03-29T15:26:00.078Z</time></trkpt><trkpt lat="43.0416907" lon="11.6338447"><ele>309.0</ele><time>2026-03-29T15:26:01.078Z</time></trkpt><trkpt lat="43.0417562" lon="11.6340495"><ele>309.0</ele><time>2026-03-29T15:26:02.077Z</time></trkpt><trkpt lat="43.0418191" lon="11.6342691"><ele>309.0</ele><time>2026-03-29T15:26:03.078Z</time></trkpt><trkpt lat="43.0418841" lon="11.6344884"><ele>309.0</ele><time>2026-03-29T15:26:04.078Z</time></trkpt><trkpt lat="43.0419472" lon="11.6346872"><ele>311.6666666666667</ele><time>2026-03-29T15:26:05.078Z</time></trkpt><trkpt lat="43.0420441" lon="11.6350106"><ele>314.33333333333337</ele><time>2026-03-29T15:26:07.078Z</time></trkpt><trkpt lat="43.0420908" lon="11.6351359"><ele>317.0</ele><time>2026-03-29T15:26:08.078Z</time></trkpt><trkpt lat="43.0421515" lon="11.6352493"><ele>318.25</ele><time>2026-03-29T15:26:09.078Z</time></trkpt><trkpt lat="43.0422362" lon="11.6353574"><ele>319.5</ele><time>2026-03-29T15:26:10.078Z</time></trkpt><trkpt lat="43.0423477" lon="11.6354739"><ele>320.75</ele><time>2026-03-29T15:26:11.077Z</time></trkpt><trkpt lat="43.042488" lon="11.635594"><ele>322.0</ele><time>2026-03-29T15:26:12.077Z</time></trkpt><trkpt lat="43.0426313" lon="11.6357072"><ele>322.25</ele><time>2026-03-29T15:26:13.077Z</time></trkpt><trkpt lat="43.0427648" lon="11.6358131"><ele>322.5</ele><time>2026-03-29T15:26:14.078Z</time></trkpt><trkpt lat="43.042875" lon="11.635932"><ele>322.75</ele><time>2026-03-29T15:26:15.078Z</time></trkpt><trkpt lat="43.0429707" lon="11.6360674"><ele>323.0</ele><time>2026-03-29T15:26:16.078Z</time></trkpt><trkpt lat="43.0430514" lon="11.6362111"><ele>324.0</ele><time>2026-03-29T15:26:17.078Z</time></trkpt><trkpt lat="43.0431207" lon="11.6363686"><ele>325.0</ele><time>2026-03-29T15:26:18.078Z</time></trkpt><trkpt lat="43.0431824" lon="11.6365276"><ele>326.0</ele><time>2026-03-29T15:26:19.078Z</time></trkpt><trkpt lat="43.0432854" lon="11.6367864"><ele>326.0</ele><time>2026-03-29T15:26:21.077Z</time></trkpt><trkpt lat="43.0433287" lon="11.6368853"><ele>326.0</ele><time>2026-03-29T15:26:22.078Z</time></trkpt><trkpt lat="43.043389" lon="11.636962"><ele>326.0</ele><time>2026-03-29T15:26:23.078Z</time></trkpt><trkpt lat="43.0434633" lon="11.6370163"><ele>326.0</ele><time>2026-03-29T15:26:24.078Z</time></trkpt><trkpt lat="43.0435487" lon="11.6370496"><ele>326.0</ele><time>2026-03-29T15:26:25.077Z</time></trkpt><trkpt lat="43.0436528" lon="11.6370412"><ele>326.0</ele><time>2026-03-29T15:26:26.077Z</time></trkpt><trkpt lat="43.043776" lon="11.6369825"><ele>326.0</ele><time>2026-03-29T15:26:27.077Z</time></trkpt><trkpt lat="43.0438758" lon="11.6369556"><ele>326.0</ele><time>2026-03-29T15:26:28.078Z</time></trkpt><trkpt lat="43.0439526" lon="11.6369579"><ele>326.0</ele><time>2026-03-29T15:26:29.078Z</time></trkpt><trkpt lat="43.0440467" lon="11.6370302"><ele>326.0</ele><time>2026-03-29T15:26:31.078Z</time></trkpt><trkpt lat="43.0441303" lon="11.6371725"><ele>326.0</ele><time>2026-03-29T15:26:33.078Z</time></trkpt><trkpt lat="43.0441796" lon="11.6372565"><ele>328.6</ele><time>2026-03-29T15:26:34.077Z</time></trkpt><trkpt lat="43.0442264" lon="11.6373546"><ele>331.20000000000005</ele><time>2026-03-29T15:26:35.077Z</time></trkpt><trkpt lat="43.0442779" lon="11.6374788"><ele>333.79999999999995</ele><time>2026-03-29T15:26:36.077Z</time></trkpt><trkpt lat="43.0443335" lon="11.6376284"><ele>336.4</ele><time>2026-03-29T15:26:37.077Z</time></trkpt><trkpt lat="43.044384" lon="11.6377891"><ele>339.0</ele><time>2026-03-29T15:26:38.078Z</time></trkpt><trkpt lat="43.0444156" lon="11.6379501"><ele>339.4</ele><time>2026-03-29T15:26:39.078Z</time></trkpt><trkpt lat="43.0444227" lon="11.6381143"><ele>339.79999999999995</ele><time>2026-03-29T15:26:40.078Z</time></trkpt><trkpt lat="43.0444146" lon="11.6382695"><ele>340.20000000000005</ele><time>2026-03-29T15:26:41.078Z</time></trkpt><trkpt lat="43.0444021" lon="11.6384062"><ele>340.6</ele><time>2026-03-29T15:26:42.078Z</time></trkpt><trkpt lat="43.0443988" lon="11.6385253"><ele>341.0</ele><time>2026-03-29T15:26:43.078Z</time></trkpt><trkpt lat="43.0444076" lon="11.6386287"><ele>340.6</ele><time>2026-03-29T15:26:44.078Z</time></trkpt><trkpt lat="43.0444342" lon="11.6387256"><ele>340.20000000000005</ele><time>2026-03-29T15:26:45.078Z</time></trkpt><trkpt lat="43.0444812" lon="11.6388218"><ele>339.79999999999995</ele><time>2026-03-29T15:26:46.078Z</time></trkpt><trkpt lat="43.0445421" lon="11.6389061"><ele>339.4</ele><time>2026-03-29T15:26:47.078Z</time></trkpt><trkpt lat="43.0446151" lon="11.6389938"><ele>339.0</ele><time>2026-03-29T15:26:48.078Z</time></trkpt><trkpt lat="43.0446924" lon="11.6390967"><ele>339.0</ele><time>2026-03-29T15:26:49.078Z</time></trkpt><trkpt lat="43.0448185" lon="11.6393498"><ele>339.0</ele><time>2026-03-29T15:26:51.078Z</time></trkpt><trkpt lat="43.0448611" lon="11.6395029"><ele>339.0</ele><time>2026-03-29T15:26:52.078Z</time></trkpt><trkpt lat="43.0448925" lon="11.63966"><ele>339.0</ele><time>2026-03-29T15:26:53.076Z</time></trkpt><trkpt lat="43.0449212" lon="11.6398205"><ele>339.0</ele><time>2026-03-29T15:26:54.078Z</time></trkpt><trkpt lat="43.044956" lon="11.6399754"><ele>339.0</ele><time>2026-03-29T15:26:55.078Z</time></trkpt><trkpt lat="43.0449933" lon="11.6401293"><ele>339.0</ele><time>2026-03-29T15:26:56.078Z</time></trkpt><trkpt lat="43.0450324" lon="11.6402813"><ele>341.2</ele><time>2026-03-29T15:26:57.078Z</time></trkpt><trkpt lat="43.0450716" lon="11.6404199"><ele>343.4</ele><time>2026-03-29T15:26:58.077Z</time></trkpt><trkpt lat="43.0451175" lon="11.6405398"><ele>345.6</ele><time>2026-03-29T15:26:59.077Z</time></trkpt><trkpt lat="43.0451701" lon="11.6406342"><ele>347.8</ele><time>2026-03-29T15:27:00.078Z</time></trkpt><trkpt lat="43.0452243" lon="11.6407018"><ele>350.0</ele><time>2026-03-29T15:27:01.078Z</time></trkpt><trkpt lat="43.0453203" lon="11.6407862"><ele>350.0</ele><time>2026-03-29T15:27:03.078Z</time></trkpt><trkpt lat="43.0453883" lon="11.6408333"><ele>350.0</ele><time>2026-03-29T15:27:05.078Z</time></trkpt><trkpt lat="43.0454533" lon="11.64085"><ele>350.0</ele><time>2026-03-29T15:27:07.078Z</time></trkpt><trkpt lat="43.0455217" lon="11.64088"><ele>350.0</ele><time>2026-03-29T15:27:09.078Z</time></trkpt><trkpt lat="43.0455983" lon="11.640925"><ele>350.0</ele><time>2026-03-29T15:27:11.077Z</time></trkpt><trkpt lat="43.0456933" lon="11.6409567"><ele>350.0</ele><time>2026-03-29T15:27:13.078Z</time></trkpt><trkpt lat="43.0458167" lon="11.64096"><ele>350.0</ele><time>2026-03-29T15:27:15.078Z</time></trkpt><trkpt lat="43.0458833" lon="11.6409633"><ele>350.0</ele><time>2026-03-29T15:27:16.078Z</time></trkpt><trkpt lat="43.0459467" lon="11.6409617"><ele>350.0</ele><time>2026-03-29T15:27:17.078Z</time></trkpt><trkpt lat="43.0460217" lon="11.640945"><ele>350.0</ele><time>2026-03-29T15:27:18.078Z</time></trkpt><trkpt lat="43.046105" lon="11.640925"><ele>350.0</ele><time>2026-03-29T15:27:19.077Z</time></trkpt><trkpt lat="43.0461933" lon="11.6409133"><ele>350.0</ele><time>2026-03-29T15:27:20.078Z</time></trkpt><trkpt lat="43.0462833" lon="11.6409033"><ele>350.0</ele><time>2026-03-29T15:27:21.078Z</time></trkpt><trkpt lat="43.046375" lon="11.64091"><ele>350.0</ele><time>2026-03-29T15:27:22.078Z</time></trkpt><trkpt lat="43.0464517" lon="11.6409267"><ele>350.0</ele><time>2026-03-29T15:27:23.077Z</time></trkpt><trkpt lat="43.046515" lon="11.6409317"><ele>350.0</ele><time>2026-03-29T15:27:24.078Z</time></trkpt><trkpt lat="43.0465833" lon="11.6409283"><ele>350.0</ele><time>2026-03-29T15:27:25.078Z</time></trkpt><trkpt lat="43.0467083" lon="11.6409117"><ele>350.0</ele><time>2026-03-29T15:27:27.077Z</time></trkpt><trkpt lat="43.04678" lon="11.6408933"><ele>350.0</ele><time>2026-03-29T15:27:28.078Z</time></trkpt><trkpt lat="43.0468517" lon="11.6408817"><ele>350.0</ele><time>2026-03-29T15:27:29.077Z</time></trkpt><trkpt lat="43.0469283" lon="11.64088"><ele>350.0</ele><time>2026-03-29T15:27:30.078Z</time></trkpt><trkpt lat="43.0469983" lon="11.6408833"><ele>350.0</ele><time>2026-03-29T15:27:31.078Z</time></trkpt><trkpt lat="43.0470633" lon="11.64089"><ele>350.0</ele><time>2026-03-29T15:27:32.078Z</time></trkpt><trkpt lat="43.0471283" lon="11.6409383"><ele>350.0</ele><time>2026-03-29T15:27:33.079Z</time></trkpt><trkpt lat="43.0472117" lon="11.6410133"><ele>350.0</ele><time>2026-03-29T15:27:34.078Z</time></trkpt><trkpt lat="43.0473" lon="11.6410983"><ele>350.0</ele><time>2026-03-29T15:27:35.079Z</time></trkpt><trkpt lat="43.0474133" lon="11.641175"><ele>350.0</ele><time>2026-03-29T15:27:36.079Z</time></trkpt><trkpt lat="43.04754" lon="11.6412517"><ele>350.0</ele><time>2026-03-29T15:27:37.078Z</time></trkpt><trkpt lat="43.0476617" lon="11.6413417"><ele>348.75</ele><time>2026-03-29T15:27:38.079Z</time></trkpt><trkpt lat="43.04778" lon="11.6414183"><ele>347.5</ele><time>2026-03-29T15:27:39.079Z</time></trkpt><trkpt lat="43.047895" lon="11.6415"><ele>346.25</ele><time>2026-03-29T15:27:40.079Z</time></trkpt><trkpt lat="43.0479983" lon="11.6415767"><ele>345.0</ele><time>2026-03-29T15:27:41.079Z</time></trkpt><trkpt lat="43.0480933" lon="11.6416567"><ele>345.0</ele><time>2026-03-29T15:27:42.078Z</time></trkpt><trkpt lat="43.0481967" lon="11.6417417"><ele>345.0</ele><time>2026-03-29T15:27:43.079Z</time></trkpt><trkpt lat="43.0483083" lon="11.6418183"><ele>345.0</ele><time>2026-03-29T15:27:44.079Z</time></trkpt><trkpt lat="43.0484217" lon="11.6418917"><ele>345.0</ele><time>2026-03-29T15:27:45.079Z</time></trkpt><trkpt lat="43.0485283" lon="11.64195"><ele>343.2</ele><time>2026-03-29T15:27:46.079Z</time></trkpt><trkpt lat="43.0486383" lon="11.642005"><ele>341.4</ele><time>2026-03-29T15:27:47.079Z</time></trkpt><trkpt lat="43.04875" lon="11.64204"><ele>339.6</ele><time>2026-03-29T15:27:48.079Z</time></trkpt><trkpt lat="43.04885" lon="11.642065"><ele>337.8</ele><time>2026-03-29T15:27:49.078Z</time></trkpt><trkpt lat="43.0489567" lon="11.6420733"><ele>336.0</ele><time>2026-03-29T15:27:50.078Z</time></trkpt><trkpt lat="43.0490783" lon="11.6420667"><ele>337.6</ele><time>2026-03-29T15:27:51.079Z</time></trkpt><trkpt lat="43.0491917" lon="11.6420633"><ele>339.20000000000005</ele><time>2026-03-29T15:27:52.079Z</time></trkpt><trkpt lat="43.049295" lon="11.6420517"><ele>340.79999999999995</ele><time>2026-03-29T15:27:53.079Z</time></trkpt><trkpt lat="43.0493967" lon="11.6420367"><ele>342.4</ele><time>2026-03-29T15:27:54.078Z</time></trkpt><trkpt lat="43.0495" lon="11.6420267"><ele>344.0</ele><time>2026-03-29T15:27:55.078Z</time></trkpt><trkpt lat="43.0496033" lon="11.64203"><ele>344.0</ele><time>2026-03-29T15:27:56.078Z</time></trkpt><trkpt lat="43.0497117" lon="11.6420483"><ele>344.0</ele><time>2026-03-29T15:27:57.079Z</time></trkpt><trkpt lat="43.0498183" lon="11.642085"><ele>344.0</ele><time>2026-03-29T15:27:58.079Z</time></trkpt><trkpt lat="43.0499133" lon="11.6421183"><ele>344.0</ele><time>2026-03-29T15:27:59.079Z</time></trkpt><trkpt lat="43.049995" lon="11.6421583"><ele>344.0</ele><time>2026-03-29T15:28:00.079Z</time></trkpt><trkpt lat="43.0500533" lon="11.6421917"><ele>346.2</ele><time>2026-03-29T15:28:01.079Z</time></trkpt><trkpt lat="43.050135" lon="11.642215"><ele>348.4</ele><time>2026-03-29T15:28:03.078Z</time></trkpt><trkpt lat="43.050235" lon="11.6422017"><ele>350.6</ele><time>2026-03-29T15:28:06.079Z</time></trkpt><trkpt lat="43.0503233" lon="11.6422617"><ele>352.8</ele><time>2026-03-29T15:28:08.079Z</time></trkpt><trkpt lat="43.0503833" lon="11.6423933"><ele>355.0</ele><time>2026-03-29T15:28:10.079Z</time></trkpt><trkpt lat="43.0504567" lon="11.6424567"><ele>355.0</ele><time>2026-03-29T15:28:12.079Z</time></trkpt><trkpt lat="43.0505383" lon="11.6424817"><ele>355.0</ele><time>2026-03-29T15:28:14.079Z</time></trkpt><trkpt lat="43.0506283" lon="11.6424917"><ele>355.0</ele><time>2026-03-29T15:28:16.078Z</time></trkpt><trkpt lat="43.0507" lon="11.6424983"><ele>355.0</ele><time>2026-03-29T15:28:18.079Z</time></trkpt><trkpt lat="43.0507917" lon="11.6425133"><ele>355.0</ele><time>2026-03-29T15:28:20.078Z</time></trkpt><trkpt lat="43.0509083" lon="11.6425467"><ele>355.16666666666663</ele><time>2026-03-29T15:28:22.079Z</time></trkpt><trkpt lat="43.05097" lon="11.6425767"><ele>355.3333333333333</ele><time>2026-03-29T15:28:23.079Z</time></trkpt><trkpt lat="43.0510847" lon="11.6426326"><ele>355.5</ele><time>2026-03-29T15:28:25.079Z</time></trkpt><trkpt lat="43.0511493" lon="11.6426521"><ele>355.6666666666667</ele><time>2026-03-29T15:28:26.079Z</time></trkpt><trkpt lat="43.0512185" lon="11.6426691"><ele>355.83333333333337</ele><time>2026-03-29T15:28:27.079Z</time></trkpt><trkpt lat="43.0512972" lon="11.6426913"><ele>356.0</ele><time>2026-03-29T15:28:28.079Z</time></trkpt><trkpt lat="43.0513777" lon="11.6427225"><ele>355.99999999999994</ele><time>2026-03-29T15:28:29.079Z</time></trkpt><trkpt lat="43.051454" lon="11.6427542"><ele>356.0</ele><time>2026-03-29T15:28:30.079Z</time></trkpt><trkpt lat="43.0515254" lon="11.6427853"><ele>356.0</ele><time>2026-03-29T15:28:31.078Z</time></trkpt><trkpt lat="43.0515959" lon="11.6427986"><ele>356.0</ele><time>2026-03-29T15:28:32.079Z</time></trkpt><trkpt lat="43.0516643" lon="11.6427942"><ele>356.0</ele><time>2026-03-29T15:28:33.078Z</time></trkpt><trkpt lat="43.0517259" lon="11.6427711"><ele>355.99999999999994</ele><time>2026-03-29T15:28:34.079Z</time></trkpt><trkpt lat="43.0517875" lon="11.6427295"><ele>356.0</ele><time>2026-03-29T15:28:35.079Z</time></trkpt><trkpt lat="43.0518476" lon="11.6426671"><ele>353.6666666666667</ele><time>2026-03-29T15:28:36.079Z</time></trkpt><trkpt lat="43.0519162" lon="11.6425977"><ele>351.33333333333337</ele><time>2026-03-29T15:28:37.079Z</time></trkpt><trkpt lat="43.0519958" lon="11.6425377"><ele>349.0</ele><time>2026-03-29T15:28:38.078Z</time></trkpt><trkpt lat="43.0520723" lon="11.642505"><ele>346.6666666666667</ele><time>2026-03-29T15:28:39.079Z</time></trkpt><trkpt lat="43.052148" lon="11.6424937"><ele>344.3333333333333</ele><time>2026-03-29T15:28:40.078Z</time></trkpt><trkpt lat="43.0522345" lon="11.6424928"><ele>342.0</ele><time>2026-03-29T15:28:41.079Z</time></trkpt><trkpt lat="43.0523269" lon="11.6424862"><ele>342.0</ele><time>2026-03-29T15:28:42.079Z</time></trkpt><trkpt lat="43.0524163" lon="11.642472"><ele>342.0</ele><time>2026-03-29T15:28:43.079Z</time></trkpt><trkpt lat="43.0525053" lon="11.6424679"><ele>342.0</ele><time>2026-03-29T15:28:44.079Z</time></trkpt><trkpt lat="43.0525823" lon="11.6424748"><ele>342.0</ele><time>2026-03-29T15:28:45.078Z</time></trkpt><trkpt lat="43.052655" lon="11.6424814"><ele>342.0</ele><time>2026-03-29T15:28:46.079Z</time></trkpt><trkpt lat="43.0527197" lon="11.6424867"><ele>342.0</ele><time>2026-03-29T15:28:47.079Z</time></trkpt><trkpt lat="43.0527825" lon="11.6424807"><ele>340.0</ele><time>2026-03-29T15:28:48.079Z</time></trkpt><trkpt lat="43.0528964" lon="11.642371"><ele>338.0</ele><time>2026-03-29T15:28:50.078Z</time></trkpt><trkpt lat="43.0529695" lon="11.6422661"><ele>336.0</ele><time>2026-03-29T15:28:51.079Z</time></trkpt><trkpt lat="43.0530383" lon="11.642162"><ele>334.0</ele><time>2026-03-29T15:28:52.079Z</time></trkpt><trkpt lat="43.0530964" lon="11.6420724"><ele>332.0</ele><time>2026-03-29T15:28:53.079Z</time></trkpt><trkpt lat="43.0531512" lon="11.6419966"><ele>331.1428571428571</ele><time>2026-03-29T15:28:54.079Z</time></trkpt><trkpt lat="43.0532093" lon="11.6419224"><ele>330.28571428571433</ele><time>2026-03-29T15:28:55.078Z</time></trkpt><trkpt lat="43.0532547" lon="11.6418372"><ele>329.42857142857144</ele><time>2026-03-29T15:28:56.079Z</time></trkpt><trkpt lat="43.0532804" lon="11.6417359"><ele>328.57142857142856</ele><time>2026-03-29T15:28:57.078Z</time></trkpt><trkpt lat="43.0532867" lon="11.641635"><ele>327.71428571428567</ele><time>2026-03-29T15:28:58.079Z</time></trkpt><trkpt lat="43.0533017" lon="11.6415433"><ele>326.8571428571429</ele><time>2026-03-29T15:28:59.079Z</time></trkpt><trkpt lat="43.0533367" lon="11.6414617"><ele>326.0</ele><time>2026-03-29T15:29:00.078Z</time></trkpt><trkpt lat="43.0533933" lon="11.6414017"><ele>326.0</ele><time>2026-03-29T15:29:01.078Z</time></trkpt><trkpt lat="43.0534633" lon="11.6413633"><ele>326.0</ele><time>2026-03-29T15:29:02.079Z</time></trkpt><trkpt lat="43.0535383" lon="11.64132"><ele>326.0</ele><time>2026-03-29T15:29:03.079Z</time></trkpt><trkpt lat="43.0536117" lon="11.6412717"><ele>326.0</ele><time>2026-03-29T15:29:04.079Z</time></trkpt><trkpt lat="43.0536817" lon="11.6412117"><ele>326.0</ele><time>2026-03-29T15:29:05.078Z</time></trkpt><trkpt lat="43.053745" lon="11.6411567"><ele>326.0</ele><time>2026-03-29T15:29:06.079Z</time></trkpt><trkpt lat="43.0538083" lon="11.6411033"><ele>326.33333333333337</ele><time>2026-03-29T15:29:07.079Z</time></trkpt><trkpt lat="43.0538783" lon="11.6410467"><ele>326.6666666666667</ele><time>2026-03-29T15:29:08.079Z</time></trkpt><trkpt lat="43.0539567" lon="11.641005"><ele>327.0</ele><time>2026-03-29T15:29:09.079Z</time></trkpt><trkpt lat="43.0540267" lon="11.6409667"><ele>327.3333333333333</ele><time>2026-03-29T15:29:10.078Z</time></trkpt><trkpt lat="43.0541017" lon="11.64093"><ele>327.66666666666663</ele><time>2026-03-29T15:29:11.079Z</time></trkpt><trkpt lat="43.0541767" lon="11.6408917"><ele>328.0</ele><time>2026-03-29T15:29:12.079Z</time></trkpt><trkpt lat="43.0542483" lon="11.6408667"><ele>328.0</ele><time>2026-03-29T15:29:13.079Z</time></trkpt><trkpt lat="43.0543233" lon="11.6408517"><ele>328.0</ele><time>2026-03-29T15:29:14.078Z</time></trkpt><trkpt lat="43.0544067" lon="11.6408567"><ele>328.0</ele><time>2026-03-29T15:29:15.079Z</time></trkpt><trkpt lat="43.0544817" lon="11.6408733"><ele>328.0</ele><time>2026-03-29T15:29:16.078Z</time></trkpt><trkpt lat="43.054555" lon="11.6408883"><ele>328.0</ele><time>2026-03-29T15:29:17.079Z</time></trkpt><trkpt lat="43.0546267" lon="11.640905"><ele>328.0</ele><time>2026-03-29T15:29:18.078Z</time></trkpt><trkpt lat="43.0547017" lon="11.6409067"><ele>327.99999999999994</ele><time>2026-03-29T15:29:19.079Z</time></trkpt><trkpt lat="43.0547817" lon="11.6408967"><ele>328.0</ele><time>2026-03-29T15:29:20.079Z</time></trkpt><trkpt lat="43.05486" lon="11.6408717"><ele>328.0</ele><time>2026-03-29T15:29:21.079Z</time></trkpt><trkpt lat="43.0549317" lon="11.64082"><ele>328.0</ele><time>2026-03-29T15:29:22.079Z</time></trkpt><trkpt lat="43.054985" lon="11.640755"><ele>328.0</ele><time>2026-03-29T15:29:23.078Z</time></trkpt><trkpt lat="43.055015" lon="11.6406767"><ele>327.99999999999994</ele><time>2026-03-29T15:29:24.078Z</time></trkpt><trkpt lat="43.0550267" lon="11.6405883"><ele>328.0</ele><time>2026-03-29T15:29:25.078Z</time></trkpt><trkpt lat="43.0550333" lon="11.64049"><ele>329.85714285714283</ele><time>2026-03-29T15:29:26.078Z</time></trkpt><trkpt lat="43.05505" lon="11.6403917"><ele>331.7142857142857</ele><time>2026-03-29T15:29:27.079Z</time></trkpt><trkpt lat="43.0550683" lon="11.640295"><ele>333.57142857142856</ele><time>2026-03-29T15:29:28.079Z</time></trkpt><trkpt lat="43.055095" lon="11.6402017"><ele>335.42857142857144</ele><time>2026-03-29T15:29:29.078Z</time></trkpt><trkpt lat="43.0551117" lon="11.6400983"><ele>337.2857142857143</ele><time>2026-03-29T15:29:30.079Z</time></trkpt><trkpt lat="43.0551133" lon="11.6399917"><ele>339.1428571428571</ele><time>2026-03-29T15:29:31.079Z</time></trkpt><trkpt lat="43.055113" lon="11.6398961"><ele>341.0</ele><time>2026-03-29T15:29:32.078Z</time></trkpt><trkpt lat="43.0551233" lon="11.6398036"><ele>342.4</ele><time>2026-03-29T15:29:33.079Z</time></trkpt><trkpt lat="43.0551691" lon="11.6396547"><ele>343.8</ele><time>2026-03-29T15:29:35.078Z</time></trkpt><trkpt lat="43.0552232" lon="11.6395277"><ele>345.2</ele><time>2026-03-29T15:29:37.079Z</time></trkpt><trkpt lat="43.0552693" lon="11.6393944"><ele>346.59999999999997</ele><time>2026-03-29T15:29:39.079Z</time></trkpt><trkpt lat="43.0553011" lon="11.6392736"><ele>348.0</ele><time>2026-03-29T15:29:41.079Z</time></trkpt><trkpt lat="43.0553446" lon="11.6391349"><ele>348.0</ele><time>2026-03-29T15:29:43.079Z</time></trkpt><trkpt lat="43.0553984" lon="11.638985"><ele>348.0</ele><time>2026-03-29T15:29:45.079Z</time></trkpt><trkpt lat="43.055428" lon="11.6389037"><ele>348.0</ele><time>2026-03-29T15:29:46.079Z</time></trkpt><trkpt lat="43.0554613" lon="11.6388201"><ele>348.0</ele><time>2026-03-29T15:29:47.079Z</time></trkpt><trkpt lat="43.0555018" lon="11.6387375"><ele>348.0</ele><time>2026-03-29T15:29:48.079Z</time></trkpt><trkpt lat="43.0555528" lon="11.6386513"><ele>348.0</ele><time>2026-03-29T15:29:49.079Z</time></trkpt><trkpt lat="43.0556056" lon="11.6385645"><ele>348.0</ele><time>2026-03-29T15:29:50.078Z</time></trkpt><trkpt lat="43.0556663" lon="11.6384868"><ele>348.0</ele><time>2026-03-29T15:29:51.078Z</time></trkpt><trkpt lat="43.0557306" lon="11.6384121"><ele>348.0</ele><time>2026-03-29T15:29:52.078Z</time></trkpt><trkpt lat="43.0557923" lon="11.6383274"><ele>348.0</ele><time>2026-03-29T15:29:53.079Z</time></trkpt><trkpt lat="43.0558542" lon="11.63824"><ele>348.0</ele><time>2026-03-29T15:29:54.078Z</time></trkpt><trkpt lat="43.0559108" lon="11.6381564"><ele>348.0</ele><time>2026-03-29T15:29:55.079Z</time></trkpt><trkpt lat="43.0559532" lon="11.6380676"><ele>346.2</ele><time>2026-03-29T15:29:56.079Z</time></trkpt><trkpt lat="43.0559902" lon="11.6379916"><ele>344.4</ele><time>2026-03-29T15:29:57.079Z</time></trkpt><trkpt lat="43.0560585" lon="11.6378819"><ele>342.59999999999997</ele><time>2026-03-29T15:29:59.079Z</time></trkpt><trkpt lat="43.056108" lon="11.6377651"><ele>340.79999999999995</ele><time>2026-03-29T15:30:02.078Z</time></trkpt><trkpt lat="43.056123" lon="11.6375946"><ele>339.0</ele><time>2026-03-29T15:30:04.079Z</time></trkpt><trkpt lat="43.0561191" lon="11.6374781"><ele>338.4</ele><time>2026-03-29T15:30:05.078Z</time></trkpt><trkpt lat="43.0561116" lon="11.6373386"><ele>337.79999999999995</ele><time>2026-03-29T15:30:06.079Z</time></trkpt><trkpt lat="43.0561043" lon="11.637184"><ele>337.20000000000005</ele><time>2026-03-29T15:30:07.079Z</time></trkpt><trkpt lat="43.0560989" lon="11.6370271"><ele>336.6</ele><time>2026-03-29T15:30:08.079Z</time></trkpt><trkpt lat="43.0560932" lon="11.6368655"><ele>336.0</ele><time>2026-03-29T15:30:09.079Z</time></trkpt><trkpt lat="43.0560838" lon="11.6366902"><ele>333.75</ele><time>2026-03-29T15:30:10.079Z</time></trkpt><trkpt lat="43.0560761" lon="11.6365046"><ele>331.5</ele><time>2026-03-29T15:30:11.078Z</time></trkpt><trkpt lat="43.0560662" lon="11.6363097"><ele>329.25</ele><time>2026-03-29T15:30:12.079Z</time></trkpt><trkpt lat="43.0560609" lon="11.6361149"><ele>327.0</ele><time>2026-03-29T15:30:13.079Z</time></trkpt><trkpt lat="43.0560618" lon="11.6359282"><ele>325.0</ele><time>2026-03-29T15:30:14.078Z</time></trkpt><trkpt lat="43.0560747" lon="11.6357464"><ele>323.0</ele><time>2026-03-29T15:30:15.079Z</time></trkpt><trkpt lat="43.0560995" lon="11.6355649"><ele>321.0</ele><time>2026-03-29T15:30:16.079Z</time></trkpt><trkpt lat="43.0561393" lon="11.6353859"><ele>319.0</ele><time>2026-03-29T15:30:17.079Z</time></trkpt><trkpt lat="43.0561839" lon="11.6352043"><ele>316.3333333333333</ele><time>2026-03-29T15:30:18.078Z</time></trkpt><trkpt lat="43.0562314" lon="11.6350178"><ele>313.6666666666667</ele><time>2026-03-29T15:30:19.078Z</time></trkpt><trkpt lat="43.0562876" lon="11.634824"><ele>311.0</ele><time>2026-03-29T15:30:20.079Z</time></trkpt><trkpt lat="43.05635" lon="11.6346165"><ele>309.33333333333337</ele><time>2026-03-29T15:30:21.079Z</time></trkpt><trkpt lat="43.0564107" lon="11.6343852"><ele>307.6666666666667</ele><time>2026-03-29T15:30:22.078Z</time></trkpt><trkpt lat="43.0564678" lon="11.6341457"><ele>306.0</ele><time>2026-03-29T15:30:23.078Z</time></trkpt><trkpt lat="43.0565249" lon="11.6339211"><ele>306.0</ele><time>2026-03-29T15:30:24.079Z</time></trkpt><trkpt lat="43.0565753" lon="11.6337076"><ele>306.0</ele><time>2026-03-29T15:30:25.079Z</time></trkpt><trkpt lat="43.0566216" lon="11.6335037"><ele>306.0</ele><time>2026-03-29T15:30:26.079Z</time></trkpt><trkpt lat="43.056653" lon="11.6333164"><ele>305.5</ele><time>2026-03-29T15:30:27.079Z</time></trkpt><trkpt lat="43.0566754" lon="11.6331361"><ele>305.0</ele><time>2026-03-29T15:30:28.079Z</time></trkpt><trkpt lat="43.056683" lon="11.6329407"><ele>304.5</ele><time>2026-03-29T15:30:29.079Z</time></trkpt><trkpt lat="43.0566693" lon="11.6327405"><ele>304.0</ele><time>2026-03-29T15:30:30.079Z</time></trkpt><trkpt lat="43.0566422" lon="11.6325571"><ele>303.25</ele><time>2026-03-29T15:30:31.079Z</time></trkpt><trkpt lat="43.0566105" lon="11.6323859"><ele>302.5</ele><time>2026-03-29T15:30:32.079Z</time></trkpt><trkpt lat="43.0565765" lon="11.6322209"><ele>301.75</ele><time>2026-03-29T15:30:33.079Z</time></trkpt><trkpt lat="43.0565453" lon="11.6320544"><ele>301.0</ele><time>2026-03-29T15:30:34.079Z</time></trkpt><trkpt lat="43.0565156" lon="11.631883"><ele>301.0</ele><time>2026-03-29T15:30:35.079Z</time></trkpt><trkpt lat="43.0564831" lon="11.6317093"><ele>301.0</ele><time>2026-03-29T15:30:36.078Z</time></trkpt><trkpt lat="43.0564541" lon="11.6315375"><ele>301.0</ele><time>2026-03-29T15:30:37.079Z</time></trkpt><trkpt lat="43.0564303" lon="11.6313566"><ele>301.0</ele><time>2026-03-29T15:30:38.079Z</time></trkpt><trkpt lat="43.0564147" lon="11.6311744"><ele>301.25</ele><time>2026-03-29T15:30:39.079Z</time></trkpt><trkpt lat="43.0564115" lon="11.6309939"><ele>301.5</ele><time>2026-03-29T15:30:40.079Z</time></trkpt><trkpt lat="43.056418" lon="11.6308221"><ele>301.75</ele><time>2026-03-29T15:30:41.078Z</time></trkpt><trkpt lat="43.0564219" lon="11.6306573"><ele>302.0</ele><time>2026-03-29T15:30:42.079Z</time></trkpt><trkpt lat="43.0564348" lon="11.6304874"><ele>302.0</ele><time>2026-03-29T15:30:43.079Z</time></trkpt><trkpt lat="43.05645" lon="11.6303203"><ele>302.0</ele><time>2026-03-29T15:30:44.078Z</time></trkpt><trkpt lat="43.0564663" lon="11.6301432"><ele>302.0</ele><time>2026-03-29T15:30:45.078Z</time></trkpt><trkpt lat="43.0564836" lon="11.629961"><ele>302.0</ele><time>2026-03-29T15:30:46.079Z</time></trkpt><trkpt lat="43.0564983" lon="11.6297761"><ele>302.25</ele><time>2026-03-29T15:30:47.079Z</time></trkpt><trkpt lat="43.0565124" lon="11.6295868"><ele>302.5</ele><time>2026-03-29T15:30:48.079Z</time></trkpt><trkpt lat="43.0565262" lon="11.6293952"><ele>302.75</ele><time>2026-03-29T15:30:49.079Z</time></trkpt><trkpt lat="43.0565403" lon="11.6291981"><ele>303.0</ele><time>2026-03-29T15:30:50.079Z</time></trkpt><trkpt lat="43.0565565" lon="11.6290053"><ele>302.0</ele><time>2026-03-29T15:30:51.079Z</time></trkpt><trkpt lat="43.0565762" lon="11.628816"><ele>301.0</ele><time>2026-03-29T15:30:52.079Z</time></trkpt><trkpt lat="43.0566022" lon="11.6286318"><ele>300.0</ele><time>2026-03-29T15:30:53.079Z</time></trkpt><trkpt lat="43.0566363" lon="11.6284538"><ele>299.0</ele><time>2026-03-29T15:30:54.078Z</time></trkpt><trkpt lat="43.0566857" lon="11.628276"><ele>296.0</ele><time>2026-03-29T15:30:55.079Z</time></trkpt><trkpt lat="43.0567493" lon="11.6281048"><ele>293.0</ele><time>2026-03-29T15:30:56.079Z</time></trkpt><trkpt lat="43.0568103" lon="11.6279394"><ele>290.0</ele><time>2026-03-29T15:30:57.078Z</time></trkpt><trkpt lat="43.056868" lon="11.6277702"><ele>287.0</ele><time>2026-03-29T15:30:58.078Z</time></trkpt><trkpt lat="43.0569143" lon="11.6275982"><ele>286.5</ele><time>2026-03-29T15:30:59.078Z</time></trkpt><trkpt lat="43.0569497" lon="11.6274222"><ele>286.0</ele><time>2026-03-29T15:31:00.079Z</time></trkpt><trkpt lat="43.056973" lon="11.6272447"><ele>285.5</ele><time>2026-03-29T15:31:01.079Z</time></trkpt><trkpt lat="43.0569832" lon="11.6270682"><ele>285.0</ele><time>2026-03-29T15:31:02.078Z</time></trkpt><trkpt lat="43.0569867" lon="11.6268996"><ele>285.0</ele><time>2026-03-29T15:31:03.078Z</time></trkpt><trkpt lat="43.0569852" lon="11.6267551"><ele>285.0</ele><time>2026-03-29T15:31:04.079Z</time></trkpt><trkpt lat="43.0569779" lon="11.6266386"><ele>285.0</ele><time>2026-03-29T15:31:05.078Z</time></trkpt><trkpt lat="43.0569666" lon="11.6265507"><ele>285.0</ele><time>2026-03-29T15:31:06.079Z</time></trkpt><trkpt lat="43.0569558" lon="11.626463"><ele>285.0</ele><time>2026-03-29T15:31:08.079Z</time></trkpt><trkpt lat="43.0569805" lon="11.6262909"><ele>285.0</ele><time>2026-03-29T15:31:34.078Z</time></trkpt><trkpt lat="43.0570012" lon="11.6262075"><ele>286.0</ele><time>2026-03-29T15:31:35.079Z</time></trkpt><trkpt lat="43.0570347" lon="11.6261068"><ele>287.0</ele><time>2026-03-29T15:31:36.078Z</time></trkpt><trkpt lat="43.057079" lon="11.6259775"><ele>288.0</ele><time>2026-03-29T15:31:37.079Z</time></trkpt><trkpt lat="43.0571344" lon="11.6258146"><ele>289.0</ele><time>2026-03-29T15:31:38.079Z</time></trkpt><trkpt lat="43.0571936" lon="11.6256121"><ele>289.0</ele><time>2026-03-29T15:31:39.078Z</time></trkpt><trkpt lat="43.0572526" lon="11.6254202"><ele>289.0</ele><time>2026-03-29T15:31:40.079Z</time></trkpt><trkpt lat="43.0573073" lon="11.6252478"><ele>289.0</ele><time>2026-03-29T15:31:41.079Z</time></trkpt><trkpt lat="43.0573579" lon="11.6251182"><ele>289.0</ele><time>2026-03-29T15:31:42.079Z</time></trkpt><trkpt lat="43.0574167" lon="11.6250138"><ele>291.4</ele><time>2026-03-29T15:31:43.078Z</time></trkpt><trkpt lat="43.0574935" lon="11.6249087"><ele>293.79999999999995</ele><time>2026-03-29T15:31:44.079Z</time></trkpt><trkpt lat="43.0575754" lon="11.6247968"><ele>296.20000000000005</ele><time>2026-03-29T15:31:45.079Z</time></trkpt><trkpt lat="43.0576271" lon="11.6246767"><ele>298.6</ele><time>2026-03-29T15:31:46.079Z</time></trkpt><trkpt lat="43.057663" lon="11.6245517"><ele>301.0</ele><time>2026-03-29T15:31:47.078Z</time></trkpt><trkpt lat="43.0576664" lon="11.6244181"><ele>302.40000000000003</ele><time>2026-03-29T15:31:48.079Z</time></trkpt><trkpt lat="43.0576469" lon="11.6242668"><ele>303.8</ele><time>2026-03-29T15:31:49.078Z</time></trkpt><trkpt lat="43.0576125" lon="11.624114"><ele>305.20000000000005</ele><time>2026-03-29T15:31:50.078Z</time></trkpt><trkpt lat="43.0575775" lon="11.6239728"><ele>306.6</ele><time>2026-03-29T15:31:51.079Z</time></trkpt><trkpt lat="43.05753" lon="11.623835"><ele>308.0</ele><time>2026-03-29T15:31:52.078Z</time></trkpt><trkpt lat="43.0574917" lon="11.62369"><ele>309.25</ele><time>2026-03-29T15:31:53.078Z</time></trkpt><trkpt lat="43.0574533" lon="11.6235367"><ele>310.5</ele><time>2026-03-29T15:31:54.078Z</time></trkpt><trkpt lat="43.0574083" lon="11.623365"><ele>311.75</ele><time>2026-03-29T15:31:55.079Z</time></trkpt><trkpt lat="43.0573583" lon="11.623205"><ele>313.0</ele><time>2026-03-29T15:31:56.079Z</time></trkpt><trkpt lat="43.0573217" lon="11.6230517"><ele>313.0</ele><time>2026-03-29T15:31:57.079Z</time></trkpt><trkpt lat="43.0572867" lon="11.62291"><ele>313.0</ele><time>2026-03-29T15:31:58.078Z</time></trkpt><trkpt lat="43.05724" lon="11.6227783"><ele>313.0</ele><time>2026-03-29T15:31:59.079Z</time></trkpt><trkpt lat="43.05719" lon="11.6226367"><ele>313.0</ele><time>2026-03-29T15:32:00.079Z</time></trkpt><trkpt lat="43.05714" lon="11.622495"><ele>313.0</ele><time>2026-03-29T15:32:01.079Z</time></trkpt><trkpt lat="43.057105" lon="11.6223467"><ele>315.4</ele><time>2026-03-29T15:32:02.078Z</time></trkpt><trkpt lat="43.0570783" lon="11.6221967"><ele>317.8</ele><time>2026-03-29T15:32:03.078Z</time></trkpt><trkpt lat="43.0570683" lon="11.62206"><ele>320.2</ele><time>2026-03-29T15:32:04.078Z</time></trkpt><trkpt lat="43.0570483" lon="11.6219317"><ele>322.6</ele><time>2026-03-29T15:32:05.079Z</time></trkpt><trkpt lat="43.0570217" lon="11.6217983"><ele>325.0</ele><time>2026-03-29T15:32:06.079Z</time></trkpt><trkpt lat="43.0569817" lon="11.621665"><ele>326.0</ele><time>2026-03-29T15:32:07.079Z</time></trkpt><trkpt lat="43.0569517" lon="11.6215333"><ele>327.0</ele><time>2026-03-29T15:32:08.079Z</time></trkpt><trkpt lat="43.05693" lon="11.6213933"><ele>328.0</ele><time>2026-03-29T15:32:09.079Z</time></trkpt><trkpt lat="43.0569217" lon="11.6212517"><ele>329.0</ele><time>2026-03-29T15:32:10.078Z</time></trkpt><trkpt lat="43.0569317" lon="11.621095"><ele>330.0</ele><time>2026-03-29T15:32:11.078Z</time></trkpt><trkpt lat="43.05696" lon="11.620915"><ele>331.8</ele><time>2026-03-29T15:32:12.079Z</time></trkpt><trkpt lat="43.0569983" lon="11.62074"><ele>333.6</ele><time>2026-03-29T15:32:13.079Z</time></trkpt><trkpt lat="43.0570217" lon="11.6205967"><ele>335.4</ele><time>2026-03-29T15:32:14.079Z</time></trkpt><trkpt lat="43.0570333" lon="11.6204683"><ele>337.2</ele><time>2026-03-29T15:32:15.079Z</time></trkpt><trkpt lat="43.0570383" lon="11.6203433"><ele>339.0</ele><time>2026-03-29T15:32:16.079Z</time></trkpt><trkpt lat="43.05705" lon="11.6202183"><ele>340.79999999999995</ele><time>2026-03-29T15:32:17.079Z</time></trkpt><trkpt lat="43.0570817" lon="11.6200967"><ele>342.59999999999997</ele><time>2026-03-29T15:32:18.079Z</time></trkpt><trkpt lat="43.0570983" lon="11.619965"><ele>344.4</ele><time>2026-03-29T15:32:19.079Z</time></trkpt><trkpt lat="43.0571133" lon="11.6198317"><ele>346.2</ele><time>2026-03-29T15:32:20.079Z</time></trkpt><trkpt lat="43.05713" lon="11.6197017"><ele>348.0</ele><time>2026-03-29T15:32:21.079Z</time></trkpt><trkpt lat="43.0571317" lon="11.6195767"><ele>348.5</ele><time>2026-03-29T15:32:22.078Z</time></trkpt><trkpt lat="43.05712" lon="11.6194667"><ele>349.0</ele><time>2026-03-29T15:32:23.079Z</time></trkpt><trkpt lat="43.0570967" lon="11.6193817"><ele>349.5</ele><time>2026-03-29T15:32:24.079Z</time></trkpt><trkpt lat="43.057065" lon="11.6192983"><ele>350.0</ele><time>2026-03-29T15:32:25.079Z</time></trkpt><trkpt lat="43.0570283" lon="11.619225"><ele>350.5</ele><time>2026-03-29T15:32:26.079Z</time></trkpt><trkpt lat="43.0569933" lon="11.61915"><ele>351.0</ele><time>2026-03-29T15:32:27.078Z</time></trkpt><trkpt lat="43.056955" lon="11.6189633"><ele>351.0</ele><time>2026-03-29T15:32:29.079Z</time></trkpt><trkpt lat="43.0569533" lon="11.6188467"><ele>351.0</ele><time>2026-03-29T15:32:30.078Z</time></trkpt><trkpt lat="43.0569633" lon="11.6187233"><ele>351.0</ele><time>2026-03-29T15:32:31.079Z</time></trkpt><trkpt lat="43.0569817" lon="11.6185933"><ele>351.0</ele><time>2026-03-29T15:32:32.079Z</time></trkpt><trkpt lat="43.0570033" lon="11.6184817"><ele>351.0</ele><time>2026-03-29T15:32:33.079Z</time></trkpt><trkpt lat="43.057005" lon="11.6183733"><ele>351.0</ele><time>2026-03-29T15:32:34.079Z</time></trkpt><trkpt lat="43.0569933" lon="11.618265"><ele>350.8333333333333</ele><time>2026-03-29T15:32:35.078Z</time></trkpt><trkpt lat="43.05697" lon="11.61815"><ele>350.6666666666667</ele><time>2026-03-29T15:32:36.078Z</time></trkpt><trkpt lat="43.056945" lon="11.6180217"><ele>350.5</ele><time>2026-03-29T15:32:37.078Z</time></trkpt><trkpt lat="43.0569333" lon="11.6179067"><ele>350.33333333333337</ele><time>2026-03-29T15:32:38.079Z</time></trkpt><trkpt lat="43.0569467" lon="11.6177967"><ele>350.1666666666667</ele><time>2026-03-29T15:32:39.079Z</time></trkpt><trkpt lat="43.0569817" lon="11.617695"><ele>350.0</ele><time>2026-03-29T15:32:40.079Z</time></trkpt><trkpt lat="43.057035" lon="11.6176"><ele>350.0</ele><time>2026-03-29T15:32:41.079Z</time></trkpt><trkpt lat="43.0571017" lon="11.6175117"><ele>350.0</ele><time>2026-03-29T15:32:42.078Z</time></trkpt><trkpt lat="43.0571483" lon="11.6174283"><ele>350.0</ele><time>2026-03-29T15:32:43.079Z</time></trkpt><trkpt lat="43.0571483" lon="11.6173117"><ele>350.0</ele><time>2026-03-29T15:32:45.079Z</time></trkpt><trkpt lat="43.0570817" lon="11.617205"><ele>350.0</ele><time>2026-03-29T15:32:47.079Z</time></trkpt><trkpt lat="43.057035" lon="11.6170667"><ele>349.83333333333337</ele><time>2026-03-29T15:32:49.079Z</time></trkpt><trkpt lat="43.0569967" lon="11.616895"><ele>349.6666666666667</ele><time>2026-03-29T15:32:51.079Z</time></trkpt><trkpt lat="43.056975" lon="11.616805"><ele>349.5</ele><time>2026-03-29T15:32:52.078Z</time></trkpt><trkpt lat="43.0569633" lon="11.6167017"><ele>349.3333333333333</ele><time>2026-03-29T15:32:53.078Z</time></trkpt><trkpt lat="43.0569617" lon="11.6165933"><ele>349.16666666666663</ele><time>2026-03-29T15:32:54.079Z</time></trkpt><trkpt lat="43.05697" lon="11.6164767"><ele>349.0</ele><time>2026-03-29T15:32:55.078Z</time></trkpt><trkpt lat="43.0569833" lon="11.6163583"><ele>349.0</ele><time>2026-03-29T15:32:56.079Z</time></trkpt><trkpt lat="43.0570133" lon="11.6162367"><ele>349.0</ele><time>2026-03-29T15:32:57.079Z</time></trkpt><trkpt lat="43.0570517" lon="11.6161083"><ele>349.0</ele><time>2026-03-29T15:32:58.079Z</time></trkpt><trkpt lat="43.0570867" lon="11.6159733"><ele>349.0</ele><time>2026-03-29T15:32:59.079Z</time></trkpt><trkpt lat="43.0571133" lon="11.6158383"><ele>349.0</ele><time>2026-03-29T15:33:00.079Z</time></trkpt><trkpt lat="43.0571267" lon="11.6157217"><ele>348.79999999999995</ele><time>2026-03-29T15:33:01.079Z</time></trkpt><trkpt lat="43.0571467" lon="11.6156017"><ele>348.59999999999997</ele><time>2026-03-29T15:33:02.079Z</time></trkpt><trkpt lat="43.0571683" lon="11.6154833"><ele>348.4</ele><time>2026-03-29T15:33:03.078Z</time></trkpt><trkpt lat="43.0571983" lon="11.6153667"><ele>348.2</ele><time>2026-03-29T15:33:04.079Z</time></trkpt><trkpt lat="43.0572183" lon="11.61524"><ele>348.0</ele><time>2026-03-29T15:33:05.079Z</time></trkpt><trkpt lat="43.05723" lon="11.6151183"><ele>347.5</ele><time>2026-03-29T15:33:06.079Z</time></trkpt><trkpt lat="43.0572367" lon="11.615015"><ele>347.0</ele><time>2026-03-29T15:33:07.079Z</time></trkpt><trkpt lat="43.05724" lon="11.61491"><ele>346.5</ele><time>2026-03-29T15:33:08.079Z</time></trkpt><trkpt lat="43.05725" lon="11.6148217"><ele>346.0</ele><time>2026-03-29T15:33:09.078Z</time></trkpt><trkpt lat="43.0572833" lon="11.6147217"><ele>345.5</ele><time>2026-03-29T15:33:11.079Z</time></trkpt><trkpt lat="43.0573545" lon="11.6146868"><ele>345.0</ele><time>2026-03-29T15:33:13.079Z</time></trkpt><trkpt lat="43.0574602" lon="11.6146539"><ele>347.0</ele><time>2026-03-29T15:33:15.079Z</time></trkpt><trkpt lat="43.0575334" lon="11.6146349"><ele>349.0</ele><time>2026-03-29T15:33:16.078Z</time></trkpt><trkpt lat="43.0576191" lon="11.6146132"><ele>351.0</ele><time>2026-03-29T15:33:17.079Z</time></trkpt><trkpt lat="43.0577054" lon="11.6145907"><ele>353.0</ele><time>2026-03-29T15:33:18.079Z</time></trkpt><trkpt lat="43.0577799" lon="11.6145742"><ele>355.0</ele><time>2026-03-29T15:33:19.079Z</time></trkpt><trkpt lat="43.0578665" lon="11.6145558"><ele>357.0</ele><time>2026-03-29T15:33:21.079Z</time></trkpt><trkpt lat="43.0579017" lon="11.6144683"><ele>357.25</ele><time>2026-03-29T15:33:23.078Z</time></trkpt><trkpt lat="43.0579417" lon="11.61428"><ele>357.5</ele><time>2026-03-29T15:33:25.078Z</time></trkpt><trkpt lat="43.0579483" lon="11.61416"><ele>357.75</ele><time>2026-03-29T15:33:26.079Z</time></trkpt><trkpt lat="43.0579567" lon="11.6140083"><ele>358.0</ele><time>2026-03-29T15:33:27.078Z</time></trkpt><trkpt lat="43.0579633" lon="11.6138433"><ele>358.0</ele><time>2026-03-29T15:33:28.079Z</time></trkpt><trkpt lat="43.05797" lon="11.6136617"><ele>358.0</ele><time>2026-03-29T15:33:29.079Z</time></trkpt><trkpt lat="43.0579667" lon="11.613455"><ele>358.0</ele><time>2026-03-29T15:33:30.079Z</time></trkpt><trkpt lat="43.0579733" lon="11.6132483"><ele>358.0</ele><time>2026-03-29T15:33:31.078Z</time></trkpt><trkpt lat="43.057975" lon="11.61304"><ele>358.5</ele><time>2026-03-29T15:33:32.078Z</time></trkpt><trkpt lat="43.0579683" lon="11.6128417"><ele>359.0</ele><time>2026-03-29T15:33:33.079Z</time></trkpt><trkpt lat="43.05797" lon="11.6126517"><ele>359.5</ele><time>2026-03-29T15:33:34.079Z</time></trkpt><trkpt lat="43.0579733" lon="11.6124617"><ele>360.0</ele><time>2026-03-29T15:33:35.079Z</time></trkpt><trkpt lat="43.0579767" lon="11.6122683"><ele>361.75</ele><time>2026-03-29T15:33:36.079Z</time></trkpt><trkpt lat="43.0579817" lon="11.6120783"><ele>363.5</ele><time>2026-03-29T15:33:37.078Z</time></trkpt><trkpt lat="43.0579917" lon="11.6118817"><ele>365.25</ele><time>2026-03-29T15:33:38.079Z</time></trkpt><trkpt lat="43.0580017" lon="11.6116883"><ele>367.0</ele><time>2026-03-29T15:33:39.079Z</time></trkpt><trkpt lat="43.0580083" lon="11.6114983"><ele>368.75</ele><time>2026-03-29T15:33:40.079Z</time></trkpt><trkpt lat="43.05801" lon="11.6113133"><ele>370.5</ele><time>2026-03-29T15:33:41.079Z</time></trkpt><trkpt lat="43.0580133" lon="11.6111317"><ele>372.25</ele><time>2026-03-29T15:33:42.079Z</time></trkpt><trkpt lat="43.0580267" lon="11.6109633"><ele>374.0</ele><time>2026-03-29T15:33:43.078Z</time></trkpt><trkpt lat="43.0580417" lon="11.61084"><ele>374.79999999999995</ele><time>2026-03-29T15:33:44.079Z</time></trkpt><trkpt lat="43.0580583" lon="11.6107117"><ele>375.59999999999997</ele><time>2026-03-29T15:33:46.079Z</time></trkpt><trkpt lat="43.05811" lon="11.610575"><ele>376.4</ele><time>2026-03-29T15:33:48.079Z</time></trkpt><trkpt lat="43.058175" lon="11.6104783"><ele>377.2</ele><time>2026-03-29T15:33:49.079Z</time></trkpt><trkpt lat="43.05825" lon="11.6103567"><ele>378.0</ele><time>2026-03-29T15:33:50.079Z</time></trkpt><trkpt lat="43.0583317" lon="11.61023"><ele>380.25</ele><time>2026-03-29T15:33:51.079Z</time></trkpt><trkpt lat="43.0584117" lon="11.6101117"><ele>382.5</ele><time>2026-03-29T15:33:52.079Z</time></trkpt><trkpt lat="43.0584883" lon="11.609985"><ele>384.75</ele><time>2026-03-29T15:33:53.079Z</time></trkpt><trkpt lat="43.05857" lon="11.60986"><ele>387.0</ele><time>2026-03-29T15:33:54.079Z</time></trkpt><trkpt lat="43.0586567" lon="11.6097233"><ele>387.0</ele><time>2026-03-29T15:33:55.079Z</time></trkpt><trkpt lat="43.0587383" lon="11.6095817"><ele>387.0</ele><time>2026-03-29T15:33:56.079Z</time></trkpt><trkpt lat="43.058815" lon="11.6094433"><ele>387.0</ele><time>2026-03-29T15:33:57.078Z</time></trkpt><trkpt lat="43.0588967" lon="11.6092967"><ele>387.0</ele><time>2026-03-29T15:33:58.079Z</time></trkpt><trkpt lat="43.05897" lon="11.609165"><ele>387.20000000000005</ele><time>2026-03-29T15:33:59.079Z</time></trkpt><trkpt lat="43.0590467" lon="11.6090483"><ele>387.4</ele><time>2026-03-29T15:34:00.079Z</time></trkpt><trkpt lat="43.059115" lon="11.60894"><ele>387.6</ele><time>2026-03-29T15:34:01.079Z</time></trkpt><trkpt lat="43.0591783" lon="11.6088617"><ele>387.79999999999995</ele><time>2026-03-29T15:34:02.079Z</time></trkpt><trkpt lat="43.0592317" lon="11.6088083"><ele>388.0</ele><time>2026-03-29T15:34:03.079Z</time></trkpt><trkpt lat="43.0593133" lon="11.60879"><ele>388.00000000000006</ele><time>2026-03-29T15:34:05.079Z</time></trkpt><trkpt lat="43.0593767" lon="11.6087683"><ele>388.0</ele><time>2026-03-29T15:34:08.079Z</time></trkpt><trkpt lat="43.0594267" lon="11.6086967"><ele>388.0</ele><time>2026-03-29T15:34:12.079Z</time></trkpt><trkpt lat="43.059545" lon="11.6086367"><ele>388.0</ele><time>2026-03-29T15:40:24.078Z</time></trkpt><trkpt lat="43.0595667" lon="11.6085433"><ele>388.00000000000006</ele><time>2026-03-29T15:40:26.078Z</time></trkpt><trkpt lat="43.05958" lon="11.6084217"><ele>388.0</ele><time>2026-03-29T15:40:28.079Z</time></trkpt><trkpt lat="43.0595783" lon="11.6083083"><ele>389.79999999999995</ele><time>2026-03-29T15:40:30.079Z</time></trkpt><trkpt lat="43.059625" lon="11.608195"><ele>391.6</ele><time>2026-03-29T15:40:32.079Z</time></trkpt><trkpt lat="43.05968" lon="11.60808"><ele>393.4</ele><time>2026-03-29T15:40:34.079Z</time></trkpt><trkpt lat="43.0597583" lon="11.607925"><ele>395.20000000000005</ele><time>2026-03-29T15:40:36.079Z</time></trkpt><trkpt lat="43.0598033" lon="11.6078383"><ele>397.0</ele><time>2026-03-29T15:40:37.078Z</time></trkpt><trkpt lat="43.0598583" lon="11.6077517"><ele>397.20000000000005</ele><time>2026-03-29T15:40:38.079Z</time></trkpt><trkpt lat="43.0599183" lon="11.60766"><ele>397.4</ele><time>2026-03-29T15:40:39.079Z</time></trkpt><trkpt lat="43.0599833" lon="11.6075583"><ele>397.6</ele><time>2026-03-29T15:40:40.079Z</time></trkpt><trkpt lat="43.060065" lon="11.60746"><ele>397.79999999999995</ele><time>2026-03-29T15:40:41.079Z</time></trkpt><trkpt lat="43.0601567" lon="11.6073717"><ele>398.0</ele><time>2026-03-29T15:40:42.079Z</time></trkpt><trkpt lat="43.06026" lon="11.6072983"><ele>398.0</ele><time>2026-03-29T15:40:43.079Z</time></trkpt><trkpt lat="43.060355" lon="11.607225"><ele>398.0</ele><time>2026-03-29T15:40:44.079Z</time></trkpt><trkpt lat="43.0604567" lon="11.6071483"><ele>398.0</ele><time>2026-03-29T15:40:45.079Z</time></trkpt><trkpt lat="43.0605517" lon="11.60706"><ele>398.0</ele><time>2026-03-29T15:40:46.079Z</time></trkpt><trkpt lat="43.06064" lon="11.6069717"><ele>398.0</ele><time>2026-03-29T15:40:47.079Z</time></trkpt><trkpt lat="43.0607267" lon="11.6068917"><ele>398.59999999999997</ele><time>2026-03-29T15:40:48.079Z</time></trkpt><trkpt lat="43.0608233" lon="11.6068233"><ele>399.2</ele><time>2026-03-29T15:40:49.078Z</time></trkpt><trkpt lat="43.06091" lon="11.6067933"><ele>399.8</ele><time>2026-03-29T15:40:50.079Z</time></trkpt><trkpt lat="43.060985" lon="11.6067983"><ele>400.4</ele><time>2026-03-29T15:40:51.078Z</time></trkpt><trkpt lat="43.0610867" lon="11.60685"><ele>401.0</ele><time>2026-03-29T15:40:53.079Z</time></trkpt><trkpt lat="43.0611333" lon="11.606935"><ele>400.25</ele><time>2026-03-29T15:40:54.078Z</time></trkpt><trkpt lat="43.0611883" lon="11.60704"><ele>399.5</ele><time>2026-03-29T15:40:55.079Z</time></trkpt><trkpt lat="43.06126" lon="11.6071667"><ele>398.75</ele><time>2026-03-29T15:40:56.078Z</time></trkpt><trkpt lat="43.0613383" lon="11.6073117"><ele>398.0</ele><time>2026-03-29T15:40:57.079Z</time></trkpt><trkpt lat="43.06142" lon="11.6074667"><ele>398.0</ele><time>2026-03-29T15:40:58.079Z</time></trkpt><trkpt lat="43.0615167" lon="11.6076267"><ele>398.0</ele><time>2026-03-29T15:40:59.079Z</time></trkpt><trkpt lat="43.0616167" lon="11.6077917"><ele>398.0</ele><time>2026-03-29T15:41:00.08Z</time></trkpt><trkpt lat="43.061725" lon="11.60797"><ele>400.3333333333333</ele><time>2026-03-29T15:41:01.08Z</time></trkpt><trkpt lat="43.0618417" lon="11.608135"><ele>402.66666666666663</ele><time>2026-03-29T15:41:02.08Z</time></trkpt><trkpt lat="43.0619633" lon="11.60831"><ele>405.0</ele><time>2026-03-29T15:41:03.08Z</time></trkpt><trkpt lat="43.0620867" lon="11.6084767"><ele>405.0</ele><time>2026-03-29T15:41:04.08Z</time></trkpt><trkpt lat="43.0622083" lon="11.6086567"><ele>405.0</ele><time>2026-03-29T15:41:05.08Z</time></trkpt><trkpt lat="43.0623317" lon="11.6088367"><ele>405.0</ele><time>2026-03-29T15:41:06.079Z</time></trkpt><trkpt lat="43.0624617" lon="11.6090133"><ele>407.33333333333337</ele><time>2026-03-29T15:41:07.08Z</time></trkpt><trkpt lat="43.0625983" lon="11.6091917"><ele>409.6666666666667</ele><time>2026-03-29T15:41:08.08Z</time></trkpt><trkpt lat="43.0627417" lon="11.609365"><ele>412.0</ele><time>2026-03-29T15:41:09.08Z</time></trkpt><trkpt lat="43.0628817" lon="11.6095367"><ele>412.0</ele><time>2026-03-29T15:41:10.08Z</time></trkpt><trkpt lat="43.0630267" lon="11.609675"><ele>412.0</ele><time>2026-03-29T15:41:11.079Z</time></trkpt><trkpt lat="43.0631817" lon="11.6097967"><ele>412.0</ele><time>2026-03-29T15:41:12.079Z</time></trkpt><trkpt lat="43.0633433" lon="11.6099117"><ele>413.0</ele><time>2026-03-29T15:41:13.08Z</time></trkpt><trkpt lat="43.0635017" lon="11.6100183"><ele>414.0</ele><time>2026-03-29T15:41:14.08Z</time></trkpt><trkpt lat="43.0636617" lon="11.6101183"><ele>415.0</ele><time>2026-03-29T15:41:15.08Z</time></trkpt><trkpt lat="43.0638283" lon="11.6102167"><ele>410.0</ele><time>2026-03-29T15:41:16.08Z</time></trkpt><trkpt lat="43.06399" lon="11.6103283"><ele>405.0</ele><time>2026-03-29T15:41:17.079Z</time></trkpt><trkpt lat="43.06415" lon="11.61045"><ele>400.0</ele><time>2026-03-29T15:41:18.079Z</time></trkpt><trkpt lat="43.0643033" lon="11.610565"><ele>400.0</ele><time>2026-03-29T15:41:19.08Z</time></trkpt><trkpt lat="43.0644483" lon="11.61068"><ele>400.0</ele><time>2026-03-29T15:41:20.08Z</time></trkpt><trkpt lat="43.064585" lon="11.6107933"><ele>400.0</ele><time>2026-03-29T15:41:21.08Z</time></trkpt><trkpt lat="43.064705" lon="11.6109033"><ele>400.0</ele><time>2026-03-29T15:41:22.08Z</time></trkpt><trkpt lat="43.0648217" lon="11.611035"><ele>400.0</ele><time>2026-03-29T15:41:23.08Z</time></trkpt><trkpt lat="43.0649317" lon="11.61118"><ele>400.0</ele><time>2026-03-29T15:41:24.08Z</time></trkpt><trkpt lat="43.06504" lon="11.6113417"><ele>401.0</ele><time>2026-03-29T15:41:25.079Z</time></trkpt><trkpt lat="43.0651433" lon="11.61152"><ele>402.0</ele><time>2026-03-29T15:41:26.079Z</time></trkpt><trkpt lat="43.0652283" lon="11.6117233"><ele>403.0</ele><time>2026-03-29T15:41:27.08Z</time></trkpt><trkpt lat="43.065315" lon="11.6119283"><ele>401.6666666666667</ele><time>2026-03-29T15:41:28.08Z</time></trkpt><trkpt lat="43.0653933" lon="11.612145"><ele>400.33333333333337</ele><time>2026-03-29T15:41:29.079Z</time></trkpt><trkpt lat="43.0654683" lon="11.6123567"><ele>399.0</ele><time>2026-03-29T15:41:30.08Z</time></trkpt><trkpt lat="43.0655433" lon="11.6125733"><ele>399.0</ele><time>2026-03-29T15:41:31.079Z</time></trkpt><trkpt lat="43.0656267" lon="11.6127917"><ele>399.0</ele><time>2026-03-29T15:41:32.079Z</time></trkpt><trkpt lat="43.0657133" lon="11.6130133"><ele>399.0</ele><time>2026-03-29T15:41:33.08Z</time></trkpt><trkpt lat="43.0658033" lon="11.6132333"><ele>399.33333333333337</ele><time>2026-03-29T15:41:34.079Z</time></trkpt><trkpt lat="43.065885" lon="11.61346"><ele>399.6666666666667</ele><time>2026-03-29T15:41:35.08Z</time></trkpt><trkpt lat="43.065975" lon="11.6136667"><ele>400.0</ele><time>2026-03-29T15:41:36.079Z</time></trkpt><trkpt lat="43.066085" lon="11.6138533"><ele>400.0</ele><time>2026-03-29T15:41:37.08Z</time></trkpt><trkpt lat="43.0662" lon="11.6140367"><ele>400.0</ele><time>2026-03-29T15:41:38.08Z</time></trkpt><trkpt lat="43.06633" lon="11.6142067"><ele>400.0</ele><time>2026-03-29T15:41:39.08Z</time></trkpt><trkpt lat="43.0664767" lon="11.614345"><ele>399.0</ele><time>2026-03-29T15:41:40.079Z</time></trkpt><trkpt lat="43.06664" lon="11.6144617"><ele>398.0</ele><time>2026-03-29T15:41:41.08Z</time></trkpt><trkpt lat="43.06682" lon="11.6145683"><ele>397.0</ele><time>2026-03-29T15:41:42.08Z</time></trkpt><trkpt lat="43.0669983" lon="11.6146467"><ele>397.0</ele><time>2026-03-29T15:41:43.08Z</time></trkpt><trkpt lat="43.067185" lon="11.6147133"><ele>397.0</ele><time>2026-03-29T15:41:44.079Z</time></trkpt><trkpt lat="43.0673633" lon="11.6147867"><ele>397.0</ele><time>2026-03-29T15:41:45.08Z</time></trkpt><trkpt lat="43.06754" lon="11.6148533"><ele>396.6666666666667</ele><time>2026-03-29T15:41:46.079Z</time></trkpt><trkpt lat="43.0677067" lon="11.6149133"><ele>396.33333333333337</ele><time>2026-03-29T15:41:47.08Z</time></trkpt><trkpt lat="43.06786" lon="11.614965"><ele>396.0</ele><time>2026-03-29T15:41:48.08Z</time></trkpt><trkpt lat="43.0680067" lon="11.6150183"><ele>396.0</ele><time>2026-03-29T15:41:49.08Z</time></trkpt><trkpt lat="43.0681433" lon="11.6150683"><ele>396.0</ele><time>2026-03-29T15:41:50.08Z</time></trkpt><trkpt lat="43.0682583" lon="11.6151083"><ele>396.0</ele><time>2026-03-29T15:41:51.08Z</time></trkpt><trkpt lat="43.0683583" lon="11.6151467"><ele>396.0</ele><time>2026-03-29T15:41:52.079Z</time></trkpt><trkpt lat="43.06844" lon="11.6151817"><ele>395.4</ele><time>2026-03-29T15:41:53.08Z</time></trkpt><trkpt lat="43.0685083" lon="11.615195"><ele>394.8</ele><time>2026-03-29T15:41:54.08Z</time></trkpt><trkpt lat="43.0685983" lon="11.61517"><ele>394.2</ele><time>2026-03-29T15:41:56.079Z</time></trkpt><trkpt lat="43.0686517" lon="11.6150433"><ele>393.59999999999997</ele><time>2026-03-29T15:41:58.08Z</time></trkpt><trkpt lat="43.0686667" lon="11.6148633"><ele>393.0</ele><time>2026-03-29T15:42:00.08Z</time></trkpt><trkpt lat="43.06867" lon="11.61475"><ele>393.0</ele><time>2026-03-29T15:42:01.079Z</time></trkpt><trkpt lat="43.068675" lon="11.6146233"><ele>393.0</ele><time>2026-03-29T15:42:02.08Z</time></trkpt><trkpt lat="43.0686833" lon="11.6144817"><ele>393.0</ele><time>2026-03-29T15:42:03.079Z</time></trkpt><trkpt lat="43.0686983" lon="11.614345"><ele>393.0</ele><time>2026-03-29T15:42:04.08Z</time></trkpt><trkpt lat="43.0687183" lon="11.6142233"><ele>393.0</ele><time>2026-03-29T15:42:05.08Z</time></trkpt><trkpt lat="43.06875" lon="11.6141083"><ele>393.4</ele><time>2026-03-29T15:42:06.08Z</time></trkpt><trkpt lat="43.0688017" lon="11.6140017"><ele>393.79999999999995</ele><time>2026-03-29T15:42:07.079Z</time></trkpt><trkpt lat="43.068875" lon="11.613905"><ele>394.2</ele><time>2026-03-29T15:42:08.079Z</time></trkpt><trkpt lat="43.068965" lon="11.6138267"><ele>394.6</ele><time>2026-03-29T15:42:09.08Z</time></trkpt><trkpt lat="43.06907" lon="11.6137683"><ele>395.0</ele><time>2026-03-29T15:42:10.08Z</time></trkpt><trkpt lat="43.0691667" lon="11.6137117"><ele>396.0</ele><time>2026-03-29T15:42:11.08Z</time></trkpt><trkpt lat="43.06925" lon="11.6136483"><ele>397.0</ele><time>2026-03-29T15:42:12.08Z</time></trkpt><trkpt lat="43.0693033" lon="11.6135567"><ele>398.0</ele><time>2026-03-29T15:42:13.079Z</time></trkpt><trkpt lat="43.06935" lon="11.6134483"><ele>399.0</ele><time>2026-03-29T15:42:14.08Z</time></trkpt><trkpt lat="43.0693883" lon="11.6133183"><ele>400.0</ele><time>2026-03-29T15:42:15.079Z</time></trkpt><trkpt lat="43.0694305" lon="11.6131704"><ele>400.0</ele><time>2026-03-29T15:42:16.079Z</time></trkpt><trkpt lat="43.0694747" lon="11.6130139"><ele>400.0</ele><time>2026-03-29T15:42:17.08Z</time></trkpt><trkpt lat="43.0695197" lon="11.6128592"><ele>400.0</ele><time>2026-03-29T15:42:18.079Z</time></trkpt><trkpt lat="43.0695795" lon="11.6127255"><ele>400.0</ele><time>2026-03-29T15:42:19.079Z</time></trkpt><trkpt lat="43.0696449" lon="11.6126095"><ele>401.25</ele><time>2026-03-29T15:42:20.08Z</time></trkpt><trkpt lat="43.0697192" lon="11.6124906"><ele>402.5</ele><time>2026-03-29T15:42:21.08Z</time></trkpt><trkpt lat="43.069777" lon="11.6123694"><ele>403.75</ele><time>2026-03-29T15:42:22.08Z</time></trkpt><trkpt lat="43.0698175" lon="11.6122244"><ele>405.0</ele><time>2026-03-29T15:42:23.079Z</time></trkpt><trkpt lat="43.0698404" lon="11.612043"><ele>406.0</ele><time>2026-03-29T15:42:24.08Z</time></trkpt><trkpt lat="43.06985" lon="11.6118412"><ele>407.0</ele><time>2026-03-29T15:42:25.08Z</time></trkpt><trkpt lat="43.0698447" lon="11.6116025"><ele>408.0</ele><time>2026-03-29T15:42:26.08Z</time></trkpt><trkpt lat="43.0698356" lon="11.6113554"><ele>406.5</ele><time>2026-03-29T15:42:27.079Z</time></trkpt><trkpt lat="43.0698349" lon="11.6111309"><ele>405.0</ele><time>2026-03-29T15:42:28.08Z</time></trkpt><trkpt lat="43.069845" lon="11.6109342"><ele>403.5</ele><time>2026-03-29T15:42:29.08Z</time></trkpt><trkpt lat="43.0698619" lon="11.6107614"><ele>402.0</ele><time>2026-03-29T15:42:30.08Z</time></trkpt><trkpt lat="43.0698998" lon="11.6106151"><ele>400.75</ele><time>2026-03-29T15:42:31.079Z</time></trkpt><trkpt lat="43.0699645" lon="11.6104968"><ele>399.5</ele><time>2026-03-29T15:42:32.08Z</time></trkpt><trkpt lat="43.0700804" lon="11.6104117"><ele>398.25</ele><time>2026-03-29T15:42:33.08Z</time></trkpt><trkpt lat="43.0701825" lon="11.610311"><ele>397.0</ele><time>2026-03-29T15:42:34.08Z</time></trkpt><trkpt lat="43.0702808" lon="11.6101841"><ele>397.0</ele><time>2026-03-29T15:42:35.079Z</time></trkpt><trkpt lat="43.0703733" lon="11.6100208"><ele>397.0</ele><time>2026-03-29T15:42:36.08Z</time></trkpt><trkpt lat="43.0704628" lon="11.6098419"><ele>397.0</ele><time>2026-03-29T15:42:37.08Z</time></trkpt><trkpt lat="43.0705672" lon="11.6096606"><ele>395.5</ele><time>2026-03-29T15:42:38.079Z</time></trkpt><trkpt lat="43.070676" lon="11.6094531"><ele>394.0</ele><time>2026-03-29T15:42:39.079Z</time></trkpt><trkpt lat="43.070888" lon="11.6089632"><ele>389.0</ele><time>2026-03-29T15:42:41.08Z</time></trkpt><trkpt lat="43.0710083" lon="11.6087014"><ele>384.0</ele><time>2026-03-29T15:42:42.08Z</time></trkpt><trkpt lat="43.0711374" lon="11.6084499"><ele>383.3333333333333</ele><time>2026-03-29T15:42:43.08Z</time></trkpt><trkpt lat="43.0712583" lon="11.6082251"><ele>382.66666666666663</ele><time>2026-03-29T15:42:44.08Z</time></trkpt><trkpt lat="43.0713663" lon="11.6080291"><ele>382.0</ele><time>2026-03-29T15:42:45.079Z</time></trkpt><trkpt lat="43.0714673" lon="11.6078727"><ele>381.5</ele><time>2026-03-29T15:42:46.08Z</time></trkpt><trkpt lat="43.071562" lon="11.6077573"><ele>381.0</ele><time>2026-03-29T15:42:47.08Z</time></trkpt><trkpt lat="43.0716598" lon="11.6076849"><ele>380.5</ele><time>2026-03-29T15:42:48.08Z</time></trkpt><trkpt lat="43.0717609" lon="11.6076225"><ele>380.0</ele><time>2026-03-29T15:42:49.08Z</time></trkpt><trkpt lat="43.0718623" lon="11.607516"><ele>380.0</ele><time>2026-03-29T15:42:50.08Z</time></trkpt><trkpt lat="43.0719633" lon="11.6073778"><ele>380.0</ele><time>2026-03-29T15:42:51.079Z</time></trkpt><trkpt lat="43.0720601" lon="11.6072225"><ele>380.0</ele><time>2026-03-29T15:42:52.08Z</time></trkpt><trkpt lat="43.0721678" lon="11.6070854"><ele>380.0</ele><time>2026-03-29T15:42:53.08Z</time></trkpt><trkpt lat="43.0722809" lon="11.6069768"><ele>379.5</ele><time>2026-03-29T15:42:54.08Z</time></trkpt><trkpt lat="43.0724114" lon="11.6068972"><ele>379.0</ele><time>2026-03-29T15:42:55.079Z</time></trkpt><trkpt lat="43.0725496" lon="11.6068299"><ele>378.5</ele><time>2026-03-29T15:42:56.079Z</time></trkpt><trkpt lat="43.0726738" lon="11.6067334"><ele>378.0</ele><time>2026-03-29T15:42:57.079Z</time></trkpt><trkpt lat="43.0727946" lon="11.606609"><ele>376.25</ele><time>2026-03-29T15:42:58.079Z</time></trkpt><trkpt lat="43.072914" lon="11.6064792"><ele>374.5</ele><time>2026-03-29T15:42:59.08Z</time></trkpt><trkpt lat="43.0730273" lon="11.606382"><ele>372.75</ele><time>2026-03-29T15:43:00.08Z</time></trkpt><trkpt lat="43.0731227" lon="11.6063062"><ele>371.0</ele><time>2026-03-29T15:43:01.08Z</time></trkpt><trkpt lat="43.0732079" lon="11.6062129"><ele>368.5</ele><time>2026-03-29T15:43:02.08Z</time></trkpt><trkpt lat="43.0732765" lon="11.6060877"><ele>366.0</ele><time>2026-03-29T15:43:03.079Z</time></trkpt><trkpt lat="43.0733401" lon="11.6059241"><ele>363.5</ele><time>2026-03-29T15:43:04.079Z</time></trkpt><trkpt lat="43.0734036" lon="11.6057447"><ele>361.0</ele><time>2026-03-29T15:43:05.08Z</time></trkpt><trkpt lat="43.0734662" lon="11.6055681"><ele>361.0</ele><time>2026-03-29T15:43:06.08Z</time></trkpt><trkpt lat="43.0735325" lon="11.6054103"><ele>361.0</ele><time>2026-03-29T15:43:07.08Z</time></trkpt><trkpt lat="43.073595" lon="11.6052671"><ele>361.0</ele><time>2026-03-29T15:43:08.08Z</time></trkpt><trkpt lat="43.0736521" lon="11.6051424"><ele>361.0</ele><time>2026-03-29T15:43:09.08Z</time></trkpt><trkpt lat="43.0737059" lon="11.6050357"><ele>360.3333333333333</ele><time>2026-03-29T15:43:10.08Z</time></trkpt><trkpt lat="43.0737585" lon="11.6049438"><ele>359.66666666666663</ele><time>2026-03-29T15:43:11.079Z</time></trkpt><trkpt lat="43.0738151" lon="11.6048595"><ele>359.0</ele><time>2026-03-29T15:43:12.08Z</time></trkpt><trkpt lat="43.0738798" lon="11.6047793"><ele>358.3333333333333</ele><time>2026-03-29T15:43:13.08Z</time></trkpt><trkpt lat="43.0739542" lon="11.6047092"><ele>357.6666666666667</ele><time>2026-03-29T15:43:14.08Z</time></trkpt><trkpt lat="43.0740389" lon="11.604651"><ele>357.0</ele><time>2026-03-29T15:43:15.08Z</time></trkpt><trkpt lat="43.0741298" lon="11.6046066"><ele>355.6</ele><time>2026-03-29T15:43:16.079Z</time></trkpt><trkpt lat="43.0742237" lon="11.6045726"><ele>354.20000000000005</ele><time>2026-03-29T15:43:17.08Z</time></trkpt><trkpt lat="43.0743196" lon="11.6045363"><ele>352.8</ele><time>2026-03-29T15:43:18.08Z</time></trkpt><trkpt lat="43.0744205" lon="11.60449"><ele>351.4</ele><time>2026-03-29T15:43:19.08Z</time></trkpt><trkpt lat="43.074504" lon="11.6044247"><ele>350.0</ele><time>2026-03-29T15:43:20.08Z</time></trkpt><trkpt lat="43.0745755" lon="11.604341"><ele>349.6666666666667</ele><time>2026-03-29T15:43:21.08Z</time></trkpt><trkpt lat="43.07462" lon="11.6042217"><ele>349.33333333333337</ele><time>2026-03-29T15:43:22.08Z</time></trkpt><trkpt lat="43.074665" lon="11.6041133"><ele>349.0</ele><time>2026-03-29T15:43:23.08Z</time></trkpt><trkpt lat="43.074705" lon="11.604005"><ele>348.6666666666667</ele><time>2026-03-29T15:43:24.08Z</time></trkpt><trkpt lat="43.0747433" lon="11.6039017"><ele>348.3333333333333</ele><time>2026-03-29T15:43:25.08Z</time></trkpt><trkpt lat="43.0747767" lon="11.6038183"><ele>348.0</ele><time>2026-03-29T15:43:26.08Z</time></trkpt><trkpt lat="43.074825" lon="11.6037567"><ele>348.0</ele><time>2026-03-29T15:43:27.08Z</time></trkpt><trkpt lat="43.07488" lon="11.6037083"><ele>348.0</ele><time>2026-03-29T15:43:28.08Z</time></trkpt><trkpt lat="43.0749467" lon="11.6036883"><ele>348.0</ele><time>2026-03-29T15:43:29.08Z</time></trkpt><trkpt lat="43.07507" lon="11.6036233"><ele>348.0</ele><time>2026-03-29T15:43:31.08Z</time></trkpt><trkpt lat="43.075135" lon="11.6035733"><ele>348.0</ele><time>2026-03-29T15:43:32.079Z</time></trkpt><trkpt lat="43.0751883" lon="11.6035083"><ele>348.0</ele><time>2026-03-29T15:43:33.08Z</time></trkpt><trkpt lat="43.0752333" lon="11.60344"><ele>347.57142857142856</ele><time>2026-03-29T15:43:34.08Z</time></trkpt><trkpt lat="43.075275" lon="11.6033683"><ele>347.14285714285717</ele><time>2026-03-29T15:43:35.08Z</time></trkpt><trkpt lat="43.07531" lon="11.6032917"><ele>346.7142857142857</ele><time>2026-03-29T15:43:36.079Z</time></trkpt><trkpt lat="43.0753517" lon="11.6032133"><ele>346.2857142857143</ele><time>2026-03-29T15:43:37.08Z</time></trkpt><trkpt lat="43.07539" lon="11.6031417"><ele>345.85714285714283</ele><time>2026-03-29T15:43:38.079Z</time></trkpt><trkpt lat="43.075425" lon="11.6030683"><ele>345.42857142857144</ele><time>2026-03-29T15:43:39.08Z</time></trkpt><trkpt lat="43.0754667" lon="11.603"><ele>345.0</ele><time>2026-03-29T15:43:40.079Z</time></trkpt><trkpt lat="43.0755133" lon="11.60293"><ele>345.0</ele><time>2026-03-29T15:43:41.08Z</time></trkpt><trkpt lat="43.0755617" lon="11.6028617"><ele>345.0</ele><time>2026-03-29T15:43:42.08Z</time></trkpt><trkpt lat="43.0756133" lon="11.6028067"><ele>345.0</ele><time>2026-03-29T15:43:43.079Z</time></trkpt><trkpt lat="43.0756733" lon="11.6027567"><ele>345.0</ele><time>2026-03-29T15:43:44.08Z</time></trkpt><trkpt lat="43.0757433" lon="11.6027183"><ele>345.0</ele><time>2026-03-29T15:43:45.08Z</time></trkpt><trkpt lat="43.07581" lon="11.602685"><ele>345.0</ele><time>2026-03-29T15:43:46.08Z</time></trkpt><trkpt lat="43.07588" lon="11.6026517"><ele>345.0</ele><time>2026-03-29T15:43:47.08Z</time></trkpt><trkpt lat="43.0759483" lon="11.6026183"><ele>343.8333333333333</ele><time>2026-03-29T15:43:48.08Z</time></trkpt><trkpt lat="43.07601" lon="11.6025667"><ele>342.6666666666667</ele><time>2026-03-29T15:43:49.079Z</time></trkpt><trkpt lat="43.0760617" lon="11.6024983"><ele>341.5</ele><time>2026-03-29T15:43:50.079Z</time></trkpt><trkpt lat="43.0760917" lon="11.6024067"><ele>340.33333333333337</ele><time>2026-03-29T15:43:51.079Z</time></trkpt><trkpt lat="43.076105" lon="11.6023033"><ele>339.1666666666667</ele><time>2026-03-29T15:43:52.08Z</time></trkpt><trkpt lat="43.0760883" lon="11.60217"><ele>338.0</ele><time>2026-03-29T15:43:53.08Z</time></trkpt><trkpt lat="43.076075" lon="11.6020133"><ele>337.33333333333337</ele><time>2026-03-29T15:43:54.079Z</time></trkpt><trkpt lat="43.0760717" lon="11.60188"><ele>336.6666666666667</ele><time>2026-03-29T15:43:55.08Z</time></trkpt><trkpt lat="43.0760783" lon="11.60175"><ele>336.0</ele><time>2026-03-29T15:43:56.08Z</time></trkpt><trkpt lat="43.0761067" lon="11.6016333"><ele>335.3333333333333</ele><time>2026-03-29T15:43:57.08Z</time></trkpt><trkpt lat="43.076135" lon="11.6015317"><ele>334.66666666666663</ele><time>2026-03-29T15:43:58.08Z</time></trkpt><trkpt lat="43.07617" lon="11.6014417"><ele>334.0</ele><time>2026-03-29T15:43:59.08Z</time></trkpt><trkpt lat="43.0761983" lon="11.6013583"><ele>334.0</ele><time>2026-03-29T15:44:00.079Z</time></trkpt><trkpt lat="43.0762283" lon="11.6012783"><ele>334.0</ele><time>2026-03-29T15:44:01.079Z</time></trkpt><trkpt lat="43.0762733" lon="11.6011567"><ele>334.0</ele><time>2026-03-29T15:44:03.08Z</time></trkpt><trkpt lat="43.0763133" lon="11.601055"><ele>334.0</ele><time>2026-03-29T15:44:06.08Z</time></trkpt><trkpt lat="43.0763483" lon="11.6009367"><ele>334.0</ele><time>2026-03-29T15:44:09.079Z</time></trkpt><trkpt lat="43.0763987" lon="11.6008123"><ele>334.0</ele><time>2026-03-29T15:44:12.08Z</time></trkpt><trkpt lat="43.0764396" lon="11.6007259"><ele>333.0</ele><time>2026-03-29T15:44:13.079Z</time></trkpt><trkpt lat="43.0764815" lon="11.6006331"><ele>332.0</ele><time>2026-03-29T15:44:14.08Z</time></trkpt><trkpt lat="43.0765218" lon="11.6005487"><ele>331.0</ele><time>2026-03-29T15:44:15.08Z</time></trkpt><trkpt lat="43.0765801" lon="11.6004546"><ele>330.0</ele><time>2026-03-29T15:44:17.08Z</time></trkpt><trkpt lat="43.0766288" lon="11.6003772"><ele>329.0</ele><time>2026-03-29T15:44:20.079Z</time></trkpt><trkpt lat="43.0766708" lon="11.6002941"><ele>328.0</ele><time>2026-03-29T15:44:22.08Z</time></trkpt><trkpt lat="43.076781" lon="11.6001561"><ele>325.4</ele><time>2026-03-29T15:44:26.08Z</time></trkpt><trkpt lat="43.0768289" lon="11.6000564"><ele>322.79999999999995</ele><time>2026-03-29T15:44:27.08Z</time></trkpt><trkpt lat="43.0768826" lon="11.5999531"><ele>320.2</ele><time>2026-03-29T15:44:28.08Z</time></trkpt><trkpt lat="43.0769318" lon="11.599843"><ele>317.6</ele><time>2026-03-29T15:44:29.08Z</time></trkpt><trkpt lat="43.0769662" lon="11.5997297"><ele>315.0</ele><time>2026-03-29T15:44:30.08Z</time></trkpt><trkpt lat="43.0769818" lon="11.5996114"><ele>314.0</ele><time>2026-03-29T15:44:31.079Z</time></trkpt><trkpt lat="43.0769808" lon="11.5994845"><ele>313.0</ele><time>2026-03-29T15:44:32.08Z</time></trkpt><trkpt lat="43.0769704" lon="11.5993381"><ele>312.0</ele><time>2026-03-29T15:44:33.079Z</time></trkpt><trkpt lat="43.0769607" lon="11.5991883"><ele>311.0</ele><time>2026-03-29T15:44:34.08Z</time></trkpt><trkpt lat="43.0769628" lon="11.5990414"><ele>310.0</ele><time>2026-03-29T15:44:35.079Z</time></trkpt><trkpt lat="43.0769827" lon="11.598929"><ele>310.0</ele><time>2026-03-29T15:44:36.08Z</time></trkpt><trkpt lat="43.0770295" lon="11.5988458"><ele>310.0</ele><time>2026-03-29T15:44:37.08Z</time></trkpt><trkpt lat="43.077084" lon="11.5987624"><ele>310.0</ele><time>2026-03-29T15:44:38.08Z</time></trkpt><trkpt lat="43.0771844" lon="11.598706"><ele>310.0</ele><time>2026-03-29T15:44:39.08Z</time></trkpt><trkpt lat="43.0772709" lon="11.5986302"><ele>310.0</ele><time>2026-03-29T15:44:40.08Z</time></trkpt><trkpt lat="43.0773736" lon="11.598564"><ele>308.25</ele><time>2026-03-29T15:44:41.08Z</time></trkpt><trkpt lat="43.0774797" lon="11.5984923"><ele>306.5</ele><time>2026-03-29T15:44:42.079Z</time></trkpt><trkpt lat="43.0775812" lon="11.5984046"><ele>304.75</ele><time>2026-03-29T15:44:43.079Z</time></trkpt><trkpt lat="43.0776849" lon="11.598298"><ele>303.0</ele><time>2026-03-29T15:44:44.079Z</time></trkpt><trkpt lat="43.0777707" lon="11.5981923"><ele>303.0</ele><time>2026-03-29T15:44:45.08Z</time></trkpt><trkpt lat="43.0778525" lon="11.5980877"><ele>303.0</ele><time>2026-03-29T15:44:46.08Z</time></trkpt><trkpt lat="43.0779335" lon="11.5979747"><ele>303.0</ele><time>2026-03-29T15:44:47.08Z</time></trkpt><trkpt lat="43.0780146" lon="11.5978496"><ele>303.0</ele><time>2026-03-29T15:44:48.079Z</time></trkpt><trkpt lat="43.0780937" lon="11.5977256"><ele>302.3333333333333</ele><time>2026-03-29T15:44:49.079Z</time></trkpt><trkpt lat="43.0781709" lon="11.5976174"><ele>301.6666666666667</ele><time>2026-03-29T15:44:50.08Z</time></trkpt><trkpt lat="43.0782425" lon="11.5975204"><ele>301.0</ele><time>2026-03-29T15:44:51.08Z</time></trkpt><trkpt lat="43.0782993" lon="11.5974371"><ele>300.33333333333337</ele><time>2026-03-29T15:44:52.079Z</time></trkpt><trkpt lat="43.0783389" lon="11.5973628"><ele>299.6666666666667</ele><time>2026-03-29T15:44:53.08Z</time></trkpt><trkpt lat="43.0783638" lon="11.5972823"><ele>299.0</ele><time>2026-03-29T15:44:54.08Z</time></trkpt><trkpt lat="43.0783675" lon="11.5971901"><ele>299.0</ele><time>2026-03-29T15:44:55.08Z</time></trkpt><trkpt lat="43.0783577" lon="11.5970732"><ele>299.0</ele><time>2026-03-29T15:44:56.08Z</time></trkpt><trkpt lat="43.0783363" lon="11.5969282"><ele>299.0</ele><time>2026-03-29T15:44:57.079Z</time></trkpt><trkpt lat="43.0783163" lon="11.5967687"><ele>299.0</ele><time>2026-03-29T15:44:58.08Z</time></trkpt><trkpt lat="43.0783023" lon="11.5966049"><ele>299.0</ele><time>2026-03-29T15:44:59.08Z</time></trkpt><trkpt lat="43.0782901" lon="11.5964464"><ele>296.75</ele><time>2026-03-29T15:45:00.08Z</time></trkpt><trkpt lat="43.0782867" lon="11.596285"><ele>294.5</ele><time>2026-03-29T15:45:01.08Z</time></trkpt><trkpt lat="43.0783017" lon="11.59614"><ele>292.25</ele><time>2026-03-29T15:45:02.08Z</time></trkpt><trkpt lat="43.0783217" lon="11.5959783"><ele>290.0</ele><time>2026-03-29T15:45:03.08Z</time></trkpt><trkpt lat="43.0783517" lon="11.5958183"><ele>287.75</ele><time>2026-03-29T15:45:04.08Z</time></trkpt><trkpt lat="43.0783867" lon="11.595645"><ele>285.5</ele><time>2026-03-29T15:45:05.08Z</time></trkpt><trkpt lat="43.07841" lon="11.59548"><ele>283.25</ele><time>2026-03-29T15:45:06.08Z</time></trkpt><trkpt lat="43.0784167" lon="11.5953117"><ele>281.0</ele><time>2026-03-29T15:45:07.08Z</time></trkpt><trkpt lat="43.0784083" lon="11.595135"><ele>279.0</ele><time>2026-03-29T15:45:08.079Z</time></trkpt><trkpt lat="43.0784167" lon="11.594965"><ele>277.0</ele><time>2026-03-29T15:45:09.08Z</time></trkpt><trkpt lat="43.078415" lon="11.5948067"><ele>275.0</ele><time>2026-03-29T15:45:10.08Z</time></trkpt><trkpt lat="43.0784167" lon="11.5946617"><ele>273.0</ele><time>2026-03-29T15:45:11.079Z</time></trkpt><trkpt lat="43.0784233" lon="11.5945233"><ele>271.0</ele><time>2026-03-29T15:45:12.08Z</time></trkpt><trkpt lat="43.0784267" lon="11.594395"><ele>270.16666666666663</ele><time>2026-03-29T15:45:13.08Z</time></trkpt><trkpt lat="43.07844" lon="11.59429"><ele>269.3333333333333</ele><time>2026-03-29T15:45:14.08Z</time></trkpt><trkpt lat="43.07844" lon="11.5942033"><ele>268.5</ele><time>2026-03-29T15:45:15.08Z</time></trkpt><trkpt lat="43.0784167" lon="11.5940817"><ele>267.6666666666667</ele><time>2026-03-29T15:45:17.079Z</time></trkpt><trkpt lat="43.0783954" lon="11.5939957"><ele>266.83333333333337</ele><time>2026-03-29T15:45:19.079Z</time></trkpt><trkpt lat="43.0783622" lon="11.5939071"><ele>266.0</ele><time>2026-03-29T15:45:21.08Z</time></trkpt><trkpt lat="43.078311" lon="11.5938072"><ele>266.0</ele><time>2026-03-29T15:45:23.08Z</time></trkpt><trkpt lat="43.0782783" lon="11.5937133"><ele>266.0</ele><time>2026-03-29T15:45:25.079Z</time></trkpt><trkpt lat="43.078275" lon="11.5936267"><ele>266.0</ele><time>2026-03-29T15:45:27.079Z</time></trkpt><trkpt lat="43.0782767" lon="11.59351"><ele>266.0</ele><time>2026-03-29T15:45:29.08Z</time></trkpt><trkpt lat="43.078275" lon="11.5934067"><ele>266.0</ele><time>2026-03-29T15:45:31.08Z</time></trkpt><trkpt lat="43.07828" lon="11.5933117"><ele>266.0</ele><time>2026-03-29T15:45:33.079Z</time></trkpt><trkpt lat="43.0783217" lon="11.5932217"><ele>266.0</ele><time>2026-03-29T15:45:36.08Z</time></trkpt><trkpt lat="43.0784083" lon="11.5931733"><ele>266.0</ele><time>2026-03-29T15:45:54.08Z</time></trkpt><trkpt lat="43.0785233" lon="11.593165"><ele>266.0</ele><time>2026-03-29T15:45:56.079Z</time></trkpt><trkpt lat="43.0786183" lon="11.59318"><ele>266.0</ele><time>2026-03-29T15:45:57.08Z</time></trkpt><trkpt lat="43.0787267" lon="11.5931917"><ele>266.0</ele><time>2026-03-29T15:45:58.08Z</time></trkpt><trkpt lat="43.078825" lon="11.5931983"><ele>266.0</ele><time>2026-03-29T15:45:59.08Z</time></trkpt><trkpt lat="43.07892" lon="11.5931883"><ele>266.0</ele><time>2026-03-29T15:46:00.08Z</time></trkpt><trkpt lat="43.0790317" lon="11.593175"><ele>266.0</ele><time>2026-03-29T15:46:01.08Z</time></trkpt><trkpt lat="43.07914" lon="11.593145"><ele>266.0</ele><time>2026-03-29T15:46:02.08Z</time></trkpt><trkpt lat="43.079225" lon="11.593105"><ele>266.0</ele><time>2026-03-29T15:46:03.08Z</time></trkpt><trkpt lat="43.079305" lon="11.5930533"><ele>266.0</ele><time>2026-03-29T15:46:04.079Z</time></trkpt><trkpt lat="43.07938" lon="11.5929883"><ele>266.0</ele><time>2026-03-29T15:46:05.079Z</time></trkpt><trkpt lat="43.0794533" lon="11.5929183"><ele>266.0</ele><time>2026-03-29T15:46:06.08Z</time></trkpt><trkpt lat="43.0795183" lon="11.5928317"><ele>266.0</ele><time>2026-03-29T15:46:07.08Z</time></trkpt><trkpt lat="43.0795783" lon="11.5927417"><ele>266.0</ele><time>2026-03-29T15:46:08.08Z</time></trkpt><trkpt lat="43.0796317" lon="11.5926533"><ele>266.0</ele><time>2026-03-29T15:46:09.08Z</time></trkpt><trkpt lat="43.079695" lon="11.5925883"><ele>266.0</ele><time>2026-03-29T15:46:10.08Z</time></trkpt><trkpt lat="43.0797517" lon="11.592545"><ele>268.33333333333337</ele><time>2026-03-29T15:46:11.08Z</time></trkpt><trkpt lat="43.0798" lon="11.592485"><ele>270.6666666666667</ele><time>2026-03-29T15:46:13.08Z</time></trkpt><trkpt lat="43.0798167" lon="11.592345"><ele>273.0</ele><time>2026-03-29T15:46:16.08Z</time></trkpt><trkpt lat="43.0797767" lon="11.5922033"><ele>275.3333333333333</ele><time>2026-03-29T15:46:18.08Z</time></trkpt><trkpt lat="43.0797333" lon="11.5921233"><ele>277.66666666666663</ele><time>2026-03-29T15:46:19.079Z</time></trkpt><trkpt lat="43.07968" lon="11.5920433"><ele>280.0</ele><time>2026-03-29T15:46:20.08Z</time></trkpt><trkpt lat="43.0796367" lon="11.591965"><ele>281.85714285714283</ele><time>2026-03-29T15:46:21.08Z</time></trkpt><trkpt lat="43.07959" lon="11.5918833"><ele>283.7142857142857</ele><time>2026-03-29T15:46:22.079Z</time></trkpt><trkpt lat="43.07954" lon="11.591805"><ele>285.57142857142856</ele><time>2026-03-29T15:46:23.08Z</time></trkpt><trkpt lat="43.0794933" lon="11.5917267"><ele>287.42857142857144</ele><time>2026-03-29T15:46:24.08Z</time></trkpt><trkpt lat="43.0794483" lon="11.5916533"><ele>289.2857142857143</ele><time>2026-03-29T15:46:25.079Z</time></trkpt><trkpt lat="43.079405" lon="11.5915717"><ele>291.1428571428571</ele><time>2026-03-29T15:46:26.08Z</time></trkpt><trkpt lat="43.07936" lon="11.59149"><ele>293.0</ele><time>2026-03-29T15:46:27.08Z</time></trkpt><trkpt lat="43.07932" lon="11.5914033"><ele>293.0</ele><time>2026-03-29T15:46:28.08Z</time></trkpt><trkpt lat="43.0792933" lon="11.5913133"><ele>293.0</ele><time>2026-03-29T15:46:29.08Z</time></trkpt><trkpt lat="43.0792683" lon="11.5912333"><ele>293.0</ele><time>2026-03-29T15:46:30.08Z</time></trkpt><trkpt lat="43.0792517" lon="11.5910867"><ele>293.0</ele><time>2026-03-29T15:46:32.08Z</time></trkpt><trkpt lat="43.0792633" lon="11.5909517"><ele>293.0</ele><time>2026-03-29T15:46:34.08Z</time></trkpt><trkpt lat="43.079285" lon="11.5908167"><ele>293.0</ele><time>2026-03-29T15:46:36.08Z</time></trkpt><trkpt lat="43.0793117" lon="11.59068"><ele>294.2857142857143</ele><time>2026-03-29T15:46:38.08Z</time></trkpt><trkpt lat="43.0793333" lon="11.5905967"><ele>295.57142857142856</ele><time>2026-03-29T15:46:39.08Z</time></trkpt><trkpt lat="43.07936" lon="11.590505"><ele>296.8571428571429</ele><time>2026-03-29T15:46:40.08Z</time></trkpt><trkpt lat="43.0793883" lon="11.5904167"><ele>298.1428571428571</ele><time>2026-03-29T15:46:41.08Z</time></trkpt><trkpt lat="43.0794267" lon="11.5903383"><ele>299.42857142857144</ele><time>2026-03-29T15:46:42.08Z</time></trkpt><trkpt lat="43.0794717" lon="11.5902433"><ele>300.7142857142857</ele><time>2026-03-29T15:46:43.08Z</time></trkpt><trkpt lat="43.0795283" lon="11.5901533"><ele>302.0</ele><time>2026-03-29T15:46:44.079Z</time></trkpt><trkpt lat="43.079585" lon="11.5900583"><ele>303.8</ele><time>2026-03-29T15:46:45.08Z</time></trkpt><trkpt lat="43.079655" lon="11.58995"><ele>305.6</ele><time>2026-03-29T15:46:46.08Z</time></trkpt><trkpt lat="43.079725" lon="11.5898533"><ele>307.40000000000003</ele><time>2026-03-29T15:46:47.08Z</time></trkpt><trkpt lat="43.0797817" lon="11.58977"><ele>309.2</ele><time>2026-03-29T15:46:48.079Z</time></trkpt><trkpt lat="43.0798333" lon="11.5897033"><ele>311.0</ele><time>2026-03-29T15:46:49.08Z</time></trkpt><trkpt lat="43.07994" lon="11.5896117"><ele>311.1666666666667</ele><time>2026-03-29T15:46:51.079Z</time></trkpt><trkpt lat="43.0800017" lon="11.58958"><ele>311.33333333333337</ele><time>2026-03-29T15:46:52.079Z</time></trkpt><trkpt lat="43.0801233" lon="11.5895167"><ele>311.5</ele><time>2026-03-29T15:46:54.08Z</time></trkpt><trkpt lat="43.0801933" lon="11.589485"><ele>311.6666666666667</ele><time>2026-03-29T15:46:55.08Z</time></trkpt><trkpt lat="43.080265" lon="11.5894567"><ele>311.8333333333333</ele><time>2026-03-29T15:46:56.079Z</time></trkpt><trkpt lat="43.0803383" lon="11.5894383"><ele>312.0</ele><time>2026-03-29T15:46:57.079Z</time></trkpt><trkpt lat="43.080405" lon="11.5894317"><ele>312.0</ele><time>2026-03-29T15:46:58.08Z</time></trkpt><trkpt lat="43.0804917" lon="11.58945"><ele>312.0</ele><time>2026-03-29T15:47:00.079Z</time></trkpt><trkpt lat="43.0805617" lon="11.589465"><ele>312.0</ele><time>2026-03-29T15:47:12.08Z</time></trkpt><trkpt lat="43.0806383" lon="11.58949"><ele>312.0</ele><time>2026-03-29T15:47:14.08Z</time></trkpt><trkpt lat="43.0807233" lon="11.5895217"><ele>312.0</ele><time>2026-03-29T15:47:16.079Z</time></trkpt><trkpt lat="43.0808383" lon="11.5895533"><ele>312.0</ele><time>2026-03-29T15:47:18.079Z</time></trkpt><trkpt lat="43.0809017" lon="11.5895583"><ele>312.6666666666667</ele><time>2026-03-29T15:47:19.079Z</time></trkpt><trkpt lat="43.080975" lon="11.5895617"><ele>313.3333333333333</ele><time>2026-03-29T15:47:20.079Z</time></trkpt><trkpt lat="43.0810467" lon="11.589555"><ele>314.0</ele><time>2026-03-29T15:47:21.08Z</time></trkpt><trkpt lat="43.08112" lon="11.58954"><ele>314.66666666666663</ele><time>2026-03-29T15:47:22.079Z</time></trkpt><trkpt lat="43.0811833" lon="11.589515"><ele>315.3333333333333</ele><time>2026-03-29T15:47:23.08Z</time></trkpt><trkpt lat="43.081275" lon="11.5894167"><ele>316.0</ele><time>2026-03-29T15:47:25.08Z</time></trkpt><trkpt lat="43.081345" lon="11.5893317"><ele>317.66666666666663</ele><time>2026-03-29T15:47:27.08Z</time></trkpt><trkpt lat="43.0814433" lon="11.589295"><ele>319.3333333333333</ele><time>2026-03-29T15:47:29.079Z</time></trkpt><trkpt lat="43.0815133" lon="11.5892833"><ele>321.0</ele><time>2026-03-29T15:47:30.08Z</time></trkpt><trkpt lat="43.0815883" lon="11.5892633"><ele>322.6666666666667</ele><time>2026-03-29T15:47:31.08Z</time></trkpt><trkpt lat="43.081665" lon="11.5892283"><ele>324.33333333333337</ele><time>2026-03-29T15:47:32.079Z</time></trkpt><trkpt lat="43.08175" lon="11.5892017"><ele>326.0</ele><time>2026-03-29T15:47:33.08Z</time></trkpt><trkpt lat="43.0818417" lon="11.5891667"><ele>326.0</ele><time>2026-03-29T15:47:34.079Z</time></trkpt><trkpt lat="43.0819417" lon="11.589125"><ele>326.0</ele><time>2026-03-29T15:47:35.08Z</time></trkpt><trkpt lat="43.0820433" lon="11.5890733"><ele>326.0</ele><time>2026-03-29T15:47:36.079Z</time></trkpt><trkpt lat="43.0821483" lon="11.5890267"><ele>326.0</ele><time>2026-03-29T15:47:37.08Z</time></trkpt><trkpt lat="43.082255" lon="11.5889783"><ele>326.0</ele><time>2026-03-29T15:47:38.08Z</time></trkpt><trkpt lat="43.082365" lon="11.588925"><ele>326.0</ele><time>2026-03-29T15:47:39.079Z</time></trkpt><trkpt lat="43.0824683" lon="11.58888"><ele>326.0</ele><time>2026-03-29T15:47:40.08Z</time></trkpt><trkpt lat="43.0825717" lon="11.5888383"><ele>326.0</ele><time>2026-03-29T15:47:41.08Z</time></trkpt><trkpt lat="43.082675" lon="11.5888083"><ele>326.0</ele><time>2026-03-29T15:47:42.08Z</time></trkpt><trkpt lat="43.0827867" lon="11.588785"><ele>326.0</ele><time>2026-03-29T15:47:43.08Z</time></trkpt><trkpt lat="43.0828967" lon="11.5887617"><ele>326.0</ele><time>2026-03-29T15:47:44.08Z</time></trkpt><trkpt lat="43.0829917" lon="11.58875"><ele>326.0</ele><time>2026-03-29T15:47:45.08Z</time></trkpt><trkpt lat="43.0830683" lon="11.5887567"><ele>326.0</ele><time>2026-03-29T15:47:46.08Z</time></trkpt><trkpt lat="43.0831333" lon="11.5887983"><ele>326.0</ele><time>2026-03-29T15:47:47.08Z</time></trkpt><trkpt lat="43.0831883" lon="11.5889583"><ele>326.0</ele><time>2026-03-29T15:47:49.08Z</time></trkpt><trkpt lat="43.0832017" lon="11.5890733"><ele>326.0</ele><time>2026-03-29T15:47:50.079Z</time></trkpt><trkpt lat="43.0832267" lon="11.5892033"><ele>326.0</ele><time>2026-03-29T15:47:51.079Z</time></trkpt><trkpt lat="43.0832617" lon="11.589325"><ele>326.0</ele><time>2026-03-29T15:47:52.08Z</time></trkpt><trkpt lat="43.08332" lon="11.5894517"><ele>326.0</ele><time>2026-03-29T15:47:53.08Z</time></trkpt><trkpt lat="43.0833867" lon="11.5895617"><ele>326.0</ele><time>2026-03-29T15:47:54.079Z</time></trkpt><trkpt lat="43.0834633" lon="11.5896767"><ele>327.20000000000005</ele><time>2026-03-29T15:47:55.08Z</time></trkpt><trkpt lat="43.0835433" lon="11.58979"><ele>328.40000000000003</ele><time>2026-03-29T15:47:56.08Z</time></trkpt><trkpt lat="43.08362" lon="11.589895"><ele>329.6</ele><time>2026-03-29T15:47:57.08Z</time></trkpt><trkpt lat="43.0836833" lon="11.5899917"><ele>330.8</ele><time>2026-03-29T15:47:58.079Z</time></trkpt><trkpt lat="43.0837433" lon="11.5900583"><ele>332.0</ele><time>2026-03-29T15:47:59.08Z</time></trkpt><trkpt lat="43.0838033" lon="11.59011"><ele>332.0</ele><time>2026-03-29T15:48:00.08Z</time></trkpt><trkpt lat="43.083865" lon="11.5901533"><ele>332.0</ele><time>2026-03-29T15:48:01.08Z</time></trkpt><trkpt lat="43.0839733" lon="11.59017"><ele>332.0</ele><time>2026-03-29T15:48:03.08Z</time></trkpt><trkpt lat="43.0840817" lon="11.59008"><ele>332.0</ele><time>2026-03-29T15:48:05.08Z</time></trkpt><trkpt lat="43.0841383" lon="11.59001"><ele>332.0</ele><time>2026-03-29T15:48:06.08Z</time></trkpt><trkpt lat="43.0842017" lon="11.5899033"><ele>333.5</ele><time>2026-03-29T15:48:07.08Z</time></trkpt><trkpt lat="43.084265" lon="11.5897883"><ele>335.0</ele><time>2026-03-29T15:48:08.08Z</time></trkpt><trkpt lat="43.0843417" lon="11.5896817"><ele>336.5</ele><time>2026-03-29T15:48:09.08Z</time></trkpt><trkpt lat="43.0844383" lon="11.5895983"><ele>338.0</ele><time>2026-03-29T15:48:10.079Z</time></trkpt><trkpt lat="43.084545" lon="11.5895167"><ele>339.0</ele><time>2026-03-29T15:48:11.079Z</time></trkpt><trkpt lat="43.0846583" lon="11.589435"><ele>340.0</ele><time>2026-03-29T15:48:12.08Z</time></trkpt><trkpt lat="43.084775" lon="11.5893617"><ele>341.0</ele><time>2026-03-29T15:48:13.079Z</time></trkpt><trkpt lat="43.0848933" lon="11.5893033"><ele>342.0</ele><time>2026-03-29T15:48:14.08Z</time></trkpt><trkpt lat="43.0850183" lon="11.589275"><ele>343.25</ele><time>2026-03-29T15:48:15.08Z</time></trkpt><trkpt lat="43.08515" lon="11.5892617"><ele>344.5</ele><time>2026-03-29T15:48:16.08Z</time></trkpt><trkpt lat="43.0852833" lon="11.5892617"><ele>345.75</ele><time>2026-03-29T15:48:17.08Z</time></trkpt><trkpt lat="43.0854083" lon="11.5892767"><ele>347.0</ele><time>2026-03-29T15:48:18.08Z</time></trkpt><trkpt lat="43.085535" lon="11.5892967"><ele>347.0</ele><time>2026-03-29T15:48:19.08Z</time></trkpt><trkpt lat="43.08566" lon="11.5893233"><ele>347.0</ele><time>2026-03-29T15:48:20.079Z</time></trkpt><trkpt lat="43.08577" lon="11.5893567"><ele>347.0</ele><time>2026-03-29T15:48:21.08Z</time></trkpt><trkpt lat="43.0858533" lon="11.58939"><ele>347.0</ele><time>2026-03-29T15:48:22.079Z</time></trkpt><trkpt lat="43.0859167" lon="11.589445"><ele>347.0</ele><time>2026-03-29T15:48:23.079Z</time></trkpt><trkpt lat="43.0859717" lon="11.5895417"><ele>348.40000000000003</ele><time>2026-03-29T15:48:24.079Z</time></trkpt><trkpt lat="43.0860317" lon="11.5896467"><ele>349.8</ele><time>2026-03-29T15:48:25.08Z</time></trkpt><trkpt lat="43.0861017" lon="11.58976"><ele>351.2</ele><time>2026-03-29T15:48:26.08Z</time></trkpt><trkpt lat="43.0861817" lon="11.5898567"><ele>352.6</ele><time>2026-03-29T15:48:27.08Z</time></trkpt><trkpt lat="43.0862767" lon="11.58993"><ele>354.0</ele><time>2026-03-29T15:48:28.08Z</time></trkpt><trkpt lat="43.0863833" lon="11.58999"><ele>354.0</ele><time>2026-03-29T15:48:29.08Z</time></trkpt><trkpt lat="43.086495" lon="11.5900217"><ele>354.0</ele><time>2026-03-29T15:48:30.08Z</time></trkpt><trkpt lat="43.0866217" lon="11.5900117"><ele>354.0</ele><time>2026-03-29T15:48:31.079Z</time></trkpt><trkpt lat="43.0867583" lon="11.5899783"><ele>354.0</ele><time>2026-03-29T15:48:32.08Z</time></trkpt><trkpt lat="43.086915" lon="11.5899267"><ele>354.0</ele><time>2026-03-29T15:48:33.079Z</time></trkpt><trkpt lat="43.08706" lon="11.589855"><ele>354.0</ele><time>2026-03-29T15:48:34.079Z</time></trkpt><trkpt lat="43.0871917" lon="11.5897717"><ele>354.0</ele><time>2026-03-29T15:48:35.08Z</time></trkpt><trkpt lat="43.0873133" lon="11.5896667"><ele>354.0</ele><time>2026-03-29T15:48:36.079Z</time></trkpt><trkpt lat="43.08744" lon="11.5895317"><ele>354.0</ele><time>2026-03-29T15:48:37.08Z</time></trkpt><trkpt lat="43.08757" lon="11.589405"><ele>354.0</ele><time>2026-03-29T15:48:38.08Z</time></trkpt><trkpt lat="43.0876817" lon="11.5892783"><ele>354.0</ele><time>2026-03-29T15:48:39.08Z</time></trkpt><trkpt lat="43.0877683" lon="11.5891533"><ele>354.0</ele><time>2026-03-29T15:48:40.08Z</time></trkpt><trkpt lat="43.08783" lon="11.589015"><ele>354.0</ele><time>2026-03-29T15:48:41.08Z</time></trkpt><trkpt lat="43.0879" lon="11.588865"><ele>354.0</ele><time>2026-03-29T15:48:42.08Z</time></trkpt><trkpt lat="43.0879767" lon="11.5887017"><ele>354.0</ele><time>2026-03-29T15:48:43.08Z</time></trkpt><trkpt lat="43.0880667" lon="11.588545"><ele>354.0</ele><time>2026-03-29T15:48:44.08Z</time></trkpt><trkpt lat="43.088135" lon="11.588385"><ele>353.5</ele><time>2026-03-29T15:48:45.08Z</time></trkpt><trkpt lat="43.0881783" lon="11.588225"><ele>353.0</ele><time>2026-03-29T15:48:46.08Z</time></trkpt><trkpt lat="43.0882017" lon="11.5880583"><ele>352.5</ele><time>2026-03-29T15:48:47.08Z</time></trkpt><trkpt lat="43.0882167" lon="11.5878933"><ele>352.0</ele><time>2026-03-29T15:48:48.08Z</time></trkpt><trkpt lat="43.0882367" lon="11.5877383"><ele>354.40000000000003</ele><time>2026-03-29T15:48:49.08Z</time></trkpt><trkpt lat="43.088275" lon="11.58761"><ele>356.8</ele><time>2026-03-29T15:48:50.08Z</time></trkpt><trkpt lat="43.0883283" lon="11.5874833"><ele>359.2</ele><time>2026-03-29T15:48:51.079Z</time></trkpt><trkpt lat="43.08838" lon="11.587355"><ele>361.6</ele><time>2026-03-29T15:48:52.079Z</time></trkpt><trkpt lat="43.0884183" lon="11.5872267"><ele>364.0</ele><time>2026-03-29T15:48:53.08Z</time></trkpt><trkpt lat="43.0884383" lon="11.5871133"><ele>363.0</ele><time>2026-03-29T15:48:54.08Z</time></trkpt><trkpt lat="43.0884383" lon="11.5869867"><ele>362.0</ele><time>2026-03-29T15:48:55.08Z</time></trkpt><trkpt lat="43.0884283" lon="11.586835"><ele>361.0</ele><time>2026-03-29T15:48:56.08Z</time></trkpt><trkpt lat="43.08842" lon="11.5866783"><ele>360.0</ele><time>2026-03-29T15:48:57.08Z</time></trkpt><trkpt lat="43.0884133" lon="11.5864967"><ele>360.0</ele><time>2026-03-29T15:48:58.08Z</time></trkpt><trkpt lat="43.08842" lon="11.58634"><ele>360.0</ele><time>2026-03-29T15:48:59.08Z</time></trkpt><trkpt lat="43.0884433" lon="11.58618"><ele>360.0</ele><time>2026-03-29T15:49:00.08Z</time></trkpt><trkpt lat="43.088465" lon="11.5860483"><ele>360.0</ele><time>2026-03-29T15:49:01.079Z</time></trkpt><trkpt lat="43.0884967" lon="11.5859283"><ele>360.0</ele><time>2026-03-29T15:49:02.08Z</time></trkpt><trkpt lat="43.08852" lon="11.585785"><ele>360.0</ele><time>2026-03-29T15:49:03.08Z</time></trkpt><trkpt lat="43.0885217" lon="11.5856267"><ele>360.0</ele><time>2026-03-29T15:49:04.08Z</time></trkpt><trkpt lat="43.0885033" lon="11.5854383"><ele>360.0</ele><time>2026-03-29T15:49:05.08Z</time></trkpt><trkpt lat="43.0884933" lon="11.5852683"><ele>360.0</ele><time>2026-03-29T15:49:06.079Z</time></trkpt><trkpt lat="43.08849" lon="11.5851283"><ele>360.0</ele><time>2026-03-29T15:49:07.08Z</time></trkpt><trkpt lat="43.0884867" lon="11.5850167"><ele>360.0</ele><time>2026-03-29T15:49:08.08Z</time></trkpt><trkpt lat="43.0884883" lon="11.5848817"><ele>360.0</ele><time>2026-03-29T15:49:10.079Z</time></trkpt><trkpt lat="43.0884817" lon="11.5847917"><ele>360.0</ele><time>2026-03-29T15:49:16.08Z</time></trkpt><trkpt lat="43.0886183" lon="11.5848367"><ele>360.0</ele><time>2026-03-29T15:49:43.08Z</time></trkpt><trkpt lat="43.08869" lon="11.5848983"><ele>360.0</ele><time>2026-03-29T15:49:44.079Z</time></trkpt><trkpt lat="43.0887667" lon="11.5849617"><ele>360.0</ele><time>2026-03-29T15:49:45.08Z</time></trkpt><trkpt lat="43.0888417" lon="11.5850333"><ele>360.0</ele><time>2026-03-29T15:49:46.08Z</time></trkpt><trkpt lat="43.0889117" lon="11.5851"><ele>360.0</ele><time>2026-03-29T15:49:47.08Z</time></trkpt><trkpt lat="43.0889833" lon="11.5851617"><ele>360.0</ele><time>2026-03-29T15:49:48.079Z</time></trkpt><trkpt lat="43.0890483" lon="11.5852167"><ele>360.0</ele><time>2026-03-29T15:49:49.08Z</time></trkpt><trkpt lat="43.0891183" lon="11.5852783"><ele>361.6666666666667</ele><time>2026-03-29T15:49:50.08Z</time></trkpt><trkpt lat="43.089185" lon="11.5853483"><ele>363.3333333333333</ele><time>2026-03-29T15:49:51.08Z</time></trkpt><trkpt lat="43.0892583" lon="11.5854117"><ele>365.0</ele><time>2026-03-29T15:49:52.08Z</time></trkpt><trkpt lat="43.08933" lon="11.58548"><ele>366.66666666666663</ele><time>2026-03-29T15:49:53.079Z</time></trkpt><trkpt lat="43.0894117" lon="11.5855417"><ele>368.3333333333333</ele><time>2026-03-29T15:49:54.079Z</time></trkpt><trkpt lat="43.0894917" lon="11.5856133"><ele>370.0</ele><time>2026-03-29T15:49:55.08Z</time></trkpt><trkpt lat="43.0895767" lon="11.5856917"><ele>370.0</ele><time>2026-03-29T15:49:56.08Z</time></trkpt><trkpt lat="43.0896767" lon="11.5857683"><ele>370.0</ele><time>2026-03-29T15:49:57.08Z</time></trkpt><trkpt lat="43.0897783" lon="11.5858567"><ele>370.0</ele><time>2026-03-29T15:49:58.08Z</time></trkpt><trkpt lat="43.0898833" lon="11.5859517"><ele>370.0</ele><time>2026-03-29T15:49:59.08Z</time></trkpt><trkpt lat="43.089985" lon="11.5860483"><ele>368.5</ele><time>2026-03-29T15:50:00.08Z</time></trkpt><trkpt lat="43.090085" lon="11.586155"><ele>367.0</ele><time>2026-03-29T15:50:01.079Z</time></trkpt><trkpt lat="43.0901733" lon="11.58627"><ele>365.5</ele><time>2026-03-29T15:50:02.079Z</time></trkpt><trkpt lat="43.0902533" lon="11.5864083"><ele>364.0</ele><time>2026-03-29T15:50:03.08Z</time></trkpt><trkpt lat="43.0903267" lon="11.5865617"><ele>367.5</ele><time>2026-03-29T15:50:04.08Z</time></trkpt><trkpt lat="43.0904067" lon="11.5867233"><ele>371.0</ele><time>2026-03-29T15:50:05.08Z</time></trkpt><trkpt lat="43.0904733" lon="11.586885"><ele>374.5</ele><time>2026-03-29T15:50:06.079Z</time></trkpt><trkpt lat="43.0905433" lon="11.5870317"><ele>378.0</ele><time>2026-03-29T15:50:07.08Z</time></trkpt><trkpt lat="43.0906233" lon="11.58718"><ele>379.5</ele><time>2026-03-29T15:50:08.08Z</time></trkpt><trkpt lat="43.0906933" lon="11.5873383"><ele>381.0</ele><time>2026-03-29T15:50:09.08Z</time></trkpt><trkpt lat="43.0907717" lon="11.587475"><ele>382.5</ele><time>2026-03-29T15:50:10.08Z</time></trkpt><trkpt lat="43.0908467" lon="11.5876"><ele>384.0</ele><time>2026-03-29T15:50:11.079Z</time></trkpt><trkpt lat="43.0909283" lon="11.5877033"><ele>380.5</ele><time>2026-03-29T15:50:12.08Z</time></trkpt><trkpt lat="43.0910233" lon="11.5878083"><ele>377.0</ele><time>2026-03-29T15:50:13.08Z</time></trkpt><trkpt lat="43.0911217" lon="11.58788"><ele>373.5</ele><time>2026-03-29T15:50:14.079Z</time></trkpt><trkpt lat="43.09124" lon="11.5879517"><ele>370.0</ele><time>2026-03-29T15:50:15.079Z</time></trkpt><trkpt lat="43.0913583" lon="11.5880183"><ele>370.0</ele><time>2026-03-29T15:50:16.079Z</time></trkpt><trkpt lat="43.0914867" lon="11.5880833"><ele>370.0</ele><time>2026-03-29T15:50:17.08Z</time></trkpt><trkpt lat="43.0916117" lon="11.5881567"><ele>370.0</ele><time>2026-03-29T15:50:18.08Z</time></trkpt><trkpt lat="43.091725" lon="11.5882433"><ele>370.0</ele><time>2026-03-29T15:50:19.08Z</time></trkpt><trkpt lat="43.0918383" lon="11.5883233"><ele>369.0</ele><time>2026-03-29T15:50:20.079Z</time></trkpt><trkpt lat="43.0919517" lon="11.5883933"><ele>368.0</ele><time>2026-03-29T15:50:21.079Z</time></trkpt><trkpt lat="43.0920567" lon="11.5884683"><ele>367.0</ele><time>2026-03-29T15:50:22.08Z</time></trkpt><trkpt lat="43.0921667" lon="11.588535"><ele>366.0</ele><time>2026-03-29T15:50:23.08Z</time></trkpt><trkpt lat="43.0922683" lon="11.588595"><ele>366.0</ele><time>2026-03-29T15:50:24.08Z</time></trkpt><trkpt lat="43.0923633" lon="11.58866"><ele>366.0</ele><time>2026-03-29T15:50:25.08Z</time></trkpt><trkpt lat="43.09246" lon="11.5887167"><ele>366.0</ele><time>2026-03-29T15:50:26.079Z</time></trkpt><trkpt lat="43.0925533" lon="11.5887767"><ele>366.0</ele><time>2026-03-29T15:50:27.08Z</time></trkpt><trkpt lat="43.0926417" lon="11.5888417"><ele>366.0</ele><time>2026-03-29T15:50:28.079Z</time></trkpt><trkpt lat="43.0927267" lon="11.5889267"><ele>364.0</ele><time>2026-03-29T15:50:29.08Z</time></trkpt><trkpt lat="43.0928133" lon="11.58902"><ele>362.0</ele><time>2026-03-29T15:50:30.079Z</time></trkpt><trkpt lat="43.0929067" lon="11.5891233"><ele>360.0</ele><time>2026-03-29T15:50:31.079Z</time></trkpt><trkpt lat="43.0929983" lon="11.5892383"><ele>358.0</ele><time>2026-03-29T15:50:32.08Z</time></trkpt><trkpt lat="43.09309" lon="11.5893633"><ele>358.0</ele><time>2026-03-29T15:50:33.08Z</time></trkpt><trkpt lat="43.093185" lon="11.5895017"><ele>358.0</ele><time>2026-03-29T15:50:34.08Z</time></trkpt><trkpt lat="43.0932617" lon="11.58966"><ele>358.0</ele><time>2026-03-29T15:50:35.079Z</time></trkpt><trkpt lat="43.093335" lon="11.5898233"><ele>358.0</ele><time>2026-03-29T15:50:36.08Z</time></trkpt><trkpt lat="43.0934083" lon="11.589995"><ele>355.5</ele><time>2026-03-29T15:50:37.08Z</time></trkpt><trkpt lat="43.0934917" lon="11.5901517"><ele>353.0</ele><time>2026-03-29T15:50:38.08Z</time></trkpt><trkpt lat="43.0935767" lon="11.5902933"><ele>350.5</ele><time>2026-03-29T15:50:39.08Z</time></trkpt><trkpt lat="43.0936867" lon="11.5904267"><ele>348.0</ele><time>2026-03-29T15:50:40.079Z</time></trkpt><trkpt lat="43.0938183" lon="11.590575"><ele>349.0</ele><time>2026-03-29T15:50:41.08Z</time></trkpt><trkpt lat="43.0939633" lon="11.5907283"><ele>350.0</ele><time>2026-03-29T15:50:42.08Z</time></trkpt><trkpt lat="43.094095" lon="11.5908483"><ele>351.0</ele><time>2026-03-29T15:50:43.08Z</time></trkpt><trkpt lat="43.094215" lon="11.5909633"><ele>351.0</ele><time>2026-03-29T15:50:44.08Z</time></trkpt><trkpt lat="43.0943283" lon="11.5910767"><ele>351.0</ele><time>2026-03-29T15:50:45.08Z</time></trkpt><trkpt lat="43.0944183" lon="11.591215"><ele>351.0</ele><time>2026-03-29T15:50:46.079Z</time></trkpt><trkpt lat="43.0945067" lon="11.5914067"><ele>351.0</ele><time>2026-03-29T15:50:47.08Z</time></trkpt><trkpt lat="43.09458" lon="11.5916333"><ele>346.3333333333333</ele><time>2026-03-29T15:50:48.08Z</time></trkpt><trkpt lat="43.094665" lon="11.59188"><ele>341.66666666666663</ele><time>2026-03-29T15:50:49.079Z</time></trkpt><trkpt lat="43.09476" lon="11.5921367"><ele>337.0</ele><time>2026-03-29T15:50:50.079Z</time></trkpt><trkpt lat="43.0948533" lon="11.59238"><ele>339.0</ele><time>2026-03-29T15:50:51.08Z</time></trkpt><trkpt lat="43.0949433" lon="11.5926"><ele>341.0</ele><time>2026-03-29T15:50:52.079Z</time></trkpt><trkpt lat="43.0950267" lon="11.5928067"><ele>343.0</ele><time>2026-03-29T15:50:53.079Z</time></trkpt><trkpt lat="43.0951083" lon="11.5930017"><ele>343.0</ele><time>2026-03-29T15:50:54.08Z</time></trkpt><trkpt lat="43.0951883" lon="11.5931883"><ele>343.0</ele><time>2026-03-29T15:50:55.08Z</time></trkpt><trkpt lat="43.09527" lon="11.5933833"><ele>343.0</ele><time>2026-03-29T15:50:56.079Z</time></trkpt><trkpt lat="43.0953433" lon="11.5935633"><ele>340.75</ele><time>2026-03-29T15:50:57.079Z</time></trkpt><trkpt lat="43.0954083" lon="11.5937333"><ele>338.5</ele><time>2026-03-29T15:50:58.079Z</time></trkpt><trkpt lat="43.0954817" lon="11.59391"><ele>336.25</ele><time>2026-03-29T15:50:59.08Z</time></trkpt><trkpt lat="43.0955567" lon="11.5940833"><ele>334.0</ele><time>2026-03-29T15:51:00.079Z</time></trkpt><trkpt lat="43.095625" lon="11.5942483"><ele>334.0</ele><time>2026-03-29T15:51:01.08Z</time></trkpt><trkpt lat="43.0956817" lon="11.5944067"><ele>334.0</ele><time>2026-03-29T15:51:02.079Z</time></trkpt><trkpt lat="43.0957383" lon="11.5945533"><ele>334.0</ele><time>2026-03-29T15:51:03.08Z</time></trkpt><trkpt lat="43.0958017" lon="11.5946883"><ele>334.0</ele><time>2026-03-29T15:51:04.079Z</time></trkpt><trkpt lat="43.0958767" lon="11.594795"><ele>337.25</ele><time>2026-03-29T15:51:05.079Z</time></trkpt><trkpt lat="43.095965" lon="11.5948983"><ele>340.5</ele><time>2026-03-29T15:51:06.08Z</time></trkpt><trkpt lat="43.096065" lon="11.594985"><ele>343.75</ele><time>2026-03-29T15:51:07.08Z</time></trkpt><trkpt lat="43.0961633" lon="11.5950683"><ele>347.0</ele><time>2026-03-29T15:51:08.08Z</time></trkpt><trkpt lat="43.0962583" lon="11.5951617"><ele>347.0</ele><time>2026-03-29T15:51:09.08Z</time></trkpt><trkpt lat="43.096345" lon="11.595285"><ele>347.0</ele><time>2026-03-29T15:51:10.079Z</time></trkpt><trkpt lat="43.096415" lon="11.595425"><ele>347.0</ele><time>2026-03-29T15:51:11.08Z</time></trkpt><trkpt lat="43.0964717" lon="11.5955867"><ele>347.0</ele><time>2026-03-29T15:51:12.08Z</time></trkpt><trkpt lat="43.096515" lon="11.5957533"><ele>346.75</ele><time>2026-03-29T15:51:13.08Z</time></trkpt><trkpt lat="43.09656" lon="11.5959167"><ele>346.5</ele><time>2026-03-29T15:51:14.08Z</time></trkpt><trkpt lat="43.0966" lon="11.5960883"><ele>346.25</ele><time>2026-03-29T15:51:15.08Z</time></trkpt><trkpt lat="43.0966417" lon="11.59628"><ele>346.0</ele><time>2026-03-29T15:51:16.08Z</time></trkpt><trkpt lat="43.0966917" lon="11.596475"><ele>348.75</ele><time>2026-03-29T15:51:17.079Z</time></trkpt><trkpt lat="43.0967333" lon="11.5966617"><ele>351.5</ele><time>2026-03-29T15:51:18.08Z</time></trkpt><trkpt lat="43.0967767" lon="11.596835"><ele>354.25</ele><time>2026-03-29T15:51:19.08Z</time></trkpt><trkpt lat="43.0968167" lon="11.5969883"><ele>357.0</ele><time>2026-03-29T15:51:20.08Z</time></trkpt><trkpt lat="43.0968533" lon="11.597115"><ele>358.0</ele><time>2026-03-29T15:51:21.079Z</time></trkpt><trkpt lat="43.0968833" lon="11.597215"><ele>359.0</ele><time>2026-03-29T15:51:22.08Z</time></trkpt><trkpt lat="43.0969283" lon="11.5972983"><ele>360.0</ele><time>2026-03-29T15:51:23.079Z</time></trkpt><trkpt lat="43.097005" lon="11.5973433"><ele>361.0</ele><time>2026-03-29T15:51:24.079Z</time></trkpt><trkpt lat="43.0970967" lon="11.59739"><ele>362.0</ele><time>2026-03-29T15:51:25.08Z</time></trkpt><trkpt lat="43.09719" lon="11.5974583"><ele>363.0</ele><time>2026-03-29T15:51:26.08Z</time></trkpt><trkpt lat="43.0972883" lon="11.5975633"><ele>363.0</ele><time>2026-03-29T15:51:27.079Z</time></trkpt><trkpt lat="43.097405" lon="11.597695"><ele>363.0</ele><time>2026-03-29T15:51:28.079Z</time></trkpt><trkpt lat="43.0975267" lon="11.5978533"><ele>363.0</ele><time>2026-03-29T15:51:29.08Z</time></trkpt><trkpt lat="43.0976383" lon="11.5980217"><ele>364.5</ele><time>2026-03-29T15:51:30.079Z</time></trkpt><trkpt lat="43.0977383" lon="11.5981667"><ele>366.0</ele><time>2026-03-29T15:51:31.08Z</time></trkpt><trkpt lat="43.097825" lon="11.5983017"><ele>367.5</ele><time>2026-03-29T15:51:32.08Z</time></trkpt><trkpt lat="43.097895" lon="11.59843"><ele>369.0</ele><time>2026-03-29T15:51:33.08Z</time></trkpt><trkpt lat="43.0979583" lon="11.5985283"><ele>369.0</ele><time>2026-03-29T15:51:34.08Z</time></trkpt><trkpt lat="43.09803" lon="11.5985983"><ele>369.0</ele><time>2026-03-29T15:51:35.08Z</time></trkpt><trkpt lat="43.0981067" lon="11.5986433"><ele>369.0</ele><time>2026-03-29T15:51:36.079Z</time></trkpt><trkpt lat="43.0981817" lon="11.5986517"><ele>369.0</ele><time>2026-03-29T15:51:37.08Z</time></trkpt><trkpt lat="43.0982817" lon="11.5986183"><ele>369.0</ele><time>2026-03-29T15:51:38.079Z</time></trkpt><trkpt lat="43.098365" lon="11.5985683"><ele>369.0</ele><time>2026-03-29T15:51:39.08Z</time></trkpt><trkpt lat="43.0984383" lon="11.598505"><ele>368.5</ele><time>2026-03-29T15:51:40.08Z</time></trkpt><trkpt lat="43.0984917" lon="11.5984083"><ele>368.0</ele><time>2026-03-29T15:51:41.08Z</time></trkpt><trkpt lat="43.0985383" lon="11.59828"><ele>367.5</ele><time>2026-03-29T15:51:42.079Z</time></trkpt><trkpt lat="43.09858" lon="11.5981183"><ele>367.0</ele><time>2026-03-29T15:51:43.08Z</time></trkpt><trkpt lat="43.09862" lon="11.597935"><ele>366.0</ele><time>2026-03-29T15:51:44.08Z</time></trkpt><trkpt lat="43.0986467" lon="11.5977633"><ele>365.0</ele><time>2026-03-29T15:51:45.08Z</time></trkpt><trkpt lat="43.098685" lon="11.597615"><ele>364.0</ele><time>2026-03-29T15:51:46.08Z</time></trkpt><trkpt lat="43.098735" lon="11.59752"><ele>363.0</ele><time>2026-03-29T15:51:47.079Z</time></trkpt><trkpt lat="43.0988033" lon="11.5974483"><ele>362.0</ele><time>2026-03-29T15:51:48.08Z</time></trkpt><trkpt lat="43.0988917" lon="11.5974217"><ele>362.0</ele><time>2026-03-29T15:51:49.08Z</time></trkpt><trkpt lat="43.0989817" lon="11.5974483"><ele>362.0</ele><time>2026-03-29T15:51:50.08Z</time></trkpt><trkpt lat="43.099065" lon="11.5975183"><ele>362.0</ele><time>2026-03-29T15:51:51.08Z</time></trkpt><trkpt lat="43.0991533" lon="11.5976133"><ele>362.0</ele><time>2026-03-29T15:51:52.08Z</time></trkpt><trkpt lat="43.0992417" lon="11.5977317"><ele>362.0</ele><time>2026-03-29T15:51:53.079Z</time></trkpt><trkpt lat="43.0993333" lon="11.597845"><ele>363.0</ele><time>2026-03-29T15:51:54.079Z</time></trkpt><trkpt lat="43.0994133" lon="11.597965"><ele>364.0</ele><time>2026-03-29T15:51:55.08Z</time></trkpt><trkpt lat="43.0994917" lon="11.5981017"><ele>365.0</ele><time>2026-03-29T15:51:56.08Z</time></trkpt><trkpt lat="43.099565" lon="11.59823"><ele>366.0</ele><time>2026-03-29T15:51:57.08Z</time></trkpt><trkpt lat="43.0996433" lon="11.59836"><ele>366.0</ele><time>2026-03-29T15:51:58.079Z</time></trkpt><trkpt lat="43.0997317" lon="11.5984833"><ele>366.0</ele><time>2026-03-29T15:51:59.079Z</time></trkpt><trkpt lat="43.099815" lon="11.5986117"><ele>366.0</ele><time>2026-03-29T15:52:00.08Z</time></trkpt><trkpt lat="43.09989" lon="11.5987417"><ele>366.0</ele><time>2026-03-29T15:52:01.08Z</time></trkpt><trkpt lat="43.099975" lon="11.5988667"><ele>363.6</ele><time>2026-03-29T15:52:02.079Z</time></trkpt><trkpt lat="43.1000517" lon="11.5989817"><ele>361.20000000000005</ele><time>2026-03-29T15:52:03.08Z</time></trkpt><trkpt lat="43.1001417" lon="11.5990733"><ele>358.79999999999995</ele><time>2026-03-29T15:52:04.079Z</time></trkpt><trkpt lat="43.1002317" lon="11.5991583"><ele>356.4</ele><time>2026-03-29T15:52:05.079Z</time></trkpt><trkpt lat="43.10033" lon="11.59923"><ele>354.0</ele><time>2026-03-29T15:52:06.079Z</time></trkpt><trkpt lat="43.10045" lon="11.5992767"><ele>354.0</ele><time>2026-03-29T15:52:07.079Z</time></trkpt><trkpt lat="43.1005817" lon="11.5992983"><ele>354.0</ele><time>2026-03-29T15:52:08.08Z</time></trkpt><trkpt lat="43.100735" lon="11.5992967"><ele>354.0</ele><time>2026-03-29T15:52:09.079Z</time></trkpt><trkpt lat="43.1008917" lon="11.5992817"><ele>354.0</ele><time>2026-03-29T15:52:10.079Z</time></trkpt><trkpt lat="43.10105" lon="11.5992617"><ele>352.75</ele><time>2026-03-29T15:52:11.08Z</time></trkpt><trkpt lat="43.1011933" lon="11.5992567"><ele>351.5</ele><time>2026-03-29T15:52:12.08Z</time></trkpt><trkpt lat="43.101335" lon="11.5992617"><ele>350.25</ele><time>2026-03-29T15:52:13.079Z</time></trkpt><trkpt lat="43.1014633" lon="11.5993033"><ele>349.0</ele><time>2026-03-29T15:52:14.08Z</time></trkpt><trkpt lat="43.1015833" lon="11.5993917"><ele>349.75</ele><time>2026-03-29T15:52:15.08Z</time></trkpt><trkpt lat="43.101705" lon="11.5994967"><ele>350.5</ele><time>2026-03-29T15:52:16.08Z</time></trkpt><trkpt lat="43.1018133" lon="11.5996067"><ele>351.25</ele><time>2026-03-29T15:52:17.079Z</time></trkpt><trkpt lat="43.10191" lon="11.599745"><ele>352.0</ele><time>2026-03-29T15:52:18.079Z</time></trkpt><trkpt lat="43.1019933" lon="11.5999067"><ele>352.0</ele><time>2026-03-29T15:52:19.08Z</time></trkpt><trkpt lat="43.102075" lon="11.6000767"><ele>352.0</ele><time>2026-03-29T15:52:20.079Z</time></trkpt><trkpt lat="43.1021533" lon="11.60023"><ele>352.0</ele><time>2026-03-29T15:52:21.08Z</time></trkpt><trkpt lat="43.1022217" lon="11.6003883"><ele>352.0</ele><time>2026-03-29T15:52:22.08Z</time></trkpt><trkpt lat="43.1022933" lon="11.6005383"><ele>350.20000000000005</ele><time>2026-03-29T15:52:23.08Z</time></trkpt><trkpt lat="43.1023517" lon="11.6006817"><ele>348.4</ele><time>2026-03-29T15:52:24.08Z</time></trkpt><trkpt lat="43.1024033" lon="11.6008133"><ele>346.6</ele><time>2026-03-29T15:52:25.079Z</time></trkpt><trkpt lat="43.102455" lon="11.6009133"><ele>344.79999999999995</ele><time>2026-03-29T15:52:26.079Z</time></trkpt><trkpt lat="43.1025067" lon="11.6009833"><ele>343.0</ele><time>2026-03-29T15:52:27.079Z</time></trkpt><trkpt lat="43.10257" lon="11.6010517"><ele>346.16666666666663</ele><time>2026-03-29T15:52:28.08Z</time></trkpt><trkpt lat="43.10264" lon="11.6011033"><ele>349.3333333333333</ele><time>2026-03-29T15:52:29.08Z</time></trkpt><trkpt lat="43.1027117" lon="11.6011317"><ele>352.5</ele><time>2026-03-29T15:52:30.079Z</time></trkpt><trkpt lat="43.1027917" lon="11.6011083"><ele>355.6666666666667</ele><time>2026-03-29T15:52:31.079Z</time></trkpt><trkpt lat="43.1028667" lon="11.6010533"><ele>358.83333333333337</ele><time>2026-03-29T15:52:32.079Z</time></trkpt><trkpt lat="43.1029417" lon="11.60096"><ele>362.0</ele><time>2026-03-29T15:52:33.079Z</time></trkpt><trkpt lat="43.1030417" lon="11.6008433"><ele>362.0</ele><time>2026-03-29T15:52:34.079Z</time></trkpt><trkpt lat="43.1031383" lon="11.60072"><ele>362.0</ele><time>2026-03-29T15:52:35.08Z</time></trkpt><trkpt lat="43.1032267" lon="11.6006233"><ele>362.0</ele><time>2026-03-29T15:52:36.08Z</time></trkpt><trkpt lat="43.1033267" lon="11.6005467"><ele>362.0</ele><time>2026-03-29T15:52:37.08Z</time></trkpt><trkpt lat="43.10343" lon="11.6005133"><ele>362.25</ele><time>2026-03-29T15:52:38.081Z</time></trkpt><trkpt lat="43.1035483" lon="11.6004983"><ele>362.5</ele><time>2026-03-29T15:52:39.081Z</time></trkpt><trkpt lat="43.1036833" lon="11.6005067"><ele>362.75</ele><time>2026-03-29T15:52:40.081Z</time></trkpt><trkpt lat="43.1038433" lon="11.60054"><ele>363.0</ele><time>2026-03-29T15:52:41.081Z</time></trkpt><trkpt lat="43.1039983" lon="11.6005833"><ele>363.5</ele><time>2026-03-29T15:52:42.08Z</time></trkpt><trkpt lat="43.1041417" lon="11.6006167"><ele>364.0</ele><time>2026-03-29T15:52:43.081Z</time></trkpt><trkpt lat="43.104275" lon="11.6006467"><ele>364.5</ele><time>2026-03-29T15:52:44.081Z</time></trkpt><trkpt lat="43.1044" lon="11.6006733"><ele>365.0</ele><time>2026-03-29T15:52:45.081Z</time></trkpt><trkpt lat="43.1045317" lon="11.6006933"><ele>365.0</ele><time>2026-03-29T15:52:46.081Z</time></trkpt><trkpt lat="43.1046667" lon="11.6007183"><ele>365.0</ele><time>2026-03-29T15:52:47.08Z</time></trkpt><trkpt lat="43.1048083" lon="11.6007483"><ele>365.0</ele><time>2026-03-29T15:52:48.08Z</time></trkpt><trkpt lat="43.10495" lon="11.6007767"><ele>365.0</ele><time>2026-03-29T15:52:49.08Z</time></trkpt><trkpt lat="43.1050917" lon="11.60079"><ele>365.5</ele><time>2026-03-29T15:52:50.08Z</time></trkpt><trkpt lat="43.1052417" lon="11.6007967"><ele>366.0</ele><time>2026-03-29T15:52:51.08Z</time></trkpt><trkpt lat="43.1053817" lon="11.6007733"><ele>366.5</ele><time>2026-03-29T15:52:52.08Z</time></trkpt><trkpt lat="43.1055283" lon="11.6007317"><ele>367.0</ele><time>2026-03-29T15:52:53.081Z</time></trkpt><trkpt lat="43.1056667" lon="11.6006667"><ele>368.5</ele><time>2026-03-29T15:52:54.08Z</time></trkpt><trkpt lat="43.1058067" lon="11.6005733"><ele>370.0</ele><time>2026-03-29T15:52:55.08Z</time></trkpt><trkpt lat="43.1059483" lon="11.60049"><ele>371.5</ele><time>2026-03-29T15:52:56.081Z</time></trkpt><trkpt lat="43.106065" lon="11.6004167"><ele>373.0</ele><time>2026-03-29T15:52:57.081Z</time></trkpt><trkpt lat="43.106175" lon="11.6003717"><ele>373.0</ele><time>2026-03-29T15:52:58.081Z</time></trkpt><trkpt lat="43.10628" lon="11.6003583"><ele>373.0</ele><time>2026-03-29T15:52:59.081Z</time></trkpt><trkpt lat="43.106385" lon="11.600365"><ele>373.0</ele><time>2026-03-29T15:53:00.08Z</time></trkpt><trkpt lat="43.10649" lon="11.6004083"><ele>373.0</ele><time>2026-03-29T15:53:01.08Z</time></trkpt><trkpt lat="43.1066117" lon="11.6004733"><ele>375.75</ele><time>2026-03-29T15:53:02.081Z</time></trkpt><trkpt lat="43.1067467" lon="11.6005567"><ele>378.5</ele><time>2026-03-29T15:53:03.081Z</time></trkpt><trkpt lat="43.1068783" lon="11.6006367"><ele>381.25</ele><time>2026-03-29T15:53:04.08Z</time></trkpt><trkpt lat="43.1070133" lon="11.60072"><ele>384.0</ele><time>2026-03-29T15:53:05.081Z</time></trkpt><trkpt lat="43.1071433" lon="11.6008117"><ele>384.0</ele><time>2026-03-29T15:53:06.081Z</time></trkpt><trkpt lat="43.1072717" lon="11.600925"><ele>384.0</ele><time>2026-03-29T15:53:07.08Z</time></trkpt><trkpt lat="43.1073967" lon="11.6010333"><ele>384.0</ele><time>2026-03-29T15:53:08.081Z</time></trkpt><trkpt lat="43.1075233" lon="11.60112"><ele>384.0</ele><time>2026-03-29T15:53:09.081Z</time></trkpt><trkpt lat="43.10763" lon="11.6012017"><ele>385.79999999999995</ele><time>2026-03-29T15:53:10.08Z</time></trkpt><trkpt lat="43.1077233" lon="11.6012933"><ele>387.59999999999997</ele><time>2026-03-29T15:53:11.081Z</time></trkpt><trkpt lat="43.10781" lon="11.601365"><ele>389.4</ele><time>2026-03-29T15:53:12.081Z</time></trkpt><trkpt lat="43.1078833" lon="11.60146"><ele>391.2</ele><time>2026-03-29T15:53:13.08Z</time></trkpt><trkpt lat="43.1079483" lon="11.6015583"><ele>393.0</ele><time>2026-03-29T15:53:14.081Z</time></trkpt><trkpt lat="43.10801" lon="11.60166"><ele>393.0</ele><time>2026-03-29T15:53:15.081Z</time></trkpt><trkpt lat="43.1080517" lon="11.6017983"><ele>393.0</ele><time>2026-03-29T15:53:16.081Z</time></trkpt><trkpt lat="43.1080733" lon="11.6019567"><ele>393.0</ele><time>2026-03-29T15:53:17.081Z</time></trkpt><trkpt lat="43.108085" lon="11.6021317"><ele>393.0</ele><time>2026-03-29T15:53:18.081Z</time></trkpt><trkpt lat="43.1080667" lon="11.602315"><ele>392.0</ele><time>2026-03-29T15:53:19.081Z</time></trkpt><trkpt lat="43.1080267" lon="11.6024967"><ele>391.0</ele><time>2026-03-29T15:53:20.08Z</time></trkpt><trkpt lat="43.1079883" lon="11.6026817"><ele>390.0</ele><time>2026-03-29T15:53:21.081Z</time></trkpt><trkpt lat="43.10795" lon="11.6028533"><ele>389.0</ele><time>2026-03-29T15:53:22.081Z</time></trkpt><trkpt lat="43.1078983" lon="11.60301"><ele>386.25</ele><time>2026-03-29T15:53:23.081Z</time></trkpt><trkpt lat="43.1078667" lon="11.6031533"><ele>383.5</ele><time>2026-03-29T15:53:24.081Z</time></trkpt><trkpt lat="43.1078483" lon="11.6033017"><ele>380.75</ele><time>2026-03-29T15:53:25.081Z</time></trkpt><trkpt lat="43.1078517" lon="11.6034633"><ele>378.0</ele><time>2026-03-29T15:53:26.08Z</time></trkpt><trkpt lat="43.10788" lon="11.60363"><ele>376.25</ele><time>2026-03-29T15:53:27.08Z</time></trkpt><trkpt lat="43.10792" lon="11.60381"><ele>374.5</ele><time>2026-03-29T15:53:28.081Z</time></trkpt><trkpt lat="43.1079617" lon="11.6039933"><ele>372.75</ele><time>2026-03-29T15:53:29.08Z</time></trkpt><trkpt lat="43.1080183" lon="11.6041617"><ele>371.0</ele><time>2026-03-29T15:53:30.081Z</time></trkpt><trkpt lat="43.108085" lon="11.6043083"><ele>371.0</ele><time>2026-03-29T15:53:31.08Z</time></trkpt><trkpt lat="43.1081567" lon="11.6044317"><ele>371.0</ele><time>2026-03-29T15:53:32.081Z</time></trkpt><trkpt lat="43.108245" lon="11.604555"><ele>371.0</ele><time>2026-03-29T15:53:33.081Z</time></trkpt><trkpt lat="43.1083583" lon="11.6046733"><ele>371.0</ele><time>2026-03-29T15:53:34.081Z</time></trkpt><trkpt lat="43.1084783" lon="11.6047933"><ele>372.6666666666667</ele><time>2026-03-29T15:53:35.081Z</time></trkpt><trkpt lat="43.108615" lon="11.6049283"><ele>374.3333333333333</ele><time>2026-03-29T15:53:36.081Z</time></trkpt><trkpt lat="43.1087617" lon="11.6050633"><ele>376.0</ele><time>2026-03-29T15:53:37.081Z</time></trkpt><trkpt lat="43.10891" lon="11.6051983"><ele>375.66666666666663</ele><time>2026-03-29T15:53:38.081Z</time></trkpt><trkpt lat="43.1090633" lon="11.6053333"><ele>375.3333333333333</ele><time>2026-03-29T15:53:39.081Z</time></trkpt><trkpt lat="43.10921" lon="11.605465"><ele>375.0</ele><time>2026-03-29T15:53:40.081Z</time></trkpt><trkpt lat="43.10934" lon="11.6055917"><ele>375.0</ele><time>2026-03-29T15:53:41.081Z</time></trkpt><trkpt lat="43.10948" lon="11.6057317"><ele>375.0</ele><time>2026-03-29T15:53:42.081Z</time></trkpt><trkpt lat="43.1096183" lon="11.605875"><ele>375.0</ele><time>2026-03-29T15:53:43.081Z</time></trkpt><trkpt lat="43.1097617" lon="11.606015"><ele>375.0</ele><time>2026-03-29T15:53:44.08Z</time></trkpt><trkpt lat="43.1098917" lon="11.6061467"><ele>375.0</ele><time>2026-03-29T15:53:45.08Z</time></trkpt><trkpt lat="43.1100117" lon="11.60627"><ele>375.0</ele><time>2026-03-29T15:53:46.08Z</time></trkpt><trkpt lat="43.1101267" lon="11.6063867"><ele>374.25</ele><time>2026-03-29T15:53:47.081Z</time></trkpt><trkpt lat="43.1102417" lon="11.6064983"><ele>373.5</ele><time>2026-03-29T15:53:48.08Z</time></trkpt><trkpt lat="43.1103483" lon="11.606595"><ele>372.75</ele><time>2026-03-29T15:53:49.081Z</time></trkpt><trkpt lat="43.110445" lon="11.6066783"><ele>372.0</ele><time>2026-03-29T15:53:50.08Z</time></trkpt><trkpt lat="43.1105383" lon="11.606745"><ele>372.0</ele><time>2026-03-29T15:53:51.081Z</time></trkpt><trkpt lat="43.1106367" lon="11.6068"><ele>372.0</ele><time>2026-03-29T15:53:52.081Z</time></trkpt><trkpt lat="43.1107567" lon="11.6068433"><ele>372.0</ele><time>2026-03-29T15:53:53.08Z</time></trkpt><trkpt lat="43.11087" lon="11.6068933"><ele>372.0</ele><time>2026-03-29T15:53:54.081Z</time></trkpt><trkpt lat="43.1109783" lon="11.60696"><ele>370.25</ele><time>2026-03-29T15:53:55.081Z</time></trkpt><trkpt lat="43.1110867" lon="11.60705"><ele>368.5</ele><time>2026-03-29T15:53:56.081Z</time></trkpt><trkpt lat="43.1112067" lon="11.607155"><ele>366.75</ele><time>2026-03-29T15:53:57.08Z</time></trkpt><trkpt lat="43.1113317" lon="11.607265"><ele>365.0</ele><time>2026-03-29T15:53:58.081Z</time></trkpt><trkpt lat="43.111455" lon="11.6073867"><ele>368.0</ele><time>2026-03-29T15:53:59.081Z</time></trkpt><trkpt lat="43.1115883" lon="11.6075067"><ele>371.0</ele><time>2026-03-29T15:54:00.081Z</time></trkpt><trkpt lat="43.1117067" lon="11.6076167"><ele>374.0</ele><time>2026-03-29T15:54:01.08Z</time></trkpt><trkpt lat="43.1118333" lon="11.6077267"><ele>371.0</ele><time>2026-03-29T15:54:02.08Z</time></trkpt><trkpt lat="43.11196" lon="11.6078317"><ele>368.0</ele><time>2026-03-29T15:54:03.081Z</time></trkpt><trkpt lat="43.1120983" lon="11.607955"><ele>365.0</ele><time>2026-03-29T15:54:04.081Z</time></trkpt><trkpt lat="43.1122367" lon="11.608075"><ele>365.0</ele><time>2026-03-29T15:54:05.081Z</time></trkpt><trkpt lat="43.1123733" lon="11.6082133"><ele>365.0</ele><time>2026-03-29T15:54:06.08Z</time></trkpt><trkpt lat="43.1125067" lon="11.6083633"><ele>365.0</ele><time>2026-03-29T15:54:07.081Z</time></trkpt><trkpt lat="43.1126333" lon="11.6085033"><ele>365.0</ele><time>2026-03-29T15:54:08.081Z</time></trkpt><trkpt lat="43.11276" lon="11.6086417"><ele>365.0</ele><time>2026-03-29T15:54:09.081Z</time></trkpt><trkpt lat="43.1128683" lon="11.608795"><ele>365.0</ele><time>2026-03-29T15:54:10.081Z</time></trkpt><trkpt lat="43.1129667" lon="11.6089583"><ele>363.33333333333337</ele><time>2026-03-29T15:54:11.081Z</time></trkpt><trkpt lat="43.1130583" lon="11.6091417"><ele>361.6666666666667</ele><time>2026-03-29T15:54:12.081Z</time></trkpt><trkpt lat="43.11314" lon="11.6093283"><ele>360.0</ele><time>2026-03-29T15:54:13.081Z</time></trkpt><trkpt lat="43.11321" lon="11.6095117"><ele>362.25</ele><time>2026-03-29T15:54:14.081Z</time></trkpt><trkpt lat="43.1132667" lon="11.609695"><ele>364.5</ele><time>2026-03-29T15:54:15.081Z</time></trkpt><trkpt lat="43.11333" lon="11.609865"><ele>366.75</ele><time>2026-03-29T15:54:16.081Z</time></trkpt><trkpt lat="43.1133983" lon="11.61003"><ele>369.0</ele><time>2026-03-29T15:54:17.08Z</time></trkpt><trkpt lat="43.113475" lon="11.6101967"><ele>366.6666666666667</ele><time>2026-03-29T15:54:18.08Z</time></trkpt><trkpt lat="43.1135617" lon="11.61037"><ele>364.33333333333337</ele><time>2026-03-29T15:54:19.08Z</time></trkpt><trkpt lat="43.11365" lon="11.6105367"><ele>362.0</ele><time>2026-03-29T15:54:20.081Z</time></trkpt><trkpt lat="43.1137383" lon="11.6106967"><ele>362.0</ele><time>2026-03-29T15:54:21.081Z</time></trkpt><trkpt lat="43.1138167" lon="11.6108533"><ele>362.0</ele><time>2026-03-29T15:54:22.081Z</time></trkpt><trkpt lat="43.113895" lon="11.61099"><ele>362.0</ele><time>2026-03-29T15:54:23.081Z</time></trkpt><trkpt lat="43.1139717" lon="11.6111067"><ele>362.0</ele><time>2026-03-29T15:54:24.08Z</time></trkpt><trkpt lat="43.1140567" lon="11.6112033"><ele>363.5</ele><time>2026-03-29T15:54:25.081Z</time></trkpt><trkpt lat="43.114154" lon="11.6113155"><ele>365.0</ele><time>2026-03-29T15:54:26.081Z</time></trkpt><trkpt lat="43.1142558" lon="11.6114325"><ele>366.5</ele><time>2026-03-29T15:54:27.081Z</time></trkpt><trkpt lat="43.1143531" lon="11.6115644"><ele>368.0</ele><time>2026-03-29T15:54:28.081Z</time></trkpt><trkpt lat="43.1144445" lon="11.6117082"><ele>368.0</ele><time>2026-03-29T15:54:29.081Z</time></trkpt><trkpt lat="43.1145275" lon="11.611861"><ele>368.0</ele><time>2026-03-29T15:54:30.081Z</time></trkpt><trkpt lat="43.1146035" lon="11.6120216"><ele>368.0</ele><time>2026-03-29T15:54:31.08Z</time></trkpt><trkpt lat="43.1146644" lon="11.6121892"><ele>368.0</ele><time>2026-03-29T15:54:32.081Z</time></trkpt><trkpt lat="43.114706" lon="11.6123654"><ele>366.0</ele><time>2026-03-29T15:54:33.081Z</time></trkpt><trkpt lat="43.114735" lon="11.6125384"><ele>364.0</ele><time>2026-03-29T15:54:34.08Z</time></trkpt><trkpt lat="43.1147702" lon="11.6126943"><ele>362.0</ele><time>2026-03-29T15:54:35.081Z</time></trkpt><trkpt lat="43.1148197" lon="11.6128349"><ele>360.0</ele><time>2026-03-29T15:54:36.08Z</time></trkpt><trkpt lat="43.1148847" lon="11.6129659"><ele>362.5</ele><time>2026-03-29T15:54:37.08Z</time></trkpt><trkpt lat="43.1149728" lon="11.6130981"><ele>365.0</ele><time>2026-03-29T15:54:38.081Z</time></trkpt><trkpt lat="43.1150749" lon="11.6132443"><ele>367.5</ele><time>2026-03-29T15:54:39.08Z</time></trkpt><trkpt lat="43.1151769" lon="11.6134027"><ele>370.0</ele><time>2026-03-29T15:54:40.081Z</time></trkpt><trkpt lat="43.1152775" lon="11.6135575"><ele>368.75</ele><time>2026-03-29T15:54:41.081Z</time></trkpt><trkpt lat="43.1153703" lon="11.6137052"><ele>367.5</ele><time>2026-03-29T15:54:42.08Z</time></trkpt><trkpt lat="43.1154652" lon="11.6138402"><ele>366.25</ele><time>2026-03-29T15:54:43.081Z</time></trkpt><trkpt lat="43.1155681" lon="11.6139621"><ele>365.0</ele><time>2026-03-29T15:54:44.081Z</time></trkpt><trkpt lat="43.1156787" lon="11.614077"><ele>367.75</ele><time>2026-03-29T15:54:45.081Z</time></trkpt><trkpt lat="43.1157947" lon="11.6141844"><ele>370.5</ele><time>2026-03-29T15:54:46.081Z</time></trkpt><trkpt lat="43.1158974" lon="11.6143051"><ele>373.25</ele><time>2026-03-29T15:54:47.081Z</time></trkpt><trkpt lat="43.1159852" lon="11.6144487"><ele>376.0</ele><time>2026-03-29T15:54:48.081Z</time></trkpt><trkpt lat="43.1160465" lon="11.6146159"><ele>376.3333333333333</ele><time>2026-03-29T15:54:49.081Z</time></trkpt><trkpt lat="43.1160943" lon="11.6147972"><ele>376.6666666666667</ele><time>2026-03-29T15:54:50.081Z</time></trkpt><trkpt lat="43.1161198" lon="11.6150063"><ele>377.0</ele><time>2026-03-29T15:54:51.081Z</time></trkpt><trkpt lat="43.1161221" lon="11.6152396"><ele>377.6666666666667</ele><time>2026-03-29T15:54:52.081Z</time></trkpt><trkpt lat="43.1161161" lon="11.6154714"><ele>378.3333333333333</ele><time>2026-03-29T15:54:53.081Z</time></trkpt><trkpt lat="43.1161043" lon="11.6156878"><ele>379.0</ele><time>2026-03-29T15:54:54.081Z</time></trkpt><trkpt lat="43.1160851" lon="11.615898"><ele>379.0</ele><time>2026-03-29T15:54:55.08Z</time></trkpt><trkpt lat="43.1160544" lon="11.6161026"><ele>379.0</ele><time>2026-03-29T15:54:56.081Z</time></trkpt><trkpt lat="43.1159991" lon="11.6163032"><ele>379.0</ele><time>2026-03-29T15:54:57.08Z</time></trkpt><trkpt lat="43.115924" lon="11.6165044"><ele>379.66666666666663</ele><time>2026-03-29T15:54:58.08Z</time></trkpt><trkpt lat="43.115833" lon="11.6167022"><ele>380.3333333333333</ele><time>2026-03-29T15:54:59.08Z</time></trkpt><trkpt lat="43.1157378" lon="11.6168967"><ele>381.0</ele><time>2026-03-29T15:55:00.081Z</time></trkpt><trkpt lat="43.115645" lon="11.6170898"><ele>381.3333333333333</ele><time>2026-03-29T15:55:01.081Z</time></trkpt><trkpt lat="43.1155623" lon="11.6172758"><ele>381.66666666666663</ele><time>2026-03-29T15:55:02.081Z</time></trkpt><trkpt lat="43.1154858" lon="11.6174529"><ele>382.0</ele><time>2026-03-29T15:55:03.081Z</time></trkpt><trkpt lat="43.1154141" lon="11.6176223"><ele>382.0</ele><time>2026-03-29T15:55:04.081Z</time></trkpt><trkpt lat="43.1153505" lon="11.6177864"><ele>382.0</ele><time>2026-03-29T15:55:05.081Z</time></trkpt><trkpt lat="43.1152926" lon="11.6179464"><ele>382.0</ele><time>2026-03-29T15:55:06.081Z</time></trkpt><trkpt lat="43.1152443" lon="11.6180983"><ele>382.0</ele><time>2026-03-29T15:55:07.08Z</time></trkpt><trkpt lat="43.1152109" lon="11.6182272"><ele>383.16666666666663</ele><time>2026-03-29T15:55:08.081Z</time></trkpt><trkpt lat="43.1151906" lon="11.6183316"><ele>384.3333333333333</ele><time>2026-03-29T15:55:09.08Z</time></trkpt><trkpt lat="43.1151679" lon="11.6184673"><ele>385.5</ele><time>2026-03-29T15:55:11.08Z</time></trkpt><trkpt lat="43.1152" lon="11.618555"><ele>386.66666666666663</ele><time>2026-03-29T15:55:14.08Z</time></trkpt><trkpt lat="43.1153117" lon="11.6186"><ele>387.8333333333333</ele><time>2026-03-29T15:55:18.081Z</time></trkpt><trkpt lat="43.1153767" lon="11.6186217"><ele>389.0</ele><time>2026-03-29T15:55:19.081Z</time></trkpt><trkpt lat="43.1154417" lon="11.6186417"><ele>388.6</ele><time>2026-03-29T15:55:20.081Z</time></trkpt><trkpt lat="43.1155217" lon="11.61866"><ele>388.2</ele><time>2026-03-29T15:55:21.081Z</time></trkpt><trkpt lat="43.1156133" lon="11.618675"><ele>387.8</ele><time>2026-03-29T15:55:22.081Z</time></trkpt><trkpt lat="43.115715" lon="11.6186867"><ele>387.40000000000003</ele><time>2026-03-29T15:55:23.081Z</time></trkpt><trkpt lat="43.115815" lon="11.6186933"><ele>387.0</ele><time>2026-03-29T15:55:24.081Z</time></trkpt><trkpt lat="43.115915" lon="11.61869"><ele>386.8</ele><time>2026-03-29T15:55:25.08Z</time></trkpt><trkpt lat="43.1160183" lon="11.6186767"><ele>386.6</ele><time>2026-03-29T15:55:26.081Z</time></trkpt><trkpt lat="43.1161233" lon="11.6186567"><ele>386.40000000000003</ele><time>2026-03-29T15:55:27.08Z</time></trkpt><trkpt lat="43.1162367" lon="11.61862"><ele>386.20000000000005</ele><time>2026-03-29T15:55:28.081Z</time></trkpt><trkpt lat="43.1163483" lon="11.6185783"><ele>386.0</ele><time>2026-03-29T15:55:29.081Z</time></trkpt><trkpt lat="43.11646" lon="11.6185433"><ele>384.0</ele><time>2026-03-29T15:55:30.081Z</time></trkpt><trkpt lat="43.116575" lon="11.6185217"><ele>382.0</ele><time>2026-03-29T15:55:31.08Z</time></trkpt><trkpt lat="43.1166983" lon="11.6185083"><ele>380.0</ele><time>2026-03-29T15:55:32.08Z</time></trkpt><trkpt lat="43.116825" lon="11.61851"><ele>378.0</ele><time>2026-03-29T15:55:33.081Z</time></trkpt><trkpt lat="43.1169583" lon="11.6185217"><ele>378.0</ele><time>2026-03-29T15:55:34.081Z</time></trkpt><trkpt lat="43.1170967" lon="11.61854"><ele>378.0</ele><time>2026-03-29T15:55:35.08Z</time></trkpt><trkpt lat="43.11724" lon="11.618555"><ele>378.0</ele><time>2026-03-29T15:55:36.081Z</time></trkpt><trkpt lat="43.11739" lon="11.6185667"><ele>378.0</ele><time>2026-03-29T15:55:37.08Z</time></trkpt><trkpt lat="43.1175483" lon="11.6185783"><ele>376.3333333333333</ele><time>2026-03-29T15:55:38.081Z</time></trkpt><trkpt lat="43.117715" lon="11.6185883"><ele>374.66666666666663</ele><time>2026-03-29T15:55:39.08Z</time></trkpt><trkpt lat="43.117895" lon="11.6186"><ele>373.0</ele><time>2026-03-29T15:55:40.08Z</time></trkpt><trkpt lat="43.11807" lon="11.6186033"><ele>373.0</ele><time>2026-03-29T15:55:41.081Z</time></trkpt><trkpt lat="43.1182317" lon="11.618605"><ele>373.0</ele><time>2026-03-29T15:55:42.081Z</time></trkpt><trkpt lat="43.1183867" lon="11.6186133"><ele>373.0</ele><time>2026-03-29T15:55:43.08Z</time></trkpt><trkpt lat="43.118545" lon="11.6186183"><ele>372.3333333333333</ele><time>2026-03-29T15:55:44.081Z</time></trkpt><trkpt lat="43.1187" lon="11.6186267"><ele>371.6666666666667</ele><time>2026-03-29T15:55:45.081Z</time></trkpt><trkpt lat="43.11886" lon="11.618645"><ele>371.0</ele><time>2026-03-29T15:55:46.081Z</time></trkpt><trkpt lat="43.1190183" lon="11.6186633"><ele>370.33333333333337</ele><time>2026-03-29T15:55:47.081Z</time></trkpt><trkpt lat="43.1191717" lon="11.6186833"><ele>369.6666666666667</ele><time>2026-03-29T15:55:48.081Z</time></trkpt><trkpt lat="43.1193283" lon="11.6187033"><ele>369.0</ele><time>2026-03-29T15:55:49.081Z</time></trkpt><trkpt lat="43.1194867" lon="11.61872"><ele>369.0</ele><time>2026-03-29T15:55:50.081Z</time></trkpt><trkpt lat="43.1196433" lon="11.618735"><ele>369.0</ele><time>2026-03-29T15:55:51.08Z</time></trkpt><trkpt lat="43.11979" lon="11.6187483"><ele>369.0</ele><time>2026-03-29T15:55:52.081Z</time></trkpt><trkpt lat="43.1199367" lon="11.6187583"><ele>370.5</ele><time>2026-03-29T15:55:53.081Z</time></trkpt><trkpt lat="43.12008" lon="11.6187667"><ele>372.0</ele><time>2026-03-29T15:55:54.081Z</time></trkpt><trkpt lat="43.12022" lon="11.61878"><ele>373.5</ele><time>2026-03-29T15:55:55.08Z</time></trkpt><trkpt lat="43.12034" lon="11.6187933"><ele>375.0</ele><time>2026-03-29T15:55:56.08Z</time></trkpt><trkpt lat="43.1204617" lon="11.6188"><ele>375.0</ele><time>2026-03-29T15:55:57.081Z</time></trkpt><trkpt lat="43.12058" lon="11.6187867"><ele>375.0</ele><time>2026-03-29T15:55:58.081Z</time></trkpt><trkpt lat="43.1206983" lon="11.618745"><ele>375.0</ele><time>2026-03-29T15:55:59.081Z</time></trkpt><trkpt lat="43.1208167" lon="11.618675"><ele>375.0</ele><time>2026-03-29T15:56:00.081Z</time></trkpt><trkpt lat="43.1209433" lon="11.61859"><ele>376.6666666666667</ele><time>2026-03-29T15:56:01.081Z</time></trkpt><trkpt lat="43.1210667" lon="11.61847"><ele>378.33333333333337</ele><time>2026-03-29T15:56:02.08Z</time></trkpt><trkpt lat="43.1212033" lon="11.618345"><ele>380.0</ele><time>2026-03-29T15:56:03.081Z</time></trkpt><trkpt lat="43.1213217" lon="11.618225"><ele>380.0</ele><time>2026-03-29T15:56:04.081Z</time></trkpt><trkpt lat="43.12143" lon="11.6181083"><ele>380.0</ele><time>2026-03-29T15:56:05.08Z</time></trkpt><trkpt lat="43.1215333" lon="11.6179967"><ele>380.0</ele><time>2026-03-29T15:56:06.081Z</time></trkpt><trkpt lat="43.121645" lon="11.6178733"><ele>380.0</ele><time>2026-03-29T15:56:07.08Z</time></trkpt><trkpt lat="43.1217583" lon="11.6177533"><ele>381.0</ele><time>2026-03-29T15:56:08.081Z</time></trkpt><trkpt lat="43.1218783" lon="11.61762"><ele>382.0</ele><time>2026-03-29T15:56:09.081Z</time></trkpt><trkpt lat="43.1220133" lon="11.6174883"><ele>383.0</ele><time>2026-03-29T15:56:10.081Z</time></trkpt><trkpt lat="43.1221583" lon="11.6173433"><ele>383.0</ele><time>2026-03-29T15:56:11.081Z</time></trkpt><trkpt lat="43.1222983" lon="11.6171967"><ele>383.0</ele><time>2026-03-29T15:56:12.08Z</time></trkpt><trkpt lat="43.1224267" lon="11.6170567"><ele>383.0</ele><time>2026-03-29T15:56:13.08Z</time></trkpt><trkpt lat="43.1225417" lon="11.6169083"><ele>380.0</ele><time>2026-03-29T15:56:14.081Z</time></trkpt><trkpt lat="43.1226483" lon="11.616735"><ele>377.0</ele><time>2026-03-29T15:56:15.081Z</time></trkpt><trkpt lat="43.1227533" lon="11.6165567"><ele>374.0</ele><time>2026-03-29T15:56:16.08Z</time></trkpt><trkpt lat="43.1228633" lon="11.6163617"><ele>374.0</ele><time>2026-03-29T15:56:17.081Z</time></trkpt><trkpt lat="43.12295" lon="11.6161533"><ele>374.0</ele><time>2026-03-29T15:56:18.08Z</time></trkpt><trkpt lat="43.1230433" lon="11.6159533"><ele>374.0</ele><time>2026-03-29T15:56:19.08Z</time></trkpt><trkpt lat="43.1231367" lon="11.6157583"><ele>374.33333333333337</ele><time>2026-03-29T15:56:20.08Z</time></trkpt><trkpt lat="43.1232233" lon="11.61557"><ele>374.6666666666667</ele><time>2026-03-29T15:56:21.081Z</time></trkpt><trkpt lat="43.1233233" lon="11.615385"><ele>375.0</ele><time>2026-03-29T15:56:22.081Z</time></trkpt><trkpt lat="43.1234383" lon="11.6152117"><ele>376.75</ele><time>2026-03-29T15:56:23.081Z</time></trkpt><trkpt lat="43.1235417" lon="11.6150483"><ele>378.5</ele><time>2026-03-29T15:56:24.081Z</time></trkpt><trkpt lat="43.1236367" lon="11.6149183"><ele>380.25</ele><time>2026-03-29T15:56:25.081Z</time></trkpt><trkpt lat="43.1237233" lon="11.614775"><ele>382.0</ele><time>2026-03-29T15:56:26.08Z</time></trkpt><trkpt lat="43.1238233" lon="11.6146617"><ele>382.0</ele><time>2026-03-29T15:56:27.081Z</time></trkpt><trkpt lat="43.1239417" lon="11.6145533"><ele>382.0</ele><time>2026-03-29T15:56:28.081Z</time></trkpt><trkpt lat="43.12408" lon="11.614475"><ele>382.0</ele><time>2026-03-29T15:56:29.08Z</time></trkpt><trkpt lat="43.124215" lon="11.61442"><ele>382.0</ele><time>2026-03-29T15:56:30.08Z</time></trkpt><trkpt lat="43.12434" lon="11.6143533"><ele>384.3333333333333</ele><time>2026-03-29T15:56:31.081Z</time></trkpt><trkpt lat="43.1244867" lon="11.6143167"><ele>386.66666666666663</ele><time>2026-03-29T15:56:32.081Z</time></trkpt><trkpt lat="43.1246467" lon="11.6142883"><ele>389.0</ele><time>2026-03-29T15:56:33.081Z</time></trkpt><trkpt lat="43.1248033" lon="11.61428"><ele>386.66666666666663</ele><time>2026-03-29T15:56:34.08Z</time></trkpt><trkpt lat="43.1249517" lon="11.614285"><ele>384.3333333333333</ele><time>2026-03-29T15:56:35.081Z</time></trkpt><trkpt lat="43.125095" lon="11.6143083"><ele>382.0</ele><time>2026-03-29T15:56:36.081Z</time></trkpt><trkpt lat="43.1252533" lon="11.6143883"><ele>382.0</ele><time>2026-03-29T15:56:37.081Z</time></trkpt><trkpt lat="43.125405" lon="11.61448"><ele>382.0</ele><time>2026-03-29T15:56:38.081Z</time></trkpt><trkpt lat="43.1255483" lon="11.6145433"><ele>382.0</ele><time>2026-03-29T15:56:39.081Z</time></trkpt><trkpt lat="43.12568" lon="11.6145733"><ele>380.3333333333333</ele><time>2026-03-29T15:56:40.081Z</time></trkpt><trkpt lat="43.1258267" lon="11.6145683"><ele>378.6666666666667</ele><time>2026-03-29T15:56:41.081Z</time></trkpt><trkpt lat="43.12599" lon="11.6145433"><ele>377.0</ele><time>2026-03-29T15:56:42.081Z</time></trkpt><trkpt lat="43.126155" lon="11.61452"><ele>377.0</ele><time>2026-03-29T15:56:43.081Z</time></trkpt><trkpt lat="43.1263133" lon="11.6144983"><ele>377.0</ele><time>2026-03-29T15:56:44.08Z</time></trkpt><trkpt lat="43.1264667" lon="11.6144867"><ele>377.0</ele><time>2026-03-29T15:56:45.081Z</time></trkpt><trkpt lat="43.12662" lon="11.6144783"><ele>377.25</ele><time>2026-03-29T15:56:46.081Z</time></trkpt><trkpt lat="43.1267717" lon="11.6144733"><ele>377.5</ele><time>2026-03-29T15:56:47.081Z</time></trkpt><trkpt lat="43.126905" lon="11.6144633"><ele>377.75</ele><time>2026-03-29T15:56:48.081Z</time></trkpt><trkpt lat="43.1270233" lon="11.6144517"><ele>378.0</ele><time>2026-03-29T15:56:49.081Z</time></trkpt><trkpt lat="43.1271367" lon="11.6144333"><ele>378.0</ele><time>2026-03-29T15:56:50.08Z</time></trkpt><trkpt lat="43.1272283" lon="11.614395"><ele>378.0</ele><time>2026-03-29T15:56:51.08Z</time></trkpt><trkpt lat="43.1273167" lon="11.6143483"><ele>378.0</ele><time>2026-03-29T15:56:52.081Z</time></trkpt><trkpt lat="43.127395" lon="11.6142783"><ele>378.0</ele><time>2026-03-29T15:56:53.081Z</time></trkpt><trkpt lat="43.127455" lon="11.614195"><ele>378.0</ele><time>2026-03-29T15:56:54.081Z</time></trkpt><trkpt lat="43.1275083" lon="11.6141267"><ele>378.0</ele><time>2026-03-29T15:56:55.081Z</time></trkpt><trkpt lat="43.12758" lon="11.61402"><ele>377.5</ele><time>2026-03-29T15:56:57.081Z</time></trkpt><trkpt lat="43.1276233" lon="11.6139467"><ele>377.0</ele><time>2026-03-29T15:56:59.081Z</time></trkpt><trkpt lat="43.1276717" lon="11.6138717"><ele>376.5</ele><time>2026-03-29T15:57:02.081Z</time></trkpt><trkpt lat="43.1277467" lon="11.6137917"><ele>376.0</ele><time>2026-03-29T15:57:04.08Z</time></trkpt><trkpt lat="43.1277967" lon="11.61373"><ele>375.5</ele><time>2026-03-29T15:57:05.081Z</time></trkpt><trkpt lat="43.12785" lon="11.6136583"><ele>375.0</ele><time>2026-03-29T15:57:06.081Z</time></trkpt><trkpt lat="43.1279033" lon="11.6135867"><ele>374.0</ele><time>2026-03-29T15:57:07.081Z</time></trkpt><trkpt lat="43.127955" lon="11.6135083"><ele>373.0</ele><time>2026-03-29T15:57:08.08Z</time></trkpt><trkpt lat="43.1280233" lon="11.6134367"><ele>372.0</ele><time>2026-03-29T15:57:09.081Z</time></trkpt><trkpt lat="43.1281083" lon="11.6133717"><ele>371.0</ele><time>2026-03-29T15:57:10.081Z</time></trkpt><trkpt lat="43.1282033" lon="11.613305"><ele>370.0</ele><time>2026-03-29T15:57:11.081Z</time></trkpt><trkpt lat="43.1283017" lon="11.6132383"><ele>369.6</ele><time>2026-03-29T15:57:12.081Z</time></trkpt><trkpt lat="43.1283983" lon="11.613175"><ele>369.2</ele><time>2026-03-29T15:57:13.081Z</time></trkpt><trkpt lat="43.1284967" lon="11.6131133"><ele>368.79999999999995</ele><time>2026-03-29T15:57:14.081Z</time></trkpt><trkpt lat="43.128585" lon="11.6130467"><ele>368.4</ele><time>2026-03-29T15:57:15.081Z</time></trkpt><trkpt lat="43.1286733" lon="11.61299"><ele>368.0</ele><time>2026-03-29T15:57:16.08Z</time></trkpt><trkpt lat="43.1287383" lon="11.6129167"><ele>368.0</ele><time>2026-03-29T15:57:17.081Z</time></trkpt><trkpt lat="43.1287867" lon="11.61285"><ele>368.0</ele><time>2026-03-29T15:57:18.081Z</time></trkpt><trkpt lat="43.1288183" lon="11.6127667"><ele>368.0</ele><time>2026-03-29T15:57:19.081Z</time></trkpt><trkpt lat="43.1288283" lon="11.6126767"><ele>368.0</ele><time>2026-03-29T15:57:20.081Z</time></trkpt><trkpt lat="43.1288317" lon="11.6125617"><ele>368.0</ele><time>2026-03-29T15:57:21.081Z</time></trkpt><trkpt lat="43.128835" lon="11.6124283"><ele>368.0</ele><time>2026-03-29T15:57:22.081Z</time></trkpt><trkpt lat="43.1288417" lon="11.6122867"><ele>366.59999999999997</ele><time>2026-03-29T15:57:23.081Z</time></trkpt><trkpt lat="43.1288417" lon="11.612155"><ele>365.2</ele><time>2026-03-29T15:57:24.08Z</time></trkpt><trkpt lat="43.1288433" lon="11.612025"><ele>363.8</ele><time>2026-03-29T15:57:25.08Z</time></trkpt><trkpt lat="43.128845" lon="11.6118867"><ele>362.4</ele><time>2026-03-29T15:57:26.08Z</time></trkpt><trkpt lat="43.1288533" lon="11.611745"><ele>361.0</ele><time>2026-03-29T15:57:27.08Z</time></trkpt><trkpt lat="43.12886" lon="11.6115983"><ele>359.25</ele><time>2026-03-29T15:57:28.081Z</time></trkpt><trkpt lat="43.1288733" lon="11.611445"><ele>357.5</ele><time>2026-03-29T15:57:29.081Z</time></trkpt><trkpt lat="43.1288783" lon="11.611295"><ele>355.75</ele><time>2026-03-29T15:57:30.08Z</time></trkpt><trkpt lat="43.1288833" lon="11.6111367"><ele>354.0</ele><time>2026-03-29T15:57:31.081Z</time></trkpt><trkpt lat="43.1288917" lon="11.6109717"><ele>353.5</ele><time>2026-03-29T15:57:32.08Z</time></trkpt><trkpt lat="43.128895" lon="11.6108033"><ele>353.0</ele><time>2026-03-29T15:57:33.08Z</time></trkpt><trkpt lat="43.1288917" lon="11.61062"><ele>352.5</ele><time>2026-03-29T15:57:34.08Z</time></trkpt><trkpt lat="43.12888" lon="11.610425"><ele>352.0</ele><time>2026-03-29T15:57:35.08Z</time></trkpt><trkpt lat="43.12885" lon="11.6102083"><ele>354.3333333333333</ele><time>2026-03-29T15:57:36.08Z</time></trkpt><trkpt lat="43.1287967" lon="11.6099883"><ele>356.6666666666667</ele><time>2026-03-29T15:57:37.081Z</time></trkpt><trkpt lat="43.1287283" lon="11.6097683"><ele>359.0</ele><time>2026-03-29T15:57:38.08Z</time></trkpt><trkpt lat="43.1286417" lon="11.6095433"><ele>362.33333333333337</ele><time>2026-03-29T15:57:39.081Z</time></trkpt><trkpt lat="43.1285517" lon="11.609325"><ele>365.6666666666667</ele><time>2026-03-29T15:57:40.08Z</time></trkpt><trkpt lat="43.1284667" lon="11.6091267"><ele>369.0</ele><time>2026-03-29T15:57:41.08Z</time></trkpt><trkpt lat="43.128385" lon="11.6089333"><ele>369.0</ele><time>2026-03-29T15:57:42.081Z</time></trkpt><trkpt lat="43.1283167" lon="11.6087483"><ele>369.0</ele><time>2026-03-29T15:57:43.081Z</time></trkpt><trkpt lat="43.1282417" lon="11.6085733"><ele>369.0</ele><time>2026-03-29T15:57:44.081Z</time></trkpt><trkpt lat="43.1281583" lon="11.60841"><ele>369.0</ele><time>2026-03-29T15:57:45.081Z</time></trkpt><trkpt lat="43.128065" lon="11.6082517"><ele>369.25</ele><time>2026-03-29T15:57:46.081Z</time></trkpt><trkpt lat="43.12797" lon="11.6081017"><ele>369.5</ele><time>2026-03-29T15:57:47.08Z</time></trkpt><trkpt lat="43.127875" lon="11.607955"><ele>369.75</ele><time>2026-03-29T15:57:48.08Z</time></trkpt><trkpt lat="43.127795" lon="11.6078"><ele>370.0</ele><time>2026-03-29T15:57:49.081Z</time></trkpt><trkpt lat="43.1277217" lon="11.607625"><ele>370.0</ele><time>2026-03-29T15:57:50.08Z</time></trkpt><trkpt lat="43.12766" lon="11.6074667"><ele>370.0</ele><time>2026-03-29T15:57:51.081Z</time></trkpt><trkpt lat="43.1276083" lon="11.6073167"><ele>370.0</ele><time>2026-03-29T15:57:52.08Z</time></trkpt><trkpt lat="43.12756" lon="11.6071867"><ele>370.0</ele><time>2026-03-29T15:57:53.081Z</time></trkpt><trkpt lat="43.1275217" lon="11.6070667"><ele>370.5</ele><time>2026-03-29T15:57:54.081Z</time></trkpt><trkpt lat="43.1274817" lon="11.60694"><ele>371.0</ele><time>2026-03-29T15:57:55.081Z</time></trkpt><trkpt lat="43.1274467" lon="11.6067983"><ele>371.5</ele><time>2026-03-29T15:57:56.081Z</time></trkpt><trkpt lat="43.1274083" lon="11.6066467"><ele>372.0</ele><time>2026-03-29T15:57:57.081Z</time></trkpt><trkpt lat="43.1273783" lon="11.6064833"><ele>369.5</ele><time>2026-03-29T15:57:58.08Z</time></trkpt><trkpt lat="43.127355" lon="11.6063033"><ele>367.0</ele><time>2026-03-29T15:57:59.08Z</time></trkpt><trkpt lat="43.127315" lon="11.6061333"><ele>364.5</ele><time>2026-03-29T15:58:00.081Z</time></trkpt><trkpt lat="43.1272667" lon="11.6059733"><ele>362.0</ele><time>2026-03-29T15:58:01.08Z</time></trkpt><trkpt lat="43.1271933" lon="11.605835"><ele>362.0</ele><time>2026-03-29T15:58:02.081Z</time></trkpt><trkpt lat="43.1270933" lon="11.60569"><ele>362.0</ele><time>2026-03-29T15:58:03.08Z</time></trkpt><trkpt lat="43.1269633" lon="11.6055367"><ele>362.0</ele><time>2026-03-29T15:58:04.081Z</time></trkpt><trkpt lat="43.126805" lon="11.60537"><ele>362.33333333333337</ele><time>2026-03-29T15:58:05.081Z</time></trkpt><trkpt lat="43.1266617" lon="11.6052183"><ele>362.6666666666667</ele><time>2026-03-29T15:58:06.08Z</time></trkpt><trkpt lat="43.126535" lon="11.6050617"><ele>363.0</ele><time>2026-03-29T15:58:07.081Z</time></trkpt><trkpt lat="43.1264267" lon="11.604875"><ele>362.3333333333333</ele><time>2026-03-29T15:58:08.081Z</time></trkpt><trkpt lat="43.126325" lon="11.60467"><ele>361.66666666666663</ele><time>2026-03-29T15:58:09.08Z</time></trkpt><trkpt lat="43.1262017" lon="11.6044067"><ele>361.0</ele><time>2026-03-29T15:58:10.081Z</time></trkpt><trkpt lat="43.126075" lon="11.6041117"><ele>363.0</ele><time>2026-03-29T15:58:11.08Z</time></trkpt><trkpt lat="43.1259317" lon="11.6038133"><ele>365.0</ele><time>2026-03-29T15:58:12.081Z</time></trkpt><trkpt lat="43.1258017" lon="11.6035333"><ele>364.0</ele><time>2026-03-29T15:58:13.081Z</time></trkpt><trkpt lat="43.1256967" lon="11.6032667"><ele>363.0</ele><time>2026-03-29T15:58:14.08Z</time></trkpt><trkpt lat="43.1255983" lon="11.6030217"><ele>362.0</ele><time>2026-03-29T15:58:15.08Z</time></trkpt><trkpt lat="43.125515" lon="11.6028033"><ele>362.0</ele><time>2026-03-29T15:58:16.081Z</time></trkpt><trkpt lat="43.1254283" lon="11.6025883"><ele>362.0</ele><time>2026-03-29T15:58:17.081Z</time></trkpt><trkpt lat="43.125345" lon="11.602385"><ele>362.0</ele><time>2026-03-29T15:58:18.081Z</time></trkpt><trkpt lat="43.1252583" lon="11.6021867"><ele>363.6666666666667</ele><time>2026-03-29T15:58:19.081Z</time></trkpt><trkpt lat="43.125175" lon="11.6019883"><ele>365.3333333333333</ele><time>2026-03-29T15:58:20.081Z</time></trkpt><trkpt lat="43.125095" lon="11.601785"><ele>367.0</ele><time>2026-03-29T15:58:21.081Z</time></trkpt><trkpt lat="43.1250267" lon="11.6015783"><ele>367.0</ele><time>2026-03-29T15:58:22.08Z</time></trkpt><trkpt lat="43.12496" lon="11.6013667"><ele>367.0</ele><time>2026-03-29T15:58:23.08Z</time></trkpt><trkpt lat="43.1248917" lon="11.60116"><ele>367.0</ele><time>2026-03-29T15:58:24.081Z</time></trkpt><trkpt lat="43.124815" lon="11.6009617"><ele>365.66666666666663</ele><time>2026-03-29T15:58:25.08Z</time></trkpt><trkpt lat="43.1247467" lon="11.6007733"><ele>364.3333333333333</ele><time>2026-03-29T15:58:26.08Z</time></trkpt><trkpt lat="43.12467" lon="11.60058"><ele>363.0</ele><time>2026-03-29T15:58:27.081Z</time></trkpt><trkpt lat="43.1245817" lon="11.600395"><ele>365.6666666666667</ele><time>2026-03-29T15:58:28.081Z</time></trkpt><trkpt lat="43.12449" lon="11.6002183"><ele>368.33333333333337</ele><time>2026-03-29T15:58:29.08Z</time></trkpt><trkpt lat="43.1244017" lon="11.6000467"><ele>371.0</ele><time>2026-03-29T15:58:30.081Z</time></trkpt><trkpt lat="43.124315" lon="11.5998767"><ele>371.0</ele><time>2026-03-29T15:58:31.081Z</time></trkpt><trkpt lat="43.1242383" lon="11.5997133"><ele>371.0</ele><time>2026-03-29T15:58:32.081Z</time></trkpt><trkpt lat="43.124155" lon="11.5995667"><ele>371.0</ele><time>2026-03-29T15:58:33.08Z</time></trkpt><trkpt lat="43.1241" lon="11.5994267"><ele>371.0</ele><time>2026-03-29T15:58:34.081Z</time></trkpt><trkpt lat="43.1240583" lon="11.59929"><ele>370.75</ele><time>2026-03-29T15:58:35.08Z</time></trkpt><trkpt lat="43.1240567" lon="11.59914"><ele>370.5</ele><time>2026-03-29T15:58:36.081Z</time></trkpt><trkpt lat="43.1240717" lon="11.598985"><ele>370.25</ele><time>2026-03-29T15:58:37.08Z</time></trkpt><trkpt lat="43.1241133" lon="11.5988433"><ele>370.0</ele><time>2026-03-29T15:58:38.081Z</time></trkpt><trkpt lat="43.1241767" lon="11.5986683"><ele>369.3333333333333</ele><time>2026-03-29T15:58:39.081Z</time></trkpt><trkpt lat="43.1242533" lon="11.598475"><ele>368.6666666666667</ele><time>2026-03-29T15:58:40.081Z</time></trkpt><trkpt lat="43.1243033" lon="11.5982833"><ele>368.0</ele><time>2026-03-29T15:58:41.08Z</time></trkpt><trkpt lat="43.1243367" lon="11.5980733"><ele>367.33333333333337</ele><time>2026-03-29T15:58:42.08Z</time></trkpt><trkpt lat="43.1243533" lon="11.5978317"><ele>366.6666666666667</ele><time>2026-03-29T15:58:43.081Z</time></trkpt><trkpt lat="43.1243617" lon="11.597575"><ele>366.0</ele><time>2026-03-29T15:58:44.08Z</time></trkpt><trkpt lat="43.1243783" lon="11.5973233"><ele>366.0</ele><time>2026-03-29T15:58:45.081Z</time></trkpt><trkpt lat="43.1243983" lon="11.5971"><ele>366.0</ele><time>2026-03-29T15:58:46.081Z</time></trkpt><trkpt lat="43.1244083" lon="11.59689"><ele>366.0</ele><time>2026-03-29T15:58:47.081Z</time></trkpt><trkpt lat="43.1244183" lon="11.596685"><ele>363.6666666666667</ele><time>2026-03-29T15:58:48.081Z</time></trkpt><trkpt lat="43.12443" lon="11.596475"><ele>361.33333333333337</ele><time>2026-03-29T15:58:49.081Z</time></trkpt><trkpt lat="43.12445" lon="11.5962683"><ele>359.0</ele><time>2026-03-29T15:58:50.081Z</time></trkpt><trkpt lat="43.12448" lon="11.5960667"><ele>359.0</ele><time>2026-03-29T15:58:51.081Z</time></trkpt><trkpt lat="43.1244933" lon="11.5958767"><ele>359.0</ele><time>2026-03-29T15:58:52.081Z</time></trkpt><trkpt lat="43.124495" lon="11.5956967"><ele>359.0</ele><time>2026-03-29T15:58:53.08Z</time></trkpt><trkpt lat="43.12448" lon="11.5955117"><ele>359.0</ele><time>2026-03-29T15:58:54.08Z</time></trkpt><trkpt lat="43.1244517" lon="11.595345"><ele>360.6666666666667</ele><time>2026-03-29T15:58:55.08Z</time></trkpt><trkpt lat="43.124405" lon="11.59515"><ele>362.3333333333333</ele><time>2026-03-29T15:58:56.081Z</time></trkpt><trkpt lat="43.1243483" lon="11.5949367"><ele>364.0</ele><time>2026-03-29T15:58:57.081Z</time></trkpt><trkpt lat="43.1242817" lon="11.5947267"><ele>364.0</ele><time>2026-03-29T15:58:58.081Z</time></trkpt><trkpt lat="43.1242217" lon="11.5945517"><ele>364.0</ele><time>2026-03-29T15:58:59.08Z</time></trkpt><trkpt lat="43.1241817" lon="11.5944017"><ele>364.0</ele><time>2026-03-29T15:59:00.08Z</time></trkpt><trkpt lat="43.1241567" lon="11.5942767"><ele>364.0</ele><time>2026-03-29T15:59:01.081Z</time></trkpt><trkpt lat="43.12414" lon="11.5941717"><ele>364.0</ele><time>2026-03-29T15:59:02.081Z</time></trkpt><trkpt lat="43.1241333" lon="11.5940667"><ele>364.3333333333333</ele><time>2026-03-29T15:59:03.081Z</time></trkpt><trkpt lat="43.124135" lon="11.5939533"><ele>364.66666666666663</ele><time>2026-03-29T15:59:04.081Z</time></trkpt><trkpt lat="43.12414" lon="11.59384"><ele>365.0</ele><time>2026-03-29T15:59:05.08Z</time></trkpt><trkpt lat="43.1241483" lon="11.5937183"><ele>365.3333333333333</ele><time>2026-03-29T15:59:06.081Z</time></trkpt><trkpt lat="43.12415" lon="11.593595"><ele>365.6666666666667</ele><time>2026-03-29T15:59:07.081Z</time></trkpt><trkpt lat="43.12415" lon="11.5934783"><ele>366.0</ele><time>2026-03-29T15:59:08.081Z</time></trkpt><trkpt lat="43.12415" lon="11.5933867"><ele>366.6</ele><time>2026-03-29T15:59:09.08Z</time></trkpt><trkpt lat="43.1241717" lon="11.593265"><ele>367.20000000000005</ele><time>2026-03-29T15:59:11.08Z</time></trkpt><trkpt lat="43.124245" lon="11.593225"><ele>367.79999999999995</ele><time>2026-03-29T15:59:13.081Z</time></trkpt><trkpt lat="43.1243633" lon="11.59319"><ele>368.4</ele><time>2026-03-29T15:59:15.081Z</time></trkpt><trkpt lat="43.1244367" lon="11.5931533"><ele>369.0</ele><time>2026-03-29T15:59:16.08Z</time></trkpt><trkpt lat="43.1245183" lon="11.5931317"><ele>369.0</ele><time>2026-03-29T15:59:17.081Z</time></trkpt><trkpt lat="43.1246083" lon="11.5930833"><ele>369.0</ele><time>2026-03-29T15:59:18.08Z</time></trkpt><trkpt lat="43.1247033" lon="11.5930267"><ele>369.0</ele><time>2026-03-29T15:59:19.08Z</time></trkpt><trkpt lat="43.1248083" lon="11.5929583"><ele>369.0</ele><time>2026-03-29T15:59:20.081Z</time></trkpt><trkpt lat="43.1249167" lon="11.59289"><ele>369.0</ele><time>2026-03-29T15:59:21.081Z</time></trkpt><trkpt lat="43.1250317" lon="11.5928317"><ele>370.25</ele><time>2026-03-29T15:59:22.08Z</time></trkpt><trkpt lat="43.1251417" lon="11.5927633"><ele>371.5</ele><time>2026-03-29T15:59:23.081Z</time></trkpt><trkpt lat="43.125255" lon="11.592705"><ele>372.75</ele><time>2026-03-29T15:59:24.08Z</time></trkpt><trkpt lat="43.125375" lon="11.5926467"><ele>374.0</ele><time>2026-03-29T15:59:25.08Z</time></trkpt><trkpt lat="43.1255033" lon="11.59261"><ele>374.0</ele><time>2026-03-29T15:59:26.081Z</time></trkpt><trkpt lat="43.1256367" lon="11.592575"><ele>374.0</ele><time>2026-03-29T15:59:27.081Z</time></trkpt><trkpt lat="43.1257533" lon="11.5925367"><ele>374.0</ele><time>2026-03-29T15:59:28.081Z</time></trkpt><trkpt lat="43.1258617" lon="11.59249"><ele>374.0</ele><time>2026-03-29T15:59:29.081Z</time></trkpt><trkpt lat="43.12596" lon="11.5924383"><ele>371.0</ele><time>2026-03-29T15:59:30.08Z</time></trkpt><trkpt lat="43.1260417" lon="11.592365"><ele>368.0</ele><time>2026-03-29T15:59:31.08Z</time></trkpt><trkpt lat="43.1261217" lon="11.592255"><ele>365.0</ele><time>2026-03-29T15:59:32.08Z</time></trkpt><trkpt lat="43.126195" lon="11.5921217"><ele>362.0</ele><time>2026-03-29T15:59:33.081Z</time></trkpt><trkpt lat="43.12626" lon="11.5919633"><ele>362.0</ele><time>2026-03-29T15:59:34.08Z</time></trkpt><trkpt lat="43.1263183" lon="11.591815"><ele>362.0</ele><time>2026-03-29T15:59:35.081Z</time></trkpt><trkpt lat="43.12637" lon="11.5916717"><ele>362.0</ele><time>2026-03-29T15:59:36.08Z</time></trkpt><trkpt lat="43.1264083" lon="11.5915333"><ele>362.0</ele><time>2026-03-29T15:59:37.08Z</time></trkpt><trkpt lat="43.1264417" lon="11.5914"><ele>362.0</ele><time>2026-03-29T15:59:38.081Z</time></trkpt><trkpt lat="43.12646" lon="11.5912967"><ele>362.0</ele><time>2026-03-29T15:59:39.081Z</time></trkpt><trkpt lat="43.1264567" lon="11.591185"><ele>362.0</ele><time>2026-03-29T15:59:40.08Z</time></trkpt><trkpt lat="43.1264317" lon="11.5910717"><ele>362.0</ele><time>2026-03-29T15:59:41.081Z</time></trkpt><trkpt lat="43.1264" lon="11.59094"><ele>362.0</ele><time>2026-03-29T15:59:42.081Z</time></trkpt><trkpt lat="43.1263733" lon="11.59081"><ele>362.0</ele><time>2026-03-29T15:59:43.081Z</time></trkpt><trkpt lat="43.1263417" lon="11.5906917"><ele>359.8</ele><time>2026-03-29T15:59:44.081Z</time></trkpt><trkpt lat="43.1263167" lon="11.5905733"><ele>357.6</ele><time>2026-03-29T15:59:45.08Z</time></trkpt><trkpt lat="43.1263083" lon="11.5904467"><ele>355.40000000000003</ele><time>2026-03-29T15:59:46.081Z</time></trkpt><trkpt lat="43.12632" lon="11.5903233"><ele>353.20000000000005</ele><time>2026-03-29T15:59:47.081Z</time></trkpt><trkpt lat="43.1263567" lon="11.5902017"><ele>351.0</ele><time>2026-03-29T15:59:48.081Z</time></trkpt><trkpt lat="43.1264167" lon="11.59008"><ele>349.5</ele><time>2026-03-29T15:59:49.08Z</time></trkpt><trkpt lat="43.1264933" lon="11.58996"><ele>348.0</ele><time>2026-03-29T15:59:50.08Z</time></trkpt><trkpt lat="43.1265733" lon="11.5898367"><ele>346.5</ele><time>2026-03-29T15:59:51.081Z</time></trkpt><trkpt lat="43.1266583" lon="11.5897067"><ele>345.0</ele><time>2026-03-29T15:59:52.081Z</time></trkpt><trkpt lat="43.1267517" lon="11.5895683"><ele>342.6666666666667</ele><time>2026-03-29T15:59:53.08Z</time></trkpt><trkpt lat="43.12685" lon="11.5894217"><ele>340.33333333333337</ele><time>2026-03-29T15:59:54.081Z</time></trkpt><trkpt lat="43.126955" lon="11.5892667"><ele>338.0</ele><time>2026-03-29T15:59:55.081Z</time></trkpt><trkpt lat="43.1270617" lon="11.5891"><ele>338.0</ele><time>2026-03-29T15:59:56.081Z</time></trkpt><trkpt lat="43.1271633" lon="11.58897"><ele>338.0</ele><time>2026-03-29T15:59:57.081Z</time></trkpt><trkpt lat="43.1272667" lon="11.58884"><ele>338.0</ele><time>2026-03-29T15:59:58.081Z</time></trkpt><trkpt lat="43.1273567" lon="11.58869"><ele>338.0</ele><time>2026-03-29T15:59:59.081Z</time></trkpt><trkpt lat="43.1274517" lon="11.58857"><ele>337.5</ele><time>2026-03-29T16:00:00.08Z</time></trkpt><trkpt lat="43.12754" lon="11.5884433"><ele>337.0</ele><time>2026-03-29T16:00:01.081Z</time></trkpt><trkpt lat="43.127615" lon="11.5883267"><ele>336.5</ele><time>2026-03-29T16:00:02.08Z</time></trkpt><trkpt lat="43.127695" lon="11.5882233"><ele>336.0</ele><time>2026-03-29T16:00:03.08Z</time></trkpt><trkpt lat="43.127765" lon="11.58812"><ele>336.0</ele><time>2026-03-29T16:00:04.081Z</time></trkpt><trkpt lat="43.1278217" lon="11.588"><ele>336.0</ele><time>2026-03-29T16:00:05.081Z</time></trkpt><trkpt lat="43.1278717" lon="11.5878583"><ele>336.0</ele><time>2026-03-29T16:00:06.081Z</time></trkpt><trkpt lat="43.1279133" lon="11.5876983"><ele>336.0</ele><time>2026-03-29T16:00:07.081Z</time></trkpt><trkpt lat="43.127945" lon="11.58751"><ele>335.3333333333333</ele><time>2026-03-29T16:00:08.081Z</time></trkpt><trkpt lat="43.1279733" lon="11.587305"><ele>334.66666666666663</ele><time>2026-03-29T16:00:09.081Z</time></trkpt><trkpt lat="43.1280117" lon="11.587105"><ele>334.0</ele><time>2026-03-29T16:00:10.081Z</time></trkpt><trkpt lat="43.12805" lon="11.5869017"><ele>333.25</ele><time>2026-03-29T16:00:11.081Z</time></trkpt><trkpt lat="43.1280883" lon="11.5867033"><ele>332.5</ele><time>2026-03-29T16:00:12.08Z</time></trkpt><trkpt lat="43.1281233" lon="11.5865233"><ele>331.75</ele><time>2026-03-29T16:00:13.081Z</time></trkpt><trkpt lat="43.12816" lon="11.58636"><ele>331.0</ele><time>2026-03-29T16:00:14.081Z</time></trkpt><trkpt lat="43.1281967" lon="11.5862017"><ele>331.0</ele><time>2026-03-29T16:00:15.08Z</time></trkpt><trkpt lat="43.1282183" lon="11.5860567"><ele>331.0</ele><time>2026-03-29T16:00:16.081Z</time></trkpt><trkpt lat="43.12824" lon="11.585895"><ele>331.0</ele><time>2026-03-29T16:00:17.08Z</time></trkpt><trkpt lat="43.128255" lon="11.5857333"><ele>331.0</ele><time>2026-03-29T16:00:18.081Z</time></trkpt><trkpt lat="43.1282733" lon="11.5855733"><ele>329.25</ele><time>2026-03-29T16:00:19.081Z</time></trkpt><trkpt lat="43.1282867" lon="11.5853967"><ele>327.5</ele><time>2026-03-29T16:00:20.08Z</time></trkpt><trkpt lat="43.1282917" lon="11.5852167"><ele>325.75</ele><time>2026-03-29T16:00:21.08Z</time></trkpt><trkpt lat="43.1282983" lon="11.58504"><ele>324.0</ele><time>2026-03-29T16:00:22.081Z</time></trkpt><trkpt lat="43.12831" lon="11.58487"><ele>323.0</ele><time>2026-03-29T16:00:23.08Z</time></trkpt><trkpt lat="43.1283333" lon="11.5847017"><ele>322.0</ele><time>2026-03-29T16:00:24.081Z</time></trkpt><trkpt lat="43.1283717" lon="11.5845167"><ele>321.0</ele><time>2026-03-29T16:00:25.081Z</time></trkpt><trkpt lat="43.12841" lon="11.5843533"><ele>320.0</ele><time>2026-03-29T16:00:26.081Z</time></trkpt><trkpt lat="43.1284667" lon="11.5841933"><ele>318.0</ele><time>2026-03-29T16:00:27.081Z</time></trkpt><trkpt lat="43.1285367" lon="11.5840633"><ele>316.0</ele><time>2026-03-29T16:00:28.081Z</time></trkpt><trkpt lat="43.128615" lon="11.583945"><ele>314.0</ele><time>2026-03-29T16:00:29.081Z</time></trkpt><trkpt lat="43.1287267" lon="11.5838617"><ele>312.0</ele><time>2026-03-29T16:00:30.081Z</time></trkpt><trkpt lat="43.1288367" lon="11.5838017"><ele>312.0</ele><time>2026-03-29T16:00:31.08Z</time></trkpt><trkpt lat="43.128935" lon="11.5837567"><ele>312.0</ele><time>2026-03-29T16:00:32.081Z</time></trkpt><trkpt lat="43.1290233" lon="11.583685"><ele>312.0</ele><time>2026-03-29T16:00:33.081Z</time></trkpt><trkpt lat="43.129095" lon="11.583595"><ele>312.0</ele><time>2026-03-29T16:00:34.082Z</time></trkpt><trkpt lat="43.1291533" lon="11.5834783"><ele>312.0</ele><time>2026-03-29T16:00:35.082Z</time></trkpt><trkpt lat="43.1292" lon="11.5833367"><ele>307.5</ele><time>2026-03-29T16:00:36.082Z</time></trkpt><trkpt lat="43.1292417" lon="11.5831633"><ele>303.0</ele><time>2026-03-29T16:00:37.081Z</time></trkpt><trkpt lat="43.129285" lon="11.5829817"><ele>298.5</ele><time>2026-03-29T16:00:38.082Z</time></trkpt><trkpt lat="43.12932" lon="11.58279"><ele>294.0</ele><time>2026-03-29T16:00:39.081Z</time></trkpt><trkpt lat="43.1293533" lon="11.582565"><ele>290.3333333333333</ele><time>2026-03-29T16:00:40.082Z</time></trkpt><trkpt lat="43.129385" lon="11.582335"><ele>286.66666666666663</ele><time>2026-03-29T16:00:41.081Z</time></trkpt><trkpt lat="43.1294133" lon="11.5821083"><ele>283.0</ele><time>2026-03-29T16:00:42.081Z</time></trkpt><trkpt lat="43.129445" lon="11.5818783"><ele>279.0</ele><time>2026-03-29T16:00:43.082Z</time></trkpt><trkpt lat="43.1294817" lon="11.581645"><ele>275.0</ele><time>2026-03-29T16:00:44.082Z</time></trkpt><trkpt lat="43.1295133" lon="11.5814133"><ele>271.0</ele><time>2026-03-29T16:00:45.082Z</time></trkpt><trkpt lat="43.129545" lon="11.5811983"><ele>268.66666666666663</ele><time>2026-03-29T16:00:46.081Z</time></trkpt><trkpt lat="43.1295733" lon="11.5809833"><ele>266.3333333333333</ele><time>2026-03-29T16:00:47.081Z</time></trkpt><trkpt lat="43.1296017" lon="11.5807733"><ele>264.0</ele><time>2026-03-29T16:00:48.082Z</time></trkpt><trkpt lat="43.129635" lon="11.580575"><ele>264.0</ele><time>2026-03-29T16:00:49.082Z</time></trkpt><trkpt lat="43.1296483" lon="11.5803917"><ele>264.0</ele><time>2026-03-29T16:00:50.081Z</time></trkpt><trkpt lat="43.1296667" lon="11.5802133"><ele>264.0</ele><time>2026-03-29T16:00:51.081Z</time></trkpt><trkpt lat="43.1296967" lon="11.5800467"><ele>264.0</ele><time>2026-03-29T16:00:52.082Z</time></trkpt><trkpt lat="43.129745" lon="11.5798583"><ele>263.3333333333333</ele><time>2026-03-29T16:00:53.082Z</time></trkpt><trkpt lat="43.1298183" lon="11.5796567"><ele>262.66666666666663</ele><time>2026-03-29T16:00:54.081Z</time></trkpt><trkpt lat="43.129905" lon="11.5794583"><ele>262.0</ele><time>2026-03-29T16:00:55.082Z</time></trkpt><trkpt lat="43.1300017" lon="11.5792717"><ele>262.0</ele><time>2026-03-29T16:00:56.082Z</time></trkpt><trkpt lat="43.1300883" lon="11.57908"><ele>262.0</ele><time>2026-03-29T16:00:57.082Z</time></trkpt><trkpt lat="43.1301733" lon="11.5788983"><ele>262.0</ele><time>2026-03-29T16:00:58.082Z</time></trkpt><trkpt lat="43.13023" lon="11.5787333"><ele>261.5</ele><time>2026-03-29T16:00:59.082Z</time></trkpt><trkpt lat="43.1302533" lon="11.5785717"><ele>261.0</ele><time>2026-03-29T16:01:00.082Z</time></trkpt><trkpt lat="43.1302583" lon="11.5784217"><ele>260.5</ele><time>2026-03-29T16:01:01.082Z</time></trkpt><trkpt lat="43.130255" lon="11.578255"><ele>260.0</ele><time>2026-03-29T16:01:02.082Z</time></trkpt><trkpt lat="43.1302283" lon="11.5780983"><ele>260.0</ele><time>2026-03-29T16:01:03.081Z</time></trkpt><trkpt lat="43.13019" lon="11.577965"><ele>260.0</ele><time>2026-03-29T16:01:04.082Z</time></trkpt><trkpt lat="43.130125" lon="11.5778317"><ele>260.0</ele><time>2026-03-29T16:01:05.082Z</time></trkpt><trkpt lat="43.130045" lon="11.5777"><ele>260.0</ele><time>2026-03-29T16:01:06.082Z</time></trkpt><trkpt lat="43.12996" lon="11.577565"><ele>258.25</ele><time>2026-03-29T16:01:07.081Z</time></trkpt><trkpt lat="43.129865" lon="11.577455"><ele>256.5</ele><time>2026-03-29T16:01:08.082Z</time></trkpt><trkpt lat="43.12977" lon="11.57739"><ele>254.75</ele><time>2026-03-29T16:01:09.082Z</time></trkpt><trkpt lat="43.129655" lon="11.577345"><ele>253.0</ele><time>2026-03-29T16:01:10.082Z</time></trkpt><trkpt lat="43.129515" lon="11.5773133"><ele>253.0</ele><time>2026-03-29T16:01:11.082Z</time></trkpt><trkpt lat="43.1293733" lon="11.5772983"><ele>253.0</ele><time>2026-03-29T16:01:12.081Z</time></trkpt><trkpt lat="43.1292467" lon="11.57724"><ele>253.0</ele><time>2026-03-29T16:01:13.082Z</time></trkpt><trkpt lat="43.1291617" lon="11.5771383"><ele>253.0</ele><time>2026-03-29T16:01:14.081Z</time></trkpt><trkpt lat="43.1291033" lon="11.5770283"><ele>253.5</ele><time>2026-03-29T16:01:15.082Z</time></trkpt><trkpt lat="43.1290867" lon="11.57691"><ele>254.0</ele><time>2026-03-29T16:01:16.082Z</time></trkpt><trkpt lat="43.129085" lon="11.576765"><ele>254.5</ele><time>2026-03-29T16:01:17.082Z</time></trkpt><trkpt lat="43.129095" lon="11.576565"><ele>255.0</ele><time>2026-03-29T16:01:18.081Z</time></trkpt><trkpt lat="43.1291133" lon="11.576325"><ele>256.0</ele><time>2026-03-29T16:01:19.081Z</time></trkpt><trkpt lat="43.12913" lon="11.576075"><ele>257.0</ele><time>2026-03-29T16:01:20.081Z</time></trkpt><trkpt lat="43.1291517" lon="11.5758467"><ele>258.0</ele><time>2026-03-29T16:01:21.082Z</time></trkpt><trkpt lat="43.1291717" lon="11.5756483"><ele>258.0</ele><time>2026-03-29T16:01:22.081Z</time></trkpt><trkpt lat="43.1291883" lon="11.5754617"><ele>258.0</ele><time>2026-03-29T16:01:23.082Z</time></trkpt><trkpt lat="43.1292" lon="11.5753117"><ele>258.0</ele><time>2026-03-29T16:01:24.082Z</time></trkpt><trkpt lat="43.1292133" lon="11.5751767"><ele>258.0</ele><time>2026-03-29T16:01:25.082Z</time></trkpt><trkpt lat="43.1292533" lon="11.5750817"><ele>258.0</ele><time>2026-03-29T16:01:26.082Z</time></trkpt><trkpt lat="43.1292983" lon="11.5750033"><ele>258.4</ele><time>2026-03-29T16:01:27.082Z</time></trkpt><trkpt lat="43.12941" lon="11.5749333"><ele>258.8</ele><time>2026-03-29T16:01:29.081Z</time></trkpt><trkpt lat="43.1295017" lon="11.5748967"><ele>259.2</ele><time>2026-03-29T16:01:31.082Z</time></trkpt><trkpt lat="43.129535" lon="11.57482"><ele>259.6</ele><time>2026-03-29T16:01:35.082Z</time></trkpt><trkpt lat="43.1294733" lon="11.57473"><ele>260.0</ele><time>2026-03-29T16:01:38.081Z</time></trkpt><trkpt lat="43.129555" lon="11.5745417"><ele>260.4</ele><time>2026-03-29T16:02:10.082Z</time></trkpt><trkpt lat="43.129605" lon="11.5743767"><ele>260.8</ele><time>2026-03-29T16:02:12.081Z</time></trkpt><trkpt lat="43.129645" lon="11.5742667"><ele>261.2</ele><time>2026-03-29T16:02:13.082Z</time></trkpt><trkpt lat="43.1296833" lon="11.5741383"><ele>261.6</ele><time>2026-03-29T16:02:14.082Z</time></trkpt><trkpt lat="43.1297267" lon="11.5739967"><ele>262.0</ele><time>2026-03-29T16:02:15.081Z</time></trkpt><trkpt lat="43.1297717" lon="11.57385"><ele>262.0</ele><time>2026-03-29T16:02:16.081Z</time></trkpt><trkpt lat="43.1298117" lon="11.573695"><ele>262.0</ele><time>2026-03-29T16:02:17.082Z</time></trkpt><trkpt lat="43.1298567" lon="11.5735433"><ele>262.0</ele><time>2026-03-29T16:02:18.082Z</time></trkpt><trkpt lat="43.1299017" lon="11.5733817"><ele>262.0</ele><time>2026-03-29T16:02:19.082Z</time></trkpt><trkpt lat="43.1299533" lon="11.57322"><ele>262.75</ele><time>2026-03-29T16:02:20.081Z</time></trkpt><trkpt lat="43.130005" lon="11.573065"><ele>263.5</ele><time>2026-03-29T16:02:21.082Z</time></trkpt><trkpt lat="43.13006" lon="11.5728967"><ele>264.25</ele><time>2026-03-29T16:02:22.082Z</time></trkpt><trkpt lat="43.130115" lon="11.5727233"><ele>265.0</ele><time>2026-03-29T16:02:23.082Z</time></trkpt><trkpt lat="43.1301633" lon="11.5725633"><ele>265.5</ele><time>2026-03-29T16:02:24.082Z</time></trkpt><trkpt lat="43.1302033" lon="11.5724033"><ele>266.0</ele><time>2026-03-29T16:02:25.082Z</time></trkpt><trkpt lat="43.130245" lon="11.57224"><ele>266.5</ele><time>2026-03-29T16:02:26.082Z</time></trkpt><trkpt lat="43.13027" lon="11.572085"><ele>267.0</ele><time>2026-03-29T16:02:27.082Z</time></trkpt><trkpt lat="43.1303017" lon="11.5719367"><ele>269.0</ele><time>2026-03-29T16:02:28.082Z</time></trkpt><trkpt lat="43.1303233" lon="11.5717783"><ele>271.0</ele><time>2026-03-29T16:02:29.082Z</time></trkpt><trkpt lat="43.130325" lon="11.5716217"><ele>273.0</ele><time>2026-03-29T16:02:30.082Z</time></trkpt><trkpt lat="43.1303217" lon="11.5714583"><ele>275.0</ele><time>2026-03-29T16:02:31.082Z</time></trkpt><trkpt lat="43.1303167" lon="11.571295"><ele>277.0</ele><time>2026-03-29T16:02:32.082Z</time></trkpt><trkpt lat="43.1303083" lon="11.5711467"><ele>279.0</ele><time>2026-03-29T16:02:33.082Z</time></trkpt><trkpt lat="43.1303033" lon="11.57099"><ele>281.0</ele><time>2026-03-29T16:02:34.082Z</time></trkpt><trkpt lat="43.1303" lon="11.5708317"><ele>283.0</ele><time>2026-03-29T16:02:35.081Z</time></trkpt><trkpt lat="43.1302933" lon="11.57068"><ele>285.0</ele><time>2026-03-29T16:02:36.082Z</time></trkpt><trkpt lat="43.130285" lon="11.57056"><ele>285.0</ele><time>2026-03-29T16:02:37.082Z</time></trkpt><trkpt lat="43.1302983" lon="11.5704667"><ele>285.0</ele><time>2026-03-29T16:02:38.082Z</time></trkpt><trkpt lat="43.130355" lon="11.5703583"><ele>285.0</ele><time>2026-03-29T16:02:40.082Z</time></trkpt><trkpt lat="43.1304933" lon="11.5703867"><ele>285.0</ele><time>2026-03-29T16:02:42.081Z</time></trkpt><trkpt lat="43.1305883" lon="11.5704367"><ele>285.0</ele><time>2026-03-29T16:02:43.082Z</time></trkpt><trkpt lat="43.130675" lon="11.5704867"><ele>286.5</ele><time>2026-03-29T16:02:44.082Z</time></trkpt><trkpt lat="43.1307467" lon="11.57052"><ele>288.0</ele><time>2026-03-29T16:02:45.081Z</time></trkpt><trkpt lat="43.1308117" lon="11.570545"><ele>289.5</ele><time>2026-03-29T16:02:46.082Z</time></trkpt><trkpt lat="43.130885" lon="11.570575"><ele>291.0</ele><time>2026-03-29T16:02:47.082Z</time></trkpt><trkpt lat="43.1309583" lon="11.5706117"><ele>292.5</ele><time>2026-03-29T16:02:48.082Z</time></trkpt><trkpt lat="43.131035" lon="11.5706583"><ele>294.0</ele><time>2026-03-29T16:02:49.081Z</time></trkpt><trkpt lat="43.13113" lon="11.5707233"><ele>294.0</ele><time>2026-03-29T16:02:50.082Z</time></trkpt><trkpt lat="43.131245" lon="11.5707917"><ele>294.0</ele><time>2026-03-29T16:02:51.082Z</time></trkpt><trkpt lat="43.1313767" lon="11.5708633"><ele>294.0</ele><time>2026-03-29T16:02:52.082Z</time></trkpt><trkpt lat="43.13152" lon="11.5709467"><ele>294.0</ele><time>2026-03-29T16:02:53.082Z</time></trkpt><trkpt lat="43.1316667" lon="11.571025"><ele>297.0</ele><time>2026-03-29T16:02:54.082Z</time></trkpt><trkpt lat="43.1318317" lon="11.5710933"><ele>300.0</ele><time>2026-03-29T16:02:55.081Z</time></trkpt><trkpt lat="43.1320067" lon="11.5711533"><ele>303.0</ele><time>2026-03-29T16:02:56.082Z</time></trkpt><trkpt lat="43.1321667" lon="11.5712167"><ele>303.0</ele><time>2026-03-29T16:02:57.082Z</time></trkpt><trkpt lat="43.132305" lon="11.57128"><ele>303.0</ele><time>2026-03-29T16:02:58.082Z</time></trkpt><trkpt lat="43.132435" lon="11.5713317"><ele>303.0</ele><time>2026-03-29T16:02:59.081Z</time></trkpt><trkpt lat="43.13255" lon="11.57138"><ele>303.0</ele><time>2026-03-29T16:03:00.082Z</time></trkpt><trkpt lat="43.1326467" lon="11.5714217"><ele>305.5</ele><time>2026-03-29T16:03:01.081Z</time></trkpt><trkpt lat="43.1327133" lon="11.5714833"><ele>308.0</ele><time>2026-03-29T16:03:02.082Z</time></trkpt><trkpt lat="43.1327767" lon="11.5715567"><ele>310.5</ele><time>2026-03-29T16:03:03.081Z</time></trkpt><trkpt lat="43.1328333" lon="11.571615"><ele>313.0</ele><time>2026-03-29T16:03:04.081Z</time></trkpt><trkpt lat="43.1329067" lon="11.571655"><ele>315.5</ele><time>2026-03-29T16:03:05.082Z</time></trkpt><trkpt lat="43.1329933" lon="11.5716933"><ele>318.0</ele><time>2026-03-29T16:03:06.082Z</time></trkpt><trkpt lat="43.1330967" lon="11.5717483"><ele>318.0</ele><time>2026-03-29T16:03:07.081Z</time></trkpt><trkpt lat="43.1331883" lon="11.57183"><ele>318.0</ele><time>2026-03-29T16:03:08.082Z</time></trkpt><trkpt lat="43.13327" lon="11.5719217"><ele>318.0</ele><time>2026-03-29T16:03:09.082Z</time></trkpt><trkpt lat="43.13335" lon="11.5719983"><ele>318.0</ele><time>2026-03-29T16:03:10.082Z</time></trkpt><trkpt lat="43.1334233" lon="11.5720683"><ele>318.0</ele><time>2026-03-29T16:03:11.082Z</time></trkpt><trkpt lat="43.1335267" lon="11.5720967"><ele>316.5</ele><time>2026-03-29T16:03:12.082Z</time></trkpt><trkpt lat="43.1336267" lon="11.572085"><ele>315.0</ele><time>2026-03-29T16:03:13.082Z</time></trkpt><trkpt lat="43.1337567" lon="11.5720633"><ele>313.5</ele><time>2026-03-29T16:03:14.082Z</time></trkpt><trkpt lat="43.1339017" lon="11.5720367"><ele>312.0</ele><time>2026-03-29T16:03:15.082Z</time></trkpt><trkpt lat="43.134085" lon="11.572025"><ele>309.6666666666667</ele><time>2026-03-29T16:03:16.081Z</time></trkpt><trkpt lat="43.1342983" lon="11.5720383"><ele>307.33333333333337</ele><time>2026-03-29T16:03:17.081Z</time></trkpt><trkpt lat="43.1345333" lon="11.5720333"><ele>305.0</ele><time>2026-03-29T16:03:18.082Z</time></trkpt><trkpt lat="43.1347533" lon="11.5720333"><ele>301.0</ele><time>2026-03-29T16:03:19.081Z</time></trkpt><trkpt lat="43.134955" lon="11.5720367"><ele>297.0</ele><time>2026-03-29T16:03:20.082Z</time></trkpt><trkpt lat="43.13514" lon="11.57205"><ele>293.0</ele><time>2026-03-29T16:03:21.082Z</time></trkpt><trkpt lat="43.1353033" lon="11.5720733"><ele>293.0</ele><time>2026-03-29T16:03:22.082Z</time></trkpt><trkpt lat="43.1354633" lon="11.572135"><ele>293.0</ele><time>2026-03-29T16:03:23.082Z</time></trkpt><trkpt lat="43.1356483" lon="11.5722333"><ele>293.0</ele><time>2026-03-29T16:03:24.081Z</time></trkpt><trkpt lat="43.1358317" lon="11.572375"><ele>293.0</ele><time>2026-03-29T16:03:25.081Z</time></trkpt><trkpt lat="43.13602" lon="11.57252"><ele>293.0</ele><time>2026-03-29T16:03:26.082Z</time></trkpt><trkpt lat="43.136215" lon="11.5726717"><ele>293.0</ele><time>2026-03-29T16:03:27.082Z</time></trkpt><trkpt lat="43.1364017" lon="11.5728117"><ele>293.5</ele><time>2026-03-29T16:03:28.082Z</time></trkpt><trkpt lat="43.136605" lon="11.5729683"><ele>294.0</ele><time>2026-03-29T16:03:29.081Z</time></trkpt><trkpt lat="43.136805" lon="11.57311"><ele>294.0</ele><time>2026-03-29T16:03:30.082Z</time></trkpt><trkpt lat="43.13699" lon="11.573255"><ele>294.0</ele><time>2026-03-29T16:03:31.082Z</time></trkpt><trkpt lat="43.13716" lon="11.573385"><ele>294.0</ele><time>2026-03-29T16:03:32.082Z</time></trkpt><trkpt lat="43.1373117" lon="11.573485"><ele>295.0</ele><time>2026-03-29T16:03:33.082Z</time></trkpt><trkpt lat="43.1374483" lon="11.5735867"><ele>296.0</ele><time>2026-03-29T16:03:34.081Z</time></trkpt><trkpt lat="43.1375717" lon="11.57368"><ele>297.0</ele><time>2026-03-29T16:03:35.082Z</time></trkpt><trkpt lat="43.1376767" lon="11.57376"><ele>298.0</ele><time>2026-03-29T16:03:36.081Z</time></trkpt><trkpt lat="43.13777" lon="11.5738417"><ele>298.0</ele><time>2026-03-29T16:03:37.082Z</time></trkpt><trkpt lat="43.1378383" lon="11.5738933"><ele>298.0</ele><time>2026-03-29T16:03:38.081Z</time></trkpt><trkpt lat="43.137915" lon="11.5738983"><ele>298.0</ele><time>2026-03-29T16:03:40.082Z</time></trkpt><trkpt lat="43.1379383" lon="11.57375"><ele>298.0</ele><time>2026-03-29T16:03:42.082Z</time></trkpt><trkpt lat="43.1379317" lon="11.5736383"><ele>298.0</ele><time>2026-03-29T16:03:43.082Z</time></trkpt><trkpt lat="43.1379233" lon="11.57351"><ele>298.0</ele><time>2026-03-29T16:03:44.082Z</time></trkpt><trkpt lat="43.1379067" lon="11.5733767"><ele>298.0</ele><time>2026-03-29T16:03:45.082Z</time></trkpt><trkpt lat="43.1379117" lon="11.5732617"><ele>298.0</ele><time>2026-03-29T16:03:46.082Z</time></trkpt><trkpt lat="43.137925" lon="11.5731583"><ele>298.0</ele><time>2026-03-29T16:03:47.082Z</time></trkpt><trkpt lat="43.13794" lon="11.5730583"><ele>298.0</ele><time>2026-03-29T16:03:48.082Z</time></trkpt><trkpt lat="43.1379533" lon="11.572955"><ele>298.0</ele><time>2026-03-29T16:03:49.081Z</time></trkpt><trkpt lat="43.1379617" lon="11.5728483"><ele>298.0</ele><time>2026-03-29T16:03:50.082Z</time></trkpt><trkpt lat="43.13796" lon="11.57274"><ele>297.2</ele><time>2026-03-29T16:03:51.082Z</time></trkpt><trkpt lat="43.1379583" lon="11.572605"><ele>296.4</ele><time>2026-03-29T16:03:52.082Z</time></trkpt><trkpt lat="43.1379583" lon="11.572475"><ele>295.59999999999997</ele><time>2026-03-29T16:03:53.081Z</time></trkpt><trkpt lat="43.13797" lon="11.5723183"><ele>294.8</ele><time>2026-03-29T16:03:54.081Z</time></trkpt><trkpt lat="43.1379983" lon="11.5721867"><ele>294.0</ele><time>2026-03-29T16:03:55.082Z</time></trkpt><trkpt lat="43.138035" lon="11.5720633"><ele>292.0</ele><time>2026-03-29T16:03:56.082Z</time></trkpt><trkpt lat="43.1381067" lon="11.5719817"><ele>290.0</ele><time>2026-03-29T16:03:57.082Z</time></trkpt><trkpt lat="43.138215" lon="11.5719117"><ele>288.0</ele><time>2026-03-29T16:03:58.082Z</time></trkpt><trkpt lat="43.13834" lon="11.5718433"><ele>286.0</ele><time>2026-03-29T16:03:59.082Z</time></trkpt><trkpt lat="43.138445" lon="11.5717783"><ele>288.8</ele><time>2026-03-29T16:04:00.081Z</time></trkpt><trkpt lat="43.1385433" lon="11.5716867"><ele>291.6</ele><time>2026-03-29T16:04:01.082Z</time></trkpt><trkpt lat="43.1386217" lon="11.571585"><ele>294.4</ele><time>2026-03-29T16:04:02.082Z</time></trkpt><trkpt lat="43.1386933" lon="11.5714583"><ele>297.2</ele><time>2026-03-29T16:04:03.081Z</time></trkpt><trkpt lat="43.1387333" lon="11.571325"><ele>300.0</ele><time>2026-03-29T16:04:04.082Z</time></trkpt><trkpt lat="43.1387367" lon="11.5711833"><ele>300.0</ele><time>2026-03-29T16:04:05.082Z</time></trkpt><trkpt lat="43.138715" lon="11.571025"><ele>300.0</ele><time>2026-03-29T16:04:06.082Z</time></trkpt><trkpt lat="43.1386717" lon="11.5708833"><ele>300.0</ele><time>2026-03-29T16:04:07.082Z</time></trkpt><trkpt lat="43.1386" lon="11.57075"><ele>300.0</ele><time>2026-03-29T16:04:08.082Z</time></trkpt><trkpt lat="43.138535" lon="11.570615"><ele>300.0</ele><time>2026-03-29T16:04:09.082Z</time></trkpt><trkpt lat="43.1384917" lon="11.5704833"><ele>300.0</ele><time>2026-03-29T16:04:10.082Z</time></trkpt><trkpt lat="43.1384767" lon="11.570335"><ele>300.0</ele><time>2026-03-29T16:04:11.082Z</time></trkpt><trkpt lat="43.1384833" lon="11.5701617"><ele>300.0</ele><time>2026-03-29T16:04:12.082Z</time></trkpt><trkpt lat="43.1385067" lon="11.5699733"><ele>301.6666666666667</ele><time>2026-03-29T16:04:13.082Z</time></trkpt><trkpt lat="43.1385333" lon="11.56977"><ele>303.33333333333337</ele><time>2026-03-29T16:04:14.082Z</time></trkpt><trkpt lat="43.1385367" lon="11.5695483"><ele>305.0</ele><time>2026-03-29T16:04:15.082Z</time></trkpt><trkpt lat="43.13853" lon="11.5693367"><ele>305.2</ele><time>2026-03-29T16:04:16.082Z</time></trkpt><trkpt lat="43.1385133" lon="11.5691617"><ele>305.4</ele><time>2026-03-29T16:04:17.081Z</time></trkpt><trkpt lat="43.1384917" lon="11.5690017"><ele>305.6</ele><time>2026-03-29T16:04:18.081Z</time></trkpt><trkpt lat="43.13846" lon="11.5688733"><ele>305.8</ele><time>2026-03-29T16:04:19.081Z</time></trkpt><trkpt lat="43.1384283" lon="11.5687667"><ele>306.0</ele><time>2026-03-29T16:04:20.081Z</time></trkpt><trkpt lat="43.1383967" lon="11.5686783"><ele>306.2</ele><time>2026-03-29T16:04:21.082Z</time></trkpt><trkpt lat="43.1383817" lon="11.5685567"><ele>306.40000000000003</ele><time>2026-03-29T16:04:23.082Z</time></trkpt><trkpt lat="43.1385167" lon="11.568545"><ele>306.6</ele><time>2026-03-29T16:04:27.082Z</time></trkpt><trkpt lat="43.1385833" lon="11.5685383"><ele>306.8</ele><time>2026-03-29T16:04:28.082Z</time></trkpt><trkpt lat="43.1386683" lon="11.5685267"><ele>307.0</ele><time>2026-03-29T16:04:29.082Z</time></trkpt><trkpt lat="43.13877" lon="11.56852"><ele>307.0</ele><time>2026-03-29T16:04:30.081Z</time></trkpt><trkpt lat="43.138865" lon="11.568515"><ele>307.0</ele><time>2026-03-29T16:04:31.082Z</time></trkpt><trkpt lat="43.1389633" lon="11.56852"><ele>307.0</ele><time>2026-03-29T16:04:32.082Z</time></trkpt><trkpt lat="43.1390483" lon="11.5685283"><ele>307.0</ele><time>2026-03-29T16:04:33.082Z</time></trkpt><trkpt lat="43.139115" lon="11.5685483"><ele>307.0</ele><time>2026-03-29T16:04:34.082Z</time></trkpt><trkpt lat="43.1391567" lon="11.56862"><ele>307.0</ele><time>2026-03-29T16:04:35.082Z</time></trkpt><trkpt lat="43.1391817" lon="11.5687183"><ele>308.66666666666663</ele><time>2026-03-29T16:04:36.082Z</time></trkpt><trkpt lat="43.1392017" lon="11.56883"><ele>310.3333333333333</ele><time>2026-03-29T16:04:37.082Z</time></trkpt><trkpt lat="43.1392117" lon="11.5689683"><ele>312.0</ele><time>2026-03-29T16:04:38.082Z</time></trkpt><trkpt lat="43.1392117" lon="11.5690933"><ele>313.6666666666667</ele><time>2026-03-29T16:04:39.082Z</time></trkpt><trkpt lat="43.1392" lon="11.5691967"><ele>315.33333333333337</ele><time>2026-03-29T16:04:40.081Z</time></trkpt><trkpt lat="43.1391717" lon="11.56929"><ele>317.0</ele><time>2026-03-29T16:04:41.082Z</time></trkpt><trkpt lat="43.13913" lon="11.5693867"><ele>317.0</ele><time>2026-03-29T16:04:42.082Z</time></trkpt><trkpt lat="43.1390967" lon="11.5694767"><ele>317.0</ele><time>2026-03-29T16:04:43.081Z</time></trkpt><trkpt lat="43.1390817" lon="11.56958"><ele>317.0</ele><time>2026-03-29T16:04:44.082Z</time></trkpt><trkpt lat="43.1390983" lon="11.569705"><ele>317.0</ele><time>2026-03-29T16:04:45.082Z</time></trkpt><trkpt lat="43.139135" lon="11.56984"><ele>317.0</ele><time>2026-03-29T16:04:46.082Z</time></trkpt><trkpt lat="43.139185" lon="11.5699833"><ele>317.8</ele><time>2026-03-29T16:04:47.082Z</time></trkpt><trkpt lat="43.13924" lon="11.5701383"><ele>318.6</ele><time>2026-03-29T16:04:48.082Z</time></trkpt><trkpt lat="43.1392933" lon="11.570265"><ele>319.40000000000003</ele><time>2026-03-29T16:04:49.081Z</time></trkpt><trkpt lat="43.1393383" lon="11.5703683"><ele>320.2</ele><time>2026-03-29T16:04:50.082Z</time></trkpt><trkpt lat="43.1393733" lon="11.570455"><ele>321.0</ele><time>2026-03-29T16:04:51.081Z</time></trkpt><trkpt lat="43.13941" lon="11.570545"><ele>321.0</ele><time>2026-03-29T16:04:52.082Z</time></trkpt><trkpt lat="43.1394417" lon="11.57067"><ele>321.0</ele><time>2026-03-29T16:04:54.081Z</time></trkpt><trkpt lat="43.13948" lon="11.5707817"><ele>321.0</ele><time>2026-03-29T16:04:56.081Z</time></trkpt><trkpt lat="43.1395083" lon="11.5708933"><ele>321.0</ele><time>2026-03-29T16:04:58.082Z</time></trkpt><trkpt lat="43.139535" lon="11.5709717"><ele>321.0</ele><time>2026-03-29T16:04:59.082Z</time></trkpt><trkpt lat="43.139565" lon="11.5710567"><ele>321.0</ele><time>2026-03-29T16:05:00.082Z</time></trkpt><trkpt lat="43.1396067" lon="11.571175"><ele>320.8333333333333</ele><time>2026-03-29T16:05:02.081Z</time></trkpt><trkpt lat="43.1396467" lon="11.5712633"><ele>320.6666666666667</ele><time>2026-03-29T16:05:04.081Z</time></trkpt><trkpt lat="43.13968" lon="11.5713367"><ele>320.5</ele><time>2026-03-29T16:05:06.082Z</time></trkpt><trkpt lat="43.1397333" lon="11.571405"><ele>320.33333333333337</ele><time>2026-03-29T16:05:08.082Z</time></trkpt><trkpt lat="43.1398133" lon="11.571445"><ele>320.1666666666667</ele><time>2026-03-29T16:05:10.081Z</time></trkpt><trkpt lat="43.13993" lon="11.5714983"><ele>320.0</ele><time>2026-03-29T16:05:12.082Z</time></trkpt><trkpt lat="43.14001" lon="11.57152"><ele>321.0</ele><time>2026-03-29T16:05:13.082Z</time></trkpt><trkpt lat="43.1400967" lon="11.5715383"><ele>322.0</ele><time>2026-03-29T16:05:14.081Z</time></trkpt><trkpt lat="43.1401867" lon="11.5715533"><ele>323.0</ele><time>2026-03-29T16:05:15.082Z</time></trkpt><trkpt lat="43.140265" lon="11.5715667"><ele>324.0</ele><time>2026-03-29T16:05:16.082Z</time></trkpt><trkpt lat="43.1403633" lon="11.5715833"><ele>325.0</ele><time>2026-03-29T16:05:17.082Z</time></trkpt><trkpt lat="43.1404633" lon="11.5715833"><ele>325.0</ele><time>2026-03-29T16:05:18.081Z</time></trkpt><trkpt lat="43.1405583" lon="11.57162"><ele>325.0</ele><time>2026-03-29T16:05:19.081Z</time></trkpt><trkpt lat="43.140655" lon="11.571675"><ele>325.0</ele><time>2026-03-29T16:05:20.081Z</time></trkpt><trkpt lat="43.1407733" lon="11.5717383"><ele>325.0</ele><time>2026-03-29T16:05:21.082Z</time></trkpt><trkpt lat="43.1408817" lon="11.5717983"><ele>325.0</ele><time>2026-03-29T16:05:22.082Z</time></trkpt><trkpt lat="43.1410017" lon="11.5718733"><ele>325.0</ele><time>2026-03-29T16:05:23.082Z</time></trkpt><trkpt lat="43.141125" lon="11.5719417"><ele>325.0</ele><time>2026-03-29T16:05:24.082Z</time></trkpt><trkpt lat="43.1412417" lon="11.572005"><ele>325.0</ele><time>2026-03-29T16:05:25.082Z</time></trkpt><trkpt lat="43.14135" lon="11.5720683"><ele>325.0</ele><time>2026-03-29T16:05:26.082Z</time></trkpt><trkpt lat="43.14146" lon="11.5721117"><ele>323.0</ele><time>2026-03-29T16:05:27.082Z</time></trkpt><trkpt lat="43.1415633" lon="11.5721533"><ele>321.0</ele><time>2026-03-29T16:05:28.081Z</time></trkpt><trkpt lat="43.14167" lon="11.5721733"><ele>319.0</ele><time>2026-03-29T16:05:29.082Z</time></trkpt><trkpt lat="43.1417817" lon="11.5721967"><ele>317.0</ele><time>2026-03-29T16:05:30.082Z</time></trkpt><trkpt lat="43.1418883" lon="11.5722033"><ele>315.0</ele><time>2026-03-29T16:05:31.081Z</time></trkpt><trkpt lat="43.1419883" lon="11.57219"><ele>315.0</ele><time>2026-03-29T16:05:32.082Z</time></trkpt><trkpt lat="43.142095" lon="11.57217"><ele>315.0</ele><time>2026-03-29T16:05:33.082Z</time></trkpt><trkpt lat="43.1422" lon="11.5721333"><ele>315.0</ele><time>2026-03-29T16:05:34.081Z</time></trkpt><trkpt lat="43.142295" lon="11.5720667"><ele>315.0</ele><time>2026-03-29T16:05:35.082Z</time></trkpt><trkpt lat="43.1423817" lon="11.571955"><ele>315.0</ele><time>2026-03-29T16:05:36.082Z</time></trkpt><trkpt lat="43.1424783" lon="11.5718033"><ele>316.0</ele><time>2026-03-29T16:05:37.082Z</time></trkpt><trkpt lat="43.14258" lon="11.5716267"><ele>317.0</ele><time>2026-03-29T16:05:38.082Z</time></trkpt><trkpt lat="43.1426717" lon="11.5714767"><ele>318.0</ele><time>2026-03-29T16:05:39.082Z</time></trkpt><trkpt lat="43.1427383" lon="11.5713567"><ele>319.0</ele><time>2026-03-29T16:05:40.082Z</time></trkpt><trkpt lat="43.1427867" lon="11.5712717"><ele>318.4</ele><time>2026-03-29T16:05:41.081Z</time></trkpt><trkpt lat="43.142865" lon="11.5711733"><ele>317.79999999999995</ele><time>2026-03-29T16:05:43.081Z</time></trkpt><trkpt lat="43.1429467" lon="11.5710767"><ele>317.20000000000005</ele><time>2026-03-29T16:05:45.082Z</time></trkpt><trkpt lat="43.143035" lon="11.57103"><ele>316.6</ele><time>2026-03-29T16:05:47.082Z</time></trkpt><trkpt lat="43.1431217" lon="11.5710683"><ele>316.0</ele><time>2026-03-29T16:05:49.082Z</time></trkpt><trkpt lat="43.1431767" lon="11.5711267"><ele>317.5</ele><time>2026-03-29T16:05:50.082Z</time></trkpt><trkpt lat="43.14324" lon="11.5712083"><ele>319.0</ele><time>2026-03-29T16:05:51.082Z</time></trkpt><trkpt lat="43.1433133" lon="11.571295"><ele>320.5</ele><time>2026-03-29T16:05:52.082Z</time></trkpt><trkpt lat="43.1433767" lon="11.571385"><ele>322.0</ele><time>2026-03-29T16:05:53.081Z</time></trkpt><trkpt lat="43.1434433" lon="11.5714667"><ele>323.5</ele><time>2026-03-29T16:05:54.081Z</time></trkpt><trkpt lat="43.1435067" lon="11.5715367"><ele>325.0</ele><time>2026-03-29T16:05:55.082Z</time></trkpt><trkpt lat="43.1435617" lon="11.5716083"><ele>325.0</ele><time>2026-03-29T16:05:56.081Z</time></trkpt><trkpt lat="43.1436167" lon="11.57167"><ele>325.0</ele><time>2026-03-29T16:05:57.082Z</time></trkpt><trkpt lat="43.1436717" lon="11.5717233"><ele>325.0</ele><time>2026-03-29T16:05:58.082Z</time></trkpt><trkpt lat="43.143735" lon="11.5717733"><ele>325.0</ele><time>2026-03-29T16:05:59.082Z</time></trkpt><trkpt lat="43.1437967" lon="11.57183"><ele>325.0</ele><time>2026-03-29T16:06:00.082Z</time></trkpt><trkpt lat="43.14387" lon="11.571885"><ele>325.0</ele><time>2026-03-29T16:06:01.082Z</time></trkpt><trkpt lat="43.143945" lon="11.57193"><ele>325.0</ele><time>2026-03-29T16:06:02.082Z</time></trkpt><trkpt lat="43.1440367" lon="11.5719617"><ele>325.0</ele><time>2026-03-29T16:06:03.082Z</time></trkpt><trkpt lat="43.144145" lon="11.571985"><ele>325.0</ele><time>2026-03-29T16:06:04.081Z</time></trkpt><trkpt lat="43.144255" lon="11.5720133"><ele>325.0</ele><time>2026-03-29T16:06:05.081Z</time></trkpt><trkpt lat="43.1443733" lon="11.57203"><ele>325.0</ele><time>2026-03-29T16:06:06.081Z</time></trkpt><trkpt lat="43.1444867" lon="11.5719983"><ele>324.8333333333333</ele><time>2026-03-29T16:06:07.081Z</time></trkpt><trkpt lat="43.1445867" lon="11.5719433"><ele>324.66666666666663</ele><time>2026-03-29T16:06:08.082Z</time></trkpt><trkpt lat="43.144675" lon="11.57188"><ele>324.5</ele><time>2026-03-29T16:06:09.082Z</time></trkpt><trkpt lat="43.1447533" lon="11.5718083"><ele>324.3333333333333</ele><time>2026-03-29T16:06:10.082Z</time></trkpt><trkpt lat="43.144815" lon="11.5717633"><ele>324.1666666666667</ele><time>2026-03-29T16:06:11.081Z</time></trkpt><trkpt lat="43.1448867" lon="11.5717217"><ele>324.0</ele><time>2026-03-29T16:06:13.081Z</time></trkpt><trkpt lat="43.1449217" lon="11.571805"><ele>324.0</ele><time>2026-03-29T16:07:12.082Z</time></trkpt><trkpt lat="43.1449633" lon="11.5719"><ele>324.0</ele><time>2026-03-29T16:07:14.082Z</time></trkpt><trkpt lat="43.1450033" lon="11.57201"><ele>324.0</ele><time>2026-03-29T16:07:16.081Z</time></trkpt><trkpt lat="43.14503" lon="11.57209"><ele>324.0</ele><time>2026-03-29T16:07:17.082Z</time></trkpt><trkpt lat="43.145065" lon="11.572175"><ele>324.0</ele><time>2026-03-29T16:07:18.082Z</time></trkpt><trkpt lat="43.1451067" lon="11.5722833"><ele>324.0</ele><time>2026-03-29T16:07:19.082Z</time></trkpt><trkpt lat="43.145145" lon="11.5723733"><ele>324.6666666666667</ele><time>2026-03-29T16:07:20.081Z</time></trkpt><trkpt lat="43.1452083" lon="11.5724883"><ele>325.3333333333333</ele><time>2026-03-29T16:07:22.082Z</time></trkpt><trkpt lat="43.14527" lon="11.5725233"><ele>326.0</ele><time>2026-03-29T16:07:24.082Z</time></trkpt><trkpt lat="43.1453567" lon="11.572525"><ele>326.66666666666663</ele><time>2026-03-29T16:07:26.081Z</time></trkpt><trkpt lat="43.145455" lon="11.572495"><ele>327.3333333333333</ele><time>2026-03-29T16:07:28.081Z</time></trkpt><trkpt lat="43.1455283" lon="11.5724783"><ele>328.0</ele><time>2026-03-29T16:07:29.082Z</time></trkpt><trkpt lat="43.145605" lon="11.5724833"><ele>328.0</ele><time>2026-03-29T16:07:30.082Z</time></trkpt><trkpt lat="43.14568" lon="11.5724783"><ele>328.0</ele><time>2026-03-29T16:07:31.082Z</time></trkpt><trkpt lat="43.1457483" lon="11.5724667"><ele>328.0</ele><time>2026-03-29T16:07:32.082Z</time></trkpt><trkpt lat="43.1458117" lon="11.572455"><ele>328.0</ele><time>2026-03-29T16:07:33.082Z</time></trkpt><trkpt lat="43.14593" lon="11.5724067"><ele>328.0</ele><time>2026-03-29T16:07:35.081Z</time></trkpt><trkpt lat="43.145995" lon="11.5723883"><ele>328.0</ele><time>2026-03-29T16:07:36.081Z</time></trkpt><trkpt lat="43.14606" lon="11.5723667"><ele>326.66666666666663</ele><time>2026-03-29T16:07:37.082Z</time></trkpt><trkpt lat="43.14614" lon="11.5723583"><ele>325.3333333333333</ele><time>2026-03-29T16:07:38.081Z</time></trkpt><trkpt lat="43.146225" lon="11.572365"><ele>324.0</ele><time>2026-03-29T16:07:39.082Z</time></trkpt><trkpt lat="43.1463067" lon="11.5723817"><ele>322.6666666666667</ele><time>2026-03-29T16:07:40.082Z</time></trkpt><trkpt lat="43.14639" lon="11.5724083"><ele>321.33333333333337</ele><time>2026-03-29T16:07:41.081Z</time></trkpt><trkpt lat="43.1464717" lon="11.57243"><ele>320.0</ele><time>2026-03-29T16:07:42.082Z</time></trkpt><trkpt lat="43.146565" lon="11.572475"><ele>319.5</ele><time>2026-03-29T16:07:43.081Z</time></trkpt><trkpt lat="43.146645" lon="11.5724967"><ele>319.0</ele><time>2026-03-29T16:07:44.082Z</time></trkpt><trkpt lat="43.1467267" lon="11.5725067"><ele>318.5</ele><time>2026-03-29T16:07:45.082Z</time></trkpt><trkpt lat="43.1468083" lon="11.5725217"><ele>318.0</ele><time>2026-03-29T16:07:46.082Z</time></trkpt><trkpt lat="43.1468883" lon="11.5725183"><ele>317.5</ele><time>2026-03-29T16:07:47.082Z</time></trkpt><trkpt lat="43.1469733" lon="11.5725033"><ele>317.0</ele><time>2026-03-29T16:07:48.081Z</time></trkpt><trkpt lat="43.1470633" lon="11.5724683"><ele>317.0</ele><time>2026-03-29T16:07:49.081Z</time></trkpt><trkpt lat="43.1471567" lon="11.5724067"><ele>317.0</ele><time>2026-03-29T16:07:50.082Z</time></trkpt><trkpt lat="43.1472717" lon="11.572315"><ele>317.0</ele><time>2026-03-29T16:07:51.081Z</time></trkpt><trkpt lat="43.1473833" lon="11.57223"><ele>317.0</ele><time>2026-03-29T16:07:52.081Z</time></trkpt><trkpt lat="43.14748" lon="11.5721667"><ele>317.14285714285717</ele><time>2026-03-29T16:07:53.081Z</time></trkpt><trkpt lat="43.147555" lon="11.57215"><ele>317.2857142857143</ele><time>2026-03-29T16:07:54.082Z</time></trkpt><trkpt lat="43.14762" lon="11.572155"><ele>317.42857142857144</ele><time>2026-03-29T16:07:55.081Z</time></trkpt><trkpt lat="43.1476867" lon="11.5721717"><ele>317.57142857142856</ele><time>2026-03-29T16:07:56.081Z</time></trkpt><trkpt lat="43.1477633" lon="11.572205"><ele>317.7142857142857</ele><time>2026-03-29T16:07:57.082Z</time></trkpt><trkpt lat="43.1478367" lon="11.5722333"><ele>317.85714285714283</ele><time>2026-03-29T16:07:58.081Z</time></trkpt><trkpt lat="43.1479167" lon="11.5722517"><ele>318.0</ele><time>2026-03-29T16:07:59.082Z</time></trkpt><trkpt lat="43.1479917" lon="11.5722433"><ele>318.0</ele><time>2026-03-29T16:08:00.081Z</time></trkpt><trkpt lat="43.148085" lon="11.57224"><ele>318.0</ele><time>2026-03-29T16:08:01.081Z</time></trkpt><trkpt lat="43.1482167" lon="11.5722383"><ele>318.0</ele><time>2026-03-29T16:08:02.082Z</time></trkpt><trkpt lat="43.1483583" lon="11.5722367"><ele>318.0</ele><time>2026-03-29T16:08:03.081Z</time></trkpt><trkpt lat="43.1484883" lon="11.5722233"><ele>318.5</ele><time>2026-03-29T16:08:04.082Z</time></trkpt><trkpt lat="43.1486033" lon="11.5721817"><ele>319.0</ele><time>2026-03-29T16:08:05.082Z</time></trkpt><trkpt lat="43.148695" lon="11.572115"><ele>319.5</ele><time>2026-03-29T16:08:06.081Z</time></trkpt><trkpt lat="43.148795" lon="11.5720183"><ele>320.0</ele><time>2026-03-29T16:08:07.081Z</time></trkpt><trkpt lat="43.148885" lon="11.5718967"><ele>320.0</ele><time>2026-03-29T16:08:08.082Z</time></trkpt><trkpt lat="43.1489717" lon="11.5717767"><ele>320.0</ele><time>2026-03-29T16:08:09.082Z</time></trkpt><trkpt lat="43.1490433" lon="11.5716583"><ele>320.0</ele><time>2026-03-29T16:08:10.081Z</time></trkpt><trkpt lat="43.1491133" lon="11.5715633"><ele>320.0</ele><time>2026-03-29T16:08:11.082Z</time></trkpt><trkpt lat="43.14919" lon="11.5714833"><ele>320.0</ele><time>2026-03-29T16:08:12.082Z</time></trkpt><trkpt lat="43.1492917" lon="11.5714433"><ele>320.5</ele><time>2026-03-29T16:08:13.081Z</time></trkpt><trkpt lat="43.149405" lon="11.5713617"><ele>321.0</ele><time>2026-03-29T16:08:14.081Z</time></trkpt><trkpt lat="43.1495183" lon="11.571295"><ele>321.5</ele><time>2026-03-29T16:08:15.081Z</time></trkpt><trkpt lat="43.1496283" lon="11.57125"><ele>322.0</ele><time>2026-03-29T16:08:16.082Z</time></trkpt><trkpt lat="43.1497333" lon="11.57123"><ele>322.5</ele><time>2026-03-29T16:08:17.082Z</time></trkpt><trkpt lat="43.1498233" lon="11.571165"><ele>323.0</ele><time>2026-03-29T16:08:18.082Z</time></trkpt><trkpt lat="43.1499217" lon="11.5710667"><ele>323.5</ele><time>2026-03-29T16:08:19.081Z</time></trkpt><trkpt lat="43.1500433" lon="11.5709483"><ele>324.0</ele><time>2026-03-29T16:08:20.082Z</time></trkpt><trkpt lat="43.1501667" lon="11.57083"><ele>324.25</ele><time>2026-03-29T16:08:21.081Z</time></trkpt><trkpt lat="43.15027" lon="11.5706983"><ele>324.5</ele><time>2026-03-29T16:08:22.082Z</time></trkpt><trkpt lat="43.1503667" lon="11.5705733"><ele>324.75</ele><time>2026-03-29T16:08:23.081Z</time></trkpt><trkpt lat="43.15044" lon="11.57046"><ele>325.0</ele><time>2026-03-29T16:08:24.081Z</time></trkpt><trkpt lat="43.1504983" lon="11.5703483"><ele>324.25</ele><time>2026-03-29T16:08:25.081Z</time></trkpt><trkpt lat="43.1505367" lon="11.5702133"><ele>323.5</ele><time>2026-03-29T16:08:26.082Z</time></trkpt><trkpt lat="43.15056" lon="11.570055"><ele>322.75</ele><time>2026-03-29T16:08:27.081Z</time></trkpt><trkpt lat="43.1505583" lon="11.5698783"><ele>322.0</ele><time>2026-03-29T16:08:28.082Z</time></trkpt><trkpt lat="43.15054" lon="11.5696983"><ele>322.25</ele><time>2026-03-29T16:08:29.082Z</time></trkpt><trkpt lat="43.150505" lon="11.5695117"><ele>322.5</ele><time>2026-03-29T16:08:30.082Z</time></trkpt><trkpt lat="43.15046" lon="11.5693233"><ele>322.75</ele><time>2026-03-29T16:08:31.082Z</time></trkpt><trkpt lat="43.1504217" lon="11.5691233"><ele>323.0</ele><time>2026-03-29T16:08:32.082Z</time></trkpt><trkpt lat="43.1503867" lon="11.56894"><ele>323.0</ele><time>2026-03-29T16:08:33.082Z</time></trkpt><trkpt lat="43.1503467" lon="11.5687567"><ele>323.0</ele><time>2026-03-29T16:08:34.082Z</time></trkpt><trkpt lat="43.150305" lon="11.5685733"><ele>323.0</ele><time>2026-03-29T16:08:35.082Z</time></trkpt><trkpt lat="43.1502817" lon="11.5683867"><ele>323.0</ele><time>2026-03-29T16:08:36.082Z</time></trkpt><trkpt lat="43.15027" lon="11.5681983"><ele>324.0</ele><time>2026-03-29T16:08:37.081Z</time></trkpt><trkpt lat="43.15027" lon="11.56801"><ele>325.0</ele><time>2026-03-29T16:08:38.082Z</time></trkpt><trkpt lat="43.150295" lon="11.5678267"><ele>326.0</ele><time>2026-03-29T16:08:39.081Z</time></trkpt><trkpt lat="43.1503333" lon="11.5676583"><ele>327.0</ele><time>2026-03-29T16:08:40.081Z</time></trkpt><trkpt lat="43.1503767" lon="11.5675267"><ele>327.8</ele><time>2026-03-29T16:08:41.082Z</time></trkpt><trkpt lat="43.1504183" lon="11.5674133"><ele>328.6</ele><time>2026-03-29T16:08:42.082Z</time></trkpt><trkpt lat="43.15047" lon="11.5673033"><ele>329.40000000000003</ele><time>2026-03-29T16:08:43.082Z</time></trkpt><trkpt lat="43.15053" lon="11.567185"><ele>330.20000000000005</ele><time>2026-03-29T16:08:44.082Z</time></trkpt><trkpt lat="43.150595" lon="11.5670533"><ele>331.0</ele><time>2026-03-29T16:08:45.082Z</time></trkpt><trkpt lat="43.150665" lon="11.5668833"><ele>330.25</ele><time>2026-03-29T16:08:46.081Z</time></trkpt><trkpt lat="43.15075" lon="11.5667117"><ele>329.5</ele><time>2026-03-29T16:08:47.081Z</time></trkpt><trkpt lat="43.15083" lon="11.5665383"><ele>328.75</ele><time>2026-03-29T16:08:48.081Z</time></trkpt><trkpt lat="43.150895" lon="11.5663567"><ele>328.0</ele><time>2026-03-29T16:08:49.082Z</time></trkpt><trkpt lat="43.15097" lon="11.5661717"><ele>328.0</ele><time>2026-03-29T16:08:50.082Z</time></trkpt><trkpt lat="43.1510467" lon="11.5660033"><ele>328.0</ele><time>2026-03-29T16:08:51.082Z</time></trkpt><trkpt lat="43.1511167" lon="11.5658517"><ele>328.0</ele><time>2026-03-29T16:08:52.082Z</time></trkpt><trkpt lat="43.1511533" lon="11.5656917"><ele>328.0</ele><time>2026-03-29T16:08:53.082Z</time></trkpt><trkpt lat="43.1511667" lon="11.56552"><ele>326.25</ele><time>2026-03-29T16:08:54.082Z</time></trkpt><trkpt lat="43.1511717" lon="11.56533"><ele>324.5</ele><time>2026-03-29T16:08:55.082Z</time></trkpt><trkpt lat="43.1511667" lon="11.5651467"><ele>322.75</ele><time>2026-03-29T16:08:56.082Z</time></trkpt><trkpt lat="43.15116" lon="11.5649633"><ele>321.0</ele><time>2026-03-29T16:08:57.082Z</time></trkpt><trkpt lat="43.1511567" lon="11.5647767"><ele>321.0</ele><time>2026-03-29T16:08:58.081Z</time></trkpt><trkpt lat="43.1511367" lon="11.564595"><ele>321.0</ele><time>2026-03-29T16:08:59.082Z</time></trkpt><trkpt lat="43.1511183" lon="11.5644167"><ele>321.0</ele><time>2026-03-29T16:09:00.082Z</time></trkpt><trkpt lat="43.1511117" lon="11.56422"><ele>321.0</ele><time>2026-03-29T16:09:01.081Z</time></trkpt><trkpt lat="43.151095" lon="11.5640283"><ele>321.0</ele><time>2026-03-29T16:09:02.082Z</time></trkpt><trkpt lat="43.15108" lon="11.5638283"><ele>321.0</ele><time>2026-03-29T16:09:03.082Z</time></trkpt><trkpt lat="43.1510383" lon="11.5636167"><ele>321.0</ele><time>2026-03-29T16:09:04.082Z</time></trkpt><trkpt lat="43.1509867" lon="11.5634033"><ele>322.0</ele><time>2026-03-29T16:09:05.081Z</time></trkpt><trkpt lat="43.150955" lon="11.5632317"><ele>323.0</ele><time>2026-03-29T16:09:06.082Z</time></trkpt><trkpt lat="43.150925" lon="11.5630683"><ele>324.0</ele><time>2026-03-29T16:09:07.082Z</time></trkpt><trkpt lat="43.1508967" lon="11.5628983"><ele>325.0</ele><time>2026-03-29T16:09:08.082Z</time></trkpt><trkpt lat="43.1508817" lon="11.5627183"><ele>326.0</ele><time>2026-03-29T16:09:09.082Z</time></trkpt><trkpt lat="43.1508783" lon="11.5625133"><ele>327.0</ele><time>2026-03-29T16:09:10.082Z</time></trkpt><trkpt lat="43.1508967" lon="11.56232"><ele>328.0</ele><time>2026-03-29T16:09:11.082Z</time></trkpt><trkpt lat="43.1509433" lon="11.562145"><ele>329.0</ele><time>2026-03-29T16:09:12.082Z</time></trkpt><trkpt lat="43.1509933" lon="11.561995"><ele>329.25</ele><time>2026-03-29T16:09:13.082Z</time></trkpt><trkpt lat="43.1510833" lon="11.56187"><ele>329.5</ele><time>2026-03-29T16:09:14.082Z</time></trkpt><trkpt lat="43.151195" lon="11.56174"><ele>329.75</ele><time>2026-03-29T16:09:15.082Z</time></trkpt><trkpt lat="43.1513217" lon="11.56159"><ele>330.0</ele><time>2026-03-29T16:09:16.081Z</time></trkpt><trkpt lat="43.1514667" lon="11.56143"><ele>332.5</ele><time>2026-03-29T16:09:17.082Z</time></trkpt><trkpt lat="43.1516" lon="11.5613"><ele>335.0</ele><time>2026-03-29T16:09:18.082Z</time></trkpt><trkpt lat="43.1517217" lon="11.5611967"><ele>337.5</ele><time>2026-03-29T16:09:19.081Z</time></trkpt><trkpt lat="43.15183" lon="11.5611033"><ele>340.0</ele><time>2026-03-29T16:09:20.081Z</time></trkpt><trkpt lat="43.1519117" lon="11.5609933"><ele>342.0</ele><time>2026-03-29T16:09:21.082Z</time></trkpt><trkpt lat="43.1519783" lon="11.5608417"><ele>344.0</ele><time>2026-03-29T16:09:22.082Z</time></trkpt><trkpt lat="43.1520367" lon="11.5606817"><ele>346.0</ele><time>2026-03-29T16:09:23.082Z</time></trkpt><trkpt lat="43.15209" lon="11.56054"><ele>348.0</ele><time>2026-03-29T16:09:24.081Z</time></trkpt><trkpt lat="43.15213" lon="11.56039"><ele>345.25</ele><time>2026-03-29T16:09:25.081Z</time></trkpt><trkpt lat="43.1521517" lon="11.5602267"><ele>342.5</ele><time>2026-03-29T16:09:26.082Z</time></trkpt><trkpt lat="43.15217" lon="11.5600583"><ele>339.75</ele><time>2026-03-29T16:09:27.082Z</time></trkpt><trkpt lat="43.1522067" lon="11.55989"><ele>337.0</ele><time>2026-03-29T16:09:28.081Z</time></trkpt><trkpt lat="43.1522567" lon="11.5597183"><ele>337.0</ele><time>2026-03-29T16:09:29.081Z</time></trkpt><trkpt lat="43.152285" lon="11.5595583"><ele>337.0</ele><time>2026-03-29T16:09:30.081Z</time></trkpt><trkpt lat="43.1523033" lon="11.5593983"><ele>337.0</ele><time>2026-03-29T16:09:31.082Z</time></trkpt><trkpt lat="43.1523133" lon="11.5592767"><ele>337.0</ele><time>2026-03-29T16:09:32.082Z</time></trkpt><trkpt lat="43.152325" lon="11.55918"><ele>337.0</ele><time>2026-03-29T16:09:33.082Z</time></trkpt><trkpt lat="43.15235" lon="11.5590983"><ele>339.6</ele><time>2026-03-29T16:09:36.081Z</time></trkpt><trkpt lat="43.152445" lon="11.5590667"><ele>342.20000000000005</ele><time>2026-03-29T16:10:02.082Z</time></trkpt><trkpt lat="43.15253" lon="11.559055"><ele>344.8</ele><time>2026-03-29T16:10:04.081Z</time></trkpt><trkpt lat="43.152655" lon="11.5590417"><ele>347.4</ele><time>2026-03-29T16:10:06.082Z</time></trkpt><trkpt lat="43.1527317" lon="11.5590283"><ele>350.0</ele><time>2026-03-29T16:10:07.082Z</time></trkpt><trkpt lat="43.1528183" lon="11.5590133"><ele>350.0</ele><time>2026-03-29T16:10:08.082Z</time></trkpt><trkpt lat="43.15291" lon="11.5590117"><ele>350.0</ele><time>2026-03-29T16:10:09.081Z</time></trkpt><trkpt lat="43.15302" lon="11.559025"><ele>350.0</ele><time>2026-03-29T16:10:10.081Z</time></trkpt><trkpt lat="43.1531367" lon="11.5590467"><ele>350.0</ele><time>2026-03-29T16:10:11.081Z</time></trkpt><trkpt lat="43.15325" lon="11.5590733"><ele>350.0</ele><time>2026-03-29T16:10:12.082Z</time></trkpt><trkpt lat="43.1533733" lon="11.5590967"><ele>352.25</ele><time>2026-03-29T16:10:13.082Z</time></trkpt><trkpt lat="43.1534833" lon="11.5591167"><ele>354.5</ele><time>2026-03-29T16:10:14.081Z</time></trkpt><trkpt lat="43.1536" lon="11.5591233"><ele>356.75</ele><time>2026-03-29T16:10:15.082Z</time></trkpt><trkpt lat="43.1537167" lon="11.5591217"><ele>359.0</ele><time>2026-03-29T16:10:16.081Z</time></trkpt><trkpt lat="43.1538333" lon="11.5591133"><ele>359.0</ele><time>2026-03-29T16:10:17.082Z</time></trkpt><trkpt lat="43.1539467" lon="11.5590867"><ele>359.0</ele><time>2026-03-29T16:10:18.081Z</time></trkpt><trkpt lat="43.1540717" lon="11.5590633"><ele>359.0</ele><time>2026-03-29T16:10:19.082Z</time></trkpt><trkpt lat="43.1541767" lon="11.5590733"><ele>359.0</ele><time>2026-03-29T16:10:20.082Z</time></trkpt><trkpt lat="43.1542867" lon="11.5591117"><ele>359.0</ele><time>2026-03-29T16:10:21.081Z</time></trkpt><trkpt lat="43.1544183" lon="11.55919"><ele>359.0</ele><time>2026-03-29T16:10:22.081Z</time></trkpt><trkpt lat="43.15456" lon="11.5592767"><ele>359.0</ele><time>2026-03-29T16:10:23.081Z</time></trkpt><trkpt lat="43.1546917" lon="11.5593467"><ele>359.0</ele><time>2026-03-29T16:10:24.081Z</time></trkpt><trkpt lat="43.1548117" lon="11.5594467"><ele>360.5</ele><time>2026-03-29T16:10:25.082Z</time></trkpt><trkpt lat="43.1549183" lon="11.5595483"><ele>362.0</ele><time>2026-03-29T16:10:26.081Z</time></trkpt><trkpt lat="43.155015" lon="11.5596567"><ele>363.5</ele><time>2026-03-29T16:10:27.081Z</time></trkpt><trkpt lat="43.155095" lon="11.5597617"><ele>365.0</ele><time>2026-03-29T16:10:28.082Z</time></trkpt><trkpt lat="43.1551667" lon="11.5598467"><ele>365.0</ele><time>2026-03-29T16:10:29.082Z</time></trkpt><trkpt lat="43.1552583" lon="11.5599283"><ele>365.0</ele><time>2026-03-29T16:10:30.081Z</time></trkpt><trkpt lat="43.15536" lon="11.5599983"><ele>365.0</ele><time>2026-03-29T16:10:31.081Z</time></trkpt><trkpt lat="43.1554833" lon="11.5600817"><ele>365.0</ele><time>2026-03-29T16:10:32.081Z</time></trkpt><trkpt lat="43.1556367" lon="11.560165"><ele>361.0</ele><time>2026-03-29T16:10:33.082Z</time></trkpt><trkpt lat="43.15581" lon="11.5602617"><ele>357.0</ele><time>2026-03-29T16:10:34.082Z</time></trkpt><trkpt lat="43.1559733" lon="11.560365"><ele>353.0</ele><time>2026-03-29T16:10:35.081Z</time></trkpt><trkpt lat="43.1561267" lon="11.5604767"><ele>352.0</ele><time>2026-03-29T16:10:36.082Z</time></trkpt><trkpt lat="43.1562667" lon="11.5605833"><ele>351.0</ele><time>2026-03-29T16:10:37.082Z</time></trkpt><trkpt lat="43.156405" lon="11.56071"><ele>350.0</ele><time>2026-03-29T16:10:38.082Z</time></trkpt><trkpt lat="43.1565433" lon="11.5608483"><ele>349.6666666666667</ele><time>2026-03-29T16:10:39.082Z</time></trkpt><trkpt lat="43.156685" lon="11.5609883"><ele>349.3333333333333</ele><time>2026-03-29T16:10:40.082Z</time></trkpt><trkpt lat="43.1568233" lon="11.5611283"><ele>349.0</ele><time>2026-03-29T16:10:41.082Z</time></trkpt><trkpt lat="43.1569583" lon="11.5612617"><ele>349.0</ele><time>2026-03-29T16:10:42.082Z</time></trkpt><trkpt lat="43.1570817" lon="11.5613933"><ele>349.0</ele><time>2026-03-29T16:10:43.082Z</time></trkpt><trkpt lat="43.15719" lon="11.561515"><ele>349.0</ele><time>2026-03-29T16:10:44.081Z</time></trkpt><trkpt lat="43.1573" lon="11.56163"><ele>349.0</ele><time>2026-03-29T16:10:45.082Z</time></trkpt><trkpt lat="43.15742" lon="11.56174"><ele>351.75</ele><time>2026-03-29T16:10:46.082Z</time></trkpt><trkpt lat="43.1575267" lon="11.561845"><ele>354.5</ele><time>2026-03-29T16:10:47.082Z</time></trkpt><trkpt lat="43.15764" lon="11.56196"><ele>357.25</ele><time>2026-03-29T16:10:48.082Z</time></trkpt><trkpt lat="43.1577333" lon="11.56208"><ele>360.0</ele><time>2026-03-29T16:10:49.082Z</time></trkpt><trkpt lat="43.1577917" lon="11.56221"><ele>360.6</ele><time>2026-03-29T16:10:50.081Z</time></trkpt><trkpt lat="43.15784" lon="11.5623317"><ele>361.2</ele><time>2026-03-29T16:10:51.082Z</time></trkpt><trkpt lat="43.1578717" lon="11.5624517"><ele>361.79999999999995</ele><time>2026-03-29T16:10:52.081Z</time></trkpt><trkpt lat="43.1579083" lon="11.5625767"><ele>362.4</ele><time>2026-03-29T16:10:53.082Z</time></trkpt><trkpt lat="43.157945" lon="11.562695"><ele>363.0</ele><time>2026-03-29T16:10:54.082Z</time></trkpt><trkpt lat="43.1580017" lon="11.5628117"><ele>363.25</ele><time>2026-03-29T16:10:55.081Z</time></trkpt><trkpt lat="43.1580683" lon="11.56295"><ele>363.5</ele><time>2026-03-29T16:10:56.081Z</time></trkpt><trkpt lat="43.158145" lon="11.56311"><ele>363.75</ele><time>2026-03-29T16:10:57.082Z</time></trkpt><trkpt lat="43.15823" lon="11.5632933"><ele>364.0</ele><time>2026-03-29T16:10:58.082Z</time></trkpt><trkpt lat="43.1583017" lon="11.5634633"><ele>365.25</ele><time>2026-03-29T16:10:59.082Z</time></trkpt><trkpt lat="43.158365" lon="11.5636067"><ele>366.5</ele><time>2026-03-29T16:11:00.082Z</time></trkpt><trkpt lat="43.158425" lon="11.5637483"><ele>367.75</ele><time>2026-03-29T16:11:01.082Z</time></trkpt><trkpt lat="43.1584917" lon="11.5638817"><ele>369.0</ele><time>2026-03-29T16:11:02.082Z</time></trkpt><trkpt lat="43.158565" lon="11.5639883"><ele>369.0</ele><time>2026-03-29T16:11:03.082Z</time></trkpt><trkpt lat="43.15865" lon="11.5640817"><ele>369.0</ele><time>2026-03-29T16:11:04.082Z</time></trkpt><trkpt lat="43.1587417" lon="11.5641733"><ele>369.0</ele><time>2026-03-29T16:11:05.081Z</time></trkpt><trkpt lat="43.1588433" lon="11.5642267"><ele>369.0</ele><time>2026-03-29T16:11:06.082Z</time></trkpt><trkpt lat="43.158955" lon="11.564255"><ele>369.0</ele><time>2026-03-29T16:11:07.082Z</time></trkpt><trkpt lat="43.15907" lon="11.5642533"><ele>370.25</ele><time>2026-03-29T16:11:08.081Z</time></trkpt><trkpt lat="43.15919" lon="11.564235"><ele>371.5</ele><time>2026-03-29T16:11:09.082Z</time></trkpt><trkpt lat="43.1593083" lon="11.5641983"><ele>372.75</ele><time>2026-03-29T16:11:10.082Z</time></trkpt><trkpt lat="43.1594083" lon="11.5641283"><ele>374.0</ele><time>2026-03-29T16:11:11.082Z</time></trkpt><trkpt lat="43.1595" lon="11.564055"><ele>374.0</ele><time>2026-03-29T16:11:12.081Z</time></trkpt><trkpt lat="43.1595717" lon="11.5639667"><ele>374.0</ele><time>2026-03-29T16:11:13.082Z</time></trkpt><trkpt lat="43.159615" lon="11.5638767"><ele>374.0</ele><time>2026-03-29T16:11:14.082Z</time></trkpt><trkpt lat="43.1596467" lon="11.56376"><ele>374.0</ele><time>2026-03-29T16:11:15.082Z</time></trkpt><trkpt lat="43.15967" lon="11.5636517"><ele>374.0</ele><time>2026-03-29T16:11:16.082Z</time></trkpt><trkpt lat="43.1596967" lon="11.5635617"><ele>374.0</ele><time>2026-03-29T16:11:17.082Z</time></trkpt><trkpt lat="43.1597233" lon="11.5634783"><ele>373.83333333333337</ele><time>2026-03-29T16:11:18.082Z</time></trkpt><trkpt lat="43.1597683" lon="11.5634067"><ele>373.6666666666667</ele><time>2026-03-29T16:11:19.083Z</time></trkpt><trkpt lat="43.1598417" lon="11.5633533"><ele>373.5</ele><time>2026-03-29T16:11:20.083Z</time></trkpt><trkpt lat="43.15992" lon="11.5633067"><ele>373.3333333333333</ele><time>2026-03-29T16:11:21.082Z</time></trkpt><trkpt lat="43.1599833" lon="11.56324"><ele>373.16666666666663</ele><time>2026-03-29T16:11:22.082Z</time></trkpt><trkpt lat="43.160045" lon="11.5631583"><ele>373.0</ele><time>2026-03-29T16:11:23.083Z</time></trkpt><trkpt lat="43.1601" lon="11.563065"><ele>373.0</ele><time>2026-03-29T16:11:24.083Z</time></trkpt><trkpt lat="43.1601517" lon="11.5629717"><ele>373.0</ele><time>2026-03-29T16:11:25.083Z</time></trkpt><trkpt lat="43.1602183" lon="11.5629017"><ele>373.0</ele><time>2026-03-29T16:11:26.083Z</time></trkpt><trkpt lat="43.1602917" lon="11.5628617"><ele>373.0</ele><time>2026-03-29T16:11:27.082Z</time></trkpt><trkpt lat="43.1603717" lon="11.5628467"><ele>373.0</ele><time>2026-03-29T16:11:28.082Z</time></trkpt><trkpt lat="43.1604617" lon="11.56288"><ele>373.0</ele><time>2026-03-29T16:11:29.082Z</time></trkpt><trkpt lat="43.1605717" lon="11.5629417"><ele>373.0</ele><time>2026-03-29T16:11:30.083Z</time></trkpt><trkpt lat="43.1606867" lon="11.5630083"><ele>373.0</ele><time>2026-03-29T16:11:31.083Z</time></trkpt><trkpt lat="43.1607833" lon="11.5630733"><ele>373.0</ele><time>2026-03-29T16:11:32.083Z</time></trkpt><trkpt lat="43.16087" lon="11.5631483"><ele>373.0</ele><time>2026-03-29T16:11:33.083Z</time></trkpt><trkpt lat="43.1609633" lon="11.5632233"><ele>373.0</ele><time>2026-03-29T16:11:34.083Z</time></trkpt><trkpt lat="43.1610333" lon="11.5632767"><ele>372.0</ele><time>2026-03-29T16:11:35.083Z</time></trkpt><trkpt lat="43.1611167" lon="11.5632983"><ele>371.0</ele><time>2026-03-29T16:11:36.083Z</time></trkpt><trkpt lat="43.161225" lon="11.5633133"><ele>370.0</ele><time>2026-03-29T16:11:37.083Z</time></trkpt><trkpt lat="43.1613267" lon="11.5633367"><ele>369.0</ele><time>2026-03-29T16:11:38.083Z</time></trkpt><trkpt lat="43.1614317" lon="11.5633883"><ele>368.0</ele><time>2026-03-29T16:11:39.083Z</time></trkpt><trkpt lat="43.1615183" lon="11.56341"><ele>365.5</ele><time>2026-03-29T16:11:40.082Z</time></trkpt><trkpt lat="43.1616067" lon="11.5633767"><ele>363.0</ele><time>2026-03-29T16:11:41.083Z</time></trkpt><trkpt lat="43.1617233" lon="11.5633117"><ele>360.5</ele><time>2026-03-29T16:11:42.082Z</time></trkpt><trkpt lat="43.1618433" lon="11.5632283"><ele>358.0</ele><time>2026-03-29T16:11:43.083Z</time></trkpt><trkpt lat="43.1619917" lon="11.56312"><ele>358.0</ele><time>2026-03-29T16:11:44.083Z</time></trkpt><trkpt lat="43.16214" lon="11.563005"><ele>358.0</ele><time>2026-03-29T16:11:45.083Z</time></trkpt><trkpt lat="43.1622817" lon="11.5629233"><ele>358.0</ele><time>2026-03-29T16:11:46.083Z</time></trkpt><trkpt lat="43.1624" lon="11.562855"><ele>356.75</ele><time>2026-03-29T16:11:47.083Z</time></trkpt><trkpt lat="43.162505" lon="11.562825"><ele>355.5</ele><time>2026-03-29T16:11:48.082Z</time></trkpt><trkpt lat="43.16262" lon="11.5628233"><ele>354.25</ele><time>2026-03-29T16:11:49.083Z</time></trkpt><trkpt lat="43.1627367" lon="11.5628333"><ele>353.0</ele><time>2026-03-29T16:11:50.082Z</time></trkpt><trkpt lat="43.1628567" lon="11.5628683"><ele>352.25</ele><time>2026-03-29T16:11:51.082Z</time></trkpt><trkpt lat="43.1629617" lon="11.5629267"><ele>351.5</ele><time>2026-03-29T16:11:52.083Z</time></trkpt><trkpt lat="43.163045" lon="11.5630233"><ele>350.75</ele><time>2026-03-29T16:11:53.083Z</time></trkpt><trkpt lat="43.163145" lon="11.5631283"><ele>350.0</ele><time>2026-03-29T16:11:54.082Z</time></trkpt><trkpt lat="43.16324" lon="11.56323"><ele>350.0</ele><time>2026-03-29T16:11:55.083Z</time></trkpt><trkpt lat="43.16335" lon="11.5633167"><ele>350.0</ele><time>2026-03-29T16:11:56.083Z</time></trkpt><trkpt lat="43.16348" lon="11.5633767"><ele>350.0</ele><time>2026-03-29T16:11:57.082Z</time></trkpt><trkpt lat="43.1636167" lon="11.5634017"><ele>350.0</ele><time>2026-03-29T16:11:58.083Z</time></trkpt><trkpt lat="43.1637683" lon="11.563415"><ele>350.0</ele><time>2026-03-29T16:11:59.083Z</time></trkpt><trkpt lat="43.163955" lon="11.5634167"><ele>350.0</ele><time>2026-03-29T16:12:00.083Z</time></trkpt><trkpt lat="43.164115" lon="11.56341"><ele>350.0</ele><time>2026-03-29T16:12:01.083Z</time></trkpt><trkpt lat="43.16425" lon="11.5634083"><ele>352.5</ele><time>2026-03-29T16:12:02.083Z</time></trkpt><trkpt lat="43.164365" lon="11.563395"><ele>355.0</ele><time>2026-03-29T16:12:03.083Z</time></trkpt><trkpt lat="43.1644667" lon="11.56336"><ele>357.5</ele><time>2026-03-29T16:12:04.083Z</time></trkpt><trkpt lat="43.1645817" lon="11.5632917"><ele>360.0</ele><time>2026-03-29T16:12:05.083Z</time></trkpt><trkpt lat="43.164725" lon="11.563215"><ele>360.6666666666667</ele><time>2026-03-29T16:12:06.083Z</time></trkpt><trkpt lat="43.1648867" lon="11.56318"><ele>361.33333333333337</ele><time>2026-03-29T16:12:07.083Z</time></trkpt><trkpt lat="43.1650617" lon="11.5631567"><ele>362.0</ele><time>2026-03-29T16:12:08.082Z</time></trkpt><trkpt lat="43.1651983" lon="11.563145"><ele>362.0</ele><time>2026-03-29T16:12:09.083Z</time></trkpt><trkpt lat="43.1653033" lon="11.5631133"><ele>362.0</ele><time>2026-03-29T16:12:10.083Z</time></trkpt><trkpt lat="43.1653983" lon="11.5630633"><ele>362.0</ele><time>2026-03-29T16:12:11.082Z</time></trkpt><trkpt lat="43.1654717" lon="11.5629783"><ele>362.0</ele><time>2026-03-29T16:12:12.082Z</time></trkpt><trkpt lat="43.1655467" lon="11.562855"><ele>362.0</ele><time>2026-03-29T16:12:13.082Z</time></trkpt><trkpt lat="43.16563" lon="11.5627167"><ele>363.8</ele><time>2026-03-29T16:12:14.083Z</time></trkpt><trkpt lat="43.1657117" lon="11.562595"><ele>365.6</ele><time>2026-03-29T16:12:15.083Z</time></trkpt><trkpt lat="43.1657817" lon="11.5624883"><ele>367.40000000000003</ele><time>2026-03-29T16:12:16.082Z</time></trkpt><trkpt lat="43.165825" lon="11.5624083"><ele>369.20000000000005</ele><time>2026-03-29T16:12:17.083Z</time></trkpt><trkpt lat="43.1658733" lon="11.5622667"><ele>371.0</ele><time>2026-03-29T16:12:19.082Z</time></trkpt><trkpt lat="43.1659083" lon="11.562115"><ele>370.6666666666667</ele><time>2026-03-29T16:12:21.083Z</time></trkpt><trkpt lat="43.1659517" lon="11.5620067"><ele>370.33333333333337</ele><time>2026-03-29T16:12:30.083Z</time></trkpt><trkpt lat="43.16593" lon="11.5619167"><ele>370.0</ele><time>2026-03-29T16:13:40.083Z</time></trkpt><trkpt lat="43.16588" lon="11.5618317"><ele>369.6666666666667</ele><time>2026-03-29T16:13:43.083Z</time></trkpt><trkpt lat="43.1658067" lon="11.56175"><ele>369.3333333333333</ele><time>2026-03-29T16:13:46.082Z</time></trkpt><trkpt lat="43.165755" lon="11.5616783"><ele>369.0</ele><time>2026-03-29T16:13:48.082Z</time></trkpt><trkpt lat="43.1656833" lon="11.561515"><ele>369.2</ele><time>2026-03-29T16:13:50.082Z</time></trkpt><trkpt lat="43.165625" lon="11.5614083"><ele>369.4</ele><time>2026-03-29T16:13:51.083Z</time></trkpt><trkpt lat="43.165565" lon="11.5612833"><ele>369.6</ele><time>2026-03-29T16:13:52.083Z</time></trkpt><trkpt lat="43.1655167" lon="11.5611417"><ele>369.8</ele><time>2026-03-29T16:13:53.083Z</time></trkpt><trkpt lat="43.1655" lon="11.5609967"><ele>370.0</ele><time>2026-03-29T16:13:54.082Z</time></trkpt><trkpt lat="43.16549" lon="11.560845"><ele>370.0</ele><time>2026-03-29T16:13:55.083Z</time></trkpt><trkpt lat="43.165495" lon="11.560685"><ele>370.0</ele><time>2026-03-29T16:13:56.083Z</time></trkpt><trkpt lat="43.1655017" lon="11.5605067"><ele>370.0</ele><time>2026-03-29T16:13:57.082Z</time></trkpt><trkpt lat="43.16552" lon="11.5603517"><ele>370.0</ele><time>2026-03-29T16:13:58.082Z</time></trkpt><trkpt lat="43.1655317" lon="11.56021"><ele>367.8</ele><time>2026-03-29T16:13:59.082Z</time></trkpt><trkpt lat="43.16553" lon="11.560075"><ele>365.6</ele><time>2026-03-29T16:14:00.083Z</time></trkpt><trkpt lat="43.1655167" lon="11.5599383"><ele>363.4</ele><time>2026-03-29T16:14:01.083Z</time></trkpt><trkpt lat="43.1654967" lon="11.5597933"><ele>361.2</ele><time>2026-03-29T16:14:02.083Z</time></trkpt><trkpt lat="43.1654617" lon="11.5596483"><ele>359.0</ele><time>2026-03-29T16:14:03.083Z</time></trkpt><trkpt lat="43.1654167" lon="11.5594967"><ele>357.5</ele><time>2026-03-29T16:14:04.083Z</time></trkpt><trkpt lat="43.1653883" lon="11.559345"><ele>356.0</ele><time>2026-03-29T16:14:05.082Z</time></trkpt><trkpt lat="43.1653517" lon="11.5592067"><ele>354.5</ele><time>2026-03-29T16:14:06.083Z</time></trkpt><trkpt lat="43.1653117" lon="11.559055"><ele>353.0</ele><time>2026-03-29T16:14:07.082Z</time></trkpt><trkpt lat="43.1652533" lon="11.5589117"><ele>353.0</ele><time>2026-03-29T16:14:08.083Z</time></trkpt><trkpt lat="43.165195" lon="11.55878"><ele>353.0</ele><time>2026-03-29T16:14:09.083Z</time></trkpt><trkpt lat="43.16513" lon="11.5586617"><ele>353.0</ele><time>2026-03-29T16:14:10.083Z</time></trkpt><trkpt lat="43.165075" lon="11.5585483"><ele>353.0</ele><time>2026-03-29T16:14:11.082Z</time></trkpt><trkpt lat="43.1650067" lon="11.5584283"><ele>353.0</ele><time>2026-03-29T16:14:12.082Z</time></trkpt><trkpt lat="43.16493" lon="11.5583233"><ele>350.2</ele><time>2026-03-29T16:14:13.083Z</time></trkpt><trkpt lat="43.164855" lon="11.5582183"><ele>347.4</ele><time>2026-03-29T16:14:14.083Z</time></trkpt><trkpt lat="43.1648" lon="11.558105"><ele>344.59999999999997</ele><time>2026-03-29T16:14:15.083Z</time></trkpt><trkpt lat="43.1647667" lon="11.5579917"><ele>341.79999999999995</ele><time>2026-03-29T16:14:16.083Z</time></trkpt><trkpt lat="43.1647417" lon="11.5578867"><ele>339.0</ele><time>2026-03-29T16:14:17.082Z</time></trkpt><trkpt lat="43.1647267" lon="11.55777"><ele>339.0</ele><time>2026-03-29T16:14:18.083Z</time></trkpt><trkpt lat="43.1647317" lon="11.5576533"><ele>339.0</ele><time>2026-03-29T16:14:19.083Z</time></trkpt><trkpt lat="43.1647583" lon="11.5575383"><ele>339.0</ele><time>2026-03-29T16:14:20.082Z</time></trkpt><trkpt lat="43.1648" lon="11.5574317"><ele>339.0</ele><time>2026-03-29T16:14:21.082Z</time></trkpt><trkpt lat="43.16486" lon="11.5573317"><ele>339.0</ele><time>2026-03-29T16:14:22.083Z</time></trkpt><trkpt lat="43.16492" lon="11.5572517"><ele>339.0</ele><time>2026-03-29T16:14:23.083Z</time></trkpt><trkpt lat="43.16498" lon="11.5571733"><ele>339.0</ele><time>2026-03-29T16:14:24.082Z</time></trkpt><trkpt lat="43.16502" lon="11.557075"><ele>339.0</ele><time>2026-03-29T16:14:25.083Z</time></trkpt><trkpt lat="43.1650517" lon="11.55698"><ele>339.0</ele><time>2026-03-29T16:14:26.083Z</time></trkpt><trkpt lat="43.1650633" lon="11.556865"><ele>339.0</ele><time>2026-03-29T16:14:27.082Z</time></trkpt><trkpt lat="43.1650617" lon="11.5567367"><ele>339.0</ele><time>2026-03-29T16:14:28.083Z</time></trkpt><trkpt lat="43.1650567" lon="11.55661"><ele>339.0</ele><time>2026-03-29T16:14:29.083Z</time></trkpt><trkpt lat="43.1650417" lon="11.5564717"><ele>339.0</ele><time>2026-03-29T16:14:30.083Z</time></trkpt><trkpt lat="43.1650283" lon="11.55634"><ele>339.0</ele><time>2026-03-29T16:14:31.083Z</time></trkpt><trkpt lat="43.1650283" lon="11.5561983"><ele>339.0</ele><time>2026-03-29T16:14:32.082Z</time></trkpt><trkpt lat="43.1650183" lon="11.5560433"><ele>339.0</ele><time>2026-03-29T16:14:33.083Z</time></trkpt><trkpt lat="43.165" lon="11.55589"><ele>339.0</ele><time>2026-03-29T16:14:34.083Z</time></trkpt><trkpt lat="43.1649717" lon="11.5557367"><ele>337.4</ele><time>2026-03-29T16:14:35.083Z</time></trkpt><trkpt lat="43.16493" lon="11.5555833"><ele>335.79999999999995</ele><time>2026-03-29T16:14:36.082Z</time></trkpt><trkpt lat="43.1648867" lon="11.555445"><ele>334.20000000000005</ele><time>2026-03-29T16:14:37.083Z</time></trkpt><trkpt lat="43.1648383" lon="11.5553267"><ele>332.6</ele><time>2026-03-29T16:14:38.083Z</time></trkpt><trkpt lat="43.1648067" lon="11.555225"><ele>331.0</ele><time>2026-03-29T16:14:39.083Z</time></trkpt><trkpt lat="43.1647967" lon="11.55511"><ele>329.16666666666663</ele><time>2026-03-29T16:14:40.083Z</time></trkpt><trkpt lat="43.1648067" lon="11.5550067"><ele>327.3333333333333</ele><time>2026-03-29T16:14:41.082Z</time></trkpt><trkpt lat="43.1648567" lon="11.5549517"><ele>325.5</ele><time>2026-03-29T16:14:42.082Z</time></trkpt><trkpt lat="43.1649133" lon="11.5549017"><ele>323.6666666666667</ele><time>2026-03-29T16:14:43.083Z</time></trkpt><trkpt lat="43.164995" lon="11.554885"><ele>321.83333333333337</ele><time>2026-03-29T16:14:44.083Z</time></trkpt><trkpt lat="43.1650833" lon="11.5548917"><ele>320.0</ele><time>2026-03-29T16:14:45.083Z</time></trkpt><trkpt lat="43.165195" lon="11.5549367"><ele>320.0</ele><time>2026-03-29T16:14:46.082Z</time></trkpt><trkpt lat="43.1653167" lon="11.5549933"><ele>320.0</ele><time>2026-03-29T16:14:47.083Z</time></trkpt><trkpt lat="43.1654233" lon="11.5550383"><ele>320.0</ele><time>2026-03-29T16:14:48.083Z</time></trkpt><trkpt lat="43.1655283" lon="11.5550733"><ele>320.0</ele><time>2026-03-29T16:14:49.083Z</time></trkpt><trkpt lat="43.16562" lon="11.55508"><ele>320.0</ele><time>2026-03-29T16:14:50.083Z</time></trkpt><trkpt lat="43.1656967" lon="11.5550567"><ele>318.2</ele><time>2026-03-29T16:14:51.082Z</time></trkpt><trkpt lat="43.16577" lon="11.5550033"><ele>316.4</ele><time>2026-03-29T16:14:52.082Z</time></trkpt><trkpt lat="43.1658383" lon="11.5549067"><ele>314.6</ele><time>2026-03-29T16:14:53.083Z</time></trkpt><trkpt lat="43.1658933" lon="11.554785"><ele>312.8</ele><time>2026-03-29T16:14:54.082Z</time></trkpt><trkpt lat="43.1659217" lon="11.554655"><ele>311.0</ele><time>2026-03-29T16:14:55.082Z</time></trkpt><trkpt lat="43.1659317" lon="11.5545117"><ele>311.0</ele><time>2026-03-29T16:14:56.083Z</time></trkpt><trkpt lat="43.1659217" lon="11.5543667"><ele>311.0</ele><time>2026-03-29T16:14:57.082Z</time></trkpt><trkpt lat="43.1659133" lon="11.554225"><ele>311.0</ele><time>2026-03-29T16:14:58.083Z</time></trkpt><trkpt lat="43.1659117" lon="11.55409"><ele>311.0</ele><time>2026-03-29T16:14:59.083Z</time></trkpt><trkpt lat="43.165925" lon="11.553955"><ele>311.0</ele><time>2026-03-29T16:15:00.082Z</time></trkpt><trkpt lat="43.1659583" lon="11.5538283"><ele>311.0</ele><time>2026-03-29T16:15:01.082Z</time></trkpt><trkpt lat="43.1660083" lon="11.553725"><ele>311.0</ele><time>2026-03-29T16:15:02.083Z</time></trkpt><trkpt lat="43.166055" lon="11.5536367"><ele>311.0</ele><time>2026-03-29T16:15:03.083Z</time></trkpt><trkpt lat="43.1661" lon="11.5535533"><ele>311.0</ele><time>2026-03-29T16:15:04.083Z</time></trkpt><trkpt lat="43.1661333" lon="11.5534583"><ele>311.0</ele><time>2026-03-29T16:15:05.083Z</time></trkpt><trkpt lat="43.1661467" lon="11.5533583"><ele>311.0</ele><time>2026-03-29T16:15:06.083Z</time></trkpt><trkpt lat="43.1661217" lon="11.5532733"><ele>311.33333333333337</ele><time>2026-03-29T16:15:07.083Z</time></trkpt><trkpt lat="43.1660867" lon="11.5531967"><ele>311.6666666666667</ele><time>2026-03-29T16:15:08.082Z</time></trkpt><trkpt lat="43.1660317" lon="11.553115"><ele>312.0</ele><time>2026-03-29T16:15:10.082Z</time></trkpt><trkpt lat="43.16597" lon="11.5530683"><ele>312.3333333333333</ele><time>2026-03-29T16:15:13.083Z</time></trkpt><trkpt lat="43.165865" lon="11.552985"><ele>312.66666666666663</ele><time>2026-03-29T16:15:33.083Z</time></trkpt><trkpt lat="43.1658033" lon="11.55295"><ele>313.0</ele><time>2026-03-29T16:15:35.083Z</time></trkpt><trkpt lat="43.16573" lon="11.552895"><ele>312.16666666666663</ele><time>2026-03-29T16:15:37.083Z</time></trkpt><trkpt lat="43.1656283" lon="11.552815"><ele>311.3333333333333</ele><time>2026-03-29T16:15:39.083Z</time></trkpt><trkpt lat="43.1655667" lon="11.5527617"><ele>310.5</ele><time>2026-03-29T16:15:40.082Z</time></trkpt><trkpt lat="43.1655033" lon="11.5527067"><ele>309.6666666666667</ele><time>2026-03-29T16:15:41.083Z</time></trkpt><trkpt lat="43.1654333" lon="11.5526483"><ele>308.83333333333337</ele><time>2026-03-29T16:15:42.082Z</time></trkpt><trkpt lat="43.1653783" lon="11.552605"><ele>308.0</ele><time>2026-03-29T16:15:43.083Z</time></trkpt><trkpt lat="43.165275" lon="11.55253"><ele>308.0</ele><time>2026-03-29T16:15:45.083Z</time></trkpt><trkpt lat="43.1651783" lon="11.552475"><ele>308.0</ele><time>2026-03-29T16:15:47.083Z</time></trkpt><trkpt lat="43.1651083" lon="11.5524833"><ele>308.0</ele><time>2026-03-29T16:15:48.083Z</time></trkpt><trkpt lat="43.1650367" lon="11.5524883"><ele>308.0</ele><time>2026-03-29T16:15:49.083Z</time></trkpt><trkpt lat="43.16497" lon="11.5524933"><ele>308.0</ele><time>2026-03-29T16:15:50.083Z</time></trkpt><trkpt lat="43.164895" lon="11.5525033"><ele>308.0</ele><time>2026-03-29T16:15:51.083Z</time></trkpt><trkpt lat="43.164815" lon="11.5525017"><ele>307.33333333333337</ele><time>2026-03-29T16:15:52.082Z</time></trkpt><trkpt lat="43.1647483" lon="11.5524917"><ele>306.6666666666667</ele><time>2026-03-29T16:15:53.083Z</time></trkpt><trkpt lat="43.16468" lon="11.5524833"><ele>306.0</ele><time>2026-03-29T16:15:54.082Z</time></trkpt><trkpt lat="43.1646133" lon="11.5524767"><ele>305.3333333333333</ele><time>2026-03-29T16:15:55.083Z</time></trkpt><trkpt lat="43.16455" lon="11.5524567"><ele>304.66666666666663</ele><time>2026-03-29T16:15:56.083Z</time></trkpt><trkpt lat="43.16444" lon="11.55241"><ele>304.0</ele><time>2026-03-29T16:15:58.083Z</time></trkpt><trkpt lat="43.1643333" lon="11.5523817"><ele>304.0</ele><time>2026-03-29T16:16:00.083Z</time></trkpt><trkpt lat="43.1642717" lon="11.5523533"><ele>304.0</ele><time>2026-03-29T16:16:01.083Z</time></trkpt><trkpt lat="43.1642033" lon="11.5523183"><ele>304.0</ele><time>2026-03-29T16:16:02.083Z</time></trkpt><trkpt lat="43.1641333" lon="11.5522783"><ele>304.0</ele><time>2026-03-29T16:16:03.082Z</time></trkpt><trkpt lat="43.1640633" lon="11.55224"><ele>304.0</ele><time>2026-03-29T16:16:04.082Z</time></trkpt><trkpt lat="43.1639983" lon="11.5522"><ele>304.0</ele><time>2026-03-29T16:16:05.082Z</time></trkpt><trkpt lat="43.1639383" lon="11.5521633"><ele>304.0</ele><time>2026-03-29T16:16:06.082Z</time></trkpt><trkpt lat="43.1638383" lon="11.5521083"><ele>304.3333333333333</ele><time>2026-03-29T16:16:08.083Z</time></trkpt><trkpt lat="43.1637633" lon="11.55208"><ele>304.66666666666663</ele><time>2026-03-29T16:16:09.083Z</time></trkpt><trkpt lat="43.1637" lon="11.5520367"><ele>305.0</ele><time>2026-03-29T16:16:10.083Z</time></trkpt><trkpt lat="43.1636383" lon="11.552"><ele>305.3333333333333</ele><time>2026-03-29T16:16:11.082Z</time></trkpt><trkpt lat="43.1635717" lon="11.5519667"><ele>305.6666666666667</ele><time>2026-03-29T16:16:12.083Z</time></trkpt><trkpt lat="43.1634867" lon="11.5519417"><ele>306.0</ele><time>2026-03-29T16:16:13.083Z</time></trkpt><trkpt lat="43.1633917" lon="11.5519217"><ele>307.1666666666667</ele><time>2026-03-29T16:16:14.083Z</time></trkpt><trkpt lat="43.1632983" lon="11.551895"><ele>308.3333333333333</ele><time>2026-03-29T16:16:15.083Z</time></trkpt><trkpt lat="43.1632133" lon="11.55186"><ele>309.5</ele><time>2026-03-29T16:16:16.083Z</time></trkpt><trkpt lat="43.16315" lon="11.5518117"><ele>310.66666666666663</ele><time>2026-03-29T16:16:17.083Z</time></trkpt><trkpt lat="43.1631033" lon="11.5517533"><ele>311.8333333333333</ele><time>2026-03-29T16:16:18.083Z</time></trkpt><trkpt lat="43.163" lon="11.5516683"><ele>313.0</ele><time>2026-03-29T16:16:20.082Z</time></trkpt><trkpt lat="43.1628767" lon="11.55162"><ele>314.0</ele><time>2026-03-29T16:16:22.083Z</time></trkpt><trkpt lat="43.16281" lon="11.5515833"><ele>315.0</ele><time>2026-03-29T16:16:23.082Z</time></trkpt><trkpt lat="43.1627483" lon="11.5515433"><ele>316.0</ele><time>2026-03-29T16:16:24.082Z</time></trkpt><trkpt lat="43.1626817" lon="11.5515017"><ele>317.0</ele><time>2026-03-29T16:16:25.082Z</time></trkpt><trkpt lat="43.1626217" lon="11.5514733"><ele>318.0</ele><time>2026-03-29T16:16:26.083Z</time></trkpt><trkpt lat="43.16249" lon="11.551455"><ele>319.0</ele><time>2026-03-29T16:16:28.083Z</time></trkpt><trkpt lat="43.16241" lon="11.5514617"><ele>317.3333333333333</ele><time>2026-03-29T16:16:29.083Z</time></trkpt><trkpt lat="43.162325" lon="11.5514717"><ele>315.66666666666663</ele><time>2026-03-29T16:16:30.083Z</time></trkpt><trkpt lat="43.1622417" lon="11.5514917"><ele>314.0</ele><time>2026-03-29T16:16:31.082Z</time></trkpt><trkpt lat="43.1621617" lon="11.55152"><ele>312.3333333333333</ele><time>2026-03-29T16:16:32.082Z</time></trkpt><trkpt lat="43.1620717" lon="11.5515233"><ele>310.6666666666667</ele><time>2026-03-29T16:16:33.083Z</time></trkpt><trkpt lat="43.1619817" lon="11.5515183"><ele>309.0</ele><time>2026-03-29T16:16:34.082Z</time></trkpt><trkpt lat="43.1618967" lon="11.551505"><ele>309.0</ele><time>2026-03-29T16:16:35.083Z</time></trkpt><trkpt lat="43.1618133" lon="11.5515"><ele>309.0</ele><time>2026-03-29T16:16:36.083Z</time></trkpt><trkpt lat="43.1617167" lon="11.5515067"><ele>309.0</ele><time>2026-03-29T16:16:37.082Z</time></trkpt><trkpt lat="43.1616383" lon="11.5515183"><ele>309.0</ele><time>2026-03-29T16:16:38.083Z</time></trkpt><trkpt lat="43.1615533" lon="11.5515233"><ele>309.0</ele><time>2026-03-29T16:16:39.083Z</time></trkpt><trkpt lat="43.1614817" lon="11.5515033"><ele>309.0</ele><time>2026-03-29T16:16:40.083Z</time></trkpt><trkpt lat="43.16142" lon="11.5514667"><ele>308.5714285714286</ele><time>2026-03-29T16:16:41.083Z</time></trkpt><trkpt lat="43.1613717" lon="11.5514033"><ele>308.14285714285717</ele><time>2026-03-29T16:16:42.083Z</time></trkpt><trkpt lat="43.1613217" lon="11.5513383"><ele>307.7142857142857</ele><time>2026-03-29T16:16:43.083Z</time></trkpt><trkpt lat="43.16127" lon="11.5512733"><ele>307.28571428571433</ele><time>2026-03-29T16:16:44.082Z</time></trkpt><trkpt lat="43.1612183" lon="11.5511983"><ele>306.8571428571429</ele><time>2026-03-29T16:16:45.083Z</time></trkpt><trkpt lat="43.1611733" lon="11.5511233"><ele>306.42857142857144</ele><time>2026-03-29T16:16:46.082Z</time></trkpt><trkpt lat="43.1611217" lon="11.551065"><ele>306.0</ele><time>2026-03-29T16:16:47.083Z</time></trkpt><trkpt lat="43.1610417" lon="11.55096"><ele>306.0</ele><time>2026-03-29T16:16:49.083Z</time></trkpt><trkpt lat="43.1609733" lon="11.550895"><ele>306.0</ele><time>2026-03-29T16:16:51.083Z</time></trkpt><trkpt lat="43.1608517" lon="11.5508467"><ele>306.0</ele><time>2026-03-29T16:16:53.083Z</time></trkpt><trkpt lat="43.1607333" lon="11.550765"><ele>306.0</ele><time>2026-03-29T16:16:55.083Z</time></trkpt><trkpt lat="43.160665" lon="11.55071"><ele>306.0</ele><time>2026-03-29T16:16:56.083Z</time></trkpt><trkpt lat="43.1605967" lon="11.5506567"><ele>305.5</ele><time>2026-03-29T16:16:57.082Z</time></trkpt><trkpt lat="43.16053" lon="11.5506117"><ele>305.0</ele><time>2026-03-29T16:16:58.083Z</time></trkpt><trkpt lat="43.160465" lon="11.550565"><ele>304.5</ele><time>2026-03-29T16:16:59.082Z</time></trkpt><trkpt lat="43.1603867" lon="11.5505133"><ele>304.0</ele><time>2026-03-29T16:17:00.083Z</time></trkpt><trkpt lat="43.1603083" lon="11.55047"><ele>303.5</ele><time>2026-03-29T16:17:01.083Z</time></trkpt><trkpt lat="43.1602367" lon="11.550435"><ele>303.0</ele><time>2026-03-29T16:17:02.082Z</time></trkpt><trkpt lat="43.1601683" lon="11.550395"><ele>303.1666666666667</ele><time>2026-03-29T16:17:03.083Z</time></trkpt><trkpt lat="43.1601" lon="11.5503583"><ele>303.3333333333333</ele><time>2026-03-29T16:17:04.083Z</time></trkpt><trkpt lat="43.16004" lon="11.55033"><ele>303.5</ele><time>2026-03-29T16:17:05.083Z</time></trkpt><trkpt lat="43.1599567" lon="11.5503017"><ele>303.66666666666663</ele><time>2026-03-29T16:17:06.083Z</time></trkpt><trkpt lat="43.1598717" lon="11.55027"><ele>303.8333333333333</ele><time>2026-03-29T16:17:07.082Z</time></trkpt><trkpt lat="43.1597983" lon="11.5502417"><ele>304.0</ele><time>2026-03-29T16:17:08.083Z</time></trkpt><trkpt lat="43.1597233" lon="11.5502167"><ele>303.2</ele><time>2026-03-29T16:17:09.083Z</time></trkpt><trkpt lat="43.15961" lon="11.55019"><ele>302.4</ele><time>2026-03-29T16:17:11.083Z</time></trkpt><trkpt lat="43.1594867" lon="11.5501383"><ele>301.6</ele><time>2026-03-29T16:17:13.082Z</time></trkpt><trkpt lat="43.1594067" lon="11.5501033"><ele>300.8</ele><time>2026-03-29T16:17:14.083Z</time></trkpt><trkpt lat="43.1593267" lon="11.5500533"><ele>300.0</ele><time>2026-03-29T16:17:15.082Z</time></trkpt><trkpt lat="43.1592567" lon="11.5500067"><ele>300.0</ele><time>2026-03-29T16:17:16.083Z</time></trkpt><trkpt lat="43.1592017" lon="11.549955"><ele>300.0</ele><time>2026-03-29T16:17:17.083Z</time></trkpt><trkpt lat="43.159115" lon="11.5498533"><ele>300.0</ele><time>2026-03-29T16:17:19.082Z</time></trkpt><trkpt lat="43.1590183" lon="11.5497317"><ele>300.0</ele><time>2026-03-29T16:17:21.083Z</time></trkpt><trkpt lat="43.1589367" lon="11.5496"><ele>300.0</ele><time>2026-03-29T16:17:23.083Z</time></trkpt><trkpt lat="43.1588883" lon="11.5494717"><ele>298.0</ele><time>2026-03-29T16:17:25.083Z</time></trkpt><trkpt lat="43.1588617" lon="11.549335"><ele>296.0</ele><time>2026-03-29T16:17:27.083Z</time></trkpt><trkpt lat="43.1588433" lon="11.5492467"><ele>294.0</ele><time>2026-03-29T16:17:28.083Z</time></trkpt><trkpt lat="43.158825" lon="11.5491567"><ele>292.0</ele><time>2026-03-29T16:17:29.083Z</time></trkpt><trkpt lat="43.15881" lon="11.5490467"><ele>290.0</ele><time>2026-03-29T16:17:30.083Z</time></trkpt><trkpt lat="43.1588017" lon="11.54894"><ele>288.0</ele><time>2026-03-29T16:17:31.083Z</time></trkpt><trkpt lat="43.1587783" lon="11.548775"><ele>290.75</ele><time>2026-03-29T16:17:33.083Z</time></trkpt><trkpt lat="43.1587683" lon="11.54861"><ele>293.5</ele><time>2026-03-29T16:17:35.083Z</time></trkpt><trkpt lat="43.1587617" lon="11.5484433"><ele>296.25</ele><time>2026-03-29T16:17:37.083Z</time></trkpt><trkpt lat="43.1587617" lon="11.5482817"><ele>299.0</ele><time>2026-03-29T16:17:39.083Z</time></trkpt><trkpt lat="43.15876" lon="11.5481483"><ele>299.0</ele><time>2026-03-29T16:17:41.083Z</time></trkpt><trkpt lat="43.1587417" lon="11.548"><ele>299.0</ele><time>2026-03-29T16:17:43.082Z</time></trkpt><trkpt lat="43.1587033" lon="11.5478483"><ele>299.0</ele><time>2026-03-29T16:17:45.083Z</time></trkpt><trkpt lat="43.1586883" lon="11.5477617"><ele>299.0</ele><time>2026-03-29T16:17:46.082Z</time></trkpt><trkpt lat="43.15869" lon="11.54767"><ele>299.0</ele><time>2026-03-29T16:17:47.082Z</time></trkpt><trkpt lat="43.1587033" lon="11.5475717"><ele>299.0</ele><time>2026-03-29T16:17:48.082Z</time></trkpt><trkpt lat="43.1587233" lon="11.5474733"><ele>298.1666666666667</ele><time>2026-03-29T16:17:49.083Z</time></trkpt><trkpt lat="43.1587417" lon="11.5473717"><ele>297.33333333333337</ele><time>2026-03-29T16:17:50.083Z</time></trkpt><trkpt lat="43.1587483" lon="11.5472717"><ele>296.5</ele><time>2026-03-29T16:17:51.082Z</time></trkpt><trkpt lat="43.15876" lon="11.54717"><ele>295.6666666666667</ele><time>2026-03-29T16:17:52.082Z</time></trkpt><trkpt lat="43.1587767" lon="11.5470767"><ele>294.8333333333333</ele><time>2026-03-29T16:17:53.083Z</time></trkpt><trkpt lat="43.1588017" lon="11.5469283"><ele>294.0</ele><time>2026-03-29T16:17:55.083Z</time></trkpt><trkpt lat="43.158815" lon="11.5467867"><ele>293.8</ele><time>2026-03-29T16:17:57.083Z</time></trkpt><trkpt lat="43.1588083" lon="11.54664"><ele>293.59999999999997</ele><time>2026-03-29T16:17:59.082Z</time></trkpt><trkpt lat="43.1587733" lon="11.5465017"><ele>293.4</ele><time>2026-03-29T16:18:01.082Z</time></trkpt><trkpt lat="43.1587533" lon="11.54634"><ele>293.2</ele><time>2026-03-29T16:18:03.083Z</time></trkpt><trkpt lat="43.1587417" lon="11.5462517"><ele>293.0</ele><time>2026-03-29T16:18:04.083Z</time></trkpt><trkpt lat="43.1587367" lon="11.5461633"><ele>295.33333333333337</ele><time>2026-03-29T16:18:05.083Z</time></trkpt><trkpt lat="43.1587333" lon="11.5460117"><ele>297.6666666666667</ele><time>2026-03-29T16:18:07.082Z</time></trkpt><trkpt lat="43.15869" lon="11.545885"><ele>300.0</ele><time>2026-03-29T16:18:09.082Z</time></trkpt><trkpt lat="43.158645" lon="11.5458233"><ele>302.3333333333333</ele><time>2026-03-29T16:18:10.083Z</time></trkpt><trkpt lat="43.1585983" lon="11.5457567"><ele>304.66666666666663</ele><time>2026-03-29T16:18:11.082Z</time></trkpt><trkpt lat="43.1585533" lon="11.545695"><ele>307.0</ele><time>2026-03-29T16:18:12.082Z</time></trkpt><trkpt lat="43.1585067" lon="11.5456333"><ele>307.0</ele><time>2026-03-29T16:18:13.083Z</time></trkpt><trkpt lat="43.15842" lon="11.5455183"><ele>307.0</ele><time>2026-03-29T16:18:15.083Z</time></trkpt><trkpt lat="43.1583683" lon="11.5454267"><ele>307.0</ele><time>2026-03-29T16:18:17.083Z</time></trkpt><trkpt lat="43.1583133" lon="11.5453317"><ele>307.0</ele><time>2026-03-29T16:18:19.083Z</time></trkpt><trkpt lat="43.15824" lon="11.545265"><ele>307.0</ele><time>2026-03-29T16:18:21.083Z</time></trkpt><trkpt lat="43.1581633" lon="11.5452067"><ele>306.2</ele><time>2026-03-29T16:18:23.082Z</time></trkpt><trkpt lat="43.1580617" lon="11.5451267"><ele>305.4</ele><time>2026-03-29T16:18:25.083Z</time></trkpt><trkpt lat="43.1580017" lon="11.54508"><ele>304.6</ele><time>2026-03-29T16:18:26.082Z</time></trkpt><trkpt lat="43.1579333" lon="11.545045"><ele>303.8</ele><time>2026-03-29T16:18:27.083Z</time></trkpt><trkpt lat="43.15787" lon="11.54503"><ele>303.0</ele><time>2026-03-29T16:18:28.082Z</time></trkpt><trkpt lat="43.1577433" lon="11.54501"><ele>303.0</ele><time>2026-03-29T16:18:30.082Z</time></trkpt><trkpt lat="43.1576183" lon="11.544985"><ele>303.0</ele><time>2026-03-29T16:18:32.083Z</time></trkpt><trkpt lat="43.1575567" lon="11.5449617"><ele>303.0</ele><time>2026-03-29T16:18:33.083Z</time></trkpt><trkpt lat="43.1574967" lon="11.544935"><ele>303.0</ele><time>2026-03-29T16:18:34.083Z</time></trkpt><trkpt lat="43.15739" lon="11.544915"><ele>303.0</ele><time>2026-03-29T16:18:36.083Z</time></trkpt><trkpt lat="43.1572967" lon="11.5448817"><ele>302.6</ele><time>2026-03-29T16:18:38.082Z</time></trkpt><trkpt lat="43.1571783" lon="11.544805"><ele>302.20000000000005</ele><time>2026-03-29T16:18:40.082Z</time></trkpt><trkpt lat="43.15712" lon="11.54475"><ele>301.8</ele><time>2026-03-29T16:18:41.083Z</time></trkpt><trkpt lat="43.1570617" lon="11.5446867"><ele>301.40000000000003</ele><time>2026-03-29T16:18:42.083Z</time></trkpt><trkpt lat="43.1569517" lon="11.5445983"><ele>301.0</ele><time>2026-03-29T16:18:44.083Z</time></trkpt><trkpt lat="43.1568367" lon="11.544545"><ele>302.40000000000003</ele><time>2026-03-29T16:18:46.083Z</time></trkpt><trkpt lat="43.1567367" lon="11.544475"><ele>303.8</ele><time>2026-03-29T16:18:48.083Z</time></trkpt><trkpt lat="43.1566617" lon="11.544415"><ele>305.20000000000005</ele><time>2026-03-29T16:18:50.082Z</time></trkpt><trkpt lat="43.1565733" lon="11.5443733"><ele>306.6</ele><time>2026-03-29T16:18:52.083Z</time></trkpt><trkpt lat="43.156485" lon="11.5443267"><ele>308.0</ele><time>2026-03-29T16:18:54.083Z</time></trkpt><trkpt lat="43.1563767" lon="11.5442767"><ele>308.5</ele><time>2026-03-29T16:18:56.083Z</time></trkpt><trkpt lat="43.1563117" lon="11.5442583"><ele>309.0</ele><time>2026-03-29T16:18:57.083Z</time></trkpt><trkpt lat="43.15625" lon="11.544225"><ele>309.5</ele><time>2026-03-29T16:18:58.083Z</time></trkpt><trkpt lat="43.1561433" lon="11.5441167"><ele>310.0</ele><time>2026-03-29T16:19:00.082Z</time></trkpt><trkpt lat="43.1560917" lon="11.54404"><ele>310.5</ele><time>2026-03-29T16:19:01.082Z</time></trkpt><trkpt lat="43.1560417" lon="11.5439717"><ele>311.0</ele><time>2026-03-29T16:19:02.082Z</time></trkpt><trkpt lat="43.1559933" lon="11.5439017"><ele>311.0</ele><time>2026-03-29T16:19:03.082Z</time></trkpt><trkpt lat="43.1559233" lon="11.5437967"><ele>311.0</ele><time>2026-03-29T16:19:05.083Z</time></trkpt><trkpt lat="43.155835" lon="11.543735"><ele>311.0</ele><time>2026-03-29T16:19:07.082Z</time></trkpt><trkpt lat="43.1557417" lon="11.5436867"><ele>311.0</ele><time>2026-03-29T16:19:09.082Z</time></trkpt><trkpt lat="43.1556433" lon="11.54361"><ele>311.0</ele><time>2026-03-29T16:19:11.083Z</time></trkpt><trkpt lat="43.1555533" lon="11.5435083"><ele>311.85714285714283</ele><time>2026-03-29T16:19:13.083Z</time></trkpt><trkpt lat="43.155505" lon="11.5434333"><ele>312.7142857142857</ele><time>2026-03-29T16:19:14.082Z</time></trkpt><trkpt lat="43.155445" lon="11.5433583"><ele>313.57142857142856</ele><time>2026-03-29T16:19:15.083Z</time></trkpt><trkpt lat="43.15538" lon="11.5432867"><ele>314.42857142857144</ele><time>2026-03-29T16:19:16.082Z</time></trkpt><trkpt lat="43.155325" lon="11.54322"><ele>315.2857142857143</ele><time>2026-03-29T16:19:17.083Z</time></trkpt><trkpt lat="43.15528" lon="11.5431567"><ele>316.14285714285717</ele><time>2026-03-29T16:19:18.083Z</time></trkpt><trkpt lat="43.15523" lon="11.5431"><ele>317.0</ele><time>2026-03-29T16:19:19.083Z</time></trkpt><trkpt lat="43.1551767" lon="11.543045"><ele>317.0</ele><time>2026-03-29T16:19:20.083Z</time></trkpt><trkpt lat="43.1550933" lon="11.5429133"><ele>317.0</ele><time>2026-03-29T16:19:22.083Z</time></trkpt><trkpt lat="43.1550583" lon="11.5428367"><ele>317.0</ele><time>2026-03-29T16:19:23.083Z</time></trkpt><trkpt lat="43.1550133" lon="11.5427517"><ele>317.0</ele><time>2026-03-29T16:19:24.083Z</time></trkpt><trkpt lat="43.15498" lon="11.5426767"><ele>317.0</ele><time>2026-03-29T16:19:25.082Z</time></trkpt><trkpt lat="43.1549083" lon="11.5425717"><ele>317.0</ele><time>2026-03-29T16:19:27.082Z</time></trkpt><trkpt lat="43.1548367" lon="11.542505"><ele>315.8</ele><time>2026-03-29T16:19:29.082Z</time></trkpt><trkpt lat="43.154765" lon="11.5424417"><ele>314.6</ele><time>2026-03-29T16:19:31.083Z</time></trkpt><trkpt lat="43.1546967" lon="11.5423667"><ele>313.40000000000003</ele><time>2026-03-29T16:19:33.082Z</time></trkpt><trkpt lat="43.1546062" lon="11.542299"><ele>312.2</ele><time>2026-03-29T16:19:36.083Z</time></trkpt><trkpt lat="43.1545259" lon="11.5422006"><ele>311.0</ele><time>2026-03-29T16:19:38.083Z</time></trkpt><trkpt lat="43.1544653" lon="11.5420745"><ele>311.8</ele><time>2026-03-29T16:19:40.083Z</time></trkpt><trkpt lat="43.154403" lon="11.5419582"><ele>312.6</ele><time>2026-03-29T16:19:42.082Z</time></trkpt><trkpt lat="43.1543442" lon="11.5418317"><ele>313.4</ele><time>2026-03-29T16:19:44.082Z</time></trkpt><trkpt lat="43.1542917" lon="11.5416981"><ele>314.2</ele><time>2026-03-29T16:19:46.082Z</time></trkpt><trkpt lat="43.1542663" lon="11.5416043"><ele>315.0</ele><time>2026-03-29T16:19:48.083Z</time></trkpt><trkpt lat="43.1542333" lon="11.541515"><ele>315.0</ele><time>2026-03-29T16:25:20.084Z</time></trkpt><trkpt lat="43.1542117" lon="11.5413867"><ele>315.0</ele><time>2026-03-29T16:25:22.083Z</time></trkpt><trkpt lat="43.1541767" lon="11.5412367"><ele>315.0</ele><time>2026-03-29T16:25:24.084Z</time></trkpt><trkpt lat="43.15415" lon="11.5411533"><ele>315.0</ele><time>2026-03-29T16:25:25.084Z</time></trkpt><trkpt lat="43.1541217" lon="11.5410717"><ele>315.0</ele><time>2026-03-29T16:25:26.084Z</time></trkpt><trkpt lat="43.1540817" lon="11.540995"><ele>315.0</ele><time>2026-03-29T16:25:27.084Z</time></trkpt><trkpt lat="43.1540267" lon="11.5409083"><ele>316.4</ele><time>2026-03-29T16:25:28.084Z</time></trkpt><trkpt lat="43.1539717" lon="11.5408067"><ele>317.8</ele><time>2026-03-29T16:25:29.084Z</time></trkpt><trkpt lat="43.15392" lon="11.540705"><ele>319.20000000000005</ele><time>2026-03-29T16:25:30.084Z</time></trkpt><trkpt lat="43.1538667" lon="11.5405967"><ele>320.6</ele><time>2026-03-29T16:25:31.084Z</time></trkpt><trkpt lat="43.15381" lon="11.5404917"><ele>322.0</ele><time>2026-03-29T16:25:32.084Z</time></trkpt><trkpt lat="43.1537533" lon="11.540405"><ele>320.8333333333333</ele><time>2026-03-29T16:25:33.084Z</time></trkpt><trkpt lat="43.1537033" lon="11.540325"><ele>319.66666666666663</ele><time>2026-03-29T16:25:34.083Z</time></trkpt><trkpt lat="43.1536533" lon="11.5402583"><ele>318.5</ele><time>2026-03-29T16:25:35.083Z</time></trkpt><trkpt lat="43.153595" lon="11.5402"><ele>317.3333333333333</ele><time>2026-03-29T16:25:36.083Z</time></trkpt><trkpt lat="43.1535167" lon="11.5401433"><ele>316.1666666666667</ele><time>2026-03-29T16:25:37.084Z</time></trkpt><trkpt lat="43.1534333" lon="11.540095"><ele>315.0</ele><time>2026-03-29T16:25:38.084Z</time></trkpt><trkpt lat="43.1533417" lon="11.54007"><ele>315.0</ele><time>2026-03-29T16:25:39.083Z</time></trkpt><trkpt lat="43.153245" lon="11.54007"><ele>315.0</ele><time>2026-03-29T16:25:40.083Z</time></trkpt><trkpt lat="43.1531483" lon="11.540095"><ele>315.0</ele><time>2026-03-29T16:25:41.084Z</time></trkpt><trkpt lat="43.1530633" lon="11.540095"><ele>315.0</ele><time>2026-03-29T16:25:42.083Z</time></trkpt><trkpt lat="43.15296" lon="11.540075"><ele>315.0</ele><time>2026-03-29T16:25:43.084Z</time></trkpt><trkpt lat="43.152855" lon="11.5400333"><ele>312.75</ele><time>2026-03-29T16:25:44.084Z</time></trkpt><trkpt lat="43.15274" lon="11.53995"><ele>310.5</ele><time>2026-03-29T16:25:45.084Z</time></trkpt><trkpt lat="43.1526217" lon="11.5398717"><ele>308.25</ele><time>2026-03-29T16:25:46.084Z</time></trkpt><trkpt lat="43.1525233" lon="11.539755"><ele>306.0</ele><time>2026-03-29T16:25:47.083Z</time></trkpt><trkpt lat="43.1524167" lon="11.53964"><ele>307.8</ele><time>2026-03-29T16:25:48.084Z</time></trkpt><trkpt lat="43.1523183" lon="11.5395417"><ele>309.6</ele><time>2026-03-29T16:25:49.083Z</time></trkpt><trkpt lat="43.1522333" lon="11.53945"><ele>311.4</ele><time>2026-03-29T16:25:50.084Z</time></trkpt><trkpt lat="43.1521467" lon="11.5393867"><ele>313.2</ele><time>2026-03-29T16:25:51.083Z</time></trkpt><trkpt lat="43.1520483" lon="11.5393167"><ele>315.0</ele><time>2026-03-29T16:25:52.084Z</time></trkpt><trkpt lat="43.1519467" lon="11.5392533"><ele>315.0</ele><time>2026-03-29T16:25:53.083Z</time></trkpt><trkpt lat="43.1518467" lon="11.5392017"><ele>315.0</ele><time>2026-03-29T16:25:54.084Z</time></trkpt><trkpt lat="43.1517467" lon="11.5391467"><ele>315.0</ele><time>2026-03-29T16:25:55.084Z</time></trkpt><trkpt lat="43.151665" lon="11.539055"><ele>315.0</ele><time>2026-03-29T16:25:56.084Z</time></trkpt><trkpt lat="43.1515967" lon="11.5389383"><ele>315.0</ele><time>2026-03-29T16:25:57.084Z</time></trkpt><trkpt lat="43.151535" lon="11.5388167"><ele>315.8</ele><time>2026-03-29T16:25:58.084Z</time></trkpt><trkpt lat="43.1514683" lon="11.5386983"><ele>316.6</ele><time>2026-03-29T16:25:59.084Z</time></trkpt><trkpt lat="43.1513967" lon="11.5385867"><ele>317.4</ele><time>2026-03-29T16:26:00.084Z</time></trkpt><trkpt lat="43.151315" lon="11.5384867"><ele>318.2</ele><time>2026-03-29T16:26:01.084Z</time></trkpt><trkpt lat="43.1512267" lon="11.5383933"><ele>319.0</ele><time>2026-03-29T16:26:02.083Z</time></trkpt><trkpt lat="43.1511267" lon="11.538315"><ele>319.0</ele><time>2026-03-29T16:26:03.084Z</time></trkpt><trkpt lat="43.1510267" lon="11.538245"><ele>319.0</ele><time>2026-03-29T16:26:04.084Z</time></trkpt><trkpt lat="43.1509383" lon="11.5381717"><ele>319.0</ele><time>2026-03-29T16:26:05.083Z</time></trkpt><trkpt lat="43.1508633" lon="11.5381033"><ele>319.0</ele><time>2026-03-29T16:26:06.084Z</time></trkpt><trkpt lat="43.1507967" lon="11.5380133"><ele>319.0</ele><time>2026-03-29T16:26:07.084Z</time></trkpt><trkpt lat="43.150745" lon="11.5379217"><ele>318.16666666666663</ele><time>2026-03-29T16:26:08.083Z</time></trkpt><trkpt lat="43.150705" lon="11.537835"><ele>317.3333333333333</ele><time>2026-03-29T16:26:09.083Z</time></trkpt><trkpt lat="43.1506717" lon="11.5377417"><ele>316.5</ele><time>2026-03-29T16:26:11.083Z</time></trkpt><trkpt lat="43.1506217" lon="11.5376683"><ele>315.6666666666667</ele><time>2026-03-29T16:26:16.084Z</time></trkpt><trkpt lat="43.1505483" lon="11.53774"><ele>314.83333333333337</ele><time>2026-03-29T16:26:21.084Z</time></trkpt><trkpt lat="43.1505033" lon="11.5378583"><ele>314.0</ele><time>2026-03-29T16:26:23.084Z</time></trkpt><trkpt lat="43.1504767" lon="11.5379367"><ele>314.0</ele><time>2026-03-29T16:26:24.084Z</time></trkpt><trkpt lat="43.1504433" lon="11.5380133"><ele>314.0</ele><time>2026-03-29T16:26:25.084Z</time></trkpt><trkpt lat="43.1504083" lon="11.5380967"><ele>314.0</ele><time>2026-03-29T16:26:26.083Z</time></trkpt><trkpt lat="43.1503683" lon="11.53818"><ele>314.0</ele><time>2026-03-29T16:26:27.084Z</time></trkpt><trkpt lat="43.1503117" lon="11.538265"><ele>314.0</ele><time>2026-03-29T16:26:28.084Z</time></trkpt><trkpt lat="43.150255" lon="11.53834"><ele>314.0</ele><time>2026-03-29T16:26:29.083Z</time></trkpt><trkpt lat="43.15019" lon="11.5384017"><ele>314.0</ele><time>2026-03-29T16:26:30.084Z</time></trkpt><trkpt lat="43.1501133" lon="11.5384633"><ele>314.0</ele><time>2026-03-29T16:26:31.084Z</time></trkpt><trkpt lat="43.1500183" lon="11.5385033"><ele>314.0</ele><time>2026-03-29T16:26:32.084Z</time></trkpt><trkpt lat="43.1499033" lon="11.5385283"><ele>314.0</ele><time>2026-03-29T16:26:33.083Z</time></trkpt><trkpt lat="43.149785" lon="11.538545"><ele>314.0</ele><time>2026-03-29T16:26:34.084Z</time></trkpt><trkpt lat="43.14966" lon="11.538555"><ele>312.2</ele><time>2026-03-29T16:26:35.084Z</time></trkpt><trkpt lat="43.14954" lon="11.5385667"><ele>310.4</ele><time>2026-03-29T16:26:36.084Z</time></trkpt><trkpt lat="43.1494317" lon="11.5385833"><ele>308.6</ele><time>2026-03-29T16:26:37.084Z</time></trkpt><trkpt lat="43.149335" lon="11.5386183"><ele>306.8</ele><time>2026-03-29T16:26:38.084Z</time></trkpt><trkpt lat="43.1492417" lon="11.5386667"><ele>305.0</ele><time>2026-03-29T16:26:39.084Z</time></trkpt><trkpt lat="43.1491533" lon="11.53871"><ele>304.8</ele><time>2026-03-29T16:26:40.084Z</time></trkpt><trkpt lat="43.1490583" lon="11.5387333"><ele>304.6</ele><time>2026-03-29T16:26:41.084Z</time></trkpt><trkpt lat="43.14896" lon="11.5387433"><ele>304.4</ele><time>2026-03-29T16:26:42.084Z</time></trkpt><trkpt lat="43.14886" lon="11.5387533"><ele>304.2</ele><time>2026-03-29T16:26:43.084Z</time></trkpt><trkpt lat="43.1487433" lon="11.5387583"><ele>304.0</ele><time>2026-03-29T16:26:44.084Z</time></trkpt><trkpt lat="43.1486183" lon="11.5387567"><ele>304.0</ele><time>2026-03-29T16:26:45.083Z</time></trkpt><trkpt lat="43.148495" lon="11.538765"><ele>304.0</ele><time>2026-03-29T16:26:46.084Z</time></trkpt><trkpt lat="43.148375" lon="11.5387717"><ele>304.0</ele><time>2026-03-29T16:26:47.083Z</time></trkpt><trkpt lat="43.148255" lon="11.5387583"><ele>304.0</ele><time>2026-03-29T16:26:48.083Z</time></trkpt><trkpt lat="43.1481533" lon="11.53874"><ele>302.4</ele><time>2026-03-29T16:26:49.084Z</time></trkpt><trkpt lat="43.14806" lon="11.538695"><ele>300.79999999999995</ele><time>2026-03-29T16:26:50.084Z</time></trkpt><trkpt lat="43.1479633" lon="11.5386467"><ele>299.20000000000005</ele><time>2026-03-29T16:26:51.083Z</time></trkpt><trkpt lat="43.1478667" lon="11.538605"><ele>297.6</ele><time>2026-03-29T16:26:52.083Z</time></trkpt><trkpt lat="43.147775" lon="11.5385883"><ele>296.0</ele><time>2026-03-29T16:26:53.084Z</time></trkpt><trkpt lat="43.14769" lon="11.5385883"><ele>296.0</ele><time>2026-03-29T16:26:54.084Z</time></trkpt><trkpt lat="43.1476083" lon="11.5385983"><ele>296.0</ele><time>2026-03-29T16:26:55.084Z</time></trkpt><trkpt lat="43.1475333" lon="11.5386383"><ele>296.0</ele><time>2026-03-29T16:26:56.084Z</time></trkpt><trkpt lat="43.147445" lon="11.538705"><ele>296.0</ele><time>2026-03-29T16:26:57.084Z</time></trkpt><trkpt lat="43.1473533" lon="11.5387867"><ele>296.0</ele><time>2026-03-29T16:26:58.084Z</time></trkpt><trkpt lat="43.1472533" lon="11.5388467"><ele>296.83333333333337</ele><time>2026-03-29T16:26:59.084Z</time></trkpt><trkpt lat="43.1471583" lon="11.5389033"><ele>297.6666666666667</ele><time>2026-03-29T16:27:00.084Z</time></trkpt><trkpt lat="43.1470767" lon="11.5389617"><ele>298.5</ele><time>2026-03-29T16:27:01.084Z</time></trkpt><trkpt lat="43.1469933" lon="11.5390233"><ele>299.3333333333333</ele><time>2026-03-29T16:27:02.083Z</time></trkpt><trkpt lat="43.14692" lon="11.539055"><ele>300.16666666666663</ele><time>2026-03-29T16:27:03.083Z</time></trkpt><trkpt lat="43.1468453" lon="11.5390721"><ele>301.0</ele><time>2026-03-29T16:27:04.083Z</time></trkpt><trkpt lat="43.1467638" lon="11.5390816"><ele>301.0</ele><time>2026-03-29T16:27:05.084Z</time></trkpt><trkpt lat="43.146671" lon="11.5390826"><ele>301.0</ele><time>2026-03-29T16:27:06.083Z</time></trkpt><trkpt lat="43.1465711" lon="11.539101"><ele>301.0</ele><time>2026-03-29T16:27:07.084Z</time></trkpt><trkpt lat="43.1464736" lon="11.5391392"><ele>301.0</ele><time>2026-03-29T16:27:08.084Z</time></trkpt><trkpt lat="43.1463894" lon="11.5391953"><ele>301.0</ele><time>2026-03-29T16:27:09.084Z</time></trkpt><trkpt lat="43.1463154" lon="11.5392613"><ele>301.42857142857144</ele><time>2026-03-29T16:27:10.084Z</time></trkpt><trkpt lat="43.1462474" lon="11.5393193"><ele>301.8571428571429</ele><time>2026-03-29T16:27:11.084Z</time></trkpt><trkpt lat="43.1461841" lon="11.5393724"><ele>302.2857142857143</ele><time>2026-03-29T16:27:12.084Z</time></trkpt><trkpt lat="43.1461235" lon="11.5394319"><ele>302.7142857142857</ele><time>2026-03-29T16:27:13.084Z</time></trkpt><trkpt lat="43.1460653" lon="11.5394958"><ele>303.14285714285717</ele><time>2026-03-29T16:27:14.084Z</time></trkpt><trkpt lat="43.1460073" lon="11.5395587"><ele>303.57142857142856</ele><time>2026-03-29T16:27:15.084Z</time></trkpt><trkpt lat="43.1459507" lon="11.5396184"><ele>304.0</ele><time>2026-03-29T16:27:16.084Z</time></trkpt><trkpt lat="43.1458937" lon="11.5396745"><ele>302.5</ele><time>2026-03-29T16:27:17.084Z</time></trkpt><trkpt lat="43.1458361" lon="11.5397344"><ele>301.0</ele><time>2026-03-29T16:27:18.084Z</time></trkpt><trkpt lat="43.1457757" lon="11.539789"><ele>299.5</ele><time>2026-03-29T16:27:19.084Z</time></trkpt><trkpt lat="43.1457174" lon="11.5398407"><ele>298.0</ele><time>2026-03-29T16:27:20.084Z</time></trkpt><trkpt lat="43.1456618" lon="11.5398904"><ele>296.5</ele><time>2026-03-29T16:27:21.084Z</time></trkpt><trkpt lat="43.1455614" lon="11.5399923"><ele>295.0</ele><time>2026-03-29T16:27:23.084Z</time></trkpt><trkpt lat="43.1454678" lon="11.5400873"><ele>294.66666666666663</ele><time>2026-03-29T16:27:25.084Z</time></trkpt><trkpt lat="43.145405" lon="11.5401133"><ele>294.3333333333333</ele><time>2026-03-29T16:27:27.084Z</time></trkpt><trkpt lat="43.145335" lon="11.5400717"><ele>294.0</ele><time>2026-03-29T16:27:31.083Z</time></trkpt><trkpt lat="43.1452483" lon="11.5400333"><ele>293.6666666666667</ele><time>2026-03-29T16:27:35.084Z</time></trkpt><trkpt lat="43.14516" lon="11.53999"><ele>293.33333333333337</ele><time>2026-03-29T16:27:38.084Z</time></trkpt><trkpt lat="43.1450917" lon="11.5399767"><ele>293.0</ele><time>2026-03-29T16:27:40.083Z</time></trkpt><trkpt lat="43.1449933" lon="11.5399667"><ele>293.0</ele><time>2026-03-29T16:27:43.084Z</time></trkpt><trkpt lat="43.144905" lon="11.5399683"><ele>293.0</ele><time>2026-03-29T16:27:45.083Z</time></trkpt><trkpt lat="43.144785" lon="11.5399333"><ele>293.0</ele><time>2026-03-29T16:27:47.084Z</time></trkpt><trkpt lat="43.144675" lon="11.53987"><ele>293.0</ele><time>2026-03-29T16:27:49.084Z</time></trkpt><trkpt lat="43.144555" lon="11.539835"><ele>290.33333333333337</ele><time>2026-03-29T16:27:51.084Z</time></trkpt><trkpt lat="43.1444367" lon="11.5398367"><ele>287.6666666666667</ele><time>2026-03-29T16:27:53.084Z</time></trkpt><trkpt lat="43.1443683" lon="11.5398417"><ele>285.0</ele><time>2026-03-29T16:27:54.084Z</time></trkpt><trkpt lat="43.1443" lon="11.5398483"><ele>282.3333333333333</ele><time>2026-03-29T16:27:55.084Z</time></trkpt><trkpt lat="43.144235" lon="11.5398633"><ele>279.66666666666663</ele><time>2026-03-29T16:27:56.084Z</time></trkpt><trkpt lat="43.1441717" lon="11.539885"><ele>277.0</ele><time>2026-03-29T16:27:57.084Z</time></trkpt><trkpt lat="43.1441017" lon="11.5398983"><ele>274.7142857142857</ele><time>2026-03-29T16:27:58.083Z</time></trkpt><trkpt lat="43.14403" lon="11.5399233"><ele>272.4285714285714</ele><time>2026-03-29T16:27:59.083Z</time></trkpt><trkpt lat="43.143965" lon="11.5399467"><ele>270.1428571428571</ele><time>2026-03-29T16:28:00.084Z</time></trkpt><trkpt lat="43.143895" lon="11.5399683"><ele>267.85714285714283</ele><time>2026-03-29T16:28:01.084Z</time></trkpt><trkpt lat="43.14383" lon="11.53999"><ele>265.57142857142856</ele><time>2026-03-29T16:28:02.084Z</time></trkpt><trkpt lat="43.1437617" lon="11.5400183"><ele>263.2857142857143</ele><time>2026-03-29T16:28:03.083Z</time></trkpt><trkpt lat="43.1437" lon="11.5400483"><ele>261.0</ele><time>2026-03-29T16:28:04.084Z</time></trkpt><trkpt lat="43.1436383" lon="11.5400783"><ele>261.0</ele><time>2026-03-29T16:28:05.083Z</time></trkpt><trkpt lat="43.143565" lon="11.5401133"><ele>261.0</ele><time>2026-03-29T16:28:06.083Z</time></trkpt><trkpt lat="43.1435" lon="11.54013"><ele>261.0</ele><time>2026-03-29T16:28:07.084Z</time></trkpt><trkpt lat="43.143425" lon="11.5401483"><ele>261.0</ele><time>2026-03-29T16:28:08.084Z</time></trkpt><trkpt lat="43.1433517" lon="11.5401717"><ele>261.0</ele><time>2026-03-29T16:28:09.084Z</time></trkpt><trkpt lat="43.14327" lon="11.540195"><ele>261.0</ele><time>2026-03-29T16:28:10.083Z</time></trkpt><trkpt lat="43.14319" lon="11.54023"><ele>259.8</ele><time>2026-03-29T16:28:11.083Z</time></trkpt><trkpt lat="43.14311" lon="11.5402583"><ele>258.6</ele><time>2026-03-29T16:28:12.083Z</time></trkpt><trkpt lat="43.143005" lon="11.5402767"><ele>257.4</ele><time>2026-03-29T16:28:13.084Z</time></trkpt><trkpt lat="43.1428833" lon="11.5402633"><ele>256.2</ele><time>2026-03-29T16:28:14.084Z</time></trkpt><trkpt lat="43.1427717" lon="11.540235"><ele>255.0</ele><time>2026-03-29T16:28:15.083Z</time></trkpt><trkpt lat="43.1426517" lon="11.54023"><ele>255.0</ele><time>2026-03-29T16:28:16.084Z</time></trkpt><trkpt lat="43.1425417" lon="11.5402283"><ele>255.0</ele><time>2026-03-29T16:28:17.084Z</time></trkpt><trkpt lat="43.14244" lon="11.5402267"><ele>255.0</ele><time>2026-03-29T16:28:18.083Z</time></trkpt><trkpt lat="43.14234" lon="11.5402367"><ele>255.0</ele><time>2026-03-29T16:28:19.083Z</time></trkpt><trkpt lat="43.1422617" lon="11.5402433"><ele>255.0</ele><time>2026-03-29T16:28:20.083Z</time></trkpt><trkpt lat="43.1421817" lon="11.5403183"><ele>258.6</ele><time>2026-03-29T16:28:22.084Z</time></trkpt><trkpt lat="43.1421533" lon="11.54049"><ele>262.2</ele><time>2026-03-29T16:28:24.084Z</time></trkpt><trkpt lat="43.1421433" lon="11.540605"><ele>265.8</ele><time>2026-03-29T16:28:25.083Z</time></trkpt><trkpt lat="43.14213" lon="11.5407017"><ele>269.4</ele><time>2026-03-29T16:28:26.084Z</time></trkpt><trkpt lat="43.14211" lon="11.5407867"><ele>273.0</ele><time>2026-03-29T16:28:27.084Z</time></trkpt><trkpt lat="43.1420033" lon="11.54088"><ele>273.0</ele><time>2026-03-29T16:28:29.084Z</time></trkpt><trkpt lat="43.14192" lon="11.5409033"><ele>273.0</ele><time>2026-03-29T16:28:30.083Z</time></trkpt><trkpt lat="43.1418117" lon="11.54091"><ele>273.0</ele><time>2026-03-29T16:28:31.084Z</time></trkpt><trkpt lat="43.14171" lon="11.5409117"><ele>273.0</ele><time>2026-03-29T16:28:32.084Z</time></trkpt><trkpt lat="43.1416183" lon="11.5409183"><ele>273.0</ele><time>2026-03-29T16:28:33.084Z</time></trkpt><trkpt lat="43.14154" lon="11.540915"><ele>274.0</ele><time>2026-03-29T16:28:34.083Z</time></trkpt><trkpt lat="43.14146" lon="11.5409167"><ele>275.0</ele><time>2026-03-29T16:28:35.083Z</time></trkpt><trkpt lat="43.141375" lon="11.5409167"><ele>276.0</ele><time>2026-03-29T16:28:36.084Z</time></trkpt><trkpt lat="43.1412967" lon="11.5409067"><ele>277.0</ele><time>2026-03-29T16:28:37.083Z</time></trkpt><trkpt lat="43.1412133" lon="11.5409"><ele>278.0</ele><time>2026-03-29T16:28:38.084Z</time></trkpt><trkpt lat="43.141125" lon="11.5409267"><ele>279.0</ele><time>2026-03-29T16:28:39.083Z</time></trkpt><trkpt lat="43.141045" lon="11.540975"><ele>279.0</ele><time>2026-03-29T16:28:40.084Z</time></trkpt><trkpt lat="43.1409617" lon="11.541035"><ele>279.0</ele><time>2026-03-29T16:28:41.084Z</time></trkpt><trkpt lat="43.1408817" lon="11.541095"><ele>279.0</ele><time>2026-03-29T16:28:42.083Z</time></trkpt><trkpt lat="43.140815" lon="11.54117"><ele>279.0</ele><time>2026-03-29T16:28:43.084Z</time></trkpt><trkpt lat="43.1407583" lon="11.5412567"><ele>279.0</ele><time>2026-03-29T16:28:44.084Z</time></trkpt><trkpt lat="43.1407167" lon="11.5413533"><ele>279.0</ele><time>2026-03-29T16:28:45.084Z</time></trkpt><trkpt lat="43.1406767" lon="11.54146"><ele>279.59999999999997</ele><time>2026-03-29T16:28:46.084Z</time></trkpt><trkpt lat="43.1406333" lon="11.541575"><ele>280.2</ele><time>2026-03-29T16:28:47.084Z</time></trkpt><trkpt lat="43.1405917" lon="11.5416917"><ele>280.79999999999995</ele><time>2026-03-29T16:28:48.084Z</time></trkpt><trkpt lat="43.1405417" lon="11.5418133"><ele>281.4</ele><time>2026-03-29T16:28:49.084Z</time></trkpt><trkpt lat="43.140485" lon="11.5419433"><ele>282.0</ele><time>2026-03-29T16:28:50.084Z</time></trkpt><trkpt lat="43.1404183" lon="11.5420833"><ele>283.75</ele><time>2026-03-29T16:28:51.084Z</time></trkpt><trkpt lat="43.140345" lon="11.5422133"><ele>285.5</ele><time>2026-03-29T16:28:52.084Z</time></trkpt><trkpt lat="43.140265" lon="11.54234"><ele>287.25</ele><time>2026-03-29T16:28:53.084Z</time></trkpt><trkpt lat="43.14018" lon="11.542455"><ele>289.0</ele><time>2026-03-29T16:28:54.084Z</time></trkpt><trkpt lat="43.1400917" lon="11.5425633"><ele>289.0</ele><time>2026-03-29T16:28:55.084Z</time></trkpt><trkpt lat="43.14" lon="11.5426517"><ele>289.0</ele><time>2026-03-29T16:28:56.083Z</time></trkpt><trkpt lat="43.139895" lon="11.5427433"><ele>289.0</ele><time>2026-03-29T16:28:57.083Z</time></trkpt><trkpt lat="43.13979" lon="11.54283"><ele>289.0</ele><time>2026-03-29T16:28:58.083Z</time></trkpt><trkpt lat="43.1396967" lon="11.5429233"><ele>292.75</ele><time>2026-03-29T16:28:59.084Z</time></trkpt><trkpt lat="43.139605" lon="11.543005"><ele>296.5</ele><time>2026-03-29T16:29:00.084Z</time></trkpt><trkpt lat="43.139505" lon="11.5430817"><ele>300.25</ele><time>2026-03-29T16:29:01.084Z</time></trkpt><trkpt lat="43.1394033" lon="11.5431567"><ele>304.0</ele><time>2026-03-29T16:29:02.084Z</time></trkpt><trkpt lat="43.1393017" lon="11.5432217"><ele>304.0</ele><time>2026-03-29T16:29:03.084Z</time></trkpt><trkpt lat="43.13921" lon="11.5432917"><ele>304.0</ele><time>2026-03-29T16:29:04.084Z</time></trkpt><trkpt lat="43.1391167" lon="11.5433667"><ele>304.0</ele><time>2026-03-29T16:29:05.083Z</time></trkpt><trkpt lat="43.1390283" lon="11.54345"><ele>304.0</ele><time>2026-03-29T16:29:06.084Z</time></trkpt><trkpt lat="43.1389383" lon="11.54351"><ele>304.0</ele><time>2026-03-29T16:29:07.083Z</time></trkpt><trkpt lat="43.138835" lon="11.54355"><ele>305.0</ele><time>2026-03-29T16:29:08.084Z</time></trkpt><trkpt lat="43.1387233" lon="11.5435583"><ele>306.0</ele><time>2026-03-29T16:29:09.084Z</time></trkpt><trkpt lat="43.1386117" lon="11.543555"><ele>307.0</ele><time>2026-03-29T16:29:10.084Z</time></trkpt><trkpt lat="43.138505" lon="11.5435367"><ele>308.0</ele><time>2026-03-29T16:29:11.084Z</time></trkpt><trkpt lat="43.13841" lon="11.54352"><ele>309.0</ele><time>2026-03-29T16:29:12.084Z</time></trkpt><trkpt lat="43.1383267" lon="11.54351"><ele>309.0</ele><time>2026-03-29T16:29:13.084Z</time></trkpt><trkpt lat="43.1382417" lon="11.5435167"><ele>309.0</ele><time>2026-03-29T16:29:14.084Z</time></trkpt><trkpt lat="43.1381517" lon="11.543545"><ele>309.0</ele><time>2026-03-29T16:29:15.084Z</time></trkpt><trkpt lat="43.1380617" lon="11.5436017"><ele>309.0</ele><time>2026-03-29T16:29:16.084Z</time></trkpt><trkpt lat="43.1379583" lon="11.5436433"><ele>309.0</ele><time>2026-03-29T16:29:17.083Z</time></trkpt><trkpt lat="43.1378617" lon="11.5436833"><ele>308.4</ele><time>2026-03-29T16:29:18.083Z</time></trkpt><trkpt lat="43.1377717" lon="11.543695"><ele>307.79999999999995</ele><time>2026-03-29T16:29:19.083Z</time></trkpt><trkpt lat="43.1376767" lon="11.5437217"><ele>307.20000000000005</ele><time>2026-03-29T16:29:20.083Z</time></trkpt><trkpt lat="43.1376017" lon="11.5437517"><ele>306.6</ele><time>2026-03-29T16:29:21.084Z</time></trkpt><trkpt lat="43.1375417" lon="11.5438017"><ele>306.0</ele><time>2026-03-29T16:29:22.084Z</time></trkpt><trkpt lat="43.1374433" lon="11.5439017"><ele>306.0</ele><time>2026-03-29T16:29:24.083Z</time></trkpt><trkpt lat="43.1373883" lon="11.54395"><ele>306.0</ele><time>2026-03-29T16:29:25.084Z</time></trkpt><trkpt lat="43.137315" lon="11.5440133"><ele>306.0</ele><time>2026-03-29T16:29:26.084Z</time></trkpt><trkpt lat="43.1372383" lon="11.5440883"><ele>306.0</ele><time>2026-03-29T16:29:27.084Z</time></trkpt><trkpt lat="43.1371533" lon="11.544165"><ele>306.0</ele><time>2026-03-29T16:29:28.084Z</time></trkpt><trkpt lat="43.1370533" lon="11.544245"><ele>306.0</ele><time>2026-03-29T16:29:29.084Z</time></trkpt><trkpt lat="43.136955" lon="11.5443267"><ele>306.0</ele><time>2026-03-29T16:29:30.084Z</time></trkpt><trkpt lat="43.1368517" lon="11.54442"><ele>306.0</ele><time>2026-03-29T16:29:31.084Z</time></trkpt><trkpt lat="43.1367383" lon="11.54451"><ele>306.0</ele><time>2026-03-29T16:29:32.084Z</time></trkpt><trkpt lat="43.1366183" lon="11.54458"><ele>307.25</ele><time>2026-03-29T16:29:33.083Z</time></trkpt><trkpt lat="43.1364983" lon="11.544625"><ele>308.5</ele><time>2026-03-29T16:29:34.084Z</time></trkpt><trkpt lat="43.13638" lon="11.5446583"><ele>309.75</ele><time>2026-03-29T16:29:35.083Z</time></trkpt><trkpt lat="43.1362783" lon="11.5447133"><ele>311.0</ele><time>2026-03-29T16:29:36.083Z</time></trkpt><trkpt lat="43.1361783" lon="11.5447917"><ele>311.0</ele><time>2026-03-29T16:29:37.084Z</time></trkpt><trkpt lat="43.1360667" lon="11.544855"><ele>311.0</ele><time>2026-03-29T16:29:38.084Z</time></trkpt><trkpt lat="43.1359383" lon="11.54491"><ele>311.0</ele><time>2026-03-29T16:29:39.083Z</time></trkpt><trkpt lat="43.1358033" lon="11.544925"><ele>311.0</ele><time>2026-03-29T16:29:40.084Z</time></trkpt><trkpt lat="43.135665" lon="11.5449233"><ele>312.0</ele><time>2026-03-29T16:29:41.084Z</time></trkpt><trkpt lat="43.135525" lon="11.5449183"><ele>313.0</ele><time>2026-03-29T16:29:42.084Z</time></trkpt><trkpt lat="43.1354033" lon="11.54489"><ele>314.0</ele><time>2026-03-29T16:29:43.084Z</time></trkpt><trkpt lat="43.135295" lon="11.54485"><ele>315.0</ele><time>2026-03-29T16:29:44.083Z</time></trkpt><trkpt lat="43.13519" lon="11.5448033"><ele>315.0</ele><time>2026-03-29T16:29:45.084Z</time></trkpt><trkpt lat="43.135085" lon="11.5447567"><ele>315.0</ele><time>2026-03-29T16:29:46.084Z</time></trkpt><trkpt lat="43.1349733" lon="11.5447117"><ele>315.0</ele><time>2026-03-29T16:29:47.084Z</time></trkpt><trkpt lat="43.134855" lon="11.54466"><ele>315.0</ele><time>2026-03-29T16:29:48.083Z</time></trkpt><trkpt lat="43.134735" lon="11.544625"><ele>314.6</ele><time>2026-03-29T16:29:49.083Z</time></trkpt><trkpt lat="43.13464" lon="11.5445833"><ele>314.2</ele><time>2026-03-29T16:29:50.084Z</time></trkpt><trkpt lat="43.1345467" lon="11.5445417"><ele>313.8</ele><time>2026-03-29T16:29:51.084Z</time></trkpt><trkpt lat="43.1344417" lon="11.5444967"><ele>313.4</ele><time>2026-03-29T16:29:52.084Z</time></trkpt><trkpt lat="43.1343317" lon="11.5444433"><ele>313.0</ele><time>2026-03-29T16:29:53.084Z</time></trkpt><trkpt lat="43.13422" lon="11.54438"><ele>313.0</ele><time>2026-03-29T16:29:54.084Z</time></trkpt><trkpt lat="43.134115" lon="11.544305"><ele>313.0</ele><time>2026-03-29T16:29:55.084Z</time></trkpt><trkpt lat="43.1340133" lon="11.54423"><ele>313.0</ele><time>2026-03-29T16:29:56.084Z</time></trkpt><trkpt lat="43.133895" lon="11.544155"><ele>313.0</ele><time>2026-03-29T16:29:57.083Z</time></trkpt><trkpt lat="43.1337767" lon="11.54408"><ele>312.5</ele><time>2026-03-29T16:29:58.084Z</time></trkpt><trkpt lat="43.133655" lon="11.5440167"><ele>312.0</ele><time>2026-03-29T16:29:59.084Z</time></trkpt><trkpt lat="43.1335333" lon="11.5439567"><ele>311.5</ele><time>2026-03-29T16:30:00.083Z</time></trkpt><trkpt lat="43.1333967" lon="11.5438917"><ele>311.0</ele><time>2026-03-29T16:30:01.084Z</time></trkpt><trkpt lat="43.133275" lon="11.5438183"><ele>309.0</ele><time>2026-03-29T16:30:02.084Z</time></trkpt><trkpt lat="43.1331567" lon="11.5437583"><ele>307.0</ele><time>2026-03-29T16:30:03.083Z</time></trkpt><trkpt lat="43.1330333" lon="11.5436967"><ele>305.0</ele><time>2026-03-29T16:30:04.084Z</time></trkpt><trkpt lat="43.1329193" lon="11.5436384"><ele>303.0</ele><time>2026-03-29T16:30:05.084Z</time></trkpt><trkpt lat="43.1328033" lon="11.5435833"><ele>303.0</ele><time>2026-03-29T16:30:06.084Z</time></trkpt><trkpt lat="43.1326935" lon="11.5435344"><ele>303.0</ele><time>2026-03-29T16:30:07.083Z</time></trkpt><trkpt lat="43.1326019" lon="11.5434854"><ele>303.0</ele><time>2026-03-29T16:30:08.083Z</time></trkpt><trkpt lat="43.1325228" lon="11.5434366"><ele>303.0</ele><time>2026-03-29T16:30:09.083Z</time></trkpt><trkpt lat="43.1324501" lon="11.5433937"><ele>303.0</ele><time>2026-03-29T16:30:10.083Z</time></trkpt><trkpt lat="43.1323857" lon="11.5433628"><ele>303.0</ele><time>2026-03-29T16:30:11.083Z</time></trkpt><trkpt lat="43.1323004" lon="11.5433341"><ele>302.8</ele><time>2026-03-29T16:30:13.083Z</time></trkpt><trkpt lat="43.1322333" lon="11.5432183"><ele>302.6</ele><time>2026-03-29T16:30:16.084Z</time></trkpt><trkpt lat="43.1322" lon="11.5431267"><ele>302.4</ele><time>2026-03-29T16:30:17.083Z</time></trkpt><trkpt lat="43.1321617" lon="11.5430083"><ele>302.2</ele><time>2026-03-29T16:30:18.084Z</time></trkpt><trkpt lat="43.1321117" lon="11.542895"><ele>302.0</ele><time>2026-03-29T16:30:19.083Z</time></trkpt><trkpt lat="43.1320533" lon="11.5427583"><ele>302.5</ele><time>2026-03-29T16:30:20.084Z</time></trkpt><trkpt lat="43.13199" lon="11.5426217"><ele>303.0</ele><time>2026-03-29T16:30:21.084Z</time></trkpt><trkpt lat="43.1319383" lon="11.542475"><ele>303.5</ele><time>2026-03-29T16:30:22.083Z</time></trkpt><trkpt lat="43.1318817" lon="11.5423283"><ele>304.0</ele><time>2026-03-29T16:30:23.084Z</time></trkpt><trkpt lat="43.1318433" lon="11.5421817"><ele>304.25</ele><time>2026-03-29T16:30:24.083Z</time></trkpt><trkpt lat="43.1318217" lon="11.54202"><ele>304.5</ele><time>2026-03-29T16:30:25.083Z</time></trkpt><trkpt lat="43.1318267" lon="11.54185"><ele>304.75</ele><time>2026-03-29T16:30:26.083Z</time></trkpt><trkpt lat="43.131855" lon="11.5416617"><ele>305.0</ele><time>2026-03-29T16:30:27.084Z</time></trkpt><trkpt lat="43.1318833" lon="11.5414517"><ele>305.0</ele><time>2026-03-29T16:30:28.084Z</time></trkpt><trkpt lat="43.1319183" lon="11.5412217"><ele>305.0</ele><time>2026-03-29T16:30:29.084Z</time></trkpt><trkpt lat="43.13194" lon="11.5409867"><ele>305.0</ele><time>2026-03-29T16:30:30.084Z</time></trkpt><trkpt lat="43.1319667" lon="11.5407617"><ele>305.33333333333337</ele><time>2026-03-29T16:30:31.083Z</time></trkpt><trkpt lat="43.1320117" lon="11.540545"><ele>305.6666666666667</ele><time>2026-03-29T16:30:32.084Z</time></trkpt><trkpt lat="43.132065" lon="11.5403467"><ele>306.0</ele><time>2026-03-29T16:30:33.084Z</time></trkpt><trkpt lat="43.1321067" lon="11.540165"><ele>306.0</ele><time>2026-03-29T16:30:34.084Z</time></trkpt><trkpt lat="43.1321483" lon="11.5399717"><ele>306.0</ele><time>2026-03-29T16:30:35.084Z</time></trkpt><trkpt lat="43.132175" lon="11.5397817"><ele>306.0</ele><time>2026-03-29T16:30:36.083Z</time></trkpt><trkpt lat="43.1322" lon="11.539605"><ele>306.0</ele><time>2026-03-29T16:30:37.083Z</time></trkpt><trkpt lat="43.1321933" lon="11.53942"><ele>304.75</ele><time>2026-03-29T16:30:38.084Z</time></trkpt><trkpt lat="43.1321883" lon="11.5392333"><ele>303.5</ele><time>2026-03-29T16:30:39.084Z</time></trkpt><trkpt lat="43.1322" lon="11.53904"><ele>302.25</ele><time>2026-03-29T16:30:40.083Z</time></trkpt><trkpt lat="43.1322217" lon="11.5388483"><ele>301.0</ele><time>2026-03-29T16:30:41.084Z</time></trkpt><trkpt lat="43.132255" lon="11.5386583"><ele>299.0</ele><time>2026-03-29T16:30:42.084Z</time></trkpt><trkpt lat="43.13228" lon="11.53847"><ele>297.0</ele><time>2026-03-29T16:30:43.084Z</time></trkpt><trkpt lat="43.1323183" lon="11.5382983"><ele>295.0</ele><time>2026-03-29T16:30:44.084Z</time></trkpt><trkpt lat="43.1323633" lon="11.5381267"><ele>293.0</ele><time>2026-03-29T16:30:45.084Z</time></trkpt><trkpt lat="43.1324183" lon="11.5379567"><ele>290.5</ele><time>2026-03-29T16:30:46.083Z</time></trkpt><trkpt lat="43.1324733" lon="11.5377783"><ele>288.0</ele><time>2026-03-29T16:30:47.083Z</time></trkpt><trkpt lat="43.1325267" lon="11.5375967"><ele>285.5</ele><time>2026-03-29T16:30:48.084Z</time></trkpt><trkpt lat="43.1325867" lon="11.537425"><ele>283.0</ele><time>2026-03-29T16:30:49.083Z</time></trkpt><trkpt lat="43.1326533" lon="11.5372783"><ele>283.0</ele><time>2026-03-29T16:30:50.084Z</time></trkpt><trkpt lat="43.1327317" lon="11.53715"><ele>283.0</ele><time>2026-03-29T16:30:51.084Z</time></trkpt><trkpt lat="43.1328167" lon="11.5369983"><ele>283.0</ele><time>2026-03-29T16:30:52.084Z</time></trkpt><trkpt lat="43.1329067" lon="11.536845"><ele>283.0</ele><time>2026-03-29T16:30:53.084Z</time></trkpt><trkpt lat="43.1330017" lon="11.5366967"><ele>281.25</ele><time>2026-03-29T16:30:54.083Z</time></trkpt><trkpt lat="43.1331083" lon="11.5365533"><ele>279.5</ele><time>2026-03-29T16:30:55.084Z</time></trkpt><trkpt lat="43.1332117" lon="11.5364083"><ele>277.75</ele><time>2026-03-29T16:30:56.084Z</time></trkpt><trkpt lat="43.1333033" lon="11.53627"><ele>276.0</ele><time>2026-03-29T16:30:57.084Z</time></trkpt><trkpt lat="43.133395" lon="11.5361033"><ele>275.25</ele><time>2026-03-29T16:30:58.084Z</time></trkpt><trkpt lat="43.1334833" lon="11.535945"><ele>274.5</ele><time>2026-03-29T16:30:59.083Z</time></trkpt><trkpt lat="43.13356" lon="11.5357817"><ele>273.75</ele><time>2026-03-29T16:31:00.084Z</time></trkpt><trkpt lat="43.1336283" lon="11.5356233"><ele>273.0</ele><time>2026-03-29T16:31:01.083Z</time></trkpt><trkpt lat="43.1336933" lon="11.5354783"><ele>271.2</ele><time>2026-03-29T16:31:02.084Z</time></trkpt><trkpt lat="43.1337467" lon="11.535335"><ele>269.4</ele><time>2026-03-29T16:31:03.084Z</time></trkpt><trkpt lat="43.1337967" lon="11.5352183"><ele>267.59999999999997</ele><time>2026-03-29T16:31:04.084Z</time></trkpt><trkpt lat="43.13384" lon="11.5351067"><ele>265.8</ele><time>2026-03-29T16:31:05.084Z</time></trkpt><trkpt lat="43.1338817" lon="11.53501"><ele>264.0</ele><time>2026-03-29T16:31:06.084Z</time></trkpt><trkpt lat="43.1339217" lon="11.5349167"><ele>264.0</ele><time>2026-03-29T16:31:07.084Z</time></trkpt><trkpt lat="43.1339583" lon="11.534825"><ele>264.0</ele><time>2026-03-29T16:31:08.083Z</time></trkpt><trkpt lat="43.134" lon="11.534735"><ele>264.0</ele><time>2026-03-29T16:31:09.084Z</time></trkpt><trkpt lat="43.1340433" lon="11.53464"><ele>264.0</ele><time>2026-03-29T16:31:10.084Z</time></trkpt><trkpt lat="43.1340867" lon="11.5345483"><ele>264.0</ele><time>2026-03-29T16:31:11.084Z</time></trkpt><trkpt lat="43.13413" lon="11.5344517"><ele>264.0</ele><time>2026-03-29T16:31:12.084Z</time></trkpt><trkpt lat="43.1341733" lon="11.5343567"><ele>264.8</ele><time>2026-03-29T16:31:13.083Z</time></trkpt><trkpt lat="43.1342167" lon="11.534255"><ele>265.59999999999997</ele><time>2026-03-29T16:31:14.084Z</time></trkpt><trkpt lat="43.134255" lon="11.5341517"><ele>266.4</ele><time>2026-03-29T16:31:15.084Z</time></trkpt><trkpt lat="43.134295" lon="11.5340467"><ele>267.2</ele><time>2026-03-29T16:31:16.083Z</time></trkpt><trkpt lat="43.1343483" lon="11.533925"><ele>268.0</ele><time>2026-03-29T16:31:17.084Z</time></trkpt><trkpt lat="43.1344017" lon="11.5337917"><ele>266.66666666666663</ele><time>2026-03-29T16:31:18.084Z</time></trkpt><trkpt lat="43.1344633" lon="11.53363"><ele>265.3333333333333</ele><time>2026-03-29T16:31:19.083Z</time></trkpt><trkpt lat="43.13453" lon="11.5334333"><ele>264.0</ele><time>2026-03-29T16:31:20.083Z</time></trkpt><trkpt lat="43.1345967" lon="11.5332083"><ele>264.0</ele><time>2026-03-29T16:31:21.084Z</time></trkpt><trkpt lat="43.1346633" lon="11.53296"><ele>264.0</ele><time>2026-03-29T16:31:22.083Z</time></trkpt><trkpt lat="43.1347333" lon="11.5326917"><ele>264.0</ele><time>2026-03-29T16:31:23.083Z</time></trkpt><trkpt lat="43.1347983" lon="11.532435"><ele>263.6666666666667</ele><time>2026-03-29T16:31:24.084Z</time></trkpt><trkpt lat="43.1348417" lon="11.5321983"><ele>263.33333333333337</ele><time>2026-03-29T16:31:25.084Z</time></trkpt><trkpt lat="43.1348883" lon="11.5319867"><ele>263.0</ele><time>2026-03-29T16:31:26.084Z</time></trkpt><trkpt lat="43.1349317" lon="11.5317917"><ele>265.0</ele><time>2026-03-29T16:31:27.084Z</time></trkpt><trkpt lat="43.1349633" lon="11.5316033"><ele>267.0</ele><time>2026-03-29T16:31:28.084Z</time></trkpt><trkpt lat="43.13499" lon="11.5314383"><ele>269.0</ele><time>2026-03-29T16:31:29.083Z</time></trkpt><trkpt lat="43.1349983" lon="11.5312783"><ele>271.0</ele><time>2026-03-29T16:31:30.084Z</time></trkpt><trkpt lat="43.135015" lon="11.53112"><ele>271.8</ele><time>2026-03-29T16:31:31.084Z</time></trkpt><trkpt lat="43.1350367" lon="11.5309783"><ele>272.6</ele><time>2026-03-29T16:31:32.084Z</time></trkpt><trkpt lat="43.1350517" lon="11.53082"><ele>273.4</ele><time>2026-03-29T16:31:33.084Z</time></trkpt><trkpt lat="43.135045" lon="11.53068"><ele>274.2</ele><time>2026-03-29T16:31:34.083Z</time></trkpt><trkpt lat="43.1350233" lon="11.530535"><ele>275.0</ele><time>2026-03-29T16:31:35.084Z</time></trkpt><trkpt lat="43.13498" lon="11.5303883"><ele>275.0</ele><time>2026-03-29T16:31:36.084Z</time></trkpt><trkpt lat="43.134925" lon="11.530255"><ele>275.0</ele><time>2026-03-29T16:31:37.084Z</time></trkpt><trkpt lat="43.1348883" lon="11.5301267"><ele>275.0</ele><time>2026-03-29T16:31:38.083Z</time></trkpt><trkpt lat="43.134855" lon="11.5299933"><ele>275.0</ele><time>2026-03-29T16:31:39.084Z</time></trkpt><trkpt lat="43.134815" lon="11.5298683"><ele>275.0</ele><time>2026-03-29T16:31:40.084Z</time></trkpt><trkpt lat="43.1347717" lon="11.52974"><ele>272.4</ele><time>2026-03-29T16:31:41.084Z</time></trkpt><trkpt lat="43.1347317" lon="11.5296117"><ele>269.8</ele><time>2026-03-29T16:31:42.083Z</time></trkpt><trkpt lat="43.1346883" lon="11.5294883"><ele>267.2</ele><time>2026-03-29T16:31:43.083Z</time></trkpt><trkpt lat="43.1346483" lon="11.5293667"><ele>264.6</ele><time>2026-03-29T16:31:44.083Z</time></trkpt><trkpt lat="43.13461" lon="11.5292583"><ele>262.0</ele><time>2026-03-29T16:31:45.084Z</time></trkpt><trkpt lat="43.1345783" lon="11.5291733"><ele>262.0</ele><time>2026-03-29T16:31:46.083Z</time></trkpt><trkpt lat="43.1345383" lon="11.5290683"><ele>262.0</ele><time>2026-03-29T16:31:48.084Z</time></trkpt><trkpt lat="43.134465" lon="11.5289833"><ele>262.0</ele><time>2026-03-29T16:34:53.084Z</time></trkpt><trkpt lat="43.1344217" lon="11.52882"><ele>262.0</ele><time>2026-03-29T16:34:55.084Z</time></trkpt><trkpt lat="43.1343933" lon="11.528715"><ele>262.0</ele><time>2026-03-29T16:34:56.084Z</time></trkpt><trkpt lat="43.13437" lon="11.5286083"><ele>262.2</ele><time>2026-03-29T16:34:57.083Z</time></trkpt><trkpt lat="43.13436" lon="11.5284917"><ele>262.4</ele><time>2026-03-29T16:34:58.084Z</time></trkpt><trkpt lat="43.134355" lon="11.52837"><ele>262.6</ele><time>2026-03-29T16:34:59.084Z</time></trkpt><trkpt lat="43.134355" lon="11.5282417"><ele>262.8</ele><time>2026-03-29T16:35:00.083Z</time></trkpt><trkpt lat="43.1343617" lon="11.528105"><ele>263.0</ele><time>2026-03-29T16:35:01.083Z</time></trkpt><trkpt lat="43.1343667" lon="11.5279683"><ele>262.25</ele><time>2026-03-29T16:35:02.084Z</time></trkpt><trkpt lat="43.13438" lon="11.5278233"><ele>261.5</ele><time>2026-03-29T16:35:03.084Z</time></trkpt><trkpt lat="43.134395" lon="11.52767"><ele>260.75</ele><time>2026-03-29T16:35:04.083Z</time></trkpt><trkpt lat="43.134415" lon="11.527505"><ele>260.0</ele><time>2026-03-29T16:35:05.083Z</time></trkpt><trkpt lat="43.1344333" lon="11.5273367"><ele>260.0</ele><time>2026-03-29T16:35:06.084Z</time></trkpt><trkpt lat="43.1344467" lon="11.5271617"><ele>260.0</ele><time>2026-03-29T16:35:07.084Z</time></trkpt><trkpt lat="43.1344583" lon="11.52699"><ele>260.0</ele><time>2026-03-29T16:35:08.084Z</time></trkpt><trkpt lat="43.134475" lon="11.5268083"><ele>260.0</ele><time>2026-03-29T16:35:09.084Z</time></trkpt><trkpt lat="43.1344917" lon="11.526615"><ele>258.5</ele><time>2026-03-29T16:35:10.084Z</time></trkpt><trkpt lat="43.1345083" lon="11.5264217"><ele>257.0</ele><time>2026-03-29T16:35:11.084Z</time></trkpt><trkpt lat="43.13453" lon="11.5262433"><ele>255.5</ele><time>2026-03-29T16:35:12.084Z</time></trkpt><trkpt lat="43.1345517" lon="11.52606"><ele>254.0</ele><time>2026-03-29T16:35:13.083Z</time></trkpt><trkpt lat="43.1345867" lon="11.5258983"><ele>253.0</ele><time>2026-03-29T16:35:14.083Z</time></trkpt><trkpt lat="43.1346367" lon="11.525735"><ele>252.0</ele><time>2026-03-29T16:35:15.084Z</time></trkpt><trkpt lat="43.1346983" lon="11.5255767"><ele>251.0</ele><time>2026-03-29T16:35:16.084Z</time></trkpt><trkpt lat="43.134765" lon="11.5254233"><ele>250.0</ele><time>2026-03-29T16:35:17.084Z</time></trkpt><trkpt lat="43.134825" lon="11.52524"><ele>249.75</ele><time>2026-03-29T16:35:18.084Z</time></trkpt><trkpt lat="43.1348767" lon="11.525055"><ele>249.5</ele><time>2026-03-29T16:35:19.083Z</time></trkpt><trkpt lat="43.1349317" lon="11.5248767"><ele>249.25</ele><time>2026-03-29T16:35:20.083Z</time></trkpt><trkpt lat="43.13499" lon="11.5246917"><ele>249.0</ele><time>2026-03-29T16:35:21.083Z</time></trkpt><trkpt lat="43.1350233" lon="11.5245183"><ele>249.75</ele><time>2026-03-29T16:35:22.084Z</time></trkpt><trkpt lat="43.13504" lon="11.5243567"><ele>250.5</ele><time>2026-03-29T16:35:23.083Z</time></trkpt><trkpt lat="43.13505" lon="11.5241883"><ele>251.25</ele><time>2026-03-29T16:35:24.084Z</time></trkpt><trkpt lat="43.1350567" lon="11.5239883"><ele>252.0</ele><time>2026-03-29T16:35:25.084Z</time></trkpt><trkpt lat="43.1350467" lon="11.523785"><ele>250.33333333333331</ele><time>2026-03-29T16:35:26.083Z</time></trkpt><trkpt lat="43.1350333" lon="11.5235733"><ele>248.66666666666666</ele><time>2026-03-29T16:35:27.084Z</time></trkpt><trkpt lat="43.1350133" lon="11.5233617"><ele>247.0</ele><time>2026-03-29T16:35:28.084Z</time></trkpt><trkpt lat="43.135" lon="11.523145"><ele>247.0</ele><time>2026-03-29T16:35:29.084Z</time></trkpt><trkpt lat="43.1349817" lon="11.52294"><ele>247.0</ele><time>2026-03-29T16:35:30.084Z</time></trkpt><trkpt lat="43.134965" lon="11.5227467"><ele>247.0</ele><time>2026-03-29T16:35:31.084Z</time></trkpt><trkpt lat="43.1349533" lon="11.522545"><ele>247.0</ele><time>2026-03-29T16:35:32.083Z</time></trkpt><trkpt lat="43.1349517" lon="11.522345"><ele>245.5</ele><time>2026-03-29T16:35:33.083Z</time></trkpt><trkpt lat="43.1349517" lon="11.5221467"><ele>244.0</ele><time>2026-03-29T16:35:34.084Z</time></trkpt><trkpt lat="43.134965" lon="11.5219433"><ele>242.5</ele><time>2026-03-29T16:35:35.084Z</time></trkpt><trkpt lat="43.1349733" lon="11.5217483"><ele>241.0</ele><time>2026-03-29T16:35:36.084Z</time></trkpt><trkpt lat="43.134985" lon="11.521545"><ele>240.0</ele><time>2026-03-29T16:35:37.083Z</time></trkpt><trkpt lat="43.135" lon="11.5213483"><ele>239.0</ele><time>2026-03-29T16:35:38.083Z</time></trkpt><trkpt lat="43.1350017" lon="11.5211583"><ele>238.0</ele><time>2026-03-29T16:35:39.084Z</time></trkpt><trkpt lat="43.1350033" lon="11.52099"><ele>237.0</ele><time>2026-03-29T16:35:40.083Z</time></trkpt><trkpt lat="43.1349917" lon="11.5208267"><ele>236.75</ele><time>2026-03-29T16:35:41.083Z</time></trkpt><trkpt lat="43.13498" lon="11.5206717"><ele>236.5</ele><time>2026-03-29T16:35:42.084Z</time></trkpt><trkpt lat="43.1349633" lon="11.5205083"><ele>236.25</ele><time>2026-03-29T16:35:43.084Z</time></trkpt><trkpt lat="43.1349383" lon="11.5203383"><ele>236.0</ele><time>2026-03-29T16:35:44.084Z</time></trkpt><trkpt lat="43.1349067" lon="11.5201717"><ele>234.5</ele><time>2026-03-29T16:35:45.084Z</time></trkpt><trkpt lat="43.1348667" lon="11.5199933"><ele>233.0</ele><time>2026-03-29T16:35:46.083Z</time></trkpt><trkpt lat="43.134825" lon="11.5198133"><ele>231.5</ele><time>2026-03-29T16:35:47.084Z</time></trkpt><trkpt lat="43.1347817" lon="11.51964"><ele>230.0</ele><time>2026-03-29T16:35:48.083Z</time></trkpt><trkpt lat="43.1347367" lon="11.5194833"><ele>230.0</ele><time>2026-03-29T16:35:49.084Z</time></trkpt><trkpt lat="43.1346933" lon="11.519335"><ele>230.0</ele><time>2026-03-29T16:35:50.083Z</time></trkpt><trkpt lat="43.13467" lon="11.5191783"><ele>230.0</ele><time>2026-03-29T16:35:51.084Z</time></trkpt><trkpt lat="43.1346533" lon="11.519025"><ele>230.0</ele><time>2026-03-29T16:35:52.084Z</time></trkpt><trkpt lat="43.1346417" lon="11.5188667"><ele>232.6</ele><time>2026-03-29T16:35:53.084Z</time></trkpt><trkpt lat="43.1346333" lon="11.5187117"><ele>235.2</ele><time>2026-03-29T16:35:54.084Z</time></trkpt><trkpt lat="43.1346317" lon="11.5185667"><ele>237.8</ele><time>2026-03-29T16:35:55.084Z</time></trkpt><trkpt lat="43.1346383" lon="11.51842"><ele>240.4</ele><time>2026-03-29T16:35:56.084Z</time></trkpt><trkpt lat="43.1346467" lon="11.518265"><ele>243.0</ele><time>2026-03-29T16:35:57.083Z</time></trkpt><trkpt lat="43.1346633" lon="11.518115"><ele>243.0</ele><time>2026-03-29T16:35:58.084Z</time></trkpt><trkpt lat="43.1346833" lon="11.5179733"><ele>243.0</ele><time>2026-03-29T16:35:59.083Z</time></trkpt><trkpt lat="43.134725" lon="11.5178417"><ele>243.0</ele><time>2026-03-29T16:36:00.083Z</time></trkpt><trkpt lat="43.134785" lon="11.517715"><ele>243.0</ele><time>2026-03-29T16:36:01.084Z</time></trkpt><trkpt lat="43.1348517" lon="11.5175917"><ele>243.0</ele><time>2026-03-29T16:36:02.083Z</time></trkpt><trkpt lat="43.1349233" lon="11.5174767"><ele>242.5</ele><time>2026-03-29T16:36:03.084Z</time></trkpt><trkpt lat="43.134985" lon="11.5173817"><ele>242.0</ele><time>2026-03-29T16:36:04.083Z</time></trkpt><trkpt lat="43.13504" lon="11.5172983"><ele>241.5</ele><time>2026-03-29T16:36:05.084Z</time></trkpt><trkpt lat="43.1350883" lon="11.517215"><ele>241.0</ele><time>2026-03-29T16:36:06.083Z</time></trkpt><trkpt lat="43.1351417" lon="11.5171367"><ele>240.5</ele><time>2026-03-29T16:36:07.083Z</time></trkpt><trkpt lat="43.1351917" lon="11.5170567"><ele>240.0</ele><time>2026-03-29T16:36:08.083Z</time></trkpt><trkpt lat="43.1352367" lon="11.516975"><ele>240.0</ele><time>2026-03-29T16:36:09.084Z</time></trkpt><trkpt lat="43.1352817" lon="11.51689"><ele>240.0</ele><time>2026-03-29T16:36:10.084Z</time></trkpt><trkpt lat="43.13533" lon="11.5168033"><ele>240.0</ele><time>2026-03-29T16:36:11.084Z</time></trkpt><trkpt lat="43.1353883" lon="11.5167067"><ele>240.0</ele><time>2026-03-29T16:36:12.084Z</time></trkpt><trkpt lat="43.1354417" lon="11.516605"><ele>240.0</ele><time>2026-03-29T16:36:13.084Z</time></trkpt><trkpt lat="43.1354967" lon="11.516505"><ele>240.0</ele><time>2026-03-29T16:36:14.084Z</time></trkpt><trkpt lat="43.135555" lon="11.5164017"><ele>240.0</ele><time>2026-03-29T16:36:15.084Z</time></trkpt><trkpt lat="43.1356267" lon="11.5162983"><ele>240.0</ele><time>2026-03-29T16:36:16.084Z</time></trkpt><trkpt lat="43.1357067" lon="11.5161883"><ele>240.0</ele><time>2026-03-29T16:36:17.083Z</time></trkpt><trkpt lat="43.1357883" lon="11.5160783"><ele>240.0</ele><time>2026-03-29T16:36:18.083Z</time></trkpt><trkpt lat="43.1358783" lon="11.5159933"><ele>240.0</ele><time>2026-03-29T16:36:19.083Z</time></trkpt><trkpt lat="43.1359733" lon="11.5159033"><ele>237.8</ele><time>2026-03-29T16:36:20.084Z</time></trkpt><trkpt lat="43.136065" lon="11.51581"><ele>235.6</ele><time>2026-03-29T16:36:21.083Z</time></trkpt><trkpt lat="43.1361433" lon="11.51571"><ele>233.39999999999998</ele><time>2026-03-29T16:36:22.084Z</time></trkpt><trkpt lat="43.1362183" lon="11.5155933"><ele>231.2</ele><time>2026-03-29T16:36:23.084Z</time></trkpt><trkpt lat="43.1362733" lon="11.5154617"><ele>229.0</ele><time>2026-03-29T16:36:24.083Z</time></trkpt><trkpt lat="43.1362933" lon="11.51532"><ele>228.25</ele><time>2026-03-29T16:36:25.084Z</time></trkpt><trkpt lat="43.136305" lon="11.5151717"><ele>227.5</ele><time>2026-03-29T16:36:26.084Z</time></trkpt><trkpt lat="43.1363083" lon="11.51501"><ele>226.75</ele><time>2026-03-29T16:36:27.084Z</time></trkpt><trkpt lat="43.1363067" lon="11.51485"><ele>226.0</ele><time>2026-03-29T16:36:28.084Z</time></trkpt><trkpt lat="43.136285" lon="11.5146883"><ele>226.75</ele><time>2026-03-29T16:36:29.084Z</time></trkpt><trkpt lat="43.1362467" lon="11.5145267"><ele>227.5</ele><time>2026-03-29T16:36:30.084Z</time></trkpt><trkpt lat="43.1361883" lon="11.514365"><ele>228.25</ele><time>2026-03-29T16:36:31.084Z</time></trkpt><trkpt lat="43.1361183" lon="11.5142033"><ele>229.0</ele><time>2026-03-29T16:36:32.084Z</time></trkpt><trkpt lat="43.13604" lon="11.514045"><ele>229.0</ele><time>2026-03-29T16:36:33.084Z</time></trkpt><trkpt lat="43.1359567" lon="11.5138917"><ele>229.0</ele><time>2026-03-29T16:36:34.084Z</time></trkpt><trkpt lat="43.13588" lon="11.5137433"><ele>229.0</ele><time>2026-03-29T16:36:35.084Z</time></trkpt><trkpt lat="43.13581" lon="11.5135867"><ele>229.0</ele><time>2026-03-29T16:36:36.084Z</time></trkpt><trkpt lat="43.135735" lon="11.513425"><ele>228.5</ele><time>2026-03-29T16:36:37.083Z</time></trkpt><trkpt lat="43.1356683" lon="11.5132583"><ele>228.0</ele><time>2026-03-29T16:36:38.084Z</time></trkpt><trkpt lat="43.135605" lon="11.5130933"><ele>227.5</ele><time>2026-03-29T16:36:39.084Z</time></trkpt><trkpt lat="43.135545" lon="11.5129267"><ele>227.0</ele><time>2026-03-29T16:36:40.083Z</time></trkpt><trkpt lat="43.135495" lon="11.51277"><ele>227.0</ele><time>2026-03-29T16:36:41.084Z</time></trkpt><trkpt lat="43.1354383" lon="11.5126133"><ele>227.0</ele><time>2026-03-29T16:36:42.083Z</time></trkpt><trkpt lat="43.1353783" lon="11.512445"><ele>227.0</ele><time>2026-03-29T16:36:43.084Z</time></trkpt><trkpt lat="43.1353083" lon="11.5122817"><ele>227.0</ele><time>2026-03-29T16:36:44.084Z</time></trkpt><trkpt lat="43.1352233" lon="11.5121033"><ele>229.5</ele><time>2026-03-29T16:36:45.084Z</time></trkpt><trkpt lat="43.1351333" lon="11.511945"><ele>232.0</ele><time>2026-03-29T16:36:46.083Z</time></trkpt><trkpt lat="43.1350467" lon="11.5117917"><ele>234.5</ele><time>2026-03-29T16:36:47.085Z</time></trkpt><trkpt lat="43.1349683" lon="11.51165"><ele>237.0</ele><time>2026-03-29T16:36:48.085Z</time></trkpt><trkpt lat="43.1348933" lon="11.5115083"><ele>237.5</ele><time>2026-03-29T16:36:49.085Z</time></trkpt><trkpt lat="43.134825" lon="11.51135"><ele>238.0</ele><time>2026-03-29T16:36:50.085Z</time></trkpt><trkpt lat="43.1347533" lon="11.51119"><ele>238.5</ele><time>2026-03-29T16:36:51.084Z</time></trkpt><trkpt lat="43.1346967" lon="11.5110433"><ele>239.0</ele><time>2026-03-29T16:36:52.085Z</time></trkpt><trkpt lat="43.1346383" lon="11.5109033"><ele>239.0</ele><time>2026-03-29T16:36:53.084Z</time></trkpt><trkpt lat="43.1345783" lon="11.5107633"><ele>239.0</ele><time>2026-03-29T16:36:54.084Z</time></trkpt><trkpt lat="43.13451" lon="11.5106317"><ele>239.0</ele><time>2026-03-29T16:36:55.085Z</time></trkpt><trkpt lat="43.1344417" lon="11.5104983"><ele>239.0</ele><time>2026-03-29T16:36:56.085Z</time></trkpt><trkpt lat="43.1343767" lon="11.510355"><ele>237.5</ele><time>2026-03-29T16:36:57.085Z</time></trkpt><trkpt lat="43.1343083" lon="11.5102117"><ele>236.0</ele><time>2026-03-29T16:36:58.085Z</time></trkpt><trkpt lat="43.134245" lon="11.51008"><ele>234.5</ele><time>2026-03-29T16:36:59.085Z</time></trkpt><trkpt lat="43.1341783" lon="11.5099417"><ele>233.0</ele><time>2026-03-29T16:37:00.085Z</time></trkpt><trkpt lat="43.13412" lon="11.5098017"><ele>233.0</ele><time>2026-03-29T16:37:01.085Z</time></trkpt><trkpt lat="43.1340583" lon="11.5096567"><ele>233.0</ele><time>2026-03-29T16:37:02.085Z</time></trkpt><trkpt lat="43.1339933" lon="11.509515"><ele>233.0</ele><time>2026-03-29T16:37:03.085Z</time></trkpt><trkpt lat="43.1339333" lon="11.50937"><ele>233.0</ele><time>2026-03-29T16:37:04.085Z</time></trkpt><trkpt lat="43.1338733" lon="11.5092167"><ele>231.25</ele><time>2026-03-29T16:37:05.085Z</time></trkpt><trkpt lat="43.1338217" lon="11.5090517"><ele>229.5</ele><time>2026-03-29T16:37:06.084Z</time></trkpt><trkpt lat="43.1337717" lon="11.5088783"><ele>227.75</ele><time>2026-03-29T16:37:07.085Z</time></trkpt><trkpt lat="43.1337333" lon="11.5086933"><ele>226.0</ele><time>2026-03-29T16:37:08.085Z</time></trkpt><trkpt lat="43.1336883" lon="11.5085083"><ele>224.5</ele><time>2026-03-29T16:37:09.085Z</time></trkpt><trkpt lat="43.1336467" lon="11.5083167"><ele>223.0</ele><time>2026-03-29T16:37:10.085Z</time></trkpt><trkpt lat="43.1336133" lon="11.5081267"><ele>221.5</ele><time>2026-03-29T16:37:11.085Z</time></trkpt><trkpt lat="43.1335767" lon="11.5079283"><ele>220.0</ele><time>2026-03-29T16:37:12.085Z</time></trkpt><trkpt lat="43.133555" lon="11.5077217"><ele>218.0</ele><time>2026-03-29T16:37:13.084Z</time></trkpt><trkpt lat="43.1335483" lon="11.5075067"><ele>216.0</ele><time>2026-03-29T16:37:14.085Z</time></trkpt><trkpt lat="43.133565" lon="11.50729"><ele>214.0</ele><time>2026-03-29T16:37:15.085Z</time></trkpt><trkpt lat="43.1335833" lon="11.5070733"><ele>213.33333333333331</ele><time>2026-03-29T16:37:16.084Z</time></trkpt><trkpt lat="43.13361" lon="11.5068517"><ele>212.66666666666669</ele><time>2026-03-29T16:37:17.085Z</time></trkpt><trkpt lat="43.1336467" lon="11.50663"><ele>212.0</ele><time>2026-03-29T16:37:18.085Z</time></trkpt><trkpt lat="43.1336717" lon="11.506405"><ele>211.0</ele><time>2026-03-29T16:37:19.084Z</time></trkpt><trkpt lat="43.1336967" lon="11.506175"><ele>210.0</ele><time>2026-03-29T16:37:20.085Z</time></trkpt><trkpt lat="43.1337183" lon="11.50595"><ele>209.0</ele><time>2026-03-29T16:37:21.084Z</time></trkpt><trkpt lat="43.13375" lon="11.5057267"><ele>209.0</ele><time>2026-03-29T16:37:22.085Z</time></trkpt><trkpt lat="43.1337783" lon="11.5055117"><ele>209.0</ele><time>2026-03-29T16:37:23.085Z</time></trkpt><trkpt lat="43.1338" lon="11.5053017"><ele>209.0</ele><time>2026-03-29T16:37:24.085Z</time></trkpt><trkpt lat="43.1338233" lon="11.5050917"><ele>209.66666666666669</ele><time>2026-03-29T16:37:25.085Z</time></trkpt><trkpt lat="43.1338533" lon="11.5048767"><ele>210.33333333333331</ele><time>2026-03-29T16:37:26.085Z</time></trkpt><trkpt lat="43.1338917" lon="11.50465"><ele>211.0</ele><time>2026-03-29T16:37:27.085Z</time></trkpt><trkpt lat="43.1339117" lon="11.5044267"><ele>211.66666666666666</ele><time>2026-03-29T16:37:28.084Z</time></trkpt><trkpt lat="43.1339467" lon="11.5041983"><ele>212.33333333333331</ele><time>2026-03-29T16:37:29.084Z</time></trkpt><trkpt lat="43.1339817" lon="11.503975"><ele>213.0</ele><time>2026-03-29T16:37:30.085Z</time></trkpt><trkpt lat="43.1340217" lon="11.5037383"><ele>211.66666666666669</ele><time>2026-03-29T16:37:31.084Z</time></trkpt><trkpt lat="43.1340633" lon="11.50349"><ele>210.33333333333334</ele><time>2026-03-29T16:37:32.084Z</time></trkpt><trkpt lat="43.13412" lon="11.5032267"><ele>209.0</ele><time>2026-03-29T16:37:33.085Z</time></trkpt><trkpt lat="43.1341733" lon="11.5029717"><ele>206.66666666666669</ele><time>2026-03-29T16:37:34.084Z</time></trkpt><trkpt lat="43.1342317" lon="11.5027217"><ele>204.33333333333331</ele><time>2026-03-29T16:37:35.085Z</time></trkpt><trkpt lat="43.1342833" lon="11.5024833"><ele>202.0</ele><time>2026-03-29T16:37:36.085Z</time></trkpt><trkpt lat="43.1343233" lon="11.5022433"><ele>199.33333333333331</ele><time>2026-03-29T16:37:37.085Z</time></trkpt><trkpt lat="43.1343733" lon="11.5020083"><ele>196.66666666666669</ele><time>2026-03-29T16:37:38.084Z</time></trkpt><trkpt lat="43.1344133" lon="11.5017767"><ele>194.0</ele><time>2026-03-29T16:37:39.085Z</time></trkpt><trkpt lat="43.13446" lon="11.5015417"><ele>194.0</ele><time>2026-03-29T16:37:40.085Z</time></trkpt><trkpt lat="43.13451" lon="11.5013117"><ele>194.0</ele><time>2026-03-29T16:37:41.085Z</time></trkpt><trkpt lat="43.1345483" lon="11.5010817"><ele>194.0</ele><time>2026-03-29T16:37:42.085Z</time></trkpt><trkpt lat="43.1345933" lon="11.50085"><ele>191.0</ele><time>2026-03-29T16:37:43.084Z</time></trkpt><trkpt lat="43.13464" lon="11.5006033"><ele>188.0</ele><time>2026-03-29T16:37:44.084Z</time></trkpt><trkpt lat="43.134695" lon="11.500345"><ele>185.0</ele><time>2026-03-29T16:37:45.085Z</time></trkpt><trkpt lat="43.1347517" lon="11.5000733"><ele>182.0</ele><time>2026-03-29T16:37:46.085Z</time></trkpt><trkpt lat="43.1348167" lon="11.4997983"><ele>179.0</ele><time>2026-03-29T16:37:47.084Z</time></trkpt><trkpt lat="43.1348817" lon="11.4995317"><ele>176.0</ele><time>2026-03-29T16:37:48.085Z</time></trkpt><trkpt lat="43.1349533" lon="11.4992633"><ele>173.66666666666666</ele><time>2026-03-29T16:37:49.085Z</time></trkpt><trkpt lat="43.135025" lon="11.4990117"><ele>171.33333333333334</ele><time>2026-03-29T16:37:50.084Z</time></trkpt><trkpt lat="43.1351017" lon="11.498745"><ele>169.0</ele><time>2026-03-29T16:37:51.085Z</time></trkpt><trkpt lat="43.1351783" lon="11.4984767"><ele>166.66666666666669</ele><time>2026-03-29T16:37:52.085Z</time></trkpt><trkpt lat="43.135265" lon="11.4982017"><ele>164.33333333333334</ele><time>2026-03-29T16:37:53.085Z</time></trkpt><trkpt lat="43.1353467" lon="11.49793"><ele>162.0</ele><time>2026-03-29T16:37:54.085Z</time></trkpt><trkpt lat="43.1354317" lon="11.49768"><ele>162.0</ele><time>2026-03-29T16:37:55.085Z</time></trkpt><trkpt lat="43.1355417" lon="11.4974217"><ele>162.0</ele><time>2026-03-29T16:37:56.084Z</time></trkpt><trkpt lat="43.1356533" lon="11.49717"><ele>162.0</ele><time>2026-03-29T16:37:57.085Z</time></trkpt><trkpt lat="43.1357833" lon="11.496935"><ele>162.0</ele><time>2026-03-29T16:37:58.085Z</time></trkpt><trkpt lat="43.135915" lon="11.496695"><ele>162.0</ele><time>2026-03-29T16:37:59.085Z</time></trkpt><trkpt lat="43.1360583" lon="11.4964383"><ele>162.5</ele><time>2026-03-29T16:38:00.084Z</time></trkpt><trkpt lat="43.1362167" lon="11.4961733"><ele>163.0</ele><time>2026-03-29T16:38:01.085Z</time></trkpt><trkpt lat="43.1363767" lon="11.4959167"><ele>163.0</ele><time>2026-03-29T16:38:02.084Z</time></trkpt><trkpt lat="43.136535" lon="11.4956533"><ele>163.0</ele><time>2026-03-29T16:38:03.085Z</time></trkpt><trkpt lat="43.1366917" lon="11.4954033"><ele>164.33333333333334</ele><time>2026-03-29T16:38:04.084Z</time></trkpt><trkpt lat="43.13683" lon="11.4951667"><ele>165.66666666666666</ele><time>2026-03-29T16:38:05.085Z</time></trkpt><trkpt lat="43.136955" lon="11.494955"><ele>167.0</ele><time>2026-03-29T16:38:06.085Z</time></trkpt><trkpt lat="43.1370733" lon="11.4947633"><ele>170.33333333333331</ele><time>2026-03-29T16:38:07.085Z</time></trkpt><trkpt lat="43.1371667" lon="11.4945783"><ele>173.66666666666666</ele><time>2026-03-29T16:38:08.085Z</time></trkpt><trkpt lat="43.137255" lon="11.494405"><ele>177.0</ele><time>2026-03-29T16:38:09.085Z</time></trkpt><trkpt lat="43.137335" lon="11.4942367"><ele>174.33333333333334</ele><time>2026-03-29T16:38:10.085Z</time></trkpt><trkpt lat="43.1374" lon="11.494045"><ele>171.66666666666669</ele><time>2026-03-29T16:38:11.084Z</time></trkpt><trkpt lat="43.137455" lon="11.4938383"><ele>169.0</ele><time>2026-03-29T16:38:12.084Z</time></trkpt><trkpt lat="43.1374867" lon="11.4936117"><ele>169.0</ele><time>2026-03-29T16:38:13.085Z</time></trkpt><trkpt lat="43.1375033" lon="11.4933733"><ele>169.0</ele><time>2026-03-29T16:38:14.084Z</time></trkpt><trkpt lat="43.1375283" lon="11.4931267"><ele>169.0</ele><time>2026-03-29T16:38:15.084Z</time></trkpt><trkpt lat="43.137555" lon="11.4928683"><ele>169.66666666666669</ele><time>2026-03-29T16:38:16.085Z</time></trkpt><trkpt lat="43.1375833" lon="11.4926033"><ele>170.33333333333334</ele><time>2026-03-29T16:38:17.085Z</time></trkpt><trkpt lat="43.1376133" lon="11.4923367"><ele>171.0</ele><time>2026-03-29T16:38:18.085Z</time></trkpt><trkpt lat="43.1376467" lon="11.4920833"><ele>173.33333333333334</ele><time>2026-03-29T16:38:19.085Z</time></trkpt><trkpt lat="43.1376783" lon="11.49185"><ele>175.66666666666669</ele><time>2026-03-29T16:38:20.085Z</time></trkpt><trkpt lat="43.137705" lon="11.4916283"><ele>178.0</ele><time>2026-03-29T16:38:21.085Z</time></trkpt><trkpt lat="43.1377333" lon="11.4914083"><ele>179.0</ele><time>2026-03-29T16:38:22.085Z</time></trkpt><trkpt lat="43.137755" lon="11.4912233"><ele>180.0</ele><time>2026-03-29T16:38:23.084Z</time></trkpt><trkpt lat="43.1377783" lon="11.491035"><ele>181.0</ele><time>2026-03-29T16:38:24.084Z</time></trkpt><trkpt lat="43.137805" lon="11.4908683"><ele>182.0</ele><time>2026-03-29T16:38:25.085Z</time></trkpt><trkpt lat="43.1378033" lon="11.4906933"><ele>182.0</ele><time>2026-03-29T16:38:26.084Z</time></trkpt><trkpt lat="43.13779" lon="11.49052"><ele>182.0</ele><time>2026-03-29T16:38:27.085Z</time></trkpt><trkpt lat="43.1377667" lon="11.4903083"><ele>182.0</ele><time>2026-03-29T16:38:28.085Z</time></trkpt><trkpt lat="43.1377483" lon="11.490085"><ele>182.0</ele><time>2026-03-29T16:38:29.084Z</time></trkpt><trkpt lat="43.1377383" lon="11.4898417"><ele>180.33333333333331</ele><time>2026-03-29T16:38:30.084Z</time></trkpt><trkpt lat="43.1377233" lon="11.4896033"><ele>178.66666666666666</ele><time>2026-03-29T16:38:31.085Z</time></trkpt><trkpt lat="43.1377133" lon="11.489355"><ele>177.0</ele><time>2026-03-29T16:38:32.085Z</time></trkpt><trkpt lat="43.1377083" lon="11.4891217"><ele>174.0</ele><time>2026-03-29T16:38:33.085Z</time></trkpt><trkpt lat="43.1377017" lon="11.4889033"><ele>171.0</ele><time>2026-03-29T16:38:34.085Z</time></trkpt><trkpt lat="43.137695" lon="11.4887"><ele>168.0</ele><time>2026-03-29T16:38:35.085Z</time></trkpt><trkpt lat="43.1376917" lon="11.488515"><ele>165.0</ele><time>2026-03-29T16:38:36.084Z</time></trkpt><trkpt lat="43.1376933" lon="11.4883517"><ele>162.5</ele><time>2026-03-29T16:38:37.084Z</time></trkpt><trkpt lat="43.137695" lon="11.4881883"><ele>160.0</ele><time>2026-03-29T16:38:38.085Z</time></trkpt><trkpt lat="43.1376917" lon="11.4880233"><ele>157.5</ele><time>2026-03-29T16:38:39.085Z</time></trkpt><trkpt lat="43.13769" lon="11.4878617"><ele>155.0</ele><time>2026-03-29T16:38:40.085Z</time></trkpt><trkpt lat="43.1376933" lon="11.48769"><ele>154.0</ele><time>2026-03-29T16:38:41.085Z</time></trkpt><trkpt lat="43.1376883" lon="11.4875183"><ele>153.0</ele><time>2026-03-29T16:38:42.085Z</time></trkpt><trkpt lat="43.1376867" lon="11.487355"><ele>152.0</ele><time>2026-03-29T16:38:43.085Z</time></trkpt><trkpt lat="43.1376983" lon="11.4871867"><ele>151.0</ele><time>2026-03-29T16:38:44.085Z</time></trkpt><trkpt lat="43.137695" lon="11.4870183"><ele>150.4</ele><time>2026-03-29T16:38:45.085Z</time></trkpt><trkpt lat="43.137695" lon="11.48687"><ele>149.8</ele><time>2026-03-29T16:38:46.085Z</time></trkpt><trkpt lat="43.1377033" lon="11.4867217"><ele>149.20000000000002</ele><time>2026-03-29T16:38:47.085Z</time></trkpt><trkpt lat="43.1377067" lon="11.4865917"><ele>148.6</ele><time>2026-03-29T16:38:48.085Z</time></trkpt><trkpt lat="43.1377017" lon="11.486455"><ele>148.0</ele><time>2026-03-29T16:38:49.085Z</time></trkpt><trkpt lat="43.1376933" lon="11.4863183"><ele>148.0</ele><time>2026-03-29T16:38:50.085Z</time></trkpt><trkpt lat="43.137695" lon="11.4861867"><ele>148.0</ele><time>2026-03-29T16:38:51.084Z</time></trkpt><trkpt lat="43.137695" lon="11.4860683"><ele>148.0</ele><time>2026-03-29T16:38:52.085Z</time></trkpt><trkpt lat="43.1376933" lon="11.4859733"><ele>148.0</ele><time>2026-03-29T16:38:53.085Z</time></trkpt><trkpt lat="43.1376783" lon="11.4858783"><ele>148.0</ele><time>2026-03-29T16:38:54.084Z</time></trkpt><trkpt lat="43.137565" lon="11.4858067"><ele>148.0</ele><time>2026-03-29T16:38:56.085Z</time></trkpt><trkpt lat="43.1374817" lon="11.4858067"><ele>147.5</ele><time>2026-03-29T16:38:57.085Z</time></trkpt><trkpt lat="43.137375" lon="11.4858217"><ele>147.0</ele><time>2026-03-29T16:38:58.085Z</time></trkpt><trkpt lat="43.1372633" lon="11.4858333"><ele>146.5</ele><time>2026-03-29T16:38:59.084Z</time></trkpt><trkpt lat="43.1371467" lon="11.48584"><ele>146.0</ele><time>2026-03-29T16:39:00.085Z</time></trkpt><trkpt lat="43.1370267" lon="11.4858517"><ele>146.0</ele><time>2026-03-29T16:39:01.085Z</time></trkpt><trkpt lat="43.136895" lon="11.4858517"><ele>146.0</ele><time>2026-03-29T16:39:02.085Z</time></trkpt><trkpt lat="43.1367617" lon="11.4858283"><ele>146.0</ele><time>2026-03-29T16:39:03.085Z</time></trkpt><trkpt lat="43.1366317" lon="11.4858233"><ele>146.0</ele><time>2026-03-29T16:39:04.084Z</time></trkpt><trkpt lat="43.1364983" lon="11.4858233"><ele>146.25</ele><time>2026-03-29T16:39:05.085Z</time></trkpt><trkpt lat="43.136355" lon="11.4858133"><ele>146.5</ele><time>2026-03-29T16:39:06.085Z</time></trkpt><trkpt lat="43.13622" lon="11.4858033"><ele>146.75</ele><time>2026-03-29T16:39:07.085Z</time></trkpt><trkpt lat="43.1360833" lon="11.4858"><ele>147.0</ele><time>2026-03-29T16:39:08.085Z</time></trkpt><trkpt lat="43.1359417" lon="11.4857983"><ele>147.0</ele><time>2026-03-29T16:39:09.084Z</time></trkpt><trkpt lat="43.1357983" lon="11.4857967"><ele>147.0</ele><time>2026-03-29T16:39:10.084Z</time></trkpt><trkpt lat="43.1356583" lon="11.485795"><ele>147.0</ele><time>2026-03-29T16:39:11.084Z</time></trkpt><trkpt lat="43.1355233" lon="11.4858017"><ele>147.0</ele><time>2026-03-29T16:39:12.085Z</time></trkpt><trkpt lat="43.13539" lon="11.4857983"><ele>147.0</ele><time>2026-03-29T16:39:13.084Z</time></trkpt><trkpt lat="43.1352567" lon="11.4857933"><ele>147.0</ele><time>2026-03-29T16:39:14.085Z</time></trkpt><trkpt lat="43.1351417" lon="11.4857767"><ele>147.0</ele><time>2026-03-29T16:39:15.084Z</time></trkpt><trkpt lat="43.1350417" lon="11.4857617"><ele>147.0</ele><time>2026-03-29T16:39:16.085Z</time></trkpt><trkpt lat="43.1349433" lon="11.4857317"><ele>147.2</ele><time>2026-03-29T16:39:17.084Z</time></trkpt><trkpt lat="43.1348583" lon="11.4856833"><ele>147.39999999999998</ele><time>2026-03-29T16:39:18.085Z</time></trkpt><trkpt lat="43.134785" lon="11.4856067"><ele>147.60000000000002</ele><time>2026-03-29T16:39:19.084Z</time></trkpt><trkpt lat="43.1347117" lon="11.485505"><ele>147.8</ele><time>2026-03-29T16:39:20.085Z</time></trkpt><trkpt lat="43.134655" lon="11.4853733"><ele>148.0</ele><time>2026-03-29T16:39:21.085Z</time></trkpt><trkpt lat="43.1346133" lon="11.485225"><ele>147.5</ele><time>2026-03-29T16:39:22.085Z</time></trkpt><trkpt lat="43.1345817" lon="11.4850733"><ele>147.0</ele><time>2026-03-29T16:39:23.085Z</time></trkpt><trkpt lat="43.1345367" lon="11.4849183"><ele>146.5</ele><time>2026-03-29T16:39:24.085Z</time></trkpt><trkpt lat="43.1344983" lon="11.4847483"><ele>146.0</ele><time>2026-03-29T16:39:25.085Z</time></trkpt><trkpt lat="43.1344633" lon="11.4845833"><ele>145.75</ele><time>2026-03-29T16:39:26.085Z</time></trkpt><trkpt lat="43.1344183" lon="11.4844167"><ele>145.5</ele><time>2026-03-29T16:39:27.085Z</time></trkpt><trkpt lat="43.1343733" lon="11.4842517"><ele>145.25</ele><time>2026-03-29T16:39:28.084Z</time></trkpt><trkpt lat="43.13434" lon="11.4840983"><ele>145.0</ele><time>2026-03-29T16:39:29.085Z</time></trkpt><trkpt lat="43.134305" lon="11.4839633"><ele>145.0</ele><time>2026-03-29T16:39:30.085Z</time></trkpt><trkpt lat="43.1342733" lon="11.48385"><ele>145.0</ele><time>2026-03-29T16:39:31.085Z</time></trkpt><trkpt lat="43.1342533" lon="11.4837583"><ele>145.0</ele><time>2026-03-29T16:39:32.084Z</time></trkpt><trkpt lat="43.1342267" lon="11.4836617"><ele>145.0</ele><time>2026-03-29T16:39:33.085Z</time></trkpt><trkpt lat="43.1342" lon="11.48356"><ele>145.0</ele><time>2026-03-29T16:39:34.085Z</time></trkpt><trkpt lat="43.1341683" lon="11.4834567"><ele>145.0</ele><time>2026-03-29T16:39:35.085Z</time></trkpt><trkpt lat="43.134155" lon="11.4833633"><ele>145.0</ele><time>2026-03-29T16:39:36.084Z</time></trkpt><trkpt lat="43.134125" lon="11.4832667"><ele>145.0</ele><time>2026-03-29T16:39:38.084Z</time></trkpt><trkpt lat="43.1341317" lon="11.4831617"><ele>145.0</ele><time>2026-03-29T16:39:45.085Z</time></trkpt><trkpt lat="43.134255" lon="11.4831367"><ele>145.0</ele><time>2026-03-29T16:39:48.085Z</time></trkpt><trkpt lat="43.1343883" lon="11.48316"><ele>145.0</ele><time>2026-03-29T16:39:50.085Z</time></trkpt><trkpt lat="43.1344717" lon="11.483175"><ele>145.0</ele><time>2026-03-29T16:39:51.084Z</time></trkpt><trkpt lat="43.134565" lon="11.4831933"><ele>145.0</ele><time>2026-03-29T16:39:52.085Z</time></trkpt><trkpt lat="43.1346567" lon="11.4832117"><ele>145.0</ele><time>2026-03-29T16:39:53.085Z</time></trkpt><trkpt lat="43.1347683" lon="11.4832283"><ele>145.0</ele><time>2026-03-29T16:39:54.085Z</time></trkpt><trkpt lat="43.1348733" lon="11.483255"><ele>145.0</ele><time>2026-03-29T16:39:55.084Z</time></trkpt><trkpt lat="43.13497" lon="11.48328"><ele>145.2</ele><time>2026-03-29T16:39:56.085Z</time></trkpt><trkpt lat="43.13507" lon="11.4832983"><ele>145.4</ele><time>2026-03-29T16:39:57.085Z</time></trkpt><trkpt lat="43.13517" lon="11.4833133"><ele>145.6</ele><time>2026-03-29T16:39:58.084Z</time></trkpt><trkpt lat="43.135275" lon="11.4833267"><ele>145.8</ele><time>2026-03-29T16:39:59.085Z</time></trkpt><trkpt lat="43.1353817" lon="11.4833433"><ele>146.0</ele><time>2026-03-29T16:40:00.084Z</time></trkpt><trkpt lat="43.135495" lon="11.4833667"><ele>146.0</ele><time>2026-03-29T16:40:01.084Z</time></trkpt><trkpt lat="43.1356117" lon="11.483385"><ele>146.0</ele><time>2026-03-29T16:40:02.085Z</time></trkpt><trkpt lat="43.1357333" lon="11.4834"><ele>146.0</ele><time>2026-03-29T16:40:03.085Z</time></trkpt><trkpt lat="43.135855" lon="11.4834133"><ele>146.0</ele><time>2026-03-29T16:40:04.085Z</time></trkpt><trkpt lat="43.13597" lon="11.483415"><ele>146.0</ele><time>2026-03-29T16:40:05.085Z</time></trkpt><trkpt lat="43.1360917" lon="11.48341"><ele>146.0</ele><time>2026-03-29T16:40:06.085Z</time></trkpt><trkpt lat="43.136215" lon="11.4834083"><ele>146.0</ele><time>2026-03-29T16:40:07.084Z</time></trkpt><trkpt lat="43.1363383" lon="11.4834167"><ele>146.0</ele><time>2026-03-29T16:40:08.085Z</time></trkpt><trkpt lat="43.1364633" lon="11.4834233"><ele>146.0</ele><time>2026-03-29T16:40:09.084Z</time></trkpt><trkpt lat="43.1365683" lon="11.4834217"><ele>146.0</ele><time>2026-03-29T16:40:10.085Z</time></trkpt><trkpt lat="43.136655" lon="11.4834183"><ele>146.0</ele><time>2026-03-29T16:40:11.085Z</time></trkpt><trkpt lat="43.1367267" lon="11.4834067"><ele>146.0</ele><time>2026-03-29T16:40:12.085Z</time></trkpt><trkpt lat="43.13681" lon="11.4833417"><ele>146.0</ele><time>2026-03-29T16:40:14.085Z</time></trkpt><trkpt lat="43.1368017" lon="11.4832233"><ele>146.0</ele><time>2026-03-29T16:40:16.084Z</time></trkpt><trkpt lat="43.1367917" lon="11.4830333"><ele>146.0</ele><time>2026-03-29T16:40:18.085Z</time></trkpt><trkpt lat="43.13679" lon="11.48292"><ele>146.0</ele><time>2026-03-29T16:40:19.085Z</time></trkpt><trkpt lat="43.1367767" lon="11.482805"><ele>146.0</ele><time>2026-03-29T16:40:20.085Z</time></trkpt><trkpt lat="43.1367717" lon="11.4826867"><ele>146.0</ele><time>2026-03-29T16:40:21.084Z</time></trkpt><trkpt lat="43.13677" lon="11.4825817"><ele>146.0</ele><time>2026-03-29T16:40:22.085Z</time></trkpt><trkpt lat="43.1367683" lon="11.48248"><ele>146.0</ele><time>2026-03-29T16:40:23.084Z</time></trkpt><trkpt lat="43.1367667" lon="11.4823833"><ele>146.0</ele><time>2026-03-29T16:40:24.085Z</time></trkpt><trkpt lat="43.13677" lon="11.4822933"><ele>146.0</ele><time>2026-03-29T16:40:25.084Z</time></trkpt><trkpt lat="43.1367683" lon="11.4821533"><ele>146.0</ele><time>2026-03-29T16:40:27.084Z</time></trkpt><trkpt lat="43.1367617" lon="11.482065"><ele>146.0</ele><time>2026-03-29T16:40:29.084Z</time></trkpt><trkpt lat="43.1367767" lon="11.48195"><ele>146.0</ele><time>2026-03-29T16:40:32.084Z</time></trkpt><trkpt lat="43.1368533" lon="11.4819217"><ele>146.0</ele><time>2026-03-29T16:40:34.084Z</time></trkpt><trkpt lat="43.13696" lon="11.4818933"><ele>146.0</ele><time>2026-03-29T16:40:36.085Z</time></trkpt><trkpt lat="43.137025" lon="11.4818817"><ele>146.0</ele><time>2026-03-29T16:40:37.085Z</time></trkpt><trkpt lat="43.1370967" lon="11.4818783"><ele>146.0</ele><time>2026-03-29T16:40:38.084Z</time></trkpt><trkpt lat="43.1371717" lon="11.481875"><ele>146.0</ele><time>2026-03-29T16:40:39.085Z</time></trkpt><trkpt lat="43.137245" lon="11.4818633"><ele>146.0</ele><time>2026-03-29T16:40:40.085Z</time></trkpt><trkpt lat="43.1373133" lon="11.48185"><ele>146.0</ele><time>2026-03-29T16:40:41.085Z</time></trkpt><trkpt lat="43.1374267" lon="11.48184"><ele>146.0</ele><time>2026-03-29T16:40:43.085Z</time></trkpt><trkpt lat="43.1374967" lon="11.481825"><ele>146.0</ele><time>2026-03-29T16:40:45.085Z</time></trkpt><trkpt lat="43.137585" lon="11.4816883"><ele>146.0</ele><time>2026-03-29T16:41:06.085Z</time></trkpt><trkpt lat="43.1376067" lon="11.4815233"><ele>146.0</ele><time>2026-03-29T16:41:08.085Z</time></trkpt><trkpt lat="43.137645" lon="11.48138"><ele>146.0</ele><time>2026-03-29T16:41:10.084Z</time></trkpt><trkpt lat="43.1377167" lon="11.481295"><ele>145.5</ele><time>2026-03-29T16:41:12.085Z</time></trkpt><trkpt lat="43.1377833" lon="11.481265"><ele>145.0</ele><time>2026-03-29T16:41:14.084Z</time></trkpt><trkpt lat="43.1378533" lon="11.481245"><ele>144.5</ele><time>2026-03-29T16:41:16.085Z</time></trkpt><trkpt lat="43.13792" lon="11.481235"><ele>144.0</ele><time>2026-03-29T16:41:18.085Z</time></trkpt><trkpt lat="43.1380117" lon="11.4812267"><ele>143.5</ele><time>2026-03-29T16:41:21.085Z</time></trkpt><trkpt lat="43.1380833" lon="11.4812167"><ele>143.0</ele><time>2026-03-29T16:41:23.084Z</time></trkpt><trkpt lat="43.1381783" lon="11.4812"><ele>143.4</ele><time>2026-03-29T16:41:25.085Z</time></trkpt><trkpt lat="43.1382633" lon="11.481185"><ele>143.8</ele><time>2026-03-29T16:41:27.084Z</time></trkpt><trkpt lat="43.1383483" lon="11.4811633"><ele>144.2</ele><time>2026-03-29T16:41:29.084Z</time></trkpt><trkpt lat="43.1384483" lon="11.4811133"><ele>144.6</ele><time>2026-03-29T16:41:31.085Z</time></trkpt><trkpt lat="43.13857" lon="11.4810917"><ele>145.0</ele><time>2026-03-29T16:41:33.085Z</time></trkpt><trkpt lat="43.1386517" lon="11.4810817"><ele>145.0</ele><time>2026-03-29T16:41:34.084Z</time></trkpt><trkpt lat="43.1387333" lon="11.4810733"><ele>145.0</ele><time>2026-03-29T16:41:35.084Z</time></trkpt><trkpt lat="43.138815" lon="11.4810583"><ele>145.0</ele><time>2026-03-29T16:41:36.085Z</time></trkpt><trkpt lat="43.1389033" lon="11.4810317"><ele>145.0</ele><time>2026-03-29T16:41:37.084Z</time></trkpt><trkpt lat="43.1389933" lon="11.4810067"><ele>145.0</ele><time>2026-03-29T16:41:38.085Z</time></trkpt><trkpt lat="43.1390767" lon="11.480995"><ele>145.0</ele><time>2026-03-29T16:41:39.084Z</time></trkpt><trkpt lat="43.1391617" lon="11.4809817"><ele>144.66666666666669</ele><time>2026-03-29T16:41:40.084Z</time></trkpt><trkpt lat="43.1392433" lon="11.4809767"><ele>144.33333333333334</ele><time>2026-03-29T16:41:41.085Z</time></trkpt><trkpt lat="43.13932" lon="11.480975"><ele>144.0</ele><time>2026-03-29T16:41:42.084Z</time></trkpt><trkpt lat="43.139405" lon="11.4810333"><ele>143.66666666666666</ele><time>2026-03-29T16:41:43.085Z</time></trkpt><trkpt lat="43.1394683" lon="11.4810883"><ele>143.33333333333331</ele><time>2026-03-29T16:41:44.085Z</time></trkpt><trkpt lat="43.1395133" lon="11.4811767"><ele>143.0</ele><time>2026-03-29T16:41:45.085Z</time></trkpt><trkpt lat="43.1395517" lon="11.4812867"><ele>143.83333333333331</ele><time>2026-03-29T16:41:46.085Z</time></trkpt><trkpt lat="43.13958" lon="11.4814067"><ele>144.66666666666666</ele><time>2026-03-29T16:41:47.085Z</time></trkpt><trkpt lat="43.1396217" lon="11.481525"><ele>145.5</ele><time>2026-03-29T16:41:48.085Z</time></trkpt><trkpt lat="43.1396583" lon="11.481635"><ele>146.33333333333334</ele><time>2026-03-29T16:41:49.085Z</time></trkpt><trkpt lat="43.139695" lon="11.4817417"><ele>147.16666666666669</ele><time>2026-03-29T16:41:50.085Z</time></trkpt><trkpt lat="43.1397333" lon="11.48184"><ele>148.0</ele><time>2026-03-29T16:41:51.085Z</time></trkpt><trkpt lat="43.1397583" lon="11.48193"><ele>148.0</ele><time>2026-03-29T16:41:52.085Z</time></trkpt><trkpt lat="43.1397867" lon="11.4820217"><ele>148.0</ele><time>2026-03-29T16:41:53.084Z</time></trkpt><trkpt lat="43.1398117" lon="11.4821167"><ele>148.0</ele><time>2026-03-29T16:41:54.084Z</time></trkpt><trkpt lat="43.1398317" lon="11.4822033"><ele>148.0</ele><time>2026-03-29T16:41:55.085Z</time></trkpt><trkpt lat="43.1398483" lon="11.4823533"><ele>148.0</ele><time>2026-03-29T16:41:57.085Z</time></trkpt><trkpt lat="43.1398533" lon="11.48244"><ele>148.0</ele><time>2026-03-29T16:41:59.085Z</time></trkpt><trkpt lat="43.13981" lon="11.4825417"><ele>147.83333333333334</ele><time>2026-03-29T16:42:02.085Z</time></trkpt><trkpt lat="43.1397617" lon="11.4826"><ele>147.66666666666669</ele><time>2026-03-29T16:42:03.085Z</time></trkpt><trkpt lat="43.1396883" lon="11.4826633"><ele>147.5</ele><time>2026-03-29T16:42:04.085Z</time></trkpt><trkpt lat="43.1396067" lon="11.482725"><ele>147.33333333333334</ele><time>2026-03-29T16:42:05.085Z</time></trkpt><trkpt lat="43.139525" lon="11.4827683"><ele>147.16666666666666</ele><time>2026-03-29T16:42:06.084Z</time></trkpt><trkpt lat="43.1394533" lon="11.4828167"><ele>147.0</ele><time>2026-03-29T16:42:07.085Z</time></trkpt><trkpt lat="43.1393817" lon="11.4828683"><ele>147.0</ele><time>2026-03-29T16:42:08.084Z</time></trkpt><trkpt lat="43.139305" lon="11.4829283"><ele>147.0</ele><time>2026-03-29T16:42:09.084Z</time></trkpt><trkpt lat="43.1392267" lon="11.4829783"><ele>147.0</ele><time>2026-03-29T16:42:10.085Z</time></trkpt><trkpt lat="43.1391417" lon="11.48302"><ele>147.0</ele><time>2026-03-29T16:42:11.085Z</time></trkpt><trkpt lat="43.1390617" lon="11.4830617"><ele>147.0</ele><time>2026-03-29T16:42:12.084Z</time></trkpt><trkpt lat="43.1389717" lon="11.4831017"><ele>147.0</ele><time>2026-03-29T16:42:13.085Z</time></trkpt><trkpt lat="43.13889" lon="11.4831417"><ele>146.79999999999998</ele><time>2026-03-29T16:42:14.085Z</time></trkpt><trkpt lat="43.1387867" lon="11.4831833"><ele>146.6</ele><time>2026-03-29T16:42:15.084Z</time></trkpt><trkpt lat="43.138685" lon="11.4832233"><ele>146.39999999999998</ele><time>2026-03-29T16:42:16.084Z</time></trkpt><trkpt lat="43.13858" lon="11.4832617"><ele>146.2</ele><time>2026-03-29T16:42:17.085Z</time></trkpt><trkpt lat="43.13848" lon="11.4832883"><ele>146.0</ele><time>2026-03-29T16:42:18.084Z</time></trkpt><trkpt lat="43.1383817" lon="11.483305"><ele>146.0</ele><time>2026-03-29T16:42:19.084Z</time></trkpt><trkpt lat="43.1382783" lon="11.483325"><ele>146.0</ele><time>2026-03-29T16:42:20.085Z</time></trkpt><trkpt lat="43.1381667" lon="11.4833367"><ele>146.0</ele><time>2026-03-29T16:42:21.084Z</time></trkpt><trkpt lat="43.1380567" lon="11.4833483"><ele>146.0</ele><time>2026-03-29T16:42:22.085Z</time></trkpt><trkpt lat="43.137945" lon="11.4833533"><ele>146.0</ele><time>2026-03-29T16:42:23.085Z</time></trkpt><trkpt lat="43.137835" lon="11.4833517"><ele>146.0</ele><time>2026-03-29T16:42:24.085Z</time></trkpt><trkpt lat="43.13773" lon="11.48335"><ele>146.0</ele><time>2026-03-29T16:42:25.085Z</time></trkpt><trkpt lat="43.1376267" lon="11.4833533"><ele>146.0</ele><time>2026-03-29T16:42:26.084Z</time></trkpt><trkpt lat="43.13753" lon="11.4833583"><ele>146.0</ele><time>2026-03-29T16:42:27.085Z</time></trkpt><trkpt lat="43.1374333" lon="11.48337"><ele>146.0</ele><time>2026-03-29T16:42:28.084Z</time></trkpt><trkpt lat="43.13733" lon="11.48338"><ele>146.0</ele><time>2026-03-29T16:42:29.085Z</time></trkpt><trkpt lat="43.1372283" lon="11.483385"><ele>146.0</ele><time>2026-03-29T16:42:30.084Z</time></trkpt><trkpt lat="43.1371383" lon="11.48339"><ele>146.0</ele><time>2026-03-29T16:42:31.085Z</time></trkpt><trkpt lat="43.1370517" lon="11.483385"><ele>146.0</ele><time>2026-03-29T16:42:32.085Z</time></trkpt><trkpt lat="43.13697" lon="11.4833867"><ele>146.0</ele><time>2026-03-29T16:42:33.085Z</time></trkpt><trkpt lat="43.1369033" lon="11.4833833"><ele>146.0</ele><time>2026-03-29T16:42:34.085Z</time></trkpt><trkpt lat="43.1367983" lon="11.48333"><ele>146.0</ele><time>2026-03-29T16:42:36.084Z</time></trkpt><trkpt lat="43.1367683" lon="11.4831783"><ele>146.0</ele><time>2026-03-29T16:42:38.085Z</time></trkpt><trkpt lat="43.1367667" lon="11.48307"><ele>146.0</ele><time>2026-03-29T16:42:39.085Z</time></trkpt><trkpt lat="43.1367717" lon="11.4829567"><ele>146.0</ele><time>2026-03-29T16:42:40.085Z</time></trkpt><trkpt lat="43.1367733" lon="11.48286"><ele>146.0</ele><time>2026-03-29T16:42:41.085Z</time></trkpt><trkpt lat="43.1367817" lon="11.482725"><ele>146.0</ele><time>2026-03-29T16:42:43.085Z</time></trkpt><trkpt lat="43.1367533" lon="11.4826217"><ele>146.0</ele><time>2026-03-29T16:42:46.084Z</time></trkpt><trkpt lat="43.1367" lon="11.48256"><ele>146.0</ele><time>2026-03-29T16:42:51.085Z</time></trkpt><trkpt lat="43.1366417" lon="11.4825267"><ele>146.0</ele><time>2026-03-29T16:42:55.085Z</time></trkpt><trkpt lat="43.1366433" lon="11.482435"><ele>146.0</ele><time>2026-03-29T16:42:59.085Z</time></trkpt></trkseg></trk></gpx>